<?xml version='1.0' encoding='UTF-8'?><gpx version="1.1" creator="JPX - https://github.com/jenetics/jpx" xmlns="http://www.topografix.com/GPX/1/1"><trk><trkseg><trkpt lat="43.3140508" lon="-8.3827494"><ele>54.0</ele><time>2026-03-29T07:44:10.058Z</time></trkpt><trkpt lat="43.3139817" lon="-8.3828123"><ele>54.0</ele><time>2026-03-29T07:44:18.057Z</time></trkpt><trkpt lat="43.3139143" lon="-8.3828847"><ele>54.0</ele><time>2026-03-29T07:44:20.058Z</time></trkpt><trkpt lat="43.3138522" lon="-8.3829528"><ele>54.0</ele><time>2026-03-29T07:44:22.058Z</time></trkpt><trkpt lat="43.3137971" lon="-8.38308"><ele>54.0</ele><time>2026-03-29T07:44:24.058Z</time></trkpt><trkpt lat="43.3137868" lon="-8.3831791"><ele>54.0</ele><time>2026-03-29T07:44:25.058Z</time></trkpt><trkpt lat="43.3137586" lon="-8.3832707"><ele>52.6</ele><time>2026-03-29T07:44:26.058Z</time></trkpt><trkpt lat="43.3137179" lon="-8.3833392"><ele>51.2</ele><time>2026-03-29T07:44:27.058Z</time></trkpt><trkpt lat="43.313561" lon="-8.3833286"><ele>49.800000000000004</ele><time>2026-03-29T07:44:29.057Z</time></trkpt><trkpt lat="43.3134605" lon="-8.3832813"><ele>48.400000000000006</ele><time>2026-03-29T07:44:30.057Z</time></trkpt><trkpt lat="43.3133721" lon="-8.3832438"><ele>47.0</ele><time>2026-03-29T07:44:31.058Z</time></trkpt><trkpt lat="43.3132765" lon="-8.3832076"><ele>47.0</ele><time>2026-03-29T07:44:32.057Z</time></trkpt><trkpt lat="43.3131757" lon="-8.383172"><ele>47.0</ele><time>2026-03-29T07:44:33.058Z</time></trkpt><trkpt lat="43.3130639" lon="-8.3831401"><ele>47.0</ele><time>2026-03-29T07:44:34.057Z</time></trkpt><trkpt lat="43.3129493" lon="-8.3831062"><ele>47.0</ele><time>2026-03-29T07:44:35.057Z</time></trkpt><trkpt lat="43.3128328" lon="-8.383068"><ele>46.0</ele><time>2026-03-29T07:44:36.057Z</time></trkpt><trkpt lat="43.3127178" lon="-8.3830271"><ele>45.0</ele><time>2026-03-29T07:44:37.057Z</time></trkpt><trkpt lat="43.3125997" lon="-8.3829905"><ele>44.0</ele><time>2026-03-29T07:44:38.057Z</time></trkpt><trkpt lat="43.3124905" lon="-8.3829487"><ele>43.0</ele><time>2026-03-29T07:44:39.058Z</time></trkpt><trkpt lat="43.3123855" lon="-8.3829021"><ele>43.0</ele><time>2026-03-29T07:44:40.058Z</time></trkpt><trkpt lat="43.312293" lon="-8.3828653"><ele>43.0</ele><time>2026-03-29T07:44:41.058Z</time></trkpt><trkpt lat="43.3122038" lon="-8.3828244"><ele>43.0</ele><time>2026-03-29T07:44:42.057Z</time></trkpt><trkpt lat="43.3121276" lon="-8.3827883"><ele>43.0</ele><time>2026-03-29T07:44:43.058Z</time></trkpt><trkpt lat="43.3120462" lon="-8.3827492"><ele>43.0</ele><time>2026-03-29T07:44:44.058Z</time></trkpt><trkpt lat="43.3119535" lon="-8.3827153"><ele>42.199999999999996</ele><time>2026-03-29T07:44:45.057Z</time></trkpt><trkpt lat="43.3118507" lon="-8.3826813"><ele>41.4</ele><time>2026-03-29T07:44:46.058Z</time></trkpt><trkpt lat="43.3117463" lon="-8.3826443"><ele>40.599999999999994</ele><time>2026-03-29T07:44:47.057Z</time></trkpt><trkpt lat="43.3116441" lon="-8.3826272"><ele>39.8</ele><time>2026-03-29T07:44:48.057Z</time></trkpt><trkpt lat="43.3115364" lon="-8.3826256"><ele>39.0</ele><time>2026-03-29T07:44:49.058Z</time></trkpt><trkpt lat="43.3114252" lon="-8.3826347"><ele>38.333333333333336</ele><time>2026-03-29T07:44:50.058Z</time></trkpt><trkpt lat="43.3113249" lon="-8.3826484"><ele>37.666666666666664</ele><time>2026-03-29T07:44:51.057Z</time></trkpt><trkpt lat="43.3112319" lon="-8.3826543"><ele>37.0</ele><time>2026-03-29T07:44:52.058Z</time></trkpt><trkpt lat="43.3111347" lon="-8.3826571"><ele>36.33333333333333</ele><time>2026-03-29T07:44:53.057Z</time></trkpt><trkpt lat="43.3110634" lon="-8.3826553"><ele>35.666666666666664</ele><time>2026-03-29T07:44:54.057Z</time></trkpt><trkpt lat="43.3109831" lon="-8.3826542"><ele>35.0</ele><time>2026-03-29T07:44:55.058Z</time></trkpt><trkpt lat="43.3108895" lon="-8.3826515"><ele>35.0</ele><time>2026-03-29T07:44:56.057Z</time></trkpt><trkpt lat="43.3107884" lon="-8.3826479"><ele>35.0</ele><time>2026-03-29T07:44:57.057Z</time></trkpt><trkpt lat="43.3106793" lon="-8.3826399"><ele>35.0</ele><time>2026-03-29T07:44:58.058Z</time></trkpt><trkpt lat="43.3105719" lon="-8.3826401"><ele>35.0</ele><time>2026-03-29T07:44:59.057Z</time></trkpt><trkpt lat="43.3104554" lon="-8.3826405"><ele>35.0</ele><time>2026-03-29T07:45:00.057Z</time></trkpt><trkpt lat="43.3103398" lon="-8.3826626"><ele>33.4</ele><time>2026-03-29T07:45:01.057Z</time></trkpt><trkpt lat="43.3102253" lon="-8.3826693"><ele>31.8</ele><time>2026-03-29T07:45:02.057Z</time></trkpt><trkpt lat="43.3101206" lon="-8.3826813"><ele>30.200000000000003</ele><time>2026-03-29T07:45:03.057Z</time></trkpt><trkpt lat="43.3100249" lon="-8.3827077"><ele>28.6</ele><time>2026-03-29T07:45:04.057Z</time></trkpt><trkpt lat="43.3099073" lon="-8.3827214"><ele>27.0</ele><time>2026-03-29T07:45:05.057Z</time></trkpt><trkpt lat="43.3097829" lon="-8.3827467"><ele>26.75</ele><time>2026-03-29T07:45:06.058Z</time></trkpt><trkpt lat="43.3096632" lon="-8.3827625"><ele>26.5</ele><time>2026-03-29T07:45:07.057Z</time></trkpt><trkpt lat="43.3095516" lon="-8.3827854"><ele>26.25</ele><time>2026-03-29T07:45:08.058Z</time></trkpt><trkpt lat="43.3094404" lon="-8.3828072"><ele>26.0</ele><time>2026-03-29T07:45:09.057Z</time></trkpt><trkpt lat="43.3093192" lon="-8.3828256"><ele>26.0</ele><time>2026-03-29T07:45:10.057Z</time></trkpt><trkpt lat="43.3091942" lon="-8.3828539"><ele>26.0</ele><time>2026-03-29T07:45:11.057Z</time></trkpt><trkpt lat="43.3090621" lon="-8.3828813"><ele>26.0</ele><time>2026-03-29T07:45:12.057Z</time></trkpt><trkpt lat="43.3089318" lon="-8.3829135"><ele>26.0</ele><time>2026-03-29T07:45:13.057Z</time></trkpt><trkpt lat="43.3087957" lon="-8.382945"><ele>25.5</ele><time>2026-03-29T07:45:14.058Z</time></trkpt><trkpt lat="43.308659" lon="-8.3829801"><ele>25.0</ele><time>2026-03-29T07:45:15.057Z</time></trkpt><trkpt lat="43.3085181" lon="-8.383013"><ele>24.5</ele><time>2026-03-29T07:45:16.057Z</time></trkpt><trkpt lat="43.3083749" lon="-8.3830558"><ele>24.0</ele><time>2026-03-29T07:45:17.057Z</time></trkpt><trkpt lat="43.3082305" lon="-8.3831085"><ele>23.75</ele><time>2026-03-29T07:45:18.057Z</time></trkpt><trkpt lat="43.3080891" lon="-8.3831775"><ele>23.5</ele><time>2026-03-29T07:45:19.058Z</time></trkpt><trkpt lat="43.3079429" lon="-8.3832323"><ele>23.25</ele><time>2026-03-29T07:45:20.057Z</time></trkpt><trkpt lat="43.3078026" lon="-8.3832393"><ele>23.0</ele><time>2026-03-29T07:45:21.058Z</time></trkpt><trkpt lat="43.3076618" lon="-8.383197"><ele>22.333333333333336</ele><time>2026-03-29T07:45:22.057Z</time></trkpt><trkpt lat="43.3075165" lon="-8.3831316"><ele>21.666666666666668</ele><time>2026-03-29T07:45:23.058Z</time></trkpt><trkpt lat="43.3073666" lon="-8.3830575"><ele>21.0</ele><time>2026-03-29T07:45:24.057Z</time></trkpt><trkpt lat="43.3072169" lon="-8.3829779"><ele>23.333333333333336</ele><time>2026-03-29T07:45:25.057Z</time></trkpt><trkpt lat="43.3070649" lon="-8.3829052"><ele>25.666666666666668</ele><time>2026-03-29T07:45:26.058Z</time></trkpt><trkpt lat="43.3069264" lon="-8.3828136"><ele>28.0</ele><time>2026-03-29T07:45:27.057Z</time></trkpt><trkpt lat="43.3068129" lon="-8.3826828"><ele>28.0</ele><time>2026-03-29T07:45:28.057Z</time></trkpt><trkpt lat="43.3067067" lon="-8.3825291"><ele>28.0</ele><time>2026-03-29T07:45:29.057Z</time></trkpt><trkpt lat="43.3066199" lon="-8.3823606"><ele>28.0</ele><time>2026-03-29T07:45:30.057Z</time></trkpt><trkpt lat="43.3065541" lon="-8.3821747"><ele>27.599999999999998</ele><time>2026-03-29T07:45:31.057Z</time></trkpt><trkpt lat="43.3065233" lon="-8.3819953"><ele>27.199999999999996</ele><time>2026-03-29T07:45:32.057Z</time></trkpt><trkpt lat="43.3065131" lon="-8.3818378"><ele>26.8</ele><time>2026-03-29T07:45:33.058Z</time></trkpt><trkpt lat="43.3065173" lon="-8.3816895"><ele>26.4</ele><time>2026-03-29T07:45:34.058Z</time></trkpt><trkpt lat="43.3065098" lon="-8.3815712"><ele>26.0</ele><time>2026-03-29T07:45:35.058Z</time></trkpt><trkpt lat="43.3065011" lon="-8.381446"><ele>29.8</ele><time>2026-03-29T07:45:36.057Z</time></trkpt><trkpt lat="43.3063866" lon="-8.3814606"><ele>33.6</ele><time>2026-03-29T07:45:38.057Z</time></trkpt><trkpt lat="43.3063238" lon="-8.3815167"><ele>37.4</ele><time>2026-03-29T07:45:39.058Z</time></trkpt><trkpt lat="43.3062569" lon="-8.3815988"><ele>41.2</ele><time>2026-03-29T07:45:40.057Z</time></trkpt><trkpt lat="43.3061897" lon="-8.3816618"><ele>45.0</ele><time>2026-03-29T07:45:41.057Z</time></trkpt><trkpt lat="43.3061094" lon="-8.381793"><ele>45.0</ele><time>2026-03-29T07:45:42.058Z</time></trkpt><trkpt lat="43.3060277" lon="-8.3819064"><ele>45.0</ele><time>2026-03-29T07:45:43.058Z</time></trkpt><trkpt lat="43.3060123" lon="-8.3820942"><ele>45.0</ele><time>2026-03-29T07:45:44.057Z</time></trkpt><trkpt lat="43.3060322" lon="-8.3822923"><ele>45.0</ele><time>2026-03-29T07:45:45.058Z</time></trkpt><trkpt lat="43.3060582" lon="-8.3824884"><ele>46.0</ele><time>2026-03-29T07:45:46.057Z</time></trkpt><trkpt lat="43.3060689" lon="-8.3826943"><ele>47.0</ele><time>2026-03-29T07:45:47.058Z</time></trkpt><trkpt lat="43.3060507" lon="-8.3829061"><ele>48.0</ele><time>2026-03-29T07:45:48.057Z</time></trkpt><trkpt lat="43.3060142" lon="-8.383131"><ele>48.0</ele><time>2026-03-29T07:45:49.058Z</time></trkpt><trkpt lat="43.3059499" lon="-8.383327"><ele>48.0</ele><time>2026-03-29T07:45:50.057Z</time></trkpt><trkpt lat="43.305854" lon="-8.3834888"><ele>48.0</ele><time>2026-03-29T07:45:51.057Z</time></trkpt><trkpt lat="43.3057255" lon="-8.3835918"><ele>52.66666666666667</ele><time>2026-03-29T07:45:52.057Z</time></trkpt><trkpt lat="43.3055713" lon="-8.383649"><ele>57.333333333333336</ele><time>2026-03-29T07:45:53.057Z</time></trkpt><trkpt lat="43.3053952" lon="-8.3836753"><ele>62.0</ele><time>2026-03-29T07:45:54.057Z</time></trkpt><trkpt lat="43.3052036" lon="-8.3837075"><ele>62.0</ele><time>2026-03-29T07:45:55.058Z</time></trkpt><trkpt lat="43.3050102" lon="-8.3837509"><ele>62.0</ele><time>2026-03-29T07:45:56.058Z</time></trkpt><trkpt lat="43.3048238" lon="-8.3838067"><ele>62.0</ele><time>2026-03-29T07:45:57.058Z</time></trkpt><trkpt lat="43.3046465" lon="-8.3838871"><ele>65.0</ele><time>2026-03-29T07:45:58.058Z</time></trkpt><trkpt lat="43.3044792" lon="-8.3839861"><ele>68.0</ele><time>2026-03-29T07:45:59.058Z</time></trkpt><trkpt lat="43.3043216" lon="-8.3841108"><ele>71.0</ele><time>2026-03-29T07:46:00.058Z</time></trkpt><trkpt lat="43.3041784" lon="-8.3842477"><ele>71.0</ele><time>2026-03-29T07:46:01.057Z</time></trkpt><trkpt lat="43.3040347" lon="-8.3843747"><ele>71.0</ele><time>2026-03-29T07:46:02.057Z</time></trkpt><trkpt lat="43.3038672" lon="-8.3844549"><ele>71.0</ele><time>2026-03-29T07:46:03.057Z</time></trkpt><trkpt lat="43.3036876" lon="-8.3844881"><ele>74.66666666666667</ele><time>2026-03-29T07:46:04.057Z</time></trkpt><trkpt lat="43.3035022" lon="-8.3845071"><ele>78.33333333333333</ele><time>2026-03-29T07:46:05.057Z</time></trkpt><trkpt lat="43.303327" lon="-8.384489"><ele>82.0</ele><time>2026-03-29T07:46:06.057Z</time></trkpt><trkpt lat="43.3031586" lon="-8.3844632"><ele>84.0</ele><time>2026-03-29T07:46:07.057Z</time></trkpt><trkpt lat="43.3029799" lon="-8.3844406"><ele>86.0</ele><time>2026-03-29T07:46:08.057Z</time></trkpt><trkpt lat="43.3028108" lon="-8.3843908"><ele>88.0</ele><time>2026-03-29T07:46:09.058Z</time></trkpt><trkpt lat="43.3026338" lon="-8.3842345"><ele>88.0</ele><time>2026-03-29T07:46:10.058Z</time></trkpt><trkpt lat="43.3024664" lon="-8.3841216"><ele>88.0</ele><time>2026-03-29T07:46:11.057Z</time></trkpt><trkpt lat="43.3023071" lon="-8.3839358"><ele>88.0</ele><time>2026-03-29T07:46:12.057Z</time></trkpt><trkpt lat="43.3021549" lon="-8.3837674"><ele>90.33333333333333</ele><time>2026-03-29T07:46:13.057Z</time></trkpt><trkpt lat="43.3019915" lon="-8.3836162"><ele>92.66666666666667</ele><time>2026-03-29T07:46:14.058Z</time></trkpt><trkpt lat="43.301823" lon="-8.3834504"><ele>95.0</ele><time>2026-03-29T07:46:15.057Z</time></trkpt><trkpt lat="43.3016338" lon="-8.3833603"><ele>95.0</ele><time>2026-03-29T07:46:16.057Z</time></trkpt><trkpt lat="43.3014456" lon="-8.3832887"><ele>95.0</ele><time>2026-03-29T07:46:17.058Z</time></trkpt><trkpt lat="43.3012536" lon="-8.3832291"><ele>95.0</ele><time>2026-03-29T07:46:18.058Z</time></trkpt><trkpt lat="43.3010626" lon="-8.3831639"><ele>98.0</ele><time>2026-03-29T07:46:19.057Z</time></trkpt><trkpt lat="43.3009061" lon="-8.383024"><ele>101.0</ele><time>2026-03-29T07:46:20.057Z</time></trkpt><trkpt lat="43.3007514" lon="-8.3828906"><ele>104.0</ele><time>2026-03-29T07:46:21.058Z</time></trkpt><trkpt lat="43.3005864" lon="-8.3827678"><ele>104.33333333333333</ele><time>2026-03-29T07:46:22.057Z</time></trkpt><trkpt lat="43.3004193" lon="-8.3826826"><ele>104.66666666666666</ele><time>2026-03-29T07:46:23.057Z</time></trkpt><trkpt lat="43.3002451" lon="-8.3826468"><ele>105.0</ele><time>2026-03-29T07:46:24.058Z</time></trkpt><trkpt lat="43.3000791" lon="-8.3826375"><ele>105.0</ele><time>2026-03-29T07:46:25.057Z</time></trkpt><trkpt lat="43.2999179" lon="-8.3826158"><ele>105.0</ele><time>2026-03-29T07:46:26.057Z</time></trkpt><trkpt lat="43.2997816" lon="-8.3825612"><ele>105.0</ele><time>2026-03-29T07:46:27.058Z</time></trkpt><trkpt lat="43.2996543" lon="-8.3825644"><ele>105.0</ele><time>2026-03-29T07:46:28.057Z</time></trkpt><trkpt lat="43.2995397" lon="-8.3826157"><ele>105.5</ele><time>2026-03-29T07:46:29.058Z</time></trkpt><trkpt lat="43.2994285" lon="-8.3826933"><ele>106.0</ele><time>2026-03-29T07:46:30.057Z</time></trkpt><trkpt lat="43.2993057" lon="-8.3827623"><ele>106.5</ele><time>2026-03-29T07:46:31.058Z</time></trkpt><trkpt lat="43.2991837" lon="-8.3828373"><ele>107.0</ele><time>2026-03-29T07:46:32.057Z</time></trkpt><trkpt lat="43.2990535" lon="-8.3829196"><ele>107.0</ele><time>2026-03-29T07:46:33.057Z</time></trkpt><trkpt lat="43.2989199" lon="-8.3829989"><ele>107.0</ele><time>2026-03-29T07:46:34.057Z</time></trkpt><trkpt lat="43.2987901" lon="-8.3830874"><ele>107.0</ele><time>2026-03-29T07:46:35.057Z</time></trkpt><trkpt lat="43.2986622" lon="-8.3831825"><ele>107.0</ele><time>2026-03-29T07:46:36.057Z</time></trkpt><trkpt lat="43.2985431" lon="-8.3832836"><ele>108.0</ele><time>2026-03-29T07:46:37.057Z</time></trkpt><trkpt lat="43.2984258" lon="-8.3833969"><ele>109.0</ele><time>2026-03-29T07:46:38.058Z</time></trkpt><trkpt lat="43.2983132" lon="-8.3835106"><ele>110.0</ele><time>2026-03-29T07:46:39.058Z</time></trkpt><trkpt lat="43.2981937" lon="-8.3836317"><ele>111.0</ele><time>2026-03-29T07:46:40.057Z</time></trkpt><trkpt lat="43.2980901" lon="-8.3837094"><ele>111.25</ele><time>2026-03-29T07:46:41.057Z</time></trkpt><trkpt lat="43.2979768" lon="-8.3837794"><ele>111.5</ele><time>2026-03-29T07:46:42.057Z</time></trkpt><trkpt lat="43.2978684" lon="-8.3838351"><ele>111.75</ele><time>2026-03-29T07:46:43.057Z</time></trkpt><trkpt lat="43.2977587" lon="-8.3838845"><ele>112.0</ele><time>2026-03-29T07:46:44.058Z</time></trkpt><trkpt lat="43.2976472" lon="-8.383933"><ele>112.0</ele><time>2026-03-29T07:46:45.058Z</time></trkpt><trkpt lat="43.297537" lon="-8.3839766"><ele>112.0</ele><time>2026-03-29T07:46:46.057Z</time></trkpt><trkpt lat="43.2974279" lon="-8.3840232"><ele>112.0</ele><time>2026-03-29T07:46:47.057Z</time></trkpt><trkpt lat="43.2973201" lon="-8.3840686"><ele>112.0</ele><time>2026-03-29T07:46:48.057Z</time></trkpt><trkpt lat="43.297213" lon="-8.3841067"><ele>110.8</ele><time>2026-03-29T07:46:49.058Z</time></trkpt><trkpt lat="43.297104" lon="-8.3841435"><ele>109.6</ele><time>2026-03-29T07:46:50.057Z</time></trkpt><trkpt lat="43.2969992" lon="-8.3841814"><ele>108.39999999999999</ele><time>2026-03-29T07:46:51.057Z</time></trkpt><trkpt lat="43.2968926" lon="-8.3842224"><ele>107.19999999999999</ele><time>2026-03-29T07:46:52.057Z</time></trkpt><trkpt lat="43.2967911" lon="-8.3842739"><ele>106.0</ele><time>2026-03-29T07:46:53.057Z</time></trkpt><trkpt lat="43.2966961" lon="-8.3843454"><ele>106.0</ele><time>2026-03-29T07:46:54.058Z</time></trkpt><trkpt lat="43.2966043" lon="-8.3844306"><ele>106.0</ele><time>2026-03-29T07:46:55.058Z</time></trkpt><trkpt lat="43.2965124" lon="-8.3845249"><ele>106.0</ele><time>2026-03-29T07:46:56.057Z</time></trkpt><trkpt lat="43.2964217" lon="-8.3846213"><ele>106.0</ele><time>2026-03-29T07:46:57.058Z</time></trkpt><trkpt lat="43.2963337" lon="-8.3847195"><ele>105.4</ele><time>2026-03-29T07:46:58.057Z</time></trkpt><trkpt lat="43.2962462" lon="-8.3848151"><ele>104.8</ele><time>2026-03-29T07:46:59.057Z</time></trkpt><trkpt lat="43.2961529" lon="-8.3848869"><ele>104.2</ele><time>2026-03-29T07:47:00.057Z</time></trkpt><trkpt lat="43.2960586" lon="-8.3849334"><ele>103.60000000000001</ele><time>2026-03-29T07:47:01.057Z</time></trkpt><trkpt lat="43.2959585" lon="-8.3849653"><ele>103.0</ele><time>2026-03-29T07:47:02.057Z</time></trkpt><trkpt lat="43.2958699" lon="-8.3850293"><ele>103.0</ele><time>2026-03-29T07:47:03.057Z</time></trkpt><trkpt lat="43.295798" lon="-8.3851231"><ele>103.0</ele><time>2026-03-29T07:47:04.057Z</time></trkpt><trkpt lat="43.2957495" lon="-8.3852422"><ele>103.0</ele><time>2026-03-29T07:47:05.057Z</time></trkpt><trkpt lat="43.2957248" lon="-8.3853745"><ele>103.0</ele><time>2026-03-29T07:47:06.058Z</time></trkpt><trkpt lat="43.2956994" lon="-8.3855194"><ele>103.0</ele><time>2026-03-29T07:47:07.057Z</time></trkpt><trkpt lat="43.2956941" lon="-8.3856734"><ele>103.4</ele><time>2026-03-29T07:47:08.058Z</time></trkpt><trkpt lat="43.295682" lon="-8.3858176"><ele>103.80000000000001</ele><time>2026-03-29T07:47:09.058Z</time></trkpt><trkpt lat="43.2956532" lon="-8.3859558"><ele>104.2</ele><time>2026-03-29T07:47:10.057Z</time></trkpt><trkpt lat="43.295596" lon="-8.3860767"><ele>104.6</ele><time>2026-03-29T07:47:11.057Z</time></trkpt><trkpt lat="43.2955134" lon="-8.386177"><ele>105.0</ele><time>2026-03-29T07:47:12.057Z</time></trkpt><trkpt lat="43.2954085" lon="-8.3862566"><ele>104.75</ele><time>2026-03-29T07:47:13.058Z</time></trkpt><trkpt lat="43.2953032" lon="-8.3863345"><ele>104.5</ele><time>2026-03-29T07:47:14.058Z</time></trkpt><trkpt lat="43.2952019" lon="-8.3864183"><ele>104.25</ele><time>2026-03-29T07:47:15.057Z</time></trkpt><trkpt lat="43.2950943" lon="-8.3864949"><ele>104.0</ele><time>2026-03-29T07:47:16.057Z</time></trkpt><trkpt lat="43.2949903" lon="-8.386568"><ele>104.0</ele><time>2026-03-29T07:47:17.057Z</time></trkpt><trkpt lat="43.2948689" lon="-8.3866327"><ele>104.0</ele><time>2026-03-29T07:47:18.058Z</time></trkpt><trkpt lat="43.2947504" lon="-8.3866616"><ele>104.0</ele><time>2026-03-29T07:47:19.057Z</time></trkpt><trkpt lat="43.2946255" lon="-8.3866706"><ele>104.0</ele><time>2026-03-29T07:47:20.058Z</time></trkpt><trkpt lat="43.2944991" lon="-8.3866965"><ele>102.75</ele><time>2026-03-29T07:47:21.058Z</time></trkpt><trkpt lat="43.2943764" lon="-8.3867302"><ele>101.5</ele><time>2026-03-29T07:47:22.058Z</time></trkpt><trkpt lat="43.2942533" lon="-8.3867794"><ele>100.25</ele><time>2026-03-29T07:47:23.058Z</time></trkpt><trkpt lat="43.2941366" lon="-8.3868346"><ele>99.0</ele><time>2026-03-29T07:47:24.057Z</time></trkpt><trkpt lat="43.2940299" lon="-8.3868979"><ele>99.0</ele><time>2026-03-29T07:47:25.057Z</time></trkpt><trkpt lat="43.2939305" lon="-8.3869643"><ele>99.0</ele><time>2026-03-29T07:47:26.057Z</time></trkpt><trkpt lat="43.29384" lon="-8.3870501"><ele>99.0</ele><time>2026-03-29T07:47:27.057Z</time></trkpt><trkpt lat="43.2937701" lon="-8.3871612"><ele>99.0</ele><time>2026-03-29T07:47:28.057Z</time></trkpt><trkpt lat="43.2937193" lon="-8.3872858"><ele>99.0</ele><time>2026-03-29T07:47:29.057Z</time></trkpt><trkpt lat="43.2936792" lon="-8.3874091"><ele>98.80000000000001</ele><time>2026-03-29T07:47:30.057Z</time></trkpt><trkpt lat="43.293646" lon="-8.3875129"><ele>98.60000000000001</ele><time>2026-03-29T07:47:31.057Z</time></trkpt><trkpt lat="43.2936192" lon="-8.3876174"><ele>98.4</ele><time>2026-03-29T07:47:32.057Z</time></trkpt><trkpt lat="43.2935929" lon="-8.3877394"><ele>98.2</ele><time>2026-03-29T07:47:33.057Z</time></trkpt><trkpt lat="43.2935868" lon="-8.3878862"><ele>98.0</ele><time>2026-03-29T07:47:34.057Z</time></trkpt><trkpt lat="43.2935992" lon="-8.3880684"><ele>97.0</ele><time>2026-03-29T07:47:35.057Z</time></trkpt><trkpt lat="43.2936016" lon="-8.3882701"><ele>96.0</ele><time>2026-03-29T07:47:36.058Z</time></trkpt><trkpt lat="43.2936001" lon="-8.3884978"><ele>95.0</ele><time>2026-03-29T07:47:37.058Z</time></trkpt><trkpt lat="43.2935865" lon="-8.3887275"><ele>96.0</ele><time>2026-03-29T07:47:38.057Z</time></trkpt><trkpt lat="43.2935631" lon="-8.3889574"><ele>97.0</ele><time>2026-03-29T07:47:39.057Z</time></trkpt><trkpt lat="43.2935222" lon="-8.389184"><ele>98.0</ele><time>2026-03-29T07:47:40.057Z</time></trkpt><trkpt lat="43.2934602" lon="-8.3894014"><ele>98.0</ele><time>2026-03-29T07:47:41.057Z</time></trkpt><trkpt lat="43.2933782" lon="-8.3896131"><ele>98.0</ele><time>2026-03-29T07:47:42.057Z</time></trkpt><trkpt lat="43.293285" lon="-8.3898183"><ele>98.0</ele><time>2026-03-29T07:47:43.057Z</time></trkpt><trkpt lat="43.2931812" lon="-8.3900189"><ele>96.66666666666666</ele><time>2026-03-29T07:47:44.058Z</time></trkpt><trkpt lat="43.293065" lon="-8.3902072"><ele>95.33333333333333</ele><time>2026-03-29T07:47:45.058Z</time></trkpt><trkpt lat="43.2929369" lon="-8.3903762"><ele>94.0</ele><time>2026-03-29T07:47:46.058Z</time></trkpt><trkpt lat="43.2927885" lon="-8.3905125"><ele>94.0</ele><time>2026-03-29T07:47:47.058Z</time></trkpt><trkpt lat="43.2926289" lon="-8.3906237"><ele>94.0</ele><time>2026-03-29T07:47:48.058Z</time></trkpt><trkpt lat="43.2924689" lon="-8.3907391"><ele>94.0</ele><time>2026-03-29T07:47:49.057Z</time></trkpt><trkpt lat="43.2923242" lon="-8.390881"><ele>95.66666666666666</ele><time>2026-03-29T07:47:50.058Z</time></trkpt><trkpt lat="43.2922014" lon="-8.3910548"><ele>97.33333333333333</ele><time>2026-03-29T07:47:51.057Z</time></trkpt><trkpt lat="43.2920882" lon="-8.3912452"><ele>99.0</ele><time>2026-03-29T07:47:52.057Z</time></trkpt><trkpt lat="43.2919739" lon="-8.3914324"><ele>99.0</ele><time>2026-03-29T07:47:53.058Z</time></trkpt><trkpt lat="43.2918404" lon="-8.3916082"><ele>99.0</ele><time>2026-03-29T07:47:54.058Z</time></trkpt><trkpt lat="43.2916977" lon="-8.39177"><ele>99.0</ele><time>2026-03-29T07:47:55.057Z</time></trkpt><trkpt lat="43.2915364" lon="-8.3919044"><ele>95.0</ele><time>2026-03-29T07:47:56.057Z</time></trkpt><trkpt lat="43.2913635" lon="-8.3919919"><ele>91.0</ele><time>2026-03-29T07:47:57.058Z</time></trkpt><trkpt lat="43.2911764" lon="-8.3920587"><ele>87.0</ele><time>2026-03-29T07:47:58.058Z</time></trkpt><trkpt lat="43.290992" lon="-8.3921287"><ele>86.66666666666667</ele><time>2026-03-29T07:47:59.058Z</time></trkpt><trkpt lat="43.2908146" lon="-8.3922071"><ele>86.33333333333334</ele><time>2026-03-29T07:48:00.057Z</time></trkpt><trkpt lat="43.2906458" lon="-8.3922904"><ele>86.0</ele><time>2026-03-29T07:48:01.058Z</time></trkpt><trkpt lat="43.2904957" lon="-8.3923796"><ele>86.0</ele><time>2026-03-29T07:48:02.057Z</time></trkpt><trkpt lat="43.2903568" lon="-8.3924746"><ele>86.0</ele><time>2026-03-29T07:48:03.058Z</time></trkpt><trkpt lat="43.2902307" lon="-8.3925621"><ele>86.0</ele><time>2026-03-29T07:48:04.057Z</time></trkpt><trkpt lat="43.2901121" lon="-8.3926285"><ele>86.0</ele><time>2026-03-29T07:48:05.057Z</time></trkpt><trkpt lat="43.2899939" lon="-8.3926344"><ele>86.0</ele><time>2026-03-29T07:48:06.058Z</time></trkpt><trkpt lat="43.2898847" lon="-8.3925658"><ele>86.0</ele><time>2026-03-29T07:48:07.057Z</time></trkpt><trkpt lat="43.2897521" lon="-8.3924712"><ele>86.0</ele><time>2026-03-29T07:48:08.057Z</time></trkpt><trkpt lat="43.2896571" lon="-8.3923668"><ele>86.0</ele><time>2026-03-29T07:48:09.057Z</time></trkpt><trkpt lat="43.2895439" lon="-8.3921904"><ele>83.66666666666667</ele><time>2026-03-29T07:48:10.057Z</time></trkpt><trkpt lat="43.2894281" lon="-8.3920459"><ele>81.33333333333333</ele><time>2026-03-29T07:48:11.057Z</time></trkpt><trkpt lat="43.2892868" lon="-8.3919111"><ele>79.0</ele><time>2026-03-29T07:48:12.058Z</time></trkpt><trkpt lat="43.2891513" lon="-8.391781"><ele>79.0</ele><time>2026-03-29T07:48:13.057Z</time></trkpt><trkpt lat="43.2890217" lon="-8.3916428"><ele>79.0</ele><time>2026-03-29T07:48:14.058Z</time></trkpt><trkpt lat="43.2889022" lon="-8.3915086"><ele>79.0</ele><time>2026-03-29T07:48:15.057Z</time></trkpt><trkpt lat="43.2887943" lon="-8.3913754"><ele>79.0</ele><time>2026-03-29T07:48:16.058Z</time></trkpt><trkpt lat="43.2887056" lon="-8.3912465"><ele>79.0</ele><time>2026-03-29T07:48:17.057Z</time></trkpt><trkpt lat="43.2886243" lon="-8.3911144"><ele>79.0</ele><time>2026-03-29T07:48:18.057Z</time></trkpt><trkpt lat="43.2885602" lon="-8.3909797"><ele>79.0</ele><time>2026-03-29T07:48:19.058Z</time></trkpt><trkpt lat="43.2885209" lon="-8.3908379"><ele>79.0</ele><time>2026-03-29T07:48:20.057Z</time></trkpt><trkpt lat="43.2885114" lon="-8.3906823"><ele>79.0</ele><time>2026-03-29T07:48:21.058Z</time></trkpt><trkpt lat="43.2885187" lon="-8.3905218"><ele>79.0</ele><time>2026-03-29T07:48:22.057Z</time></trkpt><trkpt lat="43.2885192" lon="-8.3903633"><ele>79.0</ele><time>2026-03-29T07:48:23.057Z</time></trkpt><trkpt lat="43.2885043" lon="-8.3902121"><ele>79.2</ele><time>2026-03-29T07:48:24.057Z</time></trkpt><trkpt lat="43.2884712" lon="-8.390062"><ele>79.4</ele><time>2026-03-29T07:48:25.057Z</time></trkpt><trkpt lat="43.2884154" lon="-8.3899331"><ele>79.6</ele><time>2026-03-29T07:48:26.057Z</time></trkpt><trkpt lat="43.2883474" lon="-8.3898213"><ele>79.8</ele><time>2026-03-29T07:48:27.058Z</time></trkpt><trkpt lat="43.2882655" lon="-8.3897425"><ele>80.0</ele><time>2026-03-29T07:48:28.058Z</time></trkpt><trkpt lat="43.2881758" lon="-8.3897022"><ele>81.4</ele><time>2026-03-29T07:48:29.057Z</time></trkpt><trkpt lat="43.2880816" lon="-8.3896924"><ele>82.8</ele><time>2026-03-29T07:48:30.058Z</time></trkpt><trkpt lat="43.2879892" lon="-8.3896788"><ele>84.19999999999999</ele><time>2026-03-29T07:48:31.058Z</time></trkpt><trkpt lat="43.2878913" lon="-8.3896955"><ele>85.6</ele><time>2026-03-29T07:48:32.058Z</time></trkpt><trkpt lat="43.287794" lon="-8.3897156"><ele>87.0</ele><time>2026-03-29T07:48:33.057Z</time></trkpt><trkpt lat="43.2876958" lon="-8.3897581"><ele>87.0</ele><time>2026-03-29T07:48:34.057Z</time></trkpt><trkpt lat="43.2876038" lon="-8.3898111"><ele>87.0</ele><time>2026-03-29T07:48:35.058Z</time></trkpt><trkpt lat="43.2875169" lon="-8.3898431"><ele>87.0</ele><time>2026-03-29T07:48:36.057Z</time></trkpt><trkpt lat="43.2874453" lon="-8.3899054"><ele>87.0</ele><time>2026-03-29T07:48:37.057Z</time></trkpt><trkpt lat="43.2873967" lon="-8.3900024"><ele>87.0</ele><time>2026-03-29T07:48:38.057Z</time></trkpt><trkpt lat="43.2873894" lon="-8.3901362"><ele>87.0</ele><time>2026-03-29T07:48:39.057Z</time></trkpt><trkpt lat="43.2873839" lon="-8.3902794"><ele>87.0</ele><time>2026-03-29T07:48:40.057Z</time></trkpt><trkpt lat="43.2873375" lon="-8.3904097"><ele>87.0</ele><time>2026-03-29T07:48:41.058Z</time></trkpt><trkpt lat="43.2872571" lon="-8.3905131"><ele>87.0</ele><time>2026-03-29T07:48:42.057Z</time></trkpt><trkpt lat="43.2871561" lon="-8.390601"><ele>87.0</ele><time>2026-03-29T07:48:43.058Z</time></trkpt><trkpt lat="43.2869814" lon="-8.3906398"><ele>87.66666666666667</ele><time>2026-03-29T07:48:44.057Z</time></trkpt><trkpt lat="43.2868228" lon="-8.390733"><ele>88.33333333333334</ele><time>2026-03-29T07:48:45.058Z</time></trkpt><trkpt lat="43.2866614" lon="-8.3908476"><ele>89.0</ele><time>2026-03-29T07:48:46.058Z</time></trkpt><trkpt lat="43.2865025" lon="-8.3909852"><ele>91.66666666666667</ele><time>2026-03-29T07:48:47.057Z</time></trkpt><trkpt lat="43.2863457" lon="-8.3911158"><ele>94.33333333333334</ele><time>2026-03-29T07:48:48.057Z</time></trkpt><trkpt lat="43.2861958" lon="-8.391247"><ele>97.0</ele><time>2026-03-29T07:48:49.058Z</time></trkpt><trkpt lat="43.2860461" lon="-8.3913746"><ele>97.0</ele><time>2026-03-29T07:48:50.057Z</time></trkpt><trkpt lat="43.2858934" lon="-8.3915034"><ele>97.0</ele><time>2026-03-29T07:48:51.058Z</time></trkpt><trkpt lat="43.2857367" lon="-8.3916224"><ele>97.0</ele><time>2026-03-29T07:48:52.057Z</time></trkpt><trkpt lat="43.2855806" lon="-8.3917354"><ele>100.33333333333334</ele><time>2026-03-29T07:48:53.057Z</time></trkpt><trkpt lat="43.2854251" lon="-8.3918521"><ele>103.66666666666666</ele><time>2026-03-29T07:48:54.057Z</time></trkpt><trkpt lat="43.2852656" lon="-8.3919674"><ele>107.0</ele><time>2026-03-29T07:48:55.058Z</time></trkpt><trkpt lat="43.285106" lon="-8.392081"><ele>105.0</ele><time>2026-03-29T07:48:56.057Z</time></trkpt><trkpt lat="43.2849431" lon="-8.3921949"><ele>103.0</ele><time>2026-03-29T07:48:57.058Z</time></trkpt><trkpt lat="43.2847777" lon="-8.3923051"><ele>101.0</ele><time>2026-03-29T07:48:58.058Z</time></trkpt><trkpt lat="43.2846108" lon="-8.3924127"><ele>105.66666666666666</ele><time>2026-03-29T07:48:59.057Z</time></trkpt><trkpt lat="43.2844443" lon="-8.3925224"><ele>110.33333333333334</ele><time>2026-03-29T07:49:00.057Z</time></trkpt><trkpt lat="43.2842706" lon="-8.3926319"><ele>115.0</ele><time>2026-03-29T07:49:01.058Z</time></trkpt><trkpt lat="43.2841015" lon="-8.3927487"><ele>115.0</ele><time>2026-03-29T07:49:02.057Z</time></trkpt><trkpt lat="43.2839316" lon="-8.3928642"><ele>115.0</ele><time>2026-03-29T07:49:03.058Z</time></trkpt><trkpt lat="43.2837673" lon="-8.3929847"><ele>115.0</ele><time>2026-03-29T07:49:04.057Z</time></trkpt><trkpt lat="43.2836049" lon="-8.3931107"><ele>117.66666666666667</ele><time>2026-03-29T07:49:05.057Z</time></trkpt><trkpt lat="43.2834522" lon="-8.3932543"><ele>120.33333333333334</ele><time>2026-03-29T07:49:06.058Z</time></trkpt><trkpt lat="43.283313" lon="-8.3934235"><ele>123.0</ele><time>2026-03-29T07:49:07.057Z</time></trkpt><trkpt lat="43.2831901" lon="-8.3936119"><ele>125.0</ele><time>2026-03-29T07:49:08.057Z</time></trkpt><trkpt lat="43.2830894" lon="-8.3938198"><ele>127.0</ele><time>2026-03-29T07:49:09.057Z</time></trkpt><trkpt lat="43.2829958" lon="-8.3940345"><ele>129.0</ele><time>2026-03-29T07:49:10.057Z</time></trkpt><trkpt lat="43.2829072" lon="-8.3942455"><ele>129.0</ele><time>2026-03-29T07:49:11.058Z</time></trkpt><trkpt lat="43.2828148" lon="-8.3944353"><ele>129.0</ele><time>2026-03-29T07:49:12.058Z</time></trkpt><trkpt lat="43.282722" lon="-8.394603"><ele>129.0</ele><time>2026-03-29T07:49:13.057Z</time></trkpt><trkpt lat="43.2826322" lon="-8.3947414"><ele>128.75</ele><time>2026-03-29T07:49:14.058Z</time></trkpt><trkpt lat="43.2825569" lon="-8.394871"><ele>128.5</ele><time>2026-03-29T07:49:15.058Z</time></trkpt><trkpt lat="43.2825071" lon="-8.3950134"><ele>128.25</ele><time>2026-03-29T07:49:16.057Z</time></trkpt><trkpt lat="43.2824437" lon="-8.3951402"><ele>128.0</ele><time>2026-03-29T07:49:17.057Z</time></trkpt><trkpt lat="43.2823476" lon="-8.3952176"><ele>127.5</ele><time>2026-03-29T07:49:18.057Z</time></trkpt><trkpt lat="43.2822305" lon="-8.3952422"><ele>127.0</ele><time>2026-03-29T07:49:19.057Z</time></trkpt><trkpt lat="43.2820961" lon="-8.3952521"><ele>126.5</ele><time>2026-03-29T07:49:20.058Z</time></trkpt><trkpt lat="43.2819526" lon="-8.3952897"><ele>126.0</ele><time>2026-03-29T07:49:21.057Z</time></trkpt><trkpt lat="43.2818" lon="-8.3953657"><ele>126.0</ele><time>2026-03-29T07:49:22.057Z</time></trkpt><trkpt lat="43.2816383" lon="-8.3954556"><ele>126.0</ele><time>2026-03-29T07:49:23.057Z</time></trkpt><trkpt lat="43.2814647" lon="-8.395543"><ele>126.0</ele><time>2026-03-29T07:49:24.057Z</time></trkpt><trkpt lat="43.281285" lon="-8.3956246"><ele>125.33333333333334</ele><time>2026-03-29T07:49:25.057Z</time></trkpt><trkpt lat="43.2810967" lon="-8.3956881"><ele>124.66666666666667</ele><time>2026-03-29T07:49:26.058Z</time></trkpt><trkpt lat="43.2809003" lon="-8.3957325"><ele>124.0</ele><time>2026-03-29T07:49:27.057Z</time></trkpt><trkpt lat="43.2806972" lon="-8.3957638"><ele>122.66666666666667</ele><time>2026-03-29T07:49:28.057Z</time></trkpt><trkpt lat="43.2804934" lon="-8.3957827"><ele>121.33333333333334</ele><time>2026-03-29T07:49:29.057Z</time></trkpt><trkpt lat="43.2802863" lon="-8.3957988"><ele>120.0</ele><time>2026-03-29T07:49:30.058Z</time></trkpt><trkpt lat="43.2800806" lon="-8.3958114"><ele>120.0</ele><time>2026-03-29T07:49:31.058Z</time></trkpt><trkpt lat="43.2798843" lon="-8.39583"><ele>120.0</ele><time>2026-03-29T07:49:32.057Z</time></trkpt><trkpt lat="43.27969" lon="-8.3958621"><ele>120.0</ele><time>2026-03-29T07:49:33.057Z</time></trkpt><trkpt lat="43.2795086" lon="-8.3959236"><ele>118.66666666666666</ele><time>2026-03-29T07:49:34.057Z</time></trkpt><trkpt lat="43.2793402" lon="-8.3960082"><ele>117.33333333333333</ele><time>2026-03-29T07:49:35.058Z</time></trkpt><trkpt lat="43.2791836" lon="-8.396096"><ele>116.0</ele><time>2026-03-29T07:49:36.057Z</time></trkpt><trkpt lat="43.279048" lon="-8.3962126"><ele>116.33333333333333</ele><time>2026-03-29T07:49:37.057Z</time></trkpt><trkpt lat="43.2789497" lon="-8.3963633"><ele>116.66666666666666</ele><time>2026-03-29T07:49:38.057Z</time></trkpt><trkpt lat="43.2788907" lon="-8.3965559"><ele>117.0</ele><time>2026-03-29T07:49:39.058Z</time></trkpt><trkpt lat="43.2788556" lon="-8.396771"><ele>117.33333333333334</ele><time>2026-03-29T07:49:40.057Z</time></trkpt><trkpt lat="43.2788217" lon="-8.3970025"><ele>117.66666666666667</ele><time>2026-03-29T07:49:41.058Z</time></trkpt><trkpt lat="43.2787698" lon="-8.3972199"><ele>118.0</ele><time>2026-03-29T07:49:42.058Z</time></trkpt><trkpt lat="43.2786912" lon="-8.3974148"><ele>117.0</ele><time>2026-03-29T07:49:43.058Z</time></trkpt><trkpt lat="43.2785481" lon="-8.3975644"><ele>116.0</ele><time>2026-03-29T07:49:44.058Z</time></trkpt><trkpt lat="43.2783959" lon="-8.3976963"><ele>115.0</ele><time>2026-03-29T07:49:45.058Z</time></trkpt><trkpt lat="43.278234" lon="-8.3978038"><ele>113.33333333333334</ele><time>2026-03-29T07:49:46.058Z</time></trkpt><trkpt lat="43.278052" lon="-8.397958"><ele>111.66666666666666</ele><time>2026-03-29T07:49:47.058Z</time></trkpt><trkpt lat="43.2778771" lon="-8.3981009"><ele>110.0</ele><time>2026-03-29T07:49:48.057Z</time></trkpt><trkpt lat="43.2777059" lon="-8.3982393"><ele>109.33333333333333</ele><time>2026-03-29T07:49:49.058Z</time></trkpt><trkpt lat="43.2775362" lon="-8.3983733"><ele>108.66666666666666</ele><time>2026-03-29T07:49:50.058Z</time></trkpt><trkpt lat="43.277375" lon="-8.3985101"><ele>108.0</ele><time>2026-03-29T07:49:51.057Z</time></trkpt><trkpt lat="43.2772168" lon="-8.3986511"><ele>107.0</ele><time>2026-03-29T07:49:52.058Z</time></trkpt><trkpt lat="43.2770569" lon="-8.398794"><ele>106.0</ele><time>2026-03-29T07:49:53.058Z</time></trkpt><trkpt lat="43.2769261" lon="-8.398984"><ele>105.0</ele><time>2026-03-29T07:49:54.057Z</time></trkpt><trkpt lat="43.2768141" lon="-8.3991988"><ele>105.0</ele><time>2026-03-29T07:49:55.057Z</time></trkpt><trkpt lat="43.276718" lon="-8.3994374"><ele>105.0</ele><time>2026-03-29T07:49:56.057Z</time></trkpt><trkpt lat="43.2766301" lon="-8.3996873"><ele>105.0</ele><time>2026-03-29T07:49:57.058Z</time></trkpt><trkpt lat="43.2765397" lon="-8.399939"><ele>102.0</ele><time>2026-03-29T07:49:58.058Z</time></trkpt><trkpt lat="43.2764359" lon="-8.4001957"><ele>99.0</ele><time>2026-03-29T07:49:59.058Z</time></trkpt><trkpt lat="43.2763291" lon="-8.4004495"><ele>96.0</ele><time>2026-03-29T07:50:00.057Z</time></trkpt><trkpt lat="43.2762117" lon="-8.4007157"><ele>94.5</ele><time>2026-03-29T07:50:01.057Z</time></trkpt><trkpt lat="43.2760957" lon="-8.400977"><ele>93.0</ele><time>2026-03-29T07:50:02.057Z</time></trkpt><trkpt lat="43.2759877" lon="-8.4012527"><ele>91.5</ele><time>2026-03-29T07:50:03.058Z</time></trkpt><trkpt lat="43.2758935" lon="-8.4015406"><ele>90.0</ele><time>2026-03-29T07:50:04.057Z</time></trkpt><trkpt lat="43.2758067" lon="-8.4018358"><ele>90.0</ele><time>2026-03-29T07:50:05.058Z</time></trkpt><trkpt lat="43.2757329" lon="-8.4021373"><ele>90.0</ele><time>2026-03-29T07:50:06.058Z</time></trkpt><trkpt lat="43.2756631" lon="-8.4024322"><ele>85.0</ele><time>2026-03-29T07:50:07.057Z</time></trkpt><trkpt lat="43.2755925" lon="-8.4027067"><ele>80.0</ele><time>2026-03-29T07:50:08.057Z</time></trkpt><trkpt lat="43.2755227" lon="-8.4029753"><ele>75.0</ele><time>2026-03-29T07:50:09.057Z</time></trkpt><trkpt lat="43.2754319" lon="-8.4032185"><ele>73.66666666666667</ele><time>2026-03-29T07:50:10.057Z</time></trkpt><trkpt lat="43.275315" lon="-8.4034313"><ele>72.33333333333334</ele><time>2026-03-29T07:50:11.058Z</time></trkpt><trkpt lat="43.2751723" lon="-8.4036216"><ele>71.0</ele><time>2026-03-29T07:50:12.057Z</time></trkpt><trkpt lat="43.2750319" lon="-8.4037529"><ele>70.5</ele><time>2026-03-29T07:50:13.057Z</time></trkpt><trkpt lat="43.2748919" lon="-8.40385"><ele>70.0</ele><time>2026-03-29T07:50:14.057Z</time></trkpt><trkpt lat="43.2747822" lon="-8.4039579"><ele>69.5</ele><time>2026-03-29T07:50:15.058Z</time></trkpt><trkpt lat="43.2747092" lon="-8.4040823"><ele>69.0</ele><time>2026-03-29T07:50:16.058Z</time></trkpt><trkpt lat="43.2746633" lon="-8.4042216"><ele>68.25</ele><time>2026-03-29T07:50:17.058Z</time></trkpt><trkpt lat="43.2746182" lon="-8.4043523"><ele>67.5</ele><time>2026-03-29T07:50:18.057Z</time></trkpt><trkpt lat="43.2745715" lon="-8.4044984"><ele>66.75</ele><time>2026-03-29T07:50:19.057Z</time></trkpt><trkpt lat="43.2744769" lon="-8.4045925"><ele>66.0</ele><time>2026-03-29T07:50:20.057Z</time></trkpt><trkpt lat="43.2743724" lon="-8.4046742"><ele>66.75</ele><time>2026-03-29T07:50:21.057Z</time></trkpt><trkpt lat="43.2742447" lon="-8.4047235"><ele>67.5</ele><time>2026-03-29T07:50:22.058Z</time></trkpt><trkpt lat="43.2741096" lon="-8.4047285"><ele>68.25</ele><time>2026-03-29T07:50:23.057Z</time></trkpt><trkpt lat="43.2739787" lon="-8.4047215"><ele>69.0</ele><time>2026-03-29T07:50:24.057Z</time></trkpt><trkpt lat="43.2738541" lon="-8.4047218"><ele>69.0</ele><time>2026-03-29T07:50:25.058Z</time></trkpt><trkpt lat="43.2737408" lon="-8.4047623"><ele>69.0</ele><time>2026-03-29T07:50:26.057Z</time></trkpt><trkpt lat="43.2736422" lon="-8.4048347"><ele>69.0</ele><time>2026-03-29T07:50:27.057Z</time></trkpt><trkpt lat="43.2735528" lon="-8.4049352"><ele>69.0</ele><time>2026-03-29T07:50:28.057Z</time></trkpt><trkpt lat="43.2734653" lon="-8.4050467"><ele>69.0</ele><time>2026-03-29T07:50:29.058Z</time></trkpt><trkpt lat="43.2733684" lon="-8.4051564"><ele>69.0</ele><time>2026-03-29T07:50:30.058Z</time></trkpt><trkpt lat="43.273263" lon="-8.4052595"><ele>69.0</ele><time>2026-03-29T07:50:31.057Z</time></trkpt><trkpt lat="43.2731494" lon="-8.4053616"><ele>69.0</ele><time>2026-03-29T07:50:32.057Z</time></trkpt><trkpt lat="43.2730288" lon="-8.4054495"><ele>65.5</ele><time>2026-03-29T07:50:33.057Z</time></trkpt><trkpt lat="43.2729025" lon="-8.4055378"><ele>62.0</ele><time>2026-03-29T07:50:34.057Z</time></trkpt><trkpt lat="43.2727667" lon="-8.4056185"><ele>58.5</ele><time>2026-03-29T07:50:35.058Z</time></trkpt><trkpt lat="43.2726301" lon="-8.4056897"><ele>55.0</ele><time>2026-03-29T07:50:36.058Z</time></trkpt><trkpt lat="43.2724856" lon="-8.4057505"><ele>55.0</ele><time>2026-03-29T07:50:37.057Z</time></trkpt><trkpt lat="43.2723351" lon="-8.405796"><ele>55.0</ele><time>2026-03-29T07:50:38.057Z</time></trkpt><trkpt lat="43.2721789" lon="-8.4058316"><ele>55.0</ele><time>2026-03-29T07:50:39.057Z</time></trkpt><trkpt lat="43.272014" lon="-8.4058523"><ele>52.33333333333333</ele><time>2026-03-29T07:50:40.057Z</time></trkpt><trkpt lat="43.2718433" lon="-8.4058558"><ele>49.666666666666664</ele><time>2026-03-29T07:50:41.057Z</time></trkpt><trkpt lat="43.271671" lon="-8.405846"><ele>47.0</ele><time>2026-03-29T07:50:42.057Z</time></trkpt><trkpt lat="43.2714937" lon="-8.405822"><ele>44.33333333333333</ele><time>2026-03-29T07:50:43.058Z</time></trkpt><trkpt lat="43.2713178" lon="-8.4057968"><ele>41.666666666666664</ele><time>2026-03-29T07:50:44.058Z</time></trkpt><trkpt lat="43.2711373" lon="-8.4057755"><ele>39.0</ele><time>2026-03-29T07:50:45.057Z</time></trkpt><trkpt lat="43.2709596" lon="-8.4057536"><ele>39.0</ele><time>2026-03-29T07:50:46.057Z</time></trkpt><trkpt lat="43.2707779" lon="-8.405744"><ele>39.0</ele><time>2026-03-29T07:50:47.058Z</time></trkpt><trkpt lat="43.2705873" lon="-8.4057451"><ele>39.0</ele><time>2026-03-29T07:50:48.057Z</time></trkpt><trkpt lat="43.2703621" lon="-8.4057714"><ele>35.5</ele><time>2026-03-29T07:50:49.057Z</time></trkpt><trkpt lat="43.2701178" lon="-8.4058385"><ele>32.0</ele><time>2026-03-29T07:50:50.057Z</time></trkpt><trkpt lat="43.2698712" lon="-8.4059473"><ele>30.0</ele><time>2026-03-29T07:50:51.058Z</time></trkpt><trkpt lat="43.269626" lon="-8.4060967"><ele>28.0</ele><time>2026-03-29T07:50:52.058Z</time></trkpt><trkpt lat="43.2693966" lon="-8.4062825"><ele>29.5</ele><time>2026-03-29T07:50:53.057Z</time></trkpt><trkpt lat="43.2691846" lon="-8.4064918"><ele>31.0</ele><time>2026-03-29T07:50:54.057Z</time></trkpt><trkpt lat="43.2689975" lon="-8.4067342"><ele>30.5</ele><time>2026-03-29T07:50:55.057Z</time></trkpt><trkpt lat="43.2688306" lon="-8.4070072"><ele>30.0</ele><time>2026-03-29T07:50:56.058Z</time></trkpt><trkpt lat="43.2686874" lon="-8.4072855"><ele>30.0</ele><time>2026-03-29T07:50:57.057Z</time></trkpt><trkpt lat="43.2685691" lon="-8.4075813"><ele>30.0</ele><time>2026-03-29T07:50:58.057Z</time></trkpt><trkpt lat="43.2684665" lon="-8.4078912"><ele>30.5</ele><time>2026-03-29T07:50:59.057Z</time></trkpt><trkpt lat="43.268368" lon="-8.408197"><ele>31.0</ele><time>2026-03-29T07:51:00.057Z</time></trkpt><trkpt lat="43.2682678" lon="-8.4084902"><ele>31.0</ele><time>2026-03-29T07:51:01.057Z</time></trkpt><trkpt lat="43.2681716" lon="-8.4087789"><ele>31.0</ele><time>2026-03-29T07:51:02.057Z</time></trkpt><trkpt lat="43.2680635" lon="-8.4090302"><ele>31.0</ele><time>2026-03-29T07:51:03.057Z</time></trkpt><trkpt lat="43.2679417" lon="-8.4092541"><ele>30.666666666666668</ele><time>2026-03-29T07:51:04.057Z</time></trkpt><trkpt lat="43.2678268" lon="-8.409457"><ele>30.333333333333336</ele><time>2026-03-29T07:51:05.057Z</time></trkpt><trkpt lat="43.2677339" lon="-8.4096378"><ele>30.0</ele><time>2026-03-29T07:51:06.057Z</time></trkpt><trkpt lat="43.2676672" lon="-8.4097969"><ele>30.333333333333332</ele><time>2026-03-29T07:51:07.057Z</time></trkpt><trkpt lat="43.2676091" lon="-8.4099171"><ele>30.666666666666664</ele><time>2026-03-29T07:51:08.057Z</time></trkpt><trkpt lat="43.267547" lon="-8.4099757"><ele>31.0</ele><time>2026-03-29T07:51:09.058Z</time></trkpt><trkpt lat="43.267481" lon="-8.4099682"><ele>31.333333333333332</ele><time>2026-03-29T07:51:10.057Z</time></trkpt><trkpt lat="43.2674136" lon="-8.409953"><ele>31.666666666666664</ele><time>2026-03-29T07:51:11.057Z</time></trkpt><trkpt lat="43.2674347" lon="-8.4098372"><ele>32.0</ele><time>2026-03-29T07:51:12.057Z</time></trkpt><trkpt lat="43.2674781" lon="-8.4097606"><ele>32.0</ele><time>2026-03-29T07:51:13.058Z</time></trkpt><trkpt lat="43.2675978" lon="-8.4097915"><ele>32.0</ele><time>2026-03-29T07:51:15.058Z</time></trkpt><trkpt lat="43.2675845" lon="-8.4098923"><ele>32.0</ele><time>2026-03-29T07:51:16.057Z</time></trkpt><trkpt lat="43.2674731" lon="-8.4099884"><ele>32.0</ele><time>2026-03-29T07:51:18.058Z</time></trkpt><trkpt lat="43.2673537" lon="-8.4100769"><ele>32.0</ele><time>2026-03-29T07:51:19.058Z</time></trkpt><trkpt lat="43.2672003" lon="-8.4102042"><ele>32.0</ele><time>2026-03-29T07:51:20.057Z</time></trkpt><trkpt lat="43.2670231" lon="-8.4103611"><ele>32.0</ele><time>2026-03-29T07:51:21.057Z</time></trkpt><trkpt lat="43.2668277" lon="-8.4105297"><ele>31.5</ele><time>2026-03-29T07:51:22.058Z</time></trkpt><trkpt lat="43.2666277" lon="-8.4107063"><ele>31.0</ele><time>2026-03-29T07:51:23.058Z</time></trkpt><trkpt lat="43.2664343" lon="-8.4109002"><ele>31.0</ele><time>2026-03-29T07:51:24.058Z</time></trkpt><trkpt lat="43.2662386" lon="-8.4110713"><ele>31.0</ele><time>2026-03-29T07:51:25.057Z</time></trkpt><trkpt lat="43.2660375" lon="-8.4112385"><ele>31.0</ele><time>2026-03-29T07:51:26.058Z</time></trkpt><trkpt lat="43.2658605" lon="-8.4114102"><ele>31.0</ele><time>2026-03-29T07:51:27.057Z</time></trkpt><trkpt lat="43.2656774" lon="-8.4115766"><ele>31.0</ele><time>2026-03-29T07:51:28.057Z</time></trkpt><trkpt lat="43.2654973" lon="-8.4117402"><ele>31.0</ele><time>2026-03-29T07:51:29.057Z</time></trkpt><trkpt lat="43.2653191" lon="-8.4118942"><ele>31.0</ele><time>2026-03-29T07:51:30.057Z</time></trkpt><trkpt lat="43.2651459" lon="-8.4120556"><ele>31.0</ele><time>2026-03-29T07:51:31.058Z</time></trkpt><trkpt lat="43.2649753" lon="-8.4122041"><ele>31.333333333333336</ele><time>2026-03-29T07:51:32.057Z</time></trkpt><trkpt lat="43.2648076" lon="-8.4123586"><ele>31.666666666666664</ele><time>2026-03-29T07:51:33.057Z</time></trkpt><trkpt lat="43.2646378" lon="-8.4125041"><ele>32.0</ele><time>2026-03-29T07:51:34.057Z</time></trkpt><trkpt lat="43.2644711" lon="-8.4126548"><ele>31.333333333333332</ele><time>2026-03-29T07:51:35.058Z</time></trkpt><trkpt lat="43.264306" lon="-8.4128072"><ele>30.666666666666664</ele><time>2026-03-29T07:51:36.057Z</time></trkpt><trkpt lat="43.2641486" lon="-8.4129727"><ele>30.0</ele><time>2026-03-29T07:51:37.057Z</time></trkpt><trkpt lat="43.2639941" lon="-8.4131375"><ele>31.0</ele><time>2026-03-29T07:51:38.057Z</time></trkpt><trkpt lat="43.2638324" lon="-8.4132885"><ele>32.0</ele><time>2026-03-29T07:51:39.057Z</time></trkpt><trkpt lat="43.2636605" lon="-8.413415"><ele>33.0</ele><time>2026-03-29T07:51:40.057Z</time></trkpt><trkpt lat="43.2634907" lon="-8.413544"><ele>33.0</ele><time>2026-03-29T07:51:41.058Z</time></trkpt><trkpt lat="43.2633226" lon="-8.4136867"><ele>33.0</ele><time>2026-03-29T07:51:42.058Z</time></trkpt><trkpt lat="43.2631554" lon="-8.4138341"><ele>33.0</ele><time>2026-03-29T07:51:43.057Z</time></trkpt><trkpt lat="43.2629892" lon="-8.4139828"><ele>33.0</ele><time>2026-03-29T07:51:44.058Z</time></trkpt><trkpt lat="43.2628252" lon="-8.4141339"><ele>33.0</ele><time>2026-03-29T07:51:45.058Z</time></trkpt><trkpt lat="43.2626627" lon="-8.4142846"><ele>33.0</ele><time>2026-03-29T07:51:46.057Z</time></trkpt><trkpt lat="43.2624997" lon="-8.414429"><ele>33.0</ele><time>2026-03-29T07:51:47.058Z</time></trkpt><trkpt lat="43.2623401" lon="-8.4145678"><ele>33.0</ele><time>2026-03-29T07:51:48.058Z</time></trkpt><trkpt lat="43.2621819" lon="-8.4147068"><ele>33.0</ele><time>2026-03-29T07:51:49.057Z</time></trkpt><trkpt lat="43.2620306" lon="-8.4148424"><ele>34.333333333333336</ele><time>2026-03-29T07:51:50.058Z</time></trkpt><trkpt lat="43.2618779" lon="-8.4149769"><ele>35.66666666666667</ele><time>2026-03-29T07:51:51.057Z</time></trkpt><trkpt lat="43.2617277" lon="-8.4151134"><ele>37.0</ele><time>2026-03-29T07:51:52.057Z</time></trkpt><trkpt lat="43.2615809" lon="-8.4152494"><ele>38.333333333333336</ele><time>2026-03-29T07:51:53.057Z</time></trkpt><trkpt lat="43.2614357" lon="-8.4153847"><ele>39.666666666666664</ele><time>2026-03-29T07:51:54.057Z</time></trkpt><trkpt lat="43.261295" lon="-8.4155178"><ele>41.0</ele><time>2026-03-29T07:51:55.058Z</time></trkpt><trkpt lat="43.2611554" lon="-8.4156498"><ele>41.75</ele><time>2026-03-29T07:51:56.057Z</time></trkpt><trkpt lat="43.2610213" lon="-8.4157753"><ele>42.5</ele><time>2026-03-29T07:51:57.057Z</time></trkpt><trkpt lat="43.2608988" lon="-8.4158959"><ele>43.25</ele><time>2026-03-29T07:51:58.058Z</time></trkpt><trkpt lat="43.2607905" lon="-8.4160079"><ele>44.0</ele><time>2026-03-29T07:51:59.057Z</time></trkpt><trkpt lat="43.2607013" lon="-8.4161239"><ele>44.0</ele><time>2026-03-29T07:52:00.057Z</time></trkpt><trkpt lat="43.2606315" lon="-8.4162473"><ele>44.0</ele><time>2026-03-29T07:52:01.057Z</time></trkpt><trkpt lat="43.2605727" lon="-8.4163695"><ele>44.0</ele><time>2026-03-29T07:52:02.058Z</time></trkpt><trkpt lat="43.2605039" lon="-8.4164889"><ele>44.0</ele><time>2026-03-29T07:52:03.057Z</time></trkpt><trkpt lat="43.2603952" lon="-8.4165246"><ele>44.0</ele><time>2026-03-29T07:52:04.057Z</time></trkpt><trkpt lat="43.2602883" lon="-8.416582"><ele>44.25</ele><time>2026-03-29T07:52:05.057Z</time></trkpt><trkpt lat="43.2601806" lon="-8.416662"><ele>44.5</ele><time>2026-03-29T07:52:06.057Z</time></trkpt><trkpt lat="43.2600725" lon="-8.4167577"><ele>44.75</ele><time>2026-03-29T07:52:07.057Z</time></trkpt><trkpt lat="43.2599716" lon="-8.4168767"><ele>45.0</ele><time>2026-03-29T07:52:08.057Z</time></trkpt><trkpt lat="43.2598761" lon="-8.4170173"><ele>45.25</ele><time>2026-03-29T07:52:09.057Z</time></trkpt><trkpt lat="43.2597918" lon="-8.4171791"><ele>45.5</ele><time>2026-03-29T07:52:10.057Z</time></trkpt><trkpt lat="43.2597113" lon="-8.4173471"><ele>45.75</ele><time>2026-03-29T07:52:11.058Z</time></trkpt><trkpt lat="43.2596398" lon="-8.4175235"><ele>46.0</ele><time>2026-03-29T07:52:12.057Z</time></trkpt><trkpt lat="43.2595727" lon="-8.4177211"><ele>46.0</ele><time>2026-03-29T07:52:13.058Z</time></trkpt><trkpt lat="43.259516" lon="-8.4179173"><ele>46.0</ele><time>2026-03-29T07:52:14.057Z</time></trkpt><trkpt lat="43.2594576" lon="-8.4181226"><ele>46.0</ele><time>2026-03-29T07:52:15.057Z</time></trkpt><trkpt lat="43.2594043" lon="-8.4183368"><ele>47.0</ele><time>2026-03-29T07:52:16.058Z</time></trkpt><trkpt lat="43.2593582" lon="-8.4185585"><ele>48.0</ele><time>2026-03-29T07:52:17.057Z</time></trkpt><trkpt lat="43.2593076" lon="-8.4187811"><ele>49.0</ele><time>2026-03-29T07:52:18.057Z</time></trkpt><trkpt lat="43.2592514" lon="-8.4189997"><ele>49.0</ele><time>2026-03-29T07:52:19.057Z</time></trkpt><trkpt lat="43.2591997" lon="-8.4192293"><ele>49.0</ele><time>2026-03-29T07:52:20.058Z</time></trkpt><trkpt lat="43.2591516" lon="-8.4194527"><ele>49.0</ele><time>2026-03-29T07:52:21.057Z</time></trkpt><trkpt lat="43.2591029" lon="-8.4196713"><ele>50.0</ele><time>2026-03-29T07:52:22.057Z</time></trkpt><trkpt lat="43.2590584" lon="-8.4198995"><ele>51.0</ele><time>2026-03-29T07:52:23.058Z</time></trkpt><trkpt lat="43.2590111" lon="-8.4201203"><ele>52.0</ele><time>2026-03-29T07:52:24.057Z</time></trkpt><trkpt lat="43.2589719" lon="-8.4203471"><ele>50.666666666666664</ele><time>2026-03-29T07:52:25.057Z</time></trkpt><trkpt lat="43.2589339" lon="-8.4205666"><ele>49.33333333333333</ele><time>2026-03-29T07:52:26.058Z</time></trkpt><trkpt lat="43.2588976" lon="-8.4207829"><ele>48.0</ele><time>2026-03-29T07:52:27.057Z</time></trkpt><trkpt lat="43.2588552" lon="-8.4209958"><ele>48.0</ele><time>2026-03-29T07:52:28.057Z</time></trkpt><trkpt lat="43.2588147" lon="-8.4212094"><ele>48.0</ele><time>2026-03-29T07:52:29.057Z</time></trkpt><trkpt lat="43.2587746" lon="-8.4214239"><ele>48.0</ele><time>2026-03-29T07:52:30.058Z</time></trkpt><trkpt lat="43.2587297" lon="-8.4216373"><ele>48.66666666666667</ele><time>2026-03-29T07:52:31.057Z</time></trkpt><trkpt lat="43.2586863" lon="-8.4218517"><ele>49.333333333333336</ele><time>2026-03-29T07:52:32.058Z</time></trkpt><trkpt lat="43.2586413" lon="-8.4220688"><ele>50.0</ele><time>2026-03-29T07:52:33.057Z</time></trkpt><trkpt lat="43.2585958" lon="-8.4222953"><ele>51.333333333333336</ele><time>2026-03-29T07:52:34.058Z</time></trkpt><trkpt lat="43.2585427" lon="-8.4225301"><ele>52.66666666666667</ele><time>2026-03-29T07:52:35.057Z</time></trkpt><trkpt lat="43.2584921" lon="-8.4227649"><ele>54.0</ele><time>2026-03-29T07:52:36.057Z</time></trkpt><trkpt lat="43.2584427" lon="-8.4230059"><ele>54.33333333333333</ele><time>2026-03-29T07:52:37.057Z</time></trkpt><trkpt lat="43.2583969" lon="-8.4232481"><ele>54.666666666666664</ele><time>2026-03-29T07:52:38.058Z</time></trkpt><trkpt lat="43.2583515" lon="-8.4234923"><ele>55.0</ele><time>2026-03-29T07:52:39.058Z</time></trkpt><trkpt lat="43.2583126" lon="-8.4237358"><ele>55.0</ele><time>2026-03-29T07:52:40.057Z</time></trkpt><trkpt lat="43.2582855" lon="-8.4239877"><ele>55.0</ele><time>2026-03-29T07:52:41.057Z</time></trkpt><trkpt lat="43.2582664" lon="-8.4242339"><ele>55.0</ele><time>2026-03-29T07:52:42.057Z</time></trkpt><trkpt lat="43.2582637" lon="-8.4244894"><ele>54.33333333333333</ele><time>2026-03-29T07:52:43.058Z</time></trkpt><trkpt lat="43.2582724" lon="-8.4247472"><ele>53.66666666666667</ele><time>2026-03-29T07:52:44.057Z</time></trkpt><trkpt lat="43.258294" lon="-8.4250031"><ele>53.0</ele><time>2026-03-29T07:52:45.057Z</time></trkpt><trkpt lat="43.2583283" lon="-8.4252538"><ele>53.66666666666667</ele><time>2026-03-29T07:52:46.057Z</time></trkpt><trkpt lat="43.2583767" lon="-8.425497"><ele>54.33333333333333</ele><time>2026-03-29T07:52:47.057Z</time></trkpt><trkpt lat="43.2584267" lon="-8.4257366"><ele>55.0</ele><time>2026-03-29T07:52:48.058Z</time></trkpt><trkpt lat="43.2584756" lon="-8.4259716"><ele>55.0</ele><time>2026-03-29T07:52:49.057Z</time></trkpt><trkpt lat="43.2585252" lon="-8.4262115"><ele>55.0</ele><time>2026-03-29T07:52:50.057Z</time></trkpt><trkpt lat="43.2585791" lon="-8.4264516"><ele>55.0</ele><time>2026-03-29T07:52:51.058Z</time></trkpt><trkpt lat="43.2586304" lon="-8.426695"><ele>56.33333333333333</ele><time>2026-03-29T07:52:52.057Z</time></trkpt><trkpt lat="43.2586882" lon="-8.4269362"><ele>57.66666666666667</ele><time>2026-03-29T07:52:53.058Z</time></trkpt><trkpt lat="43.2587432" lon="-8.427178"><ele>59.0</ele><time>2026-03-29T07:52:54.058Z</time></trkpt><trkpt lat="43.2587983" lon="-8.4274159"><ele>61.66666666666667</ele><time>2026-03-29T07:52:55.058Z</time></trkpt><trkpt lat="43.2588523" lon="-8.4276573"><ele>64.33333333333333</ele><time>2026-03-29T07:52:56.057Z</time></trkpt><trkpt lat="43.2589094" lon="-8.4278954"><ele>67.0</ele><time>2026-03-29T07:52:57.057Z</time></trkpt><trkpt lat="43.2589627" lon="-8.4281348"><ele>69.66666666666666</ele><time>2026-03-29T07:52:58.057Z</time></trkpt><trkpt lat="43.259017" lon="-8.4283819"><ele>72.33333333333333</ele><time>2026-03-29T07:52:59.058Z</time></trkpt><trkpt lat="43.2590659" lon="-8.428635"><ele>75.0</ele><time>2026-03-29T07:53:00.058Z</time></trkpt><trkpt lat="43.2591032" lon="-8.428899"><ele>79.33333333333333</ele><time>2026-03-29T07:53:01.057Z</time></trkpt><trkpt lat="43.2591287" lon="-8.4291723"><ele>83.66666666666666</ele><time>2026-03-29T07:53:02.057Z</time></trkpt><trkpt lat="43.2591393" lon="-8.4294598"><ele>88.0</ele><time>2026-03-29T07:53:03.057Z</time></trkpt><trkpt lat="43.2591363" lon="-8.4297483"><ele>91.33333333333333</ele><time>2026-03-29T07:53:04.058Z</time></trkpt><trkpt lat="43.2591238" lon="-8.4300379"><ele>94.66666666666666</ele><time>2026-03-29T07:53:05.057Z</time></trkpt><trkpt lat="43.2590975" lon="-8.4303172"><ele>98.0</ele><time>2026-03-29T07:53:06.057Z</time></trkpt><trkpt lat="43.2590599" lon="-8.4305913"><ele>100.66666666666666</ele><time>2026-03-29T07:53:07.057Z</time></trkpt><trkpt lat="43.2590115" lon="-8.4308541"><ele>103.33333333333334</ele><time>2026-03-29T07:53:08.057Z</time></trkpt><trkpt lat="43.258954" lon="-8.4311104"><ele>106.0</ele><time>2026-03-29T07:53:09.058Z</time></trkpt><trkpt lat="43.2588871" lon="-8.4313603"><ele>113.66666666666667</ele><time>2026-03-29T07:53:10.057Z</time></trkpt><trkpt lat="43.2588074" lon="-8.4316012"><ele>121.33333333333334</ele><time>2026-03-29T07:53:11.057Z</time></trkpt><trkpt lat="43.2587159" lon="-8.4318431"><ele>129.0</ele><time>2026-03-29T07:53:12.057Z</time></trkpt><trkpt lat="43.2586142" lon="-8.4320717"><ele>123.33333333333334</ele><time>2026-03-29T07:53:13.057Z</time></trkpt><trkpt lat="43.2585011" lon="-8.4322934"><ele>117.66666666666667</ele><time>2026-03-29T07:53:14.057Z</time></trkpt><trkpt lat="43.2583804" lon="-8.4325025"><ele>112.0</ele><time>2026-03-29T07:53:15.057Z</time></trkpt><trkpt lat="43.2582521" lon="-8.4327065"><ele>117.33333333333334</ele><time>2026-03-29T07:53:16.057Z</time></trkpt><trkpt lat="43.258115" lon="-8.4328997"><ele>122.66666666666666</ele><time>2026-03-29T07:53:17.058Z</time></trkpt><trkpt lat="43.2579718" lon="-8.4330828"><ele>128.0</ele><time>2026-03-29T07:53:18.057Z</time></trkpt><trkpt lat="43.2578173" lon="-8.4332459"><ele>128.0</ele><time>2026-03-29T07:53:19.057Z</time></trkpt><trkpt lat="43.2576564" lon="-8.4333998"><ele>128.0</ele><time>2026-03-29T07:53:20.057Z</time></trkpt><trkpt lat="43.2574871" lon="-8.4335416"><ele>128.0</ele><time>2026-03-29T07:53:21.057Z</time></trkpt><trkpt lat="43.2573154" lon="-8.433669"><ele>128.66666666666666</ele><time>2026-03-29T07:53:22.057Z</time></trkpt><trkpt lat="43.2571364" lon="-8.4337846"><ele>129.33333333333334</ele><time>2026-03-29T07:53:23.058Z</time></trkpt><trkpt lat="43.2569524" lon="-8.4338851"><ele>130.0</ele><time>2026-03-29T07:53:24.057Z</time></trkpt><trkpt lat="43.2567635" lon="-8.4339694"><ele>130.0</ele><time>2026-03-29T07:53:25.057Z</time></trkpt><trkpt lat="43.2565673" lon="-8.4340319"><ele>130.0</ele><time>2026-03-29T07:53:26.057Z</time></trkpt><trkpt lat="43.2563682" lon="-8.4340812"><ele>130.0</ele><time>2026-03-29T07:53:27.058Z</time></trkpt><trkpt lat="43.256169" lon="-8.434125"><ele>131.0</ele><time>2026-03-29T07:53:28.057Z</time></trkpt><trkpt lat="43.2559646" lon="-8.4341418"><ele>132.0</ele><time>2026-03-29T07:53:29.057Z</time></trkpt><trkpt lat="43.2557585" lon="-8.4341531"><ele>133.0</ele><time>2026-03-29T07:53:30.058Z</time></trkpt><trkpt lat="43.2555489" lon="-8.4341668"><ele>135.66666666666669</ele><time>2026-03-29T07:53:31.057Z</time></trkpt><trkpt lat="43.2553377" lon="-8.4341855"><ele>138.33333333333334</ele><time>2026-03-29T07:53:32.057Z</time></trkpt><trkpt lat="43.2551244" lon="-8.4342115"><ele>141.0</ele><time>2026-03-29T07:53:33.057Z</time></trkpt><trkpt lat="43.2549083" lon="-8.4342562"><ele>145.0</ele><time>2026-03-29T07:53:34.058Z</time></trkpt><trkpt lat="43.2546988" lon="-8.4343213"><ele>149.0</ele><time>2026-03-29T07:53:35.057Z</time></trkpt><trkpt lat="43.2544913" lon="-8.4344116"><ele>153.0</ele><time>2026-03-29T07:53:36.058Z</time></trkpt><trkpt lat="43.2542892" lon="-8.4345277"><ele>150.66666666666666</ele><time>2026-03-29T07:53:37.057Z</time></trkpt><trkpt lat="43.2540924" lon="-8.4346602"><ele>148.33333333333331</ele><time>2026-03-29T07:53:38.057Z</time></trkpt><trkpt lat="43.2538994" lon="-8.4348002"><ele>146.0</ele><time>2026-03-29T07:53:39.058Z</time></trkpt><trkpt lat="43.2537187" lon="-8.4349515"><ele>150.0</ele><time>2026-03-29T07:53:40.057Z</time></trkpt><trkpt lat="43.2535376" lon="-8.4351308"><ele>154.0</ele><time>2026-03-29T07:53:41.057Z</time></trkpt><trkpt lat="43.2533687" lon="-8.4353244"><ele>158.0</ele><time>2026-03-29T07:53:42.057Z</time></trkpt><trkpt lat="43.2532136" lon="-8.4355431"><ele>160.66666666666666</ele><time>2026-03-29T07:53:43.058Z</time></trkpt><trkpt lat="43.2530689" lon="-8.4357712"><ele>163.33333333333334</ele><time>2026-03-29T07:53:44.057Z</time></trkpt><trkpt lat="43.2529347" lon="-8.4360143"><ele>166.0</ele><time>2026-03-29T07:53:45.058Z</time></trkpt><trkpt lat="43.2528139" lon="-8.4362657"><ele>167.66666666666669</ele><time>2026-03-29T07:53:46.057Z</time></trkpt><trkpt lat="43.2527096" lon="-8.4365327"><ele>169.33333333333334</ele><time>2026-03-29T07:53:47.057Z</time></trkpt><trkpt lat="43.2526139" lon="-8.4368099"><ele>171.0</ele><time>2026-03-29T07:53:48.058Z</time></trkpt><trkpt lat="43.2525209" lon="-8.4370916"><ele>175.0</ele><time>2026-03-29T07:53:49.058Z</time></trkpt><trkpt lat="43.2524292" lon="-8.4373725"><ele>179.0</ele><time>2026-03-29T07:53:50.057Z</time></trkpt><trkpt lat="43.2523368" lon="-8.4376566"><ele>180.5</ele><time>2026-03-29T07:53:51.058Z</time></trkpt><trkpt lat="43.2522427" lon="-8.4379441"><ele>182.0</ele><time>2026-03-29T07:53:52.058Z</time></trkpt><trkpt lat="43.2521488" lon="-8.4382346"><ele>182.0</ele><time>2026-03-29T07:53:53.058Z</time></trkpt><trkpt lat="43.252054" lon="-8.4385269"><ele>182.0</ele><time>2026-03-29T07:53:54.057Z</time></trkpt><trkpt lat="43.2519544" lon="-8.4388323"><ele>187.0</ele><time>2026-03-29T07:53:55.058Z</time></trkpt><trkpt lat="43.2518621" lon="-8.4391221"><ele>192.0</ele><time>2026-03-29T07:53:56.057Z</time></trkpt><trkpt lat="43.251773" lon="-8.4394085"><ele>195.0</ele><time>2026-03-29T07:53:57.058Z</time></trkpt><trkpt lat="43.251682" lon="-8.439705"><ele>198.0</ele><time>2026-03-29T07:53:58.057Z</time></trkpt><trkpt lat="43.2515943" lon="-8.439992"><ele>198.0</ele><time>2026-03-29T07:53:59.057Z</time></trkpt><trkpt lat="43.2515031" lon="-8.4402857"><ele>198.0</ele><time>2026-03-29T07:54:00.057Z</time></trkpt><trkpt lat="43.2514081" lon="-8.4405796"><ele>200.0</ele><time>2026-03-29T07:54:01.058Z</time></trkpt><trkpt lat="43.2513197" lon="-8.4408667"><ele>202.0</ele><time>2026-03-29T07:54:02.057Z</time></trkpt><trkpt lat="43.2512246" lon="-8.4411574"><ele>203.0</ele><time>2026-03-29T07:54:03.057Z</time></trkpt><trkpt lat="43.2511308" lon="-8.4414427"><ele>204.0</ele><time>2026-03-29T07:54:04.058Z</time></trkpt><trkpt lat="43.2510368" lon="-8.441733"><ele>204.0</ele><time>2026-03-29T07:54:05.058Z</time></trkpt><trkpt lat="43.2509428" lon="-8.4420267"><ele>204.0</ele><time>2026-03-29T07:54:06.057Z</time></trkpt><trkpt lat="43.2508539" lon="-8.4423209"><ele>204.0</ele><time>2026-03-29T07:54:07.058Z</time></trkpt><trkpt lat="43.25076" lon="-8.4426117"><ele>204.0</ele><time>2026-03-29T07:54:08.058Z</time></trkpt><trkpt lat="43.2506688" lon="-8.4429056"><ele>214.0</ele><time>2026-03-29T07:54:09.058Z</time></trkpt><trkpt lat="43.2505717" lon="-8.443204"><ele>224.0</ele><time>2026-03-29T07:54:10.058Z</time></trkpt><trkpt lat="43.2504724" lon="-8.4435161"><ele>225.5</ele><time>2026-03-29T07:54:11.057Z</time></trkpt><trkpt lat="43.2503695" lon="-8.4438384"><ele>227.0</ele><time>2026-03-29T07:54:12.057Z</time></trkpt><trkpt lat="43.2502716" lon="-8.4441585"><ele>227.0</ele><time>2026-03-29T07:54:13.058Z</time></trkpt><trkpt lat="43.2501657" lon="-8.4444885"><ele>227.0</ele><time>2026-03-29T07:54:14.058Z</time></trkpt><trkpt lat="43.2500573" lon="-8.4448219"><ele>225.0</ele><time>2026-03-29T07:54:15.058Z</time></trkpt><trkpt lat="43.2499514" lon="-8.4451594"><ele>223.0</ele><time>2026-03-29T07:54:16.057Z</time></trkpt><trkpt lat="43.2498422" lon="-8.4455025"><ele>234.0</ele><time>2026-03-29T07:54:17.058Z</time></trkpt><trkpt lat="43.2497306" lon="-8.4458474"><ele>245.0</ele><time>2026-03-29T07:54:18.058Z</time></trkpt><trkpt lat="43.2496238" lon="-8.4461941"><ele>239.5</ele><time>2026-03-29T07:54:19.057Z</time></trkpt><trkpt lat="43.249516" lon="-8.4465397"><ele>234.0</ele><time>2026-03-29T07:54:20.057Z</time></trkpt><trkpt lat="43.2494081" lon="-8.4468856"><ele>234.5</ele><time>2026-03-29T07:54:21.057Z</time></trkpt><trkpt lat="43.2492978" lon="-8.4472264"><ele>235.0</ele><time>2026-03-29T07:54:22.058Z</time></trkpt><trkpt lat="43.2491858" lon="-8.4475656"><ele>235.0</ele><time>2026-03-29T07:54:23.057Z</time></trkpt><trkpt lat="43.2490751" lon="-8.4479041"><ele>235.0</ele><time>2026-03-29T07:54:24.057Z</time></trkpt><trkpt lat="43.2489669" lon="-8.4482399"><ele>253.0</ele><time>2026-03-29T07:54:25.058Z</time></trkpt><trkpt lat="43.2488608" lon="-8.4485732"><ele>271.0</ele><time>2026-03-29T07:54:26.057Z</time></trkpt><trkpt lat="43.2487575" lon="-8.4489149"><ele>271.0</ele><time>2026-03-29T07:54:27.057Z</time></trkpt><trkpt lat="43.248651" lon="-8.4492522"><ele>271.0</ele><time>2026-03-29T07:54:28.058Z</time></trkpt><trkpt lat="43.2485415" lon="-8.4495919"><ele>265.0</ele><time>2026-03-29T07:54:29.057Z</time></trkpt><trkpt lat="43.2484306" lon="-8.4499314"><ele>259.0</ele><time>2026-03-29T07:54:30.058Z</time></trkpt><trkpt lat="43.2483167" lon="-8.450264"><ele>262.5</ele><time>2026-03-29T07:54:31.057Z</time></trkpt><trkpt lat="43.2481889" lon="-8.4505921"><ele>266.0</ele><time>2026-03-29T07:54:32.057Z</time></trkpt><trkpt lat="43.2480463" lon="-8.4509152"><ele>266.0</ele><time>2026-03-29T07:54:33.058Z</time></trkpt><trkpt lat="43.2479053" lon="-8.4512347"><ele>266.0</ele><time>2026-03-29T07:54:34.057Z</time></trkpt><trkpt lat="43.24772" lon="-8.4515323"><ele>262.0</ele><time>2026-03-29T07:54:35.057Z</time></trkpt><trkpt lat="43.2475157" lon="-8.4518035"><ele>258.0</ele><time>2026-03-29T07:54:36.057Z</time></trkpt><trkpt lat="43.2472989" lon="-8.4520538"><ele>265.0</ele><time>2026-03-29T07:54:37.057Z</time></trkpt><trkpt lat="43.2470697" lon="-8.452279"><ele>272.0</ele><time>2026-03-29T07:54:38.057Z</time></trkpt><trkpt lat="43.2468295" lon="-8.4524784"><ele>272.0</ele><time>2026-03-29T07:54:39.058Z</time></trkpt><trkpt lat="43.2465791" lon="-8.4526544"><ele>272.0</ele><time>2026-03-29T07:54:40.058Z</time></trkpt><trkpt lat="43.2463213" lon="-8.4528059"><ele>276.0</ele><time>2026-03-29T07:54:41.058Z</time></trkpt><trkpt lat="43.2460595" lon="-8.4529419"><ele>280.0</ele><time>2026-03-29T07:54:42.057Z</time></trkpt><trkpt lat="43.2457956" lon="-8.4530771"><ele>282.5</ele><time>2026-03-29T07:54:43.058Z</time></trkpt><trkpt lat="43.2455367" lon="-8.453219"><ele>285.0</ele><time>2026-03-29T07:54:44.058Z</time></trkpt><trkpt lat="43.2452785" lon="-8.4533549"><ele>285.0</ele><time>2026-03-29T07:54:45.057Z</time></trkpt><trkpt lat="43.2450284" lon="-8.4534929"><ele>285.0</ele><time>2026-03-29T07:54:46.058Z</time></trkpt><trkpt lat="43.2447828" lon="-8.4536292"><ele>282.5</ele><time>2026-03-29T07:54:47.057Z</time></trkpt><trkpt lat="43.2445527" lon="-8.4537881"><ele>280.0</ele><time>2026-03-29T07:54:48.057Z</time></trkpt><trkpt lat="43.2443352" lon="-8.4539767"><ele>279.0</ele><time>2026-03-29T07:54:49.058Z</time></trkpt><trkpt lat="43.2441351" lon="-8.4541862"><ele>278.0</ele><time>2026-03-29T07:54:50.058Z</time></trkpt><trkpt lat="43.2439502" lon="-8.4544115"><ele>276.0</ele><time>2026-03-29T07:54:51.058Z</time></trkpt><trkpt lat="43.2437779" lon="-8.4546578"><ele>274.0</ele><time>2026-03-29T07:54:52.058Z</time></trkpt><trkpt lat="43.2436096" lon="-8.454915"><ele>274.0</ele><time>2026-03-29T07:54:53.058Z</time></trkpt><trkpt lat="43.2434477" lon="-8.4551798"><ele>274.0</ele><time>2026-03-29T07:54:54.057Z</time></trkpt><trkpt lat="43.2432865" lon="-8.4554471"><ele>271.5</ele><time>2026-03-29T07:54:55.057Z</time></trkpt><trkpt lat="43.2431261" lon="-8.4557189"><ele>269.0</ele><time>2026-03-29T07:54:56.057Z</time></trkpt><trkpt lat="43.2429643" lon="-8.4559932"><ele>269.0</ele><time>2026-03-29T07:54:57.057Z</time></trkpt><trkpt lat="43.2428015" lon="-8.4562665"><ele>269.0</ele><time>2026-03-29T07:54:58.058Z</time></trkpt><trkpt lat="43.2426355" lon="-8.4565426"><ele>271.5</ele><time>2026-03-29T07:54:59.057Z</time></trkpt><trkpt lat="43.2424719" lon="-8.456826"><ele>274.0</ele><time>2026-03-29T07:55:00.057Z</time></trkpt><trkpt lat="43.2423041" lon="-8.4571114"><ele>270.0</ele><time>2026-03-29T07:55:01.057Z</time></trkpt><trkpt lat="43.2421342" lon="-8.4573952"><ele>266.0</ele><time>2026-03-29T07:55:02.057Z</time></trkpt><trkpt lat="43.2419621" lon="-8.457685"><ele>267.0</ele><time>2026-03-29T07:55:03.057Z</time></trkpt><trkpt lat="43.2417909" lon="-8.4579737"><ele>268.0</ele><time>2026-03-29T07:55:04.057Z</time></trkpt><trkpt lat="43.2416179" lon="-8.4582619"><ele>265.5</ele><time>2026-03-29T07:55:05.058Z</time></trkpt><trkpt lat="43.2414455" lon="-8.4585502"><ele>263.0</ele><time>2026-03-29T07:55:06.058Z</time></trkpt><trkpt lat="43.2412739" lon="-8.4588354"><ele>263.0</ele><time>2026-03-29T07:55:07.057Z</time></trkpt><trkpt lat="43.2411046" lon="-8.4591218"><ele>263.0</ele><time>2026-03-29T07:55:08.057Z</time></trkpt><trkpt lat="43.2409374" lon="-8.4594055"><ele>264.0</ele><time>2026-03-29T07:55:09.057Z</time></trkpt><trkpt lat="43.2407686" lon="-8.4596894"><ele>265.0</ele><time>2026-03-29T07:55:10.058Z</time></trkpt><trkpt lat="43.2406004" lon="-8.4599731"><ele>265.0</ele><time>2026-03-29T07:55:11.058Z</time></trkpt><trkpt lat="43.2404319" lon="-8.4602658"><ele>265.0</ele><time>2026-03-29T07:55:12.057Z</time></trkpt><trkpt lat="43.240263" lon="-8.4605471"><ele>265.5</ele><time>2026-03-29T07:55:13.057Z</time></trkpt><trkpt lat="43.2400978" lon="-8.4608229"><ele>266.0</ele><time>2026-03-29T07:55:14.057Z</time></trkpt><trkpt lat="43.2399284" lon="-8.4611093"><ele>263.0</ele><time>2026-03-29T07:55:15.057Z</time></trkpt><trkpt lat="43.2397598" lon="-8.4613959"><ele>260.0</ele><time>2026-03-29T07:55:16.057Z</time></trkpt><trkpt lat="43.2395889" lon="-8.4616887"><ele>260.0</ele><time>2026-03-29T07:55:17.058Z</time></trkpt><trkpt lat="43.2394182" lon="-8.4619797"><ele>260.0</ele><time>2026-03-29T07:55:18.057Z</time></trkpt><trkpt lat="43.2392467" lon="-8.4622727"><ele>259.0</ele><time>2026-03-29T07:55:19.057Z</time></trkpt><trkpt lat="43.2390752" lon="-8.4625633"><ele>258.0</ele><time>2026-03-29T07:55:20.057Z</time></trkpt><trkpt lat="43.2388923" lon="-8.4628402"><ele>257.5</ele><time>2026-03-29T07:55:21.057Z</time></trkpt><trkpt lat="43.2386886" lon="-8.4630892"><ele>257.0</ele><time>2026-03-29T07:55:22.058Z</time></trkpt><trkpt lat="43.2384693" lon="-8.4633094"><ele>257.0</ele><time>2026-03-29T07:55:23.057Z</time></trkpt><trkpt lat="43.2382334" lon="-8.4634947"><ele>257.0</ele><time>2026-03-29T07:55:24.057Z</time></trkpt><trkpt lat="43.2379849" lon="-8.4636463"><ele>257.0</ele><time>2026-03-29T07:55:25.057Z</time></trkpt><trkpt lat="43.2377283" lon="-8.4637675"><ele>257.0</ele><time>2026-03-29T07:55:26.058Z</time></trkpt><trkpt lat="43.2374718" lon="-8.4638645"><ele>259.0</ele><time>2026-03-29T07:55:27.057Z</time></trkpt><trkpt lat="43.2372163" lon="-8.463958"><ele>261.0</ele><time>2026-03-29T07:55:28.057Z</time></trkpt><trkpt lat="43.236973" lon="-8.4640519"><ele>261.0</ele><time>2026-03-29T07:55:29.057Z</time></trkpt><trkpt lat="43.2367387" lon="-8.464144"><ele>261.0</ele><time>2026-03-29T07:55:30.057Z</time></trkpt><trkpt lat="43.2365132" lon="-8.4642281"><ele>263.3333333333333</ele><time>2026-03-29T07:55:31.057Z</time></trkpt><trkpt lat="43.2362998" lon="-8.4643089"><ele>265.66666666666663</ele><time>2026-03-29T07:55:32.057Z</time></trkpt><trkpt lat="43.2361014" lon="-8.4643827"><ele>268.0</ele><time>2026-03-29T07:55:33.058Z</time></trkpt><trkpt lat="43.2359169" lon="-8.4644557"><ele>268.0</ele><time>2026-03-29T07:55:34.057Z</time></trkpt><trkpt lat="43.2357363" lon="-8.4645221"><ele>268.0</ele><time>2026-03-29T07:55:35.058Z</time></trkpt><trkpt lat="43.2355524" lon="-8.4645889"><ele>268.0</ele><time>2026-03-29T07:55:36.057Z</time></trkpt><trkpt lat="43.2353727" lon="-8.4646619"><ele>267.0</ele><time>2026-03-29T07:55:37.058Z</time></trkpt><trkpt lat="43.2351911" lon="-8.4647352"><ele>266.0</ele><time>2026-03-29T07:55:38.057Z</time></trkpt><trkpt lat="43.2350101" lon="-8.4648082"><ele>265.0</ele><time>2026-03-29T07:55:39.058Z</time></trkpt><trkpt lat="43.2348319" lon="-8.464879"><ele>268.0</ele><time>2026-03-29T07:55:40.057Z</time></trkpt><trkpt lat="43.2346542" lon="-8.4649506"><ele>271.0</ele><time>2026-03-29T07:55:41.057Z</time></trkpt><trkpt lat="43.2344731" lon="-8.4650261"><ele>274.0</ele><time>2026-03-29T07:55:42.057Z</time></trkpt><trkpt lat="43.2342938" lon="-8.4651097"><ele>274.0</ele><time>2026-03-29T07:55:43.057Z</time></trkpt><trkpt lat="43.2341164" lon="-8.4652212"><ele>274.0</ele><time>2026-03-29T07:55:44.058Z</time></trkpt><trkpt lat="43.2339472" lon="-8.4653544"><ele>274.0</ele><time>2026-03-29T07:55:45.058Z</time></trkpt><trkpt lat="43.2337886" lon="-8.4654971"><ele>273.3333333333333</ele><time>2026-03-29T07:55:46.058Z</time></trkpt><trkpt lat="43.2336449" lon="-8.4656548"><ele>272.6666666666667</ele><time>2026-03-29T07:55:47.058Z</time></trkpt><trkpt lat="43.2335093" lon="-8.4658228"><ele>272.0</ele><time>2026-03-29T07:55:48.057Z</time></trkpt><trkpt lat="43.2333865" lon="-8.4660019"><ele>272.0</ele><time>2026-03-29T07:55:49.057Z</time></trkpt><trkpt lat="43.2332686" lon="-8.4661787"><ele>272.0</ele><time>2026-03-29T07:55:50.057Z</time></trkpt><trkpt lat="43.2331618" lon="-8.4663554"><ele>272.0</ele><time>2026-03-29T07:55:51.057Z</time></trkpt><trkpt lat="43.2330565" lon="-8.4665269"><ele>275.6666666666667</ele><time>2026-03-29T07:55:52.057Z</time></trkpt><trkpt lat="43.2329487" lon="-8.4667002"><ele>279.3333333333333</ele><time>2026-03-29T07:55:53.058Z</time></trkpt><trkpt lat="43.2328432" lon="-8.4668731"><ele>283.0</ele><time>2026-03-29T07:55:54.058Z</time></trkpt><trkpt lat="43.2327367" lon="-8.4670412"><ele>282.3333333333333</ele><time>2026-03-29T07:55:55.057Z</time></trkpt><trkpt lat="43.232626" lon="-8.4672089"><ele>281.6666666666667</ele><time>2026-03-29T07:55:56.057Z</time></trkpt><trkpt lat="43.2325107" lon="-8.4673712"><ele>281.0</ele><time>2026-03-29T07:55:57.057Z</time></trkpt><trkpt lat="43.2323869" lon="-8.467531"><ele>287.6666666666667</ele><time>2026-03-29T07:55:58.058Z</time></trkpt><trkpt lat="43.2322574" lon="-8.467676"><ele>294.3333333333333</ele><time>2026-03-29T07:55:59.058Z</time></trkpt><trkpt lat="43.2321203" lon="-8.4678096"><ele>301.0</ele><time>2026-03-29T07:56:00.057Z</time></trkpt><trkpt lat="43.2319763" lon="-8.4679267"><ele>300.0</ele><time>2026-03-29T07:56:01.057Z</time></trkpt><trkpt lat="43.2318262" lon="-8.4680325"><ele>299.0</ele><time>2026-03-29T07:56:02.058Z</time></trkpt><trkpt lat="43.2316729" lon="-8.4681241"><ele>298.0</ele><time>2026-03-29T07:56:03.058Z</time></trkpt><trkpt lat="43.2315092" lon="-8.4682001"><ele>297.0</ele><time>2026-03-29T07:56:04.057Z</time></trkpt><trkpt lat="43.2313444" lon="-8.4682637"><ele>296.0</ele><time>2026-03-29T07:56:05.058Z</time></trkpt><trkpt lat="43.2311796" lon="-8.4683082"><ele>295.0</ele><time>2026-03-29T07:56:06.057Z</time></trkpt><trkpt lat="43.2310145" lon="-8.4683418"><ele>295.0</ele><time>2026-03-29T07:56:07.058Z</time></trkpt><trkpt lat="43.2308539" lon="-8.4683594"><ele>295.0</ele><time>2026-03-29T07:56:08.057Z</time></trkpt><trkpt lat="43.2306898" lon="-8.4683561"><ele>295.0</ele><time>2026-03-29T07:56:09.058Z</time></trkpt><trkpt lat="43.2305275" lon="-8.4683416"><ele>293.3333333333333</ele><time>2026-03-29T07:56:10.057Z</time></trkpt><trkpt lat="43.2303641" lon="-8.4683127"><ele>291.6666666666667</ele><time>2026-03-29T07:56:11.057Z</time></trkpt><trkpt lat="43.2302058" lon="-8.4682751"><ele>290.0</ele><time>2026-03-29T07:56:12.057Z</time></trkpt><trkpt lat="43.2300496" lon="-8.468223"><ele>290.0</ele><time>2026-03-29T07:56:13.058Z</time></trkpt><trkpt lat="43.2298984" lon="-8.4681605"><ele>290.0</ele><time>2026-03-29T07:56:14.057Z</time></trkpt><trkpt lat="43.2297452" lon="-8.4680769"><ele>290.0</ele><time>2026-03-29T07:56:15.058Z</time></trkpt><trkpt lat="43.22959" lon="-8.4679764"><ele>289.6666666666667</ele><time>2026-03-29T07:56:16.058Z</time></trkpt><trkpt lat="43.2294431" lon="-8.4678601"><ele>289.3333333333333</ele><time>2026-03-29T07:56:17.057Z</time></trkpt><trkpt lat="43.2293016" lon="-8.4677329"><ele>289.0</ele><time>2026-03-29T07:56:18.057Z</time></trkpt><trkpt lat="43.2291691" lon="-8.4675932"><ele>289.0</ele><time>2026-03-29T07:56:19.058Z</time></trkpt><trkpt lat="43.2290403" lon="-8.4674432"><ele>289.0</ele><time>2026-03-29T07:56:20.058Z</time></trkpt><trkpt lat="43.2289149" lon="-8.4672748"><ele>289.0</ele><time>2026-03-29T07:56:21.058Z</time></trkpt><trkpt lat="43.2287963" lon="-8.4670988"><ele>286.0</ele><time>2026-03-29T07:56:22.058Z</time></trkpt><trkpt lat="43.2286758" lon="-8.4669116"><ele>283.0</ele><time>2026-03-29T07:56:23.058Z</time></trkpt><trkpt lat="43.2285588" lon="-8.4667182"><ele>280.0</ele><time>2026-03-29T07:56:24.058Z</time></trkpt><trkpt lat="43.2284387" lon="-8.4665291"><ele>280.0</ele><time>2026-03-29T07:56:25.058Z</time></trkpt><trkpt lat="43.2283164" lon="-8.4663328"><ele>280.0</ele><time>2026-03-29T07:56:26.058Z</time></trkpt><trkpt lat="43.2281912" lon="-8.4661303"><ele>280.0</ele><time>2026-03-29T07:56:27.057Z</time></trkpt><trkpt lat="43.228068" lon="-8.4659309"><ele>281.0</ele><time>2026-03-29T07:56:28.058Z</time></trkpt><trkpt lat="43.2279443" lon="-8.4657303"><ele>282.0</ele><time>2026-03-29T07:56:29.057Z</time></trkpt><trkpt lat="43.2278207" lon="-8.4655362"><ele>283.0</ele><time>2026-03-29T07:56:30.058Z</time></trkpt><trkpt lat="43.2276995" lon="-8.4653428"><ele>285.66666666666663</ele><time>2026-03-29T07:56:31.058Z</time></trkpt><trkpt lat="43.2275746" lon="-8.4651492"><ele>288.3333333333333</ele><time>2026-03-29T07:56:32.058Z</time></trkpt><trkpt lat="43.2274496" lon="-8.4649549"><ele>291.0</ele><time>2026-03-29T07:56:33.057Z</time></trkpt><trkpt lat="43.2273294" lon="-8.464763"><ele>289.6666666666667</ele><time>2026-03-29T07:56:34.058Z</time></trkpt><trkpt lat="43.2272081" lon="-8.464568"><ele>288.33333333333337</ele><time>2026-03-29T07:56:35.057Z</time></trkpt><trkpt lat="43.2270876" lon="-8.4643727"><ele>287.0</ele><time>2026-03-29T07:56:36.057Z</time></trkpt><trkpt lat="43.2269695" lon="-8.4641833"><ele>287.0</ele><time>2026-03-29T07:56:37.058Z</time></trkpt><trkpt lat="43.2268542" lon="-8.4640021"><ele>287.0</ele><time>2026-03-29T07:56:38.058Z</time></trkpt><trkpt lat="43.2267489" lon="-8.463823"><ele>287.0</ele><time>2026-03-29T07:56:39.057Z</time></trkpt><trkpt lat="43.2266522" lon="-8.4636449"><ele>288.75</ele><time>2026-03-29T07:56:40.058Z</time></trkpt><trkpt lat="43.2265585" lon="-8.4634848"><ele>290.5</ele><time>2026-03-29T07:56:41.058Z</time></trkpt><trkpt lat="43.2264731" lon="-8.4633442"><ele>292.25</ele><time>2026-03-29T07:56:42.058Z</time></trkpt><trkpt lat="43.226399" lon="-8.463232"><ele>294.0</ele><time>2026-03-29T07:56:43.057Z</time></trkpt><trkpt lat="43.2263357" lon="-8.4631304"><ele>295.2</ele><time>2026-03-29T07:56:44.057Z</time></trkpt><trkpt lat="43.2263047" lon="-8.463026"><ele>296.4</ele><time>2026-03-29T07:56:45.057Z</time></trkpt><trkpt lat="43.2262915" lon="-8.4629383"><ele>297.6</ele><time>2026-03-29T07:56:46.057Z</time></trkpt><trkpt lat="43.2263649" lon="-8.4628445"><ele>298.8</ele><time>2026-03-29T07:56:47.057Z</time></trkpt><trkpt lat="43.2264303" lon="-8.4627086"><ele>300.0</ele><time>2026-03-29T07:56:48.057Z</time></trkpt><trkpt lat="43.226481" lon="-8.4625267"><ele>300.0</ele><time>2026-03-29T07:56:49.057Z</time></trkpt><trkpt lat="43.2264888" lon="-8.4623147"><ele>300.0</ele><time>2026-03-29T07:56:50.058Z</time></trkpt><trkpt lat="43.2264533" lon="-8.462117"><ele>300.0</ele><time>2026-03-29T07:56:51.057Z</time></trkpt><trkpt lat="43.2264145" lon="-8.4619222"><ele>294.25</ele><time>2026-03-29T07:56:52.058Z</time></trkpt><trkpt lat="43.2263791" lon="-8.4617302"><ele>288.5</ele><time>2026-03-29T07:56:53.058Z</time></trkpt><trkpt lat="43.2263867" lon="-8.4615243"><ele>282.75</ele><time>2026-03-29T07:56:54.058Z</time></trkpt><trkpt lat="43.2263916" lon="-8.4613317"><ele>277.0</ele><time>2026-03-29T07:56:55.058Z</time></trkpt><trkpt lat="43.2263499" lon="-8.4611416"><ele>276.66666666666663</ele><time>2026-03-29T07:56:56.057Z</time></trkpt><trkpt lat="43.2262709" lon="-8.4609505"><ele>276.3333333333333</ele><time>2026-03-29T07:56:57.057Z</time></trkpt><trkpt lat="43.2261679" lon="-8.4607503"><ele>276.0</ele><time>2026-03-29T07:56:58.057Z</time></trkpt><trkpt lat="43.2260476" lon="-8.4605304"><ele>277.6666666666667</ele><time>2026-03-29T07:56:59.057Z</time></trkpt><trkpt lat="43.2259279" lon="-8.4602931"><ele>279.33333333333337</ele><time>2026-03-29T07:57:00.057Z</time></trkpt><trkpt lat="43.2257974" lon="-8.460047"><ele>281.0</ele><time>2026-03-29T07:57:01.058Z</time></trkpt><trkpt lat="43.2256666" lon="-8.4598015"><ele>276.0</ele><time>2026-03-29T07:57:02.057Z</time></trkpt><trkpt lat="43.2255347" lon="-8.4595468"><ele>271.0</ele><time>2026-03-29T07:57:03.058Z</time></trkpt><trkpt lat="43.2254057" lon="-8.459292"><ele>271.0</ele><time>2026-03-29T07:57:04.057Z</time></trkpt><trkpt lat="43.2252817" lon="-8.4590465"><ele>271.0</ele><time>2026-03-29T07:57:05.057Z</time></trkpt><trkpt lat="43.2251659" lon="-8.4588245"><ele>271.0</ele><time>2026-03-29T07:57:06.057Z</time></trkpt><trkpt lat="43.2250611" lon="-8.4586229"><ele>271.66666666666663</ele><time>2026-03-29T07:57:07.057Z</time></trkpt><trkpt lat="43.2249553" lon="-8.4584463"><ele>272.3333333333333</ele><time>2026-03-29T07:57:08.057Z</time></trkpt><trkpt lat="43.2248262" lon="-8.4583332"><ele>273.0</ele><time>2026-03-29T07:57:09.058Z</time></trkpt><trkpt lat="43.2246842" lon="-8.458296"><ele>273.0</ele><time>2026-03-29T07:57:10.058Z</time></trkpt><trkpt lat="43.2245365" lon="-8.4583419"><ele>273.0</ele><time>2026-03-29T07:57:11.057Z</time></trkpt><trkpt lat="43.224392" lon="-8.4584415"><ele>273.0</ele><time>2026-03-29T07:57:12.057Z</time></trkpt><trkpt lat="43.2242308" lon="-8.4585228"><ele>273.0</ele><time>2026-03-29T07:57:13.058Z</time></trkpt><trkpt lat="43.224038" lon="-8.4585584"><ele>273.0</ele><time>2026-03-29T07:57:14.057Z</time></trkpt><trkpt lat="43.2238241" lon="-8.4585795"><ele>273.0</ele><time>2026-03-29T07:57:15.057Z</time></trkpt><trkpt lat="43.2236123" lon="-8.4585939"><ele>272.6666666666667</ele><time>2026-03-29T07:57:16.058Z</time></trkpt><trkpt lat="43.2234159" lon="-8.4585496"><ele>272.33333333333337</ele><time>2026-03-29T07:57:17.057Z</time></trkpt><trkpt lat="43.2232418" lon="-8.4584902"><ele>272.0</ele><time>2026-03-29T07:57:18.058Z</time></trkpt><trkpt lat="43.2230827" lon="-8.4583521"><ele>271.0</ele><time>2026-03-29T07:57:19.058Z</time></trkpt><trkpt lat="43.2229177" lon="-8.4581748"><ele>270.0</ele><time>2026-03-29T07:57:20.057Z</time></trkpt><trkpt lat="43.2227225" lon="-8.458015"><ele>269.0</ele><time>2026-03-29T07:57:21.057Z</time></trkpt><trkpt lat="43.2225074" lon="-8.4578645"><ele>264.0</ele><time>2026-03-29T07:57:22.057Z</time></trkpt><trkpt lat="43.2222909" lon="-8.4577017"><ele>259.0</ele><time>2026-03-29T07:57:23.057Z</time></trkpt><trkpt lat="43.2220528" lon="-8.4575491"><ele>259.0</ele><time>2026-03-29T07:57:24.058Z</time></trkpt><trkpt lat="43.2218398" lon="-8.4574047"><ele>259.0</ele><time>2026-03-29T07:57:25.057Z</time></trkpt><trkpt lat="43.2216358" lon="-8.4572583"><ele>258.66666666666663</ele><time>2026-03-29T07:57:26.057Z</time></trkpt><trkpt lat="43.221437" lon="-8.4571744"><ele>258.3333333333333</ele><time>2026-03-29T07:57:27.057Z</time></trkpt><trkpt lat="43.2212483" lon="-8.4570783"><ele>258.0</ele><time>2026-03-29T07:57:28.058Z</time></trkpt><trkpt lat="43.2210629" lon="-8.4569489"><ele>258.0</ele><time>2026-03-29T07:57:29.058Z</time></trkpt><trkpt lat="43.2208751" lon="-8.4568"><ele>258.0</ele><time>2026-03-29T07:57:30.057Z</time></trkpt><trkpt lat="43.2206816" lon="-8.4566425"><ele>258.0</ele><time>2026-03-29T07:57:31.057Z</time></trkpt><trkpt lat="43.2204853" lon="-8.4564886"><ele>257.0</ele><time>2026-03-29T07:57:32.057Z</time></trkpt><trkpt lat="43.2202867" lon="-8.4563247"><ele>256.0</ele><time>2026-03-29T07:57:33.057Z</time></trkpt><trkpt lat="43.2200916" lon="-8.4561575"><ele>256.0</ele><time>2026-03-29T07:57:34.058Z</time></trkpt><trkpt lat="43.2198934" lon="-8.455995"><ele>256.0</ele><time>2026-03-29T07:57:35.057Z</time></trkpt><trkpt lat="43.2196977" lon="-8.4558342"><ele>250.5</ele><time>2026-03-29T07:57:36.058Z</time></trkpt><trkpt lat="43.2195017" lon="-8.4556688"><ele>245.0</ele><time>2026-03-29T07:57:37.057Z</time></trkpt><trkpt lat="43.219305" lon="-8.4554999"><ele>244.5</ele><time>2026-03-29T07:57:38.058Z</time></trkpt><trkpt lat="43.219108" lon="-8.4553323"><ele>244.0</ele><time>2026-03-29T07:57:39.057Z</time></trkpt><trkpt lat="43.218914" lon="-8.4551666"><ele>244.0</ele><time>2026-03-29T07:57:40.058Z</time></trkpt><trkpt lat="43.2187238" lon="-8.4549989"><ele>244.0</ele><time>2026-03-29T07:57:41.058Z</time></trkpt><trkpt lat="43.2185422" lon="-8.4548376"><ele>244.0</ele><time>2026-03-29T07:57:42.058Z</time></trkpt><trkpt lat="43.2183574" lon="-8.4546839"><ele>244.0</ele><time>2026-03-29T07:57:43.057Z</time></trkpt><trkpt lat="43.218176" lon="-8.4545295"><ele>244.0</ele><time>2026-03-29T07:57:44.057Z</time></trkpt><trkpt lat="43.2179858" lon="-8.4543809"><ele>244.0</ele><time>2026-03-29T07:57:45.057Z</time></trkpt><trkpt lat="43.2177967" lon="-8.4542291"><ele>244.0</ele><time>2026-03-29T07:57:46.057Z</time></trkpt><trkpt lat="43.2176069" lon="-8.4540797"><ele>244.0</ele><time>2026-03-29T07:57:47.057Z</time></trkpt><trkpt lat="43.217416" lon="-8.4539303"><ele>244.0</ele><time>2026-03-29T07:57:48.057Z</time></trkpt><trkpt lat="43.2172219" lon="-8.4537704"><ele>247.0</ele><time>2026-03-29T07:57:49.057Z</time></trkpt><trkpt lat="43.2170213" lon="-8.4536035"><ele>250.0</ele><time>2026-03-29T07:57:50.057Z</time></trkpt><trkpt lat="43.2168236" lon="-8.4534426"><ele>250.0</ele><time>2026-03-29T07:57:51.057Z</time></trkpt><trkpt lat="43.2166227" lon="-8.4532849"><ele>250.0</ele><time>2026-03-29T07:57:52.057Z</time></trkpt><trkpt lat="43.2164234" lon="-8.4531201"><ele>252.0</ele><time>2026-03-29T07:57:53.057Z</time></trkpt><trkpt lat="43.2162231" lon="-8.4529507"><ele>254.0</ele><time>2026-03-29T07:57:54.058Z</time></trkpt><trkpt lat="43.2160235" lon="-8.4527851"><ele>254.0</ele><time>2026-03-29T07:57:55.057Z</time></trkpt><trkpt lat="43.2158268" lon="-8.4526205"><ele>254.0</ele><time>2026-03-29T07:57:56.058Z</time></trkpt><trkpt lat="43.2156251" lon="-8.452446"><ele>254.5</ele><time>2026-03-29T07:57:57.057Z</time></trkpt><trkpt lat="43.2154233" lon="-8.4522733"><ele>255.0</ele><time>2026-03-29T07:57:58.057Z</time></trkpt><trkpt lat="43.2152239" lon="-8.4521052"><ele>255.0</ele><time>2026-03-29T07:57:59.057Z</time></trkpt><trkpt lat="43.2150223" lon="-8.4519418"><ele>255.0</ele><time>2026-03-29T07:58:00.058Z</time></trkpt><trkpt lat="43.2148142" lon="-8.4517994"><ele>257.0</ele><time>2026-03-29T07:58:01.057Z</time></trkpt><trkpt lat="43.2145935" lon="-8.4516798"><ele>259.0</ele><time>2026-03-29T07:58:02.057Z</time></trkpt><trkpt lat="43.2143551" lon="-8.4515715"><ele>259.0</ele><time>2026-03-29T07:58:03.058Z</time></trkpt><trkpt lat="43.2141122" lon="-8.4514683"><ele>259.0</ele><time>2026-03-29T07:58:04.058Z</time></trkpt><trkpt lat="43.2138565" lon="-8.4513562"><ele>258.5</ele><time>2026-03-29T07:58:05.057Z</time></trkpt><trkpt lat="43.2136044" lon="-8.4512442"><ele>258.0</ele><time>2026-03-29T07:58:06.058Z</time></trkpt><trkpt lat="43.2133494" lon="-8.451127"><ele>260.5</ele><time>2026-03-29T07:58:07.057Z</time></trkpt><trkpt lat="43.2130985" lon="-8.4510103"><ele>263.0</ele><time>2026-03-29T07:58:08.057Z</time></trkpt><trkpt lat="43.2128538" lon="-8.4508969"><ele>263.0</ele><time>2026-03-29T07:58:09.057Z</time></trkpt><trkpt lat="43.2126201" lon="-8.4507852"><ele>263.0</ele><time>2026-03-29T07:58:10.057Z</time></trkpt><trkpt lat="43.2124017" lon="-8.4506815"><ele>264.33333333333337</ele><time>2026-03-29T07:58:11.058Z</time></trkpt><trkpt lat="43.2121953" lon="-8.4505899"><ele>265.6666666666667</ele><time>2026-03-29T07:58:12.057Z</time></trkpt><trkpt lat="43.2120012" lon="-8.4505232"><ele>267.0</ele><time>2026-03-29T07:58:13.058Z</time></trkpt><trkpt lat="43.2118121" lon="-8.4505005"><ele>267.0</ele><time>2026-03-29T07:58:14.057Z</time></trkpt><trkpt lat="43.211634" lon="-8.4505342"><ele>267.0</ele><time>2026-03-29T07:58:15.058Z</time></trkpt><trkpt lat="43.2114689" lon="-8.4506163"><ele>267.0</ele><time>2026-03-29T07:58:16.058Z</time></trkpt><trkpt lat="43.2113076" lon="-8.4506935"><ele>274.0</ele><time>2026-03-29T07:58:17.057Z</time></trkpt><trkpt lat="43.2111436" lon="-8.4507077"><ele>281.0</ele><time>2026-03-29T07:58:18.058Z</time></trkpt><trkpt lat="43.2110063" lon="-8.4506743"><ele>288.0</ele><time>2026-03-29T07:58:19.057Z</time></trkpt><trkpt lat="43.2108616" lon="-8.4506176"><ele>288.0</ele><time>2026-03-29T07:58:20.057Z</time></trkpt><trkpt lat="43.2107553" lon="-8.4504764"><ele>288.0</ele><time>2026-03-29T07:58:21.057Z</time></trkpt><trkpt lat="43.2106311" lon="-8.4502923"><ele>288.0</ele><time>2026-03-29T07:58:22.057Z</time></trkpt><trkpt lat="43.2104904" lon="-8.4501265"><ele>290.6666666666667</ele><time>2026-03-29T07:58:23.057Z</time></trkpt><trkpt lat="43.2103316" lon="-8.4500171"><ele>293.33333333333337</ele><time>2026-03-29T07:58:24.058Z</time></trkpt><trkpt lat="43.2101138" lon="-8.4498567"><ele>296.0</ele><time>2026-03-29T07:58:25.057Z</time></trkpt><trkpt lat="43.2099163" lon="-8.4497124"><ele>290.6666666666667</ele><time>2026-03-29T07:58:26.058Z</time></trkpt><trkpt lat="43.2097255" lon="-8.4495842"><ele>285.3333333333333</ele><time>2026-03-29T07:58:27.058Z</time></trkpt><trkpt lat="43.2095381" lon="-8.4494696"><ele>280.0</ele><time>2026-03-29T07:58:28.057Z</time></trkpt><trkpt lat="43.2093595" lon="-8.4494223"><ele>280.0</ele><time>2026-03-29T07:58:29.058Z</time></trkpt><trkpt lat="43.2092025" lon="-8.4495617"><ele>280.0</ele><time>2026-03-29T07:58:30.057Z</time></trkpt><trkpt lat="43.2090468" lon="-8.4497044"><ele>280.0</ele><time>2026-03-29T07:58:31.057Z</time></trkpt><trkpt lat="43.2088946" lon="-8.4498845"><ele>280.3333333333333</ele><time>2026-03-29T07:58:32.057Z</time></trkpt><trkpt lat="43.2087384" lon="-8.450087"><ele>280.6666666666667</ele><time>2026-03-29T07:58:33.058Z</time></trkpt><trkpt lat="43.2085999" lon="-8.4502761"><ele>281.0</ele><time>2026-03-29T07:58:34.057Z</time></trkpt><trkpt lat="43.2084764" lon="-8.4504514"><ele>283.33333333333337</ele><time>2026-03-29T07:58:35.057Z</time></trkpt><trkpt lat="43.2083668" lon="-8.4506226"><ele>285.6666666666667</ele><time>2026-03-29T07:58:36.057Z</time></trkpt><trkpt lat="43.2082792" lon="-8.4508042"><ele>288.0</ele><time>2026-03-29T07:58:37.058Z</time></trkpt><trkpt lat="43.2082162" lon="-8.4509919"><ele>288.0</ele><time>2026-03-29T07:58:38.057Z</time></trkpt><trkpt lat="43.2081742" lon="-8.4511709"><ele>288.0</ele><time>2026-03-29T07:58:39.057Z</time></trkpt><trkpt lat="43.2081686" lon="-8.4513375"><ele>288.0</ele><time>2026-03-29T07:58:40.058Z</time></trkpt><trkpt lat="43.2081908" lon="-8.4515033"><ele>288.0</ele><time>2026-03-29T07:58:41.057Z</time></trkpt><trkpt lat="43.2082333" lon="-8.4516712"><ele>289.0</ele><time>2026-03-29T07:58:42.058Z</time></trkpt><trkpt lat="43.2082535" lon="-8.4518524"><ele>290.0</ele><time>2026-03-29T07:58:43.058Z</time></trkpt><trkpt lat="43.2082252" lon="-8.4520483"><ele>291.0</ele><time>2026-03-29T07:58:44.058Z</time></trkpt><trkpt lat="43.2081493" lon="-8.4522291"><ele>292.0</ele><time>2026-03-29T07:58:45.058Z</time></trkpt><trkpt lat="43.2080467" lon="-8.4523956"><ele>294.0</ele><time>2026-03-29T07:58:46.057Z</time></trkpt><trkpt lat="43.2079222" lon="-8.4525345"><ele>296.0</ele><time>2026-03-29T07:58:47.057Z</time></trkpt><trkpt lat="43.2077738" lon="-8.4526309"><ele>298.0</ele><time>2026-03-29T07:58:48.057Z</time></trkpt><trkpt lat="43.2076051" lon="-8.4526903"><ele>298.0</ele><time>2026-03-29T07:58:49.057Z</time></trkpt><trkpt lat="43.2074441" lon="-8.4527342"><ele>298.0</ele><time>2026-03-29T07:58:50.057Z</time></trkpt><trkpt lat="43.2073063" lon="-8.4528009"><ele>298.0</ele><time>2026-03-29T07:58:51.058Z</time></trkpt><trkpt lat="43.2072109" lon="-8.4529147"><ele>298.0</ele><time>2026-03-29T07:58:52.058Z</time></trkpt><trkpt lat="43.2071392" lon="-8.4530499"><ele>300.5</ele><time>2026-03-29T07:58:53.058Z</time></trkpt><trkpt lat="43.2070724" lon="-8.4531827"><ele>303.0</ele><time>2026-03-29T07:58:54.057Z</time></trkpt><trkpt lat="43.2069754" lon="-8.453282"><ele>305.5</ele><time>2026-03-29T07:58:55.057Z</time></trkpt><trkpt lat="43.2068588" lon="-8.4533261"><ele>308.0</ele><time>2026-03-29T07:58:56.057Z</time></trkpt><trkpt lat="43.2067367" lon="-8.4533078"><ele>308.0</ele><time>2026-03-29T07:58:57.057Z</time></trkpt><trkpt lat="43.206617" lon="-8.4532437"><ele>308.0</ele><time>2026-03-29T07:58:58.058Z</time></trkpt><trkpt lat="43.2064965" lon="-8.4531638"><ele>308.0</ele><time>2026-03-29T07:58:59.057Z</time></trkpt><trkpt lat="43.2063775" lon="-8.4530986"><ele>308.0</ele><time>2026-03-29T07:59:00.057Z</time></trkpt><trkpt lat="43.2062558" lon="-8.4530756"><ele>307.25</ele><time>2026-03-29T07:59:01.058Z</time></trkpt><trkpt lat="43.2061327" lon="-8.4530893"><ele>306.5</ele><time>2026-03-29T07:59:02.058Z</time></trkpt><trkpt lat="43.2060071" lon="-8.4531434"><ele>305.75</ele><time>2026-03-29T07:59:03.058Z</time></trkpt><trkpt lat="43.2058874" lon="-8.453231"><ele>305.0</ele><time>2026-03-29T07:59:04.057Z</time></trkpt><trkpt lat="43.205766" lon="-8.4533391"><ele>303.0</ele><time>2026-03-29T07:59:05.058Z</time></trkpt><trkpt lat="43.2056375" lon="-8.4534458"><ele>301.0</ele><time>2026-03-29T07:59:06.057Z</time></trkpt><trkpt lat="43.2055161" lon="-8.4535403"><ele>299.0</ele><time>2026-03-29T07:59:07.057Z</time></trkpt><trkpt lat="43.2054047" lon="-8.4536322"><ele>297.0</ele><time>2026-03-29T07:59:08.057Z</time></trkpt><trkpt lat="43.2053051" lon="-8.4537403"><ele>298.25</ele><time>2026-03-29T07:59:09.057Z</time></trkpt><trkpt lat="43.2052202" lon="-8.4538829"><ele>299.5</ele><time>2026-03-29T07:59:10.057Z</time></trkpt><trkpt lat="43.2051399" lon="-8.4540329"><ele>300.75</ele><time>2026-03-29T07:59:11.058Z</time></trkpt><trkpt lat="43.2051001" lon="-8.4542316"><ele>302.0</ele><time>2026-03-29T07:59:12.058Z</time></trkpt><trkpt lat="43.2050769" lon="-8.4544406"><ele>302.6666666666667</ele><time>2026-03-29T07:59:13.057Z</time></trkpt><trkpt lat="43.2050469" lon="-8.4546508"><ele>303.3333333333333</ele><time>2026-03-29T07:59:14.058Z</time></trkpt><trkpt lat="43.2049795" lon="-8.4548444"><ele>304.0</ele><time>2026-03-29T07:59:15.058Z</time></trkpt><trkpt lat="43.2048791" lon="-8.4550101"><ele>304.0</ele><time>2026-03-29T07:59:16.058Z</time></trkpt><trkpt lat="43.2047541" lon="-8.4551407"><ele>304.0</ele><time>2026-03-29T07:59:17.058Z</time></trkpt><trkpt lat="43.2046272" lon="-8.4552391"><ele>304.0</ele><time>2026-03-29T07:59:18.057Z</time></trkpt><trkpt lat="43.2045215" lon="-8.455358"><ele>304.0</ele><time>2026-03-29T07:59:19.057Z</time></trkpt><trkpt lat="43.2044343" lon="-8.4555091"><ele>304.0</ele><time>2026-03-29T07:59:20.057Z</time></trkpt><trkpt lat="43.2043738" lon="-8.4556862"><ele>304.0</ele><time>2026-03-29T07:59:21.057Z</time></trkpt><trkpt lat="43.2043255" lon="-8.4558787"><ele>304.0</ele><time>2026-03-29T07:59:22.058Z</time></trkpt><trkpt lat="43.2042565" lon="-8.4560665"><ele>304.0</ele><time>2026-03-29T07:59:23.057Z</time></trkpt><trkpt lat="43.2041549" lon="-8.4562321"><ele>304.0</ele><time>2026-03-29T07:59:24.057Z</time></trkpt><trkpt lat="43.204038" lon="-8.4563833"><ele>304.0</ele><time>2026-03-29T07:59:25.058Z</time></trkpt><trkpt lat="43.2039281" lon="-8.456532"><ele>304.0</ele><time>2026-03-29T07:59:26.057Z</time></trkpt><trkpt lat="43.2038257" lon="-8.4566765"><ele>304.0</ele><time>2026-03-29T07:59:27.058Z</time></trkpt><trkpt lat="43.2037268" lon="-8.456814"><ele>304.0</ele><time>2026-03-29T07:59:28.057Z</time></trkpt><trkpt lat="43.2036293" lon="-8.4569474"><ele>304.0</ele><time>2026-03-29T07:59:29.057Z</time></trkpt><trkpt lat="43.203536" lon="-8.4570768"><ele>304.0</ele><time>2026-03-29T07:59:30.058Z</time></trkpt><trkpt lat="43.2034439" lon="-8.4571994"><ele>304.5</ele><time>2026-03-29T07:59:31.057Z</time></trkpt><trkpt lat="43.2033566" lon="-8.45732"><ele>305.0</ele><time>2026-03-29T07:59:32.058Z</time></trkpt><trkpt lat="43.203276" lon="-8.4574355"><ele>305.5</ele><time>2026-03-29T07:59:33.057Z</time></trkpt><trkpt lat="43.2031978" lon="-8.4575459"><ele>306.0</ele><time>2026-03-29T07:59:34.058Z</time></trkpt><trkpt lat="43.2031225" lon="-8.4576557"><ele>306.0</ele><time>2026-03-29T07:59:35.058Z</time></trkpt><trkpt lat="43.2030565" lon="-8.4577618"><ele>306.0</ele><time>2026-03-29T07:59:36.058Z</time></trkpt><trkpt lat="43.2030114" lon="-8.4578631"><ele>306.0</ele><time>2026-03-29T07:59:37.057Z</time></trkpt><trkpt lat="43.2029901" lon="-8.4579612"><ele>306.0</ele><time>2026-03-29T07:59:38.057Z</time></trkpt><trkpt lat="43.2029994" lon="-8.4580676"><ele>306.0</ele><time>2026-03-29T07:59:39.057Z</time></trkpt><trkpt lat="43.2030317" lon="-8.4581659"><ele>306.0</ele><time>2026-03-29T07:59:40.057Z</time></trkpt><trkpt lat="43.2030567" lon="-8.4582687"><ele>308.3333333333333</ele><time>2026-03-29T07:59:41.058Z</time></trkpt><trkpt lat="43.2030495" lon="-8.4583759"><ele>310.6666666666667</ele><time>2026-03-29T07:59:42.058Z</time></trkpt><trkpt lat="43.2030127" lon="-8.4584751"><ele>313.0</ele><time>2026-03-29T07:59:43.057Z</time></trkpt><trkpt lat="43.2029523" lon="-8.4585526"><ele>315.33333333333337</ele><time>2026-03-29T07:59:44.057Z</time></trkpt><trkpt lat="43.2028759" lon="-8.4586138"><ele>317.6666666666667</ele><time>2026-03-29T07:59:45.058Z</time></trkpt><trkpt lat="43.2027999" lon="-8.458674"><ele>320.0</ele><time>2026-03-29T07:59:46.057Z</time></trkpt><trkpt lat="43.2027382" lon="-8.4587387"><ele>321.8</ele><time>2026-03-29T07:59:47.057Z</time></trkpt><trkpt lat="43.2026916" lon="-8.45881"><ele>323.6</ele><time>2026-03-29T07:59:48.057Z</time></trkpt><trkpt lat="43.2026311" lon="-8.4589413"><ele>325.4</ele><time>2026-03-29T07:59:50.057Z</time></trkpt><trkpt lat="43.2026065" lon="-8.4590497"><ele>327.2</ele><time>2026-03-29T07:59:52.057Z</time></trkpt><trkpt lat="43.2025854" lon="-8.4592214"><ele>329.0</ele><time>2026-03-29T07:59:54.057Z</time></trkpt><trkpt lat="43.2025832" lon="-8.4593684"><ele>329.0</ele><time>2026-03-29T07:59:55.057Z</time></trkpt><trkpt lat="43.2025872" lon="-8.4595264"><ele>329.0</ele><time>2026-03-29T07:59:56.057Z</time></trkpt><trkpt lat="43.2025941" lon="-8.4597133"><ele>329.0</ele><time>2026-03-29T07:59:57.057Z</time></trkpt><trkpt lat="43.2026004" lon="-8.4599225"><ele>329.0</ele><time>2026-03-29T07:59:58.057Z</time></trkpt><trkpt lat="43.2026042" lon="-8.4601547"><ele>330.33333333333337</ele><time>2026-03-29T07:59:59.057Z</time></trkpt><trkpt lat="43.202605" lon="-8.4603824"><ele>331.6666666666667</ele><time>2026-03-29T08:00:00.057Z</time></trkpt><trkpt lat="43.2025694" lon="-8.4606116"><ele>333.0</ele><time>2026-03-29T08:00:01.057Z</time></trkpt><trkpt lat="43.2024928" lon="-8.4608138"><ele>333.0</ele><time>2026-03-29T08:00:02.057Z</time></trkpt><trkpt lat="43.2023739" lon="-8.4609794"><ele>333.0</ele><time>2026-03-29T08:00:03.058Z</time></trkpt><trkpt lat="43.2022203" lon="-8.4610891"><ele>333.0</ele><time>2026-03-29T08:00:04.058Z</time></trkpt><trkpt lat="43.2020293" lon="-8.4611547"><ele>333.6666666666667</ele><time>2026-03-29T08:00:05.058Z</time></trkpt><trkpt lat="43.2018304" lon="-8.4612346"><ele>334.33333333333337</ele><time>2026-03-29T08:00:06.057Z</time></trkpt><trkpt lat="43.2016347" lon="-8.4613456"><ele>335.0</ele><time>2026-03-29T08:00:07.057Z</time></trkpt><trkpt lat="43.2014527" lon="-8.4615019"><ele>335.6666666666667</ele><time>2026-03-29T08:00:08.057Z</time></trkpt><trkpt lat="43.201279" lon="-8.4616793"><ele>336.3333333333333</ele><time>2026-03-29T08:00:09.058Z</time></trkpt><trkpt lat="43.2011179" lon="-8.4618683"><ele>337.0</ele><time>2026-03-29T08:00:10.058Z</time></trkpt><trkpt lat="43.2009463" lon="-8.4620483"><ele>337.0</ele><time>2026-03-29T08:00:11.058Z</time></trkpt><trkpt lat="43.2007736" lon="-8.4622248"><ele>337.0</ele><time>2026-03-29T08:00:12.058Z</time></trkpt><trkpt lat="43.2006047" lon="-8.4624049"><ele>337.0</ele><time>2026-03-29T08:00:13.057Z</time></trkpt><trkpt lat="43.2004416" lon="-8.4625781"><ele>338.0</ele><time>2026-03-29T08:00:14.058Z</time></trkpt><trkpt lat="43.2002766" lon="-8.4627537"><ele>339.0</ele><time>2026-03-29T08:00:15.058Z</time></trkpt><trkpt lat="43.2001184" lon="-8.4629254"><ele>340.0</ele><time>2026-03-29T08:00:16.058Z</time></trkpt><trkpt lat="43.1999641" lon="-8.4630927"><ele>341.3333333333333</ele><time>2026-03-29T08:00:17.057Z</time></trkpt><trkpt lat="43.1998078" lon="-8.4632637"><ele>342.6666666666667</ele><time>2026-03-29T08:00:18.058Z</time></trkpt><trkpt lat="43.1996538" lon="-8.4634301"><ele>344.0</ele><time>2026-03-29T08:00:19.058Z</time></trkpt><trkpt lat="43.1994994" lon="-8.4636017"><ele>344.0</ele><time>2026-03-29T08:00:20.057Z</time></trkpt><trkpt lat="43.1993431" lon="-8.4637704"><ele>344.0</ele><time>2026-03-29T08:00:21.057Z</time></trkpt><trkpt lat="43.1991877" lon="-8.4639428"><ele>344.0</ele><time>2026-03-29T08:00:22.057Z</time></trkpt><trkpt lat="43.1990338" lon="-8.4641123"><ele>344.33333333333337</ele><time>2026-03-29T08:00:23.058Z</time></trkpt><trkpt lat="43.1988797" lon="-8.464278"><ele>344.6666666666667</ele><time>2026-03-29T08:00:24.057Z</time></trkpt><trkpt lat="43.1987297" lon="-8.4644456"><ele>345.0</ele><time>2026-03-29T08:00:25.057Z</time></trkpt><trkpt lat="43.1985858" lon="-8.4646113"><ele>345.3333333333333</ele><time>2026-03-29T08:00:26.057Z</time></trkpt><trkpt lat="43.1984371" lon="-8.4647701"><ele>345.66666666666663</ele><time>2026-03-29T08:00:27.058Z</time></trkpt><trkpt lat="43.1982879" lon="-8.4649289"><ele>346.0</ele><time>2026-03-29T08:00:28.057Z</time></trkpt><trkpt lat="43.1981374" lon="-8.4650886"><ele>344.3333333333333</ele><time>2026-03-29T08:00:29.058Z</time></trkpt><trkpt lat="43.1979961" lon="-8.4652492"><ele>342.6666666666667</ele><time>2026-03-29T08:00:30.058Z</time></trkpt><trkpt lat="43.1978604" lon="-8.4653974"><ele>341.0</ele><time>2026-03-29T08:00:31.057Z</time></trkpt><trkpt lat="43.1977268" lon="-8.4655434"><ele>340.33333333333337</ele><time>2026-03-29T08:00:32.058Z</time></trkpt><trkpt lat="43.1975963" lon="-8.4656846"><ele>339.6666666666667</ele><time>2026-03-29T08:00:33.057Z</time></trkpt><trkpt lat="43.1974616" lon="-8.465827"><ele>339.0</ele><time>2026-03-29T08:00:34.057Z</time></trkpt><trkpt lat="43.1973267" lon="-8.465976"><ele>336.3333333333333</ele><time>2026-03-29T08:00:35.058Z</time></trkpt><trkpt lat="43.1971913" lon="-8.4661294"><ele>333.66666666666663</ele><time>2026-03-29T08:00:36.058Z</time></trkpt><trkpt lat="43.1970568" lon="-8.466283"><ele>331.0</ele><time>2026-03-29T08:00:37.057Z</time></trkpt><trkpt lat="43.1969181" lon="-8.4664372"><ele>330.3333333333333</ele><time>2026-03-29T08:00:38.058Z</time></trkpt><trkpt lat="43.1967782" lon="-8.4665919"><ele>329.6666666666667</ele><time>2026-03-29T08:00:39.057Z</time></trkpt><trkpt lat="43.1966387" lon="-8.4667513"><ele>329.0</ele><time>2026-03-29T08:00:40.057Z</time></trkpt><trkpt lat="43.1964981" lon="-8.466905"><ele>328.33333333333337</ele><time>2026-03-29T08:00:41.057Z</time></trkpt><trkpt lat="43.1963605" lon="-8.4670546"><ele>327.6666666666667</ele><time>2026-03-29T08:00:42.057Z</time></trkpt><trkpt lat="43.196223" lon="-8.4672124"><ele>327.0</ele><time>2026-03-29T08:00:43.058Z</time></trkpt><trkpt lat="43.1960848" lon="-8.4673703"><ele>327.0</ele><time>2026-03-29T08:00:44.057Z</time></trkpt><trkpt lat="43.1959488" lon="-8.4675259"><ele>327.0</ele><time>2026-03-29T08:00:45.058Z</time></trkpt><trkpt lat="43.1958124" lon="-8.4676807"><ele>327.0</ele><time>2026-03-29T08:00:46.058Z</time></trkpt><trkpt lat="43.1956761" lon="-8.4678337"><ele>327.3333333333333</ele><time>2026-03-29T08:00:47.058Z</time></trkpt><trkpt lat="43.195541" lon="-8.4679785"><ele>327.66666666666663</ele><time>2026-03-29T08:00:48.058Z</time></trkpt><trkpt lat="43.1954041" lon="-8.4681144"><ele>328.0</ele><time>2026-03-29T08:00:49.057Z</time></trkpt><trkpt lat="43.1952597" lon="-8.4682127"><ele>328.0</ele><time>2026-03-29T08:00:50.057Z</time></trkpt><trkpt lat="43.1951108" lon="-8.4682803"><ele>328.0</ele><time>2026-03-29T08:00:51.058Z</time></trkpt><trkpt lat="43.1949596" lon="-8.4683304"><ele>328.0</ele><time>2026-03-29T08:00:52.058Z</time></trkpt><trkpt lat="43.1948122" lon="-8.4683789"><ele>328.0</ele><time>2026-03-29T08:00:53.057Z</time></trkpt><trkpt lat="43.1946697" lon="-8.4684303"><ele>328.0</ele><time>2026-03-29T08:00:54.057Z</time></trkpt><trkpt lat="43.1945277" lon="-8.468486"><ele>328.0</ele><time>2026-03-29T08:00:55.057Z</time></trkpt><trkpt lat="43.1943854" lon="-8.4685287"><ele>328.0</ele><time>2026-03-29T08:00:56.057Z</time></trkpt><trkpt lat="43.1942453" lon="-8.4685717"><ele>328.0</ele><time>2026-03-29T08:00:57.057Z</time></trkpt><trkpt lat="43.1941035" lon="-8.4686175"><ele>328.0</ele><time>2026-03-29T08:00:58.057Z</time></trkpt><trkpt lat="43.1939631" lon="-8.4686658"><ele>328.0</ele><time>2026-03-29T08:00:59.057Z</time></trkpt><trkpt lat="43.1938207" lon="-8.4687134"><ele>328.0</ele><time>2026-03-29T08:01:00.057Z</time></trkpt><trkpt lat="43.1936787" lon="-8.4687622"><ele>329.75</ele><time>2026-03-29T08:01:01.058Z</time></trkpt><trkpt lat="43.1935406" lon="-8.4688123"><ele>331.5</ele><time>2026-03-29T08:01:02.058Z</time></trkpt><trkpt lat="43.1934018" lon="-8.4688609"><ele>333.25</ele><time>2026-03-29T08:01:03.058Z</time></trkpt><trkpt lat="43.1932653" lon="-8.4689031"><ele>335.0</ele><time>2026-03-29T08:01:04.057Z</time></trkpt><trkpt lat="43.1931314" lon="-8.4689537"><ele>335.0</ele><time>2026-03-29T08:01:05.058Z</time></trkpt><trkpt lat="43.1929961" lon="-8.4689993"><ele>335.0</ele><time>2026-03-29T08:01:06.057Z</time></trkpt><trkpt lat="43.1928608" lon="-8.4690423"><ele>335.0</ele><time>2026-03-29T08:01:07.057Z</time></trkpt><trkpt lat="43.1927302" lon="-8.4690917"><ele>335.0</ele><time>2026-03-29T08:01:08.057Z</time></trkpt><trkpt lat="43.1925959" lon="-8.4691377"><ele>335.0</ele><time>2026-03-29T08:01:09.057Z</time></trkpt><trkpt lat="43.1924581" lon="-8.4691811"><ele>335.0</ele><time>2026-03-29T08:01:10.057Z</time></trkpt><trkpt lat="43.1923224" lon="-8.4692262"><ele>335.0</ele><time>2026-03-29T08:01:11.058Z</time></trkpt><trkpt lat="43.1921854" lon="-8.4692742"><ele>335.0</ele><time>2026-03-29T08:01:12.057Z</time></trkpt><trkpt lat="43.1920505" lon="-8.4693254"><ele>335.5</ele><time>2026-03-29T08:01:13.058Z</time></trkpt><trkpt lat="43.191916" lon="-8.4693722"><ele>336.0</ele><time>2026-03-29T08:01:14.057Z</time></trkpt><trkpt lat="43.1917872" lon="-8.4694157"><ele>336.5</ele><time>2026-03-29T08:01:15.057Z</time></trkpt><trkpt lat="43.1916595" lon="-8.4694547"><ele>337.0</ele><time>2026-03-29T08:01:16.057Z</time></trkpt><trkpt lat="43.1915377" lon="-8.4695016"><ele>338.0</ele><time>2026-03-29T08:01:17.057Z</time></trkpt><trkpt lat="43.1914197" lon="-8.4695581"><ele>339.0</ele><time>2026-03-29T08:01:18.057Z</time></trkpt><trkpt lat="43.1913056" lon="-8.4696191"><ele>340.0</ele><time>2026-03-29T08:01:19.058Z</time></trkpt><trkpt lat="43.1912112" lon="-8.4697172"><ele>341.0</ele><time>2026-03-29T08:01:20.057Z</time></trkpt><trkpt lat="43.1911308" lon="-8.4698371"><ele>341.0</ele><time>2026-03-29T08:01:21.058Z</time></trkpt><trkpt lat="43.1910586" lon="-8.4699719"><ele>341.0</ele><time>2026-03-29T08:01:22.058Z</time></trkpt><trkpt lat="43.1909972" lon="-8.4701171"><ele>341.0</ele><time>2026-03-29T08:01:23.057Z</time></trkpt><trkpt lat="43.1909393" lon="-8.4702598"><ele>341.0</ele><time>2026-03-29T08:01:24.058Z</time></trkpt><trkpt lat="43.1908797" lon="-8.470403"><ele>341.5</ele><time>2026-03-29T08:01:25.057Z</time></trkpt><trkpt lat="43.1908207" lon="-8.4705538"><ele>342.0</ele><time>2026-03-29T08:01:26.057Z</time></trkpt><trkpt lat="43.1907615" lon="-8.4706992"><ele>342.5</ele><time>2026-03-29T08:01:27.057Z</time></trkpt><trkpt lat="43.1906941" lon="-8.4708439"><ele>343.0</ele><time>2026-03-29T08:01:28.058Z</time></trkpt><trkpt lat="43.190612" lon="-8.4709716"><ele>343.0</ele><time>2026-03-29T08:01:29.057Z</time></trkpt><trkpt lat="43.1905166" lon="-8.4710738"><ele>343.0</ele><time>2026-03-29T08:01:30.058Z</time></trkpt><trkpt lat="43.1904153" lon="-8.4711635"><ele>343.0</ele><time>2026-03-29T08:01:31.057Z</time></trkpt><trkpt lat="43.1903006" lon="-8.4712307"><ele>343.0</ele><time>2026-03-29T08:01:32.057Z</time></trkpt><trkpt lat="43.1901903" lon="-8.4713009"><ele>343.75</ele><time>2026-03-29T08:01:33.058Z</time></trkpt><trkpt lat="43.1900835" lon="-8.4713843"><ele>344.5</ele><time>2026-03-29T08:01:34.057Z</time></trkpt><trkpt lat="43.1899848" lon="-8.4714794"><ele>345.25</ele><time>2026-03-29T08:01:35.057Z</time></trkpt><trkpt lat="43.1898991" lon="-8.471592"><ele>346.0</ele><time>2026-03-29T08:01:36.057Z</time></trkpt><trkpt lat="43.1898251" lon="-8.4717182"><ele>346.0</ele><time>2026-03-29T08:01:37.058Z</time></trkpt><trkpt lat="43.1897578" lon="-8.4718426"><ele>346.0</ele><time>2026-03-29T08:01:38.058Z</time></trkpt><trkpt lat="43.1896932" lon="-8.471961"><ele>346.0</ele><time>2026-03-29T08:01:39.057Z</time></trkpt><trkpt lat="43.1896255" lon="-8.4720726"><ele>346.0</ele><time>2026-03-29T08:01:40.057Z</time></trkpt><trkpt lat="43.1895637" lon="-8.4721832"><ele>346.0</ele><time>2026-03-29T08:01:41.057Z</time></trkpt><trkpt lat="43.1895014" lon="-8.4722865"><ele>346.5</ele><time>2026-03-29T08:01:42.057Z</time></trkpt><trkpt lat="43.189445" lon="-8.4723829"><ele>347.0</ele><time>2026-03-29T08:01:43.058Z</time></trkpt><trkpt lat="43.1893999" lon="-8.4724729"><ele>347.5</ele><time>2026-03-29T08:01:44.057Z</time></trkpt><trkpt lat="43.1893646" lon="-8.4725508"><ele>348.0</ele><time>2026-03-29T08:01:45.058Z</time></trkpt><trkpt lat="43.1893223" lon="-8.4726685"><ele>348.5</ele><time>2026-03-29T08:01:47.057Z</time></trkpt><trkpt lat="43.1892807" lon="-8.4727404"><ele>349.0</ele><time>2026-03-29T08:01:50.057Z</time></trkpt><trkpt lat="43.1892287" lon="-8.4728259"><ele>349.0</ele><time>2026-03-29T08:02:18.057Z</time></trkpt><trkpt lat="43.1892294" lon="-8.4729245"><ele>349.0</ele><time>2026-03-29T08:02:22.057Z</time></trkpt><trkpt lat="43.1891681" lon="-8.4729576"><ele>349.0</ele><time>2026-03-29T08:06:02.057Z</time></trkpt><trkpt lat="43.1891039" lon="-8.473084"><ele>349.0</ele><time>2026-03-29T08:06:04.057Z</time></trkpt><trkpt lat="43.189052" lon="-8.4732428"><ele>349.0</ele><time>2026-03-29T08:06:06.057Z</time></trkpt><trkpt lat="43.1890127" lon="-8.473324"><ele>349.0</ele><time>2026-03-29T08:06:07.058Z</time></trkpt><trkpt lat="43.1889743" lon="-8.473425"><ele>348.6</ele><time>2026-03-29T08:06:08.057Z</time></trkpt><trkpt lat="43.1889286" lon="-8.4735401"><ele>348.2</ele><time>2026-03-29T08:06:09.058Z</time></trkpt><trkpt lat="43.1888842" lon="-8.4736682"><ele>347.8</ele><time>2026-03-29T08:06:10.057Z</time></trkpt><trkpt lat="43.1888442" lon="-8.4738016"><ele>347.40000000000003</ele><time>2026-03-29T08:06:11.058Z</time></trkpt><trkpt lat="43.1888013" lon="-8.4739329"><ele>347.0</ele><time>2026-03-29T08:06:12.058Z</time></trkpt><trkpt lat="43.188753" lon="-8.4740658"><ele>348.5</ele><time>2026-03-29T08:06:13.057Z</time></trkpt><trkpt lat="43.1887089" lon="-8.474198"><ele>350.0</ele><time>2026-03-29T08:06:14.058Z</time></trkpt><trkpt lat="43.1886722" lon="-8.4743308"><ele>351.5</ele><time>2026-03-29T08:06:15.057Z</time></trkpt><trkpt lat="43.1886358" lon="-8.4744902"><ele>353.0</ele><time>2026-03-29T08:06:16.058Z</time></trkpt><trkpt lat="43.188598" lon="-8.4746745"><ele>354.0</ele><time>2026-03-29T08:06:17.057Z</time></trkpt><trkpt lat="43.1885544" lon="-8.4748687"><ele>355.0</ele><time>2026-03-29T08:06:18.057Z</time></trkpt><trkpt lat="43.1885168" lon="-8.4750506"><ele>356.0</ele><time>2026-03-29T08:06:19.057Z</time></trkpt><trkpt lat="43.1884818" lon="-8.4752192"><ele>357.0</ele><time>2026-03-29T08:06:20.058Z</time></trkpt><trkpt lat="43.1884473" lon="-8.4753755"><ele>357.8</ele><time>2026-03-29T08:06:21.058Z</time></trkpt><trkpt lat="43.1884174" lon="-8.4755189"><ele>358.6</ele><time>2026-03-29T08:06:22.057Z</time></trkpt><trkpt lat="43.1883893" lon="-8.4756499"><ele>359.40000000000003</ele><time>2026-03-29T08:06:23.058Z</time></trkpt><trkpt lat="43.1883657" lon="-8.4757736"><ele>360.20000000000005</ele><time>2026-03-29T08:06:24.057Z</time></trkpt><trkpt lat="43.1883382" lon="-8.4758902"><ele>361.0</ele><time>2026-03-29T08:06:25.057Z</time></trkpt><trkpt lat="43.1883141" lon="-8.4760054"><ele>361.0</ele><time>2026-03-29T08:06:26.057Z</time></trkpt><trkpt lat="43.188287" lon="-8.4761175"><ele>361.0</ele><time>2026-03-29T08:06:27.057Z</time></trkpt><trkpt lat="43.1882623" lon="-8.4762276"><ele>361.0</ele><time>2026-03-29T08:06:28.058Z</time></trkpt><trkpt lat="43.1882378" lon="-8.4763388"><ele>361.0</ele><time>2026-03-29T08:06:29.058Z</time></trkpt><trkpt lat="43.1882124" lon="-8.4764531"><ele>361.0</ele><time>2026-03-29T08:06:30.057Z</time></trkpt><trkpt lat="43.1881857" lon="-8.4765674"><ele>361.0</ele><time>2026-03-29T08:06:31.057Z</time></trkpt><trkpt lat="43.1881611" lon="-8.4766868"><ele>362.8</ele><time>2026-03-29T08:06:32.058Z</time></trkpt><trkpt lat="43.1881338" lon="-8.4768073"><ele>364.6</ele><time>2026-03-29T08:06:33.057Z</time></trkpt><trkpt lat="43.1881072" lon="-8.4769284"><ele>366.4</ele><time>2026-03-29T08:06:34.058Z</time></trkpt><trkpt lat="43.188081" lon="-8.4770534"><ele>368.2</ele><time>2026-03-29T08:06:35.057Z</time></trkpt><trkpt lat="43.1880568" lon="-8.4771746"><ele>370.0</ele><time>2026-03-29T08:06:36.058Z</time></trkpt><trkpt lat="43.1880306" lon="-8.4772921"><ele>370.5</ele><time>2026-03-29T08:06:37.058Z</time></trkpt><trkpt lat="43.1880039" lon="-8.4774055"><ele>371.0</ele><time>2026-03-29T08:06:38.057Z</time></trkpt><trkpt lat="43.1879766" lon="-8.4775144"><ele>371.5</ele><time>2026-03-29T08:06:39.057Z</time></trkpt><trkpt lat="43.1879545" lon="-8.4776093"><ele>372.0</ele><time>2026-03-29T08:06:40.057Z</time></trkpt><trkpt lat="43.1879261" lon="-8.4776929"><ele>372.5</ele><time>2026-03-29T08:06:41.058Z</time></trkpt><trkpt lat="43.1878202" lon="-8.4777556"><ele>373.0</ele><time>2026-03-29T08:06:43.058Z</time></trkpt><trkpt lat="43.1877486" lon="-8.4777551"><ele>373.0</ele><time>2026-03-29T08:06:44.057Z</time></trkpt><trkpt lat="43.1876565" lon="-8.4777477"><ele>373.0</ele><time>2026-03-29T08:06:45.057Z</time></trkpt><trkpt lat="43.1875616" lon="-8.4777298"><ele>373.0</ele><time>2026-03-29T08:06:46.057Z</time></trkpt><trkpt lat="43.1874614" lon="-8.4777153"><ele>373.0</ele><time>2026-03-29T08:06:47.057Z</time></trkpt><trkpt lat="43.1873602" lon="-8.4777121"><ele>373.0</ele><time>2026-03-29T08:06:48.058Z</time></trkpt><trkpt lat="43.1872512" lon="-8.4777069"><ele>372.0</ele><time>2026-03-29T08:06:49.057Z</time></trkpt><trkpt lat="43.187137" lon="-8.4776987"><ele>371.0</ele><time>2026-03-29T08:06:50.057Z</time></trkpt><trkpt lat="43.1870193" lon="-8.4776894"><ele>370.0</ele><time>2026-03-29T08:06:51.057Z</time></trkpt><trkpt lat="43.1868977" lon="-8.4776872"><ele>369.0</ele><time>2026-03-29T08:06:52.058Z</time></trkpt><trkpt lat="43.1867702" lon="-8.4776779"><ele>369.0</ele><time>2026-03-29T08:06:53.058Z</time></trkpt><trkpt lat="43.186638" lon="-8.4776712"><ele>369.0</ele><time>2026-03-29T08:06:54.057Z</time></trkpt><trkpt lat="43.1864994" lon="-8.4776671"><ele>369.0</ele><time>2026-03-29T08:06:55.057Z</time></trkpt><trkpt lat="43.1863559" lon="-8.4776611"><ele>369.0</ele><time>2026-03-29T08:06:56.058Z</time></trkpt><trkpt lat="43.1862066" lon="-8.4776537"><ele>369.0</ele><time>2026-03-29T08:06:57.057Z</time></trkpt><trkpt lat="43.1860538" lon="-8.4776451"><ele>369.0</ele><time>2026-03-29T08:06:58.058Z</time></trkpt><trkpt lat="43.185896" lon="-8.4776378"><ele>369.0</ele><time>2026-03-29T08:06:59.058Z</time></trkpt><trkpt lat="43.1857355" lon="-8.4776297"><ele>369.25</ele><time>2026-03-29T08:07:00.057Z</time></trkpt><trkpt lat="43.1855789" lon="-8.4776262"><ele>369.5</ele><time>2026-03-29T08:07:01.058Z</time></trkpt><trkpt lat="43.1854324" lon="-8.4776188"><ele>369.75</ele><time>2026-03-29T08:07:02.057Z</time></trkpt><trkpt lat="43.1852922" lon="-8.4776173"><ele>370.0</ele><time>2026-03-29T08:07:03.057Z</time></trkpt><trkpt lat="43.1851519" lon="-8.4776183"><ele>370.0</ele><time>2026-03-29T08:07:04.057Z</time></trkpt><trkpt lat="43.1850127" lon="-8.4776287"><ele>370.0</ele><time>2026-03-29T08:07:05.057Z</time></trkpt><trkpt lat="43.1848726" lon="-8.4776361"><ele>370.0</ele><time>2026-03-29T08:07:06.057Z</time></trkpt><trkpt lat="43.1847333" lon="-8.4776488"><ele>370.0</ele><time>2026-03-29T08:07:07.058Z</time></trkpt><trkpt lat="43.1845884" lon="-8.4776785"><ele>369.3333333333333</ele><time>2026-03-29T08:07:08.057Z</time></trkpt><trkpt lat="43.1844387" lon="-8.4777395"><ele>368.6666666666667</ele><time>2026-03-29T08:07:09.057Z</time></trkpt><trkpt lat="43.1843002" lon="-8.4777959"><ele>368.0</ele><time>2026-03-29T08:07:10.058Z</time></trkpt><trkpt lat="43.1841265" lon="-8.4779167"><ele>364.0</ele><time>2026-03-29T08:07:11.057Z</time></trkpt><trkpt lat="43.1839535" lon="-8.4780385"><ele>360.0</ele><time>2026-03-29T08:07:12.057Z</time></trkpt><trkpt lat="43.1837736" lon="-8.4781675"><ele>356.0</ele><time>2026-03-29T08:07:13.057Z</time></trkpt><trkpt lat="43.1835878" lon="-8.4782953"><ele>356.0</ele><time>2026-03-29T08:07:14.057Z</time></trkpt><trkpt lat="43.1833958" lon="-8.4784324"><ele>356.0</ele><time>2026-03-29T08:07:15.058Z</time></trkpt><trkpt lat="43.1832065" lon="-8.4785756"><ele>356.0</ele><time>2026-03-29T08:07:16.057Z</time></trkpt><trkpt lat="43.1830155" lon="-8.4787128"><ele>359.6666666666667</ele><time>2026-03-29T08:07:17.058Z</time></trkpt><trkpt lat="43.1828263" lon="-8.4788453"><ele>363.3333333333333</ele><time>2026-03-29T08:07:18.058Z</time></trkpt><trkpt lat="43.1826345" lon="-8.4789618"><ele>367.0</ele><time>2026-03-29T08:07:19.058Z</time></trkpt><trkpt lat="43.1824457" lon="-8.479057"><ele>372.3333333333333</ele><time>2026-03-29T08:07:20.057Z</time></trkpt><trkpt lat="43.1822521" lon="-8.4791031"><ele>377.6666666666667</ele><time>2026-03-29T08:07:21.058Z</time></trkpt><trkpt lat="43.18206" lon="-8.4790893"><ele>383.0</ele><time>2026-03-29T08:07:22.057Z</time></trkpt><trkpt lat="43.18188" lon="-8.4790561"><ele>383.0</ele><time>2026-03-29T08:07:23.057Z</time></trkpt><trkpt lat="43.1817098" lon="-8.4790095"><ele>383.0</ele><time>2026-03-29T08:07:24.057Z</time></trkpt><trkpt lat="43.1815388" lon="-8.47892"><ele>383.0</ele><time>2026-03-29T08:07:25.058Z</time></trkpt><trkpt lat="43.1813681" lon="-8.4786163"><ele>379.0</ele><time>2026-03-29T08:07:26.058Z</time></trkpt><trkpt lat="43.1811909" lon="-8.4784284"><ele>375.0</ele><time>2026-03-29T08:07:27.057Z</time></trkpt><trkpt lat="43.1810111" lon="-8.478284"><ele>371.0</ele><time>2026-03-29T08:07:28.058Z</time></trkpt><trkpt lat="43.1808392" lon="-8.4782289"><ele>369.6666666666667</ele><time>2026-03-29T08:07:29.058Z</time></trkpt><trkpt lat="43.1806615" lon="-8.4782433"><ele>368.3333333333333</ele><time>2026-03-29T08:07:30.057Z</time></trkpt><trkpt lat="43.1804773" lon="-8.4783052"><ele>367.0</ele><time>2026-03-29T08:07:31.057Z</time></trkpt><trkpt lat="43.1802899" lon="-8.4784026"><ele>367.0</ele><time>2026-03-29T08:07:32.057Z</time></trkpt><trkpt lat="43.1800866" lon="-8.4785119"><ele>367.0</ele><time>2026-03-29T08:07:33.057Z</time></trkpt><trkpt lat="43.1798671" lon="-8.4786229"><ele>368.0</ele><time>2026-03-29T08:07:34.057Z</time></trkpt><trkpt lat="43.1796484" lon="-8.4787428"><ele>369.0</ele><time>2026-03-29T08:07:35.057Z</time></trkpt><trkpt lat="43.1794266" lon="-8.4788598"><ele>369.0</ele><time>2026-03-29T08:07:36.057Z</time></trkpt><trkpt lat="43.1792117" lon="-8.4789821"><ele>369.0</ele><time>2026-03-29T08:07:37.057Z</time></trkpt><trkpt lat="43.1789946" lon="-8.4790959"><ele>366.0</ele><time>2026-03-29T08:07:38.057Z</time></trkpt><trkpt lat="43.1787717" lon="-8.4791998"><ele>363.0</ele><time>2026-03-29T08:07:39.058Z</time></trkpt><trkpt lat="43.1785449" lon="-8.4792946"><ele>363.0</ele><time>2026-03-29T08:07:40.057Z</time></trkpt><trkpt lat="43.1783141" lon="-8.4793821"><ele>363.0</ele><time>2026-03-29T08:07:41.058Z</time></trkpt><trkpt lat="43.1780842" lon="-8.4794672"><ele>362.0</ele><time>2026-03-29T08:07:42.058Z</time></trkpt><trkpt lat="43.1778497" lon="-8.479551"><ele>361.0</ele><time>2026-03-29T08:07:43.058Z</time></trkpt><trkpt lat="43.1776174" lon="-8.4796372"><ele>363.0</ele><time>2026-03-29T08:07:44.057Z</time></trkpt><trkpt lat="43.1773836" lon="-8.4797143"><ele>365.0</ele><time>2026-03-29T08:07:45.058Z</time></trkpt><trkpt lat="43.1771483" lon="-8.4797937"><ele>366.0</ele><time>2026-03-29T08:07:46.057Z</time></trkpt><trkpt lat="43.1769198" lon="-8.4798724"><ele>367.0</ele><time>2026-03-29T08:07:47.058Z</time></trkpt><trkpt lat="43.1766924" lon="-8.4799531"><ele>367.5</ele><time>2026-03-29T08:07:48.058Z</time></trkpt><trkpt lat="43.1764665" lon="-8.4800325"><ele>368.0</ele><time>2026-03-29T08:07:49.058Z</time></trkpt><trkpt lat="43.1762459" lon="-8.4801091"><ele>368.0</ele><time>2026-03-29T08:07:50.058Z</time></trkpt><trkpt lat="43.1760222" lon="-8.4801791"><ele>368.0</ele><time>2026-03-29T08:07:51.058Z</time></trkpt><trkpt lat="43.1758085" lon="-8.4802419"><ele>368.0</ele><time>2026-03-29T08:07:52.057Z</time></trkpt><trkpt lat="43.1756058" lon="-8.4802946"><ele>367.0</ele><time>2026-03-29T08:07:53.057Z</time></trkpt><trkpt lat="43.1754105" lon="-8.4803389"><ele>366.0</ele><time>2026-03-29T08:07:54.057Z</time></trkpt><trkpt lat="43.175225" lon="-8.4803794"><ele>365.0</ele><time>2026-03-29T08:07:55.058Z</time></trkpt><trkpt lat="43.1750381" lon="-8.4804206"><ele>365.33333333333337</ele><time>2026-03-29T08:07:56.057Z</time></trkpt><trkpt lat="43.1748506" lon="-8.4804673"><ele>365.6666666666667</ele><time>2026-03-29T08:07:57.058Z</time></trkpt><trkpt lat="43.1746617" lon="-8.4805165"><ele>366.0</ele><time>2026-03-29T08:07:58.057Z</time></trkpt><trkpt lat="43.1744723" lon="-8.4805597"><ele>366.0</ele><time>2026-03-29T08:07:59.057Z</time></trkpt><trkpt lat="43.1742845" lon="-8.480599"><ele>366.0</ele><time>2026-03-29T08:08:00.057Z</time></trkpt><trkpt lat="43.1740975" lon="-8.4806443"><ele>366.0</ele><time>2026-03-29T08:08:01.057Z</time></trkpt><trkpt lat="43.1739089" lon="-8.48069"><ele>364.6666666666667</ele><time>2026-03-29T08:08:02.057Z</time></trkpt><trkpt lat="43.1737211" lon="-8.4807318"><ele>363.33333333333337</ele><time>2026-03-29T08:08:03.057Z</time></trkpt><trkpt lat="43.1735303" lon="-8.4807787"><ele>362.0</ele><time>2026-03-29T08:08:04.058Z</time></trkpt><trkpt lat="43.1733412" lon="-8.4808234"><ele>361.0</ele><time>2026-03-29T08:08:05.057Z</time></trkpt><trkpt lat="43.1731513" lon="-8.480871"><ele>360.0</ele><time>2026-03-29T08:08:06.057Z</time></trkpt><trkpt lat="43.1729629" lon="-8.4809203"><ele>359.0</ele><time>2026-03-29T08:08:07.057Z</time></trkpt><trkpt lat="43.1727767" lon="-8.4809642"><ele>359.0</ele><time>2026-03-29T08:08:08.057Z</time></trkpt><trkpt lat="43.1725913" lon="-8.4810081"><ele>359.0</ele><time>2026-03-29T08:08:09.057Z</time></trkpt><trkpt lat="43.1724081" lon="-8.4810511"><ele>359.0</ele><time>2026-03-29T08:08:10.057Z</time></trkpt><trkpt lat="43.1722294" lon="-8.4810923"><ele>359.6666666666667</ele><time>2026-03-29T08:08:11.057Z</time></trkpt><trkpt lat="43.1720503" lon="-8.4811325"><ele>360.3333333333333</ele><time>2026-03-29T08:08:12.057Z</time></trkpt><trkpt lat="43.1718763" lon="-8.4811774"><ele>361.0</ele><time>2026-03-29T08:08:13.057Z</time></trkpt><trkpt lat="43.1717028" lon="-8.4812231"><ele>361.3333333333333</ele><time>2026-03-29T08:08:14.057Z</time></trkpt><trkpt lat="43.1715281" lon="-8.4812812"><ele>361.6666666666667</ele><time>2026-03-29T08:08:15.058Z</time></trkpt><trkpt lat="43.1713554" lon="-8.4813487"><ele>362.0</ele><time>2026-03-29T08:08:16.057Z</time></trkpt><trkpt lat="43.171189" lon="-8.4814536"><ele>360.33333333333337</ele><time>2026-03-29T08:08:17.057Z</time></trkpt><trkpt lat="43.1710331" lon="-8.4815987"><ele>358.6666666666667</ele><time>2026-03-29T08:08:18.058Z</time></trkpt><trkpt lat="43.170887" lon="-8.4817735"><ele>357.0</ele><time>2026-03-29T08:08:19.057Z</time></trkpt><trkpt lat="43.170749" lon="-8.4819631"><ele>357.6666666666667</ele><time>2026-03-29T08:08:20.058Z</time></trkpt><trkpt lat="43.1706023" lon="-8.4821353"><ele>358.33333333333337</ele><time>2026-03-29T08:08:21.057Z</time></trkpt><trkpt lat="43.1704321" lon="-8.4822583"><ele>359.0</ele><time>2026-03-29T08:08:22.057Z</time></trkpt><trkpt lat="43.1702493" lon="-8.4823189"><ele>359.0</ele><time>2026-03-29T08:08:23.057Z</time></trkpt><trkpt lat="43.1700714" lon="-8.4823918"><ele>359.0</ele><time>2026-03-29T08:08:24.058Z</time></trkpt><trkpt lat="43.1699166" lon="-8.4824315"><ele>359.0</ele><time>2026-03-29T08:08:25.057Z</time></trkpt><trkpt lat="43.1697734" lon="-8.4823849"><ele>360.0</ele><time>2026-03-29T08:08:26.057Z</time></trkpt><trkpt lat="43.169574" lon="-8.4821408"><ele>361.0</ele><time>2026-03-29T08:08:27.057Z</time></trkpt><trkpt lat="43.1693844" lon="-8.48204"><ele>361.0</ele><time>2026-03-29T08:08:28.057Z</time></trkpt><trkpt lat="43.1691869" lon="-8.4820155"><ele>361.0</ele><time>2026-03-29T08:08:29.057Z</time></trkpt><trkpt lat="43.1689836" lon="-8.4820559"><ele>361.0</ele><time>2026-03-29T08:08:30.058Z</time></trkpt><trkpt lat="43.1687796" lon="-8.4821429"><ele>364.5</ele><time>2026-03-29T08:08:31.057Z</time></trkpt><trkpt lat="43.1685649" lon="-8.4822425"><ele>368.0</ele><time>2026-03-29T08:08:32.057Z</time></trkpt><trkpt lat="43.1683456" lon="-8.4823341"><ele>367.5</ele><time>2026-03-29T08:08:33.057Z</time></trkpt><trkpt lat="43.1681259" lon="-8.4824337"><ele>367.0</ele><time>2026-03-29T08:08:34.057Z</time></trkpt><trkpt lat="43.1678988" lon="-8.4825313"><ele>367.0</ele><time>2026-03-29T08:08:35.057Z</time></trkpt><trkpt lat="43.1676695" lon="-8.4826375"><ele>367.0</ele><time>2026-03-29T08:08:36.057Z</time></trkpt><trkpt lat="43.1674389" lon="-8.4827416"><ele>367.5</ele><time>2026-03-29T08:08:37.057Z</time></trkpt><trkpt lat="43.1672089" lon="-8.482848"><ele>368.0</ele><time>2026-03-29T08:08:38.057Z</time></trkpt><trkpt lat="43.1669739" lon="-8.4829507"><ele>370.0</ele><time>2026-03-29T08:08:39.057Z</time></trkpt><trkpt lat="43.1667407" lon="-8.4830396"><ele>372.0</ele><time>2026-03-29T08:08:40.057Z</time></trkpt><trkpt lat="43.1665107" lon="-8.4831165"><ele>374.0</ele><time>2026-03-29T08:08:41.057Z</time></trkpt><trkpt lat="43.1662808" lon="-8.4831742"><ele>376.0</ele><time>2026-03-29T08:08:42.058Z</time></trkpt><trkpt lat="43.1660547" lon="-8.4832167"><ele>376.0</ele><time>2026-03-29T08:08:43.057Z</time></trkpt><trkpt lat="43.1658306" lon="-8.4832471"><ele>376.0</ele><time>2026-03-29T08:08:44.058Z</time></trkpt><trkpt lat="43.165612" lon="-8.4832812"><ele>376.0</ele><time>2026-03-29T08:08:45.057Z</time></trkpt><trkpt lat="43.1653984" lon="-8.4833123"><ele>378.66666666666663</ele><time>2026-03-29T08:08:46.057Z</time></trkpt><trkpt lat="43.1651852" lon="-8.4833424"><ele>381.3333333333333</ele><time>2026-03-29T08:08:47.057Z</time></trkpt><trkpt lat="43.1649914" lon="-8.4833769"><ele>384.0</ele><time>2026-03-29T08:08:48.057Z</time></trkpt><trkpt lat="43.1648049" lon="-8.4834093"><ele>384.66666666666663</ele><time>2026-03-29T08:08:49.057Z</time></trkpt><trkpt lat="43.1646206" lon="-8.4834442"><ele>385.3333333333333</ele><time>2026-03-29T08:08:50.058Z</time></trkpt><trkpt lat="43.1644481" lon="-8.4834764"><ele>386.0</ele><time>2026-03-29T08:08:51.057Z</time></trkpt><trkpt lat="43.1642843" lon="-8.483503"><ele>386.0</ele><time>2026-03-29T08:08:52.058Z</time></trkpt><trkpt lat="43.1641293" lon="-8.4835285"><ele>386.0</ele><time>2026-03-29T08:08:53.057Z</time></trkpt><trkpt lat="43.1639821" lon="-8.4835536"><ele>386.0</ele><time>2026-03-29T08:08:54.058Z</time></trkpt><trkpt lat="43.1638349" lon="-8.4835816"><ele>386.25</ele><time>2026-03-29T08:08:55.058Z</time></trkpt><trkpt lat="43.1636978" lon="-8.4836283"><ele>386.5</ele><time>2026-03-29T08:08:56.057Z</time></trkpt><trkpt lat="43.1635639" lon="-8.4837015"><ele>386.75</ele><time>2026-03-29T08:08:57.057Z</time></trkpt><trkpt lat="43.1634269" lon="-8.4837893"><ele>387.0</ele><time>2026-03-29T08:08:58.057Z</time></trkpt><trkpt lat="43.1632819" lon="-8.4838721"><ele>384.6666666666667</ele><time>2026-03-29T08:08:59.057Z</time></trkpt><trkpt lat="43.1631236" lon="-8.4839484"><ele>382.33333333333337</ele><time>2026-03-29T08:09:00.057Z</time></trkpt><trkpt lat="43.1629552" lon="-8.484012"><ele>380.0</ele><time>2026-03-29T08:09:01.058Z</time></trkpt><trkpt lat="43.1627813" lon="-8.4840633"><ele>380.0</ele><time>2026-03-29T08:09:02.058Z</time></trkpt><trkpt lat="43.1625971" lon="-8.4841044"><ele>380.0</ele><time>2026-03-29T08:09:03.058Z</time></trkpt><trkpt lat="43.1624056" lon="-8.4841452"><ele>380.0</ele><time>2026-03-29T08:09:04.057Z</time></trkpt><trkpt lat="43.1622129" lon="-8.4841821"><ele>379.33333333333337</ele><time>2026-03-29T08:09:05.058Z</time></trkpt><trkpt lat="43.1620125" lon="-8.4842211"><ele>378.6666666666667</ele><time>2026-03-29T08:09:06.057Z</time></trkpt><trkpt lat="43.1618816" lon="-8.4842403"><ele>378.0</ele><time>2026-03-29T08:09:07.218Z</time></trkpt><trkpt lat="43.1616809" lon="-8.4842751"><ele>374.0</ele><time>2026-03-29T08:09:08.169Z</time></trkpt><trkpt lat="43.1611628" lon="-8.4843614"><ele>374.0</ele><time>2026-03-29T08:09:10.056Z</time></trkpt><trkpt lat="43.1609438" lon="-8.4843911"><ele>374.0</ele><time>2026-03-29T08:09:11.061Z</time></trkpt><trkpt lat="43.160723" lon="-8.4844198"><ele>374.0</ele><time>2026-03-29T08:09:12.061Z</time></trkpt><trkpt lat="43.1605075" lon="-8.4844576"><ele>372.6666666666667</ele><time>2026-03-29T08:09:13.063Z</time></trkpt><trkpt lat="43.1602917" lon="-8.4844925"><ele>371.3333333333333</ele><time>2026-03-29T08:09:14.058Z</time></trkpt><trkpt lat="43.1600767" lon="-8.4845373"><ele>370.0</ele><time>2026-03-29T08:09:15.058Z</time></trkpt><trkpt lat="43.1598587" lon="-8.4845738"><ele>369.3333333333333</ele><time>2026-03-29T08:09:16.058Z</time></trkpt><trkpt lat="43.1596415" lon="-8.4846108"><ele>368.6666666666667</ele><time>2026-03-29T08:09:17.058Z</time></trkpt><trkpt lat="43.1594231" lon="-8.484651"><ele>368.0</ele><time>2026-03-29T08:09:18.059Z</time></trkpt><trkpt lat="43.1592022" lon="-8.4846876"><ele>366.33333333333337</ele><time>2026-03-29T08:09:19.059Z</time></trkpt><trkpt lat="43.1589816" lon="-8.4847227"><ele>364.6666666666667</ele><time>2026-03-29T08:09:20.058Z</time></trkpt><trkpt lat="43.1587594" lon="-8.484754"><ele>363.0</ele><time>2026-03-29T08:09:21.058Z</time></trkpt><trkpt lat="43.1585379" lon="-8.4847909"><ele>363.0</ele><time>2026-03-29T08:09:22.058Z</time></trkpt><trkpt lat="43.1583161" lon="-8.4848252"><ele>363.0</ele><time>2026-03-29T08:09:23.058Z</time></trkpt><trkpt lat="43.1580929" lon="-8.484861"><ele>363.0</ele><time>2026-03-29T08:09:24.059Z</time></trkpt><trkpt lat="43.1578713" lon="-8.4848979"><ele>360.6666666666667</ele><time>2026-03-29T08:09:25.059Z</time></trkpt><trkpt lat="43.1576477" lon="-8.4849331"><ele>358.33333333333337</ele><time>2026-03-29T08:09:26.058Z</time></trkpt><trkpt lat="43.157428" lon="-8.4849699"><ele>356.0</ele><time>2026-03-29T08:09:27.059Z</time></trkpt><trkpt lat="43.1572082" lon="-8.4850068"><ele>355.0</ele><time>2026-03-29T08:09:28.059Z</time></trkpt><trkpt lat="43.1569892" lon="-8.4850429"><ele>354.0</ele><time>2026-03-29T08:09:29.058Z</time></trkpt><trkpt lat="43.1567736" lon="-8.4850779"><ele>353.0</ele><time>2026-03-29T08:09:30.059Z</time></trkpt><trkpt lat="43.1565595" lon="-8.4851143"><ele>352.33333333333337</ele><time>2026-03-29T08:09:31.058Z</time></trkpt><trkpt lat="43.1563463" lon="-8.4851523"><ele>351.6666666666667</ele><time>2026-03-29T08:09:32.058Z</time></trkpt><trkpt lat="43.1561307" lon="-8.4851879"><ele>351.0</ele><time>2026-03-29T08:09:33.058Z</time></trkpt><trkpt lat="43.1559143" lon="-8.485221"><ele>351.0</ele><time>2026-03-29T08:09:34.058Z</time></trkpt><trkpt lat="43.155702" lon="-8.4852529"><ele>351.0</ele><time>2026-03-29T08:09:35.058Z</time></trkpt><trkpt lat="43.1554916" lon="-8.4852876"><ele>351.0</ele><time>2026-03-29T08:09:36.058Z</time></trkpt><trkpt lat="43.1552835" lon="-8.4853235"><ele>351.0</ele><time>2026-03-29T08:09:37.058Z</time></trkpt><trkpt lat="43.1550728" lon="-8.4853575"><ele>351.0</ele><time>2026-03-29T08:09:38.058Z</time></trkpt><trkpt lat="43.1548663" lon="-8.4853891"><ele>351.0</ele><time>2026-03-29T08:09:39.058Z</time></trkpt><trkpt lat="43.1546604" lon="-8.4854233"><ele>349.6666666666667</ele><time>2026-03-29T08:09:40.058Z</time></trkpt><trkpt lat="43.1544623" lon="-8.4854559"><ele>348.33333333333337</ele><time>2026-03-29T08:09:41.058Z</time></trkpt><trkpt lat="43.154274" lon="-8.485489"><ele>347.0</ele><time>2026-03-29T08:09:42.058Z</time></trkpt><trkpt lat="43.1540848" lon="-8.4855248"><ele>347.0</ele><time>2026-03-29T08:09:43.058Z</time></trkpt><trkpt lat="43.1539006" lon="-8.4855561"><ele>347.0</ele><time>2026-03-29T08:09:44.059Z</time></trkpt><trkpt lat="43.1537181" lon="-8.485583"><ele>347.0</ele><time>2026-03-29T08:09:45.058Z</time></trkpt><trkpt lat="43.1535355" lon="-8.4856163"><ele>347.0</ele><time>2026-03-29T08:09:46.059Z</time></trkpt><trkpt lat="43.1533569" lon="-8.4856443"><ele>347.0</ele><time>2026-03-29T08:09:47.058Z</time></trkpt><trkpt lat="43.1531858" lon="-8.4856783"><ele>347.0</ele><time>2026-03-29T08:09:48.059Z</time></trkpt><trkpt lat="43.1530178" lon="-8.4857125"><ele>346.6666666666667</ele><time>2026-03-29T08:09:49.058Z</time></trkpt><trkpt lat="43.1528403" lon="-8.4857458"><ele>346.3333333333333</ele><time>2026-03-29T08:09:50.059Z</time></trkpt><trkpt lat="43.1526862" lon="-8.4857697"><ele>346.0</ele><time>2026-03-29T08:09:51.059Z</time></trkpt><trkpt lat="43.1525333" lon="-8.4857965"><ele>346.0</ele><time>2026-03-29T08:09:52.058Z</time></trkpt><trkpt lat="43.1523829" lon="-8.4858263"><ele>346.0</ele><time>2026-03-29T08:09:53.058Z</time></trkpt><trkpt lat="43.1522357" lon="-8.4858598"><ele>346.0</ele><time>2026-03-29T08:09:54.058Z</time></trkpt><trkpt lat="43.1520878" lon="-8.4859023"><ele>345.3333333333333</ele><time>2026-03-29T08:09:55.059Z</time></trkpt><trkpt lat="43.1519375" lon="-8.4859525"><ele>344.6666666666667</ele><time>2026-03-29T08:09:56.058Z</time></trkpt><trkpt lat="43.1517849" lon="-8.4860153"><ele>344.0</ele><time>2026-03-29T08:09:57.058Z</time></trkpt><trkpt lat="43.1516274" lon="-8.4860915"><ele>342.6666666666667</ele><time>2026-03-29T08:09:58.059Z</time></trkpt><trkpt lat="43.1514596" lon="-8.4861621"><ele>341.3333333333333</ele><time>2026-03-29T08:09:59.058Z</time></trkpt><trkpt lat="43.151289" lon="-8.4862463"><ele>340.0</ele><time>2026-03-29T08:10:00.058Z</time></trkpt><trkpt lat="43.1511146" lon="-8.4863292"><ele>339.0</ele><time>2026-03-29T08:10:01.058Z</time></trkpt><trkpt lat="43.1509328" lon="-8.4864113"><ele>338.0</ele><time>2026-03-29T08:10:02.059Z</time></trkpt><trkpt lat="43.1507455" lon="-8.486496"><ele>337.0</ele><time>2026-03-29T08:10:03.058Z</time></trkpt><trkpt lat="43.150554" lon="-8.4865859"><ele>335.3333333333333</ele><time>2026-03-29T08:10:04.059Z</time></trkpt><trkpt lat="43.15036" lon="-8.4866744"><ele>333.6666666666667</ele><time>2026-03-29T08:10:05.059Z</time></trkpt><trkpt lat="43.1501646" lon="-8.4867685"><ele>332.0</ele><time>2026-03-29T08:10:06.058Z</time></trkpt><trkpt lat="43.149967" lon="-8.4868568"><ele>331.33333333333337</ele><time>2026-03-29T08:10:07.058Z</time></trkpt><trkpt lat="43.1497666" lon="-8.4869512"><ele>330.6666666666667</ele><time>2026-03-29T08:10:08.058Z</time></trkpt><trkpt lat="43.1495663" lon="-8.4870413"><ele>330.0</ele><time>2026-03-29T08:10:09.059Z</time></trkpt><trkpt lat="43.149367" lon="-8.4871329"><ele>327.6666666666667</ele><time>2026-03-29T08:10:10.059Z</time></trkpt><trkpt lat="43.1491719" lon="-8.4872262"><ele>325.33333333333337</ele><time>2026-03-29T08:10:11.059Z</time></trkpt><trkpt lat="43.148978" lon="-8.4873156"><ele>323.0</ele><time>2026-03-29T08:10:12.058Z</time></trkpt><trkpt lat="43.1487826" lon="-8.4874049"><ele>323.0</ele><time>2026-03-29T08:10:13.059Z</time></trkpt><trkpt lat="43.1485875" lon="-8.487482"><ele>323.0</ele><time>2026-03-29T08:10:14.059Z</time></trkpt><trkpt lat="43.1483852" lon="-8.4875408"><ele>323.0</ele><time>2026-03-29T08:10:15.058Z</time></trkpt><trkpt lat="43.1481843" lon="-8.4875861"><ele>322.0</ele><time>2026-03-29T08:10:16.058Z</time></trkpt><trkpt lat="43.1479763" lon="-8.4876084"><ele>321.0</ele><time>2026-03-29T08:10:17.059Z</time></trkpt><trkpt lat="43.1477702" lon="-8.4876254"><ele>320.0</ele><time>2026-03-29T08:10:18.058Z</time></trkpt><trkpt lat="43.1475626" lon="-8.4876409"><ele>318.6666666666667</ele><time>2026-03-29T08:10:19.059Z</time></trkpt><trkpt lat="43.1473531" lon="-8.487659"><ele>317.3333333333333</ele><time>2026-03-29T08:10:20.058Z</time></trkpt><trkpt lat="43.1471423" lon="-8.4876714"><ele>316.0</ele><time>2026-03-29T08:10:21.058Z</time></trkpt><trkpt lat="43.1469315" lon="-8.4876872"><ele>316.0</ele><time>2026-03-29T08:10:22.058Z</time></trkpt><trkpt lat="43.1467185" lon="-8.4876991"><ele>316.0</ele><time>2026-03-29T08:10:23.058Z</time></trkpt><trkpt lat="43.1465" lon="-8.4877141"><ele>316.0</ele><time>2026-03-29T08:10:24.058Z</time></trkpt><trkpt lat="43.1462818" lon="-8.4877358"><ele>313.66666666666663</ele><time>2026-03-29T08:10:25.059Z</time></trkpt><trkpt lat="43.1460617" lon="-8.4877581"><ele>311.3333333333333</ele><time>2026-03-29T08:10:26.058Z</time></trkpt><trkpt lat="43.1458397" lon="-8.4877831"><ele>309.0</ele><time>2026-03-29T08:10:27.059Z</time></trkpt><trkpt lat="43.145616" lon="-8.4878161"><ele>307.3333333333333</ele><time>2026-03-29T08:10:28.059Z</time></trkpt><trkpt lat="43.1453935" lon="-8.4878448"><ele>305.66666666666663</ele><time>2026-03-29T08:10:29.059Z</time></trkpt><trkpt lat="43.145173" lon="-8.4878726"><ele>304.0</ele><time>2026-03-29T08:10:30.058Z</time></trkpt><trkpt lat="43.1449545" lon="-8.487901"><ele>303.0</ele><time>2026-03-29T08:10:31.059Z</time></trkpt><trkpt lat="43.1447338" lon="-8.4879311"><ele>302.0</ele><time>2026-03-29T08:10:32.058Z</time></trkpt><trkpt lat="43.144514" lon="-8.4879746"><ele>301.0</ele><time>2026-03-29T08:10:33.059Z</time></trkpt><trkpt lat="43.1442959" lon="-8.4880471"><ele>301.0</ele><time>2026-03-29T08:10:34.059Z</time></trkpt><trkpt lat="43.1440839" lon="-8.4881532"><ele>301.0</ele><time>2026-03-29T08:10:35.058Z</time></trkpt><trkpt lat="43.1438794" lon="-8.4882904"><ele>299.0</ele><time>2026-03-29T08:10:36.058Z</time></trkpt><trkpt lat="43.1436806" lon="-8.4884408"><ele>297.0</ele><time>2026-03-29T08:10:37.058Z</time></trkpt><trkpt lat="43.1434959" lon="-8.4886192"><ele>296.0</ele><time>2026-03-29T08:10:38.059Z</time></trkpt><trkpt lat="43.1433238" lon="-8.4888132"><ele>295.0</ele><time>2026-03-29T08:10:39.059Z</time></trkpt><trkpt lat="43.1431593" lon="-8.489024"><ele>294.0</ele><time>2026-03-29T08:10:40.058Z</time></trkpt><trkpt lat="43.1429913" lon="-8.4892229"><ele>292.3333333333333</ele><time>2026-03-29T08:10:41.058Z</time></trkpt><trkpt lat="43.142807" lon="-8.4893941"><ele>290.66666666666663</ele><time>2026-03-29T08:10:42.058Z</time></trkpt><trkpt lat="43.1426111" lon="-8.4895341"><ele>289.0</ele><time>2026-03-29T08:10:43.058Z</time></trkpt><trkpt lat="43.1424078" lon="-8.4896549"><ele>286.66666666666663</ele><time>2026-03-29T08:10:44.058Z</time></trkpt><trkpt lat="43.1422088" lon="-8.4897784"><ele>284.3333333333333</ele><time>2026-03-29T08:10:45.059Z</time></trkpt><trkpt lat="43.1420124" lon="-8.4898936"><ele>282.0</ele><time>2026-03-29T08:10:46.059Z</time></trkpt><trkpt lat="43.1418154" lon="-8.4899916"><ele>282.0</ele><time>2026-03-29T08:10:47.058Z</time></trkpt><trkpt lat="43.1416171" lon="-8.4900508"><ele>282.0</ele><time>2026-03-29T08:10:48.058Z</time></trkpt><trkpt lat="43.1414136" lon="-8.4900625"><ele>282.0</ele><time>2026-03-29T08:10:49.059Z</time></trkpt><trkpt lat="43.1412105" lon="-8.4900417"><ele>281.3333333333333</ele><time>2026-03-29T08:10:50.059Z</time></trkpt><trkpt lat="43.1410109" lon="-8.4900322"><ele>280.66666666666663</ele><time>2026-03-29T08:10:51.059Z</time></trkpt><trkpt lat="43.140822" lon="-8.4900561"><ele>280.0</ele><time>2026-03-29T08:10:52.059Z</time></trkpt><trkpt lat="43.1406367" lon="-8.4901251"><ele>280.0</ele><time>2026-03-29T08:10:53.058Z</time></trkpt><trkpt lat="43.1404454" lon="-8.4902105"><ele>280.0</ele><time>2026-03-29T08:10:54.058Z</time></trkpt><trkpt lat="43.1402576" lon="-8.4903061"><ele>280.0</ele><time>2026-03-29T08:10:55.059Z</time></trkpt><trkpt lat="43.1400619" lon="-8.4903938"><ele>282.3333333333333</ele><time>2026-03-29T08:10:56.059Z</time></trkpt><trkpt lat="43.1398627" lon="-8.490486"><ele>284.6666666666667</ele><time>2026-03-29T08:10:57.059Z</time></trkpt><trkpt lat="43.1396559" lon="-8.4905799"><ele>287.0</ele><time>2026-03-29T08:10:58.059Z</time></trkpt><trkpt lat="43.1394501" lon="-8.4906719"><ele>287.0</ele><time>2026-03-29T08:10:59.058Z</time></trkpt><trkpt lat="43.1392413" lon="-8.4907724"><ele>287.0</ele><time>2026-03-29T08:11:00.058Z</time></trkpt><trkpt lat="43.1390303" lon="-8.4908786"><ele>287.0</ele><time>2026-03-29T08:11:01.058Z</time></trkpt><trkpt lat="43.1388264" lon="-8.491003"><ele>285.0</ele><time>2026-03-29T08:11:02.058Z</time></trkpt><trkpt lat="43.1386266" lon="-8.4911563"><ele>283.0</ele><time>2026-03-29T08:11:03.059Z</time></trkpt><trkpt lat="43.1384243" lon="-8.4913336"><ele>289.0</ele><time>2026-03-29T08:11:04.059Z</time></trkpt><trkpt lat="43.1382198" lon="-8.4915186"><ele>295.0</ele><time>2026-03-29T08:11:05.058Z</time></trkpt><trkpt lat="43.1380103" lon="-8.4917069"><ele>295.0</ele><time>2026-03-29T08:11:06.058Z</time></trkpt><trkpt lat="43.1378024" lon="-8.4918837"><ele>295.0</ele><time>2026-03-29T08:11:07.059Z</time></trkpt><trkpt lat="43.1375827" lon="-8.4920412"><ele>302.5</ele><time>2026-03-29T08:11:08.058Z</time></trkpt><trkpt lat="43.137363" lon="-8.4921715"><ele>310.0</ele><time>2026-03-29T08:11:09.058Z</time></trkpt><trkpt lat="43.1371331" lon="-8.4922595"><ele>310.0</ele><time>2026-03-29T08:11:10.058Z</time></trkpt><trkpt lat="43.1369054" lon="-8.49235"><ele>310.0</ele><time>2026-03-29T08:11:11.058Z</time></trkpt><trkpt lat="43.1366897" lon="-8.4924676"><ele>307.0</ele><time>2026-03-29T08:11:12.058Z</time></trkpt><trkpt lat="43.1364749" lon="-8.4926042"><ele>304.0</ele><time>2026-03-29T08:11:13.058Z</time></trkpt><trkpt lat="43.1362531" lon="-8.4927443"><ele>304.0</ele><time>2026-03-29T08:11:14.058Z</time></trkpt><trkpt lat="43.1360259" lon="-8.4928953"><ele>304.0</ele><time>2026-03-29T08:11:15.058Z</time></trkpt><trkpt lat="43.1357955" lon="-8.4930454"><ele>306.5</ele><time>2026-03-29T08:11:16.058Z</time></trkpt><trkpt lat="43.1355655" lon="-8.4931926"><ele>309.0</ele><time>2026-03-29T08:11:17.058Z</time></trkpt><trkpt lat="43.1353456" lon="-8.4933318"><ele>309.0</ele><time>2026-03-29T08:11:18.059Z</time></trkpt><trkpt lat="43.135136" lon="-8.4934654"><ele>309.0</ele><time>2026-03-29T08:11:19.059Z</time></trkpt><trkpt lat="43.1349262" lon="-8.4935743"><ele>310.0</ele><time>2026-03-29T08:11:20.058Z</time></trkpt><trkpt lat="43.1347083" lon="-8.4936738"><ele>311.0</ele><time>2026-03-29T08:11:21.059Z</time></trkpt><trkpt lat="43.1344924" lon="-8.4936609"><ele>312.0</ele><time>2026-03-29T08:11:22.059Z</time></trkpt><trkpt lat="43.1342641" lon="-8.493628"><ele>316.0</ele><time>2026-03-29T08:11:23.059Z</time></trkpt><trkpt lat="43.1340402" lon="-8.4935706"><ele>320.0</ele><time>2026-03-29T08:11:24.058Z</time></trkpt><trkpt lat="43.1338199" lon="-8.4935201"><ele>320.0</ele><time>2026-03-29T08:11:25.059Z</time></trkpt><trkpt lat="43.1336001" lon="-8.4935172"><ele>320.0</ele><time>2026-03-29T08:11:26.059Z</time></trkpt><trkpt lat="43.1333789" lon="-8.4935738"><ele>320.0</ele><time>2026-03-29T08:11:27.059Z</time></trkpt><trkpt lat="43.1331478" lon="-8.4936626"><ele>323.0</ele><time>2026-03-29T08:11:28.058Z</time></trkpt><trkpt lat="43.1329065" lon="-8.4937595"><ele>326.0</ele><time>2026-03-29T08:11:29.058Z</time></trkpt><trkpt lat="43.1326614" lon="-8.4938632"><ele>326.0</ele><time>2026-03-29T08:11:30.058Z</time></trkpt><trkpt lat="43.1324114" lon="-8.4939606"><ele>326.0</ele><time>2026-03-29T08:11:31.059Z</time></trkpt><trkpt lat="43.1321764" lon="-8.4940657"><ele>326.5</ele><time>2026-03-29T08:11:32.058Z</time></trkpt><trkpt lat="43.1319443" lon="-8.4941618"><ele>327.0</ele><time>2026-03-29T08:11:33.058Z</time></trkpt><trkpt lat="43.1317104" lon="-8.4942596"><ele>325.5</ele><time>2026-03-29T08:11:34.059Z</time></trkpt><trkpt lat="43.131477" lon="-8.4943554"><ele>324.0</ele><time>2026-03-29T08:11:35.058Z</time></trkpt><trkpt lat="43.1312417" lon="-8.4944523"><ele>324.0</ele><time>2026-03-29T08:11:36.058Z</time></trkpt><trkpt lat="43.1310079" lon="-8.4945481"><ele>324.0</ele><time>2026-03-29T08:11:37.059Z</time></trkpt><trkpt lat="43.1307803" lon="-8.4946436"><ele>323.5</ele><time>2026-03-29T08:11:38.058Z</time></trkpt><trkpt lat="43.1305573" lon="-8.4947361"><ele>323.0</ele><time>2026-03-29T08:11:39.059Z</time></trkpt><trkpt lat="43.1303344" lon="-8.4948285"><ele>323.0</ele><time>2026-03-29T08:11:40.058Z</time></trkpt><trkpt lat="43.1301152" lon="-8.4949201"><ele>323.0</ele><time>2026-03-29T08:11:41.059Z</time></trkpt><trkpt lat="43.1299007" lon="-8.4950171"><ele>322.0</ele><time>2026-03-29T08:11:42.058Z</time></trkpt><trkpt lat="43.1296895" lon="-8.49511"><ele>321.0</ele><time>2026-03-29T08:11:43.058Z</time></trkpt><trkpt lat="43.1294801" lon="-8.4952149"><ele>320.0</ele><time>2026-03-29T08:11:44.058Z</time></trkpt><trkpt lat="43.1292727" lon="-8.4953038"><ele>320.0</ele><time>2026-03-29T08:11:45.059Z</time></trkpt><trkpt lat="43.1290696" lon="-8.4953881"><ele>320.0</ele><time>2026-03-29T08:11:46.059Z</time></trkpt><trkpt lat="43.1288627" lon="-8.4954366"><ele>320.0</ele><time>2026-03-29T08:11:47.058Z</time></trkpt><trkpt lat="43.1286548" lon="-8.4954498"><ele>318.6666666666667</ele><time>2026-03-29T08:11:48.058Z</time></trkpt><trkpt lat="43.1284465" lon="-8.4954312"><ele>317.3333333333333</ele><time>2026-03-29T08:11:49.058Z</time></trkpt><trkpt lat="43.1282401" lon="-8.4954027"><ele>316.0</ele><time>2026-03-29T08:11:50.058Z</time></trkpt><trkpt lat="43.1280436" lon="-8.4953696"><ele>315.0</ele><time>2026-03-29T08:11:51.058Z</time></trkpt><trkpt lat="43.1278545" lon="-8.4953453"><ele>314.0</ele><time>2026-03-29T08:11:52.059Z</time></trkpt><trkpt lat="43.1276683" lon="-8.4953431"><ele>313.0</ele><time>2026-03-29T08:11:53.058Z</time></trkpt><trkpt lat="43.1274856" lon="-8.4954019"><ele>312.0</ele><time>2026-03-29T08:11:54.059Z</time></trkpt><trkpt lat="43.1273102" lon="-8.4955253"><ele>311.0</ele><time>2026-03-29T08:11:55.058Z</time></trkpt><trkpt lat="43.1271356" lon="-8.4956937"><ele>310.0</ele><time>2026-03-29T08:11:56.059Z</time></trkpt><trkpt lat="43.1269551" lon="-8.4958944"><ele>310.0</ele><time>2026-03-29T08:11:57.058Z</time></trkpt><trkpt lat="43.1267758" lon="-8.4961009"><ele>310.0</ele><time>2026-03-29T08:11:58.059Z</time></trkpt><trkpt lat="43.1265888" lon="-8.4963158"><ele>308.5</ele><time>2026-03-29T08:11:59.058Z</time></trkpt><trkpt lat="43.1264083" lon="-8.4965199"><ele>307.0</ele><time>2026-03-29T08:12:00.058Z</time></trkpt><trkpt lat="43.1262366" lon="-8.496715"><ele>307.0</ele><time>2026-03-29T08:12:01.058Z</time></trkpt><trkpt lat="43.1260693" lon="-8.4969063"><ele>307.0</ele><time>2026-03-29T08:12:02.058Z</time></trkpt><trkpt lat="43.1259069" lon="-8.497089"><ele>307.0</ele><time>2026-03-29T08:12:03.058Z</time></trkpt><trkpt lat="43.1257407" lon="-8.4972595"><ele>306.66666666666663</ele><time>2026-03-29T08:12:04.059Z</time></trkpt><trkpt lat="43.1255645" lon="-8.4974007"><ele>306.3333333333333</ele><time>2026-03-29T08:12:05.059Z</time></trkpt><trkpt lat="43.1253773" lon="-8.4975093"><ele>306.0</ele><time>2026-03-29T08:12:06.058Z</time></trkpt><trkpt lat="43.1251811" lon="-8.4975952"><ele>306.0</ele><time>2026-03-29T08:12:07.058Z</time></trkpt><trkpt lat="43.1249839" lon="-8.497671"><ele>306.0</ele><time>2026-03-29T08:12:08.058Z</time></trkpt><trkpt lat="43.1247919" lon="-8.4977311"><ele>306.0</ele><time>2026-03-29T08:12:09.059Z</time></trkpt><trkpt lat="43.1246052" lon="-8.497771"><ele>305.3333333333333</ele><time>2026-03-29T08:12:10.059Z</time></trkpt><trkpt lat="43.1244112" lon="-8.4977745"><ele>304.66666666666663</ele><time>2026-03-29T08:12:11.058Z</time></trkpt><trkpt lat="43.1242383" lon="-8.4977456"><ele>304.0</ele><time>2026-03-29T08:12:12.058Z</time></trkpt><trkpt lat="43.1240496" lon="-8.4976934"><ele>302.3333333333333</ele><time>2026-03-29T08:12:13.058Z</time></trkpt><trkpt lat="43.123877" lon="-8.4975708"><ele>300.6666666666667</ele><time>2026-03-29T08:12:14.058Z</time></trkpt><trkpt lat="43.1237143" lon="-8.4974511"><ele>299.0</ele><time>2026-03-29T08:12:15.058Z</time></trkpt><trkpt lat="43.123566" lon="-8.4973134"><ele>299.0</ele><time>2026-03-29T08:12:16.058Z</time></trkpt><trkpt lat="43.1234224" lon="-8.4971798"><ele>299.0</ele><time>2026-03-29T08:12:17.058Z</time></trkpt><trkpt lat="43.1232723" lon="-8.4970806"><ele>299.0</ele><time>2026-03-29T08:12:18.058Z</time></trkpt><trkpt lat="43.12311" lon="-8.4970341"><ele>298.0</ele><time>2026-03-29T08:12:19.059Z</time></trkpt><trkpt lat="43.1229422" lon="-8.4970193"><ele>297.0</ele><time>2026-03-29T08:12:20.058Z</time></trkpt><trkpt lat="43.1227722" lon="-8.4970168"><ele>296.0</ele><time>2026-03-29T08:12:21.059Z</time></trkpt><trkpt lat="43.1226125" lon="-8.4970399"><ele>296.0</ele><time>2026-03-29T08:12:22.059Z</time></trkpt><trkpt lat="43.1224581" lon="-8.4970503"><ele>296.0</ele><time>2026-03-29T08:12:23.058Z</time></trkpt><trkpt lat="43.1223047" lon="-8.4970411"><ele>296.0</ele><time>2026-03-29T08:12:24.059Z</time></trkpt><trkpt lat="43.1221625" lon="-8.4970072"><ele>296.25</ele><time>2026-03-29T08:12:25.058Z</time></trkpt><trkpt lat="43.1220289" lon="-8.4969458"><ele>296.5</ele><time>2026-03-29T08:12:26.058Z</time></trkpt><trkpt lat="43.1218985" lon="-8.4968674"><ele>296.75</ele><time>2026-03-29T08:12:27.059Z</time></trkpt><trkpt lat="43.1217877" lon="-8.4967746"><ele>297.0</ele><time>2026-03-29T08:12:28.058Z</time></trkpt><trkpt lat="43.1216881" lon="-8.4966734"><ele>297.0</ele><time>2026-03-29T08:12:29.059Z</time></trkpt><trkpt lat="43.1215931" lon="-8.4965768"><ele>297.0</ele><time>2026-03-29T08:12:30.058Z</time></trkpt><trkpt lat="43.1214954" lon="-8.4965129"><ele>297.0</ele><time>2026-03-29T08:12:31.058Z</time></trkpt><trkpt lat="43.1214112" lon="-8.4964751"><ele>297.0</ele><time>2026-03-29T08:12:32.058Z</time></trkpt><trkpt lat="43.1213379" lon="-8.4964684"><ele>297.0</ele><time>2026-03-29T08:12:33.059Z</time></trkpt><trkpt lat="43.121245" lon="-8.4964841"><ele>296.5</ele><time>2026-03-29T08:12:35.058Z</time></trkpt><trkpt lat="43.1212045" lon="-8.4966068"><ele>296.0</ele><time>2026-03-29T08:12:52.058Z</time></trkpt><trkpt lat="43.1212248" lon="-8.4967329"><ele>295.5</ele><time>2026-03-29T08:12:53.058Z</time></trkpt><trkpt lat="43.1212595" lon="-8.4968926"><ele>295.0</ele><time>2026-03-29T08:12:54.058Z</time></trkpt><trkpt lat="43.1212962" lon="-8.497074"><ele>293.66666666666663</ele><time>2026-03-29T08:12:55.058Z</time></trkpt><trkpt lat="43.1213374" lon="-8.4972661"><ele>292.3333333333333</ele><time>2026-03-29T08:12:56.058Z</time></trkpt><trkpt lat="43.1213789" lon="-8.4974701"><ele>291.0</ele><time>2026-03-29T08:12:57.058Z</time></trkpt><trkpt lat="43.1214253" lon="-8.4976776"><ele>291.0</ele><time>2026-03-29T08:12:58.059Z</time></trkpt><trkpt lat="43.1214728" lon="-8.4978867"><ele>291.0</ele><time>2026-03-29T08:12:59.058Z</time></trkpt><trkpt lat="43.1215156" lon="-8.4980958"><ele>291.0</ele><time>2026-03-29T08:13:00.058Z</time></trkpt><trkpt lat="43.1215559" lon="-8.4983056"><ele>290.0</ele><time>2026-03-29T08:13:01.059Z</time></trkpt><trkpt lat="43.1215993" lon="-8.4985209"><ele>289.0</ele><time>2026-03-29T08:13:02.058Z</time></trkpt><trkpt lat="43.1216454" lon="-8.4987401"><ele>288.0</ele><time>2026-03-29T08:13:03.059Z</time></trkpt><trkpt lat="43.1216966" lon="-8.4989635"><ele>287.3333333333333</ele><time>2026-03-29T08:13:04.058Z</time></trkpt><trkpt lat="43.1217419" lon="-8.499179"><ele>286.66666666666663</ele><time>2026-03-29T08:13:05.059Z</time></trkpt><trkpt lat="43.1217882" lon="-8.4994075"><ele>286.0</ele><time>2026-03-29T08:13:06.058Z</time></trkpt><trkpt lat="43.1218343" lon="-8.4996375"><ele>286.0</ele><time>2026-03-29T08:13:07.058Z</time></trkpt><trkpt lat="43.1218799" lon="-8.4998842"><ele>286.0</ele><time>2026-03-29T08:13:08.058Z</time></trkpt><trkpt lat="43.1219246" lon="-8.5001205"><ele>286.0</ele><time>2026-03-29T08:13:09.059Z</time></trkpt><trkpt lat="43.1219785" lon="-8.5003538"><ele>287.0</ele><time>2026-03-29T08:13:10.058Z</time></trkpt><trkpt lat="43.12203" lon="-8.5005827"><ele>288.0</ele><time>2026-03-29T08:13:11.058Z</time></trkpt><trkpt lat="43.1220791" lon="-8.5008179"><ele>289.0</ele><time>2026-03-29T08:13:12.058Z</time></trkpt><trkpt lat="43.1221259" lon="-8.5010488"><ele>290.3333333333333</ele><time>2026-03-29T08:13:13.059Z</time></trkpt><trkpt lat="43.1221773" lon="-8.5012835"><ele>291.6666666666667</ele><time>2026-03-29T08:13:14.058Z</time></trkpt><trkpt lat="43.1222298" lon="-8.5015215"><ele>293.0</ele><time>2026-03-29T08:13:15.058Z</time></trkpt><trkpt lat="43.1222931" lon="-8.5017559"><ele>293.0</ele><time>2026-03-29T08:13:16.058Z</time></trkpt><trkpt lat="43.1223665" lon="-8.5019815"><ele>293.0</ele><time>2026-03-29T08:13:17.059Z</time></trkpt><trkpt lat="43.1224572" lon="-8.5022008"><ele>293.0</ele><time>2026-03-29T08:13:18.059Z</time></trkpt><trkpt lat="43.1225568" lon="-8.5024126"><ele>293.6666666666667</ele><time>2026-03-29T08:13:19.059Z</time></trkpt><trkpt lat="43.1226656" lon="-8.5026219"><ele>294.3333333333333</ele><time>2026-03-29T08:13:20.059Z</time></trkpt><trkpt lat="43.1227768" lon="-8.5028344"><ele>295.0</ele><time>2026-03-29T08:13:21.059Z</time></trkpt><trkpt lat="43.122883" lon="-8.5030486"><ele>297.0</ele><time>2026-03-29T08:13:22.059Z</time></trkpt><trkpt lat="43.1229829" lon="-8.5032804"><ele>299.0</ele><time>2026-03-29T08:13:23.059Z</time></trkpt><trkpt lat="43.1230654" lon="-8.5035159"><ele>301.0</ele><time>2026-03-29T08:13:24.059Z</time></trkpt><trkpt lat="43.1231262" lon="-8.5037607"><ele>303.66666666666663</ele><time>2026-03-29T08:13:25.059Z</time></trkpt><trkpt lat="43.1231721" lon="-8.5040189"><ele>306.3333333333333</ele><time>2026-03-29T08:13:26.059Z</time></trkpt><trkpt lat="43.1231958" lon="-8.5042792"><ele>309.0</ele><time>2026-03-29T08:13:27.058Z</time></trkpt><trkpt lat="43.1232032" lon="-8.504545"><ele>308.6666666666667</ele><time>2026-03-29T08:13:28.058Z</time></trkpt><trkpt lat="43.1231963" lon="-8.5048105"><ele>308.33333333333337</ele><time>2026-03-29T08:13:29.058Z</time></trkpt><trkpt lat="43.1231801" lon="-8.5050824"><ele>308.0</ele><time>2026-03-29T08:13:30.059Z</time></trkpt><trkpt lat="43.1231593" lon="-8.5053619"><ele>307.33333333333337</ele><time>2026-03-29T08:13:31.058Z</time></trkpt><trkpt lat="43.1231413" lon="-8.5056489"><ele>306.6666666666667</ele><time>2026-03-29T08:13:32.059Z</time></trkpt><trkpt lat="43.123122" lon="-8.5059441"><ele>306.0</ele><time>2026-03-29T08:13:33.058Z</time></trkpt><trkpt lat="43.1231027" lon="-8.5062406"><ele>307.0</ele><time>2026-03-29T08:13:34.058Z</time></trkpt><trkpt lat="43.1230824" lon="-8.5065419"><ele>308.0</ele><time>2026-03-29T08:13:35.059Z</time></trkpt><trkpt lat="43.1230595" lon="-8.5068389"><ele>309.0</ele><time>2026-03-29T08:13:36.058Z</time></trkpt><trkpt lat="43.1230371" lon="-8.5071416"><ele>310.0</ele><time>2026-03-29T08:13:37.058Z</time></trkpt><trkpt lat="43.1230153" lon="-8.5074506"><ele>311.0</ele><time>2026-03-29T08:13:38.059Z</time></trkpt><trkpt lat="43.1229929" lon="-8.50776"><ele>312.0</ele><time>2026-03-29T08:13:39.058Z</time></trkpt><trkpt lat="43.1229704" lon="-8.5080689"><ele>313.0</ele><time>2026-03-29T08:13:40.058Z</time></trkpt><trkpt lat="43.1229532" lon="-8.5083717"><ele>314.0</ele><time>2026-03-29T08:13:41.058Z</time></trkpt><trkpt lat="43.1229365" lon="-8.50867"><ele>315.0</ele><time>2026-03-29T08:13:42.058Z</time></trkpt><trkpt lat="43.1229248" lon="-8.5089644"><ele>316.0</ele><time>2026-03-29T08:13:43.059Z</time></trkpt><trkpt lat="43.1229438" lon="-8.5092519"><ele>317.0</ele><time>2026-03-29T08:13:44.058Z</time></trkpt><trkpt lat="43.1229976" lon="-8.5095254"><ele>317.6666666666667</ele><time>2026-03-29T08:13:45.058Z</time></trkpt><trkpt lat="43.1230831" lon="-8.5097812"><ele>318.3333333333333</ele><time>2026-03-29T08:13:46.058Z</time></trkpt><trkpt lat="43.1231872" lon="-8.5100255"><ele>319.0</ele><time>2026-03-29T08:13:47.059Z</time></trkpt><trkpt lat="43.1233012" lon="-8.5102565"><ele>321.0</ele><time>2026-03-29T08:13:48.058Z</time></trkpt><trkpt lat="43.1234191" lon="-8.5104847"><ele>323.0</ele><time>2026-03-29T08:13:49.058Z</time></trkpt><trkpt lat="43.1235328" lon="-8.510714"><ele>325.0</ele><time>2026-03-29T08:13:50.059Z</time></trkpt><trkpt lat="43.1236293" lon="-8.5109626"><ele>325.0</ele><time>2026-03-29T08:13:51.058Z</time></trkpt><trkpt lat="43.1237151" lon="-8.5112195"><ele>325.0</ele><time>2026-03-29T08:13:52.058Z</time></trkpt><trkpt lat="43.1237991" lon="-8.5114805"><ele>325.0</ele><time>2026-03-29T08:13:53.059Z</time></trkpt><trkpt lat="43.1238806" lon="-8.51176"><ele>324.0</ele><time>2026-03-29T08:13:54.058Z</time></trkpt><trkpt lat="43.1239551" lon="-8.512048"><ele>323.0</ele><time>2026-03-29T08:13:55.059Z</time></trkpt><trkpt lat="43.1240278" lon="-8.5123371"><ele>322.0</ele><time>2026-03-29T08:13:56.059Z</time></trkpt><trkpt lat="43.1240982" lon="-8.5126308"><ele>324.3333333333333</ele><time>2026-03-29T08:13:57.058Z</time></trkpt><trkpt lat="43.1241688" lon="-8.5129211"><ele>326.6666666666667</ele><time>2026-03-29T08:13:58.058Z</time></trkpt><trkpt lat="43.1242363" lon="-8.5132123"><ele>329.0</ele><time>2026-03-29T08:13:59.058Z</time></trkpt><trkpt lat="43.1242896" lon="-8.5135108"><ele>329.6666666666667</ele><time>2026-03-29T08:14:00.058Z</time></trkpt><trkpt lat="43.1243348" lon="-8.5138056"><ele>330.3333333333333</ele><time>2026-03-29T08:14:01.058Z</time></trkpt><trkpt lat="43.124343" lon="-8.5141135"><ele>331.0</ele><time>2026-03-29T08:14:02.058Z</time></trkpt><trkpt lat="43.1243357" lon="-8.5144257"><ele>332.5</ele><time>2026-03-29T08:14:03.058Z</time></trkpt><trkpt lat="43.1243048" lon="-8.5147389"><ele>334.0</ele><time>2026-03-29T08:14:04.058Z</time></trkpt><trkpt lat="43.1242492" lon="-8.5150466"><ele>334.0</ele><time>2026-03-29T08:14:05.058Z</time></trkpt><trkpt lat="43.1241779" lon="-8.5153519"><ele>334.0</ele><time>2026-03-29T08:14:06.058Z</time></trkpt><trkpt lat="43.1240942" lon="-8.5156451"><ele>331.5</ele><time>2026-03-29T08:14:07.059Z</time></trkpt><trkpt lat="43.1240048" lon="-8.5159398"><ele>329.0</ele><time>2026-03-29T08:14:08.059Z</time></trkpt><trkpt lat="43.1239165" lon="-8.5162343"><ele>331.0</ele><time>2026-03-29T08:14:09.059Z</time></trkpt><trkpt lat="43.1238387" lon="-8.5165346"><ele>333.0</ele><time>2026-03-29T08:14:10.058Z</time></trkpt><trkpt lat="43.1237746" lon="-8.516839"><ele>334.5</ele><time>2026-03-29T08:14:11.058Z</time></trkpt><trkpt lat="43.1237256" lon="-8.5171478"><ele>336.0</ele><time>2026-03-29T08:14:12.058Z</time></trkpt><trkpt lat="43.1236948" lon="-8.5174586"><ele>336.0</ele><time>2026-03-29T08:14:13.059Z</time></trkpt><trkpt lat="43.1236808" lon="-8.5177777"><ele>336.0</ele><time>2026-03-29T08:14:14.059Z</time></trkpt><trkpt lat="43.1236842" lon="-8.5180946"><ele>337.5</ele><time>2026-03-29T08:14:15.058Z</time></trkpt><trkpt lat="43.1237043" lon="-8.5184063"><ele>339.0</ele><time>2026-03-29T08:14:16.058Z</time></trkpt><trkpt lat="43.1237441" lon="-8.5187171"><ele>342.0</ele><time>2026-03-29T08:14:17.058Z</time></trkpt><trkpt lat="43.123797" lon="-8.5190231"><ele>345.0</ele><time>2026-03-29T08:14:18.058Z</time></trkpt><trkpt lat="43.1238699" lon="-8.5193234"><ele>346.0</ele><time>2026-03-29T08:14:19.059Z</time></trkpt><trkpt lat="43.1239583" lon="-8.5196083"><ele>347.0</ele><time>2026-03-29T08:14:20.058Z</time></trkpt><trkpt lat="43.1240615" lon="-8.5198886"><ele>347.5</ele><time>2026-03-29T08:14:21.058Z</time></trkpt><trkpt lat="43.1241758" lon="-8.5201592"><ele>348.0</ele><time>2026-03-29T08:14:22.058Z</time></trkpt><trkpt lat="43.1242999" lon="-8.5204278"><ele>348.0</ele><time>2026-03-29T08:14:23.058Z</time></trkpt><trkpt lat="43.1244285" lon="-8.5206982"><ele>348.0</ele><time>2026-03-29T08:14:24.058Z</time></trkpt><trkpt lat="43.1245562" lon="-8.5209683"><ele>348.0</ele><time>2026-03-29T08:14:25.059Z</time></trkpt><trkpt lat="43.1246878" lon="-8.5212401"><ele>348.0</ele><time>2026-03-29T08:14:26.058Z</time></trkpt><trkpt lat="43.1248192" lon="-8.5215128"><ele>349.0</ele><time>2026-03-29T08:14:27.058Z</time></trkpt><trkpt lat="43.1249525" lon="-8.5217834"><ele>350.0</ele><time>2026-03-29T08:14:28.058Z</time></trkpt><trkpt lat="43.1250862" lon="-8.5220594"><ele>350.0</ele><time>2026-03-29T08:14:29.058Z</time></trkpt><trkpt lat="43.1252206" lon="-8.522335"><ele>350.0</ele><time>2026-03-29T08:14:30.058Z</time></trkpt><trkpt lat="43.1253523" lon="-8.5226128"><ele>350.0</ele><time>2026-03-29T08:14:31.059Z</time></trkpt><trkpt lat="43.125487" lon="-8.5228886"><ele>350.0</ele><time>2026-03-29T08:14:32.058Z</time></trkpt><trkpt lat="43.1256191" lon="-8.5231614"><ele>351.0</ele><time>2026-03-29T08:14:33.059Z</time></trkpt><trkpt lat="43.1257529" lon="-8.5234345"><ele>352.0</ele><time>2026-03-29T08:14:34.058Z</time></trkpt><trkpt lat="43.125886" lon="-8.5237089"><ele>352.5</ele><time>2026-03-29T08:14:35.059Z</time></trkpt><trkpt lat="43.1260207" lon="-8.5239844"><ele>353.0</ele><time>2026-03-29T08:14:36.058Z</time></trkpt><trkpt lat="43.1261507" lon="-8.5242604"><ele>353.0</ele><time>2026-03-29T08:14:37.058Z</time></trkpt><trkpt lat="43.1262829" lon="-8.5245315"><ele>353.0</ele><time>2026-03-29T08:14:38.059Z</time></trkpt><trkpt lat="43.1264163" lon="-8.5248029"><ele>353.0</ele><time>2026-03-29T08:14:39.059Z</time></trkpt><trkpt lat="43.1265441" lon="-8.5250776"><ele>353.0</ele><time>2026-03-29T08:14:40.059Z</time></trkpt><trkpt lat="43.1266764" lon="-8.5253471"><ele>354.5</ele><time>2026-03-29T08:14:41.058Z</time></trkpt><trkpt lat="43.1268088" lon="-8.5256195"><ele>356.0</ele><time>2026-03-29T08:14:42.059Z</time></trkpt><trkpt lat="43.1269427" lon="-8.525895"><ele>356.0</ele><time>2026-03-29T08:14:43.058Z</time></trkpt><trkpt lat="43.1270759" lon="-8.5261715"><ele>356.0</ele><time>2026-03-29T08:14:44.058Z</time></trkpt><trkpt lat="43.1272065" lon="-8.5264516"><ele>354.5</ele><time>2026-03-29T08:14:45.058Z</time></trkpt><trkpt lat="43.1273404" lon="-8.5267285"><ele>353.0</ele><time>2026-03-29T08:14:46.058Z</time></trkpt><trkpt lat="43.1274726" lon="-8.5270014"><ele>357.0</ele><time>2026-03-29T08:14:47.058Z</time></trkpt><trkpt lat="43.1276064" lon="-8.5272723"><ele>361.0</ele><time>2026-03-29T08:14:48.058Z</time></trkpt><trkpt lat="43.1277376" lon="-8.527539"><ele>361.0</ele><time>2026-03-29T08:14:49.058Z</time></trkpt><trkpt lat="43.1278708" lon="-8.5278072"><ele>361.0</ele><time>2026-03-29T08:14:50.058Z</time></trkpt><trkpt lat="43.1280051" lon="-8.5280787"><ele>361.0</ele><time>2026-03-29T08:14:51.059Z</time></trkpt><trkpt lat="43.1281374" lon="-8.5283459"><ele>361.0</ele><time>2026-03-29T08:14:52.058Z</time></trkpt><trkpt lat="43.1282706" lon="-8.5286119"><ele>364.5</ele><time>2026-03-29T08:14:53.059Z</time></trkpt><trkpt lat="43.1283991" lon="-8.5288758"><ele>368.0</ele><time>2026-03-29T08:14:54.058Z</time></trkpt><trkpt lat="43.1285264" lon="-8.529142"><ele>368.0</ele><time>2026-03-29T08:14:55.059Z</time></trkpt><trkpt lat="43.1286532" lon="-8.5294101"><ele>368.0</ele><time>2026-03-29T08:14:56.059Z</time></trkpt><trkpt lat="43.1287804" lon="-8.5296657"><ele>370.0</ele><time>2026-03-29T08:14:57.058Z</time></trkpt><trkpt lat="43.1289067" lon="-8.529929"><ele>372.0</ele><time>2026-03-29T08:14:58.059Z</time></trkpt><trkpt lat="43.1290343" lon="-8.5301814"><ele>371.3333333333333</ele><time>2026-03-29T08:14:59.058Z</time></trkpt><trkpt lat="43.129154" lon="-8.5304277"><ele>370.66666666666663</ele><time>2026-03-29T08:15:00.058Z</time></trkpt><trkpt lat="43.1292733" lon="-8.5306728"><ele>370.0</ele><time>2026-03-29T08:15:01.058Z</time></trkpt><trkpt lat="43.1293889" lon="-8.5309164"><ele>370.0</ele><time>2026-03-29T08:15:02.058Z</time></trkpt><trkpt lat="43.1295037" lon="-8.5311571"><ele>370.0</ele><time>2026-03-29T08:15:03.058Z</time></trkpt><trkpt lat="43.1296149" lon="-8.5313989"><ele>370.0</ele><time>2026-03-29T08:15:04.059Z</time></trkpt><trkpt lat="43.1297237" lon="-8.5316421"><ele>369.66666666666663</ele><time>2026-03-29T08:15:05.059Z</time></trkpt><trkpt lat="43.1298353" lon="-8.5318854"><ele>369.3333333333333</ele><time>2026-03-29T08:15:06.059Z</time></trkpt><trkpt lat="43.1299448" lon="-8.5321358"><ele>369.0</ele><time>2026-03-29T08:15:07.058Z</time></trkpt><trkpt lat="43.1300511" lon="-8.5323869"><ele>366.3333333333333</ele><time>2026-03-29T08:15:08.059Z</time></trkpt><trkpt lat="43.1301541" lon="-8.5326391"><ele>363.66666666666663</ele><time>2026-03-29T08:15:09.058Z</time></trkpt><trkpt lat="43.1302585" lon="-8.5328912"><ele>361.0</ele><time>2026-03-29T08:15:10.058Z</time></trkpt><trkpt lat="43.1303602" lon="-8.533138"><ele>360.3333333333333</ele><time>2026-03-29T08:15:11.058Z</time></trkpt><trkpt lat="43.1304623" lon="-8.5333864"><ele>359.6666666666667</ele><time>2026-03-29T08:15:12.058Z</time></trkpt><trkpt lat="43.1305551" lon="-8.5336107"><ele>359.0</ele><time>2026-03-29T08:15:13.058Z</time></trkpt><trkpt lat="43.1306468" lon="-8.5338349"><ele>358.6666666666667</ele><time>2026-03-29T08:15:14.058Z</time></trkpt><trkpt lat="43.1307355" lon="-8.5340521"><ele>358.3333333333333</ele><time>2026-03-29T08:15:15.059Z</time></trkpt><trkpt lat="43.1308211" lon="-8.5342713"><ele>358.0</ele><time>2026-03-29T08:15:16.058Z</time></trkpt><trkpt lat="43.1309083" lon="-8.5344857"><ele>357.3333333333333</ele><time>2026-03-29T08:15:17.058Z</time></trkpt><trkpt lat="43.1309944" lon="-8.5347071"><ele>356.6666666666667</ele><time>2026-03-29T08:15:18.058Z</time></trkpt><trkpt lat="43.1310807" lon="-8.5349272"><ele>356.0</ele><time>2026-03-29T08:15:19.059Z</time></trkpt><trkpt lat="43.1311666" lon="-8.5351446"><ele>356.0</ele><time>2026-03-29T08:15:20.058Z</time></trkpt><trkpt lat="43.1312536" lon="-8.5353584"><ele>356.0</ele><time>2026-03-29T08:15:21.058Z</time></trkpt><trkpt lat="43.131339" lon="-8.5355702"><ele>356.0</ele><time>2026-03-29T08:15:22.058Z</time></trkpt><trkpt lat="43.1314243" lon="-8.5357732"><ele>356.6666666666667</ele><time>2026-03-29T08:15:23.058Z</time></trkpt><trkpt lat="43.131506" lon="-8.5359768"><ele>357.3333333333333</ele><time>2026-03-29T08:15:24.058Z</time></trkpt><trkpt lat="43.131587" lon="-8.5361682"><ele>358.0</ele><time>2026-03-29T08:15:25.059Z</time></trkpt><trkpt lat="43.1316617" lon="-8.5363573"><ele>358.75</ele><time>2026-03-29T08:15:26.058Z</time></trkpt><trkpt lat="43.131734" lon="-8.5365421"><ele>359.5</ele><time>2026-03-29T08:15:27.058Z</time></trkpt><trkpt lat="43.1318028" lon="-8.5367107"><ele>360.25</ele><time>2026-03-29T08:15:28.058Z</time></trkpt><trkpt lat="43.1318679" lon="-8.5368766"><ele>361.0</ele><time>2026-03-29T08:15:29.058Z</time></trkpt><trkpt lat="43.1319271" lon="-8.5370269"><ele>362.0</ele><time>2026-03-29T08:15:30.058Z</time></trkpt><trkpt lat="43.1319844" lon="-8.5371665"><ele>363.0</ele><time>2026-03-29T08:15:31.058Z</time></trkpt><trkpt lat="43.1320379" lon="-8.5373013"><ele>364.0</ele><time>2026-03-29T08:15:32.059Z</time></trkpt><trkpt lat="43.1320883" lon="-8.5374245"><ele>365.0</ele><time>2026-03-29T08:15:33.058Z</time></trkpt><trkpt lat="43.1321338" lon="-8.5375267"><ele>366.0</ele><time>2026-03-29T08:15:34.058Z</time></trkpt><trkpt lat="43.1321562" lon="-8.5376278"><ele>366.0</ele><time>2026-03-29T08:15:35.058Z</time></trkpt><trkpt lat="43.1321348" lon="-8.5377152"><ele>366.0</ele><time>2026-03-29T08:15:36.058Z</time></trkpt><trkpt lat="43.1320713" lon="-8.5377947"><ele>366.0</ele><time>2026-03-29T08:15:37.058Z</time></trkpt><trkpt lat="43.1320023" lon="-8.5378799"><ele>366.0</ele><time>2026-03-29T08:15:38.058Z</time></trkpt><trkpt lat="43.1319274" lon="-8.5379619"><ele>366.0</ele><time>2026-03-29T08:15:39.058Z</time></trkpt><trkpt lat="43.131857" lon="-8.5380531"><ele>366.0</ele><time>2026-03-29T08:15:40.058Z</time></trkpt><trkpt lat="43.1317734" lon="-8.5381693"><ele>367.0</ele><time>2026-03-29T08:15:41.059Z</time></trkpt><trkpt lat="43.1316886" lon="-8.5382907"><ele>368.0</ele><time>2026-03-29T08:15:42.058Z</time></trkpt><trkpt lat="43.1315994" lon="-8.5384195"><ele>369.0</ele><time>2026-03-29T08:15:43.058Z</time></trkpt><trkpt lat="43.1315091" lon="-8.5385531"><ele>370.0</ele><time>2026-03-29T08:15:44.058Z</time></trkpt><trkpt lat="43.1314139" lon="-8.5387"><ele>371.3333333333333</ele><time>2026-03-29T08:15:45.058Z</time></trkpt><trkpt lat="43.1313197" lon="-8.538859"><ele>372.6666666666667</ele><time>2026-03-29T08:15:46.058Z</time></trkpt><trkpt lat="43.1312289" lon="-8.5390264"><ele>374.0</ele><time>2026-03-29T08:15:47.058Z</time></trkpt><trkpt lat="43.1311349" lon="-8.5392113"><ele>374.0</ele><time>2026-03-29T08:15:48.058Z</time></trkpt><trkpt lat="43.1310373" lon="-8.5394018"><ele>374.0</ele><time>2026-03-29T08:15:49.058Z</time></trkpt><trkpt lat="43.1309392" lon="-8.5395974"><ele>374.0</ele><time>2026-03-29T08:15:50.059Z</time></trkpt><trkpt lat="43.1308381" lon="-8.5397998"><ele>372.6666666666667</ele><time>2026-03-29T08:15:51.058Z</time></trkpt><trkpt lat="43.1307359" lon="-8.5400108"><ele>371.3333333333333</ele><time>2026-03-29T08:15:52.059Z</time></trkpt><trkpt lat="43.1306289" lon="-8.5402289"><ele>370.0</ele><time>2026-03-29T08:15:53.058Z</time></trkpt><trkpt lat="43.130517" lon="-8.5404488"><ele>369.3333333333333</ele><time>2026-03-29T08:15:54.058Z</time></trkpt><trkpt lat="43.1304042" lon="-8.5406792"><ele>368.6666666666667</ele><time>2026-03-29T08:15:55.059Z</time></trkpt><trkpt lat="43.1302795" lon="-8.5409294"><ele>368.0</ele><time>2026-03-29T08:15:56.058Z</time></trkpt><trkpt lat="43.1301608" lon="-8.541174"><ele>367.6666666666667</ele><time>2026-03-29T08:15:57.058Z</time></trkpt><trkpt lat="43.1300467" lon="-8.5414064"><ele>367.3333333333333</ele><time>2026-03-29T08:15:58.058Z</time></trkpt><trkpt lat="43.1299307" lon="-8.5416257"><ele>367.0</ele><time>2026-03-29T08:15:59.058Z</time></trkpt><trkpt lat="43.1297901" lon="-8.5418266"><ele>367.0</ele><time>2026-03-29T08:16:00.059Z</time></trkpt><trkpt lat="43.1296371" lon="-8.5420163"><ele>367.0</ele><time>2026-03-29T08:16:01.059Z</time></trkpt><trkpt lat="43.1294215" lon="-8.5421517"><ele>367.0</ele><time>2026-03-29T08:16:02.058Z</time></trkpt><trkpt lat="43.1292122" lon="-8.5422768"><ele>365.5</ele><time>2026-03-29T08:16:03.058Z</time></trkpt><trkpt lat="43.1289566" lon="-8.5423928"><ele>364.0</ele><time>2026-03-29T08:16:04.058Z</time></trkpt><trkpt lat="43.1286989" lon="-8.5424995"><ele>364.0</ele><time>2026-03-29T08:16:05.058Z</time></trkpt><trkpt lat="43.1284321" lon="-8.5426055"><ele>364.0</ele><time>2026-03-29T08:16:06.058Z</time></trkpt><trkpt lat="43.1281597" lon="-8.5426956"><ele>358.0</ele><time>2026-03-29T08:16:07.059Z</time></trkpt><trkpt lat="43.1278816" lon="-8.5427868"><ele>352.0</ele><time>2026-03-29T08:16:08.059Z</time></trkpt><trkpt lat="43.1275862" lon="-8.542858"><ele>354.0</ele><time>2026-03-29T08:16:09.059Z</time></trkpt><trkpt lat="43.1272904" lon="-8.542927"><ele>356.0</ele><time>2026-03-29T08:16:10.058Z</time></trkpt><trkpt lat="43.1269998" lon="-8.5429887"><ele>356.0</ele><time>2026-03-29T08:16:11.058Z</time></trkpt><trkpt lat="43.1267154" lon="-8.5430401"><ele>356.0</ele><time>2026-03-29T08:16:12.058Z</time></trkpt><trkpt lat="43.1264492" lon="-8.5430844"><ele>357.0</ele><time>2026-03-29T08:16:13.058Z</time></trkpt><trkpt lat="43.1261975" lon="-8.5431283"><ele>358.0</ele><time>2026-03-29T08:16:14.059Z</time></trkpt><trkpt lat="43.1259521" lon="-8.5431629"><ele>360.5</ele><time>2026-03-29T08:16:15.059Z</time></trkpt><trkpt lat="43.1257219" lon="-8.5431943"><ele>363.0</ele><time>2026-03-29T08:16:16.059Z</time></trkpt><trkpt lat="43.1254993" lon="-8.5432331"><ele>363.0</ele><time>2026-03-29T08:16:17.058Z</time></trkpt><trkpt lat="43.1252864" lon="-8.543306"><ele>363.0</ele><time>2026-03-29T08:16:18.058Z</time></trkpt><trkpt lat="43.1250887" lon="-8.5434118"><ele>363.0</ele><time>2026-03-29T08:16:19.059Z</time></trkpt><trkpt lat="43.1249073" lon="-8.5435553"><ele>365.3333333333333</ele><time>2026-03-29T08:16:20.058Z</time></trkpt><trkpt lat="43.1247361" lon="-8.5437335"><ele>367.66666666666663</ele><time>2026-03-29T08:16:21.058Z</time></trkpt><trkpt lat="43.1245657" lon="-8.5439342"><ele>370.0</ele><time>2026-03-29T08:16:22.059Z</time></trkpt><trkpt lat="43.1243912" lon="-8.5441509"><ele>370.0</ele><time>2026-03-29T08:16:23.059Z</time></trkpt><trkpt lat="43.1242168" lon="-8.5443681"><ele>370.0</ele><time>2026-03-29T08:16:24.058Z</time></trkpt><trkpt lat="43.1240425" lon="-8.5445869"><ele>371.0</ele><time>2026-03-29T08:16:25.058Z</time></trkpt><trkpt lat="43.1238741" lon="-8.5447932"><ele>372.0</ele><time>2026-03-29T08:16:26.058Z</time></trkpt><trkpt lat="43.123721" lon="-8.5449828"><ele>373.0</ele><time>2026-03-29T08:16:27.058Z</time></trkpt><trkpt lat="43.1235811" lon="-8.5451608"><ele>373.0</ele><time>2026-03-29T08:16:28.059Z</time></trkpt><trkpt lat="43.1234476" lon="-8.5453215"><ele>373.0</ele><time>2026-03-29T08:16:29.059Z</time></trkpt><trkpt lat="43.1233264" lon="-8.5454732"><ele>373.0</ele><time>2026-03-29T08:16:30.058Z</time></trkpt><trkpt lat="43.1232054" lon="-8.5456138"><ele>375.3333333333333</ele><time>2026-03-29T08:16:31.059Z</time></trkpt><trkpt lat="43.1230814" lon="-8.5457467"><ele>377.6666666666667</ele><time>2026-03-29T08:16:32.058Z</time></trkpt><trkpt lat="43.1229535" lon="-8.5458687"><ele>380.0</ele><time>2026-03-29T08:16:33.058Z</time></trkpt><trkpt lat="43.1228155" lon="-8.5459855"><ele>380.0</ele><time>2026-03-29T08:16:34.059Z</time></trkpt><trkpt lat="43.1226768" lon="-8.546099"><ele>380.0</ele><time>2026-03-29T08:16:35.058Z</time></trkpt><trkpt lat="43.1225413" lon="-8.5462134"><ele>380.0</ele><time>2026-03-29T08:16:36.058Z</time></trkpt><trkpt lat="43.1224039" lon="-8.5463291"><ele>379.33333333333337</ele><time>2026-03-29T08:16:37.059Z</time></trkpt><trkpt lat="43.1222632" lon="-8.5464425"><ele>378.6666666666667</ele><time>2026-03-29T08:16:38.058Z</time></trkpt><trkpt lat="43.1221201" lon="-8.5465537"><ele>378.0</ele><time>2026-03-29T08:16:39.058Z</time></trkpt><trkpt lat="43.1219733" lon="-8.5466586"><ele>378.0</ele><time>2026-03-29T08:16:40.058Z</time></trkpt><trkpt lat="43.1218137" lon="-8.5467403"><ele>378.0</ele><time>2026-03-29T08:16:41.059Z</time></trkpt><trkpt lat="43.1216353" lon="-8.5467998"><ele>378.0</ele><time>2026-03-29T08:16:42.059Z</time></trkpt><trkpt lat="43.1214354" lon="-8.5468312"><ele>377.0</ele><time>2026-03-29T08:16:43.059Z</time></trkpt><trkpt lat="43.121229" lon="-8.546858"><ele>376.0</ele><time>2026-03-29T08:16:44.059Z</time></trkpt><trkpt lat="43.1210152" lon="-8.5468829"><ele>375.0</ele><time>2026-03-29T08:16:45.058Z</time></trkpt><trkpt lat="43.1207986" lon="-8.5469107"><ele>374.0</ele><time>2026-03-29T08:16:46.059Z</time></trkpt><trkpt lat="43.1205758" lon="-8.546944"><ele>373.0</ele><time>2026-03-29T08:16:47.058Z</time></trkpt><trkpt lat="43.1203516" lon="-8.5469947"><ele>373.0</ele><time>2026-03-29T08:16:48.058Z</time></trkpt><trkpt lat="43.120127" lon="-8.5470419"><ele>373.0</ele><time>2026-03-29T08:16:49.058Z</time></trkpt><trkpt lat="43.1199009" lon="-8.5470897"><ele>372.5</ele><time>2026-03-29T08:16:50.059Z</time></trkpt><trkpt lat="43.119676" lon="-8.5471311"><ele>372.0</ele><time>2026-03-29T08:16:51.059Z</time></trkpt><trkpt lat="43.1194513" lon="-8.5471685"><ele>372.0</ele><time>2026-03-29T08:16:52.059Z</time></trkpt><trkpt lat="43.1192261" lon="-8.5471988"><ele>372.0</ele><time>2026-03-29T08:16:53.059Z</time></trkpt><trkpt lat="43.1190008" lon="-8.5472138"><ele>371.3333333333333</ele><time>2026-03-29T08:16:54.059Z</time></trkpt><trkpt lat="43.1187769" lon="-8.5471969"><ele>370.66666666666663</ele><time>2026-03-29T08:16:55.058Z</time></trkpt><trkpt lat="43.1185556" lon="-8.5471481"><ele>370.0</ele><time>2026-03-29T08:16:56.059Z</time></trkpt><trkpt lat="43.1183381" lon="-8.547061"><ele>370.5</ele><time>2026-03-29T08:16:57.058Z</time></trkpt><trkpt lat="43.1181245" lon="-8.5469362"><ele>371.0</ele><time>2026-03-29T08:16:58.058Z</time></trkpt><trkpt lat="43.1179137" lon="-8.5467832"><ele>371.0</ele><time>2026-03-29T08:16:59.058Z</time></trkpt><trkpt lat="43.1177007" lon="-8.5466254"><ele>371.0</ele><time>2026-03-29T08:17:00.058Z</time></trkpt><trkpt lat="43.1174937" lon="-8.5464591"><ele>371.0</ele><time>2026-03-29T08:17:01.059Z</time></trkpt><trkpt lat="43.117267" lon="-8.5462859"><ele>371.0</ele><time>2026-03-29T08:17:02.058Z</time></trkpt><trkpt lat="43.1170465" lon="-8.5461202"><ele>369.5</ele><time>2026-03-29T08:17:03.058Z</time></trkpt><trkpt lat="43.1168302" lon="-8.546007"><ele>368.0</ele><time>2026-03-29T08:17:04.058Z</time></trkpt><trkpt lat="43.1165987" lon="-8.5459281"><ele>368.5</ele><time>2026-03-29T08:17:05.059Z</time></trkpt><trkpt lat="43.1163625" lon="-8.5458894"><ele>369.0</ele><time>2026-03-29T08:17:06.058Z</time></trkpt><trkpt lat="43.1161171" lon="-8.5458851"><ele>369.0</ele><time>2026-03-29T08:17:07.058Z</time></trkpt><trkpt lat="43.1158681" lon="-8.5459254"><ele>369.0</ele><time>2026-03-29T08:17:08.058Z</time></trkpt><trkpt lat="43.1156168" lon="-8.5459973"><ele>369.5</ele><time>2026-03-29T08:17:09.058Z</time></trkpt><trkpt lat="43.115366" lon="-8.5460877"><ele>370.0</ele><time>2026-03-29T08:17:10.058Z</time></trkpt><trkpt lat="43.1151122" lon="-8.5461767"><ele>371.0</ele><time>2026-03-29T08:17:11.058Z</time></trkpt><trkpt lat="43.1148613" lon="-8.5462648"><ele>372.0</ele><time>2026-03-29T08:17:12.058Z</time></trkpt><trkpt lat="43.1146147" lon="-8.5463565"><ele>372.0</ele><time>2026-03-29T08:17:13.058Z</time></trkpt><trkpt lat="43.1143696" lon="-8.5464428"><ele>372.0</ele><time>2026-03-29T08:17:14.059Z</time></trkpt><trkpt lat="43.114125" lon="-8.5465299"><ele>371.0</ele><time>2026-03-29T08:17:15.058Z</time></trkpt><trkpt lat="43.1138801" lon="-8.5466202"><ele>370.0</ele><time>2026-03-29T08:17:16.058Z</time></trkpt><trkpt lat="43.1136372" lon="-8.546702"><ele>370.0</ele><time>2026-03-29T08:17:17.058Z</time></trkpt><trkpt lat="43.1133983" lon="-8.5467632"><ele>370.0</ele><time>2026-03-29T08:17:18.059Z</time></trkpt><trkpt lat="43.1131658" lon="-8.5467898"><ele>367.0</ele><time>2026-03-29T08:17:19.058Z</time></trkpt><trkpt lat="43.1129306" lon="-8.5467823"><ele>364.0</ele><time>2026-03-29T08:17:20.058Z</time></trkpt><trkpt lat="43.1126906" lon="-8.5467389"><ele>364.0</ele><time>2026-03-29T08:17:21.059Z</time></trkpt><trkpt lat="43.1124498" lon="-8.5466619"><ele>364.0</ele><time>2026-03-29T08:17:22.058Z</time></trkpt><trkpt lat="43.1122128" lon="-8.5465588"><ele>363.5</ele><time>2026-03-29T08:17:23.058Z</time></trkpt><trkpt lat="43.111978" lon="-8.5464377"><ele>363.0</ele><time>2026-03-29T08:17:24.059Z</time></trkpt><trkpt lat="43.111743" lon="-8.5463248"><ele>364.5</ele><time>2026-03-29T08:17:25.058Z</time></trkpt><trkpt lat="43.1115089" lon="-8.5462112"><ele>366.0</ele><time>2026-03-29T08:17:26.059Z</time></trkpt><trkpt lat="43.1112728" lon="-8.546107"><ele>366.0</ele><time>2026-03-29T08:17:27.059Z</time></trkpt><trkpt lat="43.111033" lon="-8.5460176"><ele>366.0</ele><time>2026-03-29T08:17:28.058Z</time></trkpt><trkpt lat="43.1107923" lon="-8.5459525"><ele>366.5</ele><time>2026-03-29T08:17:29.058Z</time></trkpt><trkpt lat="43.1105587" lon="-8.5458916"><ele>367.0</ele><time>2026-03-29T08:17:30.058Z</time></trkpt><trkpt lat="43.1103374" lon="-8.5458349"><ele>367.0</ele><time>2026-03-29T08:17:31.058Z</time></trkpt><trkpt lat="43.1101191" lon="-8.5457838"><ele>367.0</ele><time>2026-03-29T08:17:32.058Z</time></trkpt><trkpt lat="43.1098987" lon="-8.5457372"><ele>367.0</ele><time>2026-03-29T08:17:33.058Z</time></trkpt><trkpt lat="43.1096682" lon="-8.5457002"><ele>365.0</ele><time>2026-03-29T08:17:34.059Z</time></trkpt><trkpt lat="43.1094274" lon="-8.5456675"><ele>363.0</ele><time>2026-03-29T08:17:35.058Z</time></trkpt><trkpt lat="43.1091749" lon="-8.5456551"><ele>359.0</ele><time>2026-03-29T08:17:36.059Z</time></trkpt><trkpt lat="43.1089189" lon="-8.5456693"><ele>355.0</ele><time>2026-03-29T08:17:37.059Z</time></trkpt><trkpt lat="43.1086579" lon="-8.5456962"><ele>355.0</ele><time>2026-03-29T08:17:38.058Z</time></trkpt><trkpt lat="43.1083994" lon="-8.5457336"><ele>355.0</ele><time>2026-03-29T08:17:39.059Z</time></trkpt><trkpt lat="43.108125" lon="-8.545797"><ele>356.0</ele><time>2026-03-29T08:17:40.058Z</time></trkpt><trkpt lat="43.1078551" lon="-8.5458828"><ele>357.0</ele><time>2026-03-29T08:17:41.058Z</time></trkpt><trkpt lat="43.1075908" lon="-8.54597"><ele>357.5</ele><time>2026-03-29T08:17:42.058Z</time></trkpt><trkpt lat="43.107323" lon="-8.5460603"><ele>358.0</ele><time>2026-03-29T08:17:43.058Z</time></trkpt><trkpt lat="43.1070576" lon="-8.5461517"><ele>357.0</ele><time>2026-03-29T08:17:44.058Z</time></trkpt><trkpt lat="43.1067948" lon="-8.5462422"><ele>356.0</ele><time>2026-03-29T08:17:45.059Z</time></trkpt><trkpt lat="43.1065289" lon="-8.5463309"><ele>358.0</ele><time>2026-03-29T08:17:46.058Z</time></trkpt><trkpt lat="43.1062637" lon="-8.5464242"><ele>360.0</ele><time>2026-03-29T08:17:47.058Z</time></trkpt><trkpt lat="43.1060026" lon="-8.5465174"><ele>360.0</ele><time>2026-03-29T08:17:48.058Z</time></trkpt><trkpt lat="43.1057476" lon="-8.5465989"><ele>360.0</ele><time>2026-03-29T08:17:49.059Z</time></trkpt><trkpt lat="43.1054955" lon="-8.5466838"><ele>360.5</ele><time>2026-03-29T08:17:50.058Z</time></trkpt><trkpt lat="43.1052486" lon="-8.5467684"><ele>361.0</ele><time>2026-03-29T08:17:51.059Z</time></trkpt><trkpt lat="43.1050018" lon="-8.5468571"><ele>363.0</ele><time>2026-03-29T08:17:52.059Z</time></trkpt><trkpt lat="43.104754" lon="-8.5469406"><ele>365.0</ele><time>2026-03-29T08:17:53.058Z</time></trkpt><trkpt lat="43.1044987" lon="-8.547036"><ele>365.5</ele><time>2026-03-29T08:17:54.058Z</time></trkpt><trkpt lat="43.1042863" lon="-8.5471825"><ele>366.0</ele><time>2026-03-29T08:17:55.058Z</time></trkpt><trkpt lat="43.1040704" lon="-8.5473591"><ele>367.0</ele><time>2026-03-29T08:17:56.059Z</time></trkpt><trkpt lat="43.103854" lon="-8.5475428"><ele>368.0</ele><time>2026-03-29T08:17:57.058Z</time></trkpt><trkpt lat="43.1036239" lon="-8.5477129"><ele>368.0</ele><time>2026-03-29T08:17:58.058Z</time></trkpt><trkpt lat="43.1033884" lon="-8.5478548"><ele>368.0</ele><time>2026-03-29T08:17:59.058Z</time></trkpt><trkpt lat="43.1031416" lon="-8.5479811"><ele>367.5</ele><time>2026-03-29T08:18:00.058Z</time></trkpt><trkpt lat="43.1028919" lon="-8.5481038"><ele>367.0</ele><time>2026-03-29T08:18:01.059Z</time></trkpt><trkpt lat="43.1026325" lon="-8.5482159"><ele>367.5</ele><time>2026-03-29T08:18:02.058Z</time></trkpt><trkpt lat="43.1023772" lon="-8.5483273"><ele>368.0</ele><time>2026-03-29T08:18:03.058Z</time></trkpt><trkpt lat="43.102129" lon="-8.5484386"><ele>368.0</ele><time>2026-03-29T08:18:04.058Z</time></trkpt><trkpt lat="43.1018936" lon="-8.5485456"><ele>368.0</ele><time>2026-03-29T08:18:05.059Z</time></trkpt><trkpt lat="43.1016733" lon="-8.5486506"><ele>368.0</ele><time>2026-03-29T08:18:06.059Z</time></trkpt><trkpt lat="43.1014668" lon="-8.5487699"><ele>368.0</ele><time>2026-03-29T08:18:07.058Z</time></trkpt><trkpt lat="43.1012728" lon="-8.5489093"><ele>368.0</ele><time>2026-03-29T08:18:08.058Z</time></trkpt><trkpt lat="43.1010875" lon="-8.5490763"><ele>368.0</ele><time>2026-03-29T08:18:09.058Z</time></trkpt><trkpt lat="43.1009045" lon="-8.5492693"><ele>368.0</ele><time>2026-03-29T08:18:10.059Z</time></trkpt><trkpt lat="43.1007293" lon="-8.549477"><ele>369.5</ele><time>2026-03-29T08:18:11.058Z</time></trkpt><trkpt lat="43.1005569" lon="-8.5496904"><ele>371.0</ele><time>2026-03-29T08:18:12.059Z</time></trkpt><trkpt lat="43.1003977" lon="-8.5498941"><ele>371.0</ele><time>2026-03-29T08:18:13.058Z</time></trkpt><trkpt lat="43.1002508" lon="-8.5500816"><ele>371.0</ele><time>2026-03-29T08:18:14.058Z</time></trkpt><trkpt lat="43.100104" lon="-8.5502376"><ele>371.0</ele><time>2026-03-29T08:18:15.059Z</time></trkpt><trkpt lat="43.0999571" lon="-8.5503607"><ele>370.6666666666667</ele><time>2026-03-29T08:18:16.058Z</time></trkpt><trkpt lat="43.0997942" lon="-8.5504581"><ele>370.3333333333333</ele><time>2026-03-29T08:18:17.058Z</time></trkpt><trkpt lat="43.0996211" lon="-8.5505159"><ele>370.0</ele><time>2026-03-29T08:18:18.059Z</time></trkpt><trkpt lat="43.0994326" lon="-8.5505407"><ele>370.0</ele><time>2026-03-29T08:18:19.059Z</time></trkpt><trkpt lat="43.0992397" lon="-8.5505478"><ele>370.0</ele><time>2026-03-29T08:18:20.058Z</time></trkpt><trkpt lat="43.09904" lon="-8.5505417"><ele>370.0</ele><time>2026-03-29T08:18:21.058Z</time></trkpt><trkpt lat="43.0988385" lon="-8.5505476"><ele>370.3333333333333</ele><time>2026-03-29T08:18:22.059Z</time></trkpt><trkpt lat="43.0986346" lon="-8.5505513"><ele>370.6666666666667</ele><time>2026-03-29T08:18:23.058Z</time></trkpt><trkpt lat="43.0984252" lon="-8.5505561"><ele>371.0</ele><time>2026-03-29T08:18:24.059Z</time></trkpt><trkpt lat="43.098211" lon="-8.5505566"><ele>371.0</ele><time>2026-03-29T08:18:25.059Z</time></trkpt><trkpt lat="43.0979953" lon="-8.5505581"><ele>371.0</ele><time>2026-03-29T08:18:26.058Z</time></trkpt><trkpt lat="43.0977754" lon="-8.5505597"><ele>371.0</ele><time>2026-03-29T08:18:27.059Z</time></trkpt><trkpt lat="43.0975519" lon="-8.5505661"><ele>371.33333333333337</ele><time>2026-03-29T08:18:28.058Z</time></trkpt><trkpt lat="43.0973299" lon="-8.5505735"><ele>371.6666666666667</ele><time>2026-03-29T08:18:29.059Z</time></trkpt><trkpt lat="43.0971087" lon="-8.5505774"><ele>372.0</ele><time>2026-03-29T08:18:30.059Z</time></trkpt><trkpt lat="43.096892" lon="-8.5505816"><ele>372.0</ele><time>2026-03-29T08:18:31.058Z</time></trkpt><trkpt lat="43.0966769" lon="-8.5505888"><ele>372.0</ele><time>2026-03-29T08:18:32.058Z</time></trkpt><trkpt lat="43.0964634" lon="-8.5505946"><ele>372.0</ele><time>2026-03-29T08:18:33.058Z</time></trkpt><trkpt lat="43.09625" lon="-8.5505991"><ele>372.0</ele><time>2026-03-29T08:18:34.059Z</time></trkpt><trkpt lat="43.096032" lon="-8.5506043"><ele>372.0</ele><time>2026-03-29T08:18:35.058Z</time></trkpt><trkpt lat="43.0958159" lon="-8.5506123"><ele>372.0</ele><time>2026-03-29T08:18:36.058Z</time></trkpt><trkpt lat="43.095598" lon="-8.5506218"><ele>371.0</ele><time>2026-03-29T08:18:37.058Z</time></trkpt><trkpt lat="43.0953833" lon="-8.5506286"><ele>370.0</ele><time>2026-03-29T08:18:38.059Z</time></trkpt><trkpt lat="43.0951675" lon="-8.5506311"><ele>369.0</ele><time>2026-03-29T08:18:39.058Z</time></trkpt><trkpt lat="43.0949504" lon="-8.5506342"><ele>366.3333333333333</ele><time>2026-03-29T08:18:40.059Z</time></trkpt><trkpt lat="43.0947313" lon="-8.5506433"><ele>363.66666666666663</ele><time>2026-03-29T08:18:41.059Z</time></trkpt><trkpt lat="43.0945122" lon="-8.5506541"><ele>361.0</ele><time>2026-03-29T08:18:42.058Z</time></trkpt><trkpt lat="43.0942977" lon="-8.5506611"><ele>361.3333333333333</ele><time>2026-03-29T08:18:43.059Z</time></trkpt><trkpt lat="43.0940847" lon="-8.5506657"><ele>361.6666666666667</ele><time>2026-03-29T08:18:44.059Z</time></trkpt><trkpt lat="43.0938818" lon="-8.5506741"><ele>362.0</ele><time>2026-03-29T08:18:45.058Z</time></trkpt><trkpt lat="43.093685" lon="-8.550673"><ele>362.0</ele><time>2026-03-29T08:18:46.058Z</time></trkpt><trkpt lat="43.0934901" lon="-8.5506556"><ele>362.0</ele><time>2026-03-29T08:18:47.058Z</time></trkpt><trkpt lat="43.093293" lon="-8.5506253"><ele>362.0</ele><time>2026-03-29T08:18:48.059Z</time></trkpt><trkpt lat="43.0930961" lon="-8.5505885"><ele>360.6666666666667</ele><time>2026-03-29T08:18:49.058Z</time></trkpt><trkpt lat="43.0928999" lon="-8.5505562"><ele>359.3333333333333</ele><time>2026-03-29T08:18:50.059Z</time></trkpt><trkpt lat="43.0926998" lon="-8.5505201"><ele>358.0</ele><time>2026-03-29T08:18:51.059Z</time></trkpt><trkpt lat="43.0925012" lon="-8.5504864"><ele>357.66666666666663</ele><time>2026-03-29T08:18:52.058Z</time></trkpt><trkpt lat="43.0923014" lon="-8.5504516"><ele>357.3333333333333</ele><time>2026-03-29T08:18:53.058Z</time></trkpt><trkpt lat="43.0921048" lon="-8.5504224"><ele>357.0</ele><time>2026-03-29T08:18:54.058Z</time></trkpt><trkpt lat="43.0919078" lon="-8.550396"><ele>357.3333333333333</ele><time>2026-03-29T08:18:55.058Z</time></trkpt><trkpt lat="43.0917112" lon="-8.5503703"><ele>357.66666666666663</ele><time>2026-03-29T08:18:56.059Z</time></trkpt><trkpt lat="43.0915144" lon="-8.5503422"><ele>358.0</ele><time>2026-03-29T08:18:57.058Z</time></trkpt><trkpt lat="43.0913191" lon="-8.5503085"><ele>358.0</ele><time>2026-03-29T08:18:58.058Z</time></trkpt><trkpt lat="43.0911234" lon="-8.5502945"><ele>358.0</ele><time>2026-03-29T08:18:59.058Z</time></trkpt><trkpt lat="43.090924" lon="-8.5503105"><ele>358.0</ele><time>2026-03-29T08:19:00.058Z</time></trkpt><trkpt lat="43.0907226" lon="-8.5503448"><ele>358.0</ele><time>2026-03-29T08:19:01.058Z</time></trkpt><trkpt lat="43.0905276" lon="-8.5503939"><ele>358.0</ele><time>2026-03-29T08:19:02.058Z</time></trkpt><trkpt lat="43.090344" lon="-8.5504389"><ele>358.0</ele><time>2026-03-29T08:19:03.058Z</time></trkpt><trkpt lat="43.0901699" lon="-8.5504843"><ele>358.0</ele><time>2026-03-29T08:19:04.059Z</time></trkpt><trkpt lat="43.0900003" lon="-8.5505287"><ele>358.0</ele><time>2026-03-29T08:19:05.059Z</time></trkpt><trkpt lat="43.089836" lon="-8.5505753"><ele>358.0</ele><time>2026-03-29T08:19:06.058Z</time></trkpt><trkpt lat="43.0896753" lon="-8.5506218"><ele>358.3333333333333</ele><time>2026-03-29T08:19:07.059Z</time></trkpt><trkpt lat="43.0895162" lon="-8.550673"><ele>358.6666666666667</ele><time>2026-03-29T08:19:08.058Z</time></trkpt><trkpt lat="43.0893486" lon="-8.5507054"><ele>359.0</ele><time>2026-03-29T08:19:09.058Z</time></trkpt><trkpt lat="43.0891792" lon="-8.5507263"><ele>359.0</ele><time>2026-03-29T08:19:10.058Z</time></trkpt><trkpt lat="43.089007" lon="-8.5507392"><ele>359.0</ele><time>2026-03-29T08:19:11.058Z</time></trkpt><trkpt lat="43.0888276" lon="-8.5507436"><ele>359.0</ele><time>2026-03-29T08:19:12.058Z</time></trkpt><trkpt lat="43.0886461" lon="-8.550744"><ele>359.0</ele><time>2026-03-29T08:19:13.058Z</time></trkpt><trkpt lat="43.0884606" lon="-8.5507491"><ele>359.0</ele><time>2026-03-29T08:19:14.059Z</time></trkpt><trkpt lat="43.0882723" lon="-8.5507539"><ele>359.0</ele><time>2026-03-29T08:19:15.059Z</time></trkpt><trkpt lat="43.0880854" lon="-8.5507679"><ele>358.0</ele><time>2026-03-29T08:19:16.059Z</time></trkpt><trkpt lat="43.0879003" lon="-8.5508073"><ele>357.0</ele><time>2026-03-29T08:19:17.058Z</time></trkpt><trkpt lat="43.0877195" lon="-8.5508694"><ele>356.0</ele><time>2026-03-29T08:19:18.058Z</time></trkpt><trkpt lat="43.0875572" lon="-8.5509679"><ele>356.0</ele><time>2026-03-29T08:19:19.059Z</time></trkpt><trkpt lat="43.0874093" lon="-8.5511072"><ele>356.0</ele><time>2026-03-29T08:19:20.058Z</time></trkpt><trkpt lat="43.0872736" lon="-8.551277"><ele>356.0</ele><time>2026-03-29T08:19:21.059Z</time></trkpt><trkpt lat="43.0871424" lon="-8.5514564"><ele>356.0</ele><time>2026-03-29T08:19:22.058Z</time></trkpt><trkpt lat="43.0870064" lon="-8.5516198"><ele>356.0</ele><time>2026-03-29T08:19:23.058Z</time></trkpt><trkpt lat="43.086841" lon="-8.5517358"><ele>356.0</ele><time>2026-03-29T08:19:24.058Z</time></trkpt><trkpt lat="43.0866529" lon="-8.5517884"><ele>355.0</ele><time>2026-03-29T08:19:25.059Z</time></trkpt><trkpt lat="43.0864347" lon="-8.5517741"><ele>354.0</ele><time>2026-03-29T08:19:26.059Z</time></trkpt><trkpt lat="43.0861817" lon="-8.5517475"><ele>354.0</ele><time>2026-03-29T08:19:27.059Z</time></trkpt><trkpt lat="43.0859121" lon="-8.5517637"><ele>354.0</ele><time>2026-03-29T08:19:28.059Z</time></trkpt><trkpt lat="43.0856218" lon="-8.551814"><ele>356.0</ele><time>2026-03-29T08:19:29.058Z</time></trkpt><trkpt lat="43.0853512" lon="-8.5518669"><ele>358.0</ele><time>2026-03-29T08:19:30.059Z</time></trkpt><trkpt lat="43.0850989" lon="-8.5519135"><ele>358.5</ele><time>2026-03-29T08:19:31.059Z</time></trkpt><trkpt lat="43.0848563" lon="-8.5519949"><ele>359.0</ele><time>2026-03-29T08:19:32.059Z</time></trkpt><trkpt lat="43.0846165" lon="-8.5521046"><ele>361.0</ele><time>2026-03-29T08:19:33.058Z</time></trkpt><trkpt lat="43.0843793" lon="-8.5522205"><ele>363.0</ele><time>2026-03-29T08:19:34.058Z</time></trkpt><trkpt lat="43.0841498" lon="-8.5523307"><ele>364.0</ele><time>2026-03-29T08:19:35.058Z</time></trkpt><trkpt lat="43.0839246" lon="-8.5524362"><ele>365.0</ele><time>2026-03-29T08:19:36.058Z</time></trkpt><trkpt lat="43.0837046" lon="-8.5525439"><ele>365.0</ele><time>2026-03-29T08:19:37.058Z</time></trkpt><trkpt lat="43.083491" lon="-8.5526475"><ele>365.0</ele><time>2026-03-29T08:19:38.058Z</time></trkpt><trkpt lat="43.0832791" lon="-8.5527527"><ele>366.33333333333337</ele><time>2026-03-29T08:19:39.058Z</time></trkpt><trkpt lat="43.0830715" lon="-8.5528552"><ele>367.6666666666667</ele><time>2026-03-29T08:19:40.059Z</time></trkpt><trkpt lat="43.0828697" lon="-8.5529582"><ele>369.0</ele><time>2026-03-29T08:19:41.059Z</time></trkpt><trkpt lat="43.0826723" lon="-8.5530604"><ele>370.0</ele><time>2026-03-29T08:19:42.059Z</time></trkpt><trkpt lat="43.0824731" lon="-8.5531478"><ele>371.0</ele><time>2026-03-29T08:19:43.058Z</time></trkpt><trkpt lat="43.0822743" lon="-8.5532005"><ele>372.0</ele><time>2026-03-29T08:19:44.059Z</time></trkpt><trkpt lat="43.0820677" lon="-8.5531941"><ele>372.6666666666667</ele><time>2026-03-29T08:19:45.058Z</time></trkpt><trkpt lat="43.0818598" lon="-8.553119"><ele>373.33333333333337</ele><time>2026-03-29T08:19:46.059Z</time></trkpt><trkpt lat="43.0816593" lon="-8.5529845"><ele>374.0</ele><time>2026-03-29T08:19:47.058Z</time></trkpt><trkpt lat="43.0814524" lon="-8.5528566"><ele>380.0</ele><time>2026-03-29T08:19:48.058Z</time></trkpt><trkpt lat="43.0812306" lon="-8.55268"><ele>386.0</ele><time>2026-03-29T08:19:49.059Z</time></trkpt><trkpt lat="43.0810629" lon="-8.5524913"><ele>386.0</ele><time>2026-03-29T08:19:50.058Z</time></trkpt><trkpt lat="43.0808903" lon="-8.5523259"><ele>386.0</ele><time>2026-03-29T08:19:51.058Z</time></trkpt><trkpt lat="43.0807256" lon="-8.5521796"><ele>386.0</ele><time>2026-03-29T08:19:52.059Z</time></trkpt><trkpt lat="43.0805655" lon="-8.5520568"><ele>389.0</ele><time>2026-03-29T08:19:53.058Z</time></trkpt><trkpt lat="43.0804035" lon="-8.551957"><ele>392.0</ele><time>2026-03-29T08:19:54.058Z</time></trkpt><trkpt lat="43.0802239" lon="-8.5518772"><ele>395.0</ele><time>2026-03-29T08:19:55.058Z</time></trkpt><trkpt lat="43.0800293" lon="-8.5518247"><ele>396.0</ele><time>2026-03-29T08:19:56.058Z</time></trkpt><trkpt lat="43.079806" lon="-8.5518017"><ele>397.0</ele><time>2026-03-29T08:19:57.059Z</time></trkpt><trkpt lat="43.0795715" lon="-8.5517822"><ele>397.0</ele><time>2026-03-29T08:19:58.058Z</time></trkpt><trkpt lat="43.0793237" lon="-8.5517605"><ele>397.0</ele><time>2026-03-29T08:19:59.059Z</time></trkpt><trkpt lat="43.0790719" lon="-8.551746"><ele>399.0</ele><time>2026-03-29T08:20:00.058Z</time></trkpt><trkpt lat="43.078817" lon="-8.5517256"><ele>401.0</ele><time>2026-03-29T08:20:01.058Z</time></trkpt><trkpt lat="43.078564" lon="-8.5517108"><ele>401.0</ele><time>2026-03-29T08:20:02.059Z</time></trkpt><trkpt lat="43.0783191" lon="-8.5516836"><ele>401.0</ele><time>2026-03-29T08:20:03.058Z</time></trkpt><trkpt lat="43.0780766" lon="-8.5516574"><ele>404.5</ele><time>2026-03-29T08:20:04.059Z</time></trkpt><trkpt lat="43.0778331" lon="-8.5516378"><ele>408.0</ele><time>2026-03-29T08:20:05.058Z</time></trkpt><trkpt lat="43.0775925" lon="-8.5516185"><ele>406.0</ele><time>2026-03-29T08:20:06.059Z</time></trkpt><trkpt lat="43.0773491" lon="-8.5515998"><ele>404.0</ele><time>2026-03-29T08:20:07.058Z</time></trkpt><trkpt lat="43.0771086" lon="-8.5515849"><ele>404.0</ele><time>2026-03-29T08:20:08.059Z</time></trkpt><trkpt lat="43.0768673" lon="-8.551565"><ele>404.0</ele><time>2026-03-29T08:20:09.059Z</time></trkpt><trkpt lat="43.0766255" lon="-8.5515492"><ele>401.0</ele><time>2026-03-29T08:20:10.058Z</time></trkpt><trkpt lat="43.0763869" lon="-8.5515266"><ele>398.0</ele><time>2026-03-29T08:20:11.059Z</time></trkpt><trkpt lat="43.0761571" lon="-8.5514882"><ele>398.0</ele><time>2026-03-29T08:20:12.058Z</time></trkpt><trkpt lat="43.0759278" lon="-8.5514194"><ele>398.0</ele><time>2026-03-29T08:20:13.059Z</time></trkpt><trkpt lat="43.0757038" lon="-8.5513118"><ele>399.5</ele><time>2026-03-29T08:20:14.058Z</time></trkpt><trkpt lat="43.0754827" lon="-8.5511656"><ele>401.0</ele><time>2026-03-29T08:20:15.058Z</time></trkpt><trkpt lat="43.0752695" lon="-8.5509802"><ele>401.0</ele><time>2026-03-29T08:20:16.058Z</time></trkpt><trkpt lat="43.0750615" lon="-8.5507735"><ele>401.0</ele><time>2026-03-29T08:20:17.058Z</time></trkpt><trkpt lat="43.0748583" lon="-8.5505577"><ele>399.0</ele><time>2026-03-29T08:20:18.059Z</time></trkpt><trkpt lat="43.0746545" lon="-8.5503438"><ele>397.0</ele><time>2026-03-29T08:20:19.058Z</time></trkpt><trkpt lat="43.0744492" lon="-8.5501362"><ele>397.0</ele><time>2026-03-29T08:20:20.058Z</time></trkpt><trkpt lat="43.0742415" lon="-8.5499257"><ele>397.0</ele><time>2026-03-29T08:20:21.058Z</time></trkpt><trkpt lat="43.0740348" lon="-8.549729"><ele>396.5</ele><time>2026-03-29T08:20:22.058Z</time></trkpt><trkpt lat="43.0738214" lon="-8.5495546"><ele>396.0</ele><time>2026-03-29T08:20:23.059Z</time></trkpt><trkpt lat="43.0735981" lon="-8.5494108"><ele>396.0</ele><time>2026-03-29T08:20:24.058Z</time></trkpt><trkpt lat="43.0733548" lon="-8.5492894"><ele>396.0</ele><time>2026-03-29T08:20:25.058Z</time></trkpt><trkpt lat="43.0731031" lon="-8.5492056"><ele>397.0</ele><time>2026-03-29T08:20:26.059Z</time></trkpt><trkpt lat="43.0728439" lon="-8.549134"><ele>398.0</ele><time>2026-03-29T08:20:27.058Z</time></trkpt><trkpt lat="43.0725834" lon="-8.549063"><ele>397.0</ele><time>2026-03-29T08:20:28.058Z</time></trkpt><trkpt lat="43.0723215" lon="-8.5489943"><ele>396.0</ele><time>2026-03-29T08:20:29.058Z</time></trkpt><trkpt lat="43.0720669" lon="-8.5489367"><ele>396.0</ele><time>2026-03-29T08:20:30.059Z</time></trkpt><trkpt lat="43.071809" lon="-8.5489018"><ele>396.0</ele><time>2026-03-29T08:20:31.058Z</time></trkpt><trkpt lat="43.0715506" lon="-8.5488845"><ele>396.5</ele><time>2026-03-29T08:20:32.059Z</time></trkpt><trkpt lat="43.0712925" lon="-8.5488777"><ele>397.0</ele><time>2026-03-29T08:20:33.059Z</time></trkpt><trkpt lat="43.0710352" lon="-8.5488742"><ele>397.0</ele><time>2026-03-29T08:20:34.058Z</time></trkpt><trkpt lat="43.0707925" lon="-8.5488666"><ele>397.0</ele><time>2026-03-29T08:20:35.059Z</time></trkpt><trkpt lat="43.0705623" lon="-8.5488607"><ele>398.0</ele><time>2026-03-29T08:20:36.059Z</time></trkpt><trkpt lat="43.070347" lon="-8.5488591"><ele>399.0</ele><time>2026-03-29T08:20:37.059Z</time></trkpt><trkpt lat="43.0701452" lon="-8.5488498"><ele>400.0</ele><time>2026-03-29T08:20:38.058Z</time></trkpt><trkpt lat="43.0699547" lon="-8.5488153"><ele>400.0</ele><time>2026-03-29T08:20:39.058Z</time></trkpt><trkpt lat="43.0697749" lon="-8.5487496"><ele>400.0</ele><time>2026-03-29T08:20:40.058Z</time></trkpt><trkpt lat="43.0695893" lon="-8.5486493"><ele>400.0</ele><time>2026-03-29T08:20:41.058Z</time></trkpt><trkpt lat="43.0694599" lon="-8.5484922"><ele>400.0</ele><time>2026-03-29T08:20:42.058Z</time></trkpt><trkpt lat="43.0693309" lon="-8.5483052"><ele>400.0</ele><time>2026-03-29T08:20:43.059Z</time></trkpt><trkpt lat="43.0692022" lon="-8.5480915"><ele>400.0</ele><time>2026-03-29T08:20:44.059Z</time></trkpt><trkpt lat="43.0690812" lon="-8.5478705"><ele>400.0</ele><time>2026-03-29T08:20:45.058Z</time></trkpt><trkpt lat="43.0689619" lon="-8.5476347"><ele>400.0</ele><time>2026-03-29T08:20:46.059Z</time></trkpt><trkpt lat="43.0688395" lon="-8.5474022"><ele>400.0</ele><time>2026-03-29T08:20:47.058Z</time></trkpt><trkpt lat="43.0687166" lon="-8.54717"><ele>400.6666666666667</ele><time>2026-03-29T08:20:48.058Z</time></trkpt><trkpt lat="43.0685923" lon="-8.5469352"><ele>401.33333333333337</ele><time>2026-03-29T08:20:49.058Z</time></trkpt><trkpt lat="43.0684627" lon="-8.5466981"><ele>402.0</ele><time>2026-03-29T08:20:50.058Z</time></trkpt><trkpt lat="43.0683306" lon="-8.5464612"><ele>400.0</ele><time>2026-03-29T08:20:51.058Z</time></trkpt><trkpt lat="43.0681955" lon="-8.5462184"><ele>398.0</ele><time>2026-03-29T08:20:52.058Z</time></trkpt><trkpt lat="43.0680568" lon="-8.5459724"><ele>397.5</ele><time>2026-03-29T08:20:53.059Z</time></trkpt><trkpt lat="43.0679197" lon="-8.5457265"><ele>397.0</ele><time>2026-03-29T08:20:54.058Z</time></trkpt><trkpt lat="43.0677838" lon="-8.5454809"><ele>397.33333333333337</ele><time>2026-03-29T08:20:55.058Z</time></trkpt><trkpt lat="43.0676519" lon="-8.5452373"><ele>397.66666666666663</ele><time>2026-03-29T08:20:56.059Z</time></trkpt><trkpt lat="43.0675167" lon="-8.5450032"><ele>398.0</ele><time>2026-03-29T08:20:57.059Z</time></trkpt><trkpt lat="43.0673848" lon="-8.5447685"><ele>397.3333333333333</ele><time>2026-03-29T08:20:58.058Z</time></trkpt><trkpt lat="43.0672492" lon="-8.5445318"><ele>396.66666666666663</ele><time>2026-03-29T08:20:59.058Z</time></trkpt><trkpt lat="43.0671102" lon="-8.5443114"><ele>396.0</ele><time>2026-03-29T08:21:00.059Z</time></trkpt><trkpt lat="43.0669551" lon="-8.5441052"><ele>396.0</ele><time>2026-03-29T08:21:01.058Z</time></trkpt><trkpt lat="43.0667879" lon="-8.5439233"><ele>396.0</ele><time>2026-03-29T08:21:02.058Z</time></trkpt><trkpt lat="43.0666053" lon="-8.543759"><ele>396.0</ele><time>2026-03-29T08:21:03.059Z</time></trkpt><trkpt lat="43.06641" lon="-8.5436167"><ele>395.5</ele><time>2026-03-29T08:21:04.058Z</time></trkpt><trkpt lat="43.0662024" lon="-8.543496"><ele>395.0</ele><time>2026-03-29T08:21:05.059Z</time></trkpt><trkpt lat="43.0659869" lon="-8.5433905"><ele>394.0</ele><time>2026-03-29T08:21:06.058Z</time></trkpt><trkpt lat="43.0657615" lon="-8.5433023"><ele>393.0</ele><time>2026-03-29T08:21:07.058Z</time></trkpt><trkpt lat="43.0655319" lon="-8.5432307"><ele>393.0</ele><time>2026-03-29T08:21:08.058Z</time></trkpt><trkpt lat="43.0652954" lon="-8.5431767"><ele>393.0</ele><time>2026-03-29T08:21:09.058Z</time></trkpt><trkpt lat="43.0650567" lon="-8.5431422"><ele>394.5</ele><time>2026-03-29T08:21:10.059Z</time></trkpt><trkpt lat="43.0648123" lon="-8.5431358"><ele>396.0</ele><time>2026-03-29T08:21:11.058Z</time></trkpt><trkpt lat="43.0645658" lon="-8.5431477"><ele>396.0</ele><time>2026-03-29T08:21:12.059Z</time></trkpt><trkpt lat="43.0643196" lon="-8.5431787"><ele>396.0</ele><time>2026-03-29T08:21:13.058Z</time></trkpt><trkpt lat="43.0640739" lon="-8.5432068"><ele>397.5</ele><time>2026-03-29T08:21:14.059Z</time></trkpt><trkpt lat="43.0638274" lon="-8.5432385"><ele>399.0</ele><time>2026-03-29T08:21:15.058Z</time></trkpt><trkpt lat="43.0635784" lon="-8.5432618"><ele>399.0</ele><time>2026-03-29T08:21:16.058Z</time></trkpt><trkpt lat="43.0633316" lon="-8.5432938"><ele>399.0</ele><time>2026-03-29T08:21:17.058Z</time></trkpt><trkpt lat="43.063085" lon="-8.543317"><ele>401.5</ele><time>2026-03-29T08:21:18.058Z</time></trkpt><trkpt lat="43.0628417" lon="-8.5433557"><ele>404.0</ele><time>2026-03-29T08:21:19.059Z</time></trkpt><trkpt lat="43.0625977" lon="-8.5434045"><ele>403.5</ele><time>2026-03-29T08:21:20.059Z</time></trkpt><trkpt lat="43.0623508" lon="-8.5434632"><ele>403.0</ele><time>2026-03-29T08:21:21.058Z</time></trkpt><trkpt lat="43.0621035" lon="-8.5435213"><ele>403.0</ele><time>2026-03-29T08:21:22.058Z</time></trkpt><trkpt lat="43.061852" lon="-8.5435765"><ele>403.0</ele><time>2026-03-29T08:21:23.059Z</time></trkpt><trkpt lat="43.0616008" lon="-8.5436325"><ele>403.0</ele><time>2026-03-29T08:21:24.059Z</time></trkpt><trkpt lat="43.0613486" lon="-8.5436869"><ele>403.0</ele><time>2026-03-29T08:21:25.059Z</time></trkpt><trkpt lat="43.0610978" lon="-8.543737"><ele>403.0</ele><time>2026-03-29T08:21:26.058Z</time></trkpt><trkpt lat="43.060849" lon="-8.5437917"><ele>403.0</ele><time>2026-03-29T08:21:27.058Z</time></trkpt><trkpt lat="43.0606019" lon="-8.5438434"><ele>403.0</ele><time>2026-03-29T08:21:28.058Z</time></trkpt><trkpt lat="43.0603558" lon="-8.543893"><ele>403.0</ele><time>2026-03-29T08:21:29.058Z</time></trkpt><trkpt lat="43.0601088" lon="-8.5439468"><ele>400.5</ele><time>2026-03-29T08:21:30.058Z</time></trkpt><trkpt lat="43.0598628" lon="-8.5440026"><ele>398.0</ele><time>2026-03-29T08:21:31.059Z</time></trkpt><trkpt lat="43.0596194" lon="-8.5440627"><ele>398.0</ele><time>2026-03-29T08:21:32.058Z</time></trkpt><trkpt lat="43.0593749" lon="-8.5441202"><ele>398.0</ele><time>2026-03-29T08:21:33.059Z</time></trkpt><trkpt lat="43.0591288" lon="-8.544181"><ele>395.5</ele><time>2026-03-29T08:21:34.059Z</time></trkpt><trkpt lat="43.0588935" lon="-8.5442481"><ele>393.0</ele><time>2026-03-29T08:21:35.058Z</time></trkpt><trkpt lat="43.0586397" lon="-8.5443227"><ele>393.0</ele><time>2026-03-29T08:21:36.058Z</time></trkpt><trkpt lat="43.0583955" lon="-8.5443999"><ele>393.0</ele><time>2026-03-29T08:21:37.059Z</time></trkpt><trkpt lat="43.0581463" lon="-8.5444756"><ele>391.5</ele><time>2026-03-29T08:21:38.058Z</time></trkpt><trkpt lat="43.0578959" lon="-8.5445547"><ele>390.0</ele><time>2026-03-29T08:21:39.059Z</time></trkpt><trkpt lat="43.0576486" lon="-8.5446271"><ele>388.5</ele><time>2026-03-29T08:21:40.059Z</time></trkpt><trkpt lat="43.0574009" lon="-8.5446953"><ele>387.0</ele><time>2026-03-29T08:21:41.058Z</time></trkpt><trkpt lat="43.0571543" lon="-8.5447581"><ele>387.0</ele><time>2026-03-29T08:21:42.058Z</time></trkpt><trkpt lat="43.0568993" lon="-8.5447864"><ele>387.0</ele><time>2026-03-29T08:21:43.059Z</time></trkpt><trkpt lat="43.0566465" lon="-8.5447927"><ele>386.0</ele><time>2026-03-29T08:21:44.058Z</time></trkpt><trkpt lat="43.0563979" lon="-8.5447768"><ele>385.0</ele><time>2026-03-29T08:21:45.058Z</time></trkpt><trkpt lat="43.0561494" lon="-8.544757"><ele>385.0</ele><time>2026-03-29T08:21:46.058Z</time></trkpt><trkpt lat="43.0558982" lon="-8.5447318"><ele>385.0</ele><time>2026-03-29T08:21:47.058Z</time></trkpt><trkpt lat="43.055638" lon="-8.5447032"><ele>382.0</ele><time>2026-03-29T08:21:48.059Z</time></trkpt><trkpt lat="43.055374" lon="-8.5446735"><ele>379.0</ele><time>2026-03-29T08:21:49.059Z</time></trkpt><trkpt lat="43.0551054" lon="-8.5446449"><ele>378.0</ele><time>2026-03-29T08:21:50.058Z</time></trkpt><trkpt lat="43.0548379" lon="-8.5446098"><ele>377.0</ele><time>2026-03-29T08:21:51.058Z</time></trkpt><trkpt lat="43.054574" lon="-8.5445643"><ele>375.5</ele><time>2026-03-29T08:21:52.059Z</time></trkpt><trkpt lat="43.0543138" lon="-8.5445208"><ele>374.0</ele><time>2026-03-29T08:21:53.058Z</time></trkpt><trkpt lat="43.0540544" lon="-8.5444683"><ele>374.0</ele><time>2026-03-29T08:21:54.058Z</time></trkpt><trkpt lat="43.0537874" lon="-8.5444073"><ele>374.0</ele><time>2026-03-29T08:21:55.058Z</time></trkpt><trkpt lat="43.0535396" lon="-8.5443505"><ele>375.0</ele><time>2026-03-29T08:21:56.059Z</time></trkpt><trkpt lat="43.053286" lon="-8.5442908"><ele>376.0</ele><time>2026-03-29T08:21:57.058Z</time></trkpt><trkpt lat="43.0530332" lon="-8.5442346"><ele>376.0</ele><time>2026-03-29T08:21:58.058Z</time></trkpt><trkpt lat="43.0527782" lon="-8.5441845"><ele>376.0</ele><time>2026-03-29T08:21:59.059Z</time></trkpt><trkpt lat="43.0525233" lon="-8.5441205"><ele>375.5</ele><time>2026-03-29T08:22:00.058Z</time></trkpt><trkpt lat="43.0522685" lon="-8.544059"><ele>375.0</ele><time>2026-03-29T08:22:01.058Z</time></trkpt><trkpt lat="43.0520197" lon="-8.5439934"><ele>375.0</ele><time>2026-03-29T08:22:02.058Z</time></trkpt><trkpt lat="43.0517739" lon="-8.5439052"><ele>375.0</ele><time>2026-03-29T08:22:03.059Z</time></trkpt><trkpt lat="43.0515343" lon="-8.5437922"><ele>374.0</ele><time>2026-03-29T08:22:04.059Z</time></trkpt><trkpt lat="43.051303" lon="-8.543659"><ele>373.0</ele><time>2026-03-29T08:22:05.058Z</time></trkpt><trkpt lat="43.0510749" lon="-8.5435187"><ele>373.0</ele><time>2026-03-29T08:22:06.059Z</time></trkpt><trkpt lat="43.0508585" lon="-8.5433837"><ele>373.0</ele><time>2026-03-29T08:22:07.059Z</time></trkpt><trkpt lat="43.0506423" lon="-8.5432481"><ele>374.0</ele><time>2026-03-29T08:22:08.058Z</time></trkpt><trkpt lat="43.0504232" lon="-8.5431204"><ele>375.0</ele><time>2026-03-29T08:22:09.058Z</time></trkpt><trkpt lat="43.0502104" lon="-8.5430082"><ele>375.0</ele><time>2026-03-29T08:22:10.058Z</time></trkpt><trkpt lat="43.0499958" lon="-8.5429171"><ele>375.0</ele><time>2026-03-29T08:22:11.058Z</time></trkpt><trkpt lat="43.0497758" lon="-8.542838"><ele>375.6666666666667</ele><time>2026-03-29T08:22:12.058Z</time></trkpt><trkpt lat="43.0495585" lon="-8.5427681"><ele>376.33333333333337</ele><time>2026-03-29T08:22:13.058Z</time></trkpt><trkpt lat="43.0493391" lon="-8.5426992"><ele>377.0</ele><time>2026-03-29T08:22:14.059Z</time></trkpt><trkpt lat="43.0491298" lon="-8.5426339"><ele>375.6666666666667</ele><time>2026-03-29T08:22:15.058Z</time></trkpt><trkpt lat="43.0489254" lon="-8.5425719"><ele>374.3333333333333</ele><time>2026-03-29T08:22:16.058Z</time></trkpt><trkpt lat="43.0487192" lon="-8.5425091"><ele>373.0</ele><time>2026-03-29T08:22:17.058Z</time></trkpt><trkpt lat="43.0485158" lon="-8.5424469"><ele>373.0</ele><time>2026-03-29T08:22:18.058Z</time></trkpt><trkpt lat="43.0483162" lon="-8.5423881"><ele>373.0</ele><time>2026-03-29T08:22:19.058Z</time></trkpt><trkpt lat="43.048114" lon="-8.5423383"><ele>373.0</ele><time>2026-03-29T08:22:20.059Z</time></trkpt><trkpt lat="43.0479152" lon="-8.5422724"><ele>373.66666666666663</ele><time>2026-03-29T08:22:21.058Z</time></trkpt><trkpt lat="43.0477205" lon="-8.5422032"><ele>374.3333333333333</ele><time>2026-03-29T08:22:22.059Z</time></trkpt><trkpt lat="43.0475282" lon="-8.5421406"><ele>375.0</ele><time>2026-03-29T08:22:23.058Z</time></trkpt><trkpt lat="43.0473334" lon="-8.542079"><ele>374.0</ele><time>2026-03-29T08:22:24.058Z</time></trkpt><trkpt lat="43.0471366" lon="-8.5420177"><ele>373.0</ele><time>2026-03-29T08:22:25.058Z</time></trkpt><trkpt lat="43.0469313" lon="-8.5419461"><ele>372.0</ele><time>2026-03-29T08:22:26.058Z</time></trkpt><trkpt lat="43.046726" lon="-8.5418634"><ele>369.5</ele><time>2026-03-29T08:22:27.058Z</time></trkpt><trkpt lat="43.0465097" lon="-8.5417722"><ele>367.0</ele><time>2026-03-29T08:22:28.058Z</time></trkpt><trkpt lat="43.0462925" lon="-8.5416773"><ele>367.0</ele><time>2026-03-29T08:22:29.059Z</time></trkpt><trkpt lat="43.0460787" lon="-8.5415852"><ele>367.0</ele><time>2026-03-29T08:22:30.058Z</time></trkpt><trkpt lat="43.0458655" lon="-8.5414946"><ele>367.0</ele><time>2026-03-29T08:22:31.059Z</time></trkpt><trkpt lat="43.045651" lon="-8.5414212"><ele>365.66666666666663</ele><time>2026-03-29T08:22:32.058Z</time></trkpt><trkpt lat="43.0454332" lon="-8.5413774"><ele>364.3333333333333</ele><time>2026-03-29T08:22:33.059Z</time></trkpt><trkpt lat="43.0452058" lon="-8.5413497"><ele>363.0</ele><time>2026-03-29T08:22:34.059Z</time></trkpt><trkpt lat="43.044965" lon="-8.5413215"><ele>361.0</ele><time>2026-03-29T08:22:35.058Z</time></trkpt><trkpt lat="43.0447175" lon="-8.5413008"><ele>359.0</ele><time>2026-03-29T08:22:36.058Z</time></trkpt><trkpt lat="43.0444643" lon="-8.5412769"><ele>359.0</ele><time>2026-03-29T08:22:37.058Z</time></trkpt><trkpt lat="43.0442082" lon="-8.5412511"><ele>359.0</ele><time>2026-03-29T08:22:38.059Z</time></trkpt><trkpt lat="43.0439533" lon="-8.5412273"><ele>357.0</ele><time>2026-03-29T08:22:39.058Z</time></trkpt><trkpt lat="43.0436944" lon="-8.541204"><ele>355.0</ele><time>2026-03-29T08:22:40.059Z</time></trkpt><trkpt lat="43.0434291" lon="-8.5411817"><ele>353.5</ele><time>2026-03-29T08:22:41.059Z</time></trkpt><trkpt lat="43.0431649" lon="-8.5411581"><ele>352.0</ele><time>2026-03-29T08:22:42.058Z</time></trkpt><trkpt lat="43.0428995" lon="-8.5411395"><ele>352.0</ele><time>2026-03-29T08:22:43.058Z</time></trkpt><trkpt lat="43.0426351" lon="-8.5411116"><ele>352.0</ele><time>2026-03-29T08:22:44.058Z</time></trkpt><trkpt lat="43.0423707" lon="-8.5410879"><ele>350.5</ele><time>2026-03-29T08:22:45.059Z</time></trkpt><trkpt lat="43.0421012" lon="-8.5410661"><ele>349.0</ele><time>2026-03-29T08:22:46.058Z</time></trkpt><trkpt lat="43.0418306" lon="-8.5410466"><ele>348.0</ele><time>2026-03-29T08:22:47.058Z</time></trkpt><trkpt lat="43.0415604" lon="-8.5410193"><ele>347.0</ele><time>2026-03-29T08:22:48.058Z</time></trkpt><trkpt lat="43.041296" lon="-8.541009"><ele>347.0</ele><time>2026-03-29T08:22:49.059Z</time></trkpt><trkpt lat="43.0410386" lon="-8.5410279"><ele>347.0</ele><time>2026-03-29T08:22:50.058Z</time></trkpt><trkpt lat="43.0407796" lon="-8.5410782"><ele>346.0</ele><time>2026-03-29T08:22:51.059Z</time></trkpt><trkpt lat="43.0405253" lon="-8.5411633"><ele>345.0</ele><time>2026-03-29T08:22:52.058Z</time></trkpt><trkpt lat="43.0402721" lon="-8.5412805"><ele>345.0</ele><time>2026-03-29T08:22:53.058Z</time></trkpt><trkpt lat="43.0400119" lon="-8.5414182"><ele>345.0</ele><time>2026-03-29T08:22:54.059Z</time></trkpt><trkpt lat="43.0397463" lon="-8.5415658"><ele>344.5</ele><time>2026-03-29T08:22:55.058Z</time></trkpt><trkpt lat="43.0394848" lon="-8.5417084"><ele>344.0</ele><time>2026-03-29T08:22:56.059Z</time></trkpt><trkpt lat="43.0392287" lon="-8.5418464"><ele>343.0</ele><time>2026-03-29T08:22:57.059Z</time></trkpt><trkpt lat="43.0389806" lon="-8.5419791"><ele>342.0</ele><time>2026-03-29T08:22:58.059Z</time></trkpt><trkpt lat="43.0387342" lon="-8.5421088"><ele>345.0</ele><time>2026-03-29T08:22:59.059Z</time></trkpt><trkpt lat="43.0384923" lon="-8.5422396"><ele>348.0</ele><time>2026-03-29T08:23:00.059Z</time></trkpt><trkpt lat="43.0382524" lon="-8.5423737"><ele>348.0</ele><time>2026-03-29T08:23:01.058Z</time></trkpt><trkpt lat="43.0380108" lon="-8.5424985"><ele>348.0</ele><time>2026-03-29T08:23:02.058Z</time></trkpt><trkpt lat="43.0377719" lon="-8.5426341"><ele>348.0</ele><time>2026-03-29T08:23:03.059Z</time></trkpt><trkpt lat="43.0375325" lon="-8.5427629"><ele>348.0</ele><time>2026-03-29T08:23:04.059Z</time></trkpt><trkpt lat="43.0372959" lon="-8.5428902"><ele>347.0</ele><time>2026-03-29T08:23:05.059Z</time></trkpt><trkpt lat="43.0370555" lon="-8.5430235"><ele>346.0</ele><time>2026-03-29T08:23:06.058Z</time></trkpt><trkpt lat="43.0368189" lon="-8.5431503"><ele>344.5</ele><time>2026-03-29T08:23:07.059Z</time></trkpt><trkpt lat="43.0365835" lon="-8.5432749"><ele>343.0</ele><time>2026-03-29T08:23:08.058Z</time></trkpt><trkpt lat="43.0363485" lon="-8.5434009"><ele>343.0</ele><time>2026-03-29T08:23:09.058Z</time></trkpt><trkpt lat="43.0361192" lon="-8.5435206"><ele>343.0</ele><time>2026-03-29T08:23:10.058Z</time></trkpt><trkpt lat="43.0358894" lon="-8.5436447"><ele>341.5</ele><time>2026-03-29T08:23:11.058Z</time></trkpt><trkpt lat="43.0356584" lon="-8.5437665"><ele>340.0</ele><time>2026-03-29T08:23:12.058Z</time></trkpt><trkpt lat="43.0354285" lon="-8.5438847"><ele>340.0</ele><time>2026-03-29T08:23:13.059Z</time></trkpt><trkpt lat="43.0351995" lon="-8.5440041"><ele>340.0</ele><time>2026-03-29T08:23:14.059Z</time></trkpt><trkpt lat="43.03497" lon="-8.5441233"><ele>340.0</ele><time>2026-03-29T08:23:15.058Z</time></trkpt><trkpt lat="43.0347355" lon="-8.5442428"><ele>340.0</ele><time>2026-03-29T08:23:16.058Z</time></trkpt><trkpt lat="43.0345004" lon="-8.544365"><ele>340.0</ele><time>2026-03-29T08:23:17.058Z</time></trkpt><trkpt lat="43.0342647" lon="-8.544485"><ele>340.0</ele><time>2026-03-29T08:23:18.059Z</time></trkpt><trkpt lat="43.0340271" lon="-8.5446105"><ele>340.5</ele><time>2026-03-29T08:23:19.059Z</time></trkpt><trkpt lat="43.0337878" lon="-8.5447313"><ele>341.0</ele><time>2026-03-29T08:23:20.058Z</time></trkpt><trkpt lat="43.0335472" lon="-8.5448568"><ele>341.0</ele><time>2026-03-29T08:23:21.058Z</time></trkpt><trkpt lat="43.0333063" lon="-8.544985"><ele>341.0</ele><time>2026-03-29T08:23:22.058Z</time></trkpt><trkpt lat="43.0330674" lon="-8.5451073"><ele>339.0</ele><time>2026-03-29T08:23:23.059Z</time></trkpt><trkpt lat="43.0328315" lon="-8.5452363"><ele>337.0</ele><time>2026-03-29T08:23:24.058Z</time></trkpt><trkpt lat="43.0325969" lon="-8.5453627"><ele>336.0</ele><time>2026-03-29T08:23:25.059Z</time></trkpt><trkpt lat="43.0323647" lon="-8.5454854"><ele>335.0</ele><time>2026-03-29T08:23:26.059Z</time></trkpt><trkpt lat="43.0321321" lon="-8.5456037"><ele>335.0</ele><time>2026-03-29T08:23:27.058Z</time></trkpt><trkpt lat="43.031897" lon="-8.5457229"><ele>335.0</ele><time>2026-03-29T08:23:28.058Z</time></trkpt><trkpt lat="43.0316644" lon="-8.5458431"><ele>333.5</ele><time>2026-03-29T08:23:29.058Z</time></trkpt><trkpt lat="43.0314354" lon="-8.5459628"><ele>332.0</ele><time>2026-03-29T08:23:30.059Z</time></trkpt><trkpt lat="43.0312043" lon="-8.5460811"><ele>332.0</ele><time>2026-03-29T08:23:31.059Z</time></trkpt><trkpt lat="43.0309752" lon="-8.5461981"><ele>332.0</ele><time>2026-03-29T08:23:32.059Z</time></trkpt><trkpt lat="43.0307459" lon="-8.5463197"><ele>332.0</ele><time>2026-03-29T08:23:33.058Z</time></trkpt><trkpt lat="43.0305174" lon="-8.5464416"><ele>332.0</ele><time>2026-03-29T08:23:34.058Z</time></trkpt><trkpt lat="43.0302887" lon="-8.5465577"><ele>332.0</ele><time>2026-03-29T08:23:35.058Z</time></trkpt><trkpt lat="43.0300624" lon="-8.5466755"><ele>332.0</ele><time>2026-03-29T08:23:36.059Z</time></trkpt><trkpt lat="43.0298378" lon="-8.5467926"><ele>331.0</ele><time>2026-03-29T08:23:37.059Z</time></trkpt><trkpt lat="43.0296143" lon="-8.5469059"><ele>330.0</ele><time>2026-03-29T08:23:38.059Z</time></trkpt><trkpt lat="43.0293912" lon="-8.5470131"><ele>329.5</ele><time>2026-03-29T08:23:39.059Z</time></trkpt><trkpt lat="43.0291629" lon="-8.5471129"><ele>329.0</ele><time>2026-03-29T08:23:40.059Z</time></trkpt><trkpt lat="43.0289307" lon="-8.547203"><ele>327.0</ele><time>2026-03-29T08:23:41.059Z</time></trkpt><trkpt lat="43.0286933" lon="-8.547285"><ele>325.0</ele><time>2026-03-29T08:23:42.058Z</time></trkpt><trkpt lat="43.0284499" lon="-8.5473629"><ele>322.5</ele><time>2026-03-29T08:23:43.058Z</time></trkpt><trkpt lat="43.0282084" lon="-8.5474422"><ele>320.0</ele><time>2026-03-29T08:23:44.059Z</time></trkpt><trkpt lat="43.0279615" lon="-8.5475271"><ele>320.0</ele><time>2026-03-29T08:23:45.059Z</time></trkpt><trkpt lat="43.0277123" lon="-8.5476102"><ele>320.0</ele><time>2026-03-29T08:23:46.058Z</time></trkpt><trkpt lat="43.0274557" lon="-8.547696"><ele>318.0</ele><time>2026-03-29T08:23:47.058Z</time></trkpt><trkpt lat="43.0271992" lon="-8.5477833"><ele>316.0</ele><time>2026-03-29T08:23:48.058Z</time></trkpt><trkpt lat="43.0269357" lon="-8.5478694"><ele>316.0</ele><time>2026-03-29T08:23:49.059Z</time></trkpt><trkpt lat="43.0266764" lon="-8.5479562"><ele>316.0</ele><time>2026-03-29T08:23:50.058Z</time></trkpt><trkpt lat="43.0264121" lon="-8.5480452"><ele>313.0</ele><time>2026-03-29T08:23:51.058Z</time></trkpt><trkpt lat="43.026146" lon="-8.54813"><ele>310.0</ele><time>2026-03-29T08:23:52.059Z</time></trkpt><trkpt lat="43.0258801" lon="-8.5482196"><ele>309.5</ele><time>2026-03-29T08:23:53.059Z</time></trkpt><trkpt lat="43.0256106" lon="-8.5483026"><ele>309.0</ele><time>2026-03-29T08:23:54.058Z</time></trkpt><trkpt lat="43.0253411" lon="-8.5483902"><ele>309.0</ele><time>2026-03-29T08:23:55.058Z</time></trkpt><trkpt lat="43.0250655" lon="-8.5484756"><ele>309.0</ele><time>2026-03-29T08:23:56.059Z</time></trkpt><trkpt lat="43.0247891" lon="-8.5485629"><ele>308.5</ele><time>2026-03-29T08:23:57.059Z</time></trkpt><trkpt lat="43.0245159" lon="-8.5486535"><ele>308.0</ele><time>2026-03-29T08:23:58.059Z</time></trkpt><trkpt lat="43.0242457" lon="-8.5487463"><ele>306.5</ele><time>2026-03-29T08:23:59.058Z</time></trkpt><trkpt lat="43.023976" lon="-8.5488435"><ele>305.0</ele><time>2026-03-29T08:24:00.059Z</time></trkpt><trkpt lat="43.023709" lon="-8.5489341"><ele>305.0</ele><time>2026-03-29T08:24:01.059Z</time></trkpt><trkpt lat="43.0234395" lon="-8.5490169"><ele>305.0</ele><time>2026-03-29T08:24:02.059Z</time></trkpt><trkpt lat="43.0231714" lon="-8.5490999"><ele>307.5</ele><time>2026-03-29T08:24:03.058Z</time></trkpt><trkpt lat="43.0229024" lon="-8.5491837"><ele>310.0</ele><time>2026-03-29T08:24:04.058Z</time></trkpt><trkpt lat="43.0226366" lon="-8.549275"><ele>314.0</ele><time>2026-03-29T08:24:05.059Z</time></trkpt><trkpt lat="43.0223743" lon="-8.5493629"><ele>318.0</ele><time>2026-03-29T08:24:06.058Z</time></trkpt><trkpt lat="43.0221125" lon="-8.5494493"><ele>318.0</ele><time>2026-03-29T08:24:07.058Z</time></trkpt><trkpt lat="43.0218527" lon="-8.5495313"><ele>318.0</ele><time>2026-03-29T08:24:08.059Z</time></trkpt><trkpt lat="43.0215972" lon="-8.5496195"><ele>317.5</ele><time>2026-03-29T08:24:09.058Z</time></trkpt><trkpt lat="43.0213395" lon="-8.5497021"><ele>317.0</ele><time>2026-03-29T08:24:10.058Z</time></trkpt><trkpt lat="43.0210967" lon="-8.5497975"><ele>317.0</ele><time>2026-03-29T08:24:11.059Z</time></trkpt><trkpt lat="43.0208562" lon="-8.5499094"><ele>317.0</ele><time>2026-03-29T08:24:12.058Z</time></trkpt><trkpt lat="43.0206175" lon="-8.5500285"><ele>322.0</ele><time>2026-03-29T08:24:13.058Z</time></trkpt><trkpt lat="43.0203781" lon="-8.5501556"><ele>327.0</ele><time>2026-03-29T08:24:14.059Z</time></trkpt><trkpt lat="43.0201434" lon="-8.5502784"><ele>326.0</ele><time>2026-03-29T08:24:15.059Z</time></trkpt><trkpt lat="43.0199125" lon="-8.5504028"><ele>325.0</ele><time>2026-03-29T08:24:16.059Z</time></trkpt><trkpt lat="43.0196781" lon="-8.5505194"><ele>325.0</ele><time>2026-03-29T08:24:17.059Z</time></trkpt><trkpt lat="43.0194445" lon="-8.5506301"><ele>325.0</ele><time>2026-03-29T08:24:18.059Z</time></trkpt><trkpt lat="43.0192095" lon="-8.5507352"><ele>329.5</ele><time>2026-03-29T08:24:19.058Z</time></trkpt><trkpt lat="43.0189752" lon="-8.5508332"><ele>334.0</ele><time>2026-03-29T08:24:20.059Z</time></trkpt><trkpt lat="43.0187451" lon="-8.5509331"><ele>334.0</ele><time>2026-03-29T08:24:21.059Z</time></trkpt><trkpt lat="43.018515" lon="-8.5510295"><ele>334.0</ele><time>2026-03-29T08:24:22.058Z</time></trkpt><trkpt lat="43.0182836" lon="-8.5511292"><ele>331.5</ele><time>2026-03-29T08:24:23.058Z</time></trkpt><trkpt lat="43.0180516" lon="-8.5512331"><ele>329.0</ele><time>2026-03-29T08:24:24.059Z</time></trkpt><trkpt lat="43.0178177" lon="-8.55134"><ele>329.0</ele><time>2026-03-29T08:24:25.058Z</time></trkpt><trkpt lat="43.0175856" lon="-8.551455"><ele>329.0</ele><time>2026-03-29T08:24:26.058Z</time></trkpt><trkpt lat="43.017356" lon="-8.5515916"><ele>333.5</ele><time>2026-03-29T08:24:27.059Z</time></trkpt><trkpt lat="43.0171326" lon="-8.5517493"><ele>338.0</ele><time>2026-03-29T08:24:28.058Z</time></trkpt><trkpt lat="43.0169158" lon="-8.5519341"><ele>338.5</ele><time>2026-03-29T08:24:29.058Z</time></trkpt><trkpt lat="43.0167058" lon="-8.5521283"><ele>339.0</ele><time>2026-03-29T08:24:30.058Z</time></trkpt><trkpt lat="43.0164969" lon="-8.5523409"><ele>339.0</ele><time>2026-03-29T08:24:31.058Z</time></trkpt><trkpt lat="43.0162896" lon="-8.5525566"><ele>339.0</ele><time>2026-03-29T08:24:32.058Z</time></trkpt><trkpt lat="43.0160786" lon="-8.5527677"><ele>338.0</ele><time>2026-03-29T08:24:33.059Z</time></trkpt><trkpt lat="43.0158673" lon="-8.5529727"><ele>337.0</ele><time>2026-03-29T08:24:34.059Z</time></trkpt><trkpt lat="43.0156502" lon="-8.5531543"><ele>339.5</ele><time>2026-03-29T08:24:35.058Z</time></trkpt><trkpt lat="43.0154258" lon="-8.5532842"><ele>342.0</ele><time>2026-03-29T08:24:36.059Z</time></trkpt><trkpt lat="43.0151924" lon="-8.5533685"><ele>344.0</ele><time>2026-03-29T08:24:37.058Z</time></trkpt><trkpt lat="43.0149423" lon="-8.5534086"><ele>346.0</ele><time>2026-03-29T08:24:38.058Z</time></trkpt><trkpt lat="43.0146952" lon="-8.553408"><ele>346.0</ele><time>2026-03-29T08:24:39.058Z</time></trkpt><trkpt lat="43.0144403" lon="-8.5534099"><ele>346.0</ele><time>2026-03-29T08:24:40.058Z</time></trkpt><trkpt lat="43.0141903" lon="-8.5534349"><ele>348.5</ele><time>2026-03-29T08:24:41.058Z</time></trkpt><trkpt lat="43.0139467" lon="-8.5535119"><ele>351.0</ele><time>2026-03-29T08:24:42.058Z</time></trkpt><trkpt lat="43.013711" lon="-8.553634"><ele>353.0</ele><time>2026-03-29T08:24:43.058Z</time></trkpt><trkpt lat="43.0134736" lon="-8.5537746"><ele>355.0</ele><time>2026-03-29T08:24:44.058Z</time></trkpt><trkpt lat="43.0132507" lon="-8.553959"><ele>355.0</ele><time>2026-03-29T08:24:45.059Z</time></trkpt><trkpt lat="43.0130296" lon="-8.554138"><ele>355.0</ele><time>2026-03-29T08:24:46.059Z</time></trkpt><trkpt lat="43.0128042" lon="-8.5543238"><ele>355.0</ele><time>2026-03-29T08:24:47.058Z</time></trkpt><trkpt lat="43.0125834" lon="-8.5545041"><ele>355.0</ele><time>2026-03-29T08:24:48.058Z</time></trkpt><trkpt lat="43.0123616" lon="-8.5546918"><ele>354.66666666666663</ele><time>2026-03-29T08:24:49.058Z</time></trkpt><trkpt lat="43.012179" lon="-8.5548456"><ele>354.3333333333333</ele><time>2026-03-29T08:24:50.058Z</time></trkpt><trkpt lat="43.0119943" lon="-8.554994"><ele>354.0</ele><time>2026-03-29T08:24:51.058Z</time></trkpt><trkpt lat="43.0118178" lon="-8.5551418"><ele>353.3333333333333</ele><time>2026-03-29T08:24:52.058Z</time></trkpt><trkpt lat="43.0116488" lon="-8.5552828"><ele>352.66666666666663</ele><time>2026-03-29T08:24:53.058Z</time></trkpt><trkpt lat="43.0114839" lon="-8.5554128"><ele>352.0</ele><time>2026-03-29T08:24:54.058Z</time></trkpt><trkpt lat="43.0113408" lon="-8.5555295"><ele>351.6</ele><time>2026-03-29T08:24:55.059Z</time></trkpt><trkpt lat="43.0112107" lon="-8.5556342"><ele>351.20000000000005</ele><time>2026-03-29T08:24:56.059Z</time></trkpt><trkpt lat="43.0111173" lon="-8.5557126"><ele>350.8</ele><time>2026-03-29T08:24:57.059Z</time></trkpt><trkpt lat="43.0110566" lon="-8.5557726"><ele>350.4</ele><time>2026-03-29T08:24:58.059Z</time></trkpt><trkpt lat="43.0110041" lon="-8.5558275"><ele>350.0</ele><time>2026-03-29T08:25:00.059Z</time></trkpt><trkpt lat="43.0109496" lon="-8.5559006"><ele>350.0</ele><time>2026-03-29T08:25:13.058Z</time></trkpt><trkpt lat="43.0109034" lon="-8.5560105"><ele>350.0</ele><time>2026-03-29T08:25:14.058Z</time></trkpt><trkpt lat="43.0108555" lon="-8.5561597"><ele>350.0</ele><time>2026-03-29T08:25:15.058Z</time></trkpt><trkpt lat="43.0107941" lon="-8.5563396"><ele>350.0</ele><time>2026-03-29T08:25:16.058Z</time></trkpt><trkpt lat="43.010717" lon="-8.5565741"><ele>350.0</ele><time>2026-03-29T08:25:17.059Z</time></trkpt><trkpt lat="43.0106218" lon="-8.5568434"><ele>350.0</ele><time>2026-03-29T08:25:18.059Z</time></trkpt><trkpt lat="43.0105226" lon="-8.557134"><ele>351.0</ele><time>2026-03-29T08:25:19.058Z</time></trkpt><trkpt lat="43.0104192" lon="-8.5574435"><ele>352.0</ele><time>2026-03-29T08:25:20.058Z</time></trkpt><trkpt lat="43.0103135" lon="-8.5577382"><ele>353.5</ele><time>2026-03-29T08:25:21.059Z</time></trkpt><trkpt lat="43.0101736" lon="-8.5580049"><ele>355.0</ele><time>2026-03-29T08:25:22.059Z</time></trkpt><trkpt lat="43.0100244" lon="-8.5582464"><ele>353.0</ele><time>2026-03-29T08:25:23.058Z</time></trkpt><trkpt lat="43.0098045" lon="-8.5584601"><ele>351.0</ele><time>2026-03-29T08:25:24.059Z</time></trkpt><trkpt lat="43.0096085" lon="-8.5586507"><ele>351.3333333333333</ele><time>2026-03-29T08:25:25.058Z</time></trkpt><trkpt lat="43.0094242" lon="-8.5588242"><ele>351.66666666666663</ele><time>2026-03-29T08:25:26.058Z</time></trkpt><trkpt lat="43.009255" lon="-8.559"><ele>352.0</ele><time>2026-03-29T08:25:27.058Z</time></trkpt><trkpt lat="43.0090837" lon="-8.5591738"><ele>352.0</ele><time>2026-03-29T08:25:28.058Z</time></trkpt><trkpt lat="43.0089182" lon="-8.5593412"><ele>352.0</ele><time>2026-03-29T08:25:29.059Z</time></trkpt><trkpt lat="43.0087552" lon="-8.5595052"><ele>352.0</ele><time>2026-03-29T08:25:30.059Z</time></trkpt><trkpt lat="43.008591" lon="-8.559667"><ele>351.66666666666663</ele><time>2026-03-29T08:25:31.058Z</time></trkpt><trkpt lat="43.0084324" lon="-8.5598287"><ele>351.3333333333333</ele><time>2026-03-29T08:25:32.058Z</time></trkpt><trkpt lat="43.0082746" lon="-8.5599845"><ele>351.0</ele><time>2026-03-29T08:25:33.059Z</time></trkpt><trkpt lat="43.0081146" lon="-8.560145"><ele>351.0</ele><time>2026-03-29T08:25:34.058Z</time></trkpt><trkpt lat="43.0079589" lon="-8.5603128"><ele>351.0</ele><time>2026-03-29T08:25:35.059Z</time></trkpt><trkpt lat="43.0077957" lon="-8.5604819"><ele>351.0</ele><time>2026-03-29T08:25:36.059Z</time></trkpt><trkpt lat="43.0076321" lon="-8.5606537"><ele>349.6666666666667</ele><time>2026-03-29T08:25:37.058Z</time></trkpt><trkpt lat="43.0074687" lon="-8.5608245"><ele>348.33333333333337</ele><time>2026-03-29T08:25:38.058Z</time></trkpt><trkpt lat="43.0073114" lon="-8.5609868"><ele>347.0</ele><time>2026-03-29T08:25:39.058Z</time></trkpt><trkpt lat="43.0071561" lon="-8.561142"><ele>346.33333333333337</ele><time>2026-03-29T08:25:40.058Z</time></trkpt><trkpt lat="43.0070078" lon="-8.5612949"><ele>345.6666666666667</ele><time>2026-03-29T08:25:41.058Z</time></trkpt><trkpt lat="43.0068633" lon="-8.56144"><ele>345.0</ele><time>2026-03-29T08:25:42.059Z</time></trkpt><trkpt lat="43.0067138" lon="-8.5615899"><ele>342.6666666666667</ele><time>2026-03-29T08:25:43.058Z</time></trkpt><trkpt lat="43.0065702" lon="-8.5617393"><ele>340.33333333333337</ele><time>2026-03-29T08:25:44.058Z</time></trkpt><trkpt lat="43.0064267" lon="-8.5618914"><ele>338.0</ele><time>2026-03-29T08:25:45.058Z</time></trkpt><trkpt lat="43.0062835" lon="-8.5620394"><ele>336.6666666666667</ele><time>2026-03-29T08:25:46.058Z</time></trkpt><trkpt lat="43.0061414" lon="-8.5621819"><ele>335.3333333333333</ele><time>2026-03-29T08:25:47.058Z</time></trkpt><trkpt lat="43.0060047" lon="-8.5623251"><ele>334.0</ele><time>2026-03-29T08:25:48.059Z</time></trkpt><trkpt lat="43.0058677" lon="-8.562468"><ele>334.3333333333333</ele><time>2026-03-29T08:25:49.058Z</time></trkpt><trkpt lat="43.0057353" lon="-8.5626094"><ele>334.6666666666667</ele><time>2026-03-29T08:25:50.058Z</time></trkpt><trkpt lat="43.0056098" lon="-8.5627464"><ele>335.0</ele><time>2026-03-29T08:25:51.059Z</time></trkpt><trkpt lat="43.0054871" lon="-8.5628716"><ele>335.0</ele><time>2026-03-29T08:25:52.058Z</time></trkpt><trkpt lat="43.0053718" lon="-8.5629929"><ele>335.0</ele><time>2026-03-29T08:25:53.058Z</time></trkpt><trkpt lat="43.0052758" lon="-8.5631366"><ele>335.0</ele><time>2026-03-29T08:25:54.058Z</time></trkpt><trkpt lat="43.005191" lon="-8.5632897"><ele>335.0</ele><time>2026-03-29T08:25:55.059Z</time></trkpt><trkpt lat="43.0051365" lon="-8.5634933"><ele>335.0</ele><time>2026-03-29T08:25:56.059Z</time></trkpt><trkpt lat="43.0050822" lon="-8.5636952"><ele>335.0</ele><time>2026-03-29T08:25:57.058Z</time></trkpt><trkpt lat="43.0050231" lon="-8.563904"><ele>335.0</ele><time>2026-03-29T08:25:58.058Z</time></trkpt><trkpt lat="43.0049597" lon="-8.564113"><ele>336.0</ele><time>2026-03-29T08:25:59.058Z</time></trkpt><trkpt lat="43.0048925" lon="-8.5643251"><ele>337.0</ele><time>2026-03-29T08:26:00.058Z</time></trkpt><trkpt lat="43.0048287" lon="-8.5645347"><ele>338.0</ele><time>2026-03-29T08:26:01.059Z</time></trkpt><trkpt lat="43.0047652" lon="-8.5647381"><ele>340.6666666666667</ele><time>2026-03-29T08:26:02.059Z</time></trkpt><trkpt lat="43.0047076" lon="-8.564933"><ele>343.3333333333333</ele><time>2026-03-29T08:26:03.058Z</time></trkpt><trkpt lat="43.0046515" lon="-8.5651222"><ele>346.0</ele><time>2026-03-29T08:26:04.059Z</time></trkpt><trkpt lat="43.0045966" lon="-8.5653121"><ele>344.25</ele><time>2026-03-29T08:26:05.058Z</time></trkpt><trkpt lat="43.0045422" lon="-8.5654997"><ele>342.5</ele><time>2026-03-29T08:26:06.058Z</time></trkpt><trkpt lat="43.0044846" lon="-8.5656888"><ele>340.75</ele><time>2026-03-29T08:26:07.058Z</time></trkpt><trkpt lat="43.0044331" lon="-8.5658738"><ele>339.0</ele><time>2026-03-29T08:26:08.059Z</time></trkpt><trkpt lat="43.0043782" lon="-8.566064"><ele>337.6666666666667</ele><time>2026-03-29T08:26:09.058Z</time></trkpt><trkpt lat="43.0043164" lon="-8.5662645"><ele>336.33333333333337</ele><time>2026-03-29T08:26:10.058Z</time></trkpt><trkpt lat="43.0042489" lon="-8.5664786"><ele>335.0</ele><time>2026-03-29T08:26:11.058Z</time></trkpt><trkpt lat="43.0041885" lon="-8.5666912"><ele>335.6666666666667</ele><time>2026-03-29T08:26:12.059Z</time></trkpt><trkpt lat="43.0041311" lon="-8.5668903"><ele>336.3333333333333</ele><time>2026-03-29T08:26:13.058Z</time></trkpt><trkpt lat="43.0040763" lon="-8.5670815"><ele>337.0</ele><time>2026-03-29T08:26:14.058Z</time></trkpt><trkpt lat="43.0040196" lon="-8.5672778"><ele>337.0</ele><time>2026-03-29T08:26:15.058Z</time></trkpt><trkpt lat="43.0039596" lon="-8.5674725"><ele>337.0</ele><time>2026-03-29T08:26:16.059Z</time></trkpt><trkpt lat="43.0038977" lon="-8.5676647"><ele>337.0</ele><time>2026-03-29T08:26:17.059Z</time></trkpt><trkpt lat="43.0037833" lon="-8.5678495"><ele>337.66666666666663</ele><time>2026-03-29T08:26:18.059Z</time></trkpt><trkpt lat="43.0036571" lon="-8.5680264"><ele>338.3333333333333</ele><time>2026-03-29T08:26:19.058Z</time></trkpt><trkpt lat="43.0035269" lon="-8.5682064"><ele>339.0</ele><time>2026-03-29T08:26:20.059Z</time></trkpt><trkpt lat="43.0034001" lon="-8.5683954"><ele>339.0</ele><time>2026-03-29T08:26:21.059Z</time></trkpt><trkpt lat="43.0032664" lon="-8.5685879"><ele>339.0</ele><time>2026-03-29T08:26:22.059Z</time></trkpt><trkpt lat="43.0031379" lon="-8.5687828"><ele>339.0</ele><time>2026-03-29T08:26:23.058Z</time></trkpt><trkpt lat="43.0030137" lon="-8.5689729"><ele>339.0</ele><time>2026-03-29T08:26:24.058Z</time></trkpt><trkpt lat="43.0028998" lon="-8.5691411"><ele>339.0</ele><time>2026-03-29T08:26:25.058Z</time></trkpt><trkpt lat="43.0027784" lon="-8.5692854"><ele>339.0</ele><time>2026-03-29T08:26:26.058Z</time></trkpt><trkpt lat="43.0026552" lon="-8.5693957"><ele>339.0</ele><time>2026-03-29T08:26:27.059Z</time></trkpt><trkpt lat="43.0025105" lon="-8.5694532"><ele>339.0</ele><time>2026-03-29T08:26:28.058Z</time></trkpt><trkpt lat="43.0023417" lon="-8.5694572"><ele>339.0</ele><time>2026-03-29T08:26:29.058Z</time></trkpt><trkpt lat="43.002156" lon="-8.5694472"><ele>336.6666666666667</ele><time>2026-03-29T08:26:30.058Z</time></trkpt><trkpt lat="43.0019832" lon="-8.569434"><ele>334.33333333333337</ele><time>2026-03-29T08:26:31.058Z</time></trkpt><trkpt lat="43.0018168" lon="-8.5693972"><ele>332.0</ele><time>2026-03-29T08:26:32.058Z</time></trkpt><trkpt lat="43.0016579" lon="-8.5693231"><ele>328.6666666666667</ele><time>2026-03-29T08:26:33.059Z</time></trkpt><trkpt lat="43.001506" lon="-8.5692146"><ele>325.3333333333333</ele><time>2026-03-29T08:26:34.058Z</time></trkpt><trkpt lat="43.0013547" lon="-8.5691024"><ele>322.0</ele><time>2026-03-29T08:26:35.059Z</time></trkpt><trkpt lat="43.001192" lon="-8.5688872"><ele>322.0</ele><time>2026-03-29T08:26:36.058Z</time></trkpt><trkpt lat="43.001037" lon="-8.5686878"><ele>322.0</ele><time>2026-03-29T08:26:37.058Z</time></trkpt><trkpt lat="43.0008819" lon="-8.5684818"><ele>322.0</ele><time>2026-03-29T08:26:38.058Z</time></trkpt><trkpt lat="43.0007321" lon="-8.568291"><ele>319.0</ele><time>2026-03-29T08:26:39.059Z</time></trkpt><trkpt lat="43.0005826" lon="-8.568103"><ele>316.0</ele><time>2026-03-29T08:26:40.058Z</time></trkpt><trkpt lat="43.0004329" lon="-8.5679263"><ele>313.0</ele><time>2026-03-29T08:26:41.059Z</time></trkpt><trkpt lat="43.0002914" lon="-8.5677655"><ele>312.66666666666663</ele><time>2026-03-29T08:26:42.059Z</time></trkpt><trkpt lat="43.0001686" lon="-8.5676004"><ele>312.3333333333333</ele><time>2026-03-29T08:26:43.059Z</time></trkpt><trkpt lat="43.0000719" lon="-8.5674133"><ele>312.0</ele><time>2026-03-29T08:26:44.058Z</time></trkpt><trkpt lat="42.9999974" lon="-8.5671892"><ele>312.0</ele><time>2026-03-29T08:26:45.059Z</time></trkpt><trkpt lat="42.9999473" lon="-8.5669413"><ele>312.0</ele><time>2026-03-29T08:26:46.058Z</time></trkpt><trkpt lat="42.9999039" lon="-8.5666756"><ele>312.0</ele><time>2026-03-29T08:26:47.058Z</time></trkpt><trkpt lat="42.9998671" lon="-8.5664091"><ele>311.6666666666667</ele><time>2026-03-29T08:26:48.058Z</time></trkpt><trkpt lat="42.9998328" lon="-8.5661521"><ele>311.33333333333337</ele><time>2026-03-29T08:26:49.059Z</time></trkpt><trkpt lat="42.9997981" lon="-8.5658995"><ele>311.0</ele><time>2026-03-29T08:26:50.059Z</time></trkpt><trkpt lat="42.9997523" lon="-8.5656583"><ele>311.0</ele><time>2026-03-29T08:26:51.058Z</time></trkpt><trkpt lat="42.9996832" lon="-8.5654335"><ele>311.0</ele><time>2026-03-29T08:26:52.059Z</time></trkpt><trkpt lat="42.9995893" lon="-8.5652284"><ele>311.0</ele><time>2026-03-29T08:26:53.058Z</time></trkpt><trkpt lat="42.9994764" lon="-8.56502"><ele>310.33333333333337</ele><time>2026-03-29T08:26:54.058Z</time></trkpt><trkpt lat="42.999351" lon="-8.5648132"><ele>309.6666666666667</ele><time>2026-03-29T08:26:55.059Z</time></trkpt><trkpt lat="42.9992188" lon="-8.5645968"><ele>309.0</ele><time>2026-03-29T08:26:56.058Z</time></trkpt><trkpt lat="42.9990853" lon="-8.564382"><ele>309.0</ele><time>2026-03-29T08:26:57.059Z</time></trkpt><trkpt lat="42.9989463" lon="-8.5641664"><ele>309.0</ele><time>2026-03-29T08:26:58.058Z</time></trkpt><trkpt lat="42.9988054" lon="-8.5639463"><ele>309.0</ele><time>2026-03-29T08:26:59.058Z</time></trkpt><trkpt lat="42.9986604" lon="-8.5637208"><ele>308.6666666666667</ele><time>2026-03-29T08:27:00.059Z</time></trkpt><trkpt lat="42.9985184" lon="-8.5634935"><ele>308.33333333333337</ele><time>2026-03-29T08:27:01.058Z</time></trkpt><trkpt lat="42.998378" lon="-8.5632767"><ele>308.0</ele><time>2026-03-29T08:27:02.059Z</time></trkpt><trkpt lat="42.9982227" lon="-8.563085"><ele>304.6666666666667</ele><time>2026-03-29T08:27:03.059Z</time></trkpt><trkpt lat="42.9980449" lon="-8.5629249"><ele>301.3333333333333</ele><time>2026-03-29T08:27:04.058Z</time></trkpt><trkpt lat="42.9978737" lon="-8.5627705"><ele>298.0</ele><time>2026-03-29T08:27:05.058Z</time></trkpt><trkpt lat="42.997685" lon="-8.5626341"><ele>299.0</ele><time>2026-03-29T08:27:06.058Z</time></trkpt><trkpt lat="42.9974902" lon="-8.5624999"><ele>300.0</ele><time>2026-03-29T08:27:07.058Z</time></trkpt><trkpt lat="42.9973186" lon="-8.5623849"><ele>301.0</ele><time>2026-03-29T08:27:08.059Z</time></trkpt><trkpt lat="42.9971405" lon="-8.5622655"><ele>301.0</ele><time>2026-03-29T08:27:09.058Z</time></trkpt><trkpt lat="42.9969629" lon="-8.5621447"><ele>301.0</ele><time>2026-03-29T08:27:10.058Z</time></trkpt><trkpt lat="42.9967893" lon="-8.5620146"><ele>301.0</ele><time>2026-03-29T08:27:11.058Z</time></trkpt><trkpt lat="42.9966311" lon="-8.5618527"><ele>295.3333333333333</ele><time>2026-03-29T08:27:12.058Z</time></trkpt><trkpt lat="42.996494" lon="-8.5616476"><ele>289.6666666666667</ele><time>2026-03-29T08:27:13.059Z</time></trkpt><trkpt lat="42.9963706" lon="-8.561413"><ele>284.0</ele><time>2026-03-29T08:27:14.058Z</time></trkpt><trkpt lat="42.9962563" lon="-8.5611799"><ele>282.33333333333337</ele><time>2026-03-29T08:27:15.059Z</time></trkpt><trkpt lat="42.9961492" lon="-8.5609469"><ele>280.6666666666667</ele><time>2026-03-29T08:27:16.059Z</time></trkpt><trkpt lat="42.9960474" lon="-8.5607274"><ele>279.0</ele><time>2026-03-29T08:27:17.058Z</time></trkpt><trkpt lat="42.9959267" lon="-8.5605336"><ele>277.6666666666667</ele><time>2026-03-29T08:27:18.058Z</time></trkpt><trkpt lat="42.9957855" lon="-8.5603671"><ele>276.33333333333337</ele><time>2026-03-29T08:27:19.058Z</time></trkpt><trkpt lat="42.9956284" lon="-8.5602211"><ele>275.0</ele><time>2026-03-29T08:27:20.058Z</time></trkpt><trkpt lat="42.9954436" lon="-8.5601168"><ele>274.6666666666667</ele><time>2026-03-29T08:27:21.058Z</time></trkpt><trkpt lat="42.995244" lon="-8.560033"><ele>274.3333333333333</ele><time>2026-03-29T08:27:22.058Z</time></trkpt><trkpt lat="42.9950435" lon="-8.5599688"><ele>274.0</ele><time>2026-03-29T08:27:23.058Z</time></trkpt><trkpt lat="42.9948077" lon="-8.5598848"><ele>271.5</ele><time>2026-03-29T08:27:24.058Z</time></trkpt><trkpt lat="42.9945762" lon="-8.5598041"><ele>269.0</ele><time>2026-03-29T08:27:25.058Z</time></trkpt><trkpt lat="42.9943375" lon="-8.5597197"><ele>266.0</ele><time>2026-03-29T08:27:26.059Z</time></trkpt><trkpt lat="42.9941019" lon="-8.5596355"><ele>263.0</ele><time>2026-03-29T08:27:27.058Z</time></trkpt><trkpt lat="42.9938635" lon="-8.5595519"><ele>263.0</ele><time>2026-03-29T08:27:28.058Z</time></trkpt><trkpt lat="42.9936274" lon="-8.5594719"><ele>263.0</ele><time>2026-03-29T08:27:29.058Z</time></trkpt><trkpt lat="42.9933924" lon="-8.5593908"><ele>258.0</ele><time>2026-03-29T08:27:30.059Z</time></trkpt><trkpt lat="42.9931567" lon="-8.5593059"><ele>253.0</ele><time>2026-03-29T08:27:31.059Z</time></trkpt><trkpt lat="42.9929229" lon="-8.5592198"><ele>253.0</ele><time>2026-03-29T08:27:32.059Z</time></trkpt><trkpt lat="42.9926958" lon="-8.5591365"><ele>253.0</ele><time>2026-03-29T08:27:33.058Z</time></trkpt><trkpt lat="42.9924691" lon="-8.559087"><ele>250.5</ele><time>2026-03-29T08:27:34.059Z</time></trkpt><trkpt lat="42.9922375" lon="-8.5590904"><ele>248.0</ele><time>2026-03-29T08:27:35.058Z</time></trkpt><trkpt lat="42.9920015" lon="-8.5591342"><ele>248.0</ele><time>2026-03-29T08:27:36.059Z</time></trkpt><trkpt lat="42.9917664" lon="-8.5592108"><ele>248.0</ele><time>2026-03-29T08:27:37.059Z</time></trkpt><trkpt lat="42.9915234" lon="-8.5592903"><ele>247.0</ele><time>2026-03-29T08:27:38.058Z</time></trkpt><trkpt lat="42.9912737" lon="-8.5593662"><ele>246.0</ele><time>2026-03-29T08:27:39.058Z</time></trkpt><trkpt lat="42.9910219" lon="-8.55944"><ele>246.0</ele><time>2026-03-29T08:27:40.059Z</time></trkpt><trkpt lat="42.990772" lon="-8.5595221"><ele>246.0</ele><time>2026-03-29T08:27:41.058Z</time></trkpt><trkpt lat="42.9905289" lon="-8.5596051"><ele>246.0</ele><time>2026-03-29T08:27:42.059Z</time></trkpt><trkpt lat="42.9902926" lon="-8.5596871"><ele>246.0</ele><time>2026-03-29T08:27:43.059Z</time></trkpt><trkpt lat="42.9900652" lon="-8.5597664"><ele>246.33333333333331</ele><time>2026-03-29T08:27:44.059Z</time></trkpt><trkpt lat="42.9898467" lon="-8.5598387"><ele>246.66666666666666</ele><time>2026-03-29T08:27:45.059Z</time></trkpt><trkpt lat="42.9896331" lon="-8.5599088"><ele>247.0</ele><time>2026-03-29T08:27:46.059Z</time></trkpt><trkpt lat="42.9894237" lon="-8.5599631"><ele>247.0</ele><time>2026-03-29T08:27:47.058Z</time></trkpt><trkpt lat="42.989214" lon="-8.5599728"><ele>247.0</ele><time>2026-03-29T08:27:48.058Z</time></trkpt><trkpt lat="42.9889974" lon="-8.5599763"><ele>247.0</ele><time>2026-03-29T08:27:49.058Z</time></trkpt><trkpt lat="42.9888104" lon="-8.5599488"><ele>246.33333333333331</ele><time>2026-03-29T08:27:50.059Z</time></trkpt><trkpt lat="42.9886248" lon="-8.5599227"><ele>245.66666666666669</ele><time>2026-03-29T08:27:51.058Z</time></trkpt><trkpt lat="42.9884518" lon="-8.5599029"><ele>245.0</ele><time>2026-03-29T08:27:52.058Z</time></trkpt><trkpt lat="42.9882958" lon="-8.5598939"><ele>245.0</ele><time>2026-03-29T08:27:53.058Z</time></trkpt><trkpt lat="42.9881488" lon="-8.5598808"><ele>245.0</ele><time>2026-03-29T08:27:54.058Z</time></trkpt><trkpt lat="42.9879991" lon="-8.5598768"><ele>245.0</ele><time>2026-03-29T08:27:55.058Z</time></trkpt><trkpt lat="42.9878388" lon="-8.5598901"><ele>245.0</ele><time>2026-03-29T08:27:56.058Z</time></trkpt><trkpt lat="42.9876664" lon="-8.5599214"><ele>245.0</ele><time>2026-03-29T08:27:57.058Z</time></trkpt><trkpt lat="42.9874949" lon="-8.5599614"><ele>245.0</ele><time>2026-03-29T08:27:58.058Z</time></trkpt><trkpt lat="42.9873174" lon="-8.5600025"><ele>245.0</ele><time>2026-03-29T08:27:59.058Z</time></trkpt><trkpt lat="42.9871433" lon="-8.56005"><ele>245.0</ele><time>2026-03-29T08:28:00.058Z</time></trkpt><trkpt lat="42.9869726" lon="-8.5600927"><ele>245.0</ele><time>2026-03-29T08:28:01.058Z</time></trkpt><trkpt lat="42.9868012" lon="-8.5600959"><ele>245.33333333333334</ele><time>2026-03-29T08:28:02.058Z</time></trkpt><trkpt lat="42.9866329" lon="-8.5600496"><ele>245.66666666666669</ele><time>2026-03-29T08:28:03.058Z</time></trkpt><trkpt lat="42.9864662" lon="-8.5599638"><ele>246.0</ele><time>2026-03-29T08:28:04.059Z</time></trkpt><trkpt lat="42.9862988" lon="-8.5598628"><ele>246.0</ele><time>2026-03-29T08:28:05.059Z</time></trkpt><trkpt lat="42.9861279" lon="-8.5597755"><ele>246.0</ele><time>2026-03-29T08:28:06.059Z</time></trkpt><trkpt lat="42.9859583" lon="-8.5596894"><ele>246.0</ele><time>2026-03-29T08:28:07.059Z</time></trkpt><trkpt lat="42.9857923" lon="-8.559599"><ele>245.0</ele><time>2026-03-29T08:28:08.059Z</time></trkpt><trkpt lat="42.985633" lon="-8.5595151"><ele>244.0</ele><time>2026-03-29T08:28:09.058Z</time></trkpt><trkpt lat="42.9854821" lon="-8.5594471"><ele>243.0</ele><time>2026-03-29T08:28:10.059Z</time></trkpt><trkpt lat="42.9853304" lon="-8.5593928"><ele>243.0</ele><time>2026-03-29T08:28:11.058Z</time></trkpt><trkpt lat="42.9851768" lon="-8.5593474"><ele>243.0</ele><time>2026-03-29T08:28:12.058Z</time></trkpt><trkpt lat="42.9850193" lon="-8.5593137"><ele>243.0</ele><time>2026-03-29T08:28:13.059Z</time></trkpt><trkpt lat="42.9848619" lon="-8.5592862"><ele>243.0</ele><time>2026-03-29T08:28:14.059Z</time></trkpt><trkpt lat="42.984705" lon="-8.5592548"><ele>243.0</ele><time>2026-03-29T08:28:15.058Z</time></trkpt><trkpt lat="42.9845479" lon="-8.5592213"><ele>243.0</ele><time>2026-03-29T08:28:16.058Z</time></trkpt><trkpt lat="42.9843915" lon="-8.5591848"><ele>243.0</ele><time>2026-03-29T08:28:17.058Z</time></trkpt><trkpt lat="42.9842341" lon="-8.5591595"><ele>243.0</ele><time>2026-03-29T08:28:18.059Z</time></trkpt><trkpt lat="42.9840788" lon="-8.5591222"><ele>243.0</ele><time>2026-03-29T08:28:19.058Z</time></trkpt><trkpt lat="42.9839233" lon="-8.55909"><ele>243.33333333333331</ele><time>2026-03-29T08:28:20.058Z</time></trkpt><trkpt lat="42.9837652" lon="-8.5590654"><ele>243.66666666666666</ele><time>2026-03-29T08:28:21.058Z</time></trkpt><trkpt lat="42.9836064" lon="-8.5590442"><ele>244.0</ele><time>2026-03-29T08:28:22.059Z</time></trkpt><trkpt lat="42.9834543" lon="-8.5590194"><ele>245.0</ele><time>2026-03-29T08:28:23.059Z</time></trkpt><trkpt lat="42.9833018" lon="-8.5589877"><ele>246.0</ele><time>2026-03-29T08:28:24.058Z</time></trkpt><trkpt lat="42.9831517" lon="-8.5589568"><ele>247.0</ele><time>2026-03-29T08:28:25.059Z</time></trkpt><trkpt lat="42.9830009" lon="-8.5589261"><ele>247.0</ele><time>2026-03-29T08:28:26.058Z</time></trkpt><trkpt lat="42.982853" lon="-8.5588937"><ele>247.0</ele><time>2026-03-29T08:28:27.058Z</time></trkpt><trkpt lat="42.9827051" lon="-8.5588515"><ele>247.0</ele><time>2026-03-29T08:28:28.059Z</time></trkpt><trkpt lat="42.9825671" lon="-8.5588015"><ele>247.0</ele><time>2026-03-29T08:28:29.059Z</time></trkpt><trkpt lat="42.9824409" lon="-8.5587423"><ele>245.75</ele><time>2026-03-29T08:28:30.058Z</time></trkpt><trkpt lat="42.9823234" lon="-8.5586912"><ele>244.5</ele><time>2026-03-29T08:28:31.058Z</time></trkpt><trkpt lat="42.9821926" lon="-8.558616"><ele>243.25</ele><time>2026-03-29T08:28:32.058Z</time></trkpt><trkpt lat="42.9820587" lon="-8.5585318"><ele>242.0</ele><time>2026-03-29T08:28:33.058Z</time></trkpt><trkpt lat="42.9818428" lon="-8.5584025"><ele>243.33333333333334</ele><time>2026-03-29T08:28:34.058Z</time></trkpt><trkpt lat="42.981663" lon="-8.5582958"><ele>244.66666666666669</ele><time>2026-03-29T08:28:35.059Z</time></trkpt><trkpt lat="42.9814397" lon="-8.5581909"><ele>246.0</ele><time>2026-03-29T08:28:36.058Z</time></trkpt><trkpt lat="42.981245" lon="-8.5581012"><ele>246.0</ele><time>2026-03-29T08:28:37.059Z</time></trkpt><trkpt lat="42.9810686" lon="-8.5580074"><ele>246.0</ele><time>2026-03-29T08:28:38.059Z</time></trkpt><trkpt lat="42.9809116" lon="-8.5578826"><ele>246.0</ele><time>2026-03-29T08:28:39.058Z</time></trkpt><trkpt lat="42.9807732" lon="-8.5577062"><ele>244.33333333333331</ele><time>2026-03-29T08:28:40.058Z</time></trkpt><trkpt lat="42.9806531" lon="-8.5575226"><ele>242.66666666666666</ele><time>2026-03-29T08:28:41.058Z</time></trkpt><trkpt lat="42.9805373" lon="-8.5573602"><ele>241.0</ele><time>2026-03-29T08:28:42.058Z</time></trkpt><trkpt lat="42.9804179" lon="-8.5572329"><ele>241.0</ele><time>2026-03-29T08:28:43.058Z</time></trkpt><trkpt lat="42.9802757" lon="-8.5571223"><ele>241.0</ele><time>2026-03-29T08:28:44.058Z</time></trkpt><trkpt lat="42.98011" lon="-8.5570227"><ele>241.0</ele><time>2026-03-29T08:28:45.058Z</time></trkpt><trkpt lat="42.9799342" lon="-8.5569142"><ele>239.33333333333331</ele><time>2026-03-29T08:28:46.058Z</time></trkpt><trkpt lat="42.9797506" lon="-8.5567924"><ele>237.66666666666669</ele><time>2026-03-29T08:28:47.059Z</time></trkpt><trkpt lat="42.9795625" lon="-8.5566729"><ele>236.0</ele><time>2026-03-29T08:28:48.059Z</time></trkpt><trkpt lat="42.9793861" lon="-8.5565606"><ele>236.0</ele><time>2026-03-29T08:28:49.058Z</time></trkpt><trkpt lat="42.9792109" lon="-8.5564494"><ele>236.0</ele><time>2026-03-29T08:28:50.059Z</time></trkpt><trkpt lat="42.9790378" lon="-8.5563361"><ele>236.0</ele><time>2026-03-29T08:28:51.058Z</time></trkpt><trkpt lat="42.9788625" lon="-8.5562197"><ele>235.66666666666669</ele><time>2026-03-29T08:28:52.058Z</time></trkpt><trkpt lat="42.9786908" lon="-8.556101"><ele>235.33333333333331</ele><time>2026-03-29T08:28:53.058Z</time></trkpt><trkpt lat="42.9785221" lon="-8.5559852"><ele>235.0</ele><time>2026-03-29T08:28:54.058Z</time></trkpt><trkpt lat="42.9783541" lon="-8.5558694"><ele>240.0</ele><time>2026-03-29T08:28:55.058Z</time></trkpt><trkpt lat="42.9781883" lon="-8.5557515"><ele>245.0</ele><time>2026-03-29T08:28:56.059Z</time></trkpt><trkpt lat="42.9780193" lon="-8.5556398"><ele>250.0</ele><time>2026-03-29T08:28:57.058Z</time></trkpt><trkpt lat="42.9778479" lon="-8.5555501"><ele>250.0</ele><time>2026-03-29T08:28:58.058Z</time></trkpt><trkpt lat="42.9776666" lon="-8.5554947"><ele>250.0</ele><time>2026-03-29T08:28:59.058Z</time></trkpt><trkpt lat="42.9774833" lon="-8.5554747"><ele>250.0</ele><time>2026-03-29T08:29:00.059Z</time></trkpt><trkpt lat="42.9773008" lon="-8.5555044"><ele>253.0</ele><time>2026-03-29T08:29:01.059Z</time></trkpt><trkpt lat="42.9771365" lon="-8.5555567"><ele>256.0</ele><time>2026-03-29T08:29:02.058Z</time></trkpt><trkpt lat="42.9769772" lon="-8.5556025"><ele>259.0</ele><time>2026-03-29T08:29:03.058Z</time></trkpt><trkpt lat="42.9768228" lon="-8.5556075"><ele>259.0</ele><time>2026-03-29T08:29:04.058Z</time></trkpt><trkpt lat="42.9766804" lon="-8.5555859"><ele>259.0</ele><time>2026-03-29T08:29:05.059Z</time></trkpt><trkpt lat="42.9765436" lon="-8.555557"><ele>259.0</ele><time>2026-03-29T08:29:06.059Z</time></trkpt><trkpt lat="42.9764086" lon="-8.5555348"><ele>259.0</ele><time>2026-03-29T08:29:07.059Z</time></trkpt><trkpt lat="42.9762787" lon="-8.5555124"><ele>259.0</ele><time>2026-03-29T08:29:08.059Z</time></trkpt><trkpt lat="42.9761516" lon="-8.5554955"><ele>259.0</ele><time>2026-03-29T08:29:09.058Z</time></trkpt><trkpt lat="42.9760268" lon="-8.5554792"><ele>259.0</ele><time>2026-03-29T08:29:10.058Z</time></trkpt><trkpt lat="42.975911" lon="-8.5554642"><ele>259.0</ele><time>2026-03-29T08:29:11.059Z</time></trkpt><trkpt lat="42.9758024" lon="-8.5554539"><ele>258.8</ele><time>2026-03-29T08:29:12.058Z</time></trkpt><trkpt lat="42.9757032" lon="-8.5554453"><ele>258.59999999999997</ele><time>2026-03-29T08:29:13.059Z</time></trkpt><trkpt lat="42.9756101" lon="-8.5554304"><ele>258.4</ele><time>2026-03-29T08:29:14.059Z</time></trkpt><trkpt lat="42.9755112" lon="-8.5554179"><ele>258.2</ele><time>2026-03-29T08:29:15.059Z</time></trkpt><trkpt lat="42.9754066" lon="-8.5553994"><ele>258.0</ele><time>2026-03-29T08:29:16.059Z</time></trkpt><trkpt lat="42.9752981" lon="-8.5553757"><ele>255.25</ele><time>2026-03-29T08:29:17.058Z</time></trkpt><trkpt lat="42.9751835" lon="-8.5553358"><ele>252.5</ele><time>2026-03-29T08:29:18.058Z</time></trkpt><trkpt lat="42.9750637" lon="-8.5552767"><ele>249.75</ele><time>2026-03-29T08:29:19.058Z</time></trkpt><trkpt lat="42.9749446" lon="-8.5552053"><ele>247.0</ele><time>2026-03-29T08:29:20.059Z</time></trkpt><trkpt lat="42.9748272" lon="-8.5551255"><ele>247.0</ele><time>2026-03-29T08:29:21.058Z</time></trkpt><trkpt lat="42.9747092" lon="-8.5550554"><ele>247.0</ele><time>2026-03-29T08:29:22.058Z</time></trkpt><trkpt lat="42.974587" lon="-8.554997"><ele>247.0</ele><time>2026-03-29T08:29:23.058Z</time></trkpt><trkpt lat="42.9744635" lon="-8.5549481"><ele>247.0</ele><time>2026-03-29T08:29:24.058Z</time></trkpt><trkpt lat="42.9743126" lon="-8.5549078"><ele>250.33333333333331</ele><time>2026-03-29T08:29:25.059Z</time></trkpt><trkpt lat="42.9741628" lon="-8.5548888"><ele>253.66666666666669</ele><time>2026-03-29T08:29:26.059Z</time></trkpt><trkpt lat="42.9740075" lon="-8.5548845"><ele>257.0</ele><time>2026-03-29T08:29:27.059Z</time></trkpt><trkpt lat="42.9738441" lon="-8.5548803"><ele>257.0</ele><time>2026-03-29T08:29:28.059Z</time></trkpt><trkpt lat="42.973678" lon="-8.5548705"><ele>257.0</ele><time>2026-03-29T08:29:29.058Z</time></trkpt><trkpt lat="42.9735054" lon="-8.5548655"><ele>257.0</ele><time>2026-03-29T08:29:30.058Z</time></trkpt><trkpt lat="42.9733343" lon="-8.5548592"><ele>256.6666666666667</ele><time>2026-03-29T08:29:31.059Z</time></trkpt><trkpt lat="42.9731641" lon="-8.5548502"><ele>256.3333333333333</ele><time>2026-03-29T08:29:32.059Z</time></trkpt><trkpt lat="42.972996" lon="-8.5548453"><ele>256.0</ele><time>2026-03-29T08:29:33.058Z</time></trkpt><trkpt lat="42.9728329" lon="-8.5548582"><ele>256.0</ele><time>2026-03-29T08:29:34.058Z</time></trkpt><trkpt lat="42.9726723" lon="-8.5548807"><ele>256.0</ele><time>2026-03-29T08:29:35.058Z</time></trkpt><trkpt lat="42.9725152" lon="-8.5549273"><ele>256.0</ele><time>2026-03-29T08:29:36.058Z</time></trkpt><trkpt lat="42.9723634" lon="-8.5549931"><ele>254.66666666666666</ele><time>2026-03-29T08:29:37.059Z</time></trkpt><trkpt lat="42.9722204" lon="-8.5550803"><ele>253.33333333333331</ele><time>2026-03-29T08:29:38.058Z</time></trkpt><trkpt lat="42.9720859" lon="-8.5551796"><ele>252.0</ele><time>2026-03-29T08:29:39.058Z</time></trkpt><trkpt lat="42.9719583" lon="-8.5552682"><ele>252.0</ele><time>2026-03-29T08:29:40.058Z</time></trkpt><trkpt lat="42.9718243" lon="-8.555337"><ele>252.0</ele><time>2026-03-29T08:29:41.059Z</time></trkpt><trkpt lat="42.9716903" lon="-8.5553977"><ele>252.0</ele><time>2026-03-29T08:29:42.058Z</time></trkpt><trkpt lat="42.9715292" lon="-8.5553649"><ele>252.0</ele><time>2026-03-29T08:29:43.059Z</time></trkpt><trkpt lat="42.9713769" lon="-8.5553339"><ele>250.33333333333331</ele><time>2026-03-29T08:29:44.059Z</time></trkpt><trkpt lat="42.9712176" lon="-8.5552844"><ele>248.66666666666666</ele><time>2026-03-29T08:29:45.059Z</time></trkpt><trkpt lat="42.9710633" lon="-8.5552356"><ele>247.0</ele><time>2026-03-29T08:29:46.059Z</time></trkpt><trkpt lat="42.9709162" lon="-8.5551958"><ele>248.5</ele><time>2026-03-29T08:29:47.059Z</time></trkpt><trkpt lat="42.9707747" lon="-8.5551542"><ele>250.0</ele><time>2026-03-29T08:29:48.059Z</time></trkpt><trkpt lat="42.9706274" lon="-8.5551106"><ele>251.5</ele><time>2026-03-29T08:29:49.059Z</time></trkpt><trkpt lat="42.9704787" lon="-8.5550698"><ele>253.0</ele><time>2026-03-29T08:29:50.058Z</time></trkpt><trkpt lat="42.9703197" lon="-8.5550246"><ele>253.0</ele><time>2026-03-29T08:29:51.058Z</time></trkpt><trkpt lat="42.970161" lon="-8.5549841"><ele>253.0</ele><time>2026-03-29T08:29:52.059Z</time></trkpt><trkpt lat="42.969994" lon="-8.5549506"><ele>253.0</ele><time>2026-03-29T08:29:53.058Z</time></trkpt><trkpt lat="42.9698227" lon="-8.5549361"><ele>253.33333333333331</ele><time>2026-03-29T08:29:54.058Z</time></trkpt><trkpt lat="42.9696473" lon="-8.5549339"><ele>253.66666666666669</ele><time>2026-03-29T08:29:55.058Z</time></trkpt><trkpt lat="42.9694593" lon="-8.5549551"><ele>254.0</ele><time>2026-03-29T08:29:56.059Z</time></trkpt><trkpt lat="42.9692753" lon="-8.554969"><ele>252.33333333333334</ele><time>2026-03-29T08:29:57.058Z</time></trkpt><trkpt lat="42.9690877" lon="-8.5549806"><ele>250.66666666666669</ele><time>2026-03-29T08:29:58.059Z</time></trkpt><trkpt lat="42.9689032" lon="-8.5549965"><ele>249.0</ele><time>2026-03-29T08:29:59.059Z</time></trkpt><trkpt lat="42.9687177" lon="-8.5550124"><ele>249.0</ele><time>2026-03-29T08:30:00.058Z</time></trkpt><trkpt lat="42.968532" lon="-8.5550333"><ele>249.0</ele><time>2026-03-29T08:30:01.059Z</time></trkpt><trkpt lat="42.9683463" lon="-8.5550515"><ele>249.0</ele><time>2026-03-29T08:30:02.059Z</time></trkpt><trkpt lat="42.9681642" lon="-8.555066"><ele>247.33333333333331</ele><time>2026-03-29T08:30:03.058Z</time></trkpt><trkpt lat="42.9679826" lon="-8.5550807"><ele>245.66666666666666</ele><time>2026-03-29T08:30:04.058Z</time></trkpt><trkpt lat="42.9677996" lon="-8.5551002"><ele>244.0</ele><time>2026-03-29T08:30:05.058Z</time></trkpt><trkpt lat="42.9676187" lon="-8.5551184"><ele>242.0</ele><time>2026-03-29T08:30:06.058Z</time></trkpt><trkpt lat="42.967434" lon="-8.5551414"><ele>240.0</ele><time>2026-03-29T08:30:07.058Z</time></trkpt><trkpt lat="42.9672435" lon="-8.5551786"><ele>238.0</ele><time>2026-03-29T08:30:08.059Z</time></trkpt><trkpt lat="42.9670595" lon="-8.5552179"><ele>238.0</ele><time>2026-03-29T08:30:09.059Z</time></trkpt><trkpt lat="42.9668783" lon="-8.5552647"><ele>238.0</ele><time>2026-03-29T08:30:10.059Z</time></trkpt><trkpt lat="42.9666969" lon="-8.5553123"><ele>238.0</ele><time>2026-03-29T08:30:11.058Z</time></trkpt><trkpt lat="42.9665155" lon="-8.5553507"><ele>240.66666666666666</ele><time>2026-03-29T08:30:12.058Z</time></trkpt><trkpt lat="42.9663337" lon="-8.55539"><ele>243.33333333333331</ele><time>2026-03-29T08:30:13.058Z</time></trkpt><trkpt lat="42.9661588" lon="-8.5554345"><ele>246.0</ele><time>2026-03-29T08:30:14.058Z</time></trkpt><trkpt lat="42.9659855" lon="-8.5554836"><ele>242.33333333333331</ele><time>2026-03-29T08:30:15.058Z</time></trkpt><trkpt lat="42.9658152" lon="-8.5555211"><ele>238.66666666666666</ele><time>2026-03-29T08:30:16.059Z</time></trkpt><trkpt lat="42.9656479" lon="-8.5555584"><ele>235.0</ele><time>2026-03-29T08:30:17.058Z</time></trkpt><trkpt lat="42.965482" lon="-8.5556047"><ele>235.0</ele><time>2026-03-29T08:30:18.058Z</time></trkpt><trkpt lat="42.9653222" lon="-8.5556792"><ele>235.0</ele><time>2026-03-29T08:30:19.058Z</time></trkpt><trkpt lat="42.9651723" lon="-8.5557701"><ele>235.0</ele><time>2026-03-29T08:30:20.058Z</time></trkpt><trkpt lat="42.9650251" lon="-8.5558884"><ele>234.33333333333331</ele><time>2026-03-29T08:30:21.059Z</time></trkpt><trkpt lat="42.9648954" lon="-8.5560285"><ele>233.66666666666669</ele><time>2026-03-29T08:30:22.058Z</time></trkpt><trkpt lat="42.9647718" lon="-8.5561861"><ele>233.0</ele><time>2026-03-29T08:30:23.058Z</time></trkpt><trkpt lat="42.9646562" lon="-8.5563556"><ele>233.0</ele><time>2026-03-29T08:30:24.058Z</time></trkpt><trkpt lat="42.9645429" lon="-8.5565333"><ele>233.0</ele><time>2026-03-29T08:30:25.059Z</time></trkpt><trkpt lat="42.9644336" lon="-8.5567126"><ele>233.0</ele><time>2026-03-29T08:30:26.059Z</time></trkpt><trkpt lat="42.9643258" lon="-8.556893"><ele>236.0</ele><time>2026-03-29T08:30:27.058Z</time></trkpt><trkpt lat="42.9642175" lon="-8.5570746"><ele>239.0</ele><time>2026-03-29T08:30:28.058Z</time></trkpt><trkpt lat="42.964112" lon="-8.5572433"><ele>242.0</ele><time>2026-03-29T08:30:29.059Z</time></trkpt><trkpt lat="42.9640087" lon="-8.5574075"><ele>235.33333333333334</ele><time>2026-03-29T08:30:30.058Z</time></trkpt><trkpt lat="42.9639086" lon="-8.5575668"><ele>228.66666666666669</ele><time>2026-03-29T08:30:31.059Z</time></trkpt><trkpt lat="42.9638089" lon="-8.5577219"><ele>222.0</ele><time>2026-03-29T08:30:32.058Z</time></trkpt><trkpt lat="42.9636908" lon="-8.5578622"><ele>221.33333333333331</ele><time>2026-03-29T08:30:33.059Z</time></trkpt><trkpt lat="42.9635507" lon="-8.5579605"><ele>220.66666666666666</ele><time>2026-03-29T08:30:34.058Z</time></trkpt><trkpt lat="42.9634002" lon="-8.5580193"><ele>220.0</ele><time>2026-03-29T08:30:35.059Z</time></trkpt><trkpt lat="42.9632492" lon="-8.5580625"><ele>220.0</ele><time>2026-03-29T08:30:36.058Z</time></trkpt><trkpt lat="42.9631005" lon="-8.5581093"><ele>220.0</ele><time>2026-03-29T08:30:37.058Z</time></trkpt><trkpt lat="42.9629528" lon="-8.5581593"><ele>220.0</ele><time>2026-03-29T08:30:38.058Z</time></trkpt><trkpt lat="42.9628043" lon="-8.5582011"><ele>220.0</ele><time>2026-03-29T08:30:39.058Z</time></trkpt><trkpt lat="42.9626631" lon="-8.5582446"><ele>220.0</ele><time>2026-03-29T08:30:40.058Z</time></trkpt><trkpt lat="42.9625265" lon="-8.5582919"><ele>220.0</ele><time>2026-03-29T08:30:41.058Z</time></trkpt><trkpt lat="42.9623956" lon="-8.5583435"><ele>220.0</ele><time>2026-03-29T08:30:42.059Z</time></trkpt><trkpt lat="42.9622706" lon="-8.5584008"><ele>221.0</ele><time>2026-03-29T08:30:43.059Z</time></trkpt><trkpt lat="42.962153" lon="-8.5584685"><ele>222.0</ele><time>2026-03-29T08:30:44.058Z</time></trkpt><trkpt lat="42.9620496" lon="-8.5585501"><ele>223.0</ele><time>2026-03-29T08:30:45.058Z</time></trkpt><trkpt lat="42.9619575" lon="-8.5586444"><ele>224.0</ele><time>2026-03-29T08:30:46.058Z</time></trkpt><trkpt lat="42.9618744" lon="-8.5587339"><ele>224.00000000000003</ele><time>2026-03-29T08:30:47.059Z</time></trkpt><trkpt lat="42.961791" lon="-8.5587937"><ele>224.0</ele><time>2026-03-29T08:30:48.059Z</time></trkpt><trkpt lat="42.9616992" lon="-8.5588231"><ele>224.0</ele><time>2026-03-29T08:30:49.059Z</time></trkpt><trkpt lat="42.9616116" lon="-8.5588295"><ele>224.0</ele><time>2026-03-29T08:30:50.059Z</time></trkpt><trkpt lat="42.9615278" lon="-8.5588224"><ele>224.00000000000003</ele><time>2026-03-29T08:30:51.058Z</time></trkpt><trkpt lat="42.9614448" lon="-8.5588158"><ele>224.0</ele><time>2026-03-29T08:30:52.058Z</time></trkpt><trkpt lat="42.9613612" lon="-8.5588074"><ele>220.0</ele><time>2026-03-29T08:30:53.058Z</time></trkpt><trkpt lat="42.9612752" lon="-8.5588025"><ele>215.99999999999997</ele><time>2026-03-29T08:30:54.058Z</time></trkpt><trkpt lat="42.9611906" lon="-8.5587831"><ele>212.0</ele><time>2026-03-29T08:30:55.058Z</time></trkpt><trkpt lat="42.9611139" lon="-8.5587113"><ele>208.0</ele><time>2026-03-29T08:30:56.058Z</time></trkpt><trkpt lat="42.9610688" lon="-8.558615"><ele>204.0</ele><time>2026-03-29T08:30:57.058Z</time></trkpt><trkpt lat="42.9610485" lon="-8.5584641"><ele>204.0</ele><time>2026-03-29T08:30:58.058Z</time></trkpt><trkpt lat="42.9610289" lon="-8.5583303"><ele>204.0</ele><time>2026-03-29T08:30:59.058Z</time></trkpt><trkpt lat="42.9611063" lon="-8.5581788"><ele>204.0</ele><time>2026-03-29T08:31:00.058Z</time></trkpt><trkpt lat="42.9611724" lon="-8.5580347"><ele>204.0</ele><time>2026-03-29T08:31:01.058Z</time></trkpt><trkpt lat="42.9612355" lon="-8.5578915"><ele>205.0</ele><time>2026-03-29T08:31:02.058Z</time></trkpt><trkpt lat="42.961301" lon="-8.5577466"><ele>206.0</ele><time>2026-03-29T08:31:03.058Z</time></trkpt><trkpt lat="42.9613733" lon="-8.5576027"><ele>207.0</ele><time>2026-03-29T08:31:04.058Z</time></trkpt><trkpt lat="42.961432" lon="-8.5574546"><ele>208.0</ele><time>2026-03-29T08:31:05.058Z</time></trkpt><trkpt lat="42.9614952" lon="-8.557303"><ele>208.0</ele><time>2026-03-29T08:31:06.059Z</time></trkpt><trkpt lat="42.9615516" lon="-8.5571429"><ele>208.0</ele><time>2026-03-29T08:31:07.058Z</time></trkpt><trkpt lat="42.9615814" lon="-8.5569731"><ele>208.0</ele><time>2026-03-29T08:31:08.058Z</time></trkpt><trkpt lat="42.9615702" lon="-8.5568055"><ele>208.0</ele><time>2026-03-29T08:31:09.059Z</time></trkpt><trkpt lat="42.9614991" lon="-8.556663"><ele>208.5</ele><time>2026-03-29T08:31:10.059Z</time></trkpt><trkpt lat="42.9613902" lon="-8.5565859"><ele>209.0</ele><time>2026-03-29T08:31:11.058Z</time></trkpt><trkpt lat="42.961257" lon="-8.5565872"><ele>209.5</ele><time>2026-03-29T08:31:12.058Z</time></trkpt><trkpt lat="42.9611097" lon="-8.5566465"><ele>210.0</ele><time>2026-03-29T08:31:13.058Z</time></trkpt><trkpt lat="42.9609541" lon="-8.5567147"><ele>211.66666666666669</ele><time>2026-03-29T08:31:14.058Z</time></trkpt><trkpt lat="42.9608056" lon="-8.5567999"><ele>213.33333333333334</ele><time>2026-03-29T08:31:15.058Z</time></trkpt><trkpt lat="42.9606656" lon="-8.5568793"><ele>215.0</ele><time>2026-03-29T08:31:16.058Z</time></trkpt><trkpt lat="42.9605242" lon="-8.5569634"><ele>215.33333333333334</ele><time>2026-03-29T08:31:17.058Z</time></trkpt><trkpt lat="42.9603582" lon="-8.5570491"><ele>215.66666666666669</ele><time>2026-03-29T08:31:18.058Z</time></trkpt><trkpt lat="42.9601863" lon="-8.5571448"><ele>216.0</ele><time>2026-03-29T08:31:19.058Z</time></trkpt><trkpt lat="42.9600144" lon="-8.5572445"><ele>216.0</ele><time>2026-03-29T08:31:20.058Z</time></trkpt><trkpt lat="42.9598431" lon="-8.5573457"><ele>216.0</ele><time>2026-03-29T08:31:21.058Z</time></trkpt><trkpt lat="42.9596784" lon="-8.5574412"><ele>216.0</ele><time>2026-03-29T08:31:22.059Z</time></trkpt><trkpt lat="42.9595198" lon="-8.5575271"><ele>216.0</ele><time>2026-03-29T08:31:23.059Z</time></trkpt><trkpt lat="42.9593672" lon="-8.5576095"><ele>216.0</ele><time>2026-03-29T08:31:24.058Z</time></trkpt><trkpt lat="42.9592079" lon="-8.5576908"><ele>216.0</ele><time>2026-03-29T08:31:25.058Z</time></trkpt><trkpt lat="42.9590543" lon="-8.5577806"><ele>216.33333333333331</ele><time>2026-03-29T08:31:26.058Z</time></trkpt><trkpt lat="42.9589011" lon="-8.5578639"><ele>216.66666666666666</ele><time>2026-03-29T08:31:27.058Z</time></trkpt><trkpt lat="42.9587437" lon="-8.5579526"><ele>217.0</ele><time>2026-03-29T08:31:28.058Z</time></trkpt><trkpt lat="42.9585859" lon="-8.5580453"><ele>219.66666666666666</ele><time>2026-03-29T08:31:29.059Z</time></trkpt><trkpt lat="42.9584232" lon="-8.5581363"><ele>222.33333333333331</ele><time>2026-03-29T08:31:30.058Z</time></trkpt><trkpt lat="42.9582557" lon="-8.5582308"><ele>225.0</ele><time>2026-03-29T08:31:31.058Z</time></trkpt><trkpt lat="42.9580891" lon="-8.5583269"><ele>225.33333333333331</ele><time>2026-03-29T08:31:32.058Z</time></trkpt><trkpt lat="42.9579234" lon="-8.558422"><ele>225.66666666666666</ele><time>2026-03-29T08:31:33.058Z</time></trkpt><trkpt lat="42.9577563" lon="-8.5585156"><ele>226.0</ele><time>2026-03-29T08:31:34.059Z</time></trkpt><trkpt lat="42.9575915" lon="-8.55861"><ele>225.0</ele><time>2026-03-29T08:31:35.059Z</time></trkpt><trkpt lat="42.9574277" lon="-8.5586947"><ele>224.0</ele><time>2026-03-29T08:31:36.058Z</time></trkpt><trkpt lat="42.9572677" lon="-8.5587882"><ele>223.0</ele><time>2026-03-29T08:31:37.059Z</time></trkpt><trkpt lat="42.9571184" lon="-8.5588759"><ele>224.33333333333331</ele><time>2026-03-29T08:31:38.058Z</time></trkpt><trkpt lat="42.9569681" lon="-8.5589615"><ele>225.66666666666669</ele><time>2026-03-29T08:31:39.058Z</time></trkpt><trkpt lat="42.9568229" lon="-8.5590415"><ele>227.0</ele><time>2026-03-29T08:31:40.059Z</time></trkpt><trkpt lat="42.9566737" lon="-8.5590897"><ele>227.0</ele><time>2026-03-29T08:31:41.059Z</time></trkpt><trkpt lat="42.9565339" lon="-8.5590854"><ele>227.0</ele><time>2026-03-29T08:31:42.059Z</time></trkpt><trkpt lat="42.9563971" lon="-8.5590358"><ele>227.0</ele><time>2026-03-29T08:31:43.058Z</time></trkpt><trkpt lat="42.9562651" lon="-8.5589499"><ele>227.0</ele><time>2026-03-29T08:31:44.058Z</time></trkpt><trkpt lat="42.9561334" lon="-8.5588487"><ele>227.0</ele><time>2026-03-29T08:31:45.058Z</time></trkpt><trkpt lat="42.9559945" lon="-8.5587594"><ele>227.0</ele><time>2026-03-29T08:31:46.059Z</time></trkpt><trkpt lat="42.9558464" lon="-8.5586931"><ele>227.0</ele><time>2026-03-29T08:31:47.058Z</time></trkpt><trkpt lat="42.9556879" lon="-8.5586549"><ele>227.0</ele><time>2026-03-29T08:31:48.058Z</time></trkpt><trkpt lat="42.9555165" lon="-8.558648"><ele>227.0</ele><time>2026-03-29T08:31:49.058Z</time></trkpt><trkpt lat="42.9553442" lon="-8.5586633"><ele>227.0</ele><time>2026-03-29T08:31:50.058Z</time></trkpt><trkpt lat="42.9551698" lon="-8.5586882"><ele>232.0</ele><time>2026-03-29T08:31:51.059Z</time></trkpt><trkpt lat="42.9549971" lon="-8.5587083"><ele>237.0</ele><time>2026-03-29T08:31:52.058Z</time></trkpt><trkpt lat="42.9548281" lon="-8.5587491"><ele>242.0</ele><time>2026-03-29T08:31:53.058Z</time></trkpt><trkpt lat="42.9546627" lon="-8.5588132"><ele>242.0</ele><time>2026-03-29T08:31:54.058Z</time></trkpt><trkpt lat="42.9544995" lon="-8.5589029"><ele>242.0</ele><time>2026-03-29T08:31:55.058Z</time></trkpt><trkpt lat="42.9543368" lon="-8.5589956"><ele>242.0</ele><time>2026-03-29T08:31:56.059Z</time></trkpt><trkpt lat="42.9541782" lon="-8.5591048"><ele>242.66666666666669</ele><time>2026-03-29T08:31:57.059Z</time></trkpt><trkpt lat="42.9540393" lon="-8.5592366"><ele>243.33333333333331</ele><time>2026-03-29T08:31:58.058Z</time></trkpt><trkpt lat="42.9539266" lon="-8.559395"><ele>244.0</ele><time>2026-03-29T08:31:59.059Z</time></trkpt><trkpt lat="42.953838" lon="-8.5595901"><ele>244.0</ele><time>2026-03-29T08:32:00.059Z</time></trkpt><trkpt lat="42.9537706" lon="-8.5598149"><ele>244.0</ele><time>2026-03-29T08:32:01.059Z</time></trkpt><trkpt lat="42.9537319" lon="-8.5600646"><ele>244.0</ele><time>2026-03-29T08:32:02.059Z</time></trkpt><trkpt lat="42.9537178" lon="-8.5603148"><ele>244.33333333333331</ele><time>2026-03-29T08:32:03.058Z</time></trkpt><trkpt lat="42.9537179" lon="-8.5605766"><ele>244.66666666666669</ele><time>2026-03-29T08:32:04.058Z</time></trkpt><trkpt lat="42.9537022" lon="-8.5608355"><ele>245.0</ele><time>2026-03-29T08:32:05.059Z</time></trkpt><trkpt lat="42.9536378" lon="-8.5610922"><ele>245.33333333333334</ele><time>2026-03-29T08:32:06.058Z</time></trkpt><trkpt lat="42.9535446" lon="-8.5613207"><ele>245.66666666666669</ele><time>2026-03-29T08:32:07.059Z</time></trkpt><trkpt lat="42.9534046" lon="-8.5615134"><ele>246.0</ele><time>2026-03-29T08:32:08.058Z</time></trkpt><trkpt lat="42.9532821" lon="-8.5617138"><ele>243.0</ele><time>2026-03-29T08:32:09.059Z</time></trkpt><trkpt lat="42.9530549" lon="-8.5617491"><ele>240.0</ele><time>2026-03-29T08:32:10.058Z</time></trkpt><trkpt lat="42.9528504" lon="-8.5617694"><ele>237.0</ele><time>2026-03-29T08:32:11.058Z</time></trkpt><trkpt lat="42.9526517" lon="-8.5617452"><ele>240.33333333333331</ele><time>2026-03-29T08:32:12.058Z</time></trkpt><trkpt lat="42.9524496" lon="-8.5616413"><ele>243.66666666666666</ele><time>2026-03-29T08:32:13.059Z</time></trkpt><trkpt lat="42.9522556" lon="-8.5615132"><ele>247.0</ele><time>2026-03-29T08:32:14.058Z</time></trkpt><trkpt lat="42.9520649" lon="-8.5613624"><ele>249.66666666666666</ele><time>2026-03-29T08:32:15.058Z</time></trkpt><trkpt lat="42.9518768" lon="-8.5611923"><ele>252.33333333333331</ele><time>2026-03-29T08:32:16.058Z</time></trkpt><trkpt lat="42.951701" lon="-8.5610389"><ele>255.0</ele><time>2026-03-29T08:32:17.058Z</time></trkpt><trkpt lat="42.9515115" lon="-8.5608732"><ele>255.0</ele><time>2026-03-29T08:32:18.059Z</time></trkpt><trkpt lat="42.9513755" lon="-8.5606593"><ele>255.0</ele><time>2026-03-29T08:32:19.058Z</time></trkpt><trkpt lat="42.9512348" lon="-8.5604364"><ele>255.0</ele><time>2026-03-29T08:32:20.058Z</time></trkpt><trkpt lat="42.9511185" lon="-8.5601764"><ele>251.33333333333331</ele><time>2026-03-29T08:32:21.059Z</time></trkpt><trkpt lat="42.9510006" lon="-8.5599341"><ele>247.66666666666666</ele><time>2026-03-29T08:32:22.058Z</time></trkpt><trkpt lat="42.9508759" lon="-8.5597166"><ele>244.0</ele><time>2026-03-29T08:32:23.058Z</time></trkpt><trkpt lat="42.9507271" lon="-8.5595414"><ele>248.33333333333331</ele><time>2026-03-29T08:32:24.058Z</time></trkpt><trkpt lat="42.9505501" lon="-8.5594054"><ele>252.66666666666669</ele><time>2026-03-29T08:32:25.058Z</time></trkpt><trkpt lat="42.9503593" lon="-8.5593074"><ele>257.0</ele><time>2026-03-29T08:32:26.058Z</time></trkpt><trkpt lat="42.9501583" lon="-8.5592367"><ele>262.33333333333337</ele><time>2026-03-29T08:32:27.058Z</time></trkpt><trkpt lat="42.9499689" lon="-8.5591555"><ele>267.6666666666667</ele><time>2026-03-29T08:32:28.058Z</time></trkpt><trkpt lat="42.9497932" lon="-8.5590249"><ele>273.0</ele><time>2026-03-29T08:32:29.058Z</time></trkpt><trkpt lat="42.9496442" lon="-8.5588539"><ele>273.5</ele><time>2026-03-29T08:32:30.059Z</time></trkpt><trkpt lat="42.9495232" lon="-8.5586976"><ele>274.0</ele><time>2026-03-29T08:32:31.058Z</time></trkpt><trkpt lat="42.9494062" lon="-8.5586084"><ele>274.5</ele><time>2026-03-29T08:32:32.058Z</time></trkpt><trkpt lat="42.9492932" lon="-8.5585982"><ele>275.0</ele><time>2026-03-29T08:32:33.058Z</time></trkpt><trkpt lat="42.9491825" lon="-8.5586424"><ele>277.5</ele><time>2026-03-29T08:32:34.059Z</time></trkpt><trkpt lat="42.9490665" lon="-8.558723"><ele>280.0</ele><time>2026-03-29T08:32:35.058Z</time></trkpt><trkpt lat="42.9489466" lon="-8.5588314"><ele>282.5</ele><time>2026-03-29T08:32:36.058Z</time></trkpt><trkpt lat="42.9488272" lon="-8.5589707"><ele>285.0</ele><time>2026-03-29T08:32:37.059Z</time></trkpt><trkpt lat="42.9487071" lon="-8.5591396"><ele>285.0</ele><time>2026-03-29T08:32:38.059Z</time></trkpt><trkpt lat="42.9485975" lon="-8.5593291"><ele>285.0</ele><time>2026-03-29T08:32:39.058Z</time></trkpt><trkpt lat="42.9484898" lon="-8.5595311"><ele>285.0</ele><time>2026-03-29T08:32:40.059Z</time></trkpt><trkpt lat="42.9483722" lon="-8.5597283"><ele>288.3333333333333</ele><time>2026-03-29T08:32:41.058Z</time></trkpt><trkpt lat="42.9482546" lon="-8.5599276"><ele>291.66666666666663</ele><time>2026-03-29T08:32:42.059Z</time></trkpt><trkpt lat="42.9481221" lon="-8.5601256"><ele>295.0</ele><time>2026-03-29T08:32:43.059Z</time></trkpt><trkpt lat="42.9479644" lon="-8.5602851"><ele>299.3333333333333</ele><time>2026-03-29T08:32:44.058Z</time></trkpt><trkpt lat="42.9478218" lon="-8.5604631"><ele>303.6666666666667</ele><time>2026-03-29T08:32:45.058Z</time></trkpt><trkpt lat="42.9476951" lon="-8.5606257"><ele>308.0</ele><time>2026-03-29T08:32:46.058Z</time></trkpt><trkpt lat="42.9475415" lon="-8.5607386"><ele>308.0</ele><time>2026-03-29T08:32:47.059Z</time></trkpt><trkpt lat="42.9473593" lon="-8.5608045"><ele>308.0</ele><time>2026-03-29T08:32:48.058Z</time></trkpt><trkpt lat="42.9471768" lon="-8.560851"><ele>308.0</ele><time>2026-03-29T08:32:49.059Z</time></trkpt><trkpt lat="42.946983" lon="-8.5608806"><ele>308.0</ele><time>2026-03-29T08:32:50.058Z</time></trkpt><trkpt lat="42.9467966" lon="-8.5609012"><ele>308.0</ele><time>2026-03-29T08:32:51.058Z</time></trkpt><trkpt lat="42.9466009" lon="-8.5609261"><ele>308.0</ele><time>2026-03-29T08:32:52.058Z</time></trkpt><trkpt lat="42.9464232" lon="-8.5609147"><ele>309.33333333333337</ele><time>2026-03-29T08:32:53.059Z</time></trkpt><trkpt lat="42.9462643" lon="-8.5608193"><ele>310.6666666666667</ele><time>2026-03-29T08:32:54.059Z</time></trkpt><trkpt lat="42.9461118" lon="-8.5607356"><ele>312.0</ele><time>2026-03-29T08:32:55.058Z</time></trkpt><trkpt lat="42.9459695" lon="-8.5606874"><ele>312.6666666666667</ele><time>2026-03-29T08:32:56.058Z</time></trkpt><trkpt lat="42.9458242" lon="-8.5606964"><ele>313.33333333333337</ele><time>2026-03-29T08:32:57.058Z</time></trkpt><trkpt lat="42.9456768" lon="-8.5607481"><ele>314.0</ele><time>2026-03-29T08:32:58.058Z</time></trkpt><trkpt lat="42.9455159" lon="-8.5608505"><ele>314.0</ele><time>2026-03-29T08:32:59.058Z</time></trkpt><trkpt lat="42.9453476" lon="-8.5609864"><ele>314.0</ele><time>2026-03-29T08:33:00.058Z</time></trkpt><trkpt lat="42.9451688" lon="-8.5611349"><ele>314.0</ele><time>2026-03-29T08:33:01.058Z</time></trkpt><trkpt lat="42.9449871" lon="-8.5612929"><ele>315.33333333333337</ele><time>2026-03-29T08:33:02.058Z</time></trkpt><trkpt lat="42.9448038" lon="-8.5614544"><ele>316.6666666666667</ele><time>2026-03-29T08:33:03.058Z</time></trkpt><trkpt lat="42.9446157" lon="-8.5616198"><ele>318.0</ele><time>2026-03-29T08:33:04.058Z</time></trkpt><trkpt lat="42.944437" lon="-8.5617763"><ele>318.0</ele><time>2026-03-29T08:33:05.058Z</time></trkpt><trkpt lat="42.944266" lon="-8.561927"><ele>318.0</ele><time>2026-03-29T08:33:06.059Z</time></trkpt><trkpt lat="42.9441026" lon="-8.5620636"><ele>318.0</ele><time>2026-03-29T08:33:07.059Z</time></trkpt><trkpt lat="42.9439472" lon="-8.5621722"><ele>319.6666666666667</ele><time>2026-03-29T08:33:08.058Z</time></trkpt><trkpt lat="42.9437853" lon="-8.5622472"><ele>321.33333333333337</ele><time>2026-03-29T08:33:09.058Z</time></trkpt><trkpt lat="42.9436103" lon="-8.5622769"><ele>323.0</ele><time>2026-03-29T08:33:10.058Z</time></trkpt><trkpt lat="42.9434382" lon="-8.5622576"><ele>324.0</ele><time>2026-03-29T08:33:11.059Z</time></trkpt><trkpt lat="42.9432639" lon="-8.562189"><ele>325.0</ele><time>2026-03-29T08:33:12.059Z</time></trkpt><trkpt lat="42.9430991" lon="-8.5620912"><ele>326.0</ele><time>2026-03-29T08:33:13.059Z</time></trkpt><trkpt lat="42.9429362" lon="-8.5619983"><ele>327.33333333333337</ele><time>2026-03-29T08:33:14.058Z</time></trkpt><trkpt lat="42.9427584" lon="-8.5619398"><ele>328.6666666666667</ele><time>2026-03-29T08:33:15.058Z</time></trkpt><trkpt lat="42.9425659" lon="-8.5619131"><ele>330.0</ele><time>2026-03-29T08:33:16.058Z</time></trkpt><trkpt lat="42.9423604" lon="-8.5619031"><ele>330.0</ele><time>2026-03-29T08:33:17.058Z</time></trkpt><trkpt lat="42.9421463" lon="-8.5618923"><ele>330.0</ele><time>2026-03-29T08:33:18.058Z</time></trkpt><trkpt lat="42.9419249" lon="-8.5618836"><ele>330.0</ele><time>2026-03-29T08:33:19.058Z</time></trkpt><trkpt lat="42.9417036" lon="-8.5618733"><ele>328.3333333333333</ele><time>2026-03-29T08:33:20.058Z</time></trkpt><trkpt lat="42.9414824" lon="-8.5618702"><ele>326.66666666666663</ele><time>2026-03-29T08:33:21.058Z</time></trkpt><trkpt lat="42.941259" lon="-8.5618622"><ele>325.0</ele><time>2026-03-29T08:33:22.058Z</time></trkpt><trkpt lat="42.9410454" lon="-8.5618676"><ele>324.0</ele><time>2026-03-29T08:33:23.058Z</time></trkpt><trkpt lat="42.9408308" lon="-8.5618606"><ele>323.0</ele><time>2026-03-29T08:33:24.059Z</time></trkpt><trkpt lat="42.9406205" lon="-8.561852"><ele>322.0</ele><time>2026-03-29T08:33:25.059Z</time></trkpt><trkpt lat="42.9404119" lon="-8.561841"><ele>322.0</ele><time>2026-03-29T08:33:26.059Z</time></trkpt><trkpt lat="42.9402065" lon="-8.5618283"><ele>322.0</ele><time>2026-03-29T08:33:27.059Z</time></trkpt><trkpt lat="42.9400019" lon="-8.5618175"><ele>322.0</ele><time>2026-03-29T08:33:28.059Z</time></trkpt><trkpt lat="42.9397975" lon="-8.561824"><ele>321.66666666666663</ele><time>2026-03-29T08:33:29.058Z</time></trkpt><trkpt lat="42.9395981" lon="-8.5618453"><ele>321.3333333333333</ele><time>2026-03-29T08:33:30.058Z</time></trkpt><trkpt lat="42.9393983" lon="-8.5618598"><ele>321.0</ele><time>2026-03-29T08:33:31.058Z</time></trkpt><trkpt lat="42.9392048" lon="-8.5618665"><ele>320.6666666666667</ele><time>2026-03-29T08:33:32.059Z</time></trkpt><trkpt lat="42.9390131" lon="-8.5618697"><ele>320.33333333333337</ele><time>2026-03-29T08:33:33.058Z</time></trkpt><trkpt lat="42.93882" lon="-8.5618747"><ele>320.0</ele><time>2026-03-29T08:33:34.059Z</time></trkpt><trkpt lat="42.9386339" lon="-8.5618703"><ele>320.0</ele><time>2026-03-29T08:33:35.059Z</time></trkpt><trkpt lat="42.9384546" lon="-8.561844"><ele>320.0</ele><time>2026-03-29T08:33:36.058Z</time></trkpt><trkpt lat="42.938287" lon="-8.5617857"><ele>320.0</ele><time>2026-03-29T08:33:37.058Z</time></trkpt><trkpt lat="42.9381367" lon="-8.5616851"><ele>320.6666666666667</ele><time>2026-03-29T08:33:38.058Z</time></trkpt><trkpt lat="42.9379987" lon="-8.5615514"><ele>321.3333333333333</ele><time>2026-03-29T08:33:39.059Z</time></trkpt><trkpt lat="42.937859" lon="-8.5614148"><ele>322.0</ele><time>2026-03-29T08:33:40.058Z</time></trkpt><trkpt lat="42.9377102" lon="-8.5612785"><ele>321.3333333333333</ele><time>2026-03-29T08:33:41.058Z</time></trkpt><trkpt lat="42.9375558" lon="-8.5611368"><ele>320.6666666666667</ele><time>2026-03-29T08:33:42.058Z</time></trkpt><trkpt lat="42.9374" lon="-8.5609865"><ele>320.0</ele><time>2026-03-29T08:33:43.059Z</time></trkpt><trkpt lat="42.9372355" lon="-8.5608375"><ele>320.0</ele><time>2026-03-29T08:33:44.058Z</time></trkpt><trkpt lat="42.9370679" lon="-8.5606828"><ele>320.0</ele><time>2026-03-29T08:33:45.059Z</time></trkpt><trkpt lat="42.9368867" lon="-8.5605364"><ele>320.0</ele><time>2026-03-29T08:33:46.058Z</time></trkpt><trkpt lat="42.9366933" lon="-8.5604064"><ele>317.6666666666667</ele><time>2026-03-29T08:33:47.059Z</time></trkpt><trkpt lat="42.9364941" lon="-8.5603025"><ele>315.3333333333333</ele><time>2026-03-29T08:33:48.059Z</time></trkpt><trkpt lat="42.9362882" lon="-8.5602055"><ele>313.0</ele><time>2026-03-29T08:33:49.058Z</time></trkpt><trkpt lat="42.9360784" lon="-8.560133"><ele>315.3333333333333</ele><time>2026-03-29T08:33:50.059Z</time></trkpt><trkpt lat="42.9358737" lon="-8.5600777"><ele>317.6666666666667</ele><time>2026-03-29T08:33:51.059Z</time></trkpt><trkpt lat="42.935669" lon="-8.5600291"><ele>320.0</ele><time>2026-03-29T08:33:52.059Z</time></trkpt><trkpt lat="42.9354645" lon="-8.559984"><ele>320.0</ele><time>2026-03-29T08:33:53.059Z</time></trkpt><trkpt lat="42.9352656" lon="-8.5599467"><ele>320.0</ele><time>2026-03-29T08:33:54.059Z</time></trkpt><trkpt lat="42.9350633" lon="-8.5599134"><ele>320.0</ele><time>2026-03-29T08:33:55.059Z</time></trkpt><trkpt lat="42.9348632" lon="-8.5598716"><ele>321.33333333333337</ele><time>2026-03-29T08:33:56.058Z</time></trkpt><trkpt lat="42.9346621" lon="-8.5598306"><ele>322.6666666666667</ele><time>2026-03-29T08:33:57.059Z</time></trkpt><trkpt lat="42.9344581" lon="-8.5597862"><ele>324.0</ele><time>2026-03-29T08:33:58.058Z</time></trkpt><trkpt lat="42.9342569" lon="-8.5597413"><ele>321.3333333333333</ele><time>2026-03-29T08:33:59.058Z</time></trkpt><trkpt lat="42.9340498" lon="-8.559695"><ele>318.66666666666663</ele><time>2026-03-29T08:34:00.058Z</time></trkpt><trkpt lat="42.9338451" lon="-8.5596382"><ele>316.0</ele><time>2026-03-29T08:34:01.059Z</time></trkpt><trkpt lat="42.9336486" lon="-8.5595762"><ele>312.3333333333333</ele><time>2026-03-29T08:34:02.058Z</time></trkpt><trkpt lat="42.9334569" lon="-8.5595027"><ele>308.6666666666667</ele><time>2026-03-29T08:34:03.059Z</time></trkpt><trkpt lat="42.9332684" lon="-8.5594139"><ele>305.0</ele><time>2026-03-29T08:34:04.058Z</time></trkpt><trkpt lat="42.9330892" lon="-8.5592911"><ele>304.6666666666667</ele><time>2026-03-29T08:34:05.059Z</time></trkpt><trkpt lat="42.9329144" lon="-8.5591413"><ele>304.3333333333333</ele><time>2026-03-29T08:34:06.058Z</time></trkpt><trkpt lat="42.9327487" lon="-8.5589788"><ele>304.0</ele><time>2026-03-29T08:34:07.058Z</time></trkpt><trkpt lat="42.9325777" lon="-8.5587924"><ele>302.0</ele><time>2026-03-29T08:34:08.058Z</time></trkpt><trkpt lat="42.9324066" lon="-8.5585972"><ele>300.0</ele><time>2026-03-29T08:34:09.058Z</time></trkpt><trkpt lat="42.932235" lon="-8.5583977"><ele>298.0</ele><time>2026-03-29T08:34:10.058Z</time></trkpt><trkpt lat="42.9320608" lon="-8.5582039"><ele>298.0</ele><time>2026-03-29T08:34:11.058Z</time></trkpt><trkpt lat="42.9318875" lon="-8.5580178"><ele>298.0</ele><time>2026-03-29T08:34:12.058Z</time></trkpt><trkpt lat="42.931717" lon="-8.557833"><ele>298.0</ele><time>2026-03-29T08:34:13.059Z</time></trkpt><trkpt lat="42.9315475" lon="-8.5576505"><ele>296.3333333333333</ele><time>2026-03-29T08:34:14.058Z</time></trkpt><trkpt lat="42.9313812" lon="-8.5574825"><ele>294.6666666666667</ele><time>2026-03-29T08:34:15.059Z</time></trkpt><trkpt lat="42.9312069" lon="-8.5573227"><ele>293.0</ele><time>2026-03-29T08:34:16.058Z</time></trkpt><trkpt lat="42.9310225" lon="-8.5572068"><ele>293.0</ele><time>2026-03-29T08:34:17.059Z</time></trkpt><trkpt lat="42.9308292" lon="-8.5571293"><ele>293.0</ele><time>2026-03-29T08:34:18.058Z</time></trkpt><trkpt lat="42.9306239" lon="-8.5570811"><ele>293.0</ele><time>2026-03-29T08:34:19.058Z</time></trkpt><trkpt lat="42.9304131" lon="-8.557059"><ele>293.0</ele><time>2026-03-29T08:34:20.058Z</time></trkpt><trkpt lat="42.9301956" lon="-8.5570516"><ele>293.0</ele><time>2026-03-29T08:34:21.059Z</time></trkpt><trkpt lat="42.929971" lon="-8.5570404"><ele>293.0</ele><time>2026-03-29T08:34:22.059Z</time></trkpt><trkpt lat="42.9297477" lon="-8.5570352"><ele>294.6666666666667</ele><time>2026-03-29T08:34:23.059Z</time></trkpt><trkpt lat="42.9295247" lon="-8.5570367"><ele>296.3333333333333</ele><time>2026-03-29T08:34:24.059Z</time></trkpt><trkpt lat="42.9293004" lon="-8.5570373"><ele>298.0</ele><time>2026-03-29T08:34:25.059Z</time></trkpt><trkpt lat="42.9290769" lon="-8.5570341"><ele>300.66666666666663</ele><time>2026-03-29T08:34:26.058Z</time></trkpt><trkpt lat="42.9288538" lon="-8.5570298"><ele>303.3333333333333</ele><time>2026-03-29T08:34:27.059Z</time></trkpt><trkpt lat="42.9286315" lon="-8.5570247"><ele>306.0</ele><time>2026-03-29T08:34:28.058Z</time></trkpt><trkpt lat="42.9284092" lon="-8.5570191"><ele>307.6666666666667</ele><time>2026-03-29T08:34:29.059Z</time></trkpt><trkpt lat="42.9281848" lon="-8.5570166"><ele>309.33333333333337</ele><time>2026-03-29T08:34:30.058Z</time></trkpt><trkpt lat="42.9279648" lon="-8.5570145"><ele>311.0</ele><time>2026-03-29T08:34:31.058Z</time></trkpt><trkpt lat="42.9277478" lon="-8.5570118"><ele>312.0</ele><time>2026-03-29T08:34:32.058Z</time></trkpt><trkpt lat="42.9275398" lon="-8.5570086"><ele>313.0</ele><time>2026-03-29T08:34:33.058Z</time></trkpt><trkpt lat="42.927346" lon="-8.5569913"><ele>314.0</ele><time>2026-03-29T08:34:34.058Z</time></trkpt><trkpt lat="42.927157" lon="-8.5569427"><ele>314.0</ele><time>2026-03-29T08:34:35.058Z</time></trkpt><trkpt lat="42.9269695" lon="-8.5568665"><ele>314.0</ele><time>2026-03-29T08:34:36.058Z</time></trkpt><trkpt lat="42.9267876" lon="-8.5567634"><ele>314.0</ele><time>2026-03-29T08:34:37.058Z</time></trkpt><trkpt lat="42.9266115" lon="-8.5566292"><ele>313.6666666666667</ele><time>2026-03-29T08:34:38.058Z</time></trkpt><trkpt lat="42.9264412" lon="-8.5564741"><ele>313.3333333333333</ele><time>2026-03-29T08:34:39.058Z</time></trkpt><trkpt lat="42.9262653" lon="-8.556312"><ele>313.0</ele><time>2026-03-29T08:34:40.058Z</time></trkpt><trkpt lat="42.926091" lon="-8.5561468"><ele>313.0</ele><time>2026-03-29T08:34:41.059Z</time></trkpt><trkpt lat="42.9259126" lon="-8.5559731"><ele>313.0</ele><time>2026-03-29T08:34:42.059Z</time></trkpt><trkpt lat="42.925733" lon="-8.5558006"><ele>313.0</ele><time>2026-03-29T08:34:43.058Z</time></trkpt><trkpt lat="42.9255573" lon="-8.5556243"><ele>313.3333333333333</ele><time>2026-03-29T08:34:44.058Z</time></trkpt><trkpt lat="42.9253809" lon="-8.5554515"><ele>313.6666666666667</ele><time>2026-03-29T08:34:45.059Z</time></trkpt><trkpt lat="42.9252085" lon="-8.5552839"><ele>314.0</ele><time>2026-03-29T08:34:46.058Z</time></trkpt><trkpt lat="42.9250436" lon="-8.55512"><ele>314.0</ele><time>2026-03-29T08:34:47.058Z</time></trkpt><trkpt lat="42.9248866" lon="-8.5549633"><ele>314.0</ele><time>2026-03-29T08:34:48.059Z</time></trkpt><trkpt lat="42.9247303" lon="-8.5548317"><ele>314.0</ele><time>2026-03-29T08:34:49.058Z</time></trkpt><trkpt lat="42.9245614" lon="-8.5547233"><ele>314.0</ele><time>2026-03-29T08:34:50.059Z</time></trkpt><trkpt lat="42.9243796" lon="-8.5546406"><ele>314.0</ele><time>2026-03-29T08:34:51.058Z</time></trkpt><trkpt lat="42.9241883" lon="-8.554578"><ele>314.0</ele><time>2026-03-29T08:34:52.059Z</time></trkpt><trkpt lat="42.9239948" lon="-8.5545333"><ele>313.0</ele><time>2026-03-29T08:34:53.058Z</time></trkpt><trkpt lat="42.9238112" lon="-8.5544971"><ele>312.0</ele><time>2026-03-29T08:34:54.059Z</time></trkpt><trkpt lat="42.9236335" lon="-8.5544497"><ele>311.0</ele><time>2026-03-29T08:34:55.058Z</time></trkpt><trkpt lat="42.9234668" lon="-8.5543858"><ele>311.33333333333337</ele><time>2026-03-29T08:34:56.058Z</time></trkpt><trkpt lat="42.9233036" lon="-8.5543038"><ele>311.6666666666667</ele><time>2026-03-29T08:34:57.059Z</time></trkpt><trkpt lat="42.9231496" lon="-8.5542043"><ele>312.0</ele><time>2026-03-29T08:34:58.058Z</time></trkpt><trkpt lat="42.9230016" lon="-8.5541006"><ele>312.0</ele><time>2026-03-29T08:34:59.058Z</time></trkpt><trkpt lat="42.9228636" lon="-8.5540002"><ele>312.0</ele><time>2026-03-29T08:35:00.058Z</time></trkpt><trkpt lat="42.9227309" lon="-8.5538999"><ele>312.0</ele><time>2026-03-29T08:35:01.058Z</time></trkpt><trkpt lat="42.9226088" lon="-8.5538125"><ele>312.0</ele><time>2026-03-29T08:35:02.059Z</time></trkpt><trkpt lat="42.9224941" lon="-8.5537309"><ele>311.75</ele><time>2026-03-29T08:35:03.059Z</time></trkpt><trkpt lat="42.9223837" lon="-8.5536517"><ele>311.5</ele><time>2026-03-29T08:35:04.058Z</time></trkpt><trkpt lat="42.9222789" lon="-8.5535728"><ele>311.25</ele><time>2026-03-29T08:35:05.059Z</time></trkpt><trkpt lat="42.9221715" lon="-8.5534941"><ele>311.0</ele><time>2026-03-29T08:35:06.058Z</time></trkpt><trkpt lat="42.922055" lon="-8.5534216"><ele>311.0</ele><time>2026-03-29T08:35:07.059Z</time></trkpt><trkpt lat="42.9219336" lon="-8.5533632"><ele>311.0</ele><time>2026-03-29T08:35:08.059Z</time></trkpt><trkpt lat="42.9217984" lon="-8.553317"><ele>311.0</ele><time>2026-03-29T08:35:09.058Z</time></trkpt><trkpt lat="42.9216535" lon="-8.5532705"><ele>311.0</ele><time>2026-03-29T08:35:10.058Z</time></trkpt><trkpt lat="42.9215041" lon="-8.5532272"><ele>310.33333333333337</ele><time>2026-03-29T08:35:11.058Z</time></trkpt><trkpt lat="42.9213498" lon="-8.5531785"><ele>309.6666666666667</ele><time>2026-03-29T08:35:12.059Z</time></trkpt><trkpt lat="42.9211873" lon="-8.5531304"><ele>309.0</ele><time>2026-03-29T08:35:13.059Z</time></trkpt><trkpt lat="42.9210241" lon="-8.5530898"><ele>307.6666666666667</ele><time>2026-03-29T08:35:14.058Z</time></trkpt><trkpt lat="42.9208527" lon="-8.5530522"><ele>306.33333333333337</ele><time>2026-03-29T08:35:15.059Z</time></trkpt><trkpt lat="42.9206873" lon="-8.5530265"><ele>305.0</ele><time>2026-03-29T08:35:16.059Z</time></trkpt><trkpt lat="42.9205171" lon="-8.5530178"><ele>305.0</ele><time>2026-03-29T08:35:17.059Z</time></trkpt><trkpt lat="42.9203485" lon="-8.553017"><ele>305.0</ele><time>2026-03-29T08:35:18.058Z</time></trkpt><trkpt lat="42.9201823" lon="-8.5530219"><ele>305.0</ele><time>2026-03-29T08:35:19.058Z</time></trkpt><trkpt lat="42.9200178" lon="-8.5530307"><ele>306.33333333333337</ele><time>2026-03-29T08:35:20.058Z</time></trkpt><trkpt lat="42.9198511" lon="-8.5530251"><ele>307.6666666666667</ele><time>2026-03-29T08:35:21.058Z</time></trkpt><trkpt lat="42.9196797" lon="-8.5529897"><ele>309.0</ele><time>2026-03-29T08:35:22.058Z</time></trkpt><trkpt lat="42.9195082" lon="-8.5529384"><ele>309.0</ele><time>2026-03-29T08:35:23.059Z</time></trkpt><trkpt lat="42.919335" lon="-8.5528793"><ele>309.0</ele><time>2026-03-29T08:35:24.058Z</time></trkpt><trkpt lat="42.9191618" lon="-8.552816"><ele>309.0</ele><time>2026-03-29T08:35:25.058Z</time></trkpt><trkpt lat="42.9189896" lon="-8.5527551"><ele>310.6666666666667</ele><time>2026-03-29T08:35:26.059Z</time></trkpt><trkpt lat="42.9188273" lon="-8.5526653"><ele>312.33333333333337</ele><time>2026-03-29T08:35:27.058Z</time></trkpt><trkpt lat="42.9186721" lon="-8.5525522"><ele>314.0</ele><time>2026-03-29T08:35:28.058Z</time></trkpt><trkpt lat="42.9185251" lon="-8.5524291"><ele>314.6666666666667</ele><time>2026-03-29T08:35:29.058Z</time></trkpt><trkpt lat="42.9183797" lon="-8.552291"><ele>315.3333333333333</ele><time>2026-03-29T08:35:30.059Z</time></trkpt><trkpt lat="42.9182345" lon="-8.5521534"><ele>316.0</ele><time>2026-03-29T08:35:31.058Z</time></trkpt><trkpt lat="42.9180879" lon="-8.5520125"><ele>317.0</ele><time>2026-03-29T08:35:32.059Z</time></trkpt><trkpt lat="42.917936" lon="-8.5518725"><ele>318.0</ele><time>2026-03-29T08:35:33.059Z</time></trkpt><trkpt lat="42.9177845" lon="-8.5517286"><ele>319.0</ele><time>2026-03-29T08:35:34.059Z</time></trkpt><trkpt lat="42.9176352" lon="-8.5515818"><ele>319.3333333333333</ele><time>2026-03-29T08:35:35.058Z</time></trkpt><trkpt lat="42.9174852" lon="-8.5514327"><ele>319.6666666666667</ele><time>2026-03-29T08:35:36.058Z</time></trkpt><trkpt lat="42.9173344" lon="-8.5512787"><ele>320.0</ele><time>2026-03-29T08:35:37.059Z</time></trkpt><trkpt lat="42.9171844" lon="-8.5511245"><ele>320.0</ele><time>2026-03-29T08:35:38.059Z</time></trkpt><trkpt lat="42.9170351" lon="-8.5509664"><ele>320.0</ele><time>2026-03-29T08:35:39.059Z</time></trkpt><trkpt lat="42.9168848" lon="-8.5508077"><ele>320.0</ele><time>2026-03-29T08:35:40.058Z</time></trkpt><trkpt lat="42.9167356" lon="-8.5506501"><ele>320.0</ele><time>2026-03-29T08:35:41.058Z</time></trkpt><trkpt lat="42.9165859" lon="-8.550491"><ele>320.0</ele><time>2026-03-29T08:35:42.058Z</time></trkpt><trkpt lat="42.9164391" lon="-8.5503302"><ele>320.0</ele><time>2026-03-29T08:35:43.058Z</time></trkpt><trkpt lat="42.9163004" lon="-8.5501643"><ele>317.0</ele><time>2026-03-29T08:35:44.059Z</time></trkpt><trkpt lat="42.9161694" lon="-8.5499924"><ele>314.0</ele><time>2026-03-29T08:35:45.058Z</time></trkpt><trkpt lat="42.9160468" lon="-8.54982"><ele>311.0</ele><time>2026-03-29T08:35:46.058Z</time></trkpt><trkpt lat="42.9159166" lon="-8.5496501"><ele>310.0</ele><time>2026-03-29T08:35:47.059Z</time></trkpt><trkpt lat="42.9157791" lon="-8.5494868"><ele>309.0</ele><time>2026-03-29T08:35:48.059Z</time></trkpt><trkpt lat="42.9156296" lon="-8.5493333"><ele>308.0</ele><time>2026-03-29T08:35:49.058Z</time></trkpt><trkpt lat="42.9154673" lon="-8.549196"><ele>308.0</ele><time>2026-03-29T08:35:50.058Z</time></trkpt><trkpt lat="42.9152983" lon="-8.5490792"><ele>308.0</ele><time>2026-03-29T08:35:51.059Z</time></trkpt><trkpt lat="42.9151189" lon="-8.5489833"><ele>308.0</ele><time>2026-03-29T08:35:52.058Z</time></trkpt><trkpt lat="42.9149311" lon="-8.5489051"><ele>310.0</ele><time>2026-03-29T08:35:53.059Z</time></trkpt><trkpt lat="42.9147373" lon="-8.5488398"><ele>312.0</ele><time>2026-03-29T08:35:54.058Z</time></trkpt><trkpt lat="42.9145409" lon="-8.5487865"><ele>314.0</ele><time>2026-03-29T08:35:55.059Z</time></trkpt><trkpt lat="42.9143403" lon="-8.5487361"><ele>311.0</ele><time>2026-03-29T08:35:56.058Z</time></trkpt><trkpt lat="42.9141411" lon="-8.5486904"><ele>308.0</ele><time>2026-03-29T08:35:57.058Z</time></trkpt><trkpt lat="42.9139431" lon="-8.5486421"><ele>305.0</ele><time>2026-03-29T08:35:58.058Z</time></trkpt><trkpt lat="42.9137553" lon="-8.5485892"><ele>305.0</ele><time>2026-03-29T08:35:59.058Z</time></trkpt><trkpt lat="42.9135722" lon="-8.5485392"><ele>305.0</ele><time>2026-03-29T08:36:00.059Z</time></trkpt><trkpt lat="42.9133892" lon="-8.5484844"><ele>305.0</ele><time>2026-03-29T08:36:01.058Z</time></trkpt><trkpt lat="42.9132039" lon="-8.5484362"><ele>305.0</ele><time>2026-03-29T08:36:02.059Z</time></trkpt><trkpt lat="42.9130176" lon="-8.5483865"><ele>305.0</ele><time>2026-03-29T08:36:03.059Z</time></trkpt><trkpt lat="42.9128274" lon="-8.5483318"><ele>305.0</ele><time>2026-03-29T08:36:04.059Z</time></trkpt><trkpt lat="42.9126471" lon="-8.5482733"><ele>304.6666666666667</ele><time>2026-03-29T08:36:05.058Z</time></trkpt><trkpt lat="42.9124499" lon="-8.5481994"><ele>304.3333333333333</ele><time>2026-03-29T08:36:06.059Z</time></trkpt><trkpt lat="42.9122581" lon="-8.5481155"><ele>304.0</ele><time>2026-03-29T08:36:07.058Z</time></trkpt><trkpt lat="42.9120752" lon="-8.54802"><ele>304.0</ele><time>2026-03-29T08:36:08.058Z</time></trkpt><trkpt lat="42.9118928" lon="-8.5479139"><ele>304.0</ele><time>2026-03-29T08:36:09.058Z</time></trkpt><trkpt lat="42.91171" lon="-8.547809"><ele>304.0</ele><time>2026-03-29T08:36:10.058Z</time></trkpt><trkpt lat="42.9115258" lon="-8.547703"><ele>301.0</ele><time>2026-03-29T08:36:11.059Z</time></trkpt><trkpt lat="42.9113474" lon="-8.5475997"><ele>298.0</ele><time>2026-03-29T08:36:12.059Z</time></trkpt><trkpt lat="42.9111762" lon="-8.547497"><ele>295.0</ele><time>2026-03-29T08:36:13.058Z</time></trkpt><trkpt lat="42.9110114" lon="-8.5474002"><ele>296.3333333333333</ele><time>2026-03-29T08:36:14.058Z</time></trkpt><trkpt lat="42.9108546" lon="-8.547306"><ele>297.6666666666667</ele><time>2026-03-29T08:36:15.058Z</time></trkpt><trkpt lat="42.9107073" lon="-8.5472159"><ele>299.0</ele><time>2026-03-29T08:36:16.058Z</time></trkpt><trkpt lat="42.9105683" lon="-8.5471337"><ele>299.0</ele><time>2026-03-29T08:36:17.058Z</time></trkpt><trkpt lat="42.9104414" lon="-8.5470598"><ele>299.0</ele><time>2026-03-29T08:36:18.059Z</time></trkpt><trkpt lat="42.9103145" lon="-8.5469881"><ele>299.0</ele><time>2026-03-29T08:36:19.058Z</time></trkpt><trkpt lat="42.9101956" lon="-8.5469171"><ele>299.0</ele><time>2026-03-29T08:36:20.058Z</time></trkpt><trkpt lat="42.9100878" lon="-8.5468516"><ele>297.8</ele><time>2026-03-29T08:36:21.058Z</time></trkpt><trkpt lat="42.9099914" lon="-8.5467945"><ele>296.59999999999997</ele><time>2026-03-29T08:36:22.058Z</time></trkpt><trkpt lat="42.9099112" lon="-8.5467445"><ele>295.4</ele><time>2026-03-29T08:36:23.059Z</time></trkpt><trkpt lat="42.9098201" lon="-8.5466986"><ele>294.2</ele><time>2026-03-29T08:36:25.058Z</time></trkpt><trkpt lat="42.909726" lon="-8.5467079"><ele>293.0</ele><time>2026-03-29T08:36:47.058Z</time></trkpt><trkpt lat="42.9096448" lon="-8.546672"><ele>293.0</ele><time>2026-03-29T08:36:48.059Z</time></trkpt><trkpt lat="42.9095485" lon="-8.5465857"><ele>293.0</ele><time>2026-03-29T08:36:49.058Z</time></trkpt><trkpt lat="42.9094471" lon="-8.5465051"><ele>293.0</ele><time>2026-03-29T08:36:50.058Z</time></trkpt><trkpt lat="42.909345" lon="-8.5464211"><ele>293.0</ele><time>2026-03-29T08:36:51.058Z</time></trkpt><trkpt lat="42.9092341" lon="-8.5463318"><ele>292.8</ele><time>2026-03-29T08:36:52.059Z</time></trkpt><trkpt lat="42.9091314" lon="-8.546241"><ele>292.6</ele><time>2026-03-29T08:36:53.058Z</time></trkpt><trkpt lat="42.9090331" lon="-8.5461342"><ele>292.4</ele><time>2026-03-29T08:36:54.059Z</time></trkpt><trkpt lat="42.9089561" lon="-8.5460357"><ele>292.2</ele><time>2026-03-29T08:36:55.058Z</time></trkpt><trkpt lat="42.9088918" lon="-8.54595"><ele>292.0</ele><time>2026-03-29T08:36:56.058Z</time></trkpt><trkpt lat="42.9088285" lon="-8.5458804"><ele>291.0</ele><time>2026-03-29T08:36:57.059Z</time></trkpt><trkpt lat="42.9087621" lon="-8.5458203"><ele>290.0</ele><time>2026-03-29T08:36:58.058Z</time></trkpt><trkpt lat="42.9086914" lon="-8.5457742"><ele>289.0</ele><time>2026-03-29T08:36:59.058Z</time></trkpt><trkpt lat="42.9086185" lon="-8.5457394"><ele>288.0</ele><time>2026-03-29T08:37:00.058Z</time></trkpt><trkpt lat="42.9085442" lon="-8.5457016"><ele>287.0</ele><time>2026-03-29T08:37:01.058Z</time></trkpt><trkpt lat="42.908462" lon="-8.5456553"><ele>286.0</ele><time>2026-03-29T08:37:02.058Z</time></trkpt><trkpt lat="42.9083768" lon="-8.545606"><ele>286.0</ele><time>2026-03-29T08:37:03.058Z</time></trkpt><trkpt lat="42.9082865" lon="-8.5455546"><ele>286.0</ele><time>2026-03-29T08:37:04.058Z</time></trkpt><trkpt lat="42.9081972" lon="-8.5454969"><ele>286.0</ele><time>2026-03-29T08:37:05.059Z</time></trkpt><trkpt lat="42.9081009" lon="-8.5454237"><ele>286.0</ele><time>2026-03-29T08:37:06.058Z</time></trkpt><trkpt lat="42.908008" lon="-8.545355"><ele>286.0</ele><time>2026-03-29T08:37:07.058Z</time></trkpt><trkpt lat="42.9079139" lon="-8.5452837"><ele>285.75</ele><time>2026-03-29T08:37:08.059Z</time></trkpt><trkpt lat="42.9078125" lon="-8.5452077"><ele>285.5</ele><time>2026-03-29T08:37:09.058Z</time></trkpt><trkpt lat="42.9077042" lon="-8.545134"><ele>285.25</ele><time>2026-03-29T08:37:10.059Z</time></trkpt><trkpt lat="42.9076011" lon="-8.545071"><ele>285.0</ele><time>2026-03-29T08:37:11.059Z</time></trkpt><trkpt lat="42.9074994" lon="-8.5450149"><ele>284.0</ele><time>2026-03-29T08:37:12.059Z</time></trkpt><trkpt lat="42.9074014" lon="-8.5449619"><ele>283.0</ele><time>2026-03-29T08:37:13.058Z</time></trkpt><trkpt lat="42.9073006" lon="-8.5449115"><ele>282.0</ele><time>2026-03-29T08:37:14.058Z</time></trkpt><trkpt lat="42.9071894" lon="-8.5448579"><ele>281.0</ele><time>2026-03-29T08:37:15.058Z</time></trkpt><trkpt lat="42.9070721" lon="-8.5448057"><ele>281.0</ele><time>2026-03-29T08:37:16.058Z</time></trkpt><trkpt lat="42.9069457" lon="-8.544754"><ele>281.0</ele><time>2026-03-29T08:37:17.059Z</time></trkpt><trkpt lat="42.906815" lon="-8.5447078"><ele>281.0</ele><time>2026-03-29T08:37:18.058Z</time></trkpt><trkpt lat="42.9066861" lon="-8.5446744"><ele>281.0</ele><time>2026-03-29T08:37:19.059Z</time></trkpt><trkpt lat="42.9065536" lon="-8.5446449"><ele>279.25</ele><time>2026-03-29T08:37:20.058Z</time></trkpt><trkpt lat="42.9064213" lon="-8.54461"><ele>277.5</ele><time>2026-03-29T08:37:21.058Z</time></trkpt><trkpt lat="42.9062907" lon="-8.5445858"><ele>275.75</ele><time>2026-03-29T08:37:22.058Z</time></trkpt><trkpt lat="42.9061624" lon="-8.5445575"><ele>274.0</ele><time>2026-03-29T08:37:23.059Z</time></trkpt><trkpt lat="42.9060336" lon="-8.5445351"><ele>271.5</ele><time>2026-03-29T08:37:24.059Z</time></trkpt><trkpt lat="42.9059028" lon="-8.5445244"><ele>269.0</ele><time>2026-03-29T08:37:25.058Z</time></trkpt><trkpt lat="42.9057734" lon="-8.5445388"><ele>266.5</ele><time>2026-03-29T08:37:26.059Z</time></trkpt><trkpt lat="42.9056482" lon="-8.5445642"><ele>264.0</ele><time>2026-03-29T08:37:27.059Z</time></trkpt><trkpt lat="42.9055286" lon="-8.5446121"><ele>264.0</ele><time>2026-03-29T08:37:28.059Z</time></trkpt><trkpt lat="42.905411" lon="-8.5446734"><ele>264.0</ele><time>2026-03-29T08:37:29.058Z</time></trkpt><trkpt lat="42.9052983" lon="-8.5447481"><ele>264.0</ele><time>2026-03-29T08:37:30.059Z</time></trkpt><trkpt lat="42.9051941" lon="-8.5448335"><ele>264.0</ele><time>2026-03-29T08:37:31.058Z</time></trkpt><trkpt lat="42.9050932" lon="-8.5449227"><ele>263.75</ele><time>2026-03-29T08:37:32.058Z</time></trkpt><trkpt lat="42.904993" lon="-8.5450055"><ele>263.5</ele><time>2026-03-29T08:37:33.058Z</time></trkpt><trkpt lat="42.9048922" lon="-8.5450864"><ele>263.25</ele><time>2026-03-29T08:37:34.058Z</time></trkpt><trkpt lat="42.904785" lon="-8.5451599"><ele>263.0</ele><time>2026-03-29T08:37:35.059Z</time></trkpt><trkpt lat="42.9046759" lon="-8.5452231"><ele>263.0</ele><time>2026-03-29T08:37:36.058Z</time></trkpt><trkpt lat="42.904564" lon="-8.5452725"><ele>263.0</ele><time>2026-03-29T08:37:37.058Z</time></trkpt><trkpt lat="42.9044557" lon="-8.5453193"><ele>263.0</ele><time>2026-03-29T08:37:38.058Z</time></trkpt><trkpt lat="42.9043462" lon="-8.5453666"><ele>263.0</ele><time>2026-03-29T08:37:39.058Z</time></trkpt><trkpt lat="42.9042338" lon="-8.5454183"><ele>261.5</ele><time>2026-03-29T08:37:40.058Z</time></trkpt><trkpt lat="42.9041207" lon="-8.5454607"><ele>260.0</ele><time>2026-03-29T08:37:41.058Z</time></trkpt><trkpt lat="42.9040055" lon="-8.5455031"><ele>258.5</ele><time>2026-03-29T08:37:42.058Z</time></trkpt><trkpt lat="42.9038874" lon="-8.5455515"><ele>257.0</ele><time>2026-03-29T08:37:43.058Z</time></trkpt><trkpt lat="42.9037712" lon="-8.5456017"><ele>257.0</ele><time>2026-03-29T08:37:44.058Z</time></trkpt><trkpt lat="42.9036525" lon="-8.5456474"><ele>257.0</ele><time>2026-03-29T08:37:45.058Z</time></trkpt><trkpt lat="42.903536" lon="-8.5456941"><ele>257.0</ele><time>2026-03-29T08:37:46.058Z</time></trkpt><trkpt lat="42.9034244" lon="-8.5457454"><ele>257.0</ele><time>2026-03-29T08:37:47.058Z</time></trkpt><trkpt lat="42.9033164" lon="-8.5457932"><ele>257.75</ele><time>2026-03-29T08:37:48.058Z</time></trkpt><trkpt lat="42.903205" lon="-8.5458392"><ele>258.5</ele><time>2026-03-29T08:37:49.058Z</time></trkpt><trkpt lat="42.9030938" lon="-8.5458894"><ele>259.25</ele><time>2026-03-29T08:37:50.059Z</time></trkpt><trkpt lat="42.9029816" lon="-8.5459353"><ele>260.0</ele><time>2026-03-29T08:37:51.058Z</time></trkpt><trkpt lat="42.9028672" lon="-8.5459838"><ele>260.0</ele><time>2026-03-29T08:37:52.059Z</time></trkpt><trkpt lat="42.9027552" lon="-8.5460304"><ele>260.0</ele><time>2026-03-29T08:37:53.058Z</time></trkpt><trkpt lat="42.902642" lon="-8.5460771"><ele>260.0</ele><time>2026-03-29T08:37:54.058Z</time></trkpt><trkpt lat="42.9025306" lon="-8.5461264"><ele>260.0</ele><time>2026-03-29T08:37:55.059Z</time></trkpt><trkpt lat="42.9024167" lon="-8.5461772"><ele>258.25</ele><time>2026-03-29T08:37:56.059Z</time></trkpt><trkpt lat="42.9023082" lon="-8.5462329"><ele>256.5</ele><time>2026-03-29T08:37:57.058Z</time></trkpt><trkpt lat="42.9022008" lon="-8.5462975"><ele>254.75</ele><time>2026-03-29T08:37:58.058Z</time></trkpt><trkpt lat="42.9020989" lon="-8.5463672"><ele>253.0</ele><time>2026-03-29T08:37:59.058Z</time></trkpt><trkpt lat="42.9019995" lon="-8.5464402"><ele>253.0</ele><time>2026-03-29T08:38:00.058Z</time></trkpt><trkpt lat="42.9018982" lon="-8.5465169"><ele>253.0</ele><time>2026-03-29T08:38:01.058Z</time></trkpt><trkpt lat="42.9017956" lon="-8.5465944"><ele>253.0</ele><time>2026-03-29T08:38:02.058Z</time></trkpt><trkpt lat="42.9016908" lon="-8.546664"><ele>253.0</ele><time>2026-03-29T08:38:03.058Z</time></trkpt><trkpt lat="42.9015814" lon="-8.5467183"><ele>253.75</ele><time>2026-03-29T08:38:04.059Z</time></trkpt><trkpt lat="42.9014702" lon="-8.5467554"><ele>254.5</ele><time>2026-03-29T08:38:05.059Z</time></trkpt><trkpt lat="42.9013571" lon="-8.5467867"><ele>255.25</ele><time>2026-03-29T08:38:06.058Z</time></trkpt><trkpt lat="42.9012484" lon="-8.5468058"><ele>256.0</ele><time>2026-03-29T08:38:07.059Z</time></trkpt><trkpt lat="42.9011365" lon="-8.5468204"><ele>256.0</ele><time>2026-03-29T08:38:08.058Z</time></trkpt><trkpt lat="42.9010252" lon="-8.5468321"><ele>256.0</ele><time>2026-03-29T08:38:09.058Z</time></trkpt><trkpt lat="42.9009131" lon="-8.5468431"><ele>256.0</ele><time>2026-03-29T08:38:10.058Z</time></trkpt><trkpt lat="42.9008036" lon="-8.546853"><ele>256.0</ele><time>2026-03-29T08:38:11.058Z</time></trkpt><trkpt lat="42.9006926" lon="-8.5468646"><ele>256.0</ele><time>2026-03-29T08:38:12.058Z</time></trkpt><trkpt lat="42.9005866" lon="-8.5468751"><ele>257.40000000000003</ele><time>2026-03-29T08:38:13.058Z</time></trkpt><trkpt lat="42.9004804" lon="-8.5468819"><ele>258.8</ele><time>2026-03-29T08:38:14.058Z</time></trkpt><trkpt lat="42.9003688" lon="-8.5468896"><ele>260.20000000000005</ele><time>2026-03-29T08:38:15.059Z</time></trkpt><trkpt lat="42.9002639" lon="-8.5468945"><ele>261.6</ele><time>2026-03-29T08:38:16.058Z</time></trkpt><trkpt lat="42.9001584" lon="-8.5469005"><ele>263.0</ele><time>2026-03-29T08:38:17.058Z</time></trkpt><trkpt lat="42.9000543" lon="-8.5469123"><ele>263.6</ele><time>2026-03-29T08:38:18.058Z</time></trkpt><trkpt lat="42.8999504" lon="-8.5469169"><ele>264.20000000000005</ele><time>2026-03-29T08:38:19.059Z</time></trkpt><trkpt lat="42.8998508" lon="-8.5469231"><ele>264.8</ele><time>2026-03-29T08:38:20.058Z</time></trkpt><trkpt lat="42.8997548" lon="-8.5469325"><ele>265.40000000000003</ele><time>2026-03-29T08:38:21.059Z</time></trkpt><trkpt lat="42.8996577" lon="-8.5469394"><ele>266.0</ele><time>2026-03-29T08:38:22.059Z</time></trkpt><trkpt lat="42.8995597" lon="-8.546945"><ele>266.0</ele><time>2026-03-29T08:38:23.058Z</time></trkpt><trkpt lat="42.8994673" lon="-8.5469538"><ele>266.0</ele><time>2026-03-29T08:38:24.059Z</time></trkpt><trkpt lat="42.8993773" lon="-8.5469626"><ele>266.0</ele><time>2026-03-29T08:38:25.059Z</time></trkpt><trkpt lat="42.8992821" lon="-8.5469671"><ele>266.0</ele><time>2026-03-29T08:38:26.058Z</time></trkpt><trkpt lat="42.8991848" lon="-8.5469777"><ele>266.0</ele><time>2026-03-29T08:38:27.058Z</time></trkpt><trkpt lat="42.8990929" lon="-8.5469882"><ele>265.6</ele><time>2026-03-29T08:38:28.058Z</time></trkpt><trkpt lat="42.8990018" lon="-8.5469965"><ele>265.20000000000005</ele><time>2026-03-29T08:38:29.059Z</time></trkpt><trkpt lat="42.8989086" lon="-8.5470054"><ele>264.79999999999995</ele><time>2026-03-29T08:38:30.059Z</time></trkpt><trkpt lat="42.8988181" lon="-8.547016"><ele>264.4</ele><time>2026-03-29T08:38:31.059Z</time></trkpt><trkpt lat="42.8987275" lon="-8.547021"><ele>264.0</ele><time>2026-03-29T08:38:32.058Z</time></trkpt><trkpt lat="42.8986332" lon="-8.5470291"><ele>264.0</ele><time>2026-03-29T08:38:33.058Z</time></trkpt><trkpt lat="42.8985406" lon="-8.5470417"><ele>264.0</ele><time>2026-03-29T08:38:34.058Z</time></trkpt><trkpt lat="42.8984465" lon="-8.5470543"><ele>264.0</ele><time>2026-03-29T08:38:35.058Z</time></trkpt><trkpt lat="42.8983546" lon="-8.5470646"><ele>264.0</ele><time>2026-03-29T08:38:36.059Z</time></trkpt><trkpt lat="42.8982573" lon="-8.5470727"><ele>264.0</ele><time>2026-03-29T08:38:37.059Z</time></trkpt><trkpt lat="42.8981615" lon="-8.5470817"><ele>261.4</ele><time>2026-03-29T08:38:38.058Z</time></trkpt><trkpt lat="42.8980623" lon="-8.5470905"><ele>258.79999999999995</ele><time>2026-03-29T08:38:39.058Z</time></trkpt><trkpt lat="42.8979649" lon="-8.5470991"><ele>256.20000000000005</ele><time>2026-03-29T08:38:40.058Z</time></trkpt><trkpt lat="42.8978642" lon="-8.5471065"><ele>253.60000000000002</ele><time>2026-03-29T08:38:41.059Z</time></trkpt><trkpt lat="42.8977682" lon="-8.5471156"><ele>251.0</ele><time>2026-03-29T08:38:42.058Z</time></trkpt><trkpt lat="42.8976739" lon="-8.5471236"><ele>250.8</ele><time>2026-03-29T08:38:43.058Z</time></trkpt><trkpt lat="42.897573" lon="-8.5471258"><ele>250.60000000000002</ele><time>2026-03-29T08:38:44.058Z</time></trkpt><trkpt lat="42.8974772" lon="-8.5471324"><ele>250.4</ele><time>2026-03-29T08:38:45.058Z</time></trkpt><trkpt lat="42.8973781" lon="-8.5471421"><ele>250.2</ele><time>2026-03-29T08:38:46.058Z</time></trkpt><trkpt lat="42.8972829" lon="-8.5471502"><ele>250.0</ele><time>2026-03-29T08:38:47.058Z</time></trkpt><trkpt lat="42.8971882" lon="-8.5471589"><ele>250.0</ele><time>2026-03-29T08:38:48.058Z</time></trkpt><trkpt lat="42.8970922" lon="-8.5471704"><ele>250.0</ele><time>2026-03-29T08:38:49.058Z</time></trkpt><trkpt lat="42.8969962" lon="-8.5471798"><ele>250.0</ele><time>2026-03-29T08:38:50.058Z</time></trkpt><trkpt lat="42.8969083" lon="-8.5471885"><ele>250.0</ele><time>2026-03-29T08:38:51.059Z</time></trkpt><trkpt lat="42.8968146" lon="-8.5472034"><ele>250.0</ele><time>2026-03-29T08:38:52.059Z</time></trkpt><trkpt lat="42.8967224" lon="-8.5472162"><ele>250.16666666666666</ele><time>2026-03-29T08:38:53.058Z</time></trkpt><trkpt lat="42.8966337" lon="-8.5472274"><ele>250.33333333333331</ele><time>2026-03-29T08:38:54.058Z</time></trkpt><trkpt lat="42.8965446" lon="-8.5472397"><ele>250.5</ele><time>2026-03-29T08:38:55.058Z</time></trkpt><trkpt lat="42.8964602" lon="-8.5472478"><ele>250.66666666666669</ele><time>2026-03-29T08:38:56.058Z</time></trkpt><trkpt lat="42.8963769" lon="-8.5472597"><ele>250.83333333333334</ele><time>2026-03-29T08:38:57.059Z</time></trkpt><trkpt lat="42.8962932" lon="-8.5472663"><ele>251.0</ele><time>2026-03-29T08:38:58.058Z</time></trkpt><trkpt lat="42.896217" lon="-8.5472713"><ele>250.99999999999997</ele><time>2026-03-29T08:38:59.058Z</time></trkpt><trkpt lat="42.89614" lon="-8.5472758"><ele>251.0</ele><time>2026-03-29T08:39:00.059Z</time></trkpt><trkpt lat="42.8960662" lon="-8.5472841"><ele>250.99999999999997</ele><time>2026-03-29T08:39:01.058Z</time></trkpt><trkpt lat="42.895993" lon="-8.5472896"><ele>250.99999999999997</ele><time>2026-03-29T08:39:02.058Z</time></trkpt><trkpt lat="42.8959229" lon="-8.5473093"><ele>251.0</ele><time>2026-03-29T08:39:03.058Z</time></trkpt><trkpt lat="42.8958556" lon="-8.5473386"><ele>250.99999999999997</ele><time>2026-03-29T08:39:04.059Z</time></trkpt><trkpt lat="42.8957877" lon="-8.5473595"><ele>250.99999999999997</ele><time>2026-03-29T08:39:05.059Z</time></trkpt><trkpt lat="42.8957133" lon="-8.5473512"><ele>251.16666666666669</ele><time>2026-03-29T08:39:06.059Z</time></trkpt><trkpt lat="42.8956403" lon="-8.54733"><ele>251.33333333333334</ele><time>2026-03-29T08:39:07.058Z</time></trkpt><trkpt lat="42.895543" lon="-8.5473174"><ele>251.5</ele><time>2026-03-29T08:39:09.058Z</time></trkpt><trkpt lat="42.8954741" lon="-8.5473178"><ele>251.66666666666669</ele><time>2026-03-29T08:39:11.058Z</time></trkpt><trkpt lat="42.8953925" lon="-8.5473232"><ele>251.83333333333334</ele><time>2026-03-29T08:39:13.059Z</time></trkpt><trkpt lat="42.8952836" lon="-8.5473306"><ele>252.0</ele><time>2026-03-29T08:39:15.058Z</time></trkpt><trkpt lat="42.8952203" lon="-8.5473359"><ele>252.0</ele><time>2026-03-29T08:39:16.058Z</time></trkpt><trkpt lat="42.8951571" lon="-8.547342"><ele>252.0</ele><time>2026-03-29T08:39:17.059Z</time></trkpt><trkpt lat="42.8950375" lon="-8.5473583"><ele>252.0</ele><time>2026-03-29T08:39:19.058Z</time></trkpt><trkpt lat="42.8949209" lon="-8.5473777"><ele>252.0</ele><time>2026-03-29T08:39:21.059Z</time></trkpt><trkpt lat="42.8948507" lon="-8.5473786"><ele>252.0</ele><time>2026-03-29T08:39:22.058Z</time></trkpt><trkpt lat="42.8947648" lon="-8.5473748"><ele>251.8</ele><time>2026-03-29T08:39:23.059Z</time></trkpt><trkpt lat="42.8946773" lon="-8.5473784"><ele>251.6</ele><time>2026-03-29T08:39:24.058Z</time></trkpt><trkpt lat="42.8945893" lon="-8.5473815"><ele>251.40000000000003</ele><time>2026-03-29T08:39:25.058Z</time></trkpt><trkpt lat="42.8944957" lon="-8.5473888"><ele>251.20000000000002</ele><time>2026-03-29T08:39:26.059Z</time></trkpt><trkpt lat="42.8943975" lon="-8.5473934"><ele>251.0</ele><time>2026-03-29T08:39:27.058Z</time></trkpt><trkpt lat="42.894299" lon="-8.5473999"><ele>250.8</ele><time>2026-03-29T08:39:28.058Z</time></trkpt><trkpt lat="42.8941998" lon="-8.5474116"><ele>250.60000000000002</ele><time>2026-03-29T08:39:29.058Z</time></trkpt><trkpt lat="42.8941012" lon="-8.5474232"><ele>250.4</ele><time>2026-03-29T08:39:30.059Z</time></trkpt><trkpt lat="42.8939987" lon="-8.5474354"><ele>250.2</ele><time>2026-03-29T08:39:31.058Z</time></trkpt><trkpt lat="42.8938959" lon="-8.5474435"><ele>250.0</ele><time>2026-03-29T08:39:32.058Z</time></trkpt><trkpt lat="42.8937967" lon="-8.54745"><ele>250.0</ele><time>2026-03-29T08:39:33.058Z</time></trkpt><trkpt lat="42.8936953" lon="-8.547461"><ele>250.0</ele><time>2026-03-29T08:39:34.058Z</time></trkpt><trkpt lat="42.8935965" lon="-8.5474737"><ele>250.0</ele><time>2026-03-29T08:39:35.058Z</time></trkpt><trkpt lat="42.893499" lon="-8.5474856"><ele>250.0</ele><time>2026-03-29T08:39:36.058Z</time></trkpt><trkpt lat="42.8934029" lon="-8.5474947"><ele>250.0</ele><time>2026-03-29T08:39:37.059Z</time></trkpt><trkpt lat="42.8933091" lon="-8.547502"><ele>250.6</ele><time>2026-03-29T08:39:38.058Z</time></trkpt><trkpt lat="42.8932156" lon="-8.5475096"><ele>251.2</ele><time>2026-03-29T08:39:39.059Z</time></trkpt><trkpt lat="42.893116" lon="-8.5475188"><ele>251.8</ele><time>2026-03-29T08:39:40.059Z</time></trkpt><trkpt lat="42.8930195" lon="-8.5475263"><ele>252.4</ele><time>2026-03-29T08:39:41.058Z</time></trkpt><trkpt lat="42.8929192" lon="-8.5475348"><ele>253.0</ele><time>2026-03-29T08:39:42.059Z</time></trkpt><trkpt lat="42.8928205" lon="-8.54754"><ele>253.0</ele><time>2026-03-29T08:39:43.058Z</time></trkpt><trkpt lat="42.8927193" lon="-8.5475488"><ele>253.0</ele><time>2026-03-29T08:39:44.058Z</time></trkpt><trkpt lat="42.8926228" lon="-8.5475551"><ele>253.0</ele><time>2026-03-29T08:39:45.059Z</time></trkpt><trkpt lat="42.8925247" lon="-8.5475637"><ele>253.0</ele><time>2026-03-29T08:39:46.059Z</time></trkpt><trkpt lat="42.8924367" lon="-8.5475712"><ele>253.0</ele><time>2026-03-29T08:39:47.059Z</time></trkpt><trkpt lat="42.8923474" lon="-8.5475717"><ele>253.33333333333331</ele><time>2026-03-29T08:39:48.059Z</time></trkpt><trkpt lat="42.8922638" lon="-8.5475699"><ele>253.66666666666666</ele><time>2026-03-29T08:39:49.059Z</time></trkpt><trkpt lat="42.8921816" lon="-8.5475652"><ele>254.0</ele><time>2026-03-29T08:39:50.058Z</time></trkpt><trkpt lat="42.8921012" lon="-8.5475686"><ele>254.33333333333331</ele><time>2026-03-29T08:39:51.059Z</time></trkpt><trkpt lat="42.8920262" lon="-8.5475647"><ele>254.66666666666666</ele><time>2026-03-29T08:39:52.059Z</time></trkpt><trkpt lat="42.8919536" lon="-8.5475572"><ele>255.0</ele><time>2026-03-29T08:39:53.059Z</time></trkpt><trkpt lat="42.8918329" lon="-8.5475437"><ele>255.0</ele><time>2026-03-29T08:39:55.058Z</time></trkpt><trkpt lat="42.8917383" lon="-8.5475297"><ele>255.0</ele><time>2026-03-29T08:39:57.058Z</time></trkpt><trkpt lat="42.8916669" lon="-8.5475127"><ele>255.0</ele><time>2026-03-29T08:39:59.058Z</time></trkpt><trkpt lat="42.8915968" lon="-8.5475159"><ele>255.0</ele><time>2026-03-29T08:40:07.058Z</time></trkpt><trkpt lat="42.8914888" lon="-8.5474961"><ele>255.0</ele><time>2026-03-29T08:40:09.059Z</time></trkpt><trkpt lat="42.8913763" lon="-8.5474706"><ele>255.0</ele><time>2026-03-29T08:40:11.059Z</time></trkpt><trkpt lat="42.891259" lon="-8.5474414"><ele>255.0</ele><time>2026-03-29T08:40:13.058Z</time></trkpt><trkpt lat="42.8911418" lon="-8.5474035"><ele>255.0</ele><time>2026-03-29T08:40:15.058Z</time></trkpt><trkpt lat="42.8910256" lon="-8.5473561"><ele>255.0</ele><time>2026-03-29T08:40:17.059Z</time></trkpt><trkpt lat="42.8909634" lon="-8.5473343"><ele>255.0</ele><time>2026-03-29T08:40:18.059Z</time></trkpt><trkpt lat="42.8909021" lon="-8.54731"><ele>254.42857142857144</ele><time>2026-03-29T08:40:19.058Z</time></trkpt><trkpt lat="42.8908388" lon="-8.5472907"><ele>253.8571428571429</ele><time>2026-03-29T08:40:20.059Z</time></trkpt><trkpt lat="42.8907679" lon="-8.5472628"><ele>253.28571428571428</ele><time>2026-03-29T08:40:21.059Z</time></trkpt><trkpt lat="42.8906998" lon="-8.5472404"><ele>252.71428571428572</ele><time>2026-03-29T08:40:22.058Z</time></trkpt><trkpt lat="42.890629" lon="-8.5472158"><ele>252.14285714285714</ele><time>2026-03-29T08:40:23.059Z</time></trkpt><trkpt lat="42.8905586" lon="-8.5471907"><ele>251.57142857142856</ele><time>2026-03-29T08:40:24.058Z</time></trkpt><trkpt lat="42.8904846" lon="-8.5471666"><ele>250.99999999999997</ele><time>2026-03-29T08:40:25.058Z</time></trkpt><trkpt lat="42.8904123" lon="-8.5471438"><ele>250.99999999999997</ele><time>2026-03-29T08:40:26.058Z</time></trkpt><trkpt lat="42.8903398" lon="-8.5471201"><ele>251.0</ele><time>2026-03-29T08:40:27.058Z</time></trkpt><trkpt lat="42.8902703" lon="-8.547096"><ele>250.99999999999997</ele><time>2026-03-29T08:40:28.058Z</time></trkpt><trkpt lat="42.890197" lon="-8.5470747"><ele>250.99999999999997</ele><time>2026-03-29T08:40:29.059Z</time></trkpt><trkpt lat="42.8901266" lon="-8.5470553"><ele>251.0</ele><time>2026-03-29T08:40:30.058Z</time></trkpt><trkpt lat="42.8900569" lon="-8.5470333"><ele>250.99999999999997</ele><time>2026-03-29T08:40:31.059Z</time></trkpt><trkpt lat="42.8899916" lon="-8.5470145"><ele>250.99999999999997</ele><time>2026-03-29T08:40:32.058Z</time></trkpt><trkpt lat="42.8899241" lon="-8.5470027"><ele>250.71428571428567</ele><time>2026-03-29T08:40:33.058Z</time></trkpt><trkpt lat="42.8898519" lon="-8.5469905"><ele>250.42857142857142</ele><time>2026-03-29T08:40:34.058Z</time></trkpt><trkpt lat="42.8897852" lon="-8.5469755"><ele>250.1428571428571</ele><time>2026-03-29T08:40:35.058Z</time></trkpt><trkpt lat="42.8897123" lon="-8.5469613"><ele>249.85714285714283</ele><time>2026-03-29T08:40:36.059Z</time></trkpt><trkpt lat="42.8896388" lon="-8.5469548"><ele>249.57142857142856</ele><time>2026-03-29T08:40:37.058Z</time></trkpt><trkpt lat="42.889567" lon="-8.5469516"><ele>249.28571428571428</ele><time>2026-03-29T08:40:38.058Z</time></trkpt><trkpt lat="42.8894943" lon="-8.5469496"><ele>249.0</ele><time>2026-03-29T08:40:39.058Z</time></trkpt><trkpt lat="42.8894148" lon="-8.5469427"><ele>249.0</ele><time>2026-03-29T08:40:40.058Z</time></trkpt><trkpt lat="42.8893277" lon="-8.5469396"><ele>249.0</ele><time>2026-03-29T08:40:41.059Z</time></trkpt><trkpt lat="42.8892429" lon="-8.5469339"><ele>249.0</ele><time>2026-03-29T08:40:42.058Z</time></trkpt><trkpt lat="42.8891569" lon="-8.5469352"><ele>249.0</ele><time>2026-03-29T08:40:43.059Z</time></trkpt><trkpt lat="42.8890729" lon="-8.5469386"><ele>249.0</ele><time>2026-03-29T08:40:44.059Z</time></trkpt><trkpt lat="42.8889904" lon="-8.5469432"><ele>249.0</ele><time>2026-03-29T08:40:45.058Z</time></trkpt><trkpt lat="42.8889078" lon="-8.5469443"><ele>248.33333333333334</ele><time>2026-03-29T08:40:46.059Z</time></trkpt><trkpt lat="42.8888215" lon="-8.5469408"><ele>247.66666666666669</ele><time>2026-03-29T08:40:47.058Z</time></trkpt><trkpt lat="42.8887339" lon="-8.5469451"><ele>247.0</ele><time>2026-03-29T08:40:48.058Z</time></trkpt><trkpt lat="42.8886488" lon="-8.5469577"><ele>246.33333333333334</ele><time>2026-03-29T08:40:49.059Z</time></trkpt><trkpt lat="42.8885604" lon="-8.5469731"><ele>245.66666666666669</ele><time>2026-03-29T08:40:50.058Z</time></trkpt><trkpt lat="42.8884739" lon="-8.5469905"><ele>245.0</ele><time>2026-03-29T08:40:51.058Z</time></trkpt><trkpt lat="42.8883863" lon="-8.5470103"><ele>244.66666666666669</ele><time>2026-03-29T08:40:52.059Z</time></trkpt><trkpt lat="42.888303" lon="-8.5470279"><ele>244.33333333333334</ele><time>2026-03-29T08:40:53.058Z</time></trkpt><trkpt lat="42.8882169" lon="-8.5470458"><ele>244.0</ele><time>2026-03-29T08:40:54.058Z</time></trkpt><trkpt lat="42.8881331" lon="-8.5470684"><ele>243.66666666666669</ele><time>2026-03-29T08:40:55.058Z</time></trkpt><trkpt lat="42.8880488" lon="-8.5470952"><ele>243.33333333333334</ele><time>2026-03-29T08:40:56.058Z</time></trkpt><trkpt lat="42.8879639" lon="-8.5471229"><ele>243.0</ele><time>2026-03-29T08:40:57.059Z</time></trkpt><trkpt lat="42.8878824" lon="-8.5471511"><ele>243.0</ele><time>2026-03-29T08:40:58.058Z</time></trkpt><trkpt lat="42.8877992" lon="-8.5471831"><ele>243.0</ele><time>2026-03-29T08:40:59.058Z</time></trkpt><trkpt lat="42.8877133" lon="-8.5472146"><ele>243.0</ele><time>2026-03-29T08:41:00.059Z</time></trkpt><trkpt lat="42.8876307" lon="-8.5472489"><ele>243.0</ele><time>2026-03-29T08:41:01.059Z</time></trkpt><trkpt lat="42.887549" lon="-8.5472818"><ele>243.0</ele><time>2026-03-29T08:41:02.058Z</time></trkpt><trkpt lat="42.88747" lon="-8.5473214"><ele>243.0</ele><time>2026-03-29T08:41:03.058Z</time></trkpt><trkpt lat="42.8873841" lon="-8.5473619"><ele>243.33333333333334</ele><time>2026-03-29T08:41:04.058Z</time></trkpt><trkpt lat="42.8873075" lon="-8.5473997"><ele>243.66666666666669</ele><time>2026-03-29T08:41:05.059Z</time></trkpt><trkpt lat="42.887227" lon="-8.5474406"><ele>244.0</ele><time>2026-03-29T08:41:06.059Z</time></trkpt><trkpt lat="42.8871465" lon="-8.5474796"><ele>244.33333333333334</ele><time>2026-03-29T08:41:07.058Z</time></trkpt><trkpt lat="42.8870652" lon="-8.5475174"><ele>244.66666666666669</ele><time>2026-03-29T08:41:08.058Z</time></trkpt><trkpt lat="42.8869806" lon="-8.5475578"><ele>245.0</ele><time>2026-03-29T08:41:09.059Z</time></trkpt><trkpt lat="42.8868968" lon="-8.5475977"><ele>245.00000000000003</ele><time>2026-03-29T08:41:10.059Z</time></trkpt><trkpt lat="42.8868157" lon="-8.5476274"><ele>245.0</ele><time>2026-03-29T08:41:11.058Z</time></trkpt><trkpt lat="42.8867356" lon="-8.5476595"><ele>245.0</ele><time>2026-03-29T08:41:12.058Z</time></trkpt><trkpt lat="42.886651" lon="-8.547689"><ele>245.0</ele><time>2026-03-29T08:41:13.058Z</time></trkpt><trkpt lat="42.8865698" lon="-8.5477098"><ele>245.00000000000003</ele><time>2026-03-29T08:41:14.059Z</time></trkpt><trkpt lat="42.8864838" lon="-8.547724"><ele>245.0</ele><time>2026-03-29T08:41:15.059Z</time></trkpt><trkpt lat="42.8863955" lon="-8.5477274"><ele>243.66666666666669</ele><time>2026-03-29T08:41:16.059Z</time></trkpt><trkpt lat="42.8863067" lon="-8.5477217"><ele>242.33333333333334</ele><time>2026-03-29T08:41:17.058Z</time></trkpt><trkpt lat="42.8862154" lon="-8.5477219"><ele>241.0</ele><time>2026-03-29T08:41:18.058Z</time></trkpt><trkpt lat="42.8861245" lon="-8.5477116"><ele>239.66666666666669</ele><time>2026-03-29T08:41:19.058Z</time></trkpt><trkpt lat="42.886034" lon="-8.5477009"><ele>238.33333333333334</ele><time>2026-03-29T08:41:20.058Z</time></trkpt><trkpt lat="42.8859531" lon="-8.547695"><ele>237.0</ele><time>2026-03-29T08:41:21.059Z</time></trkpt><trkpt lat="42.8858799" lon="-8.5476991"><ele>236.33333333333334</ele><time>2026-03-29T08:41:22.058Z</time></trkpt><trkpt lat="42.8857947" lon="-8.547695"><ele>235.66666666666669</ele><time>2026-03-29T08:41:24.058Z</time></trkpt><trkpt lat="42.8857107" lon="-8.5476871"><ele>235.0</ele><time>2026-03-29T08:41:26.059Z</time></trkpt><trkpt lat="42.8856047" lon="-8.5476747"><ele>234.33333333333334</ele><time>2026-03-29T08:41:28.058Z</time></trkpt><trkpt lat="42.8855415" lon="-8.5476763"><ele>233.66666666666669</ele><time>2026-03-29T08:41:29.059Z</time></trkpt><trkpt lat="42.8854695" lon="-8.547682"><ele>233.0</ele><time>2026-03-29T08:41:30.058Z</time></trkpt><trkpt lat="42.8854016" lon="-8.5476985"><ele>233.0</ele><time>2026-03-29T08:41:31.059Z</time></trkpt><trkpt lat="42.8853325" lon="-8.5477216"><ele>233.0</ele><time>2026-03-29T08:41:32.059Z</time></trkpt><trkpt lat="42.8852622" lon="-8.5477453"><ele>233.0</ele><time>2026-03-29T08:41:33.058Z</time></trkpt><trkpt lat="42.8851898" lon="-8.5477733"><ele>233.0</ele><time>2026-03-29T08:41:34.058Z</time></trkpt><trkpt lat="42.8851218" lon="-8.5478096"><ele>233.0</ele><time>2026-03-29T08:41:35.058Z</time></trkpt><trkpt lat="42.8850558" lon="-8.54785"><ele>233.0</ele><time>2026-03-29T08:41:36.058Z</time></trkpt><trkpt lat="42.8849899" lon="-8.5478902"><ele>233.0</ele><time>2026-03-29T08:41:37.058Z</time></trkpt><trkpt lat="42.8849332" lon="-8.5479301"><ele>232.0</ele><time>2026-03-29T08:41:38.059Z</time></trkpt><trkpt lat="42.8848288" lon="-8.5479977"><ele>231.0</ele><time>2026-03-29T08:41:40.059Z</time></trkpt><trkpt lat="42.8847413" lon="-8.5480394"><ele>230.0</ele><time>2026-03-29T08:41:42.059Z</time></trkpt><trkpt lat="42.8846597" lon="-8.5480651"><ele>229.0</ele><time>2026-03-29T08:41:45.059Z</time></trkpt><trkpt lat="42.884578" lon="-8.5481013"><ele>228.0</ele><time>2026-03-29T08:42:25.058Z</time></trkpt><trkpt lat="42.8844502" lon="-8.5481382"><ele>228.0</ele><time>2026-03-29T08:42:27.058Z</time></trkpt><trkpt lat="42.8843606" lon="-8.5481655"><ele>228.0</ele><time>2026-03-29T08:42:28.059Z</time></trkpt><trkpt lat="42.8842618" lon="-8.548186"><ele>228.0</ele><time>2026-03-29T08:42:29.058Z</time></trkpt><trkpt lat="42.8841584" lon="-8.5482102"><ele>228.0</ele><time>2026-03-29T08:42:30.058Z</time></trkpt><trkpt lat="42.8840428" lon="-8.548234"><ele>228.0</ele><time>2026-03-29T08:42:31.059Z</time></trkpt><trkpt lat="42.8839229" lon="-8.5482621"><ele>227.75</ele><time>2026-03-29T08:42:32.059Z</time></trkpt><trkpt lat="42.8837985" lon="-8.5482911"><ele>227.5</ele><time>2026-03-29T08:42:33.058Z</time></trkpt><trkpt lat="42.8836717" lon="-8.548321"><ele>227.25</ele><time>2026-03-29T08:42:34.059Z</time></trkpt><trkpt lat="42.8835442" lon="-8.5483504"><ele>227.0</ele><time>2026-03-29T08:42:35.059Z</time></trkpt><trkpt lat="42.8834165" lon="-8.5483933"><ele>228.0</ele><time>2026-03-29T08:42:36.059Z</time></trkpt><trkpt lat="42.8832943" lon="-8.5484329"><ele>229.0</ele><time>2026-03-29T08:42:37.058Z</time></trkpt><trkpt lat="42.8831751" lon="-8.5484749"><ele>230.0</ele><time>2026-03-29T08:42:38.058Z</time></trkpt><trkpt lat="42.8830606" lon="-8.548518"><ele>231.0</ele><time>2026-03-29T08:42:39.058Z</time></trkpt><trkpt lat="42.8829404" lon="-8.5485608"><ele>231.0</ele><time>2026-03-29T08:42:40.059Z</time></trkpt><trkpt lat="42.8828245" lon="-8.548606"><ele>231.0</ele><time>2026-03-29T08:42:41.059Z</time></trkpt><trkpt lat="42.8827087" lon="-8.5486468"><ele>231.0</ele><time>2026-03-29T08:42:42.058Z</time></trkpt><trkpt lat="42.8825963" lon="-8.5486841"><ele>231.0</ele><time>2026-03-29T08:42:43.058Z</time></trkpt><trkpt lat="42.8824899" lon="-8.5487316"><ele>230.4</ele><time>2026-03-29T08:42:44.058Z</time></trkpt><trkpt lat="42.8823852" lon="-8.5487712"><ele>229.8</ele><time>2026-03-29T08:42:45.059Z</time></trkpt><trkpt lat="42.8822759" lon="-8.5488144"><ele>229.20000000000002</ele><time>2026-03-29T08:42:46.059Z</time></trkpt><trkpt lat="42.8821638" lon="-8.548849"><ele>228.60000000000002</ele><time>2026-03-29T08:42:47.058Z</time></trkpt><trkpt lat="42.882064" lon="-8.5488907"><ele>228.0</ele><time>2026-03-29T08:42:48.059Z</time></trkpt><trkpt lat="42.8819685" lon="-8.5489304"><ele>228.0</ele><time>2026-03-29T08:42:49.058Z</time></trkpt><trkpt lat="42.8818766" lon="-8.5489671"><ele>228.0</ele><time>2026-03-29T08:42:50.058Z</time></trkpt><trkpt lat="42.8817887" lon="-8.5490035"><ele>228.0</ele><time>2026-03-29T08:42:51.059Z</time></trkpt><trkpt lat="42.8817002" lon="-8.5490362"><ele>228.0</ele><time>2026-03-29T08:42:52.058Z</time></trkpt><trkpt lat="42.8816155" lon="-8.54907"><ele>228.0</ele><time>2026-03-29T08:42:53.058Z</time></trkpt><trkpt lat="42.8815301" lon="-8.5491076"><ele>228.2</ele><time>2026-03-29T08:42:54.059Z</time></trkpt><trkpt lat="42.8814406" lon="-8.5491433"><ele>228.4</ele><time>2026-03-29T08:42:55.058Z</time></trkpt><trkpt lat="42.8813494" lon="-8.5491813"><ele>228.59999999999997</ele><time>2026-03-29T08:42:56.059Z</time></trkpt><trkpt lat="42.8812545" lon="-8.5492181"><ele>228.79999999999998</ele><time>2026-03-29T08:42:57.058Z</time></trkpt><trkpt lat="42.8811612" lon="-8.5492523"><ele>229.0</ele><time>2026-03-29T08:42:58.059Z</time></trkpt><trkpt lat="42.8810634" lon="-8.5492873"><ele>228.99999999999997</ele><time>2026-03-29T08:42:59.059Z</time></trkpt><trkpt lat="42.8809866" lon="-8.5493154"><ele>229.0</ele><time>2026-03-29T08:43:00.059Z</time></trkpt><trkpt lat="42.880909" lon="-8.549345"><ele>229.0</ele><time>2026-03-29T08:43:01.059Z</time></trkpt><trkpt lat="42.8808439" lon="-8.5493717"><ele>229.0</ele><time>2026-03-29T08:43:02.059Z</time></trkpt><trkpt lat="42.8807649" lon="-8.5494034"><ele>228.99999999999997</ele><time>2026-03-29T08:43:04.058Z</time></trkpt><trkpt lat="42.8806404" lon="-8.5494452"><ele>229.0</ele><time>2026-03-29T08:44:05.059Z</time></trkpt><trkpt lat="42.8805565" lon="-8.5494827"><ele>229.66666666666666</ele><time>2026-03-29T08:44:06.059Z</time></trkpt><trkpt lat="42.8804674" lon="-8.5495146"><ele>230.33333333333331</ele><time>2026-03-29T08:44:07.058Z</time></trkpt><trkpt lat="42.8803786" lon="-8.5495341"><ele>231.0</ele><time>2026-03-29T08:44:08.058Z</time></trkpt><trkpt lat="42.880287" lon="-8.5495397"><ele>231.66666666666669</ele><time>2026-03-29T08:44:09.058Z</time></trkpt><trkpt lat="42.8801995" lon="-8.5495326"><ele>232.33333333333334</ele><time>2026-03-29T08:44:10.058Z</time></trkpt><trkpt lat="42.8801188" lon="-8.5495194"><ele>233.0</ele><time>2026-03-29T08:44:11.059Z</time></trkpt><trkpt lat="42.8800354" lon="-8.5494977"><ele>233.8</ele><time>2026-03-29T08:44:12.059Z</time></trkpt><trkpt lat="42.8799602" lon="-8.5494691"><ele>234.60000000000002</ele><time>2026-03-29T08:44:13.058Z</time></trkpt><trkpt lat="42.8798808" lon="-8.5494221"><ele>235.39999999999998</ele><time>2026-03-29T08:44:14.058Z</time></trkpt><trkpt lat="42.8797987" lon="-8.5493686"><ele>236.2</ele><time>2026-03-29T08:44:15.059Z</time></trkpt><trkpt lat="42.8797085" lon="-8.5493034"><ele>237.0</ele><time>2026-03-29T08:44:16.058Z</time></trkpt><trkpt lat="42.8796182" lon="-8.549234"><ele>237.0</ele><time>2026-03-29T08:44:17.059Z</time></trkpt><trkpt lat="42.879526" lon="-8.549157"><ele>237.0</ele><time>2026-03-29T08:44:18.059Z</time></trkpt><trkpt lat="42.8794324" lon="-8.5490753"><ele>237.0</ele><time>2026-03-29T08:44:19.059Z</time></trkpt><trkpt lat="42.8793357" lon="-8.54899"><ele>237.0</ele><time>2026-03-29T08:44:20.058Z</time></trkpt><trkpt lat="42.8792354" lon="-8.5489044"><ele>238.25</ele><time>2026-03-29T08:44:21.058Z</time></trkpt><trkpt lat="42.8791379" lon="-8.5488198"><ele>239.5</ele><time>2026-03-29T08:44:22.059Z</time></trkpt><trkpt lat="42.8790378" lon="-8.5487337"><ele>240.75</ele><time>2026-03-29T08:44:23.058Z</time></trkpt><trkpt lat="42.8789399" lon="-8.548651"><ele>242.0</ele><time>2026-03-29T08:44:24.058Z</time></trkpt><trkpt lat="42.8788433" lon="-8.5485686"><ele>242.0</ele><time>2026-03-29T08:44:25.059Z</time></trkpt><trkpt lat="42.8787474" lon="-8.5484868"><ele>242.0</ele><time>2026-03-29T08:44:26.058Z</time></trkpt><trkpt lat="42.8786504" lon="-8.5484027"><ele>242.0</ele><time>2026-03-29T08:44:27.058Z</time></trkpt><trkpt lat="42.8785522" lon="-8.548318"><ele>242.0</ele><time>2026-03-29T08:44:28.058Z</time></trkpt><trkpt lat="42.8784553" lon="-8.5482354"><ele>245.0</ele><time>2026-03-29T08:44:29.058Z</time></trkpt><trkpt lat="42.8783483" lon="-8.5481456"><ele>248.0</ele><time>2026-03-29T08:44:30.058Z</time></trkpt><trkpt lat="42.8782577" lon="-8.548071"><ele>251.0</ele><time>2026-03-29T08:44:31.058Z</time></trkpt><trkpt lat="42.8781654" lon="-8.5479867"><ele>254.0</ele><time>2026-03-29T08:44:32.059Z</time></trkpt><trkpt lat="42.8780746" lon="-8.5478959"><ele>252.79999999999998</ele><time>2026-03-29T08:44:33.058Z</time></trkpt><trkpt lat="42.878002" lon="-8.5478105"><ele>251.59999999999997</ele><time>2026-03-29T08:44:34.058Z</time></trkpt><trkpt lat="42.8779339" lon="-8.54773"><ele>250.4</ele><time>2026-03-29T08:44:35.058Z</time></trkpt><trkpt lat="42.8778676" lon="-8.547637"><ele>249.2</ele><time>2026-03-29T08:44:36.058Z</time></trkpt><trkpt lat="42.8777962" lon="-8.5475558"><ele>248.0</ele><time>2026-03-29T08:44:37.058Z</time></trkpt><trkpt lat="42.8777334" lon="-8.5474749"><ele>248.00000000000003</ele><time>2026-03-29T08:44:38.059Z</time></trkpt><trkpt lat="42.8776666" lon="-8.5473912"><ele>248.0</ele><time>2026-03-29T08:44:39.058Z</time></trkpt><trkpt lat="42.8776006" lon="-8.5473042"><ele>248.0</ele><time>2026-03-29T08:44:40.058Z</time></trkpt><trkpt lat="42.8775375" lon="-8.5472093"><ele>248.0</ele><time>2026-03-29T08:44:41.059Z</time></trkpt><trkpt lat="42.8774901" lon="-8.5471086"><ele>248.00000000000003</ele><time>2026-03-29T08:44:42.059Z</time></trkpt><trkpt lat="42.8774758" lon="-8.5469975"><ele>248.0</ele><time>2026-03-29T08:44:43.058Z</time></trkpt><trkpt lat="42.8774859" lon="-8.5468842"><ele>249.00000000000003</ele><time>2026-03-29T08:44:44.058Z</time></trkpt><trkpt lat="42.877499" lon="-8.5467643"><ele>250.0</ele><time>2026-03-29T08:44:45.058Z</time></trkpt><trkpt lat="42.8775172" lon="-8.5466464"><ele>251.0</ele><time>2026-03-29T08:44:46.058Z</time></trkpt><trkpt lat="42.8775288" lon="-8.5465268"><ele>252.0</ele><time>2026-03-29T08:44:47.059Z</time></trkpt><trkpt lat="42.8775233" lon="-8.5464135"><ele>253.00000000000003</ele><time>2026-03-29T08:44:48.059Z</time></trkpt><trkpt lat="42.8774893" lon="-8.5463187"><ele>254.0</ele><time>2026-03-29T08:44:49.058Z</time></trkpt><trkpt lat="42.8774367" lon="-8.5462569"><ele>254.00000000000003</ele><time>2026-03-29T08:44:50.059Z</time></trkpt><trkpt lat="42.8773562" lon="-8.5462174"><ele>254.0</ele><time>2026-03-29T08:44:52.058Z</time></trkpt><trkpt lat="42.8772922" lon="-8.5461894"><ele>254.0</ele><time>2026-03-29T08:45:15.058Z</time></trkpt><trkpt lat="42.8771789" lon="-8.5461924"><ele>254.0</ele><time>2026-03-29T08:45:17.058Z</time></trkpt><trkpt lat="42.8770798" lon="-8.5462413"><ele>254.00000000000003</ele><time>2026-03-29T08:45:19.058Z</time></trkpt><trkpt lat="42.8770133" lon="-8.5462637"><ele>254.0</ele><time>2026-03-29T08:45:21.058Z</time></trkpt><trkpt lat="42.8769162" lon="-8.546215"><ele>254.79999999999998</ele><time>2026-03-29T08:45:57.058Z</time></trkpt><trkpt lat="42.876838" lon="-8.5460421"><ele>255.59999999999997</ele><time>2026-03-29T08:45:59.059Z</time></trkpt><trkpt lat="42.8768247" lon="-8.5459201"><ele>256.4</ele><time>2026-03-29T08:46:00.058Z</time></trkpt><trkpt lat="42.8768207" lon="-8.5457974"><ele>257.2</ele><time>2026-03-29T08:46:01.058Z</time></trkpt><trkpt lat="42.8768163" lon="-8.5456632"><ele>258.0</ele><time>2026-03-29T08:46:02.058Z</time></trkpt><trkpt lat="42.8768096" lon="-8.5455308"><ele>258.0</ele><time>2026-03-29T08:46:03.058Z</time></trkpt><trkpt lat="42.876807" lon="-8.5453962"><ele>258.0</ele><time>2026-03-29T08:46:04.058Z</time></trkpt><trkpt lat="42.8768034" lon="-8.5452661"><ele>258.0</ele><time>2026-03-29T08:46:05.059Z</time></trkpt><trkpt lat="42.8768018" lon="-8.5451308"><ele>258.0</ele><time>2026-03-29T08:46:06.058Z</time></trkpt><trkpt lat="42.8767963" lon="-8.5450364"><ele>258.0</ele><time>2026-03-29T08:46:07.058Z</time></trkpt><trkpt lat="42.8767918" lon="-8.5449436"><ele>258.0</ele><time>2026-03-29T08:46:08.058Z</time></trkpt><trkpt lat="42.8767843" lon="-8.5447953"><ele>259.0</ele><time>2026-03-29T08:46:10.059Z</time></trkpt><trkpt lat="42.8767971" lon="-8.5446645"><ele>260.0</ele><time>2026-03-29T08:46:27.058Z</time></trkpt><trkpt lat="42.8767937" lon="-8.544475"><ele>261.0</ele><time>2026-03-29T08:46:29.058Z</time></trkpt><trkpt lat="42.8768022" lon="-8.5443628"><ele>262.0</ele><time>2026-03-29T08:46:30.058Z</time></trkpt><trkpt lat="42.8768361" lon="-8.544255"><ele>263.0</ele><time>2026-03-29T08:46:31.059Z</time></trkpt><trkpt lat="42.876869" lon="-8.5441518"><ele>263.0</ele><time>2026-03-29T08:46:32.058Z</time></trkpt><trkpt lat="42.8769069" lon="-8.5440534"><ele>263.0</ele><time>2026-03-29T08:46:33.059Z</time></trkpt><trkpt lat="42.8769425" lon="-8.5439602"><ele>263.0</ele><time>2026-03-29T08:46:34.059Z</time></trkpt><trkpt lat="42.8769788" lon="-8.5438639"><ele>263.0</ele><time>2026-03-29T08:46:35.058Z</time></trkpt><trkpt lat="42.877018" lon="-8.5437623"><ele>263.0</ele><time>2026-03-29T08:46:36.059Z</time></trkpt><trkpt lat="42.877057" lon="-8.5436657"><ele>263.0</ele><time>2026-03-29T08:46:37.059Z</time></trkpt><trkpt lat="42.877095" lon="-8.5435674"><ele>263.0</ele><time>2026-03-29T08:46:38.059Z</time></trkpt><trkpt lat="42.8771368" lon="-8.5434673"><ele>263.0</ele><time>2026-03-29T08:46:39.058Z</time></trkpt><trkpt lat="42.8771769" lon="-8.5433645"><ele>263.0</ele><time>2026-03-29T08:46:40.058Z</time></trkpt><trkpt lat="42.8772225" lon="-8.5432649"><ele>263.0</ele><time>2026-03-29T08:46:41.059Z</time></trkpt><trkpt lat="42.8772635" lon="-8.5431649"><ele>263.0</ele><time>2026-03-29T08:46:42.058Z</time></trkpt><trkpt lat="42.8772986" lon="-8.5430895"><ele>263.0</ele><time>2026-03-29T08:46:43.058Z</time></trkpt><trkpt lat="42.8773292" lon="-8.5430127"><ele>263.0</ele><time>2026-03-29T08:46:45.059Z</time></trkpt><trkpt lat="42.8773689" lon="-8.5429261"><ele>263.0</ele><time>2026-03-29T08:46:48.058Z</time></trkpt><trkpt lat="42.8774026" lon="-8.5428529"><ele>263.0</ele><time>2026-03-29T08:46:49.059Z</time></trkpt><trkpt lat="42.877443" lon="-8.5427659"><ele>263.0</ele><time>2026-03-29T08:46:50.058Z</time></trkpt><trkpt lat="42.8774874" lon="-8.5426703"><ele>263.0</ele><time>2026-03-29T08:46:51.059Z</time></trkpt><trkpt lat="42.8775326" lon="-8.5425776"><ele>263.0</ele><time>2026-03-29T08:46:52.058Z</time></trkpt><trkpt lat="42.8775467" lon="-8.5424482"><ele>262.6666666666667</ele><time>2026-03-29T08:46:54.058Z</time></trkpt><trkpt lat="42.877499" lon="-8.5423633"><ele>262.33333333333337</ele><time>2026-03-29T08:46:56.058Z</time></trkpt><trkpt lat="42.8773935" lon="-8.5422781"><ele>262.0</ele><time>2026-03-29T08:46:58.059Z</time></trkpt><trkpt lat="42.8773288" lon="-8.5422321"><ele>261.6666666666667</ele><time>2026-03-29T08:46:59.058Z</time></trkpt><trkpt lat="42.8772631" lon="-8.5421837"><ele>261.3333333333333</ele><time>2026-03-29T08:47:00.058Z</time></trkpt><trkpt lat="42.8771975" lon="-8.5421273"><ele>261.0</ele><time>2026-03-29T08:47:01.058Z</time></trkpt><trkpt lat="42.8771266" lon="-8.5420718"><ele>260.8333333333333</ele><time>2026-03-29T08:47:02.058Z</time></trkpt><trkpt lat="42.8770559" lon="-8.5420231"><ele>260.6666666666667</ele><time>2026-03-29T08:47:03.059Z</time></trkpt><trkpt lat="42.8769887" lon="-8.5419797"><ele>260.5</ele><time>2026-03-29T08:47:04.058Z</time></trkpt><trkpt lat="42.8769248" lon="-8.5419258"><ele>260.33333333333337</ele><time>2026-03-29T08:47:05.059Z</time></trkpt><trkpt lat="42.876864" lon="-8.5418686"><ele>260.1666666666667</ele><time>2026-03-29T08:47:06.058Z</time></trkpt><trkpt lat="42.876806" lon="-8.541802"><ele>260.0</ele><time>2026-03-29T08:47:07.058Z</time></trkpt><trkpt lat="42.8767527" lon="-8.5417245"><ele>257.6666666666667</ele><time>2026-03-29T08:47:08.058Z</time></trkpt><trkpt lat="42.8767006" lon="-8.5416394"><ele>255.33333333333334</ele><time>2026-03-29T08:47:09.058Z</time></trkpt><trkpt lat="42.8766453" lon="-8.5415523"><ele>253.0</ele><time>2026-03-29T08:47:10.059Z</time></trkpt><trkpt lat="42.8765932" lon="-8.5414705"><ele>250.66666666666669</ele><time>2026-03-29T08:47:11.058Z</time></trkpt><trkpt lat="42.8765319" lon="-8.5413789"><ele>248.33333333333334</ele><time>2026-03-29T08:47:12.058Z</time></trkpt><trkpt lat="42.8764737" lon="-8.5412892"><ele>246.0</ele><time>2026-03-29T08:47:13.058Z</time></trkpt><trkpt lat="42.876418" lon="-8.5411943"><ele>244.4</ele><time>2026-03-29T08:47:14.059Z</time></trkpt><trkpt lat="42.8763578" lon="-8.5411031"><ele>242.8</ele><time>2026-03-29T08:47:15.058Z</time></trkpt><trkpt lat="42.8762925" lon="-8.5410061"><ele>241.20000000000002</ele><time>2026-03-29T08:47:16.059Z</time></trkpt><trkpt lat="42.8762332" lon="-8.5409089"><ele>239.60000000000002</ele><time>2026-03-29T08:47:17.059Z</time></trkpt><trkpt lat="42.8761688" lon="-8.54081"><ele>238.0</ele><time>2026-03-29T08:47:18.058Z</time></trkpt><trkpt lat="42.8761084" lon="-8.5407109"><ele>237.99999999999997</ele><time>2026-03-29T08:47:19.059Z</time></trkpt><trkpt lat="42.8760483" lon="-8.5406193"><ele>238.0</ele><time>2026-03-29T08:47:20.058Z</time></trkpt><trkpt lat="42.8759911" lon="-8.5405326"><ele>238.0</ele><time>2026-03-29T08:47:21.059Z</time></trkpt><trkpt lat="42.875938" lon="-8.5404443"><ele>238.0</ele><time>2026-03-29T08:47:22.059Z</time></trkpt><trkpt lat="42.8758912" lon="-8.5403637"><ele>237.99999999999997</ele><time>2026-03-29T08:47:23.059Z</time></trkpt><trkpt lat="42.8758497" lon="-8.5402894"><ele>238.0</ele><time>2026-03-29T08:47:24.058Z</time></trkpt><trkpt lat="42.8758067" lon="-8.5402026"><ele>235.99999999999997</ele><time>2026-03-29T08:47:26.058Z</time></trkpt><trkpt lat="42.8757548" lon="-8.5401126"><ele>234.0</ele><time>2026-03-29T08:47:28.058Z</time></trkpt><trkpt lat="42.875715" lon="-8.5400451"><ele>232.0</ele><time>2026-03-29T08:47:29.059Z</time></trkpt><trkpt lat="42.875676" lon="-8.5399673"><ele>230.0</ele><time>2026-03-29T08:47:30.058Z</time></trkpt><trkpt lat="42.8756263" lon="-8.539873"><ele>227.99999999999997</ele><time>2026-03-29T08:47:31.058Z</time></trkpt><trkpt lat="42.8755761" lon="-8.5397776"><ele>226.0</ele><time>2026-03-29T08:47:32.058Z</time></trkpt><trkpt lat="42.8755303" lon="-8.5396808"><ele>225.99999999999997</ele><time>2026-03-29T08:47:33.058Z</time></trkpt><trkpt lat="42.8754827" lon="-8.539586"><ele>226.0</ele><time>2026-03-29T08:47:34.058Z</time></trkpt><trkpt lat="42.8754344" lon="-8.5394975"><ele>226.0</ele><time>2026-03-29T08:47:35.059Z</time></trkpt><trkpt lat="42.8753864" lon="-8.5394067"><ele>226.0</ele><time>2026-03-29T08:47:36.058Z</time></trkpt><trkpt lat="42.875341" lon="-8.53932"><ele>225.99999999999997</ele><time>2026-03-29T08:47:37.058Z</time></trkpt><trkpt lat="42.875295" lon="-8.5392379"><ele>226.0</ele><time>2026-03-29T08:47:38.058Z</time></trkpt><trkpt lat="42.8752455" lon="-8.5391635"><ele>225.99999999999997</ele><time>2026-03-29T08:47:39.058Z</time></trkpt><trkpt lat="42.8751843" lon="-8.5391069"><ele>226.0</ele><time>2026-03-29T08:47:40.059Z</time></trkpt><trkpt lat="42.8751114" lon="-8.5390625"><ele>226.0</ele><time>2026-03-29T08:47:41.059Z</time></trkpt><trkpt lat="42.8750374" lon="-8.5390216"><ele>226.0</ele><time>2026-03-29T08:47:42.058Z</time></trkpt><trkpt lat="42.8749657" lon="-8.5389858"><ele>225.99999999999997</ele><time>2026-03-29T08:47:43.059Z</time></trkpt><trkpt lat="42.8748899" lon="-8.5389549"><ele>226.0</ele><time>2026-03-29T08:47:44.059Z</time></trkpt><trkpt lat="42.8748133" lon="-8.5389224"><ele>225.71428571428572</ele><time>2026-03-29T08:47:45.059Z</time></trkpt><trkpt lat="42.8747396" lon="-8.538892"><ele>225.42857142857142</ele><time>2026-03-29T08:47:46.059Z</time></trkpt><trkpt lat="42.8746667" lon="-8.5388612"><ele>225.14285714285714</ele><time>2026-03-29T08:47:47.058Z</time></trkpt><trkpt lat="42.8745941" lon="-8.5388282"><ele>224.85714285714286</ele><time>2026-03-29T08:47:48.059Z</time></trkpt><trkpt lat="42.8745244" lon="-8.5387887"><ele>224.57142857142856</ele><time>2026-03-29T08:47:49.058Z</time></trkpt><trkpt lat="42.874459" lon="-8.5387486"><ele>224.28571428571428</ele><time>2026-03-29T08:47:50.058Z</time></trkpt><trkpt lat="42.8743948" lon="-8.5387034"><ele>224.0</ele><time>2026-03-29T08:47:51.058Z</time></trkpt><trkpt lat="42.8743259" lon="-8.5386586"><ele>223.83333333333334</ele><time>2026-03-29T08:47:52.059Z</time></trkpt><trkpt lat="42.8742565" lon="-8.538612"><ele>223.66666666666669</ele><time>2026-03-29T08:47:53.058Z</time></trkpt><trkpt lat="42.8741851" lon="-8.5385582"><ele>223.5</ele><time>2026-03-29T08:47:54.058Z</time></trkpt><trkpt lat="42.8741156" lon="-8.5385028"><ele>223.33333333333331</ele><time>2026-03-29T08:47:55.058Z</time></trkpt><trkpt lat="42.8740431" lon="-8.5384397"><ele>223.16666666666666</ele><time>2026-03-29T08:47:56.058Z</time></trkpt><trkpt lat="42.8739735" lon="-8.5383712"><ele>223.0</ele><time>2026-03-29T08:47:57.058Z</time></trkpt><trkpt lat="42.8739083" lon="-8.5382992"><ele>222.99999999999997</ele><time>2026-03-29T08:47:58.058Z</time></trkpt><trkpt lat="42.8738421" lon="-8.5382263"><ele>223.0</ele><time>2026-03-29T08:47:59.058Z</time></trkpt><trkpt lat="42.8737803" lon="-8.5381561"><ele>223.0</ele><time>2026-03-29T08:48:00.058Z</time></trkpt><trkpt lat="42.8737182" lon="-8.538086"><ele>223.0</ele><time>2026-03-29T08:48:01.059Z</time></trkpt><trkpt lat="42.8736533" lon="-8.538016"><ele>222.99999999999997</ele><time>2026-03-29T08:48:02.058Z</time></trkpt><trkpt lat="42.8735957" lon="-8.5379473"><ele>223.0</ele><time>2026-03-29T08:48:03.058Z</time></trkpt><trkpt lat="42.8735407" lon="-8.5378797"><ele>223.66666666666666</ele><time>2026-03-29T08:48:04.059Z</time></trkpt><trkpt lat="42.873488" lon="-8.5378125"><ele>224.33333333333331</ele><time>2026-03-29T08:48:05.059Z</time></trkpt><trkpt lat="42.8734424" lon="-8.5377451"><ele>225.0</ele><time>2026-03-29T08:48:06.058Z</time></trkpt><trkpt lat="42.8733765" lon="-8.5376578"><ele>225.66666666666669</ele><time>2026-03-29T08:48:07.058Z</time></trkpt><trkpt lat="42.8733367" lon="-8.5375729"><ele>226.33333333333334</ele><time>2026-03-29T08:48:08.058Z</time></trkpt><trkpt lat="42.873318" lon="-8.5374367"><ele>227.0</ele><time>2026-03-29T08:48:10.058Z</time></trkpt><trkpt lat="42.8732981" lon="-8.5373283"><ele>225.00000000000003</ele><time>2026-03-29T08:48:12.058Z</time></trkpt><trkpt lat="42.8732697" lon="-8.5372337"><ele>223.0</ele><time>2026-03-29T08:48:14.058Z</time></trkpt><trkpt lat="42.8732327" lon="-8.5371371"><ele>221.0</ele><time>2026-03-29T08:48:17.058Z</time></trkpt><trkpt lat="42.8732026" lon="-8.5370164"><ele>219.0</ele><time>2026-03-29T08:48:19.058Z</time></trkpt><trkpt lat="42.8731697" lon="-8.5368962"><ele>217.00000000000003</ele><time>2026-03-29T08:48:21.058Z</time></trkpt><trkpt lat="42.8731472" lon="-8.5368126"><ele>215.0</ele><time>2026-03-29T08:48:23.058Z</time></trkpt><trkpt lat="42.8730937" lon="-8.5367515"><ele>214.33333333333334</ele><time>2026-03-29T08:48:27.058Z</time></trkpt><trkpt lat="42.8731149" lon="-8.5366614"><ele>213.66666666666669</ele><time>2026-03-29T08:48:47.058Z</time></trkpt><trkpt lat="42.8730862" lon="-8.536559"><ele>213.0</ele><time>2026-03-29T08:48:48.058Z</time></trkpt><trkpt lat="42.8730494" lon="-8.5364631"><ele>212.33333333333331</ele><time>2026-03-29T08:48:49.058Z</time></trkpt><trkpt lat="42.8729973" lon="-8.5363748"><ele>211.66666666666666</ele><time>2026-03-29T08:48:50.058Z</time></trkpt><trkpt lat="42.8729295" lon="-8.536299"><ele>211.0</ele><time>2026-03-29T08:48:51.059Z</time></trkpt><trkpt lat="42.8728543" lon="-8.5362345"><ele>210.66666666666666</ele><time>2026-03-29T08:48:52.059Z</time></trkpt><trkpt lat="42.8727691" lon="-8.5361864"><ele>210.33333333333331</ele><time>2026-03-29T08:48:53.058Z</time></trkpt><trkpt lat="42.8726989" lon="-8.536143"><ele>210.0</ele><time>2026-03-29T08:48:54.058Z</time></trkpt><trkpt lat="42.872624" lon="-8.5361213"><ele>209.66666666666669</ele><time>2026-03-29T08:48:55.058Z</time></trkpt><trkpt lat="42.8725493" lon="-8.5361119"><ele>209.33333333333334</ele><time>2026-03-29T08:48:56.058Z</time></trkpt><trkpt lat="42.8724778" lon="-8.5360867"><ele>209.0</ele><time>2026-03-29T08:48:57.058Z</time></trkpt><trkpt lat="42.8724152" lon="-8.536046"><ele>209.0</ele><time>2026-03-29T08:48:58.059Z</time></trkpt><trkpt lat="42.8723044" lon="-8.5359495"><ele>209.0</ele><time>2026-03-29T08:49:00.058Z</time></trkpt><trkpt lat="42.8722372" lon="-8.5358736"><ele>209.0</ele><time>2026-03-29T08:49:01.059Z</time></trkpt><trkpt lat="42.8721768" lon="-8.5358093"><ele>209.0</ele><time>2026-03-29T08:49:02.058Z</time></trkpt><trkpt lat="42.8721151" lon="-8.5357418"><ele>209.0</ele><time>2026-03-29T08:49:03.059Z</time></trkpt><trkpt lat="42.8720511" lon="-8.5356675"><ele>209.00000000000003</ele><time>2026-03-29T08:49:04.058Z</time></trkpt><trkpt lat="42.8719838" lon="-8.5355935"><ele>209.0</ele><time>2026-03-29T08:49:05.058Z</time></trkpt><trkpt lat="42.871919" lon="-8.5355187"><ele>209.0</ele><time>2026-03-29T08:49:06.059Z</time></trkpt><trkpt lat="42.8718521" lon="-8.5354443"><ele>209.0</ele><time>2026-03-29T08:49:07.058Z</time></trkpt><trkpt lat="42.8717804" lon="-8.5353663"><ele>209.00000000000003</ele><time>2026-03-29T08:49:08.058Z</time></trkpt><trkpt lat="42.8717118" lon="-8.5352922"><ele>209.0</ele><time>2026-03-29T08:49:09.058Z</time></trkpt><trkpt lat="42.8716435" lon="-8.5352126"><ele>209.2</ele><time>2026-03-29T08:49:10.059Z</time></trkpt><trkpt lat="42.8715732" lon="-8.5351305"><ele>209.39999999999998</ele><time>2026-03-29T08:49:11.058Z</time></trkpt><trkpt lat="42.8715007" lon="-8.5350482"><ele>209.6</ele><time>2026-03-29T08:49:12.058Z</time></trkpt><trkpt lat="42.8714264" lon="-8.5349663"><ele>209.8</ele><time>2026-03-29T08:49:13.059Z</time></trkpt><trkpt lat="42.8713493" lon="-8.5348758"><ele>210.0</ele><time>2026-03-29T08:49:14.059Z</time></trkpt><trkpt lat="42.8712711" lon="-8.5347829"><ele>210.0</ele><time>2026-03-29T08:49:15.059Z</time></trkpt><trkpt lat="42.8711927" lon="-8.5346983"><ele>210.0</ele><time>2026-03-29T08:49:16.059Z</time></trkpt><trkpt lat="42.871116" lon="-8.534615"><ele>210.0</ele><time>2026-03-29T08:49:17.059Z</time></trkpt><trkpt lat="42.8710347" lon="-8.5345345"><ele>210.0</ele><time>2026-03-29T08:49:18.059Z</time></trkpt><trkpt lat="42.8709519" lon="-8.5344545"><ele>210.0</ele><time>2026-03-29T08:49:19.058Z</time></trkpt><trkpt lat="42.8708715" lon="-8.5343811"><ele>211.2</ele><time>2026-03-29T08:49:20.058Z</time></trkpt><trkpt lat="42.8707873" lon="-8.5343015"><ele>212.4</ele><time>2026-03-29T08:49:21.059Z</time></trkpt><trkpt lat="42.8707043" lon="-8.5342227"><ele>213.60000000000002</ele><time>2026-03-29T08:49:22.058Z</time></trkpt><trkpt lat="42.8706185" lon="-8.5341419"><ele>214.8</ele><time>2026-03-29T08:49:23.058Z</time></trkpt><trkpt lat="42.8705314" lon="-8.5340603"><ele>216.0</ele><time>2026-03-29T08:49:24.058Z</time></trkpt><trkpt lat="42.8704474" lon="-8.533978"><ele>216.0</ele><time>2026-03-29T08:49:25.058Z</time></trkpt><trkpt lat="42.8703582" lon="-8.5339019"><ele>216.00000000000003</ele><time>2026-03-29T08:49:26.058Z</time></trkpt><trkpt lat="42.8702719" lon="-8.5338226"><ele>216.00000000000003</ele><time>2026-03-29T08:49:27.058Z</time></trkpt><trkpt lat="42.8701918" lon="-8.5337401"><ele>216.0</ele><time>2026-03-29T08:49:28.059Z</time></trkpt><trkpt lat="42.870119" lon="-8.5336569"><ele>216.0</ele><time>2026-03-29T08:49:29.058Z</time></trkpt><trkpt lat="42.8700508" lon="-8.5335711"><ele>217.20000000000002</ele><time>2026-03-29T08:49:30.058Z</time></trkpt><trkpt lat="42.8699923" lon="-8.5334891"><ele>218.40000000000003</ele><time>2026-03-29T08:49:31.059Z</time></trkpt><trkpt lat="42.8699422" lon="-8.5334172"><ele>219.6</ele><time>2026-03-29T08:49:32.058Z</time></trkpt><trkpt lat="42.8698571" lon="-8.5333061"><ele>220.8</ele><time>2026-03-29T08:49:34.058Z</time></trkpt><trkpt lat="42.8697837" lon="-8.5332122"><ele>222.0</ele><time>2026-03-29T08:49:36.058Z</time></trkpt><trkpt lat="42.8697143" lon="-8.5331567"><ele>222.0</ele><time>2026-03-29T08:49:38.059Z</time></trkpt><trkpt lat="42.8696409" lon="-8.5331345"><ele>222.0</ele><time>2026-03-29T08:49:40.059Z</time></trkpt><trkpt lat="42.8695461" lon="-8.5331333"><ele>222.0</ele><time>2026-03-29T08:49:42.058Z</time></trkpt><trkpt lat="42.8694385" lon="-8.5331366"><ele>222.0</ele><time>2026-03-29T08:49:44.059Z</time></trkpt><trkpt lat="42.8693654" lon="-8.5331386"><ele>222.0</ele><time>2026-03-29T08:49:45.058Z</time></trkpt><trkpt lat="42.8692692" lon="-8.5331439"><ele>222.0</ele><time>2026-03-29T08:49:46.059Z</time></trkpt><trkpt lat="42.8691629" lon="-8.5331529"><ele>223.5</ele><time>2026-03-29T08:49:47.058Z</time></trkpt><trkpt lat="42.8690469" lon="-8.5331361"><ele>225.0</ele><time>2026-03-29T08:49:48.058Z</time></trkpt><trkpt lat="42.8689304" lon="-8.5330939"><ele>226.5</ele><time>2026-03-29T08:49:49.059Z</time></trkpt><trkpt lat="42.8688169" lon="-8.533004"><ele>228.0</ele><time>2026-03-29T08:49:50.058Z</time></trkpt><trkpt lat="42.868709" lon="-8.5329152"><ele>229.0</ele><time>2026-03-29T08:49:51.059Z</time></trkpt><trkpt lat="42.8686037" lon="-8.5328254"><ele>230.0</ele><time>2026-03-29T08:49:52.058Z</time></trkpt><trkpt lat="42.8685005" lon="-8.5327331"><ele>231.0</ele><time>2026-03-29T08:49:53.058Z</time></trkpt><trkpt lat="42.8683983" lon="-8.5326424"><ele>232.0</ele><time>2026-03-29T08:49:54.059Z</time></trkpt><trkpt lat="42.8683017" lon="-8.5325455"><ele>232.75</ele><time>2026-03-29T08:49:55.058Z</time></trkpt><trkpt lat="42.8682074" lon="-8.5324496"><ele>233.5</ele><time>2026-03-29T08:49:56.058Z</time></trkpt><trkpt lat="42.8681123" lon="-8.5323539"><ele>234.25</ele><time>2026-03-29T08:49:57.058Z</time></trkpt><trkpt lat="42.8680172" lon="-8.5322564"><ele>235.0</ele><time>2026-03-29T08:49:58.058Z</time></trkpt><trkpt lat="42.8679254" lon="-8.5321594"><ele>235.0</ele><time>2026-03-29T08:49:59.059Z</time></trkpt><trkpt lat="42.8678331" lon="-8.5320641"><ele>235.0</ele><time>2026-03-29T08:50:00.058Z</time></trkpt><trkpt lat="42.8677427" lon="-8.5319706"><ele>235.0</ele><time>2026-03-29T08:50:01.059Z</time></trkpt><trkpt lat="42.867651" lon="-8.5318749"><ele>235.0</ele><time>2026-03-29T08:50:02.058Z</time></trkpt><trkpt lat="42.8675592" lon="-8.5317785"><ele>236.2</ele><time>2026-03-29T08:50:03.058Z</time></trkpt><trkpt lat="42.8674742" lon="-8.5316787"><ele>237.4</ele><time>2026-03-29T08:50:04.058Z</time></trkpt><trkpt lat="42.8673964" lon="-8.5315742"><ele>238.60000000000002</ele><time>2026-03-29T08:50:05.059Z</time></trkpt><trkpt lat="42.867327" lon="-8.5314579"><ele>239.8</ele><time>2026-03-29T08:50:06.059Z</time></trkpt><trkpt lat="42.8672661" lon="-8.5313384"><ele>241.0</ele><time>2026-03-29T08:50:07.058Z</time></trkpt><trkpt lat="42.8672048" lon="-8.531217"><ele>242.75</ele><time>2026-03-29T08:50:08.058Z</time></trkpt><trkpt lat="42.8671412" lon="-8.5310911"><ele>244.5</ele><time>2026-03-29T08:50:09.058Z</time></trkpt><trkpt lat="42.8670734" lon="-8.5309597"><ele>246.25</ele><time>2026-03-29T08:50:10.058Z</time></trkpt><trkpt lat="42.8670036" lon="-8.530826"><ele>248.0</ele><time>2026-03-29T08:50:11.058Z</time></trkpt><trkpt lat="42.8669309" lon="-8.5306916"><ele>248.0</ele><time>2026-03-29T08:50:12.059Z</time></trkpt><trkpt lat="42.8668565" lon="-8.5305526"><ele>248.0</ele><time>2026-03-29T08:50:13.058Z</time></trkpt><trkpt lat="42.8667833" lon="-8.5304097"><ele>248.0</ele><time>2026-03-29T08:50:14.058Z</time></trkpt><trkpt lat="42.8667102" lon="-8.5302676"><ele>248.0</ele><time>2026-03-29T08:50:15.058Z</time></trkpt><trkpt lat="42.8666384" lon="-8.5301286"><ele>249.75</ele><time>2026-03-29T08:50:16.059Z</time></trkpt><trkpt lat="42.8665668" lon="-8.5299856"><ele>251.5</ele><time>2026-03-29T08:50:17.059Z</time></trkpt><trkpt lat="42.8664961" lon="-8.529844"><ele>253.25</ele><time>2026-03-29T08:50:18.058Z</time></trkpt><trkpt lat="42.8664282" lon="-8.529715"><ele>255.0</ele><time>2026-03-29T08:50:19.058Z</time></trkpt><trkpt lat="42.8663656" lon="-8.5295901"><ele>256.25</ele><time>2026-03-29T08:50:20.058Z</time></trkpt><trkpt lat="42.866304" lon="-8.5294695"><ele>257.5</ele><time>2026-03-29T08:50:21.058Z</time></trkpt><trkpt lat="42.8662399" lon="-8.5293436"><ele>258.75</ele><time>2026-03-29T08:50:22.058Z</time></trkpt><trkpt lat="42.8661799" lon="-8.5292085"><ele>260.0</ele><time>2026-03-29T08:50:23.058Z</time></trkpt><trkpt lat="42.8661236" lon="-8.529066"><ele>260.0</ele><time>2026-03-29T08:50:24.058Z</time></trkpt><trkpt lat="42.8660677" lon="-8.5289161"><ele>260.0</ele><time>2026-03-29T08:50:25.058Z</time></trkpt><trkpt lat="42.8660125" lon="-8.5287613"><ele>260.0</ele><time>2026-03-29T08:50:26.059Z</time></trkpt><trkpt lat="42.8659573" lon="-8.5285964"><ele>260.0</ele><time>2026-03-29T08:50:27.058Z</time></trkpt><trkpt lat="42.8658993" lon="-8.5284299"><ele>258.25</ele><time>2026-03-29T08:50:28.058Z</time></trkpt><trkpt lat="42.8658386" lon="-8.5282625"><ele>256.5</ele><time>2026-03-29T08:50:29.059Z</time></trkpt><trkpt lat="42.8657807" lon="-8.5281025"><ele>254.75</ele><time>2026-03-29T08:50:30.059Z</time></trkpt><trkpt lat="42.8657266" lon="-8.5279483"><ele>253.0</ele><time>2026-03-29T08:50:31.059Z</time></trkpt><trkpt lat="42.8656756" lon="-8.5278003"><ele>253.0</ele><time>2026-03-29T08:50:32.058Z</time></trkpt><trkpt lat="42.8656269" lon="-8.5276639"><ele>253.0</ele><time>2026-03-29T08:50:33.058Z</time></trkpt><trkpt lat="42.8655837" lon="-8.5275335"><ele>253.0</ele><time>2026-03-29T08:50:34.058Z</time></trkpt><trkpt lat="42.8655455" lon="-8.5274006"><ele>253.0</ele><time>2026-03-29T08:50:35.059Z</time></trkpt><trkpt lat="42.8655144" lon="-8.5272619"><ele>253.0</ele><time>2026-03-29T08:50:36.058Z</time></trkpt><trkpt lat="42.8654797" lon="-8.5271145"><ele>253.25</ele><time>2026-03-29T08:50:37.058Z</time></trkpt><trkpt lat="42.8654475" lon="-8.5269658"><ele>253.5</ele><time>2026-03-29T08:50:38.059Z</time></trkpt><trkpt lat="42.8654079" lon="-8.526811"><ele>253.75</ele><time>2026-03-29T08:50:39.058Z</time></trkpt><trkpt lat="42.8653645" lon="-8.5266497"><ele>254.0</ele><time>2026-03-29T08:50:40.058Z</time></trkpt><trkpt lat="42.8653022" lon="-8.5264951"><ele>254.0</ele><time>2026-03-29T08:50:41.058Z</time></trkpt><trkpt lat="42.865228" lon="-8.5263476"><ele>254.0</ele><time>2026-03-29T08:50:42.058Z</time></trkpt><trkpt lat="42.8651486" lon="-8.5262012"><ele>254.0</ele><time>2026-03-29T08:50:43.058Z</time></trkpt><trkpt lat="42.8650608" lon="-8.5260586"><ele>254.0</ele><time>2026-03-29T08:50:44.059Z</time></trkpt><trkpt lat="42.8649796" lon="-8.5259158"><ele>254.25</ele><time>2026-03-29T08:50:45.059Z</time></trkpt><trkpt lat="42.864904" lon="-8.5257664"><ele>254.5</ele><time>2026-03-29T08:50:46.058Z</time></trkpt><trkpt lat="42.8648282" lon="-8.5256206"><ele>254.75</ele><time>2026-03-29T08:50:47.059Z</time></trkpt><trkpt lat="42.8647531" lon="-8.5254701"><ele>255.0</ele><time>2026-03-29T08:50:48.059Z</time></trkpt><trkpt lat="42.8646812" lon="-8.5253159"><ele>255.0</ele><time>2026-03-29T08:50:49.059Z</time></trkpt><trkpt lat="42.8646125" lon="-8.5251612"><ele>255.0</ele><time>2026-03-29T08:50:50.059Z</time></trkpt><trkpt lat="42.8645446" lon="-8.5250154"><ele>255.0</ele><time>2026-03-29T08:50:51.058Z</time></trkpt><trkpt lat="42.8644782" lon="-8.5248765"><ele>255.0</ele><time>2026-03-29T08:50:52.058Z</time></trkpt><trkpt lat="42.8644182" lon="-8.5247476"><ele>255.0</ele><time>2026-03-29T08:50:53.058Z</time></trkpt><trkpt lat="42.8643612" lon="-8.5246201"><ele>255.0</ele><time>2026-03-29T08:50:54.059Z</time></trkpt><trkpt lat="42.864311" lon="-8.5244967"><ele>255.0</ele><time>2026-03-29T08:50:55.059Z</time></trkpt><trkpt lat="42.8642565" lon="-8.5243694"><ele>255.0</ele><time>2026-03-29T08:50:56.059Z</time></trkpt><trkpt lat="42.864202" lon="-8.5242324"><ele>255.0</ele><time>2026-03-29T08:50:57.059Z</time></trkpt><trkpt lat="42.8641438" lon="-8.5240924"><ele>252.75</ele><time>2026-03-29T08:50:58.059Z</time></trkpt><trkpt lat="42.8640892" lon="-8.5239476"><ele>250.5</ele><time>2026-03-29T08:50:59.059Z</time></trkpt><trkpt lat="42.8640393" lon="-8.5237943"><ele>248.25</ele><time>2026-03-29T08:51:00.059Z</time></trkpt><trkpt lat="42.8639922" lon="-8.5236389"><ele>246.0</ele><time>2026-03-29T08:51:01.059Z</time></trkpt><trkpt lat="42.863945" lon="-8.5234769"><ele>245.5</ele><time>2026-03-29T08:51:02.058Z</time></trkpt><trkpt lat="42.8638966" lon="-8.52331"><ele>245.0</ele><time>2026-03-29T08:51:03.058Z</time></trkpt><trkpt lat="42.8638463" lon="-8.5231436"><ele>244.5</ele><time>2026-03-29T08:51:04.058Z</time></trkpt><trkpt lat="42.8637996" lon="-8.5229772"><ele>244.0</ele><time>2026-03-29T08:51:05.058Z</time></trkpt><trkpt lat="42.8637662" lon="-8.5228014"><ele>243.75</ele><time>2026-03-29T08:51:06.058Z</time></trkpt><trkpt lat="42.8637481" lon="-8.5226256"><ele>243.5</ele><time>2026-03-29T08:51:07.058Z</time></trkpt><trkpt lat="42.8637488" lon="-8.5224559"><ele>243.25</ele><time>2026-03-29T08:51:08.059Z</time></trkpt><trkpt lat="42.8637519" lon="-8.5222869"><ele>243.0</ele><time>2026-03-29T08:51:09.058Z</time></trkpt><trkpt lat="42.8637536" lon="-8.522124"><ele>242.75</ele><time>2026-03-29T08:51:10.058Z</time></trkpt><trkpt lat="42.8637513" lon="-8.5219618"><ele>242.5</ele><time>2026-03-29T08:51:11.058Z</time></trkpt><trkpt lat="42.8637505" lon="-8.5218059"><ele>242.25</ele><time>2026-03-29T08:51:12.059Z</time></trkpt><trkpt lat="42.8637442" lon="-8.52164"><ele>242.0</ele><time>2026-03-29T08:51:13.058Z</time></trkpt><trkpt lat="42.8637075" lon="-8.5214702"><ele>242.0</ele><time>2026-03-29T08:51:14.059Z</time></trkpt><trkpt lat="42.8636457" lon="-8.5213133"><ele>242.0</ele><time>2026-03-29T08:51:15.059Z</time></trkpt><trkpt lat="42.8635523" lon="-8.5211839"><ele>242.0</ele><time>2026-03-29T08:51:16.058Z</time></trkpt><trkpt lat="42.8634315" lon="-8.5211111"><ele>242.0</ele><time>2026-03-29T08:51:17.059Z</time></trkpt><trkpt lat="42.8632871" lon="-8.5210849"><ele>242.66666666666669</ele><time>2026-03-29T08:51:18.058Z</time></trkpt><trkpt lat="42.8631289" lon="-8.5210805"><ele>243.33333333333331</ele><time>2026-03-29T08:51:19.058Z</time></trkpt><trkpt lat="42.8629743" lon="-8.5210602"><ele>244.0</ele><time>2026-03-29T08:51:20.059Z</time></trkpt><trkpt lat="42.8628361" lon="-8.52103"><ele>244.0</ele><time>2026-03-29T08:51:21.058Z</time></trkpt><trkpt lat="42.8627057" lon="-8.5209906"><ele>244.0</ele><time>2026-03-29T08:51:22.058Z</time></trkpt><trkpt lat="42.8625859" lon="-8.5209476"><ele>244.0</ele><time>2026-03-29T08:51:23.058Z</time></trkpt><trkpt lat="42.8624774" lon="-8.5208988"><ele>244.0</ele><time>2026-03-29T08:51:24.059Z</time></trkpt><trkpt lat="42.8623718" lon="-8.5208569"><ele>244.2</ele><time>2026-03-29T08:51:25.058Z</time></trkpt><trkpt lat="42.8622696" lon="-8.52082"><ele>244.39999999999998</ele><time>2026-03-29T08:51:26.058Z</time></trkpt><trkpt lat="42.8621705" lon="-8.5207804"><ele>244.6</ele><time>2026-03-29T08:51:27.058Z</time></trkpt><trkpt lat="42.8620727" lon="-8.5207386"><ele>244.8</ele><time>2026-03-29T08:51:28.059Z</time></trkpt><trkpt lat="42.8619728" lon="-8.5206998"><ele>245.0</ele><time>2026-03-29T08:51:29.058Z</time></trkpt><trkpt lat="42.86187" lon="-8.520659"><ele>244.8</ele><time>2026-03-29T08:51:30.058Z</time></trkpt><trkpt lat="42.8617689" lon="-8.5206162"><ele>244.6</ele><time>2026-03-29T08:51:31.058Z</time></trkpt><trkpt lat="42.8616644" lon="-8.5205705"><ele>244.39999999999998</ele><time>2026-03-29T08:51:32.059Z</time></trkpt><trkpt lat="42.8615564" lon="-8.5205227"><ele>244.2</ele><time>2026-03-29T08:51:33.059Z</time></trkpt><trkpt lat="42.8614477" lon="-8.520469"><ele>244.0</ele><time>2026-03-29T08:51:34.058Z</time></trkpt><trkpt lat="42.8613354" lon="-8.5204115"><ele>246.6</ele><time>2026-03-29T08:51:35.059Z</time></trkpt><trkpt lat="42.8612265" lon="-8.5203597"><ele>249.2</ele><time>2026-03-29T08:51:36.058Z</time></trkpt><trkpt lat="42.8611201" lon="-8.5203132"><ele>251.79999999999998</ele><time>2026-03-29T08:51:37.058Z</time></trkpt><trkpt lat="42.8610142" lon="-8.5202736"><ele>254.39999999999998</ele><time>2026-03-29T08:51:38.059Z</time></trkpt><trkpt lat="42.8609086" lon="-8.5202402"><ele>257.0</ele><time>2026-03-29T08:51:39.058Z</time></trkpt><trkpt lat="42.8608044" lon="-8.5202068"><ele>257.6</ele><time>2026-03-29T08:51:40.058Z</time></trkpt><trkpt lat="42.8606992" lon="-8.5201798"><ele>258.2</ele><time>2026-03-29T08:51:41.058Z</time></trkpt><trkpt lat="42.8605902" lon="-8.5201514"><ele>258.8</ele><time>2026-03-29T08:51:42.059Z</time></trkpt><trkpt lat="42.8604812" lon="-8.5201088"><ele>259.4</ele><time>2026-03-29T08:51:43.058Z</time></trkpt><trkpt lat="42.860377" lon="-8.5200472"><ele>260.0</ele><time>2026-03-29T08:51:44.058Z</time></trkpt><trkpt lat="42.8602766" lon="-8.5199586"><ele>260.0</ele><time>2026-03-29T08:51:45.058Z</time></trkpt><trkpt lat="42.8601853" lon="-8.5198587"><ele>260.0</ele><time>2026-03-29T08:51:46.059Z</time></trkpt><trkpt lat="42.8600906" lon="-8.5197636"><ele>260.0</ele><time>2026-03-29T08:51:47.059Z</time></trkpt><trkpt lat="42.8599922" lon="-8.5196959"><ele>260.0</ele><time>2026-03-29T08:51:48.059Z</time></trkpt><trkpt lat="42.8598895" lon="-8.5196473"><ele>259.8</ele><time>2026-03-29T08:51:49.058Z</time></trkpt><trkpt lat="42.8597834" lon="-8.5196182"><ele>259.6</ele><time>2026-03-29T08:51:50.059Z</time></trkpt><trkpt lat="42.8596795" lon="-8.5195861"><ele>259.4</ele><time>2026-03-29T08:51:51.058Z</time></trkpt><trkpt lat="42.8595848" lon="-8.5195393"><ele>259.2</ele><time>2026-03-29T08:51:52.059Z</time></trkpt><trkpt lat="42.8594921" lon="-8.5194693"><ele>259.0</ele><time>2026-03-29T08:51:53.059Z</time></trkpt><trkpt lat="42.8594081" lon="-8.519383"><ele>261.2</ele><time>2026-03-29T08:51:54.059Z</time></trkpt><trkpt lat="42.8593276" lon="-8.5192817"><ele>263.4</ele><time>2026-03-29T08:51:55.059Z</time></trkpt><trkpt lat="42.8592572" lon="-8.5191702"><ele>265.6</ele><time>2026-03-29T08:51:56.058Z</time></trkpt><trkpt lat="42.8591915" lon="-8.5190501"><ele>267.8</ele><time>2026-03-29T08:51:57.058Z</time></trkpt><trkpt lat="42.8591349" lon="-8.5189275"><ele>270.0</ele><time>2026-03-29T08:51:58.059Z</time></trkpt><trkpt lat="42.8590851" lon="-8.5188018"><ele>270.8</ele><time>2026-03-29T08:51:59.058Z</time></trkpt><trkpt lat="42.8590451" lon="-8.5186825"><ele>271.6</ele><time>2026-03-29T08:52:00.058Z</time></trkpt><trkpt lat="42.8590003" lon="-8.5185555"><ele>272.4</ele><time>2026-03-29T08:52:01.059Z</time></trkpt><trkpt lat="42.8589631" lon="-8.5184299"><ele>273.2</ele><time>2026-03-29T08:52:02.058Z</time></trkpt><trkpt lat="42.8589206" lon="-8.5182979"><ele>274.0</ele><time>2026-03-29T08:52:03.058Z</time></trkpt><trkpt lat="42.8588783" lon="-8.5181651"><ele>274.0</ele><time>2026-03-29T08:52:04.058Z</time></trkpt><trkpt lat="42.8588348" lon="-8.5180211"><ele>274.0</ele><time>2026-03-29T08:52:05.058Z</time></trkpt><trkpt lat="42.8587989" lon="-8.5178783"><ele>274.0</ele><time>2026-03-29T08:52:06.058Z</time></trkpt><trkpt lat="42.8587638" lon="-8.5177419"><ele>274.0</ele><time>2026-03-29T08:52:07.058Z</time></trkpt><trkpt lat="42.8587245" lon="-8.5176128"><ele>274.0</ele><time>2026-03-29T08:52:08.059Z</time></trkpt><trkpt lat="42.8586857" lon="-8.5174877"><ele>274.0</ele><time>2026-03-29T08:52:09.058Z</time></trkpt><trkpt lat="42.8586511" lon="-8.5173552"><ele>274.0</ele><time>2026-03-29T08:52:10.058Z</time></trkpt><trkpt lat="42.8586119" lon="-8.5172182"><ele>274.0</ele><time>2026-03-29T08:52:11.058Z</time></trkpt><trkpt lat="42.8585703" lon="-8.517074"><ele>274.0</ele><time>2026-03-29T08:52:12.058Z</time></trkpt><trkpt lat="42.8585245" lon="-8.5169278"><ele>274.0</ele><time>2026-03-29T08:52:13.059Z</time></trkpt><trkpt lat="42.8584788" lon="-8.5167753"><ele>270.5</ele><time>2026-03-29T08:52:14.058Z</time></trkpt><trkpt lat="42.8584292" lon="-8.5166251"><ele>267.0</ele><time>2026-03-29T08:52:15.059Z</time></trkpt><trkpt lat="42.8583846" lon="-8.5164762"><ele>263.5</ele><time>2026-03-29T08:52:16.058Z</time></trkpt><trkpt lat="42.8583428" lon="-8.5163222"><ele>260.0</ele><time>2026-03-29T08:52:17.058Z</time></trkpt><trkpt lat="42.858308" lon="-8.5161655"><ele>260.0</ele><time>2026-03-29T08:52:18.058Z</time></trkpt><trkpt lat="42.8582791" lon="-8.5160075"><ele>260.0</ele><time>2026-03-29T08:52:19.059Z</time></trkpt><trkpt lat="42.8582565" lon="-8.5158435"><ele>260.0</ele><time>2026-03-29T08:52:20.058Z</time></trkpt><trkpt lat="42.8582395" lon="-8.515674"><ele>260.0</ele><time>2026-03-29T08:52:21.058Z</time></trkpt><trkpt lat="42.858227" lon="-8.5155108"><ele>259.5</ele><time>2026-03-29T08:52:22.058Z</time></trkpt><trkpt lat="42.8582154" lon="-8.5153428"><ele>259.0</ele><time>2026-03-29T08:52:23.059Z</time></trkpt><trkpt lat="42.8582081" lon="-8.5151752"><ele>258.5</ele><time>2026-03-29T08:52:24.059Z</time></trkpt><trkpt lat="42.858197" lon="-8.5150037"><ele>258.0</ele><time>2026-03-29T08:52:25.058Z</time></trkpt><trkpt lat="42.8581921" lon="-8.514837"><ele>258.0</ele><time>2026-03-29T08:52:26.058Z</time></trkpt><trkpt lat="42.8581874" lon="-8.5146672"><ele>258.0</ele><time>2026-03-29T08:52:27.058Z</time></trkpt><trkpt lat="42.8581973" lon="-8.514492"><ele>258.0</ele><time>2026-03-29T08:52:28.059Z</time></trkpt><trkpt lat="42.8582205" lon="-8.5143081"><ele>258.0</ele><time>2026-03-29T08:52:29.058Z</time></trkpt><trkpt lat="42.8582402" lon="-8.5141163"><ele>256.6666666666667</ele><time>2026-03-29T08:52:30.058Z</time></trkpt><trkpt lat="42.858262" lon="-8.5139167"><ele>255.33333333333334</ele><time>2026-03-29T08:52:31.059Z</time></trkpt><trkpt lat="42.8582859" lon="-8.5137093"><ele>254.0</ele><time>2026-03-29T08:52:32.058Z</time></trkpt><trkpt lat="42.8583114" lon="-8.5134996"><ele>253.0</ele><time>2026-03-29T08:52:33.058Z</time></trkpt><trkpt lat="42.858337" lon="-8.5132967"><ele>252.0</ele><time>2026-03-29T08:52:34.059Z</time></trkpt><trkpt lat="42.8583311" lon="-8.5130999"><ele>251.0</ele><time>2026-03-29T08:52:35.058Z</time></trkpt><trkpt lat="42.8582905" lon="-8.5129015"><ele>250.0</ele><time>2026-03-29T08:52:36.059Z</time></trkpt><trkpt lat="42.8582303" lon="-8.5126938"><ele>249.66666666666666</ele><time>2026-03-29T08:52:37.058Z</time></trkpt><trkpt lat="42.8581546" lon="-8.5124788"><ele>249.33333333333331</ele><time>2026-03-29T08:52:38.058Z</time></trkpt><trkpt lat="42.8580731" lon="-8.5122609"><ele>249.0</ele><time>2026-03-29T08:52:39.058Z</time></trkpt><trkpt lat="42.8580024" lon="-8.5120478"><ele>249.66666666666669</ele><time>2026-03-29T08:52:40.058Z</time></trkpt><trkpt lat="42.8579527" lon="-8.5118297"><ele>250.33333333333334</ele><time>2026-03-29T08:52:41.059Z</time></trkpt><trkpt lat="42.8579172" lon="-8.5116029"><ele>251.0</ele><time>2026-03-29T08:52:42.059Z</time></trkpt><trkpt lat="42.8578884" lon="-8.5113787"><ele>250.33333333333334</ele><time>2026-03-29T08:52:43.058Z</time></trkpt><trkpt lat="42.8578626" lon="-8.5111568"><ele>249.66666666666669</ele><time>2026-03-29T08:52:44.058Z</time></trkpt><trkpt lat="42.8578488" lon="-8.5109332"><ele>249.0</ele><time>2026-03-29T08:52:45.059Z</time></trkpt><trkpt lat="42.8578568" lon="-8.5107132"><ele>249.0</ele><time>2026-03-29T08:52:46.058Z</time></trkpt><trkpt lat="42.8578839" lon="-8.5104915"><ele>249.0</ele><time>2026-03-29T08:52:47.059Z</time></trkpt><trkpt lat="42.8579165" lon="-8.5102705"><ele>249.0</ele><time>2026-03-29T08:52:48.058Z</time></trkpt><trkpt lat="42.8579617" lon="-8.5100564"><ele>246.66666666666669</ele><time>2026-03-29T08:52:49.058Z</time></trkpt><trkpt lat="42.8580304" lon="-8.5098531"><ele>244.33333333333334</ele><time>2026-03-29T08:52:50.059Z</time></trkpt><trkpt lat="42.8581151" lon="-8.5096578"><ele>242.0</ele><time>2026-03-29T08:52:51.058Z</time></trkpt><trkpt lat="42.8582116" lon="-8.5094632"><ele>240.66666666666669</ele><time>2026-03-29T08:52:52.059Z</time></trkpt><trkpt lat="42.8583125" lon="-8.5092804"><ele>239.33333333333331</ele><time>2026-03-29T08:52:53.058Z</time></trkpt><trkpt lat="42.8584158" lon="-8.5091099"><ele>238.0</ele><time>2026-03-29T08:52:54.058Z</time></trkpt><trkpt lat="42.8585142" lon="-8.5089491"><ele>238.0</ele><time>2026-03-29T08:52:55.059Z</time></trkpt><trkpt lat="42.8586144" lon="-8.5087981"><ele>238.0</ele><time>2026-03-29T08:52:56.058Z</time></trkpt><trkpt lat="42.8587245" lon="-8.5086702"><ele>238.0</ele><time>2026-03-29T08:52:57.059Z</time></trkpt><trkpt lat="42.8588458" lon="-8.5085693"><ele>238.0</ele><time>2026-03-29T08:52:58.059Z</time></trkpt><trkpt lat="42.8589788" lon="-8.5085088"><ele>233.33333333333331</ele><time>2026-03-29T08:52:59.058Z</time></trkpt><trkpt lat="42.8591247" lon="-8.5084754"><ele>228.66666666666669</ele><time>2026-03-29T08:53:00.058Z</time></trkpt><trkpt lat="42.8592695" lon="-8.5084135"><ele>224.0</ele><time>2026-03-29T08:53:01.058Z</time></trkpt><trkpt lat="42.8594122" lon="-8.5083349"><ele>224.0</ele><time>2026-03-29T08:53:02.058Z</time></trkpt><trkpt lat="42.8595564" lon="-8.5082493"><ele>224.0</ele><time>2026-03-29T08:53:03.058Z</time></trkpt><trkpt lat="42.8597002" lon="-8.5081626"><ele>224.0</ele><time>2026-03-29T08:53:04.058Z</time></trkpt><trkpt lat="42.8598435" lon="-8.5080743"><ele>224.0</ele><time>2026-03-29T08:53:05.059Z</time></trkpt><trkpt lat="42.8599902" lon="-8.5080043"><ele>224.0</ele><time>2026-03-29T08:53:06.059Z</time></trkpt><trkpt lat="42.8601377" lon="-8.5079656"><ele>224.0</ele><time>2026-03-29T08:53:07.058Z</time></trkpt><trkpt lat="42.8602812" lon="-8.5079418"><ele>221.25</ele><time>2026-03-29T08:53:08.058Z</time></trkpt><trkpt lat="42.8604124" lon="-8.5078912"><ele>218.5</ele><time>2026-03-29T08:53:09.059Z</time></trkpt><trkpt lat="42.8605243" lon="-8.5078049"><ele>215.75</ele><time>2026-03-29T08:53:10.059Z</time></trkpt><trkpt lat="42.860618" lon="-8.5076796"><ele>213.0</ele><time>2026-03-29T08:53:11.058Z</time></trkpt><trkpt lat="42.860691" lon="-8.5075254"><ele>213.0</ele><time>2026-03-29T08:53:12.058Z</time></trkpt><trkpt lat="42.8607552" lon="-8.5073524"><ele>213.0</ele><time>2026-03-29T08:53:13.059Z</time></trkpt><trkpt lat="42.8608111" lon="-8.5071659"><ele>213.0</ele><time>2026-03-29T08:53:14.058Z</time></trkpt><trkpt lat="42.8608673" lon="-8.5069724"><ele>213.0</ele><time>2026-03-29T08:53:15.059Z</time></trkpt><trkpt lat="42.8609124" lon="-8.5067773"><ele>212.25</ele><time>2026-03-29T08:53:16.058Z</time></trkpt><trkpt lat="42.8609571" lon="-8.5065799"><ele>211.5</ele><time>2026-03-29T08:53:17.058Z</time></trkpt><trkpt lat="42.8609914" lon="-8.5063915"><ele>210.75</ele><time>2026-03-29T08:53:18.059Z</time></trkpt><trkpt lat="42.8610173" lon="-8.5062101"><ele>210.0</ele><time>2026-03-29T08:53:19.059Z</time></trkpt><trkpt lat="42.8610409" lon="-8.5060237"><ele>210.0</ele><time>2026-03-29T08:53:20.059Z</time></trkpt><trkpt lat="42.8610665" lon="-8.5058273"><ele>210.0</ele><time>2026-03-29T08:53:21.058Z</time></trkpt><trkpt lat="42.8610947" lon="-8.5056213"><ele>210.0</ele><time>2026-03-29T08:53:22.058Z</time></trkpt><trkpt lat="42.8611244" lon="-8.5054203"><ele>208.33333333333331</ele><time>2026-03-29T08:53:23.059Z</time></trkpt><trkpt lat="42.8611593" lon="-8.5052136"><ele>206.66666666666666</ele><time>2026-03-29T08:53:24.058Z</time></trkpt><trkpt lat="42.861197" lon="-8.5050045"><ele>205.0</ele><time>2026-03-29T08:53:25.059Z</time></trkpt><trkpt lat="42.8612342" lon="-8.5047884"><ele>203.66666666666666</ele><time>2026-03-29T08:53:26.058Z</time></trkpt><trkpt lat="42.8612729" lon="-8.5045628"><ele>202.33333333333331</ele><time>2026-03-29T08:53:27.058Z</time></trkpt><trkpt lat="42.8613129" lon="-8.5043247"><ele>201.0</ele><time>2026-03-29T08:53:28.058Z</time></trkpt><trkpt lat="42.8613482" lon="-8.504099"><ele>201.0</ele><time>2026-03-29T08:53:29.058Z</time></trkpt><trkpt lat="42.8613619" lon="-8.5038706"><ele>201.0</ele><time>2026-03-29T08:53:30.058Z</time></trkpt><trkpt lat="42.8613461" lon="-8.5036325"><ele>201.0</ele><time>2026-03-29T08:53:31.059Z</time></trkpt><trkpt lat="42.8613058" lon="-8.503388"><ele>200.0</ele><time>2026-03-29T08:53:32.058Z</time></trkpt><trkpt lat="42.8612492" lon="-8.5031312"><ele>199.0</ele><time>2026-03-29T08:53:33.058Z</time></trkpt><trkpt lat="42.8611928" lon="-8.5028578"><ele>198.0</ele><time>2026-03-29T08:53:34.058Z</time></trkpt><trkpt lat="42.8611319" lon="-8.502579"><ele>197.66666666666669</ele><time>2026-03-29T08:53:35.059Z</time></trkpt><trkpt lat="42.8610696" lon="-8.5023002"><ele>197.33333333333334</ele><time>2026-03-29T08:53:36.058Z</time></trkpt><trkpt lat="42.8610111" lon="-8.502035"><ele>197.0</ele><time>2026-03-29T08:53:37.058Z</time></trkpt><trkpt lat="42.8609572" lon="-8.5017858"><ele>194.33333333333334</ele><time>2026-03-29T08:53:38.059Z</time></trkpt><trkpt lat="42.8609029" lon="-8.5015485"><ele>191.66666666666669</ele><time>2026-03-29T08:53:39.058Z</time></trkpt><trkpt lat="42.8608532" lon="-8.5013228"><ele>189.0</ele><time>2026-03-29T08:53:40.059Z</time></trkpt><trkpt lat="42.8608004" lon="-8.5011036"><ele>189.0</ele><time>2026-03-29T08:53:41.059Z</time></trkpt><trkpt lat="42.8607562" lon="-8.500891"><ele>189.0</ele><time>2026-03-29T08:53:42.059Z</time></trkpt><trkpt lat="42.8607063" lon="-8.5006797"><ele>189.0</ele><time>2026-03-29T08:53:43.059Z</time></trkpt><trkpt lat="42.8606604" lon="-8.5004817"><ele>189.25</ele><time>2026-03-29T08:53:44.058Z</time></trkpt><trkpt lat="42.860623" lon="-8.5002935"><ele>189.5</ele><time>2026-03-29T08:53:45.058Z</time></trkpt><trkpt lat="42.8606201" lon="-8.5001142"><ele>189.75</ele><time>2026-03-29T08:53:46.058Z</time></trkpt><trkpt lat="42.8606631" lon="-8.4999454"><ele>190.0</ele><time>2026-03-29T08:53:47.058Z</time></trkpt><trkpt lat="42.860755" lon="-8.4997973"><ele>190.0</ele><time>2026-03-29T08:53:48.059Z</time></trkpt><trkpt lat="42.8608845" lon="-8.499674"><ele>190.0</ele><time>2026-03-29T08:53:49.059Z</time></trkpt><trkpt lat="42.8610276" lon="-8.4995587"><ele>190.0</ele><time>2026-03-29T08:53:50.059Z</time></trkpt><trkpt lat="42.8611588" lon="-8.4994394"><ele>190.25</ele><time>2026-03-29T08:53:51.058Z</time></trkpt><trkpt lat="42.8612654" lon="-8.4992971"><ele>190.5</ele><time>2026-03-29T08:53:52.058Z</time></trkpt><trkpt lat="42.8613311" lon="-8.4991199"><ele>190.75</ele><time>2026-03-29T08:53:53.059Z</time></trkpt><trkpt lat="42.8613654" lon="-8.4989165"><ele>191.0</ele><time>2026-03-29T08:53:54.058Z</time></trkpt><trkpt lat="42.8613653" lon="-8.4986953"><ele>189.66666666666666</ele><time>2026-03-29T08:53:55.058Z</time></trkpt><trkpt lat="42.8613388" lon="-8.4984617"><ele>188.33333333333334</ele><time>2026-03-29T08:53:56.059Z</time></trkpt><trkpt lat="42.8613054" lon="-8.4982155"><ele>187.0</ele><time>2026-03-29T08:53:57.058Z</time></trkpt><trkpt lat="42.8612714" lon="-8.4979778"><ele>188.0</ele><time>2026-03-29T08:53:58.059Z</time></trkpt><trkpt lat="42.8612466" lon="-8.4977583"><ele>189.0</ele><time>2026-03-29T08:53:59.058Z</time></trkpt><trkpt lat="42.8612204" lon="-8.4975762"><ele>190.0</ele><time>2026-03-29T08:54:00.058Z</time></trkpt><trkpt lat="42.8611766" lon="-8.4974242"><ele>191.0</ele><time>2026-03-29T08:54:01.058Z</time></trkpt><trkpt lat="42.8610987" lon="-8.4973195"><ele>191.0</ele><time>2026-03-29T08:54:02.058Z</time></trkpt><trkpt lat="42.8610065" lon="-8.4972387"><ele>191.0</ele><time>2026-03-29T08:54:03.058Z</time></trkpt><trkpt lat="42.8608912" lon="-8.4972363"><ele>191.0</ele><time>2026-03-29T08:54:04.058Z</time></trkpt><trkpt lat="42.8607821" lon="-8.4973025"><ele>191.0</ele><time>2026-03-29T08:54:05.059Z</time></trkpt><trkpt lat="42.8606793" lon="-8.4973908"><ele>191.0</ele><time>2026-03-29T08:54:06.059Z</time></trkpt><trkpt lat="42.860594" lon="-8.4975269"><ele>191.0</ele><time>2026-03-29T08:54:07.059Z</time></trkpt><trkpt lat="42.8605105" lon="-8.497704"><ele>191.0</ele><time>2026-03-29T08:54:08.058Z</time></trkpt><trkpt lat="42.8604774" lon="-8.4978984"><ele>191.0</ele><time>2026-03-29T08:54:09.058Z</time></trkpt><trkpt lat="42.8603805" lon="-8.49812"><ele>190.66666666666666</ele><time>2026-03-29T08:54:10.058Z</time></trkpt><trkpt lat="42.8602761" lon="-8.4983247"><ele>190.33333333333334</ele><time>2026-03-29T08:54:11.059Z</time></trkpt><trkpt lat="42.8601178" lon="-8.4984347"><ele>190.0</ele><time>2026-03-29T08:54:12.059Z</time></trkpt><trkpt lat="42.8599326" lon="-8.4985126"><ele>190.0</ele><time>2026-03-29T08:54:13.058Z</time></trkpt><trkpt lat="42.8597453" lon="-8.4985835"><ele>190.0</ele><time>2026-03-29T08:54:14.058Z</time></trkpt><trkpt lat="42.8595538" lon="-8.4986616"><ele>190.0</ele><time>2026-03-29T08:54:15.058Z</time></trkpt><trkpt lat="42.8593523" lon="-8.498722"><ele>190.0</ele><time>2026-03-29T08:54:16.059Z</time></trkpt><trkpt lat="42.8591627" lon="-8.4987843"><ele>190.0</ele><time>2026-03-29T08:54:17.058Z</time></trkpt><trkpt lat="42.8589952" lon="-8.4988427"><ele>190.0</ele><time>2026-03-29T08:54:18.059Z</time></trkpt><trkpt lat="42.8588061" lon="-8.4988776"><ele>190.0</ele><time>2026-03-29T08:54:19.058Z</time></trkpt><trkpt lat="42.8586144" lon="-8.4988902"><ele>190.0</ele><time>2026-03-29T08:54:20.059Z</time></trkpt><trkpt lat="42.8584255" lon="-8.4988643"><ele>190.0</ele><time>2026-03-29T08:54:21.059Z</time></trkpt><trkpt lat="42.8581795" lon="-8.4988324"><ele>193.0</ele><time>2026-03-29T08:54:22.058Z</time></trkpt><trkpt lat="42.8579512" lon="-8.4988055"><ele>196.0</ele><time>2026-03-29T08:54:23.058Z</time></trkpt><trkpt lat="42.8577215" lon="-8.4987706"><ele>202.5</ele><time>2026-03-29T08:54:24.058Z</time></trkpt><trkpt lat="42.8574955" lon="-8.4987345"><ele>209.0</ele><time>2026-03-29T08:54:25.059Z</time></trkpt><trkpt lat="42.8572709" lon="-8.4986949"><ele>209.0</ele><time>2026-03-29T08:54:26.059Z</time></trkpt><trkpt lat="42.8570504" lon="-8.4986614"><ele>209.0</ele><time>2026-03-29T08:54:27.058Z</time></trkpt><trkpt lat="42.8568366" lon="-8.4986189"><ele>209.0</ele><time>2026-03-29T08:54:28.059Z</time></trkpt><trkpt lat="42.8566383" lon="-8.498589"><ele>210.0</ele><time>2026-03-29T08:54:29.058Z</time></trkpt><trkpt lat="42.8564399" lon="-8.498561"><ele>211.0</ele><time>2026-03-29T08:54:30.058Z</time></trkpt><trkpt lat="42.8562459" lon="-8.498476"><ele>212.0</ele><time>2026-03-29T08:54:31.059Z</time></trkpt><trkpt lat="42.856052" lon="-8.4983572"><ele>212.0</ele><time>2026-03-29T08:54:32.059Z</time></trkpt><trkpt lat="42.855858" lon="-8.4982409"><ele>212.0</ele><time>2026-03-29T08:54:33.058Z</time></trkpt><trkpt lat="42.8556561" lon="-8.4981287"><ele>212.0</ele><time>2026-03-29T08:54:34.059Z</time></trkpt><trkpt lat="42.8554482" lon="-8.4980303"><ele>212.0</ele><time>2026-03-29T08:54:35.058Z</time></trkpt><trkpt lat="42.855241" lon="-8.4979248"><ele>212.0</ele><time>2026-03-29T08:54:36.058Z</time></trkpt><trkpt lat="42.8550373" lon="-8.497806"><ele>212.0</ele><time>2026-03-29T08:54:37.058Z</time></trkpt><trkpt lat="42.8548283" lon="-8.4976816"><ele>216.0</ele><time>2026-03-29T08:54:38.058Z</time></trkpt><trkpt lat="42.8546237" lon="-8.4975419"><ele>220.0</ele><time>2026-03-29T08:54:39.058Z</time></trkpt><trkpt lat="42.8544294" lon="-8.4974135"><ele>224.0</ele><time>2026-03-29T08:54:40.058Z</time></trkpt><trkpt lat="42.8542631" lon="-8.4973037"><ele>224.0</ele><time>2026-03-29T08:54:41.058Z</time></trkpt><trkpt lat="42.854106" lon="-8.4971916"><ele>224.0</ele><time>2026-03-29T08:54:42.058Z</time></trkpt><trkpt lat="42.8539594" lon="-8.4970958"><ele>224.0</ele><time>2026-03-29T08:54:43.059Z</time></trkpt><trkpt lat="42.8538233" lon="-8.4970106"><ele>225.39999999999998</ele><time>2026-03-29T08:54:44.058Z</time></trkpt><trkpt lat="42.8536975" lon="-8.4969344"><ele>226.79999999999998</ele><time>2026-03-29T08:54:45.058Z</time></trkpt><trkpt lat="42.8536192" lon="-8.4968776"><ele>228.20000000000002</ele><time>2026-03-29T08:54:46.058Z</time></trkpt><trkpt lat="42.8535445" lon="-8.4968249"><ele>229.60000000000002</ele><time>2026-03-29T08:54:47.059Z</time></trkpt><trkpt lat="42.8534707" lon="-8.4967629"><ele>231.0</ele><time>2026-03-29T08:54:48.059Z</time></trkpt><trkpt lat="42.8533919" lon="-8.4966923"><ele>231.0</ele><time>2026-03-29T08:54:49.059Z</time></trkpt><trkpt lat="42.8533013" lon="-8.4966181"><ele>231.0</ele><time>2026-03-29T08:54:50.058Z</time></trkpt><trkpt lat="42.8532374" lon="-8.4965021"><ele>231.0</ele><time>2026-03-29T08:54:51.058Z</time></trkpt><trkpt lat="42.853175" lon="-8.4963573"><ele>231.0</ele><time>2026-03-29T08:54:52.058Z</time></trkpt><trkpt lat="42.8531261" lon="-8.496186"><ele>233.0</ele><time>2026-03-29T08:54:53.059Z</time></trkpt><trkpt lat="42.8530849" lon="-8.4960046"><ele>235.0</ele><time>2026-03-29T08:54:54.058Z</time></trkpt><trkpt lat="42.8530632" lon="-8.4958073"><ele>237.0</ele><time>2026-03-29T08:54:55.058Z</time></trkpt><trkpt lat="42.8530784" lon="-8.4956014"><ele>239.0</ele><time>2026-03-29T08:54:56.058Z</time></trkpt><trkpt lat="42.8531209" lon="-8.4953969"><ele>240.33333333333334</ele><time>2026-03-29T08:54:57.059Z</time></trkpt><trkpt lat="42.8531775" lon="-8.4951897"><ele>241.66666666666669</ele><time>2026-03-29T08:54:58.059Z</time></trkpt><trkpt lat="42.8532863" lon="-8.4949676"><ele>243.0</ele><time>2026-03-29T08:54:59.058Z</time></trkpt><trkpt lat="42.8533898" lon="-8.4947555"><ele>246.33333333333331</ele><time>2026-03-29T08:55:00.059Z</time></trkpt><trkpt lat="42.8534831" lon="-8.4945427"><ele>249.66666666666666</ele><time>2026-03-29T08:55:01.058Z</time></trkpt><trkpt lat="42.8535758" lon="-8.4943277"><ele>253.0</ele><time>2026-03-29T08:55:02.058Z</time></trkpt><trkpt lat="42.8536753" lon="-8.4941175"><ele>253.0</ele><time>2026-03-29T08:55:03.059Z</time></trkpt><trkpt lat="42.8537886" lon="-8.4939318"><ele>253.0</ele><time>2026-03-29T08:55:04.059Z</time></trkpt><trkpt lat="42.8539293" lon="-8.4937771"><ele>253.0</ele><time>2026-03-29T08:55:05.058Z</time></trkpt><trkpt lat="42.8540819" lon="-8.4936442"><ele>252.33333333333331</ele><time>2026-03-29T08:55:06.058Z</time></trkpt><trkpt lat="42.8542323" lon="-8.4935015"><ele>251.66666666666669</ele><time>2026-03-29T08:55:07.058Z</time></trkpt><trkpt lat="42.8543615" lon="-8.4933176"><ele>251.0</ele><time>2026-03-29T08:55:08.058Z</time></trkpt><trkpt lat="42.8544731" lon="-8.4931103"><ele>255.33333333333334</ele><time>2026-03-29T08:55:09.058Z</time></trkpt><trkpt lat="42.854564" lon="-8.4928824"><ele>259.6666666666667</ele><time>2026-03-29T08:55:10.058Z</time></trkpt><trkpt lat="42.8546545" lon="-8.4926325"><ele>264.0</ele><time>2026-03-29T08:55:11.058Z</time></trkpt><trkpt lat="42.854739" lon="-8.492372"><ele>264.0</ele><time>2026-03-29T08:55:12.059Z</time></trkpt><trkpt lat="42.8548233" lon="-8.4921115"><ele>264.0</ele><time>2026-03-29T08:55:13.058Z</time></trkpt><trkpt lat="42.8549035" lon="-8.4918568"><ele>264.0</ele><time>2026-03-29T08:55:14.058Z</time></trkpt><trkpt lat="42.8549883" lon="-8.4915951"><ele>264.6666666666667</ele><time>2026-03-29T08:55:15.058Z</time></trkpt><trkpt lat="42.8550755" lon="-8.4913395"><ele>265.33333333333337</ele><time>2026-03-29T08:55:16.058Z</time></trkpt><trkpt lat="42.8551751" lon="-8.4910908"><ele>266.0</ele><time>2026-03-29T08:55:17.059Z</time></trkpt><trkpt lat="42.8552851" lon="-8.4908497"><ele>268.6666666666667</ele><time>2026-03-29T08:55:18.059Z</time></trkpt><trkpt lat="42.8553824" lon="-8.4906261"><ele>271.3333333333333</ele><time>2026-03-29T08:55:19.059Z</time></trkpt><trkpt lat="42.8554702" lon="-8.4904145"><ele>274.0</ele><time>2026-03-29T08:55:20.058Z</time></trkpt><trkpt lat="42.8555533" lon="-8.49023"><ele>274.0</ele><time>2026-03-29T08:55:21.058Z</time></trkpt><trkpt lat="42.8556466" lon="-8.4900822"><ele>274.0</ele><time>2026-03-29T08:55:22.058Z</time></trkpt><trkpt lat="42.8557658" lon="-8.4899773"><ele>274.0</ele><time>2026-03-29T08:55:23.059Z</time></trkpt><trkpt lat="42.8559151" lon="-8.4899238"><ele>274.0</ele><time>2026-03-29T08:55:24.058Z</time></trkpt><trkpt lat="42.856086" lon="-8.489887"><ele>277.3333333333333</ele><time>2026-03-29T08:55:25.059Z</time></trkpt><trkpt lat="42.8562693" lon="-8.4898504"><ele>280.6666666666667</ele><time>2026-03-29T08:55:26.059Z</time></trkpt><trkpt lat="42.8564512" lon="-8.4898019"><ele>284.0</ele><time>2026-03-29T08:55:27.059Z</time></trkpt><trkpt lat="42.856627" lon="-8.4897212"><ele>284.0</ele><time>2026-03-29T08:55:28.058Z</time></trkpt><trkpt lat="42.8567814" lon="-8.4895927"><ele>284.0</ele><time>2026-03-29T08:55:29.058Z</time></trkpt><trkpt lat="42.8569252" lon="-8.4894226"><ele>284.0</ele><time>2026-03-29T08:55:30.059Z</time></trkpt><trkpt lat="42.8570557" lon="-8.4892244"><ele>285.33333333333337</ele><time>2026-03-29T08:55:31.059Z</time></trkpt><trkpt lat="42.857189" lon="-8.4890194"><ele>286.6666666666667</ele><time>2026-03-29T08:55:32.059Z</time></trkpt><trkpt lat="42.8573255" lon="-8.488813"><ele>288.0</ele><time>2026-03-29T08:55:33.058Z</time></trkpt><trkpt lat="42.8574639" lon="-8.4886082"><ele>288.0</ele><time>2026-03-29T08:55:34.058Z</time></trkpt><trkpt lat="42.8576003" lon="-8.4884062"><ele>288.0</ele><time>2026-03-29T08:55:35.058Z</time></trkpt><trkpt lat="42.857734" lon="-8.488214"><ele>288.0</ele><time>2026-03-29T08:55:36.058Z</time></trkpt><trkpt lat="42.8578667" lon="-8.4880287"><ele>292.0</ele><time>2026-03-29T08:55:37.059Z</time></trkpt><trkpt lat="42.8579794" lon="-8.4878452"><ele>296.0</ele><time>2026-03-29T08:55:38.058Z</time></trkpt><trkpt lat="42.8580706" lon="-8.4876622"><ele>300.0</ele><time>2026-03-29T08:55:39.058Z</time></trkpt><trkpt lat="42.8581331" lon="-8.4874704"><ele>300.0</ele><time>2026-03-29T08:55:40.058Z</time></trkpt><trkpt lat="42.8581498" lon="-8.4872779"><ele>300.0</ele><time>2026-03-29T08:55:41.059Z</time></trkpt><trkpt lat="42.8581212" lon="-8.4870835"><ele>300.0</ele><time>2026-03-29T08:55:42.059Z</time></trkpt><trkpt lat="42.858062" lon="-8.4868702"><ele>302.3333333333333</ele><time>2026-03-29T08:55:43.058Z</time></trkpt><trkpt lat="42.8579777" lon="-8.4866462"><ele>304.66666666666663</ele><time>2026-03-29T08:55:44.058Z</time></trkpt><trkpt lat="42.857886" lon="-8.4864083"><ele>307.0</ele><time>2026-03-29T08:55:45.058Z</time></trkpt><trkpt lat="42.8577887" lon="-8.4861637"><ele>308.3333333333333</ele><time>2026-03-29T08:55:46.058Z</time></trkpt><trkpt lat="42.8576968" lon="-8.4859211"><ele>309.6666666666667</ele><time>2026-03-29T08:55:47.059Z</time></trkpt><trkpt lat="42.85761" lon="-8.4856811"><ele>311.0</ele><time>2026-03-29T08:55:48.058Z</time></trkpt><trkpt lat="42.8574991" lon="-8.4854653"><ele>312.6666666666667</ele><time>2026-03-29T08:55:49.058Z</time></trkpt><trkpt lat="42.8573796" lon="-8.4852748"><ele>314.3333333333333</ele><time>2026-03-29T08:55:50.058Z</time></trkpt><trkpt lat="42.8572367" lon="-8.4851125"><ele>316.0</ele><time>2026-03-29T08:55:51.058Z</time></trkpt><trkpt lat="42.8571075" lon="-8.4849677"><ele>316.0</ele><time>2026-03-29T08:55:52.058Z</time></trkpt><trkpt lat="42.856996" lon="-8.4848286"><ele>316.0</ele><time>2026-03-29T08:55:53.058Z</time></trkpt><trkpt lat="42.8569101" lon="-8.4846764"><ele>316.0</ele><time>2026-03-29T08:55:54.058Z</time></trkpt><trkpt lat="42.8568732" lon="-8.4844835"><ele>316.0</ele><time>2026-03-29T08:55:55.058Z</time></trkpt><trkpt lat="42.8569187" lon="-8.4842175"><ele>317.3333333333333</ele><time>2026-03-29T08:55:56.059Z</time></trkpt><trkpt lat="42.8568949" lon="-8.4839769"><ele>318.6666666666667</ele><time>2026-03-29T08:55:57.059Z</time></trkpt><trkpt lat="42.8568493" lon="-8.4837653"><ele>320.0</ele><time>2026-03-29T08:55:58.058Z</time></trkpt><trkpt lat="42.856829" lon="-8.4835559"><ele>321.33333333333337</ele><time>2026-03-29T08:55:59.058Z</time></trkpt><trkpt lat="42.8568425" lon="-8.4833419"><ele>322.6666666666667</ele><time>2026-03-29T08:56:00.059Z</time></trkpt><trkpt lat="42.8568939" lon="-8.4831416"><ele>324.0</ele><time>2026-03-29T08:56:01.058Z</time></trkpt><trkpt lat="42.8570348" lon="-8.4829033"><ele>324.0</ele><time>2026-03-29T08:56:02.058Z</time></trkpt><trkpt lat="42.8571432" lon="-8.4827034"><ele>324.0</ele><time>2026-03-29T08:56:03.059Z</time></trkpt><trkpt lat="42.8572171" lon="-8.4824979"><ele>324.0</ele><time>2026-03-29T08:56:04.059Z</time></trkpt><trkpt lat="42.8572413" lon="-8.4822783"><ele>325.0</ele><time>2026-03-29T08:56:05.058Z</time></trkpt><trkpt lat="42.8572257" lon="-8.4820293"><ele>326.0</ele><time>2026-03-29T08:56:06.058Z</time></trkpt><trkpt lat="42.8571908" lon="-8.4817565"><ele>327.0</ele><time>2026-03-29T08:56:07.058Z</time></trkpt><trkpt lat="42.8571565" lon="-8.4814574"><ele>330.0</ele><time>2026-03-29T08:56:08.058Z</time></trkpt><trkpt lat="42.8571209" lon="-8.4811605"><ele>333.0</ele><time>2026-03-29T08:56:09.059Z</time></trkpt><trkpt lat="42.8570923" lon="-8.4808491"><ele>333.0</ele><time>2026-03-29T08:56:10.058Z</time></trkpt><trkpt lat="42.8570602" lon="-8.4805367"><ele>333.0</ele><time>2026-03-29T08:56:11.058Z</time></trkpt><trkpt lat="42.857025" lon="-8.4802301"><ele>334.6666666666667</ele><time>2026-03-29T08:56:12.058Z</time></trkpt><trkpt lat="42.8570029" lon="-8.4799262"><ele>336.33333333333337</ele><time>2026-03-29T08:56:13.059Z</time></trkpt><trkpt lat="42.8570013" lon="-8.4796285"><ele>338.0</ele><time>2026-03-29T08:56:14.058Z</time></trkpt><trkpt lat="42.8570081" lon="-8.4793376"><ele>339.33333333333337</ele><time>2026-03-29T08:56:15.058Z</time></trkpt><trkpt lat="42.8570152" lon="-8.4790638"><ele>340.6666666666667</ele><time>2026-03-29T08:56:16.058Z</time></trkpt><trkpt lat="42.8570157" lon="-8.4788003"><ele>342.0</ele><time>2026-03-29T08:56:17.058Z</time></trkpt><trkpt lat="42.8570269" lon="-8.4785512"><ele>342.0</ele><time>2026-03-29T08:56:18.058Z</time></trkpt><trkpt lat="42.8570578" lon="-8.4782956"><ele>342.0</ele><time>2026-03-29T08:56:19.058Z</time></trkpt><trkpt lat="42.857116" lon="-8.478048"><ele>342.0</ele><time>2026-03-29T08:56:20.059Z</time></trkpt><trkpt lat="42.8571771" lon="-8.477802"><ele>342.0</ele><time>2026-03-29T08:56:21.058Z</time></trkpt><trkpt lat="42.857256" lon="-8.4775582"><ele>342.0</ele><time>2026-03-29T08:56:22.059Z</time></trkpt><trkpt lat="42.8573588" lon="-8.4773227"><ele>342.0</ele><time>2026-03-29T08:56:23.058Z</time></trkpt><trkpt lat="42.8574869" lon="-8.4771067"><ele>344.0</ele><time>2026-03-29T08:56:24.058Z</time></trkpt><trkpt lat="42.857623" lon="-8.4768878"><ele>346.0</ele><time>2026-03-29T08:56:25.058Z</time></trkpt><trkpt lat="42.8577577" lon="-8.4766749"><ele>348.0</ele><time>2026-03-29T08:56:26.058Z</time></trkpt><trkpt lat="42.8578901" lon="-8.47645"><ele>348.0</ele><time>2026-03-29T08:56:27.058Z</time></trkpt><trkpt lat="42.8580304" lon="-8.4762319"><ele>348.0</ele><time>2026-03-29T08:56:28.059Z</time></trkpt><trkpt lat="42.8581614" lon="-8.4760028"><ele>348.0</ele><time>2026-03-29T08:56:29.058Z</time></trkpt><trkpt lat="42.8582857" lon="-8.4757672"><ele>348.0</ele><time>2026-03-29T08:56:30.059Z</time></trkpt><trkpt lat="42.8584046" lon="-8.4755378"><ele>348.0</ele><time>2026-03-29T08:56:31.058Z</time></trkpt><trkpt lat="42.8585093" lon="-8.4753192"><ele>348.0</ele><time>2026-03-29T08:56:32.058Z</time></trkpt><trkpt lat="42.8586084" lon="-8.4751026"><ele>349.0</ele><time>2026-03-29T08:56:33.058Z</time></trkpt><trkpt lat="42.8586643" lon="-8.4748675"><ele>350.0</ele><time>2026-03-29T08:56:34.058Z</time></trkpt><trkpt lat="42.8586827" lon="-8.4746172"><ele>351.0</ele><time>2026-03-29T08:56:35.059Z</time></trkpt><trkpt lat="42.8586684" lon="-8.4743523"><ele>351.6666666666667</ele><time>2026-03-29T08:56:36.058Z</time></trkpt><trkpt lat="42.858637" lon="-8.4740729"><ele>352.33333333333337</ele><time>2026-03-29T08:56:37.058Z</time></trkpt><trkpt lat="42.8585926" lon="-8.4737731"><ele>353.0</ele><time>2026-03-29T08:56:38.059Z</time></trkpt><trkpt lat="42.85855" lon="-8.4734664"><ele>353.5</ele><time>2026-03-29T08:56:39.058Z</time></trkpt><trkpt lat="42.8585165" lon="-8.4731491"><ele>354.0</ele><time>2026-03-29T08:56:40.059Z</time></trkpt><trkpt lat="42.858477" lon="-8.4728453"><ele>355.0</ele><time>2026-03-29T08:56:41.059Z</time></trkpt><trkpt lat="42.858435" lon="-8.4725383"><ele>356.0</ele><time>2026-03-29T08:56:42.058Z</time></trkpt><trkpt lat="42.8583898" lon="-8.4722241"><ele>359.5</ele><time>2026-03-29T08:56:43.058Z</time></trkpt><trkpt lat="42.8583464" lon="-8.4719112"><ele>363.0</ele><time>2026-03-29T08:56:44.059Z</time></trkpt><trkpt lat="42.8583008" lon="-8.4715965"><ele>363.0</ele><time>2026-03-29T08:56:45.058Z</time></trkpt><trkpt lat="42.8582577" lon="-8.4712795"><ele>363.0</ele><time>2026-03-29T08:56:46.058Z</time></trkpt><trkpt lat="42.8582204" lon="-8.470966"><ele>369.5</ele><time>2026-03-29T08:56:47.058Z</time></trkpt><trkpt lat="42.8581796" lon="-8.4706514"><ele>376.0</ele><time>2026-03-29T08:56:48.059Z</time></trkpt><trkpt lat="42.8581407" lon="-8.4703384"><ele>378.0</ele><time>2026-03-29T08:56:49.059Z</time></trkpt><trkpt lat="42.858101" lon="-8.470041"><ele>380.0</ele><time>2026-03-29T08:56:50.058Z</time></trkpt><trkpt lat="42.8580508" lon="-8.4697446"><ele>382.0</ele><time>2026-03-29T08:56:51.058Z</time></trkpt><trkpt lat="42.8580214" lon="-8.4694595"><ele>383.0</ele><time>2026-03-29T08:56:52.059Z</time></trkpt><trkpt lat="42.8580051" lon="-8.46917"><ele>384.0</ele><time>2026-03-29T08:56:53.058Z</time></trkpt><trkpt lat="42.8580022" lon="-8.4688799"><ele>385.0</ele><time>2026-03-29T08:56:54.058Z</time></trkpt><trkpt lat="42.8580087" lon="-8.4685976"><ele>385.0</ele><time>2026-03-29T08:56:55.058Z</time></trkpt><trkpt lat="42.8580108" lon="-8.468314"><ele>385.0</ele><time>2026-03-29T08:56:56.059Z</time></trkpt><trkpt lat="42.8580138" lon="-8.4680393"><ele>385.0</ele><time>2026-03-29T08:56:57.058Z</time></trkpt><trkpt lat="42.8580198" lon="-8.4677703"><ele>383.33333333333337</ele><time>2026-03-29T08:56:58.058Z</time></trkpt><trkpt lat="42.8580245" lon="-8.4675158"><ele>381.6666666666667</ele><time>2026-03-29T08:56:59.058Z</time></trkpt><trkpt lat="42.8580275" lon="-8.4672612"><ele>380.0</ele><time>2026-03-29T08:57:00.058Z</time></trkpt><trkpt lat="42.8580279" lon="-8.4670088"><ele>378.6666666666667</ele><time>2026-03-29T08:57:01.059Z</time></trkpt><trkpt lat="42.8579996" lon="-8.4667564"><ele>377.3333333333333</ele><time>2026-03-29T08:57:02.058Z</time></trkpt><trkpt lat="42.8579592" lon="-8.4665133"><ele>376.0</ele><time>2026-03-29T08:57:03.058Z</time></trkpt><trkpt lat="42.8579034" lon="-8.4662706"><ele>374.66666666666663</ele><time>2026-03-29T08:57:04.059Z</time></trkpt><trkpt lat="42.857825" lon="-8.4660311"><ele>373.3333333333333</ele><time>2026-03-29T08:57:05.058Z</time></trkpt><trkpt lat="42.8577136" lon="-8.4658075"><ele>372.0</ele><time>2026-03-29T08:57:06.058Z</time></trkpt><trkpt lat="42.8575858" lon="-8.4655956"><ele>370.6666666666667</ele><time>2026-03-29T08:57:07.058Z</time></trkpt><trkpt lat="42.8574473" lon="-8.4653825"><ele>369.33333333333337</ele><time>2026-03-29T08:57:08.059Z</time></trkpt><trkpt lat="42.8573094" lon="-8.4651682"><ele>368.0</ele><time>2026-03-29T08:57:09.059Z</time></trkpt><trkpt lat="42.8571676" lon="-8.4649517"><ele>368.0</ele><time>2026-03-29T08:57:10.058Z</time></trkpt><trkpt lat="42.8570261" lon="-8.464734"><ele>368.0</ele><time>2026-03-29T08:57:11.059Z</time></trkpt><trkpt lat="42.8568859" lon="-8.464513"><ele>368.0</ele><time>2026-03-29T08:57:12.059Z</time></trkpt><trkpt lat="42.8567404" lon="-8.4642892"><ele>367.0</ele><time>2026-03-29T08:57:13.058Z</time></trkpt><trkpt lat="42.8565954" lon="-8.464061"><ele>366.0</ele><time>2026-03-29T08:57:14.059Z</time></trkpt><trkpt lat="42.8564512" lon="-8.4638316"><ele>365.0</ele><time>2026-03-29T08:57:15.059Z</time></trkpt><trkpt lat="42.8563089" lon="-8.4636092"><ele>363.33333333333337</ele><time>2026-03-29T08:57:16.058Z</time></trkpt><trkpt lat="42.8561718" lon="-8.4633963"><ele>361.6666666666667</ele><time>2026-03-29T08:57:17.058Z</time></trkpt><trkpt lat="42.8560393" lon="-8.4631868"><ele>360.0</ele><time>2026-03-29T08:57:18.058Z</time></trkpt><trkpt lat="42.8559105" lon="-8.4629874"><ele>359.3333333333333</ele><time>2026-03-29T08:57:19.059Z</time></trkpt><trkpt lat="42.855795" lon="-8.4627969"><ele>358.66666666666663</ele><time>2026-03-29T08:57:20.059Z</time></trkpt><trkpt lat="42.8556943" lon="-8.4626284"><ele>358.0</ele><time>2026-03-29T08:57:21.059Z</time></trkpt><trkpt lat="42.8555962" lon="-8.4624844"><ele>358.0</ele><time>2026-03-29T08:57:22.059Z</time></trkpt><trkpt lat="42.8554832" lon="-8.4623997"><ele>358.0</ele><time>2026-03-29T08:57:23.058Z</time></trkpt><trkpt lat="42.8553746" lon="-8.4623367"><ele>358.0</ele><time>2026-03-29T08:57:24.058Z</time></trkpt><trkpt lat="42.8552459" lon="-8.4623094"><ele>358.0</ele><time>2026-03-29T08:57:25.059Z</time></trkpt><trkpt lat="42.8550582" lon="-8.4623898"><ele>354.3333333333333</ele><time>2026-03-29T08:57:26.058Z</time></trkpt><trkpt lat="42.8548654" lon="-8.4624533"><ele>350.6666666666667</ele><time>2026-03-29T08:57:27.058Z</time></trkpt><trkpt lat="42.8546761" lon="-8.4625265"><ele>347.0</ele><time>2026-03-29T08:57:28.059Z</time></trkpt><trkpt lat="42.8544733" lon="-8.4625923"><ele>343.33333333333337</ele><time>2026-03-29T08:57:29.058Z</time></trkpt><trkpt lat="42.8542686" lon="-8.462659"><ele>339.6666666666667</ele><time>2026-03-29T08:57:30.058Z</time></trkpt><trkpt lat="42.8540651" lon="-8.4627291"><ele>336.0</ele><time>2026-03-29T08:57:31.059Z</time></trkpt><trkpt lat="42.8538678" lon="-8.462806"><ele>336.0</ele><time>2026-03-29T08:57:32.058Z</time></trkpt><trkpt lat="42.8536723" lon="-8.4629149"><ele>336.0</ele><time>2026-03-29T08:57:33.059Z</time></trkpt><trkpt lat="42.8534784" lon="-8.4630545"><ele>336.0</ele><time>2026-03-29T08:57:34.058Z</time></trkpt><trkpt lat="42.853287" lon="-8.463205"><ele>337.0</ele><time>2026-03-29T08:57:35.058Z</time></trkpt><trkpt lat="42.8531063" lon="-8.4633621"><ele>338.0</ele><time>2026-03-29T08:57:36.058Z</time></trkpt><trkpt lat="42.8529411" lon="-8.4635309"><ele>339.0</ele><time>2026-03-29T08:57:37.058Z</time></trkpt><trkpt lat="42.8527994" lon="-8.463709"><ele>337.3333333333333</ele><time>2026-03-29T08:57:38.059Z</time></trkpt><trkpt lat="42.8526701" lon="-8.4638656"><ele>335.66666666666663</ele><time>2026-03-29T08:57:39.058Z</time></trkpt><trkpt lat="42.8525239" lon="-8.4639806"><ele>334.0</ele><time>2026-03-29T08:57:40.059Z</time></trkpt><trkpt lat="42.8523751" lon="-8.4640563"><ele>334.0</ele><time>2026-03-29T08:57:41.059Z</time></trkpt><trkpt lat="42.8522183" lon="-8.4640396"><ele>334.0</ele><time>2026-03-29T08:57:42.059Z</time></trkpt><trkpt lat="42.8520724" lon="-8.4640276"><ele>334.0</ele><time>2026-03-29T08:57:43.058Z</time></trkpt><trkpt lat="42.8519525" lon="-8.463997"><ele>334.0</ele><time>2026-03-29T08:57:44.059Z</time></trkpt><trkpt lat="42.8518508" lon="-8.4639015"><ele>333.25</ele><time>2026-03-29T08:57:45.059Z</time></trkpt><trkpt lat="42.8517832" lon="-8.4637569"><ele>332.5</ele><time>2026-03-29T08:57:46.058Z</time></trkpt><trkpt lat="42.8517472" lon="-8.4635824"><ele>331.75</ele><time>2026-03-29T08:57:47.058Z</time></trkpt><trkpt lat="42.8517281" lon="-8.4633966"><ele>331.0</ele><time>2026-03-29T08:57:48.059Z</time></trkpt><trkpt lat="42.851714" lon="-8.4632101"><ele>331.0</ele><time>2026-03-29T08:57:49.058Z</time></trkpt><trkpt lat="42.8517031" lon="-8.4630355"><ele>331.0</ele><time>2026-03-29T08:57:50.058Z</time></trkpt><trkpt lat="42.8516854" lon="-8.4628625"><ele>331.0</ele><time>2026-03-29T08:57:51.058Z</time></trkpt><trkpt lat="42.8516731" lon="-8.4626963"><ele>331.0</ele><time>2026-03-29T08:57:52.059Z</time></trkpt><trkpt lat="42.8516602" lon="-8.4625313"><ele>328.25</ele><time>2026-03-29T08:57:53.059Z</time></trkpt><trkpt lat="42.851651" lon="-8.46236"><ele>325.5</ele><time>2026-03-29T08:57:54.058Z</time></trkpt><trkpt lat="42.8516396" lon="-8.4621807"><ele>322.75</ele><time>2026-03-29T08:57:55.058Z</time></trkpt><trkpt lat="42.8516274" lon="-8.4619955"><ele>320.0</ele><time>2026-03-29T08:57:56.058Z</time></trkpt><trkpt lat="42.8516144" lon="-8.4618124"><ele>319.0</ele><time>2026-03-29T08:57:57.058Z</time></trkpt><trkpt lat="42.8516052" lon="-8.4616229"><ele>318.0</ele><time>2026-03-29T08:57:58.058Z</time></trkpt><trkpt lat="42.8515877" lon="-8.4614259"><ele>317.0</ele><time>2026-03-29T08:57:59.058Z</time></trkpt><trkpt lat="42.8515597" lon="-8.4612053"><ele>316.0</ele><time>2026-03-29T08:58:00.058Z</time></trkpt><trkpt lat="42.851514" lon="-8.4609844"><ele>315.0</ele><time>2026-03-29T08:58:01.058Z</time></trkpt><trkpt lat="42.8514495" lon="-8.4607658"><ele>314.0</ele><time>2026-03-29T08:58:02.059Z</time></trkpt><trkpt lat="42.8513604" lon="-8.4605606"><ele>313.0</ele><time>2026-03-29T08:58:03.058Z</time></trkpt><trkpt lat="42.8512426" lon="-8.4603781"><ele>312.3333333333333</ele><time>2026-03-29T08:58:04.058Z</time></trkpt><trkpt lat="42.8511029" lon="-8.460209"><ele>311.6666666666667</ele><time>2026-03-29T08:58:05.058Z</time></trkpt><trkpt lat="42.8509514" lon="-8.4600324"><ele>311.0</ele><time>2026-03-29T08:58:06.059Z</time></trkpt><trkpt lat="42.8508007" lon="-8.4598589"><ele>308.6666666666667</ele><time>2026-03-29T08:58:07.059Z</time></trkpt><trkpt lat="42.8506414" lon="-8.4596758"><ele>306.3333333333333</ele><time>2026-03-29T08:58:08.058Z</time></trkpt><trkpt lat="42.8504755" lon="-8.4594948"><ele>304.0</ele><time>2026-03-29T08:58:09.059Z</time></trkpt><trkpt lat="42.8503197" lon="-8.4593204"><ele>304.0</ele><time>2026-03-29T08:58:10.058Z</time></trkpt><trkpt lat="42.85017" lon="-8.4591553"><ele>304.0</ele><time>2026-03-29T08:58:11.058Z</time></trkpt><trkpt lat="42.850022" lon="-8.4589878"><ele>304.0</ele><time>2026-03-29T08:58:12.058Z</time></trkpt><trkpt lat="42.8498802" lon="-8.4588317"><ele>303.66666666666663</ele><time>2026-03-29T08:58:13.058Z</time></trkpt><trkpt lat="42.849733" lon="-8.4586945"><ele>303.3333333333333</ele><time>2026-03-29T08:58:14.058Z</time></trkpt><trkpt lat="42.849573" lon="-8.4585829"><ele>303.0</ele><time>2026-03-29T08:58:15.058Z</time></trkpt><trkpt lat="42.8493893" lon="-8.4584934"><ele>305.3333333333333</ele><time>2026-03-29T08:58:16.059Z</time></trkpt><trkpt lat="42.8491952" lon="-8.4584019"><ele>307.66666666666663</ele><time>2026-03-29T08:58:17.058Z</time></trkpt><trkpt lat="42.8489866" lon="-8.458304"><ele>310.0</ele><time>2026-03-29T08:58:18.059Z</time></trkpt><trkpt lat="42.8487803" lon="-8.4582001"><ele>310.0</ele><time>2026-03-29T08:58:19.058Z</time></trkpt><trkpt lat="42.8485613" lon="-8.458103"><ele>310.0</ele><time>2026-03-29T08:58:20.058Z</time></trkpt><trkpt lat="42.8483507" lon="-8.4580026"><ele>298.0</ele><time>2026-03-29T08:58:21.059Z</time></trkpt><trkpt lat="42.8481362" lon="-8.4578994"><ele>286.0</ele><time>2026-03-29T08:58:22.059Z</time></trkpt><trkpt lat="42.8479246" lon="-8.4578011"><ele>286.0</ele><time>2026-03-29T08:58:23.058Z</time></trkpt><trkpt lat="42.8477112" lon="-8.4577097"><ele>286.0</ele><time>2026-03-29T08:58:24.058Z</time></trkpt><trkpt lat="42.847503" lon="-8.4576158"><ele>286.0</ele><time>2026-03-29T08:58:25.058Z</time></trkpt><trkpt lat="42.8473034" lon="-8.4575261"><ele>285.0</ele><time>2026-03-29T08:58:26.058Z</time></trkpt><trkpt lat="42.84711" lon="-8.4574346"><ele>284.0</ele><time>2026-03-29T08:58:27.059Z</time></trkpt><trkpt lat="42.8469223" lon="-8.4573502"><ele>283.0</ele><time>2026-03-29T08:58:28.058Z</time></trkpt><trkpt lat="42.846741" lon="-8.4572677"><ele>283.0</ele><time>2026-03-29T08:58:29.059Z</time></trkpt><trkpt lat="42.8465765" lon="-8.4571888"><ele>283.0</ele><time>2026-03-29T08:58:30.058Z</time></trkpt><trkpt lat="42.8464238" lon="-8.4571118"><ele>283.0</ele><time>2026-03-29T08:58:31.058Z</time></trkpt><trkpt lat="42.8462885" lon="-8.4570169"><ele>279.3333333333333</ele><time>2026-03-29T08:58:32.058Z</time></trkpt><trkpt lat="42.8461727" lon="-8.4568773"><ele>275.6666666666667</ele><time>2026-03-29T08:58:33.059Z</time></trkpt><trkpt lat="42.8460753" lon="-8.456698"><ele>272.0</ele><time>2026-03-29T08:58:34.058Z</time></trkpt><trkpt lat="42.8459783" lon="-8.4564936"><ele>273.6666666666667</ele><time>2026-03-29T08:58:35.059Z</time></trkpt><trkpt lat="42.8458565" lon="-8.4562923"><ele>275.3333333333333</ele><time>2026-03-29T08:58:36.059Z</time></trkpt><trkpt lat="42.8457132" lon="-8.4561022"><ele>277.0</ele><time>2026-03-29T08:58:37.058Z</time></trkpt><trkpt lat="42.8455635" lon="-8.4559005"><ele>273.66666666666663</ele><time>2026-03-29T08:58:38.059Z</time></trkpt><trkpt lat="42.8454164" lon="-8.4556852"><ele>270.3333333333333</ele><time>2026-03-29T08:58:39.058Z</time></trkpt><trkpt lat="42.8452822" lon="-8.4554601"><ele>267.0</ele><time>2026-03-29T08:58:40.058Z</time></trkpt><trkpt lat="42.8451545" lon="-8.4552361"><ele>267.0</ele><time>2026-03-29T08:58:41.059Z</time></trkpt><trkpt lat="42.8450259" lon="-8.4550261"><ele>267.0</ele><time>2026-03-29T08:58:42.058Z</time></trkpt><trkpt lat="42.8448939" lon="-8.454825"><ele>267.0</ele><time>2026-03-29T08:58:43.058Z</time></trkpt><trkpt lat="42.8447601" lon="-8.4546369"><ele>264.0</ele><time>2026-03-29T08:58:44.058Z</time></trkpt><trkpt lat="42.8446229" lon="-8.454445"><ele>261.0</ele><time>2026-03-29T08:58:45.058Z</time></trkpt><trkpt lat="42.8444932" lon="-8.4542475"><ele>258.0</ele><time>2026-03-29T08:58:46.058Z</time></trkpt><trkpt lat="42.8443773" lon="-8.4540244"><ele>258.3333333333333</ele><time>2026-03-29T08:58:47.058Z</time></trkpt><trkpt lat="42.8442766" lon="-8.4537931"><ele>258.66666666666663</ele><time>2026-03-29T08:58:48.058Z</time></trkpt><trkpt lat="42.844162" lon="-8.453574"><ele>259.0</ele><time>2026-03-29T08:58:49.058Z</time></trkpt><trkpt lat="42.8440254" lon="-8.4533638"><ele>256.3333333333333</ele><time>2026-03-29T08:58:50.058Z</time></trkpt><trkpt lat="42.8438746" lon="-8.45315"><ele>253.66666666666669</ele><time>2026-03-29T08:58:51.059Z</time></trkpt><trkpt lat="42.8437152" lon="-8.4529375"><ele>251.0</ele><time>2026-03-29T08:58:52.058Z</time></trkpt><trkpt lat="42.8435469" lon="-8.4527257"><ele>248.0</ele><time>2026-03-29T08:58:53.058Z</time></trkpt><trkpt lat="42.8433708" lon="-8.4525193"><ele>245.0</ele><time>2026-03-29T08:58:54.058Z</time></trkpt><trkpt lat="42.84319" lon="-8.4523192"><ele>245.0</ele><time>2026-03-29T08:58:55.058Z</time></trkpt><trkpt lat="42.8430066" lon="-8.4521347"><ele>245.0</ele><time>2026-03-29T08:58:56.058Z</time></trkpt><trkpt lat="42.8428198" lon="-8.4519722"><ele>245.0</ele><time>2026-03-29T08:58:57.059Z</time></trkpt><trkpt lat="42.8426448" lon="-8.4518209"><ele>243.66666666666669</ele><time>2026-03-29T08:58:58.058Z</time></trkpt><trkpt lat="42.8424797" lon="-8.4516702"><ele>242.33333333333331</ele><time>2026-03-29T08:58:59.058Z</time></trkpt><trkpt lat="42.84234" lon="-8.451498"><ele>241.0</ele><time>2026-03-29T08:59:00.059Z</time></trkpt><trkpt lat="42.8422252" lon="-8.4513101"><ele>239.33333333333331</ele><time>2026-03-29T08:59:01.059Z</time></trkpt><trkpt lat="42.8421162" lon="-8.4511465"><ele>237.66666666666669</ele><time>2026-03-29T08:59:02.058Z</time></trkpt><trkpt lat="42.8419887" lon="-8.4510157"><ele>236.0</ele><time>2026-03-29T08:59:03.058Z</time></trkpt><trkpt lat="42.8418424" lon="-8.4509227"><ele>236.75</ele><time>2026-03-29T08:59:04.058Z</time></trkpt><trkpt lat="42.8416931" lon="-8.4508593"><ele>237.5</ele><time>2026-03-29T08:59:05.059Z</time></trkpt><trkpt lat="42.8415552" lon="-8.4508004"><ele>238.25</ele><time>2026-03-29T08:59:06.059Z</time></trkpt><trkpt lat="42.8414407" lon="-8.4507143"><ele>239.0</ele><time>2026-03-29T08:59:07.058Z</time></trkpt><trkpt lat="42.8413478" lon="-8.4506003"><ele>238.75</ele><time>2026-03-29T08:59:08.058Z</time></trkpt><trkpt lat="42.8412978" lon="-8.450452"><ele>238.5</ele><time>2026-03-29T08:59:09.058Z</time></trkpt><trkpt lat="42.8413009" lon="-8.4502709"><ele>238.25</ele><time>2026-03-29T08:59:10.059Z</time></trkpt><trkpt lat="42.8413123" lon="-8.4500647"><ele>238.0</ele><time>2026-03-29T08:59:11.058Z</time></trkpt><trkpt lat="42.8413153" lon="-8.4498664"><ele>238.0</ele><time>2026-03-29T08:59:12.058Z</time></trkpt><trkpt lat="42.8412841" lon="-8.4496964"><ele>238.0</ele><time>2026-03-29T08:59:13.058Z</time></trkpt><trkpt lat="42.8412104" lon="-8.4495512"><ele>238.0</ele><time>2026-03-29T08:59:14.058Z</time></trkpt><trkpt lat="42.8410964" lon="-8.4494114"><ele>238.0</ele><time>2026-03-29T08:59:15.058Z</time></trkpt><trkpt lat="42.8409579" lon="-8.4492662"><ele>240.33333333333331</ele><time>2026-03-29T08:59:16.058Z</time></trkpt><trkpt lat="42.8408126" lon="-8.449105"><ele>242.66666666666669</ele><time>2026-03-29T08:59:17.058Z</time></trkpt><trkpt lat="42.8406714" lon="-8.4489629"><ele>245.0</ele><time>2026-03-29T08:59:18.058Z</time></trkpt><trkpt lat="42.840526" lon="-8.4488505"><ele>242.66666666666669</ele><time>2026-03-29T08:59:19.059Z</time></trkpt><trkpt lat="42.84037" lon="-8.4487874"><ele>240.33333333333331</ele><time>2026-03-29T08:59:20.058Z</time></trkpt><trkpt lat="42.8402122" lon="-8.4487563"><ele>238.0</ele><time>2026-03-29T08:59:21.058Z</time></trkpt><trkpt lat="42.8400321" lon="-8.4487899"><ele>238.0</ele><time>2026-03-29T08:59:22.059Z</time></trkpt><trkpt lat="42.8398502" lon="-8.4488101"><ele>238.0</ele><time>2026-03-29T08:59:23.058Z</time></trkpt><trkpt lat="42.8396635" lon="-8.4487886"><ele>238.0</ele><time>2026-03-29T08:59:24.059Z</time></trkpt><trkpt lat="42.8394566" lon="-8.4487188"><ele>236.0</ele><time>2026-03-29T08:59:25.059Z</time></trkpt><trkpt lat="42.8392565" lon="-8.4486779"><ele>234.0</ele><time>2026-03-29T08:59:26.059Z</time></trkpt><trkpt lat="42.8390536" lon="-8.448683"><ele>232.0</ele><time>2026-03-29T08:59:27.059Z</time></trkpt><trkpt lat="42.8388416" lon="-8.4487007"><ele>232.0</ele><time>2026-03-29T08:59:28.059Z</time></trkpt><trkpt lat="42.8386313" lon="-8.4487122"><ele>232.0</ele><time>2026-03-29T08:59:29.059Z</time></trkpt><trkpt lat="42.8384375" lon="-8.4487204"><ele>232.0</ele><time>2026-03-29T08:59:30.058Z</time></trkpt><trkpt lat="42.8382525" lon="-8.4487192"><ele>230.0</ele><time>2026-03-29T08:59:31.058Z</time></trkpt><trkpt lat="42.8380799" lon="-8.4487063"><ele>228.0</ele><time>2026-03-29T08:59:32.058Z</time></trkpt><trkpt lat="42.8379157" lon="-8.4486884"><ele>226.0</ele><time>2026-03-29T08:59:33.059Z</time></trkpt><trkpt lat="42.8377622" lon="-8.4486684"><ele>225.25</ele><time>2026-03-29T08:59:34.058Z</time></trkpt><trkpt lat="42.8376181" lon="-8.4486487"><ele>224.5</ele><time>2026-03-29T08:59:35.059Z</time></trkpt><trkpt lat="42.8374789" lon="-8.4486317"><ele>223.75</ele><time>2026-03-29T08:59:36.058Z</time></trkpt><trkpt lat="42.8373474" lon="-8.4486161"><ele>223.0</ele><time>2026-03-29T08:59:37.059Z</time></trkpt><trkpt lat="42.8372209" lon="-8.4486055"><ele>223.0</ele><time>2026-03-29T08:59:38.058Z</time></trkpt><trkpt lat="42.8371039" lon="-8.4485977"><ele>223.0</ele><time>2026-03-29T08:59:39.059Z</time></trkpt><trkpt lat="42.8369918" lon="-8.448586"><ele>223.0</ele><time>2026-03-29T08:59:40.058Z</time></trkpt><trkpt lat="42.8368908" lon="-8.4485776"><ele>223.0</ele><time>2026-03-29T08:59:41.058Z</time></trkpt><trkpt lat="42.8367956" lon="-8.4485646"><ele>223.0</ele><time>2026-03-29T08:59:42.058Z</time></trkpt><trkpt lat="42.836693" lon="-8.448548"><ele>222.8</ele><time>2026-03-29T08:59:44.058Z</time></trkpt><trkpt lat="42.8365829" lon="-8.4485312"><ele>222.60000000000002</ele><time>2026-03-29T09:00:17.058Z</time></trkpt><trkpt lat="42.836533" lon="-8.4484755"><ele>222.39999999999998</ele><time>2026-03-29T09:00:20.059Z</time></trkpt><trkpt lat="42.8365874" lon="-8.4483303"><ele>222.2</ele><time>2026-03-29T09:00:23.058Z</time></trkpt><trkpt lat="42.8366469" lon="-8.4482371"><ele>222.0</ele><time>2026-03-29T09:00:24.058Z</time></trkpt><trkpt lat="42.8367103" lon="-8.4481358"><ele>222.0</ele><time>2026-03-29T09:00:25.059Z</time></trkpt><trkpt lat="42.8367793" lon="-8.44802"><ele>222.0</ele><time>2026-03-29T09:00:26.059Z</time></trkpt><trkpt lat="42.8368477" lon="-8.4478877"><ele>222.0</ele><time>2026-03-29T09:00:27.058Z</time></trkpt><trkpt lat="42.8369159" lon="-8.4477413"><ele>222.0</ele><time>2026-03-29T09:00:28.058Z</time></trkpt><trkpt lat="42.836977" lon="-8.4475752"><ele>222.5</ele><time>2026-03-29T09:00:29.058Z</time></trkpt><trkpt lat="42.8370344" lon="-8.4473938"><ele>223.0</ele><time>2026-03-29T09:00:30.058Z</time></trkpt><trkpt lat="42.8370906" lon="-8.4472033"><ele>223.5</ele><time>2026-03-29T09:00:31.058Z</time></trkpt><trkpt lat="42.8371454" lon="-8.4470085"><ele>224.0</ele><time>2026-03-29T09:00:32.059Z</time></trkpt><trkpt lat="42.8371994" lon="-8.4468092"><ele>224.66666666666669</ele><time>2026-03-29T09:00:33.058Z</time></trkpt><trkpt lat="42.8372473" lon="-8.4466103"><ele>225.33333333333331</ele><time>2026-03-29T09:00:34.058Z</time></trkpt><trkpt lat="42.8372868" lon="-8.4464076"><ele>226.0</ele><time>2026-03-29T09:00:35.058Z</time></trkpt><trkpt lat="42.8373201" lon="-8.4462035"><ele>226.5</ele><time>2026-03-29T09:00:36.059Z</time></trkpt><trkpt lat="42.8373402" lon="-8.4460009"><ele>227.0</ele><time>2026-03-29T09:00:37.058Z</time></trkpt><trkpt lat="42.8373591" lon="-8.4458022"><ele>227.5</ele><time>2026-03-29T09:00:38.059Z</time></trkpt><trkpt lat="42.8373821" lon="-8.4456054"><ele>228.0</ele><time>2026-03-29T09:00:39.058Z</time></trkpt><trkpt lat="42.8374076" lon="-8.4454052"><ele>228.0</ele><time>2026-03-29T09:00:40.058Z</time></trkpt><trkpt lat="42.8374313" lon="-8.4452023"><ele>228.0</ele><time>2026-03-29T09:00:41.059Z</time></trkpt><trkpt lat="42.8374553" lon="-8.4450002"><ele>228.0</ele><time>2026-03-29T09:00:42.058Z</time></trkpt><trkpt lat="42.8374815" lon="-8.4447979"><ele>229.0</ele><time>2026-03-29T09:00:43.059Z</time></trkpt><trkpt lat="42.8375077" lon="-8.4445891"><ele>230.0</ele><time>2026-03-29T09:00:44.059Z</time></trkpt><trkpt lat="42.8375308" lon="-8.4443871"><ele>231.0</ele><time>2026-03-29T09:00:45.059Z</time></trkpt><trkpt lat="42.8375555" lon="-8.4441841"><ele>231.0</ele><time>2026-03-29T09:00:46.058Z</time></trkpt><trkpt lat="42.8375763" lon="-8.4439805"><ele>231.0</ele><time>2026-03-29T09:00:47.059Z</time></trkpt><trkpt lat="42.8375993" lon="-8.4437815"><ele>231.0</ele><time>2026-03-29T09:00:48.058Z</time></trkpt><trkpt lat="42.8376175" lon="-8.4435836"><ele>231.0</ele><time>2026-03-29T09:00:49.058Z</time></trkpt><trkpt lat="42.8376408" lon="-8.4433884"><ele>235.0</ele><time>2026-03-29T09:00:50.058Z</time></trkpt><trkpt lat="42.8376627" lon="-8.4431922"><ele>235.0</ele><time>2026-03-29T09:00:51.058Z</time></trkpt><trkpt lat="42.8376802" lon="-8.4430001"><ele>235.0</ele><time>2026-03-29T09:00:52.058Z</time></trkpt></trkseg><trkseg><trkpt lat="42.8372786" lon="-8.4400068"><ele>245.00000000000003</ele><time>2026-03-29T09:49:33.065Z</time></trkpt><trkpt lat="42.8372129" lon="-8.4400491"><ele>245.0</ele><time>2026-03-29T09:49:47.064Z</time></trkpt><trkpt lat="42.8371543" lon="-8.4399097"><ele>245.0</ele><time>2026-03-29T09:49:49.064Z</time></trkpt><trkpt lat="42.8371302" lon="-8.4398151"><ele>245.0</ele><time>2026-03-29T09:49:50.064Z</time></trkpt><trkpt lat="42.8370995" lon="-8.439692"><ele>245.00000000000003</ele><time>2026-03-29T09:49:52.064Z</time></trkpt><trkpt lat="42.8370754" lon="-8.439607"><ele>245.0</ele><time>2026-03-29T09:50:32.064Z</time></trkpt><trkpt lat="42.8370594" lon="-8.4395233"><ele>245.50000000000003</ele><time>2026-03-29T09:50:34.064Z</time></trkpt><trkpt lat="42.837007" lon="-8.4393807"><ele>246.0</ele><time>2026-03-29T09:50:36.065Z</time></trkpt><trkpt lat="42.836964" lon="-8.4393059"><ele>246.5</ele><time>2026-03-29T09:50:37.064Z</time></trkpt><trkpt lat="42.8369222" lon="-8.4392272"><ele>247.0</ele><time>2026-03-29T09:50:38.065Z</time></trkpt><trkpt lat="42.8368721" lon="-8.4391496"><ele>247.50000000000003</ele><time>2026-03-29T09:50:39.064Z</time></trkpt><trkpt lat="42.8368153" lon="-8.4390771"><ele>248.0</ele><time>2026-03-29T09:50:40.064Z</time></trkpt><trkpt lat="42.836737" lon="-8.4390027"><ele>248.0</ele><time>2026-03-29T09:50:41.064Z</time></trkpt><trkpt lat="42.8366533" lon="-8.4389359"><ele>248.0</ele><time>2026-03-29T09:50:42.064Z</time></trkpt><trkpt lat="42.83656" lon="-8.4388724"><ele>248.0</ele><time>2026-03-29T09:50:43.064Z</time></trkpt><trkpt lat="42.8364593" lon="-8.4388102"><ele>248.0</ele><time>2026-03-29T09:50:44.064Z</time></trkpt><trkpt lat="42.8363501" lon="-8.4387648"><ele>248.0</ele><time>2026-03-29T09:50:45.064Z</time></trkpt><trkpt lat="42.8362369" lon="-8.4387367"><ele>249.5</ele><time>2026-03-29T09:50:46.065Z</time></trkpt><trkpt lat="42.8361232" lon="-8.4387122"><ele>251.0</ele><time>2026-03-29T09:50:47.064Z</time></trkpt><trkpt lat="42.8360071" lon="-8.4386902"><ele>252.5</ele><time>2026-03-29T09:50:48.064Z</time></trkpt><trkpt lat="42.8358897" lon="-8.4386735"><ele>254.0</ele><time>2026-03-29T09:50:49.065Z</time></trkpt><trkpt lat="42.8357701" lon="-8.4386564"><ele>255.5</ele><time>2026-03-29T09:50:50.065Z</time></trkpt><trkpt lat="42.8356502" lon="-8.4386355"><ele>257.0</ele><time>2026-03-29T09:50:51.064Z</time></trkpt><trkpt lat="42.8355342" lon="-8.438614"><ele>258.5</ele><time>2026-03-29T09:50:52.065Z</time></trkpt><trkpt lat="42.8354171" lon="-8.4385894"><ele>260.0</ele><time>2026-03-29T09:50:53.065Z</time></trkpt><trkpt lat="42.8353005" lon="-8.4385454"><ele>260.0</ele><time>2026-03-29T09:50:54.065Z</time></trkpt><trkpt lat="42.8351876" lon="-8.4384765"><ele>260.0</ele><time>2026-03-29T09:50:55.065Z</time></trkpt><trkpt lat="42.8350783" lon="-8.4383847"><ele>260.0</ele><time>2026-03-29T09:50:56.064Z</time></trkpt><trkpt lat="42.8349817" lon="-8.4382708"><ele>260.0</ele><time>2026-03-29T09:50:57.064Z</time></trkpt><trkpt lat="42.8348914" lon="-8.4381495"><ele>261.75</ele><time>2026-03-29T09:50:58.064Z</time></trkpt><trkpt lat="42.8348029" lon="-8.4380151"><ele>263.5</ele><time>2026-03-29T09:50:59.065Z</time></trkpt><trkpt lat="42.8347087" lon="-8.4378831"><ele>265.25</ele><time>2026-03-29T09:51:00.064Z</time></trkpt><trkpt lat="42.8346067" lon="-8.4377592"><ele>267.0</ele><time>2026-03-29T09:51:01.064Z</time></trkpt><trkpt lat="42.8344979" lon="-8.4376406"><ele>269.5</ele><time>2026-03-29T09:51:02.064Z</time></trkpt><trkpt lat="42.8343854" lon="-8.4375227"><ele>272.0</ele><time>2026-03-29T09:51:03.064Z</time></trkpt><trkpt lat="42.8342632" lon="-8.4374128"><ele>274.5</ele><time>2026-03-29T09:51:04.064Z</time></trkpt><trkpt lat="42.8341359" lon="-8.4373202"><ele>277.0</ele><time>2026-03-29T09:51:05.065Z</time></trkpt><trkpt lat="42.8340005" lon="-8.4372266"><ele>277.0</ele><time>2026-03-29T09:51:06.064Z</time></trkpt><trkpt lat="42.8338668" lon="-8.4371441"><ele>277.0</ele><time>2026-03-29T09:51:07.064Z</time></trkpt><trkpt lat="42.8337321" lon="-8.437064"><ele>277.0</ele><time>2026-03-29T09:51:08.064Z</time></trkpt><trkpt lat="42.8335956" lon="-8.4369845"><ele>277.0</ele><time>2026-03-29T09:51:09.065Z</time></trkpt><trkpt lat="42.8334567" lon="-8.4369031"><ele>280.3333333333333</ele><time>2026-03-29T09:51:10.064Z</time></trkpt><trkpt lat="42.8333131" lon="-8.4368163"><ele>283.6666666666667</ele><time>2026-03-29T09:51:11.064Z</time></trkpt><trkpt lat="42.8331774" lon="-8.4367312"><ele>287.0</ele><time>2026-03-29T09:51:12.064Z</time></trkpt><trkpt lat="42.8330438" lon="-8.4366432"><ele>287.0</ele><time>2026-03-29T09:51:13.064Z</time></trkpt><trkpt lat="42.8329057" lon="-8.436554"><ele>287.0</ele><time>2026-03-29T09:51:14.064Z</time></trkpt><trkpt lat="42.8327638" lon="-8.4364645"><ele>287.0</ele><time>2026-03-29T09:51:15.065Z</time></trkpt><trkpt lat="42.8326259" lon="-8.4363681"><ele>293.0</ele><time>2026-03-29T09:51:16.064Z</time></trkpt><trkpt lat="42.8324897" lon="-8.436269"><ele>299.0</ele><time>2026-03-29T09:51:17.065Z</time></trkpt><trkpt lat="42.8323546" lon="-8.436159"><ele>305.0</ele><time>2026-03-29T09:51:18.064Z</time></trkpt><trkpt lat="42.8322231" lon="-8.4360438"><ele>305.0</ele><time>2026-03-29T09:51:19.064Z</time></trkpt><trkpt lat="42.8320931" lon="-8.4359263"><ele>305.0</ele><time>2026-03-29T09:51:20.064Z</time></trkpt><trkpt lat="42.8319629" lon="-8.4358151"><ele>305.0</ele><time>2026-03-29T09:51:21.064Z</time></trkpt><trkpt lat="42.8318309" lon="-8.4357063"><ele>304.33333333333337</ele><time>2026-03-29T09:51:22.064Z</time></trkpt><trkpt lat="42.8317029" lon="-8.4355954"><ele>303.6666666666667</ele><time>2026-03-29T09:51:23.064Z</time></trkpt><trkpt lat="42.8315792" lon="-8.4354843"><ele>303.0</ele><time>2026-03-29T09:51:24.065Z</time></trkpt><trkpt lat="42.8314523" lon="-8.4353745"><ele>307.6666666666667</ele><time>2026-03-29T09:51:25.065Z</time></trkpt><trkpt lat="42.8313249" lon="-8.4352661"><ele>312.33333333333337</ele><time>2026-03-29T09:51:26.064Z</time></trkpt><trkpt lat="42.8311919" lon="-8.4351648"><ele>317.0</ele><time>2026-03-29T09:51:27.065Z</time></trkpt><trkpt lat="42.8310569" lon="-8.4350671"><ele>312.33333333333337</ele><time>2026-03-29T09:51:28.065Z</time></trkpt><trkpt lat="42.83092" lon="-8.4349712"><ele>307.6666666666667</ele><time>2026-03-29T09:51:29.064Z</time></trkpt><trkpt lat="42.830778" lon="-8.4348713"><ele>303.0</ele><time>2026-03-29T09:51:30.064Z</time></trkpt><trkpt lat="42.8306288" lon="-8.4347688"><ele>303.0</ele><time>2026-03-29T09:51:31.064Z</time></trkpt><trkpt lat="42.8304768" lon="-8.4346666"><ele>303.0</ele><time>2026-03-29T09:51:32.064Z</time></trkpt><trkpt lat="42.8303201" lon="-8.4345628"><ele>303.0</ele><time>2026-03-29T09:51:33.065Z</time></trkpt><trkpt lat="42.8301636" lon="-8.4344562"><ele>303.6666666666667</ele><time>2026-03-29T09:51:34.064Z</time></trkpt><trkpt lat="42.8300053" lon="-8.4343495"><ele>304.33333333333337</ele><time>2026-03-29T09:51:35.064Z</time></trkpt><trkpt lat="42.8298435" lon="-8.4342466"><ele>305.0</ele><time>2026-03-29T09:51:36.065Z</time></trkpt><trkpt lat="42.8296837" lon="-8.4341431"><ele>305.0</ele><time>2026-03-29T09:51:37.065Z</time></trkpt><trkpt lat="42.8295218" lon="-8.4340354"><ele>305.0</ele><time>2026-03-29T09:51:38.065Z</time></trkpt><trkpt lat="42.8293569" lon="-8.433929"><ele>305.0</ele><time>2026-03-29T09:51:39.064Z</time></trkpt><trkpt lat="42.8291911" lon="-8.4338118"><ele>308.6666666666667</ele><time>2026-03-29T09:51:40.065Z</time></trkpt><trkpt lat="42.8290453" lon="-8.433672"><ele>312.3333333333333</ele><time>2026-03-29T09:51:41.065Z</time></trkpt><trkpt lat="42.8289032" lon="-8.4335263"><ele>316.0</ele><time>2026-03-29T09:51:42.065Z</time></trkpt><trkpt lat="42.8287761" lon="-8.433342"><ele>316.0</ele><time>2026-03-29T09:51:43.064Z</time></trkpt><trkpt lat="42.8286927" lon="-8.4331052"><ele>316.0</ele><time>2026-03-29T09:51:44.064Z</time></trkpt><trkpt lat="42.828614" lon="-8.4328659"><ele>316.0</ele><time>2026-03-29T09:51:45.064Z</time></trkpt><trkpt lat="42.8285531" lon="-8.4326122"><ele>317.0</ele><time>2026-03-29T09:51:46.064Z</time></trkpt><trkpt lat="42.8284943" lon="-8.4323588"><ele>318.0</ele><time>2026-03-29T09:51:47.065Z</time></trkpt><trkpt lat="42.8284337" lon="-8.4320934"><ele>319.0</ele><time>2026-03-29T09:51:48.064Z</time></trkpt><trkpt lat="42.8283702" lon="-8.4318385"><ele>319.0</ele><time>2026-03-29T09:51:49.064Z</time></trkpt><trkpt lat="42.8283114" lon="-8.4315791"><ele>319.0</ele><time>2026-03-29T09:51:50.065Z</time></trkpt><trkpt lat="42.8282496" lon="-8.4313167"><ele>319.0</ele><time>2026-03-29T09:51:51.064Z</time></trkpt><trkpt lat="42.828187" lon="-8.4310668"><ele>322.3333333333333</ele><time>2026-03-29T09:51:52.065Z</time></trkpt><trkpt lat="42.8281233" lon="-8.4308192"><ele>325.6666666666667</ele><time>2026-03-29T09:51:53.065Z</time></trkpt><trkpt lat="42.828061" lon="-8.4305757"><ele>329.0</ele><time>2026-03-29T09:51:54.064Z</time></trkpt><trkpt lat="42.8279987" lon="-8.430335"><ele>331.6666666666667</ele><time>2026-03-29T09:51:55.064Z</time></trkpt><trkpt lat="42.8279357" lon="-8.4300935"><ele>334.3333333333333</ele><time>2026-03-29T09:51:56.065Z</time></trkpt><trkpt lat="42.8278749" lon="-8.4298621"><ele>337.0</ele><time>2026-03-29T09:51:57.064Z</time></trkpt><trkpt lat="42.8278132" lon="-8.4296356"><ele>338.66666666666663</ele><time>2026-03-29T09:51:58.064Z</time></trkpt><trkpt lat="42.8277524" lon="-8.4294178"><ele>340.3333333333333</ele><time>2026-03-29T09:51:59.064Z</time></trkpt><trkpt lat="42.8276951" lon="-8.4292047"><ele>342.0</ele><time>2026-03-29T09:52:00.065Z</time></trkpt><trkpt lat="42.8276525" lon="-8.4289795"><ele>341.6666666666667</ele><time>2026-03-29T09:52:01.064Z</time></trkpt><trkpt lat="42.8276247" lon="-8.4287573"><ele>341.33333333333337</ele><time>2026-03-29T09:52:02.064Z</time></trkpt><trkpt lat="42.8276258" lon="-8.4285205"><ele>341.0</ele><time>2026-03-29T09:52:03.065Z</time></trkpt><trkpt lat="42.827649" lon="-8.428268"><ele>342.6666666666667</ele><time>2026-03-29T09:52:04.064Z</time></trkpt><trkpt lat="42.8276635" lon="-8.4280157"><ele>344.3333333333333</ele><time>2026-03-29T09:52:05.064Z</time></trkpt><trkpt lat="42.8276399" lon="-8.4277679"><ele>346.0</ele><time>2026-03-29T09:52:06.065Z</time></trkpt><trkpt lat="42.8275747" lon="-8.427528"><ele>346.3333333333333</ele><time>2026-03-29T09:52:07.065Z</time></trkpt><trkpt lat="42.8274897" lon="-8.4272949"><ele>346.6666666666667</ele><time>2026-03-29T09:52:08.064Z</time></trkpt><trkpt lat="42.8273886" lon="-8.4270609"><ele>347.0</ele><time>2026-03-29T09:52:09.065Z</time></trkpt><trkpt lat="42.8273083" lon="-8.4268079"><ele>348.6666666666667</ele><time>2026-03-29T09:52:10.065Z</time></trkpt><trkpt lat="42.8272446" lon="-8.4265453"><ele>350.3333333333333</ele><time>2026-03-29T09:52:11.064Z</time></trkpt><trkpt lat="42.8272064" lon="-8.4262703"><ele>352.0</ele><time>2026-03-29T09:52:12.065Z</time></trkpt><trkpt lat="42.8271791" lon="-8.4259876"><ele>354.0</ele><time>2026-03-29T09:52:13.065Z</time></trkpt><trkpt lat="42.827167" lon="-8.4256997"><ele>356.0</ele><time>2026-03-29T09:52:14.065Z</time></trkpt><trkpt lat="42.8271697" lon="-8.4254123"><ele>358.0</ele><time>2026-03-29T09:52:15.065Z</time></trkpt><trkpt lat="42.8271775" lon="-8.4251243"><ele>358.3333333333333</ele><time>2026-03-29T09:52:16.065Z</time></trkpt><trkpt lat="42.8271968" lon="-8.4248554"><ele>358.6666666666667</ele><time>2026-03-29T09:52:17.064Z</time></trkpt><trkpt lat="42.8272397" lon="-8.4246071"><ele>359.0</ele><time>2026-03-29T09:52:18.064Z</time></trkpt><trkpt lat="42.8273121" lon="-8.4243829"><ele>357.0</ele><time>2026-03-29T09:52:19.064Z</time></trkpt><trkpt lat="42.8274066" lon="-8.4241744"><ele>355.0</ele><time>2026-03-29T09:52:20.064Z</time></trkpt><trkpt lat="42.8274865" lon="-8.4239735"><ele>353.0</ele><time>2026-03-29T09:52:21.064Z</time></trkpt><trkpt lat="42.8275433" lon="-8.4237682"><ele>349.33333333333337</ele><time>2026-03-29T09:52:22.064Z</time></trkpt><trkpt lat="42.8275614" lon="-8.4235433"><ele>345.6666666666667</ele><time>2026-03-29T09:52:23.065Z</time></trkpt><trkpt lat="42.8275437" lon="-8.4233012"><ele>342.0</ele><time>2026-03-29T09:52:24.064Z</time></trkpt><trkpt lat="42.8275061" lon="-8.4230566"><ele>339.0</ele><time>2026-03-29T09:52:25.065Z</time></trkpt><trkpt lat="42.8274592" lon="-8.4228109"><ele>336.0</ele><time>2026-03-29T09:52:26.065Z</time></trkpt><trkpt lat="42.8274037" lon="-8.4225804"><ele>333.0</ele><time>2026-03-29T09:52:27.064Z</time></trkpt><trkpt lat="42.8273281" lon="-8.4223511"><ele>329.6666666666667</ele><time>2026-03-29T09:52:28.064Z</time></trkpt><trkpt lat="42.8272468" lon="-8.4221357"><ele>326.33333333333337</ele><time>2026-03-29T09:52:29.064Z</time></trkpt><trkpt lat="42.8271626" lon="-8.4219335"><ele>323.0</ele><time>2026-03-29T09:52:30.064Z</time></trkpt><trkpt lat="42.8270838" lon="-8.4217388"><ele>323.0</ele><time>2026-03-29T09:52:31.064Z</time></trkpt><trkpt lat="42.8270124" lon="-8.4215388"><ele>323.0</ele><time>2026-03-29T09:52:32.065Z</time></trkpt><trkpt lat="42.8269557" lon="-8.4213274"><ele>323.0</ele><time>2026-03-29T09:52:33.065Z</time></trkpt><trkpt lat="42.8269052" lon="-8.4210998"><ele>319.6666666666667</ele><time>2026-03-29T09:52:34.064Z</time></trkpt><trkpt lat="42.8269045" lon="-8.4208392"><ele>316.3333333333333</ele><time>2026-03-29T09:52:35.064Z</time></trkpt><trkpt lat="42.8269221" lon="-8.4205799"><ele>313.0</ele><time>2026-03-29T09:52:36.065Z</time></trkpt><trkpt lat="42.8269526" lon="-8.4203034"><ele>311.66666666666663</ele><time>2026-03-29T09:52:37.065Z</time></trkpt><trkpt lat="42.826985" lon="-8.420038"><ele>310.3333333333333</ele><time>2026-03-29T09:52:38.065Z</time></trkpt><trkpt lat="42.8270178" lon="-8.4197756"><ele>309.0</ele><time>2026-03-29T09:52:39.064Z</time></trkpt><trkpt lat="42.8270499" lon="-8.4195105"><ele>308.3333333333333</ele><time>2026-03-29T09:52:40.064Z</time></trkpt><trkpt lat="42.8270826" lon="-8.4192399"><ele>307.66666666666663</ele><time>2026-03-29T09:52:41.064Z</time></trkpt><trkpt lat="42.8271143" lon="-8.4189771"><ele>307.0</ele><time>2026-03-29T09:52:42.064Z</time></trkpt><trkpt lat="42.8271427" lon="-8.4187162"><ele>306.66666666666663</ele><time>2026-03-29T09:52:43.064Z</time></trkpt><trkpt lat="42.8271702" lon="-8.4184511"><ele>306.3333333333333</ele><time>2026-03-29T09:52:44.064Z</time></trkpt><trkpt lat="42.8271984" lon="-8.4181911"><ele>306.0</ele><time>2026-03-29T09:52:45.065Z</time></trkpt><trkpt lat="42.8272243" lon="-8.4179296"><ele>304.6666666666667</ele><time>2026-03-29T09:52:46.065Z</time></trkpt><trkpt lat="42.8272533" lon="-8.417674"><ele>303.33333333333337</ele><time>2026-03-29T09:52:47.064Z</time></trkpt><trkpt lat="42.8272629" lon="-8.4174175"><ele>302.0</ele><time>2026-03-29T09:52:48.064Z</time></trkpt><trkpt lat="42.827271" lon="-8.4171561"><ele>301.6666666666667</ele><time>2026-03-29T09:52:49.065Z</time></trkpt><trkpt lat="42.8272699" lon="-8.4168898"><ele>301.3333333333333</ele><time>2026-03-29T09:52:50.064Z</time></trkpt><trkpt lat="42.8272655" lon="-8.4166152"><ele>301.0</ele><time>2026-03-29T09:52:51.064Z</time></trkpt><trkpt lat="42.8272677" lon="-8.4163399"><ele>300.3333333333333</ele><time>2026-03-29T09:52:52.064Z</time></trkpt><trkpt lat="42.8272854" lon="-8.4160644"><ele>299.6666666666667</ele><time>2026-03-29T09:52:53.064Z</time></trkpt><trkpt lat="42.8273171" lon="-8.415794"><ele>299.0</ele><time>2026-03-29T09:52:54.065Z</time></trkpt><trkpt lat="42.827362" lon="-8.4155276"><ele>298.6666666666667</ele><time>2026-03-29T09:52:55.064Z</time></trkpt><trkpt lat="42.827409" lon="-8.415266"><ele>298.3333333333333</ele><time>2026-03-29T09:52:56.065Z</time></trkpt><trkpt lat="42.8274479" lon="-8.415002"><ele>298.0</ele><time>2026-03-29T09:52:57.065Z</time></trkpt><trkpt lat="42.8274582" lon="-8.4147315"><ele>296.3333333333333</ele><time>2026-03-29T09:52:58.064Z</time></trkpt><trkpt lat="42.8274356" lon="-8.4144544"><ele>294.6666666666667</ele><time>2026-03-29T09:52:59.064Z</time></trkpt><trkpt lat="42.8273939" lon="-8.4141756"><ele>293.0</ele><time>2026-03-29T09:53:00.064Z</time></trkpt><trkpt lat="42.8273542" lon="-8.4138946"><ele>292.33333333333337</ele><time>2026-03-29T09:53:01.065Z</time></trkpt><trkpt lat="42.8273128" lon="-8.4136092"><ele>291.6666666666667</ele><time>2026-03-29T09:53:02.064Z</time></trkpt><trkpt lat="42.8272763" lon="-8.4133177"><ele>291.0</ele><time>2026-03-29T09:53:03.065Z</time></trkpt><trkpt lat="42.8272425" lon="-8.4130199"><ele>290.3333333333333</ele><time>2026-03-29T09:53:04.065Z</time></trkpt><trkpt lat="42.8272028" lon="-8.4127296"><ele>289.66666666666663</ele><time>2026-03-29T09:53:05.064Z</time></trkpt><trkpt lat="42.8271523" lon="-8.4124287"><ele>289.0</ele><time>2026-03-29T09:53:06.064Z</time></trkpt><trkpt lat="42.8270924" lon="-8.4121278"><ele>288.0</ele><time>2026-03-29T09:53:07.064Z</time></trkpt><trkpt lat="42.82702" lon="-8.4118302"><ele>287.0</ele><time>2026-03-29T09:53:08.064Z</time></trkpt><trkpt lat="42.8269451" lon="-8.4115343"><ele>287.0</ele><time>2026-03-29T09:53:09.064Z</time></trkpt><trkpt lat="42.8268642" lon="-8.4112415"><ele>287.0</ele><time>2026-03-29T09:53:10.064Z</time></trkpt><trkpt lat="42.8267834" lon="-8.4109468"><ele>287.0</ele><time>2026-03-29T09:53:11.064Z</time></trkpt><trkpt lat="42.8267019" lon="-8.410652"><ele>287.0</ele><time>2026-03-29T09:53:12.065Z</time></trkpt><trkpt lat="42.826623" lon="-8.410362"><ele>289.0</ele><time>2026-03-29T09:53:13.064Z</time></trkpt><trkpt lat="42.8265466" lon="-8.4100772"><ele>291.0</ele><time>2026-03-29T09:53:14.064Z</time></trkpt><trkpt lat="42.8264669" lon="-8.4097996"><ele>293.0</ele><time>2026-03-29T09:53:15.065Z</time></trkpt><trkpt lat="42.8263935" lon="-8.4095188"><ele>293.0</ele><time>2026-03-29T09:53:16.065Z</time></trkpt><trkpt lat="42.8263218" lon="-8.4092456"><ele>293.0</ele><time>2026-03-29T09:53:17.064Z</time></trkpt><trkpt lat="42.8262457" lon="-8.4089809"><ele>293.0</ele><time>2026-03-29T09:53:18.064Z</time></trkpt><trkpt lat="42.8261704" lon="-8.4087384"><ele>293.6666666666667</ele><time>2026-03-29T09:53:19.064Z</time></trkpt><trkpt lat="42.8261009" lon="-8.4085119"><ele>294.3333333333333</ele><time>2026-03-29T09:53:20.065Z</time></trkpt><trkpt lat="42.8260419" lon="-8.4082896"><ele>295.0</ele><time>2026-03-29T09:53:21.064Z</time></trkpt><trkpt lat="42.8260085" lon="-8.4080594"><ele>296.0</ele><time>2026-03-29T09:53:22.065Z</time></trkpt><trkpt lat="42.825998" lon="-8.4078187"><ele>297.0</ele><time>2026-03-29T09:53:23.064Z</time></trkpt><trkpt lat="42.826003" lon="-8.4075765"><ele>298.0</ele><time>2026-03-29T09:53:24.064Z</time></trkpt><trkpt lat="42.8260261" lon="-8.4073376"><ele>294.0</ele><time>2026-03-29T09:53:25.064Z</time></trkpt><trkpt lat="42.8260696" lon="-8.4071045"><ele>290.0</ele><time>2026-03-29T09:53:26.065Z</time></trkpt><trkpt lat="42.8261378" lon="-8.4068558"><ele>286.0</ele><time>2026-03-29T09:53:27.064Z</time></trkpt><trkpt lat="42.8262432" lon="-8.4066489"><ele>286.0</ele><time>2026-03-29T09:53:28.064Z</time></trkpt><trkpt lat="42.8263436" lon="-8.4064356"><ele>286.0</ele><time>2026-03-29T09:53:29.064Z</time></trkpt><trkpt lat="42.8264814" lon="-8.4061995"><ele>286.0</ele><time>2026-03-29T09:53:30.064Z</time></trkpt><trkpt lat="42.826612" lon="-8.4059731"><ele>283.3333333333333</ele><time>2026-03-29T09:53:31.064Z</time></trkpt><trkpt lat="42.8267407" lon="-8.405752"><ele>280.6666666666667</ele><time>2026-03-29T09:53:32.064Z</time></trkpt><trkpt lat="42.8268712" lon="-8.4055201"><ele>278.0</ele><time>2026-03-29T09:53:33.065Z</time></trkpt><trkpt lat="42.8269973" lon="-8.4052847"><ele>276.0</ele><time>2026-03-29T09:53:34.065Z</time></trkpt><trkpt lat="42.8271199" lon="-8.4050475"><ele>274.0</ele><time>2026-03-29T09:53:35.064Z</time></trkpt><trkpt lat="42.8272254" lon="-8.4047969"><ele>272.0</ele><time>2026-03-29T09:53:36.065Z</time></trkpt><trkpt lat="42.8272999" lon="-8.4045322"><ele>272.0</ele><time>2026-03-29T09:53:37.064Z</time></trkpt><trkpt lat="42.8273446" lon="-8.4042484"><ele>272.0</ele><time>2026-03-29T09:53:38.065Z</time></trkpt><trkpt lat="42.8273624" lon="-8.4039535"><ele>272.0</ele><time>2026-03-29T09:53:39.065Z</time></trkpt><trkpt lat="42.8273529" lon="-8.4036511"><ele>271.0</ele><time>2026-03-29T09:53:40.064Z</time></trkpt><trkpt lat="42.8273281" lon="-8.4033432"><ele>270.0</ele><time>2026-03-29T09:53:41.065Z</time></trkpt><trkpt lat="42.8272905" lon="-8.4030325"><ele>273.5</ele><time>2026-03-29T09:53:42.064Z</time></trkpt><trkpt lat="42.8272496" lon="-8.4027233"><ele>277.0</ele><time>2026-03-29T09:53:43.064Z</time></trkpt><trkpt lat="42.8272203" lon="-8.4024188"><ele>277.3333333333333</ele><time>2026-03-29T09:53:44.064Z</time></trkpt><trkpt lat="42.827178" lon="-8.402131"><ele>277.6666666666667</ele><time>2026-03-29T09:53:45.065Z</time></trkpt><trkpt lat="42.8271451" lon="-8.4018483"><ele>278.0</ele><time>2026-03-29T09:53:46.065Z</time></trkpt><trkpt lat="42.8271116" lon="-8.4015803"><ele>277.33333333333337</ele><time>2026-03-29T09:53:47.064Z</time></trkpt><trkpt lat="42.8270756" lon="-8.4013288"><ele>276.6666666666667</ele><time>2026-03-29T09:53:48.064Z</time></trkpt><trkpt lat="42.8270295" lon="-8.4010784"><ele>276.0</ele><time>2026-03-29T09:53:49.065Z</time></trkpt><trkpt lat="42.8269417" lon="-8.4008495"><ele>276.0</ele><time>2026-03-29T09:53:50.064Z</time></trkpt><trkpt lat="42.8268157" lon="-8.4006391"><ele>276.0</ele><time>2026-03-29T09:53:51.064Z</time></trkpt><trkpt lat="42.8266618" lon="-8.400431"><ele>276.0</ele><time>2026-03-29T09:53:52.064Z</time></trkpt><trkpt lat="42.8264891" lon="-8.4002311"><ele>269.0</ele><time>2026-03-29T09:53:53.064Z</time></trkpt><trkpt lat="42.8262997" lon="-8.4000434"><ele>262.0</ele><time>2026-03-29T09:53:54.065Z</time></trkpt><trkpt lat="42.8260974" lon="-8.3998649"><ele>261.0</ele><time>2026-03-29T09:53:55.064Z</time></trkpt><trkpt lat="42.8258941" lon="-8.399689"><ele>260.0</ele><time>2026-03-29T09:53:56.065Z</time></trkpt><trkpt lat="42.8256991" lon="-8.3995069"><ele>263.0</ele><time>2026-03-29T09:53:57.064Z</time></trkpt><trkpt lat="42.8255073" lon="-8.3993197"><ele>266.0</ele><time>2026-03-29T09:53:58.064Z</time></trkpt><trkpt lat="42.8253169" lon="-8.3991341"><ele>266.0</ele><time>2026-03-29T09:53:59.065Z</time></trkpt><trkpt lat="42.8251298" lon="-8.3989473"><ele>266.0</ele><time>2026-03-29T09:54:00.064Z</time></trkpt><trkpt lat="42.8249411" lon="-8.3987579"><ele>266.0</ele><time>2026-03-29T09:54:01.064Z</time></trkpt><trkpt lat="42.8247526" lon="-8.3985674"><ele>266.0</ele><time>2026-03-29T09:54:02.064Z</time></trkpt><trkpt lat="42.8245656" lon="-8.3983769"><ele>266.0</ele><time>2026-03-29T09:54:03.065Z</time></trkpt><trkpt lat="42.8243823" lon="-8.3981728"><ele>266.0</ele><time>2026-03-29T09:54:04.065Z</time></trkpt><trkpt lat="42.8241973" lon="-8.3979609"><ele>263.0</ele><time>2026-03-29T09:54:05.065Z</time></trkpt><trkpt lat="42.8240138" lon="-8.3977546"><ele>260.0</ele><time>2026-03-29T09:54:06.064Z</time></trkpt><trkpt lat="42.8238257" lon="-8.3975368"><ele>260.0</ele><time>2026-03-29T09:54:07.064Z</time></trkpt><trkpt lat="42.8236375" lon="-8.3973192"><ele>260.0</ele><time>2026-03-29T09:54:08.065Z</time></trkpt><trkpt lat="42.8234473" lon="-8.3971107"><ele>259.0</ele><time>2026-03-29T09:54:09.065Z</time></trkpt><trkpt lat="42.8232568" lon="-8.3969039"><ele>258.0</ele><time>2026-03-29T09:54:10.064Z</time></trkpt><trkpt lat="42.8230675" lon="-8.3967069"><ele>258.0</ele><time>2026-03-29T09:54:11.064Z</time></trkpt><trkpt lat="42.8228843" lon="-8.396517"><ele>258.0</ele><time>2026-03-29T09:54:12.064Z</time></trkpt><trkpt lat="42.8227683" lon="-8.3964012"><ele>258.0</ele><time>2026-03-29T09:54:13.251Z</time></trkpt><trkpt lat="42.8225769" lon="-8.3961598"><ele>264.0</ele><time>2026-03-29T09:54:14.42Z</time></trkpt><trkpt lat="42.8222716" lon="-8.3957559"><ele>270.0</ele><time>2026-03-29T09:54:16.062Z</time></trkpt><trkpt lat="42.8221463" lon="-8.395538"><ele>271.3333333333333</ele><time>2026-03-29T09:54:17.062Z</time></trkpt><trkpt lat="42.8220208" lon="-8.3953069"><ele>272.66666666666663</ele><time>2026-03-29T09:54:18.071Z</time></trkpt><trkpt lat="42.8219003" lon="-8.3950758"><ele>274.0</ele><time>2026-03-29T09:54:19.066Z</time></trkpt><trkpt lat="42.8217863" lon="-8.3948538"><ele>269.66666666666663</ele><time>2026-03-29T09:54:20.07Z</time></trkpt><trkpt lat="42.8216773" lon="-8.3946319"><ele>265.3333333333333</ele><time>2026-03-29T09:54:21.071Z</time></trkpt><trkpt lat="42.8215698" lon="-8.3944104"><ele>261.0</ele><time>2026-03-29T09:54:22.07Z</time></trkpt><trkpt lat="42.821461" lon="-8.3941879"><ele>261.0</ele><time>2026-03-29T09:54:23.071Z</time></trkpt><trkpt lat="42.8213505" lon="-8.3939539"><ele>261.0</ele><time>2026-03-29T09:54:24.07Z</time></trkpt><trkpt lat="42.8212479" lon="-8.3937052"><ele>261.0</ele><time>2026-03-29T09:54:25.071Z</time></trkpt><trkpt lat="42.8211486" lon="-8.3934463"><ele>261.6666666666667</ele><time>2026-03-29T09:54:26.07Z</time></trkpt><trkpt lat="42.8210416" lon="-8.3931878"><ele>262.33333333333337</ele><time>2026-03-29T09:54:27.071Z</time></trkpt><trkpt lat="42.8209245" lon="-8.3929305"><ele>263.0</ele><time>2026-03-29T09:54:28.07Z</time></trkpt><trkpt lat="42.8208089" lon="-8.3927004"><ele>261.0</ele><time>2026-03-29T09:54:29.071Z</time></trkpt><trkpt lat="42.820695" lon="-8.3924823"><ele>259.0</ele><time>2026-03-29T09:54:30.07Z</time></trkpt><trkpt lat="42.820586" lon="-8.3922734"><ele>257.0</ele><time>2026-03-29T09:54:31.07Z</time></trkpt><trkpt lat="42.8204823" lon="-8.392082"><ele>257.0</ele><time>2026-03-29T09:54:32.07Z</time></trkpt><trkpt lat="42.8203767" lon="-8.3918844"><ele>257.0</ele><time>2026-03-29T09:54:33.07Z</time></trkpt><trkpt lat="42.820261" lon="-8.3916769"><ele>257.0</ele><time>2026-03-29T09:54:34.07Z</time></trkpt><trkpt lat="42.8201394" lon="-8.3914635"><ele>256.33333333333337</ele><time>2026-03-29T09:54:35.071Z</time></trkpt><trkpt lat="42.8200051" lon="-8.3912523"><ele>255.66666666666669</ele><time>2026-03-29T09:54:36.071Z</time></trkpt><trkpt lat="42.8198614" lon="-8.3910449"><ele>255.0</ele><time>2026-03-29T09:54:37.07Z</time></trkpt><trkpt lat="42.8197131" lon="-8.3908409"><ele>255.0</ele><time>2026-03-29T09:54:38.07Z</time></trkpt><trkpt lat="42.8195675" lon="-8.3906396"><ele>255.0</ele><time>2026-03-29T09:54:39.07Z</time></trkpt><trkpt lat="42.8194224" lon="-8.3904388"><ele>255.0</ele><time>2026-03-29T09:54:40.071Z</time></trkpt><trkpt lat="42.819281" lon="-8.3902333"><ele>254.66666666666669</ele><time>2026-03-29T09:54:41.071Z</time></trkpt><trkpt lat="42.8191367" lon="-8.3900374"><ele>254.33333333333334</ele><time>2026-03-29T09:54:42.071Z</time></trkpt><trkpt lat="42.8189856" lon="-8.389846"><ele>254.0</ele><time>2026-03-29T09:54:43.07Z</time></trkpt><trkpt lat="42.8188304" lon="-8.389668"><ele>254.66666666666669</ele><time>2026-03-29T09:54:44.071Z</time></trkpt><trkpt lat="42.81867" lon="-8.3894868"><ele>255.33333333333331</ele><time>2026-03-29T09:54:45.07Z</time></trkpt><trkpt lat="42.8185087" lon="-8.3893047"><ele>256.0</ele><time>2026-03-29T09:54:46.07Z</time></trkpt><trkpt lat="42.8183549" lon="-8.3891204"><ele>256.0</ele><time>2026-03-29T09:54:47.071Z</time></trkpt><trkpt lat="42.818207" lon="-8.3889259"><ele>256.0</ele><time>2026-03-29T09:54:48.07Z</time></trkpt><trkpt lat="42.8180631" lon="-8.3887323"><ele>256.0</ele><time>2026-03-29T09:54:49.071Z</time></trkpt><trkpt lat="42.81792" lon="-8.3885403"><ele>258.3333333333333</ele><time>2026-03-29T09:54:50.07Z</time></trkpt><trkpt lat="42.8177978" lon="-8.38836"><ele>260.6666666666667</ele><time>2026-03-29T09:54:51.07Z</time></trkpt><trkpt lat="42.8176784" lon="-8.388171"><ele>263.0</ele><time>2026-03-29T09:54:52.07Z</time></trkpt><trkpt lat="42.8175668" lon="-8.3879808"><ele>263.0</ele><time>2026-03-29T09:54:53.07Z</time></trkpt><trkpt lat="42.8174604" lon="-8.3877979"><ele>263.0</ele><time>2026-03-29T09:54:54.071Z</time></trkpt><trkpt lat="42.8173599" lon="-8.3876178"><ele>263.0</ele><time>2026-03-29T09:54:55.07Z</time></trkpt><trkpt lat="42.8172635" lon="-8.3874346"><ele>263.0</ele><time>2026-03-29T09:54:56.071Z</time></trkpt><trkpt lat="42.8171735" lon="-8.3872474"><ele>263.0</ele><time>2026-03-29T09:54:57.07Z</time></trkpt><trkpt lat="42.8170887" lon="-8.3870539"><ele>263.0</ele><time>2026-03-29T09:54:58.07Z</time></trkpt><trkpt lat="42.8170089" lon="-8.3868618"><ele>264.25</ele><time>2026-03-29T09:54:59.07Z</time></trkpt><trkpt lat="42.8169383" lon="-8.3866845"><ele>265.5</ele><time>2026-03-29T09:55:00.071Z</time></trkpt><trkpt lat="42.8168728" lon="-8.386519"><ele>266.75</ele><time>2026-03-29T09:55:01.071Z</time></trkpt><trkpt lat="42.81681" lon="-8.3863629"><ele>268.0</ele><time>2026-03-29T09:55:02.07Z</time></trkpt><trkpt lat="42.8167545" lon="-8.3862154"><ele>265.2</ele><time>2026-03-29T09:55:03.071Z</time></trkpt><trkpt lat="42.8166999" lon="-8.386071"><ele>262.4</ele><time>2026-03-29T09:55:04.07Z</time></trkpt><trkpt lat="42.8166474" lon="-8.3859271"><ele>259.59999999999997</ele><time>2026-03-29T09:55:05.07Z</time></trkpt><trkpt lat="42.8166015" lon="-8.3857933"><ele>256.8</ele><time>2026-03-29T09:55:06.07Z</time></trkpt><trkpt lat="42.816562" lon="-8.3856695"><ele>254.0</ele><time>2026-03-29T09:55:07.07Z</time></trkpt><trkpt lat="42.8165254" lon="-8.3855571"><ele>253.16666666666669</ele><time>2026-03-29T09:55:08.07Z</time></trkpt><trkpt lat="42.8164794" lon="-8.3854429"><ele>252.33333333333334</ele><time>2026-03-29T09:55:10.07Z</time></trkpt><trkpt lat="42.8164329" lon="-8.3853805"><ele>251.5</ele><time>2026-03-29T09:55:15.071Z</time></trkpt><trkpt lat="42.8164045" lon="-8.3853031"><ele>250.66666666666669</ele><time>2026-03-29T09:55:18.071Z</time></trkpt><trkpt lat="42.8164066" lon="-8.3852097"><ele>249.83333333333334</ele><time>2026-03-29T09:55:19.071Z</time></trkpt><trkpt lat="42.8164218" lon="-8.3850842"><ele>249.0</ele><time>2026-03-29T09:55:20.071Z</time></trkpt><trkpt lat="42.8164428" lon="-8.3849435"><ele>249.0</ele><time>2026-03-29T09:55:21.07Z</time></trkpt><trkpt lat="42.8164659" lon="-8.3847958"><ele>249.0</ele><time>2026-03-29T09:55:22.071Z</time></trkpt><trkpt lat="42.8164911" lon="-8.3846467"><ele>249.0</ele><time>2026-03-29T09:55:23.07Z</time></trkpt><trkpt lat="42.8165259" lon="-8.3844943"><ele>249.0</ele><time>2026-03-29T09:55:24.07Z</time></trkpt><trkpt lat="42.8165651" lon="-8.3843338"><ele>248.5</ele><time>2026-03-29T09:55:25.071Z</time></trkpt><trkpt lat="42.8166008" lon="-8.3841673"><ele>248.0</ele><time>2026-03-29T09:55:26.07Z</time></trkpt><trkpt lat="42.8166406" lon="-8.383991"><ele>247.5</ele><time>2026-03-29T09:55:27.07Z</time></trkpt><trkpt lat="42.8166816" lon="-8.3838083"><ele>247.0</ele><time>2026-03-29T09:55:28.07Z</time></trkpt><trkpt lat="42.8167265" lon="-8.3836243"><ele>247.0</ele><time>2026-03-29T09:55:29.071Z</time></trkpt><trkpt lat="42.8167759" lon="-8.3834438"><ele>247.0</ele><time>2026-03-29T09:55:30.07Z</time></trkpt><trkpt lat="42.8168458" lon="-8.3832841"><ele>247.0</ele><time>2026-03-29T09:55:31.071Z</time></trkpt><trkpt lat="42.8169261" lon="-8.3831481"><ele>247.0</ele><time>2026-03-29T09:55:32.07Z</time></trkpt><trkpt lat="42.8170401" lon="-8.3830326"><ele>247.0</ele><time>2026-03-29T09:55:33.07Z</time></trkpt><trkpt lat="42.8172171" lon="-8.3829603"><ele>247.0</ele><time>2026-03-29T09:55:34.071Z</time></trkpt><trkpt lat="42.8173876" lon="-8.3828905"><ele>247.0</ele><time>2026-03-29T09:55:35.07Z</time></trkpt><trkpt lat="42.8175711" lon="-8.3828386"><ele>246.66666666666666</ele><time>2026-03-29T09:55:36.07Z</time></trkpt><trkpt lat="42.8177663" lon="-8.3827919"><ele>246.33333333333331</ele><time>2026-03-29T09:55:37.07Z</time></trkpt><trkpt lat="42.8179712" lon="-8.3827566"><ele>246.0</ele><time>2026-03-29T09:55:38.07Z</time></trkpt><trkpt lat="42.818176" lon="-8.3827232"><ele>246.0</ele><time>2026-03-29T09:55:39.07Z</time></trkpt><trkpt lat="42.8183787" lon="-8.3826892"><ele>246.0</ele><time>2026-03-29T09:55:40.07Z</time></trkpt><trkpt lat="42.818582" lon="-8.3826539"><ele>246.0</ele><time>2026-03-29T09:55:41.07Z</time></trkpt><trkpt lat="42.81879" lon="-8.3826186"><ele>245.66666666666669</ele><time>2026-03-29T09:55:42.07Z</time></trkpt><trkpt lat="42.8189986" lon="-8.3825893"><ele>245.33333333333334</ele><time>2026-03-29T09:55:43.071Z</time></trkpt><trkpt lat="42.8192083" lon="-8.3825661"><ele>245.0</ele><time>2026-03-29T09:55:44.07Z</time></trkpt><trkpt lat="42.8194166" lon="-8.3825433"><ele>243.66666666666669</ele><time>2026-03-29T09:55:45.071Z</time></trkpt><trkpt lat="42.8196237" lon="-8.3825281"><ele>242.33333333333331</ele><time>2026-03-29T09:55:46.07Z</time></trkpt><trkpt lat="42.8198235" lon="-8.3825135"><ele>241.0</ele><time>2026-03-29T09:55:47.07Z</time></trkpt><trkpt lat="42.8200226" lon="-8.382504"><ele>239.66666666666666</ele><time>2026-03-29T09:55:48.07Z</time></trkpt><trkpt lat="42.8202202" lon="-8.3824982"><ele>238.33333333333331</ele><time>2026-03-29T09:55:49.07Z</time></trkpt><trkpt lat="42.8204183" lon="-8.3825052"><ele>237.0</ele><time>2026-03-29T09:55:50.07Z</time></trkpt><trkpt lat="42.8206147" lon="-8.3825459"><ele>237.0</ele><time>2026-03-29T09:55:51.071Z</time></trkpt><trkpt lat="42.8208103" lon="-8.3826175"><ele>237.0</ele><time>2026-03-29T09:55:52.071Z</time></trkpt><trkpt lat="42.8210058" lon="-8.3827156"><ele>237.0</ele><time>2026-03-29T09:55:53.071Z</time></trkpt><trkpt lat="42.8211944" lon="-8.3828399"><ele>239.0</ele><time>2026-03-29T09:55:54.07Z</time></trkpt><trkpt lat="42.8213714" lon="-8.3829862"><ele>241.0</ele><time>2026-03-29T09:55:55.07Z</time></trkpt><trkpt lat="42.8215375" lon="-8.3831135"><ele>243.0</ele><time>2026-03-29T09:55:56.071Z</time></trkpt><trkpt lat="42.821706" lon="-8.383235"><ele>239.66666666666669</ele><time>2026-03-29T09:55:57.071Z</time></trkpt><trkpt lat="42.8218896" lon="-8.3832187"><ele>236.33333333333334</ele><time>2026-03-29T09:55:58.07Z</time></trkpt><trkpt lat="42.8220658" lon="-8.3831534"><ele>233.0</ele><time>2026-03-29T09:55:59.07Z</time></trkpt><trkpt lat="42.8222283" lon="-8.3830345"><ele>228.66666666666669</ele><time>2026-03-29T09:56:00.071Z</time></trkpt><trkpt lat="42.8223816" lon="-8.3828949"><ele>224.33333333333331</ele><time>2026-03-29T09:56:01.07Z</time></trkpt><trkpt lat="42.822535" lon="-8.3827953"><ele>220.0</ele><time>2026-03-29T09:56:02.071Z</time></trkpt><trkpt lat="42.8226849" lon="-8.3827602"><ele>217.0</ele><time>2026-03-29T09:56:03.071Z</time></trkpt><trkpt lat="42.8228385" lon="-8.3827473"><ele>214.0</ele><time>2026-03-29T09:56:04.07Z</time></trkpt><trkpt lat="42.8229792" lon="-8.3827738"><ele>211.0</ele><time>2026-03-29T09:56:05.07Z</time></trkpt><trkpt lat="42.8231502" lon="-8.3829443"><ele>210.33333333333331</ele><time>2026-03-29T09:56:06.07Z</time></trkpt><trkpt lat="42.8233395" lon="-8.3831306"><ele>209.66666666666669</ele><time>2026-03-29T09:56:07.07Z</time></trkpt><trkpt lat="42.8235062" lon="-8.3832805"><ele>209.0</ele><time>2026-03-29T09:56:08.07Z</time></trkpt><trkpt lat="42.8236477" lon="-8.3834605"><ele>209.0</ele><time>2026-03-29T09:56:09.071Z</time></trkpt><trkpt lat="42.8237776" lon="-8.3836396"><ele>209.0</ele><time>2026-03-29T09:56:10.071Z</time></trkpt><trkpt lat="42.8238717" lon="-8.3838436"><ele>209.0</ele><time>2026-03-29T09:56:11.071Z</time></trkpt><trkpt lat="42.8239334" lon="-8.3840631"><ele>210.75</ele><time>2026-03-29T09:56:12.07Z</time></trkpt><trkpt lat="42.8239644" lon="-8.3842729"><ele>212.5</ele><time>2026-03-29T09:56:13.071Z</time></trkpt><trkpt lat="42.8239837" lon="-8.384463"><ele>214.25</ele><time>2026-03-29T09:56:14.07Z</time></trkpt><trkpt lat="42.8240246" lon="-8.3846055"><ele>216.0</ele><time>2026-03-29T09:56:15.07Z</time></trkpt><trkpt lat="42.8241031" lon="-8.3847042"><ele>216.75</ele><time>2026-03-29T09:56:16.071Z</time></trkpt><trkpt lat="42.8242004" lon="-8.3847391"><ele>217.5</ele><time>2026-03-29T09:56:17.07Z</time></trkpt><trkpt lat="42.8243036" lon="-8.384698"><ele>218.25</ele><time>2026-03-29T09:56:18.07Z</time></trkpt><trkpt lat="42.824401" lon="-8.3845954"><ele>219.0</ele><time>2026-03-29T09:56:19.071Z</time></trkpt><trkpt lat="42.8244991" lon="-8.3844478"><ele>219.66666666666669</ele><time>2026-03-29T09:56:20.07Z</time></trkpt><trkpt lat="42.8246038" lon="-8.3842694"><ele>220.33333333333334</ele><time>2026-03-29T09:56:21.07Z</time></trkpt><trkpt lat="42.8247163" lon="-8.3840729"><ele>221.0</ele><time>2026-03-29T09:56:22.07Z</time></trkpt><trkpt lat="42.8248361" lon="-8.3838578"><ele>219.33333333333334</ele><time>2026-03-29T09:56:23.071Z</time></trkpt><trkpt lat="42.8249622" lon="-8.3836387"><ele>217.66666666666669</ele><time>2026-03-29T09:56:24.07Z</time></trkpt><trkpt lat="42.8250868" lon="-8.3834182"><ele>216.0</ele><time>2026-03-29T09:56:25.071Z</time></trkpt><trkpt lat="42.825204" lon="-8.3832198"><ele>216.0</ele><time>2026-03-29T09:56:26.07Z</time></trkpt><trkpt lat="42.8253119" lon="-8.3830362"><ele>216.0</ele><time>2026-03-29T09:56:27.071Z</time></trkpt><trkpt lat="42.8254168" lon="-8.3828745"><ele>216.0</ele><time>2026-03-29T09:56:28.07Z</time></trkpt><trkpt lat="42.8255273" lon="-8.3827306"><ele>215.5</ele><time>2026-03-29T09:56:29.071Z</time></trkpt><trkpt lat="42.8256401" lon="-8.3826427"><ele>215.0</ele><time>2026-03-29T09:56:30.07Z</time></trkpt><trkpt lat="42.8257609" lon="-8.3825834"><ele>214.5</ele><time>2026-03-29T09:56:31.071Z</time></trkpt><trkpt lat="42.8258804" lon="-8.3825857"><ele>214.0</ele><time>2026-03-29T09:56:32.07Z</time></trkpt><trkpt lat="42.8259911" lon="-8.382664"><ele>212.0</ele><time>2026-03-29T09:56:33.07Z</time></trkpt><trkpt lat="42.8260954" lon="-8.3828174"><ele>210.0</ele><time>2026-03-29T09:56:34.07Z</time></trkpt><trkpt lat="42.8262033" lon="-8.3830099"><ele>208.0</ele><time>2026-03-29T09:56:35.07Z</time></trkpt><trkpt lat="42.8263133" lon="-8.383208"><ele>208.0</ele><time>2026-03-29T09:56:36.07Z</time></trkpt><trkpt lat="42.826423" lon="-8.3833813"><ele>208.0</ele><time>2026-03-29T09:56:37.071Z</time></trkpt><trkpt lat="42.8265456" lon="-8.3835148"><ele>208.0</ele><time>2026-03-29T09:56:38.07Z</time></trkpt><trkpt lat="42.8266992" lon="-8.383584"><ele>207.0</ele><time>2026-03-29T09:56:39.07Z</time></trkpt><trkpt lat="42.8268744" lon="-8.3835869"><ele>206.0</ele><time>2026-03-29T09:56:40.07Z</time></trkpt><trkpt lat="42.8270629" lon="-8.383557"><ele>205.0</ele><time>2026-03-29T09:56:41.07Z</time></trkpt><trkpt lat="42.8272649" lon="-8.3835311"><ele>205.0</ele><time>2026-03-29T09:56:42.071Z</time></trkpt><trkpt lat="42.8274576" lon="-8.3835085"><ele>205.0</ele><time>2026-03-29T09:56:43.071Z</time></trkpt><trkpt lat="42.8276739" lon="-8.3835236"><ele>205.0</ele><time>2026-03-29T09:56:44.071Z</time></trkpt><trkpt lat="42.8278753" lon="-8.3835673"><ele>202.33333333333331</ele><time>2026-03-29T09:56:45.07Z</time></trkpt><trkpt lat="42.8280666" lon="-8.3836448"><ele>199.66666666666669</ele><time>2026-03-29T09:56:46.07Z</time></trkpt><trkpt lat="42.8282443" lon="-8.3837156"><ele>197.0</ele><time>2026-03-29T09:56:47.07Z</time></trkpt><trkpt lat="42.828411" lon="-8.3837778"><ele>196.0</ele><time>2026-03-29T09:56:48.07Z</time></trkpt><trkpt lat="42.8285528" lon="-8.3838429"><ele>195.0</ele><time>2026-03-29T09:56:49.071Z</time></trkpt><trkpt lat="42.8286989" lon="-8.3839315"><ele>194.0</ele><time>2026-03-29T09:56:50.07Z</time></trkpt><trkpt lat="42.8287776" lon="-8.3840388"><ele>193.0</ele><time>2026-03-29T09:56:51.07Z</time></trkpt><trkpt lat="42.8288113" lon="-8.384218"><ele>193.0</ele><time>2026-03-29T09:56:52.071Z</time></trkpt><trkpt lat="42.8288247" lon="-8.3843975"><ele>193.0</ele><time>2026-03-29T09:56:53.07Z</time></trkpt><trkpt lat="42.8288323" lon="-8.3845656"><ele>193.0</ele><time>2026-03-29T09:56:54.07Z</time></trkpt><trkpt lat="42.8288635" lon="-8.3847005"><ele>193.0</ele><time>2026-03-29T09:56:55.071Z</time></trkpt><trkpt lat="42.8289368" lon="-8.3847694"><ele>193.0</ele><time>2026-03-29T09:56:56.071Z</time></trkpt><trkpt lat="42.8290271" lon="-8.3847785"><ele>193.0</ele><time>2026-03-29T09:56:57.071Z</time></trkpt><trkpt lat="42.8291448" lon="-8.384729"><ele>193.0</ele><time>2026-03-29T09:56:58.071Z</time></trkpt><trkpt lat="42.829282" lon="-8.3846402"><ele>193.0</ele><time>2026-03-29T09:56:59.071Z</time></trkpt><trkpt lat="42.8294334" lon="-8.3845284"><ele>193.0</ele><time>2026-03-29T09:57:00.071Z</time></trkpt><trkpt lat="42.8295782" lon="-8.3843849"><ele>193.66666666666666</ele><time>2026-03-29T09:57:01.07Z</time></trkpt><trkpt lat="42.829709" lon="-8.3842176"><ele>194.33333333333331</ele><time>2026-03-29T09:57:02.071Z</time></trkpt><trkpt lat="42.8298176" lon="-8.3840577"><ele>195.0</ele><time>2026-03-29T09:57:03.07Z</time></trkpt><trkpt lat="42.829945" lon="-8.3839312"><ele>190.0</ele><time>2026-03-29T09:57:04.071Z</time></trkpt><trkpt lat="42.8301018" lon="-8.3838436"><ele>185.0</ele><time>2026-03-29T09:57:05.07Z</time></trkpt><trkpt lat="42.8302724" lon="-8.3837799"><ele>180.0</ele><time>2026-03-29T09:57:06.071Z</time></trkpt><trkpt lat="42.8304338" lon="-8.3837411"><ele>178.66666666666666</ele><time>2026-03-29T09:57:07.071Z</time></trkpt><trkpt lat="42.8305938" lon="-8.3837359"><ele>177.33333333333331</ele><time>2026-03-29T09:57:08.07Z</time></trkpt><trkpt lat="42.8307506" lon="-8.3837412"><ele>176.0</ele><time>2026-03-29T09:57:09.071Z</time></trkpt><trkpt lat="42.8308879" lon="-8.3837802"><ele>172.66666666666666</ele><time>2026-03-29T09:57:10.07Z</time></trkpt><trkpt lat="42.8310292" lon="-8.3839077"><ele>169.33333333333334</ele><time>2026-03-29T09:57:11.07Z</time></trkpt><trkpt lat="42.8310929" lon="-8.3842368"><ele>166.0</ele><time>2026-03-29T09:57:12.07Z</time></trkpt><trkpt lat="42.8311677" lon="-8.3844997"><ele>167.0</ele><time>2026-03-29T09:57:13.071Z</time></trkpt><trkpt lat="42.831224" lon="-8.38478"><ele>168.0</ele><time>2026-03-29T09:57:14.07Z</time></trkpt><trkpt lat="42.8312819" lon="-8.3850238"><ele>169.0</ele><time>2026-03-29T09:57:15.07Z</time></trkpt><trkpt lat="42.831368" lon="-8.3852308"><ele>169.0</ele><time>2026-03-29T09:57:16.07Z</time></trkpt><trkpt lat="42.8314925" lon="-8.3854046"><ele>169.0</ele><time>2026-03-29T09:57:17.07Z</time></trkpt><trkpt lat="42.8316447" lon="-8.3855578"><ele>169.0</ele><time>2026-03-29T09:57:18.07Z</time></trkpt><trkpt lat="42.8318063" lon="-8.385712"><ele>168.33333333333334</ele><time>2026-03-29T09:57:19.071Z</time></trkpt><trkpt lat="42.8319476" lon="-8.3858647"><ele>167.66666666666666</ele><time>2026-03-29T09:57:20.071Z</time></trkpt><trkpt lat="42.8320768" lon="-8.3859929"><ele>167.0</ele><time>2026-03-29T09:57:21.07Z</time></trkpt><trkpt lat="42.8321938" lon="-8.3860792"><ele>167.0</ele><time>2026-03-29T09:57:22.07Z</time></trkpt><trkpt lat="42.8323132" lon="-8.3861062"><ele>167.0</ele><time>2026-03-29T09:57:23.071Z</time></trkpt><trkpt lat="42.8324273" lon="-8.3861338"><ele>167.0</ele><time>2026-03-29T09:57:24.07Z</time></trkpt><trkpt lat="42.8325403" lon="-8.3860712"><ele>167.0</ele><time>2026-03-29T09:57:25.07Z</time></trkpt><trkpt lat="42.8326584" lon="-8.3860743"><ele>169.25</ele><time>2026-03-29T09:57:26.071Z</time></trkpt><trkpt lat="42.8327795" lon="-8.3861042"><ele>171.5</ele><time>2026-03-29T09:57:27.07Z</time></trkpt><trkpt lat="42.832885" lon="-8.3862611"><ele>173.75</ele><time>2026-03-29T09:57:28.07Z</time></trkpt><trkpt lat="42.8330011" lon="-8.3864079"><ele>176.0</ele><time>2026-03-29T09:57:29.071Z</time></trkpt><trkpt lat="42.8331297" lon="-8.3865695"><ele>176.0</ele><time>2026-03-29T09:57:30.07Z</time></trkpt><trkpt lat="42.8332634" lon="-8.3867437"><ele>176.0</ele><time>2026-03-29T09:57:31.07Z</time></trkpt><trkpt lat="42.833403" lon="-8.3869234"><ele>176.0</ele><time>2026-03-29T09:57:32.07Z</time></trkpt><trkpt lat="42.83353" lon="-8.3870962"><ele>179.0</ele><time>2026-03-29T09:57:33.071Z</time></trkpt><trkpt lat="42.8336388" lon="-8.3872556"><ele>182.0</ele><time>2026-03-29T09:57:34.07Z</time></trkpt><trkpt lat="42.8337724" lon="-8.3873732"><ele>185.0</ele><time>2026-03-29T09:57:35.07Z</time></trkpt><trkpt lat="42.8339302" lon="-8.3874394"><ele>185.0</ele><time>2026-03-29T09:57:36.071Z</time></trkpt><trkpt lat="42.8341056" lon="-8.387447"><ele>185.0</ele><time>2026-03-29T09:57:37.07Z</time></trkpt><trkpt lat="42.8342756" lon="-8.3874206"><ele>185.0</ele><time>2026-03-29T09:57:38.071Z</time></trkpt><trkpt lat="42.8344467" lon="-8.3873882"><ele>185.0</ele><time>2026-03-29T09:57:39.071Z</time></trkpt><trkpt lat="42.8346047" lon="-8.3872615"><ele>185.0</ele><time>2026-03-29T09:57:40.071Z</time></trkpt><trkpt lat="42.8347763" lon="-8.3871533"><ele>185.0</ele><time>2026-03-29T09:57:41.071Z</time></trkpt><trkpt lat="42.8349303" lon="-8.3869239"><ele>188.5</ele><time>2026-03-29T09:57:42.071Z</time></trkpt><trkpt lat="42.8350942" lon="-8.3867167"><ele>192.0</ele><time>2026-03-29T09:57:43.07Z</time></trkpt><trkpt lat="42.8352693" lon="-8.3865065"><ele>193.0</ele><time>2026-03-29T09:57:44.07Z</time></trkpt><trkpt lat="42.8354403" lon="-8.3863127"><ele>194.0</ele><time>2026-03-29T09:57:45.07Z</time></trkpt><trkpt lat="42.8355998" lon="-8.3861293"><ele>195.0</ele><time>2026-03-29T09:57:46.071Z</time></trkpt><trkpt lat="42.835747" lon="-8.3859578"><ele>195.0</ele><time>2026-03-29T09:57:47.07Z</time></trkpt><trkpt lat="42.8358866" lon="-8.385805"><ele>195.0</ele><time>2026-03-29T09:57:48.07Z</time></trkpt><trkpt lat="42.8360337" lon="-8.3856824"><ele>195.0</ele><time>2026-03-29T09:57:49.07Z</time></trkpt><trkpt lat="42.8362001" lon="-8.3855901"><ele>196.33333333333331</ele><time>2026-03-29T09:57:50.071Z</time></trkpt><trkpt lat="42.8363858" lon="-8.3855179"><ele>197.66666666666666</ele><time>2026-03-29T09:57:51.07Z</time></trkpt><trkpt lat="42.8365819" lon="-8.3854565"><ele>199.0</ele><time>2026-03-29T09:57:52.07Z</time></trkpt><trkpt lat="42.8367888" lon="-8.3854054"><ele>201.0</ele><time>2026-03-29T09:57:53.071Z</time></trkpt><trkpt lat="42.8369967" lon="-8.3853585"><ele>203.0</ele><time>2026-03-29T09:57:54.07Z</time></trkpt><trkpt lat="42.8371994" lon="-8.3853057"><ele>205.0</ele><time>2026-03-29T09:57:55.07Z</time></trkpt><trkpt lat="42.837406" lon="-8.3852589"><ele>205.0</ele><time>2026-03-29T09:57:56.071Z</time></trkpt><trkpt lat="42.8376131" lon="-8.3852105"><ele>205.0</ele><time>2026-03-29T09:57:57.071Z</time></trkpt><trkpt lat="42.8378168" lon="-8.3851614"><ele>205.0</ele><time>2026-03-29T09:57:58.07Z</time></trkpt><trkpt lat="42.8380199" lon="-8.3851126"><ele>207.33333333333331</ele><time>2026-03-29T09:57:59.07Z</time></trkpt><trkpt lat="42.8382224" lon="-8.3850631"><ele>209.66666666666669</ele><time>2026-03-29T09:58:00.071Z</time></trkpt><trkpt lat="42.8384207" lon="-8.3850112"><ele>212.0</ele><time>2026-03-29T09:58:01.07Z</time></trkpt><trkpt lat="42.8386177" lon="-8.3849606"><ele>213.66666666666669</ele><time>2026-03-29T09:58:02.07Z</time></trkpt><trkpt lat="42.8388152" lon="-8.3849115"><ele>215.33333333333331</ele><time>2026-03-29T09:58:03.071Z</time></trkpt><trkpt lat="42.8390048" lon="-8.3848638"><ele>217.0</ele><time>2026-03-29T09:58:04.07Z</time></trkpt><trkpt lat="42.8391809" lon="-8.3848187"><ele>215.33333333333331</ele><time>2026-03-29T09:58:05.07Z</time></trkpt><trkpt lat="42.8393427" lon="-8.3847795"><ele>213.66666666666669</ele><time>2026-03-29T09:58:06.07Z</time></trkpt><trkpt lat="42.8394984" lon="-8.3847659"><ele>212.0</ele><time>2026-03-29T09:58:07.071Z</time></trkpt><trkpt lat="42.8396433" lon="-8.3847761"><ele>212.0</ele><time>2026-03-29T09:58:08.07Z</time></trkpt><trkpt lat="42.8397661" lon="-8.3848025"><ele>212.0</ele><time>2026-03-29T09:58:09.07Z</time></trkpt><trkpt lat="42.8398733" lon="-8.3848062"><ele>212.0</ele><time>2026-03-29T09:58:10.07Z</time></trkpt><trkpt lat="42.8399681" lon="-8.3847552"><ele>212.0</ele><time>2026-03-29T09:58:11.071Z</time></trkpt><trkpt lat="42.8400337" lon="-8.3846523"><ele>212.0</ele><time>2026-03-29T09:58:12.07Z</time></trkpt><trkpt lat="42.840055" lon="-8.3844968"><ele>210.33333333333334</ele><time>2026-03-29T09:58:13.07Z</time></trkpt><trkpt lat="42.8400533" lon="-8.3843051"><ele>208.66666666666669</ele><time>2026-03-29T09:58:14.07Z</time></trkpt><trkpt lat="42.8400672" lon="-8.3840888"><ele>207.0</ele><time>2026-03-29T09:58:15.071Z</time></trkpt><trkpt lat="42.8401063" lon="-8.3838538"><ele>203.66666666666669</ele><time>2026-03-29T09:58:16.071Z</time></trkpt><trkpt lat="42.8401534" lon="-8.3836045"><ele>200.33333333333334</ele><time>2026-03-29T09:58:17.071Z</time></trkpt><trkpt lat="42.8401985" lon="-8.3833731"><ele>197.0</ele><time>2026-03-29T09:58:18.07Z</time></trkpt><trkpt lat="42.8402389" lon="-8.3831523"><ele>197.0</ele><time>2026-03-29T09:58:19.07Z</time></trkpt><trkpt lat="42.8402779" lon="-8.3829514"><ele>197.0</ele><time>2026-03-29T09:58:20.07Z</time></trkpt><trkpt lat="42.8403411" lon="-8.3827789"><ele>197.0</ele><time>2026-03-29T09:58:21.07Z</time></trkpt><trkpt lat="42.8404433" lon="-8.3826448"><ele>197.0</ele><time>2026-03-29T09:58:22.07Z</time></trkpt><trkpt lat="42.8405521" lon="-8.382527"><ele>197.0</ele><time>2026-03-29T09:58:23.07Z</time></trkpt><trkpt lat="42.8407181" lon="-8.3824441"><ele>197.0</ele><time>2026-03-29T09:58:24.07Z</time></trkpt><trkpt lat="42.8408841" lon="-8.3823833"><ele>197.0</ele><time>2026-03-29T09:58:25.07Z</time></trkpt><trkpt lat="42.8410564" lon="-8.3823365"><ele>197.66666666666669</ele><time>2026-03-29T09:58:26.07Z</time></trkpt><trkpt lat="42.8412123" lon="-8.3823187"><ele>198.33333333333331</ele><time>2026-03-29T09:58:27.07Z</time></trkpt><trkpt lat="42.8413588" lon="-8.3822676"><ele>199.0</ele><time>2026-03-29T09:58:28.07Z</time></trkpt><trkpt lat="42.8414905" lon="-8.3821691"><ele>200.0</ele><time>2026-03-29T09:58:29.07Z</time></trkpt><trkpt lat="42.8416185" lon="-8.3820304"><ele>201.0</ele><time>2026-03-29T09:58:30.071Z</time></trkpt><trkpt lat="42.8417476" lon="-8.3818648"><ele>202.0</ele><time>2026-03-29T09:58:31.071Z</time></trkpt><trkpt lat="42.8418864" lon="-8.381686"><ele>202.33333333333331</ele><time>2026-03-29T09:58:32.07Z</time></trkpt><trkpt lat="42.8420299" lon="-8.3814932"><ele>202.66666666666669</ele><time>2026-03-29T09:58:33.07Z</time></trkpt><trkpt lat="42.8421793" lon="-8.3812977"><ele>203.0</ele><time>2026-03-29T09:58:34.07Z</time></trkpt><trkpt lat="42.8423269" lon="-8.3811028"><ele>203.66666666666669</ele><time>2026-03-29T09:58:35.071Z</time></trkpt><trkpt lat="42.8424792" lon="-8.3809071"><ele>204.33333333333331</ele><time>2026-03-29T09:58:36.071Z</time></trkpt><trkpt lat="42.8426337" lon="-8.3807056"><ele>205.0</ele><time>2026-03-29T09:58:37.071Z</time></trkpt><trkpt lat="42.8427885" lon="-8.3805011"><ele>209.0</ele><time>2026-03-29T09:58:38.07Z</time></trkpt><trkpt lat="42.8429345" lon="-8.3802855"><ele>213.0</ele><time>2026-03-29T09:58:39.07Z</time></trkpt><trkpt lat="42.8430521" lon="-8.3800428"><ele>217.0</ele><time>2026-03-29T09:58:40.07Z</time></trkpt><trkpt lat="42.8431258" lon="-8.379774"><ele>219.33333333333331</ele><time>2026-03-29T09:58:41.07Z</time></trkpt><trkpt lat="42.843158" lon="-8.3794925"><ele>221.66666666666669</ele><time>2026-03-29T09:58:42.071Z</time></trkpt><trkpt lat="42.8431827" lon="-8.3792081"><ele>224.0</ele><time>2026-03-29T09:58:43.07Z</time></trkpt><trkpt lat="42.8432262" lon="-8.3789214"><ele>222.33333333333334</ele><time>2026-03-29T09:58:44.07Z</time></trkpt><trkpt lat="42.8432903" lon="-8.378636"><ele>220.66666666666669</ele><time>2026-03-29T09:58:45.07Z</time></trkpt><trkpt lat="42.843368" lon="-8.3783504"><ele>219.0</ele><time>2026-03-29T09:58:46.071Z</time></trkpt><trkpt lat="42.8434617" lon="-8.3780701"><ele>225.33333333333331</ele><time>2026-03-29T09:58:47.07Z</time></trkpt><trkpt lat="42.84356" lon="-8.3778032"><ele>231.66666666666666</ele><time>2026-03-29T09:58:48.071Z</time></trkpt><trkpt lat="42.8436352" lon="-8.3775363"><ele>238.0</ele><time>2026-03-29T09:58:49.07Z</time></trkpt><trkpt lat="42.8436795" lon="-8.3772567"><ele>238.33333333333331</ele><time>2026-03-29T09:58:50.07Z</time></trkpt><trkpt lat="42.8436891" lon="-8.3769829"><ele>238.66666666666669</ele><time>2026-03-29T09:58:51.07Z</time></trkpt><trkpt lat="42.8436542" lon="-8.3767122"><ele>239.0</ele><time>2026-03-29T09:58:52.07Z</time></trkpt><trkpt lat="42.8435991" lon="-8.3764335"><ele>238.33333333333334</ele><time>2026-03-29T09:58:53.07Z</time></trkpt><trkpt lat="42.8435361" lon="-8.3761472"><ele>237.66666666666669</ele><time>2026-03-29T09:58:54.071Z</time></trkpt><trkpt lat="42.8434743" lon="-8.3758513"><ele>237.0</ele><time>2026-03-29T09:58:55.07Z</time></trkpt><trkpt lat="42.8434125" lon="-8.3755563"><ele>236.0</ele><time>2026-03-29T09:58:56.07Z</time></trkpt><trkpt lat="42.8433521" lon="-8.3752712"><ele>235.0</ele><time>2026-03-29T09:58:57.071Z</time></trkpt><trkpt lat="42.8432988" lon="-8.3750056"><ele>234.0</ele><time>2026-03-29T09:58:58.07Z</time></trkpt><trkpt lat="42.84326" lon="-8.3747568"><ele>235.0</ele><time>2026-03-29T09:58:59.07Z</time></trkpt><trkpt lat="42.8432338" lon="-8.374519"><ele>236.0</ele><time>2026-03-29T09:59:00.07Z</time></trkpt><trkpt lat="42.8432251" lon="-8.3742793"><ele>237.0</ele><time>2026-03-29T09:59:01.07Z</time></trkpt><trkpt lat="42.8432341" lon="-8.3740304"><ele>238.0</ele><time>2026-03-29T09:59:02.071Z</time></trkpt><trkpt lat="42.8432479" lon="-8.3737734"><ele>239.0</ele><time>2026-03-29T09:59:03.071Z</time></trkpt><trkpt lat="42.8432625" lon="-8.3735077"><ele>240.0</ele><time>2026-03-29T09:59:04.07Z</time></trkpt><trkpt lat="42.8432783" lon="-8.3732536"><ele>239.33333333333331</ele><time>2026-03-29T09:59:05.07Z</time></trkpt><trkpt lat="42.8432989" lon="-8.3730137"><ele>238.66666666666666</ele><time>2026-03-29T09:59:06.07Z</time></trkpt><trkpt lat="42.8433308" lon="-8.3727988"><ele>238.0</ele><time>2026-03-29T09:59:07.07Z</time></trkpt><trkpt lat="42.8433954" lon="-8.3725996"><ele>241.0</ele><time>2026-03-29T09:59:08.071Z</time></trkpt><trkpt lat="42.8434968" lon="-8.372429"><ele>244.0</ele><time>2026-03-29T09:59:09.07Z</time></trkpt><trkpt lat="42.8436359" lon="-8.3723047"><ele>247.0</ele><time>2026-03-29T09:59:10.07Z</time></trkpt><trkpt lat="42.8438029" lon="-8.3722325"><ele>247.0</ele><time>2026-03-29T09:59:11.07Z</time></trkpt><trkpt lat="42.8439842" lon="-8.3722026"><ele>247.0</ele><time>2026-03-29T09:59:12.071Z</time></trkpt><trkpt lat="42.8441757" lon="-8.3722133"><ele>247.0</ele><time>2026-03-29T09:59:13.07Z</time></trkpt><trkpt lat="42.8443691" lon="-8.3722721"><ele>242.66666666666666</ele><time>2026-03-29T09:59:14.07Z</time></trkpt><trkpt lat="42.8445589" lon="-8.3723598"><ele>238.33333333333331</ele><time>2026-03-29T09:59:15.071Z</time></trkpt><trkpt lat="42.8447491" lon="-8.3724651"><ele>234.0</ele><time>2026-03-29T09:59:16.071Z</time></trkpt><trkpt lat="42.8449389" lon="-8.37258"><ele>232.0</ele><time>2026-03-29T09:59:17.07Z</time></trkpt><trkpt lat="42.8451316" lon="-8.3727003"><ele>230.0</ele><time>2026-03-29T09:59:18.07Z</time></trkpt><trkpt lat="42.8453299" lon="-8.372821"><ele>228.0</ele><time>2026-03-29T09:59:19.07Z</time></trkpt><trkpt lat="42.845525" lon="-8.3729472"><ele>228.66666666666669</ele><time>2026-03-29T09:59:20.071Z</time></trkpt><trkpt lat="42.8457162" lon="-8.3730825"><ele>229.33333333333334</ele><time>2026-03-29T09:59:21.071Z</time></trkpt><trkpt lat="42.845894" lon="-8.3732593"><ele>230.0</ele><time>2026-03-29T09:59:22.071Z</time></trkpt><trkpt lat="42.8460497" lon="-8.3734463"><ele>229.66666666666669</ele><time>2026-03-29T09:59:23.07Z</time></trkpt><trkpt lat="42.8462064" lon="-8.3736219"><ele>229.33333333333331</ele><time>2026-03-29T09:59:24.07Z</time></trkpt><trkpt lat="42.8463629" lon="-8.3737773"><ele>229.0</ele><time>2026-03-29T09:59:25.07Z</time></trkpt><trkpt lat="42.846548" lon="-8.3738915"><ele>229.0</ele><time>2026-03-29T09:59:26.071Z</time></trkpt><trkpt lat="42.8467434" lon="-8.3739643"><ele>229.0</ele><time>2026-03-29T09:59:27.07Z</time></trkpt><trkpt lat="42.8469519" lon="-8.374016"><ele>229.0</ele><time>2026-03-29T09:59:28.071Z</time></trkpt><trkpt lat="42.8471588" lon="-8.3740594"><ele>228.66666666666666</ele><time>2026-03-29T09:59:29.07Z</time></trkpt><trkpt lat="42.847353" lon="-8.3741041"><ele>228.33333333333331</ele><time>2026-03-29T09:59:30.07Z</time></trkpt><trkpt lat="42.8475376" lon="-8.374145"><ele>228.0</ele><time>2026-03-29T09:59:31.071Z</time></trkpt><trkpt lat="42.8477001" lon="-8.3741867"><ele>228.0</ele><time>2026-03-29T09:59:32.07Z</time></trkpt><trkpt lat="42.847837" lon="-8.3742126"><ele>228.0</ele><time>2026-03-29T09:59:33.07Z</time></trkpt><trkpt lat="42.8479635" lon="-8.3741913"><ele>228.0</ele><time>2026-03-29T09:59:34.07Z</time></trkpt><trkpt lat="42.848092" lon="-8.3741455"><ele>228.0</ele><time>2026-03-29T09:59:35.071Z</time></trkpt><trkpt lat="42.8482043" lon="-8.3740477"><ele>228.0</ele><time>2026-03-29T09:59:36.071Z</time></trkpt><trkpt lat="42.8483011" lon="-8.3739048"><ele>228.0</ele><time>2026-03-29T09:59:37.071Z</time></trkpt><trkpt lat="42.8483102" lon="-8.3737056"><ele>228.0</ele><time>2026-03-29T09:59:38.071Z</time></trkpt><trkpt lat="42.848275" lon="-8.3733546"><ele>227.66666666666669</ele><time>2026-03-29T09:59:39.07Z</time></trkpt><trkpt lat="42.8483436" lon="-8.3731119"><ele>227.33333333333334</ele><time>2026-03-29T09:59:40.071Z</time></trkpt><trkpt lat="42.8484563" lon="-8.3728812"><ele>227.0</ele><time>2026-03-29T09:59:41.071Z</time></trkpt><trkpt lat="42.8485623" lon="-8.3726418"><ele>229.0</ele><time>2026-03-29T09:59:42.071Z</time></trkpt><trkpt lat="42.8486423" lon="-8.3723577"><ele>231.0</ele><time>2026-03-29T09:59:43.071Z</time></trkpt><trkpt lat="42.8486984" lon="-8.3720658"><ele>233.0</ele><time>2026-03-29T09:59:44.07Z</time></trkpt><trkpt lat="42.8487653" lon="-8.3717848"><ele>228.0</ele><time>2026-03-29T09:59:45.071Z</time></trkpt><trkpt lat="42.8488391" lon="-8.3715381"><ele>223.0</ele><time>2026-03-29T09:59:46.071Z</time></trkpt><trkpt lat="42.8489372" lon="-8.3713152"><ele>218.0</ele><time>2026-03-29T09:59:47.07Z</time></trkpt><trkpt lat="42.8490621" lon="-8.3711307"><ele>216.0</ele><time>2026-03-29T09:59:48.071Z</time></trkpt><trkpt lat="42.8492191" lon="-8.3709737"><ele>214.0</ele><time>2026-03-29T09:59:49.07Z</time></trkpt><trkpt lat="42.8493948" lon="-8.3708469"><ele>212.0</ele><time>2026-03-29T09:59:50.071Z</time></trkpt><trkpt lat="42.8495724" lon="-8.3707362"><ele>212.0</ele><time>2026-03-29T09:59:51.07Z</time></trkpt><trkpt lat="42.8497696" lon="-8.3707082"><ele>212.0</ele><time>2026-03-29T09:59:52.07Z</time></trkpt><trkpt lat="42.8499597" lon="-8.3706701"><ele>212.0</ele><time>2026-03-29T09:59:53.071Z</time></trkpt><trkpt lat="42.850158" lon="-8.3707409"><ele>204.33333333333334</ele><time>2026-03-29T09:59:54.07Z</time></trkpt><trkpt lat="42.8503444" lon="-8.3708188"><ele>196.66666666666669</ele><time>2026-03-29T09:59:55.071Z</time></trkpt><trkpt lat="42.8505199" lon="-8.3709057"><ele>189.0</ele><time>2026-03-29T09:59:56.07Z</time></trkpt><trkpt lat="42.8506888" lon="-8.3709964"><ele>189.0</ele><time>2026-03-29T09:59:57.07Z</time></trkpt><trkpt lat="42.8508563" lon="-8.3710689"><ele>189.0</ele><time>2026-03-29T09:59:58.071Z</time></trkpt><trkpt lat="42.8510214" lon="-8.3711568"><ele>189.0</ele><time>2026-03-29T09:59:59.07Z</time></trkpt><trkpt lat="42.8511758" lon="-8.3712614"><ele>188.0</ele><time>2026-03-29T10:00:00.071Z</time></trkpt><trkpt lat="42.851316" lon="-8.3714313"><ele>187.0</ele><time>2026-03-29T10:00:01.07Z</time></trkpt><trkpt lat="42.8514557" lon="-8.3715885"><ele>186.0</ele><time>2026-03-29T10:00:02.071Z</time></trkpt><trkpt lat="42.8515735" lon="-8.3717654"><ele>186.0</ele><time>2026-03-29T10:00:03.07Z</time></trkpt><trkpt lat="42.8516485" lon="-8.3719975"><ele>186.0</ele><time>2026-03-29T10:00:04.07Z</time></trkpt><trkpt lat="42.8516768" lon="-8.3722236"><ele>186.0</ele><time>2026-03-29T10:00:05.07Z</time></trkpt><trkpt lat="42.8517245" lon="-8.3724017"><ele>188.8</ele><time>2026-03-29T10:00:06.07Z</time></trkpt><trkpt lat="42.8517846" lon="-8.3725356"><ele>191.60000000000002</ele><time>2026-03-29T10:00:07.07Z</time></trkpt><trkpt lat="42.8518599" lon="-8.372626"><ele>194.4</ele><time>2026-03-29T10:00:08.071Z</time></trkpt><trkpt lat="42.8519369" lon="-8.3726592"><ele>197.2</ele><time>2026-03-29T10:00:09.071Z</time></trkpt><trkpt lat="42.8520163" lon="-8.3726248"><ele>200.0</ele><time>2026-03-29T10:00:10.071Z</time></trkpt><trkpt lat="42.8520526" lon="-8.3725076"><ele>200.0</ele><time>2026-03-29T10:00:11.07Z</time></trkpt><trkpt lat="42.8520629" lon="-8.3723574"><ele>200.0</ele><time>2026-03-29T10:00:12.07Z</time></trkpt><trkpt lat="42.8520806" lon="-8.3721853"><ele>200.0</ele><time>2026-03-29T10:00:13.07Z</time></trkpt><trkpt lat="42.8521509" lon="-8.3719984"><ele>200.0</ele><time>2026-03-29T10:00:14.07Z</time></trkpt><trkpt lat="42.8522397" lon="-8.3718239"><ele>198.0</ele><time>2026-03-29T10:00:15.07Z</time></trkpt><trkpt lat="42.852361" lon="-8.3716427"><ele>196.0</ele><time>2026-03-29T10:00:16.071Z</time></trkpt><trkpt lat="42.8524779" lon="-8.3714732"><ele>194.0</ele><time>2026-03-29T10:00:17.071Z</time></trkpt><trkpt lat="42.8525273" lon="-8.3712556"><ele>190.66666666666669</ele><time>2026-03-29T10:00:18.071Z</time></trkpt><trkpt lat="42.8525723" lon="-8.3710174"><ele>187.33333333333334</ele><time>2026-03-29T10:00:19.07Z</time></trkpt><trkpt lat="42.8524526" lon="-8.3707931"><ele>184.0</ele><time>2026-03-29T10:00:20.07Z</time></trkpt><trkpt lat="42.8523687" lon="-8.3705686"><ele>183.66666666666669</ele><time>2026-03-29T10:00:21.07Z</time></trkpt><trkpt lat="42.852289" lon="-8.3703396"><ele>183.33333333333334</ele><time>2026-03-29T10:00:22.07Z</time></trkpt><trkpt lat="42.8522255" lon="-8.370114"><ele>183.0</ele><time>2026-03-29T10:00:23.07Z</time></trkpt><trkpt lat="42.8521564" lon="-8.3698946"><ele>179.33333333333334</ele><time>2026-03-29T10:00:24.07Z</time></trkpt><trkpt lat="42.8521146" lon="-8.3696919"><ele>175.66666666666669</ele><time>2026-03-29T10:00:25.07Z</time></trkpt><trkpt lat="42.8521538" lon="-8.3694925"><ele>172.0</ele><time>2026-03-29T10:00:26.071Z</time></trkpt><trkpt lat="42.8522028" lon="-8.3692872"><ele>172.0</ele><time>2026-03-29T10:00:27.071Z</time></trkpt><trkpt lat="42.8522931" lon="-8.3690852"><ele>172.0</ele><time>2026-03-29T10:00:28.071Z</time></trkpt><trkpt lat="42.8524006" lon="-8.3688865"><ele>172.0</ele><time>2026-03-29T10:00:29.071Z</time></trkpt><trkpt lat="42.8525457" lon="-8.3687058"><ele>165.0</ele><time>2026-03-29T10:00:30.071Z</time></trkpt><trkpt lat="42.8527896" lon="-8.3685806"><ele>158.0</ele><time>2026-03-29T10:00:31.07Z</time></trkpt><trkpt lat="42.8529969" lon="-8.3684399"><ele>158.0</ele><time>2026-03-29T10:00:32.07Z</time></trkpt><trkpt lat="42.8531983" lon="-8.3682771"><ele>158.0</ele><time>2026-03-29T10:00:33.071Z</time></trkpt><trkpt lat="42.8534081" lon="-8.3681378"><ele>158.5</ele><time>2026-03-29T10:00:34.07Z</time></trkpt><trkpt lat="42.8536159" lon="-8.3680324"><ele>159.0</ele><time>2026-03-29T10:00:35.07Z</time></trkpt><trkpt lat="42.8538344" lon="-8.3679425"><ele>152.0</ele><time>2026-03-29T10:00:36.071Z</time></trkpt><trkpt lat="42.8540593" lon="-8.3678556"><ele>145.0</ele><time>2026-03-29T10:00:37.07Z</time></trkpt><trkpt lat="42.8542715" lon="-8.3677847"><ele>145.0</ele><time>2026-03-29T10:00:38.07Z</time></trkpt><trkpt lat="42.8544755" lon="-8.3677362"><ele>145.0</ele><time>2026-03-29T10:00:39.07Z</time></trkpt><trkpt lat="42.8546656" lon="-8.3677031"><ele>145.0</ele><time>2026-03-29T10:00:40.07Z</time></trkpt><trkpt lat="42.8548524" lon="-8.3676844"><ele>145.0</ele><time>2026-03-29T10:00:41.07Z</time></trkpt><trkpt lat="42.8550328" lon="-8.3677817"><ele>145.0</ele><time>2026-03-29T10:00:42.07Z</time></trkpt><trkpt lat="42.8551991" lon="-8.3678448"><ele>145.0</ele><time>2026-03-29T10:00:43.071Z</time></trkpt><trkpt lat="42.8553606" lon="-8.3678179"><ele>145.66666666666669</ele><time>2026-03-29T10:00:44.071Z</time></trkpt><trkpt lat="42.8555301" lon="-8.367804"><ele>146.33333333333334</ele><time>2026-03-29T10:00:45.071Z</time></trkpt><trkpt lat="42.8556839" lon="-8.3677621"><ele>147.0</ele><time>2026-03-29T10:00:46.07Z</time></trkpt><trkpt lat="42.8558454" lon="-8.3676881"><ele>148.5</ele><time>2026-03-29T10:00:47.071Z</time></trkpt><trkpt lat="42.8559927" lon="-8.3676236"><ele>150.0</ele><time>2026-03-29T10:00:48.071Z</time></trkpt><trkpt lat="42.8561164" lon="-8.3675106"><ele>151.5</ele><time>2026-03-29T10:00:49.07Z</time></trkpt><trkpt lat="42.8562014" lon="-8.36735"><ele>153.0</ele><time>2026-03-29T10:00:50.07Z</time></trkpt><trkpt lat="42.8562908" lon="-8.3671904"><ele>153.0</ele><time>2026-03-29T10:00:51.07Z</time></trkpt><trkpt lat="42.8564176" lon="-8.3670371"><ele>153.0</ele><time>2026-03-29T10:00:52.07Z</time></trkpt><trkpt lat="42.8565688" lon="-8.3668824"><ele>153.0</ele><time>2026-03-29T10:00:53.071Z</time></trkpt><trkpt lat="42.856754" lon="-8.3667188"><ele>154.33333333333334</ele><time>2026-03-29T10:00:54.07Z</time></trkpt><trkpt lat="42.8569295" lon="-8.3665701"><ele>155.66666666666669</ele><time>2026-03-29T10:00:55.07Z</time></trkpt><trkpt lat="42.8571124" lon="-8.3664574"><ele>157.0</ele><time>2026-03-29T10:00:56.07Z</time></trkpt><trkpt lat="42.8572916" lon="-8.3663665"><ele>156.5</ele><time>2026-03-29T10:00:57.071Z</time></trkpt><trkpt lat="42.8574917" lon="-8.3662989"><ele>156.0</ele><time>2026-03-29T10:00:58.07Z</time></trkpt><trkpt lat="42.8578043" lon="-8.3663664"><ele>156.0</ele><time>2026-03-29T10:00:59.071Z</time></trkpt><trkpt lat="42.8580738" lon="-8.3663647"><ele>156.0</ele><time>2026-03-29T10:01:00.07Z</time></trkpt><trkpt lat="42.8583446" lon="-8.3663261"><ele>164.0</ele><time>2026-03-29T10:01:01.07Z</time></trkpt><trkpt lat="42.8586419" lon="-8.3662745"><ele>172.0</ele><time>2026-03-29T10:01:02.07Z</time></trkpt><trkpt lat="42.8589375" lon="-8.3662118"><ele>172.0</ele><time>2026-03-29T10:01:03.07Z</time></trkpt><trkpt lat="42.8592144" lon="-8.3661485"><ele>172.0</ele><time>2026-03-29T10:01:04.07Z</time></trkpt><trkpt lat="42.8594552" lon="-8.3660915"><ele>171.66666666666669</ele><time>2026-03-29T10:01:05.07Z</time></trkpt><trkpt lat="42.8596788" lon="-8.3660479"><ele>171.33333333333334</ele><time>2026-03-29T10:01:06.071Z</time></trkpt><trkpt lat="42.8598707" lon="-8.3660038"><ele>171.0</ele><time>2026-03-29T10:01:07.07Z</time></trkpt><trkpt lat="42.8600498" lon="-8.3659421"><ele>171.66666666666666</ele><time>2026-03-29T10:01:08.07Z</time></trkpt><trkpt lat="42.8602081" lon="-8.3658203"><ele>172.33333333333331</ele><time>2026-03-29T10:01:09.07Z</time></trkpt><trkpt lat="42.8603549" lon="-8.365664"><ele>173.0</ele><time>2026-03-29T10:01:10.071Z</time></trkpt><trkpt lat="42.8605143" lon="-8.3655356"><ele>177.33333333333331</ele><time>2026-03-29T10:01:11.07Z</time></trkpt><trkpt lat="42.8606774" lon="-8.3654474"><ele>181.66666666666666</ele><time>2026-03-29T10:01:12.071Z</time></trkpt><trkpt lat="42.8609013" lon="-8.36546"><ele>186.0</ele><time>2026-03-29T10:01:13.07Z</time></trkpt><trkpt lat="42.8610707" lon="-8.3654256"><ele>185.75</ele><time>2026-03-29T10:01:14.07Z</time></trkpt><trkpt lat="42.8612142" lon="-8.3653842"><ele>185.5</ele><time>2026-03-29T10:01:15.07Z</time></trkpt><trkpt lat="42.8613466" lon="-8.3654203"><ele>185.25</ele><time>2026-03-29T10:01:16.07Z</time></trkpt><trkpt lat="42.8614602" lon="-8.3655315"><ele>185.0</ele><time>2026-03-29T10:01:17.07Z</time></trkpt><trkpt lat="42.8615689" lon="-8.3657007"><ele>185.0</ele><time>2026-03-29T10:01:18.071Z</time></trkpt><trkpt lat="42.861704" lon="-8.3658468"><ele>185.0</ele><time>2026-03-29T10:01:19.07Z</time></trkpt><trkpt lat="42.8618616" lon="-8.3659295"><ele>185.0</ele><time>2026-03-29T10:01:20.07Z</time></trkpt><trkpt lat="42.8620239" lon="-8.3659347"><ele>186.33333333333331</ele><time>2026-03-29T10:01:21.07Z</time></trkpt><trkpt lat="42.8621818" lon="-8.3658644"><ele>187.66666666666666</ele><time>2026-03-29T10:01:22.07Z</time></trkpt><trkpt lat="42.8623505" lon="-8.3657182"><ele>189.0</ele><time>2026-03-29T10:01:23.071Z</time></trkpt><trkpt lat="42.8625301" lon="-8.365516"><ele>190.5</ele><time>2026-03-29T10:01:24.07Z</time></trkpt><trkpt lat="42.8627008" lon="-8.3652691"><ele>192.0</ele><time>2026-03-29T10:01:25.07Z</time></trkpt><trkpt lat="42.8628574" lon="-8.3649832"><ele>199.5</ele><time>2026-03-29T10:01:26.07Z</time></trkpt><trkpt lat="42.8630027" lon="-8.3646878"><ele>207.0</ele><time>2026-03-29T10:01:27.071Z</time></trkpt><trkpt lat="42.863184" lon="-8.3643696"><ele>207.0</ele><time>2026-03-29T10:01:28.071Z</time></trkpt><trkpt lat="42.8633435" lon="-8.3640592"><ele>207.0</ele><time>2026-03-29T10:01:29.07Z</time></trkpt><trkpt lat="42.8634949" lon="-8.3638298"><ele>208.5</ele><time>2026-03-29T10:01:30.07Z</time></trkpt><trkpt lat="42.8636485" lon="-8.3635762"><ele>210.0</ele><time>2026-03-29T10:01:31.07Z</time></trkpt><trkpt lat="42.8638187" lon="-8.3634021"><ele>210.0</ele><time>2026-03-29T10:01:32.07Z</time></trkpt><trkpt lat="42.8639893" lon="-8.3632188"><ele>210.0</ele><time>2026-03-29T10:01:33.07Z</time></trkpt><trkpt lat="42.8641592" lon="-8.3630356"><ele>210.0</ele><time>2026-03-29T10:01:34.07Z</time></trkpt><trkpt lat="42.8643223" lon="-8.3628495"><ele>214.33333333333331</ele><time>2026-03-29T10:01:35.071Z</time></trkpt><trkpt lat="42.8644868" lon="-8.3626677"><ele>218.66666666666666</ele><time>2026-03-29T10:01:36.07Z</time></trkpt><trkpt lat="42.8646515" lon="-8.3624992"><ele>223.0</ele><time>2026-03-29T10:01:37.07Z</time></trkpt><trkpt lat="42.8648405" lon="-8.362347"><ele>223.0</ele><time>2026-03-29T10:01:38.071Z</time></trkpt><trkpt lat="42.865028" lon="-8.3622256"><ele>223.0</ele><time>2026-03-29T10:01:39.071Z</time></trkpt><trkpt lat="42.8652276" lon="-8.3621236"><ele>223.0</ele><time>2026-03-29T10:01:40.071Z</time></trkpt><trkpt lat="42.8654317" lon="-8.3620629"><ele>224.66666666666666</ele><time>2026-03-29T10:01:41.07Z</time></trkpt><trkpt lat="42.8656308" lon="-8.3620022"><ele>226.33333333333331</ele><time>2026-03-29T10:01:42.07Z</time></trkpt><trkpt lat="42.8658192" lon="-8.3619428"><ele>228.0</ele><time>2026-03-29T10:01:43.07Z</time></trkpt><trkpt lat="42.8659941" lon="-8.3618358"><ele>228.0</ele><time>2026-03-29T10:01:44.07Z</time></trkpt><trkpt lat="42.8661575" lon="-8.3616931"><ele>228.0</ele><time>2026-03-29T10:01:45.07Z</time></trkpt><trkpt lat="42.8663143" lon="-8.361514"><ele>228.0</ele><time>2026-03-29T10:01:46.07Z</time></trkpt><trkpt lat="42.8664759" lon="-8.3613057"><ele>230.5</ele><time>2026-03-29T10:01:47.07Z</time></trkpt><trkpt lat="42.8666352" lon="-8.361073"><ele>233.0</ele><time>2026-03-29T10:01:48.07Z</time></trkpt><trkpt lat="42.8667815" lon="-8.3608115"><ele>233.0</ele><time>2026-03-29T10:01:49.07Z</time></trkpt><trkpt lat="42.8669257" lon="-8.3605383"><ele>233.0</ele><time>2026-03-29T10:01:50.07Z</time></trkpt><trkpt lat="42.8670656" lon="-8.3602658"><ele>238.0</ele><time>2026-03-29T10:01:51.07Z</time></trkpt><trkpt lat="42.8672152" lon="-8.3600039"><ele>243.0</ele><time>2026-03-29T10:01:52.071Z</time></trkpt><trkpt lat="42.8673609" lon="-8.3597363"><ele>243.0</ele><time>2026-03-29T10:01:53.071Z</time></trkpt><trkpt lat="42.8675064" lon="-8.3594649"><ele>243.0</ele><time>2026-03-29T10:01:54.07Z</time></trkpt><trkpt lat="42.8676446" lon="-8.3591942"><ele>243.0</ele><time>2026-03-29T10:01:55.07Z</time></trkpt><trkpt lat="42.8677866" lon="-8.3589278"><ele>243.0</ele><time>2026-03-29T10:01:56.071Z</time></trkpt><trkpt lat="42.8679238" lon="-8.3586681"><ele>247.0</ele><time>2026-03-29T10:01:57.071Z</time></trkpt><trkpt lat="42.8680597" lon="-8.3584113"><ele>251.0</ele><time>2026-03-29T10:01:58.07Z</time></trkpt><trkpt lat="42.8681876" lon="-8.3581682"><ele>252.66666666666669</ele><time>2026-03-29T10:01:59.071Z</time></trkpt><trkpt lat="42.8683" lon="-8.3579491"><ele>254.33333333333331</ele><time>2026-03-29T10:02:00.071Z</time></trkpt><trkpt lat="42.86839" lon="-8.3577392"><ele>256.0</ele><time>2026-03-29T10:02:01.071Z</time></trkpt><trkpt lat="42.8684402" lon="-8.3575025"><ele>258.0</ele><time>2026-03-29T10:02:02.071Z</time></trkpt><trkpt lat="42.8684516" lon="-8.3572484"><ele>260.0</ele><time>2026-03-29T10:02:03.07Z</time></trkpt><trkpt lat="42.8684342" lon="-8.3569744"><ele>262.0</ele><time>2026-03-29T10:02:04.07Z</time></trkpt><trkpt lat="42.8684208" lon="-8.3567008"><ele>262.0</ele><time>2026-03-29T10:02:05.07Z</time></trkpt><trkpt lat="42.8684172" lon="-8.3564471"><ele>262.0</ele><time>2026-03-29T10:02:06.07Z</time></trkpt><trkpt lat="42.8684274" lon="-8.3561904"><ele>262.0</ele><time>2026-03-29T10:02:07.07Z</time></trkpt><trkpt lat="42.8684712" lon="-8.3560252"><ele>262.66666666666663</ele><time>2026-03-29T10:02:08.07Z</time></trkpt><trkpt lat="42.8685748" lon="-8.3558383"><ele>263.3333333333333</ele><time>2026-03-29T10:02:09.07Z</time></trkpt><trkpt lat="42.8687087" lon="-8.3556337"><ele>264.0</ele><time>2026-03-29T10:02:10.07Z</time></trkpt><trkpt lat="42.8689414" lon="-8.3554625"><ele>264.3333333333333</ele><time>2026-03-29T10:02:11.071Z</time></trkpt><trkpt lat="42.8691134" lon="-8.3552663"><ele>264.66666666666663</ele><time>2026-03-29T10:02:12.07Z</time></trkpt><trkpt lat="42.8692506" lon="-8.355048"><ele>265.0</ele><time>2026-03-29T10:02:13.07Z</time></trkpt><trkpt lat="42.8693568" lon="-8.3548201"><ele>267.66666666666663</ele><time>2026-03-29T10:02:14.071Z</time></trkpt><trkpt lat="42.869423" lon="-8.3545848"><ele>270.3333333333333</ele><time>2026-03-29T10:02:15.07Z</time></trkpt><trkpt lat="42.8694798" lon="-8.3543411"><ele>273.0</ele><time>2026-03-29T10:02:16.071Z</time></trkpt><trkpt lat="42.869534" lon="-8.3540931"><ele>272.0</ele><time>2026-03-29T10:02:17.07Z</time></trkpt><trkpt lat="42.8695866" lon="-8.3538416"><ele>271.0</ele><time>2026-03-29T10:02:18.07Z</time></trkpt><trkpt lat="42.8696393" lon="-8.3535861"><ele>270.0</ele><time>2026-03-29T10:02:19.071Z</time></trkpt><trkpt lat="42.8696871" lon="-8.3533346"><ele>270.0</ele><time>2026-03-29T10:02:20.07Z</time></trkpt><trkpt lat="42.8697333" lon="-8.3530989"><ele>270.0</ele><time>2026-03-29T10:02:21.07Z</time></trkpt><trkpt lat="42.8697776" lon="-8.3528713"><ele>270.0</ele><time>2026-03-29T10:02:22.071Z</time></trkpt><trkpt lat="42.8698062" lon="-8.3526495"><ele>268.3333333333333</ele><time>2026-03-29T10:02:23.07Z</time></trkpt><trkpt lat="42.8698078" lon="-8.3524155"><ele>266.66666666666663</ele><time>2026-03-29T10:02:24.07Z</time></trkpt><trkpt lat="42.8697793" lon="-8.3521739"><ele>265.0</ele><time>2026-03-29T10:02:25.071Z</time></trkpt><trkpt lat="42.8697252" lon="-8.3519302"><ele>265.0</ele><time>2026-03-29T10:02:26.07Z</time></trkpt><trkpt lat="42.8696648" lon="-8.3516791"><ele>265.0</ele><time>2026-03-29T10:02:27.071Z</time></trkpt><trkpt lat="42.8696018" lon="-8.351427"><ele>265.0</ele><time>2026-03-29T10:02:28.07Z</time></trkpt><trkpt lat="42.8695411" lon="-8.3511711"><ele>264.66666666666663</ele><time>2026-03-29T10:02:29.07Z</time></trkpt><trkpt lat="42.8694807" lon="-8.3509181"><ele>264.3333333333333</ele><time>2026-03-29T10:02:30.07Z</time></trkpt><trkpt lat="42.8694206" lon="-8.3506643"><ele>264.0</ele><time>2026-03-29T10:02:31.07Z</time></trkpt><trkpt lat="42.8693606" lon="-8.3504097"><ele>264.0</ele><time>2026-03-29T10:02:32.071Z</time></trkpt><trkpt lat="42.8693007" lon="-8.3501559"><ele>264.0</ele><time>2026-03-29T10:02:33.07Z</time></trkpt><trkpt lat="42.8692392" lon="-8.3499002"><ele>264.0</ele><time>2026-03-29T10:02:34.071Z</time></trkpt><trkpt lat="42.8691794" lon="-8.349647"><ele>261.6666666666667</ele><time>2026-03-29T10:02:35.07Z</time></trkpt><trkpt lat="42.8691306" lon="-8.3493943"><ele>259.33333333333337</ele><time>2026-03-29T10:02:36.071Z</time></trkpt><trkpt lat="42.8690926" lon="-8.3491421"><ele>257.0</ele><time>2026-03-29T10:02:37.071Z</time></trkpt><trkpt lat="42.8690632" lon="-8.3488877"><ele>258.0</ele><time>2026-03-29T10:02:38.07Z</time></trkpt><trkpt lat="42.8690404" lon="-8.3486441"><ele>259.0</ele><time>2026-03-29T10:02:39.07Z</time></trkpt><trkpt lat="42.8690161" lon="-8.3484226"><ele>260.0</ele><time>2026-03-29T10:02:40.071Z</time></trkpt><trkpt lat="42.868986" lon="-8.3482132"><ele>260.25</ele><time>2026-03-29T10:02:41.07Z</time></trkpt><trkpt lat="42.8689375" lon="-8.3480303"><ele>260.5</ele><time>2026-03-29T10:02:42.071Z</time></trkpt><trkpt lat="42.8688562" lon="-8.3478758"><ele>260.75</ele><time>2026-03-29T10:02:43.07Z</time></trkpt><trkpt lat="42.8687495" lon="-8.3477531"><ele>261.0</ele><time>2026-03-29T10:02:44.07Z</time></trkpt><trkpt lat="42.8686186" lon="-8.3476787"><ele>261.0</ele><time>2026-03-29T10:02:45.07Z</time></trkpt><trkpt lat="42.8684861" lon="-8.3476219"><ele>261.0</ele><time>2026-03-29T10:02:46.071Z</time></trkpt><trkpt lat="42.8683517" lon="-8.347568"><ele>261.0</ele><time>2026-03-29T10:02:47.071Z</time></trkpt><trkpt lat="42.8682168" lon="-8.3475107"><ele>261.0</ele><time>2026-03-29T10:02:48.07Z</time></trkpt><trkpt lat="42.8680722" lon="-8.3474507"><ele>260.0</ele><time>2026-03-29T10:02:49.071Z</time></trkpt><trkpt lat="42.8679299" lon="-8.3473951"><ele>259.0</ele><time>2026-03-29T10:02:50.07Z</time></trkpt><trkpt lat="42.8678038" lon="-8.3473224"><ele>258.0</ele><time>2026-03-29T10:02:51.07Z</time></trkpt><trkpt lat="42.8676967" lon="-8.3471894"><ele>257.0</ele><time>2026-03-29T10:02:52.071Z</time></trkpt><trkpt lat="42.8676002" lon="-8.3469754"><ele>256.0</ele><time>2026-03-29T10:02:53.07Z</time></trkpt><trkpt lat="42.8675196" lon="-8.346691"><ele>255.0</ele><time>2026-03-29T10:02:54.071Z</time></trkpt><trkpt lat="42.8674572" lon="-8.3464177"><ele>254.0</ele><time>2026-03-29T10:02:55.07Z</time></trkpt><trkpt lat="42.86741" lon="-8.3461714"><ele>253.66666666666669</ele><time>2026-03-29T10:02:56.07Z</time></trkpt><trkpt lat="42.8673664" lon="-8.3459606"><ele>253.33333333333331</ele><time>2026-03-29T10:02:57.07Z</time></trkpt><trkpt lat="42.8672894" lon="-8.3457948"><ele>253.0</ele><time>2026-03-29T10:02:58.07Z</time></trkpt><trkpt lat="42.8671589" lon="-8.3456666"><ele>253.0</ele><time>2026-03-29T10:02:59.07Z</time></trkpt><trkpt lat="42.8669848" lon="-8.3455672"><ele>253.0</ele><time>2026-03-29T10:03:00.07Z</time></trkpt><trkpt lat="42.8668194" lon="-8.3454804"><ele>253.0</ele><time>2026-03-29T10:03:01.071Z</time></trkpt><trkpt lat="42.8666713" lon="-8.3453779"><ele>255.66666666666666</ele><time>2026-03-29T10:03:02.07Z</time></trkpt><trkpt lat="42.8665501" lon="-8.3452398"><ele>258.3333333333333</ele><time>2026-03-29T10:03:03.071Z</time></trkpt><trkpt lat="42.8664743" lon="-8.3450485"><ele>261.0</ele><time>2026-03-29T10:03:04.07Z</time></trkpt><trkpt lat="42.8664364" lon="-8.3448028"><ele>262.5</ele><time>2026-03-29T10:03:05.07Z</time></trkpt><trkpt lat="42.8664029" lon="-8.3445123"><ele>264.0</ele><time>2026-03-29T10:03:06.07Z</time></trkpt><trkpt lat="42.8663681" lon="-8.3441885"><ele>263.0</ele><time>2026-03-29T10:03:07.07Z</time></trkpt><trkpt lat="42.8663313" lon="-8.3438535"><ele>262.0</ele><time>2026-03-29T10:03:08.07Z</time></trkpt><trkpt lat="42.8662904" lon="-8.3435008"><ele>262.0</ele><time>2026-03-29T10:03:09.07Z</time></trkpt><trkpt lat="42.8662493" lon="-8.3431356"><ele>262.0</ele><time>2026-03-29T10:03:10.071Z</time></trkpt><trkpt lat="42.8662092" lon="-8.3427689"><ele>262.0</ele><time>2026-03-29T10:03:11.071Z</time></trkpt><trkpt lat="42.8661708" lon="-8.3424228"><ele>262.0</ele><time>2026-03-29T10:03:12.07Z</time></trkpt><trkpt lat="42.8661301" lon="-8.3420811"><ele>263.0</ele><time>2026-03-29T10:03:13.07Z</time></trkpt><trkpt lat="42.8660887" lon="-8.3417546"><ele>264.0</ele><time>2026-03-29T10:03:14.071Z</time></trkpt><trkpt lat="42.8660524" lon="-8.3414324"><ele>266.0</ele><time>2026-03-29T10:03:15.07Z</time></trkpt><trkpt lat="42.8660343" lon="-8.3411146"><ele>268.0</ele><time>2026-03-29T10:03:16.07Z</time></trkpt><trkpt lat="42.8660427" lon="-8.3407813"><ele>271.5</ele><time>2026-03-29T10:03:17.07Z</time></trkpt><trkpt lat="42.8660701" lon="-8.3404448"><ele>275.0</ele><time>2026-03-29T10:03:18.07Z</time></trkpt><trkpt lat="42.8661003" lon="-8.3400968"><ele>275.0</ele><time>2026-03-29T10:03:19.07Z</time></trkpt><trkpt lat="42.8661231" lon="-8.3397573"><ele>275.0</ele><time>2026-03-29T10:03:20.071Z</time></trkpt><trkpt lat="42.8661455" lon="-8.3394433"><ele>275.6666666666667</ele><time>2026-03-29T10:03:21.071Z</time></trkpt><trkpt lat="42.8661654" lon="-8.339148"><ele>276.3333333333333</ele><time>2026-03-29T10:03:22.07Z</time></trkpt><trkpt lat="42.8661798" lon="-8.3388721"><ele>277.0</ele><time>2026-03-29T10:03:23.07Z</time></trkpt><trkpt lat="42.8661885" lon="-8.3386159"><ele>277.3333333333333</ele><time>2026-03-29T10:03:24.071Z</time></trkpt><trkpt lat="42.8661783" lon="-8.3383705"><ele>277.6666666666667</ele><time>2026-03-29T10:03:25.071Z</time></trkpt><trkpt lat="42.8661388" lon="-8.3381276"><ele>278.0</ele><time>2026-03-29T10:03:26.071Z</time></trkpt><trkpt lat="42.8660636" lon="-8.3378931"><ele>278.0</ele><time>2026-03-29T10:03:27.07Z</time></trkpt><trkpt lat="42.8659532" lon="-8.3376652"><ele>278.0</ele><time>2026-03-29T10:03:28.071Z</time></trkpt><trkpt lat="42.8658236" lon="-8.3374355"><ele>278.0</ele><time>2026-03-29T10:03:29.07Z</time></trkpt><trkpt lat="42.8656818" lon="-8.3372008"><ele>282.0</ele><time>2026-03-29T10:03:30.07Z</time></trkpt><trkpt lat="42.8655382" lon="-8.3369566"><ele>286.0</ele><time>2026-03-29T10:03:31.071Z</time></trkpt><trkpt lat="42.865396" lon="-8.33672"><ele>286.0</ele><time>2026-03-29T10:03:32.07Z</time></trkpt><trkpt lat="42.8652533" lon="-8.3365016"><ele>286.0</ele><time>2026-03-29T10:03:33.07Z</time></trkpt><trkpt lat="42.8651078" lon="-8.3362989"><ele>286.0</ele><time>2026-03-29T10:03:34.071Z</time></trkpt><trkpt lat="42.8649683" lon="-8.3361031"><ele>285.66666666666663</ele><time>2026-03-29T10:03:35.071Z</time></trkpt><trkpt lat="42.8648576" lon="-8.3358839"><ele>285.3333333333333</ele><time>2026-03-29T10:03:36.07Z</time></trkpt><trkpt lat="42.8647728" lon="-8.3356485"><ele>285.0</ele><time>2026-03-29T10:03:37.07Z</time></trkpt><trkpt lat="42.8647081" lon="-8.3354063"><ele>285.0</ele><time>2026-03-29T10:03:38.07Z</time></trkpt><trkpt lat="42.8646743" lon="-8.3351645"><ele>285.0</ele><time>2026-03-29T10:03:39.07Z</time></trkpt><trkpt lat="42.8646888" lon="-8.3349129"><ele>285.0</ele><time>2026-03-29T10:03:40.071Z</time></trkpt><trkpt lat="42.8647479" lon="-8.3346744"><ele>286.3333333333333</ele><time>2026-03-29T10:03:41.071Z</time></trkpt><trkpt lat="42.8648216" lon="-8.3344307"><ele>287.66666666666663</ele><time>2026-03-29T10:03:42.07Z</time></trkpt><trkpt lat="42.8649062" lon="-8.3341895"><ele>289.0</ele><time>2026-03-29T10:03:43.07Z</time></trkpt><trkpt lat="42.8650029" lon="-8.3339448"><ele>288.3333333333333</ele><time>2026-03-29T10:03:44.07Z</time></trkpt><trkpt lat="42.8651091" lon="-8.3337076"><ele>287.6666666666667</ele><time>2026-03-29T10:03:45.07Z</time></trkpt><trkpt lat="42.8652182" lon="-8.3334735"><ele>287.0</ele><time>2026-03-29T10:03:46.071Z</time></trkpt><trkpt lat="42.8653228" lon="-8.3332464"><ele>289.0</ele><time>2026-03-29T10:03:47.071Z</time></trkpt><trkpt lat="42.8654189" lon="-8.3330328"><ele>291.0</ele><time>2026-03-29T10:03:48.07Z</time></trkpt><trkpt lat="42.8655008" lon="-8.3328249"><ele>293.0</ele><time>2026-03-29T10:03:49.07Z</time></trkpt><trkpt lat="42.8655535" lon="-8.3326277"><ele>293.0</ele><time>2026-03-29T10:03:50.07Z</time></trkpt><trkpt lat="42.8655799" lon="-8.3324165"><ele>293.0</ele><time>2026-03-29T10:03:51.071Z</time></trkpt><trkpt lat="42.8655869" lon="-8.3321992"><ele>293.0</ele><time>2026-03-29T10:03:52.07Z</time></trkpt><trkpt lat="42.8655747" lon="-8.3319813"><ele>293.33333333333337</ele><time>2026-03-29T10:03:53.071Z</time></trkpt><trkpt lat="42.8655439" lon="-8.3317729"><ele>293.6666666666667</ele><time>2026-03-29T10:03:54.071Z</time></trkpt><trkpt lat="42.8654962" lon="-8.3315674"><ele>294.0</ele><time>2026-03-29T10:03:55.071Z</time></trkpt><trkpt lat="42.8654426" lon="-8.3313665"><ele>293.3333333333333</ele><time>2026-03-29T10:03:56.07Z</time></trkpt><trkpt lat="42.8653885" lon="-8.331164"><ele>292.66666666666663</ele><time>2026-03-29T10:03:57.071Z</time></trkpt><trkpt lat="42.8653281" lon="-8.3309657"><ele>292.0</ele><time>2026-03-29T10:03:58.07Z</time></trkpt><trkpt lat="42.8652672" lon="-8.3307634"><ele>292.0</ele><time>2026-03-29T10:03:59.07Z</time></trkpt><trkpt lat="42.865204" lon="-8.3305586"><ele>292.0</ele><time>2026-03-29T10:04:00.07Z</time></trkpt><trkpt lat="42.865144" lon="-8.3303489"><ele>292.0</ele><time>2026-03-29T10:04:01.07Z</time></trkpt><trkpt lat="42.865079" lon="-8.3301373"><ele>291.3333333333333</ele><time>2026-03-29T10:04:02.07Z</time></trkpt><trkpt lat="42.8650164" lon="-8.3299222"><ele>290.6666666666667</ele><time>2026-03-29T10:04:03.071Z</time></trkpt><trkpt lat="42.8649584" lon="-8.3297025"><ele>290.0</ele><time>2026-03-29T10:04:04.071Z</time></trkpt><trkpt lat="42.8649136" lon="-8.3294803"><ele>290.0</ele><time>2026-03-29T10:04:05.07Z</time></trkpt><trkpt lat="42.864896" lon="-8.3292568"><ele>290.0</ele><time>2026-03-29T10:04:06.07Z</time></trkpt><trkpt lat="42.8649054" lon="-8.3290321"><ele>290.0</ele><time>2026-03-29T10:04:07.07Z</time></trkpt><trkpt lat="42.8649292" lon="-8.3288113"><ele>290.33333333333337</ele><time>2026-03-29T10:04:08.07Z</time></trkpt><trkpt lat="42.8649562" lon="-8.3285914"><ele>290.6666666666667</ele><time>2026-03-29T10:04:09.071Z</time></trkpt><trkpt lat="42.8649863" lon="-8.3283711"><ele>291.0</ele><time>2026-03-29T10:04:10.07Z</time></trkpt><trkpt lat="42.8650183" lon="-8.3281466"><ele>291.0</ele><time>2026-03-29T10:04:11.071Z</time></trkpt><trkpt lat="42.8650448" lon="-8.3279224"><ele>291.0</ele><time>2026-03-29T10:04:12.071Z</time></trkpt><trkpt lat="42.8650716" lon="-8.3277031"><ele>291.0</ele><time>2026-03-29T10:04:13.07Z</time></trkpt><trkpt lat="42.8651018" lon="-8.3274832"><ele>290.0</ele><time>2026-03-29T10:04:14.07Z</time></trkpt><trkpt lat="42.8651295" lon="-8.3272669"><ele>289.0</ele><time>2026-03-29T10:04:15.07Z</time></trkpt><trkpt lat="42.8651606" lon="-8.3270489"><ele>288.0</ele><time>2026-03-29T10:04:16.071Z</time></trkpt><trkpt lat="42.8651908" lon="-8.3268286"><ele>288.0</ele><time>2026-03-29T10:04:17.071Z</time></trkpt><trkpt lat="42.8652191" lon="-8.3266046"><ele>288.0</ele><time>2026-03-29T10:04:18.07Z</time></trkpt><trkpt lat="42.8652418" lon="-8.3263763"><ele>288.0</ele><time>2026-03-29T10:04:19.07Z</time></trkpt><trkpt lat="42.8652668" lon="-8.3261463"><ele>289.3333333333333</ele><time>2026-03-29T10:04:20.071Z</time></trkpt><trkpt lat="42.8652994" lon="-8.3259109"><ele>290.66666666666663</ele><time>2026-03-29T10:04:21.07Z</time></trkpt><trkpt lat="42.8653317" lon="-8.3256723"><ele>292.0</ele><time>2026-03-29T10:04:22.07Z</time></trkpt><trkpt lat="42.8653673" lon="-8.325433"><ele>292.66666666666663</ele><time>2026-03-29T10:04:23.07Z</time></trkpt><trkpt lat="42.8653966" lon="-8.325189"><ele>293.3333333333333</ele><time>2026-03-29T10:04:24.07Z</time></trkpt><trkpt lat="42.8654266" lon="-8.3249418"><ele>294.0</ele><time>2026-03-29T10:04:25.071Z</time></trkpt><trkpt lat="42.8654569" lon="-8.3246964"><ele>295.6666666666667</ele><time>2026-03-29T10:04:26.07Z</time></trkpt><trkpt lat="42.8654892" lon="-8.324453"><ele>297.33333333333337</ele><time>2026-03-29T10:04:27.071Z</time></trkpt><trkpt lat="42.8655211" lon="-8.3242056"><ele>299.0</ele><time>2026-03-29T10:04:28.07Z</time></trkpt><trkpt lat="42.8655515" lon="-8.3239618"><ele>300.33333333333337</ele><time>2026-03-29T10:04:29.071Z</time></trkpt><trkpt lat="42.8655806" lon="-8.3237183"><ele>301.6666666666667</ele><time>2026-03-29T10:04:30.071Z</time></trkpt><trkpt lat="42.865611" lon="-8.3234713"><ele>303.0</ele><time>2026-03-29T10:04:31.071Z</time></trkpt><trkpt lat="42.8656419" lon="-8.3232316"><ele>304.6666666666667</ele><time>2026-03-29T10:04:32.071Z</time></trkpt><trkpt lat="42.8656734" lon="-8.3229902"><ele>306.33333333333337</ele><time>2026-03-29T10:04:33.07Z</time></trkpt><trkpt lat="42.8657008" lon="-8.3227471"><ele>308.0</ele><time>2026-03-29T10:04:34.07Z</time></trkpt><trkpt lat="42.8657314" lon="-8.322502"><ele>308.0</ele><time>2026-03-29T10:04:35.071Z</time></trkpt><trkpt lat="42.8657622" lon="-8.3222602"><ele>308.0</ele><time>2026-03-29T10:04:36.071Z</time></trkpt><trkpt lat="42.8657949" lon="-8.3220229"><ele>308.0</ele><time>2026-03-29T10:04:37.071Z</time></trkpt><trkpt lat="42.865824" lon="-8.3217857"><ele>308.33333333333337</ele><time>2026-03-29T10:04:38.07Z</time></trkpt><trkpt lat="42.8658514" lon="-8.3215494"><ele>308.6666666666667</ele><time>2026-03-29T10:04:39.07Z</time></trkpt><trkpt lat="42.8658687" lon="-8.3213126"><ele>309.0</ele><time>2026-03-29T10:04:40.07Z</time></trkpt><trkpt lat="42.8658697" lon="-8.3210658"><ele>310.6666666666667</ele><time>2026-03-29T10:04:41.07Z</time></trkpt><trkpt lat="42.8658572" lon="-8.3208199"><ele>312.33333333333337</ele><time>2026-03-29T10:04:42.07Z</time></trkpt><trkpt lat="42.8658368" lon="-8.3205713"><ele>314.0</ele><time>2026-03-29T10:04:43.07Z</time></trkpt><trkpt lat="42.8658124" lon="-8.3203249"><ele>314.0</ele><time>2026-03-29T10:04:44.07Z</time></trkpt><trkpt lat="42.8657877" lon="-8.3200722"><ele>314.0</ele><time>2026-03-29T10:04:45.071Z</time></trkpt><trkpt lat="42.8657645" lon="-8.3198147"><ele>314.0</ele><time>2026-03-29T10:04:46.07Z</time></trkpt><trkpt lat="42.8657371" lon="-8.3195534"><ele>314.0</ele><time>2026-03-29T10:04:47.07Z</time></trkpt><trkpt lat="42.8657107" lon="-8.3192928"><ele>314.0</ele><time>2026-03-29T10:04:48.07Z</time></trkpt><trkpt lat="42.8656818" lon="-8.3190304"><ele>314.0</ele><time>2026-03-29T10:04:49.07Z</time></trkpt><trkpt lat="42.8656572" lon="-8.3187723"><ele>314.6666666666667</ele><time>2026-03-29T10:04:50.071Z</time></trkpt><trkpt lat="42.8656351" lon="-8.3185162"><ele>315.3333333333333</ele><time>2026-03-29T10:04:51.071Z</time></trkpt><trkpt lat="42.8656164" lon="-8.3182605"><ele>316.0</ele><time>2026-03-29T10:04:52.071Z</time></trkpt><trkpt lat="42.8656071" lon="-8.3180038"><ele>316.0</ele><time>2026-03-29T10:04:53.07Z</time></trkpt><trkpt lat="42.8656129" lon="-8.3177525"><ele>316.0</ele><time>2026-03-29T10:04:54.07Z</time></trkpt><trkpt lat="42.8656303" lon="-8.3175091"><ele>316.0</ele><time>2026-03-29T10:04:55.071Z</time></trkpt><trkpt lat="42.8656434" lon="-8.3172785"><ele>315.66666666666663</ele><time>2026-03-29T10:04:56.071Z</time></trkpt><trkpt lat="42.8656338" lon="-8.3170451"><ele>315.3333333333333</ele><time>2026-03-29T10:04:57.07Z</time></trkpt><trkpt lat="42.8655845" lon="-8.3168248"><ele>315.0</ele><time>2026-03-29T10:04:58.07Z</time></trkpt><trkpt lat="42.8655131" lon="-8.316613"><ele>316.0</ele><time>2026-03-29T10:04:59.07Z</time></trkpt><trkpt lat="42.8654499" lon="-8.3163977"><ele>317.0</ele><time>2026-03-29T10:05:00.071Z</time></trkpt><trkpt lat="42.8654149" lon="-8.3161735"><ele>318.0</ele><time>2026-03-29T10:05:01.07Z</time></trkpt><trkpt lat="42.865426" lon="-8.3159596"><ele>318.0</ele><time>2026-03-29T10:05:02.071Z</time></trkpt><trkpt lat="42.8654491" lon="-8.3157669"><ele>318.0</ele><time>2026-03-29T10:05:03.07Z</time></trkpt><trkpt lat="42.865434" lon="-8.315586"><ele>318.0</ele><time>2026-03-29T10:05:04.07Z</time></trkpt><trkpt lat="42.8653609" lon="-8.3154175"><ele>318.0</ele><time>2026-03-29T10:05:05.07Z</time></trkpt><trkpt lat="42.8652598" lon="-8.3152704"><ele>317.0</ele><time>2026-03-29T10:05:06.07Z</time></trkpt><trkpt lat="42.8651659" lon="-8.3151149"><ele>316.0</ele><time>2026-03-29T10:05:07.071Z</time></trkpt><trkpt lat="42.8651063" lon="-8.3149411"><ele>315.0</ele><time>2026-03-29T10:05:08.07Z</time></trkpt><trkpt lat="42.865095" lon="-8.3147523"><ele>314.0</ele><time>2026-03-29T10:05:09.07Z</time></trkpt><trkpt lat="42.8651338" lon="-8.3145692"><ele>313.75</ele><time>2026-03-29T10:05:10.071Z</time></trkpt><trkpt lat="42.865207" lon="-8.3144118"><ele>313.5</ele><time>2026-03-29T10:05:11.07Z</time></trkpt><trkpt lat="42.8652739" lon="-8.3142679"><ele>313.25</ele><time>2026-03-29T10:05:12.07Z</time></trkpt><trkpt lat="42.8653006" lon="-8.3140962"><ele>313.0</ele><time>2026-03-29T10:05:13.07Z</time></trkpt><trkpt lat="42.8652786" lon="-8.3138946"><ele>313.0</ele><time>2026-03-29T10:05:14.07Z</time></trkpt><trkpt lat="42.8652289" lon="-8.3136707"><ele>313.0</ele><time>2026-03-29T10:05:15.07Z</time></trkpt><trkpt lat="42.8651643" lon="-8.3134342"><ele>313.0</ele><time>2026-03-29T10:05:16.07Z</time></trkpt><trkpt lat="42.8650923" lon="-8.3131986"><ele>311.0</ele><time>2026-03-29T10:05:17.071Z</time></trkpt><trkpt lat="42.8650272" lon="-8.3129661"><ele>309.0</ele><time>2026-03-29T10:05:18.071Z</time></trkpt><trkpt lat="42.8649758" lon="-8.3127473"><ele>307.0</ele><time>2026-03-29T10:05:19.07Z</time></trkpt><trkpt lat="42.8649533" lon="-8.3125291"><ele>307.0</ele><time>2026-03-29T10:05:20.07Z</time></trkpt><trkpt lat="42.864956" lon="-8.3123153"><ele>307.0</ele><time>2026-03-29T10:05:21.071Z</time></trkpt><trkpt lat="42.8649784" lon="-8.3120943"><ele>307.0</ele><time>2026-03-29T10:05:22.07Z</time></trkpt><trkpt lat="42.8650145" lon="-8.3118659"><ele>306.66666666666663</ele><time>2026-03-29T10:05:23.07Z</time></trkpt><trkpt lat="42.8650556" lon="-8.3116284"><ele>306.3333333333333</ele><time>2026-03-29T10:05:24.071Z</time></trkpt><trkpt lat="42.8651011" lon="-8.3113933"><ele>306.0</ele><time>2026-03-29T10:05:25.07Z</time></trkpt><trkpt lat="42.8651503" lon="-8.3111643"><ele>310.0</ele><time>2026-03-29T10:05:26.07Z</time></trkpt><trkpt lat="42.8651967" lon="-8.3109413"><ele>314.0</ele><time>2026-03-29T10:05:27.07Z</time></trkpt><trkpt lat="42.8652449" lon="-8.3107199"><ele>318.0</ele><time>2026-03-29T10:05:28.071Z</time></trkpt><trkpt lat="42.865292" lon="-8.3105066"><ele>318.0</ele><time>2026-03-29T10:05:29.071Z</time></trkpt><trkpt lat="42.8653404" lon="-8.3103109"><ele>318.0</ele><time>2026-03-29T10:05:30.071Z</time></trkpt><trkpt lat="42.8653968" lon="-8.310135"><ele>318.0</ele><time>2026-03-29T10:05:31.07Z</time></trkpt><trkpt lat="42.865461" lon="-8.309975"><ele>318.0</ele><time>2026-03-29T10:05:32.07Z</time></trkpt><trkpt lat="42.8655238" lon="-8.3098239"><ele>316.5</ele><time>2026-03-29T10:05:33.07Z</time></trkpt><trkpt lat="42.8655806" lon="-8.3096689"><ele>315.0</ele><time>2026-03-29T10:05:34.07Z</time></trkpt><trkpt lat="42.8656201" lon="-8.3095081"><ele>313.5</ele><time>2026-03-29T10:05:35.07Z</time></trkpt><trkpt lat="42.8656352" lon="-8.3093403"><ele>312.0</ele><time>2026-03-29T10:05:36.07Z</time></trkpt><trkpt lat="42.865641" lon="-8.3091675"><ele>312.0</ele><time>2026-03-29T10:05:37.07Z</time></trkpt><trkpt lat="42.8656429" lon="-8.3090009"><ele>312.0</ele><time>2026-03-29T10:05:38.071Z</time></trkpt><trkpt lat="42.8656458" lon="-8.3088379"><ele>312.0</ele><time>2026-03-29T10:05:39.07Z</time></trkpt><trkpt lat="42.8656482" lon="-8.3086731"><ele>312.0</ele><time>2026-03-29T10:05:40.07Z</time></trkpt><trkpt lat="42.865651" lon="-8.3085131"><ele>312.6</ele><time>2026-03-29T10:05:41.071Z</time></trkpt><trkpt lat="42.8656537" lon="-8.308353"><ele>313.2</ele><time>2026-03-29T10:05:42.07Z</time></trkpt><trkpt lat="42.8656634" lon="-8.3082027"><ele>313.8</ele><time>2026-03-29T10:05:43.071Z</time></trkpt><trkpt lat="42.8656826" lon="-8.3080529"><ele>314.4</ele><time>2026-03-29T10:05:44.071Z</time></trkpt><trkpt lat="42.8657097" lon="-8.3079096"><ele>315.0</ele><time>2026-03-29T10:05:45.07Z</time></trkpt><trkpt lat="42.8657483" lon="-8.3077752"><ele>316.2</ele><time>2026-03-29T10:05:46.07Z</time></trkpt><trkpt lat="42.8657998" lon="-8.3076398"><ele>317.4</ele><time>2026-03-29T10:05:47.07Z</time></trkpt><trkpt lat="42.8658578" lon="-8.3075088"><ele>318.6</ele><time>2026-03-29T10:05:48.07Z</time></trkpt><trkpt lat="42.8659247" lon="-8.307387"><ele>319.8</ele><time>2026-03-29T10:05:49.071Z</time></trkpt><trkpt lat="42.8660003" lon="-8.3072765"><ele>321.0</ele><time>2026-03-29T10:05:50.07Z</time></trkpt><trkpt lat="42.8660825" lon="-8.3071667"><ele>321.0</ele><time>2026-03-29T10:05:51.07Z</time></trkpt><trkpt lat="42.8661695" lon="-8.3070617"><ele>321.0</ele><time>2026-03-29T10:05:52.071Z</time></trkpt><trkpt lat="42.8662591" lon="-8.3069584"><ele>321.0</ele><time>2026-03-29T10:05:53.07Z</time></trkpt><trkpt lat="42.8663466" lon="-8.3068553"><ele>321.0</ele><time>2026-03-29T10:05:54.07Z</time></trkpt><trkpt lat="42.8664318" lon="-8.3067447"><ele>321.0</ele><time>2026-03-29T10:05:55.07Z</time></trkpt><trkpt lat="42.8665213" lon="-8.3066351"><ele>321.0</ele><time>2026-03-29T10:05:56.07Z</time></trkpt><trkpt lat="42.8666124" lon="-8.3065293"><ele>321.0</ele><time>2026-03-29T10:05:57.071Z</time></trkpt><trkpt lat="42.8667039" lon="-8.3064307"><ele>321.0</ele><time>2026-03-29T10:05:58.07Z</time></trkpt><trkpt lat="42.8667941" lon="-8.3063323"><ele>321.20000000000005</ele><time>2026-03-29T10:05:59.071Z</time></trkpt><trkpt lat="42.8668841" lon="-8.3062473"><ele>321.40000000000003</ele><time>2026-03-29T10:06:00.07Z</time></trkpt><trkpt lat="42.8669692" lon="-8.3061929"><ele>321.6</ele><time>2026-03-29T10:06:01.07Z</time></trkpt><trkpt lat="42.8670661" lon="-8.3061673"><ele>321.8</ele><time>2026-03-29T10:06:02.07Z</time></trkpt><trkpt lat="42.8671622" lon="-8.3061558"><ele>322.0</ele><time>2026-03-29T10:06:03.07Z</time></trkpt><trkpt lat="42.8672647" lon="-8.3061275"><ele>322.0</ele><time>2026-03-29T10:06:04.071Z</time></trkpt><trkpt lat="42.8673532" lon="-8.3060531"><ele>322.0</ele><time>2026-03-29T10:06:05.07Z</time></trkpt><trkpt lat="42.8674151" lon="-8.3059376"><ele>322.0</ele><time>2026-03-29T10:06:06.07Z</time></trkpt><trkpt lat="42.8674372" lon="-8.305798"><ele>322.0</ele><time>2026-03-29T10:06:07.07Z</time></trkpt><trkpt lat="42.8674281" lon="-8.3056498"><ele>322.0</ele><time>2026-03-29T10:06:08.071Z</time></trkpt><trkpt lat="42.8674148" lon="-8.3054944"><ele>322.25</ele><time>2026-03-29T10:06:09.07Z</time></trkpt><trkpt lat="42.8673936" lon="-8.305335"><ele>322.5</ele><time>2026-03-29T10:06:10.07Z</time></trkpt><trkpt lat="42.8673726" lon="-8.305165"><ele>322.75</ele><time>2026-03-29T10:06:11.07Z</time></trkpt><trkpt lat="42.8673503" lon="-8.3049876"><ele>323.0</ele><time>2026-03-29T10:06:12.07Z</time></trkpt><trkpt lat="42.8673292" lon="-8.3048032"><ele>322.5</ele><time>2026-03-29T10:06:13.071Z</time></trkpt><trkpt lat="42.8673121" lon="-8.3046147"><ele>322.0</ele><time>2026-03-29T10:06:14.071Z</time></trkpt><trkpt lat="42.8672951" lon="-8.3044186"><ele>321.5</ele><time>2026-03-29T10:06:15.07Z</time></trkpt><trkpt lat="42.8672825" lon="-8.3042211"><ele>321.0</ele><time>2026-03-29T10:06:16.071Z</time></trkpt><trkpt lat="42.8672767" lon="-8.304026"><ele>320.25</ele><time>2026-03-29T10:06:17.07Z</time></trkpt><trkpt lat="42.8672721" lon="-8.3038307"><ele>319.5</ele><time>2026-03-29T10:06:18.071Z</time></trkpt><trkpt lat="42.8672716" lon="-8.3036373"><ele>318.75</ele><time>2026-03-29T10:06:19.07Z</time></trkpt><trkpt lat="42.8672681" lon="-8.3034506"><ele>318.0</ele><time>2026-03-29T10:06:20.071Z</time></trkpt><trkpt lat="42.8672634" lon="-8.3032687"><ele>318.0</ele><time>2026-03-29T10:06:21.07Z</time></trkpt><trkpt lat="42.8672555" lon="-8.3030948"><ele>318.0</ele><time>2026-03-29T10:06:22.07Z</time></trkpt><trkpt lat="42.8672446" lon="-8.3029313"><ele>318.0</ele><time>2026-03-29T10:06:23.07Z</time></trkpt><trkpt lat="42.8672338" lon="-8.3027811"><ele>318.0</ele><time>2026-03-29T10:06:24.07Z</time></trkpt><trkpt lat="42.8672191" lon="-8.3026349"><ele>316.75</ele><time>2026-03-29T10:06:25.071Z</time></trkpt><trkpt lat="42.8672039" lon="-8.3024765"><ele>315.5</ele><time>2026-03-29T10:06:26.071Z</time></trkpt><trkpt lat="42.867183" lon="-8.3023052"><ele>314.25</ele><time>2026-03-29T10:06:27.07Z</time></trkpt><trkpt lat="42.8671542" lon="-8.3021205"><ele>313.0</ele><time>2026-03-29T10:06:28.07Z</time></trkpt><trkpt lat="42.8671224" lon="-8.3019177"><ele>312.3333333333333</ele><time>2026-03-29T10:06:29.071Z</time></trkpt><trkpt lat="42.8670865" lon="-8.3016975"><ele>311.6666666666667</ele><time>2026-03-29T10:06:30.07Z</time></trkpt><trkpt lat="42.8670488" lon="-8.3014655"><ele>311.0</ele><time>2026-03-29T10:06:31.07Z</time></trkpt><trkpt lat="42.8670179" lon="-8.3012339"><ele>309.0</ele><time>2026-03-29T10:06:32.07Z</time></trkpt><trkpt lat="42.8670087" lon="-8.3009988"><ele>307.0</ele><time>2026-03-29T10:06:33.07Z</time></trkpt><trkpt lat="42.8670407" lon="-8.3007652"><ele>305.0</ele><time>2026-03-29T10:06:34.07Z</time></trkpt><trkpt lat="42.8671145" lon="-8.3005344"><ele>304.33333333333337</ele><time>2026-03-29T10:06:35.07Z</time></trkpt><trkpt lat="42.8672171" lon="-8.3003103"><ele>303.6666666666667</ele><time>2026-03-29T10:06:36.07Z</time></trkpt><trkpt lat="42.8673281" lon="-8.3000898"><ele>303.0</ele><time>2026-03-29T10:06:37.071Z</time></trkpt><trkpt lat="42.8674489" lon="-8.2998714"><ele>302.6666666666667</ele><time>2026-03-29T10:06:38.07Z</time></trkpt><trkpt lat="42.8675716" lon="-8.2996492"><ele>302.33333333333337</ele><time>2026-03-29T10:06:39.07Z</time></trkpt><trkpt lat="42.8676942" lon="-8.2994253"><ele>302.0</ele><time>2026-03-29T10:06:40.071Z</time></trkpt><trkpt lat="42.8678152" lon="-8.2991957"><ele>302.6666666666667</ele><time>2026-03-29T10:06:41.07Z</time></trkpt><trkpt lat="42.8679362" lon="-8.2989615"><ele>303.3333333333333</ele><time>2026-03-29T10:06:42.071Z</time></trkpt><trkpt lat="42.8680543" lon="-8.2987222"><ele>304.0</ele><time>2026-03-29T10:06:43.071Z</time></trkpt><trkpt lat="42.8681709" lon="-8.2984843"><ele>302.3333333333333</ele><time>2026-03-29T10:06:44.071Z</time></trkpt><trkpt lat="42.8682866" lon="-8.2982459"><ele>300.6666666666667</ele><time>2026-03-29T10:06:45.07Z</time></trkpt><trkpt lat="42.8683984" lon="-8.298006"><ele>299.0</ele><time>2026-03-29T10:06:46.071Z</time></trkpt><trkpt lat="42.8685086" lon="-8.2977687"><ele>299.0</ele><time>2026-03-29T10:06:47.071Z</time></trkpt><trkpt lat="42.8686115" lon="-8.2975354"><ele>299.0</ele><time>2026-03-29T10:06:48.07Z</time></trkpt><trkpt lat="42.8687042" lon="-8.2973119"><ele>299.0</ele><time>2026-03-29T10:06:49.071Z</time></trkpt><trkpt lat="42.8687926" lon="-8.2970993"><ele>298.33333333333337</ele><time>2026-03-29T10:06:50.071Z</time></trkpt><trkpt lat="42.8688776" lon="-8.2968997"><ele>297.6666666666667</ele><time>2026-03-29T10:06:51.071Z</time></trkpt><trkpt lat="42.8689577" lon="-8.2967063"><ele>297.0</ele><time>2026-03-29T10:06:52.07Z</time></trkpt><trkpt lat="42.8690439" lon="-8.2965272"><ele>296.0</ele><time>2026-03-29T10:06:53.071Z</time></trkpt><trkpt lat="42.8691515" lon="-8.2963666"><ele>295.0</ele><time>2026-03-29T10:06:54.07Z</time></trkpt><trkpt lat="42.8692837" lon="-8.2962385"><ele>294.0</ele><time>2026-03-29T10:06:55.07Z</time></trkpt><trkpt lat="42.8694385" lon="-8.2961543"><ele>293.6666666666667</ele><time>2026-03-29T10:06:56.07Z</time></trkpt><trkpt lat="42.8696126" lon="-8.296111"><ele>293.33333333333337</ele><time>2026-03-29T10:06:57.07Z</time></trkpt><trkpt lat="42.8698045" lon="-8.2960812"><ele>293.0</ele><time>2026-03-29T10:06:58.07Z</time></trkpt><trkpt lat="42.870004" lon="-8.2960568"><ele>292.6666666666667</ele><time>2026-03-29T10:06:59.07Z</time></trkpt><trkpt lat="42.8702102" lon="-8.2960306"><ele>292.3333333333333</ele><time>2026-03-29T10:07:00.071Z</time></trkpt><trkpt lat="42.8704198" lon="-8.2960008"><ele>292.0</ele><time>2026-03-29T10:07:01.07Z</time></trkpt><trkpt lat="42.8706331" lon="-8.2959723"><ele>292.0</ele><time>2026-03-29T10:07:02.07Z</time></trkpt><trkpt lat="42.8708452" lon="-8.2959419"><ele>292.0</ele><time>2026-03-29T10:07:03.07Z</time></trkpt><trkpt lat="42.8710524" lon="-8.2959111"><ele>292.0</ele><time>2026-03-29T10:07:04.07Z</time></trkpt><trkpt lat="42.8712595" lon="-8.2958815"><ele>292.66666666666663</ele><time>2026-03-29T10:07:05.07Z</time></trkpt><trkpt lat="42.8714584" lon="-8.2958378"><ele>293.3333333333333</ele><time>2026-03-29T10:07:06.071Z</time></trkpt><trkpt lat="42.8716489" lon="-8.2957595"><ele>294.0</ele><time>2026-03-29T10:07:07.071Z</time></trkpt><trkpt lat="42.8718205" lon="-8.2956386"><ele>295.0</ele><time>2026-03-29T10:07:08.071Z</time></trkpt><trkpt lat="42.8719663" lon="-8.2954666"><ele>296.0</ele><time>2026-03-29T10:07:09.071Z</time></trkpt><trkpt lat="42.8720874" lon="-8.295249"><ele>297.0</ele><time>2026-03-29T10:07:10.07Z</time></trkpt><trkpt lat="42.8721889" lon="-8.2949987"><ele>296.0</ele><time>2026-03-29T10:07:11.07Z</time></trkpt><trkpt lat="42.8722912" lon="-8.2947376"><ele>295.0</ele><time>2026-03-29T10:07:12.07Z</time></trkpt><trkpt lat="42.8724175" lon="-8.2944864"><ele>294.0</ele><time>2026-03-29T10:07:13.069Z</time></trkpt><trkpt lat="42.8725715" lon="-8.2942641"><ele>296.0</ele><time>2026-03-29T10:07:14.071Z</time></trkpt><trkpt lat="42.8727571" lon="-8.2940773"><ele>298.0</ele><time>2026-03-29T10:07:15.07Z</time></trkpt><trkpt lat="42.872959" lon="-8.2939302"><ele>295.0</ele><time>2026-03-29T10:07:16.071Z</time></trkpt><trkpt lat="42.8731708" lon="-8.2938144"><ele>292.0</ele><time>2026-03-29T10:07:17.07Z</time></trkpt><trkpt lat="42.8733779" lon="-8.2936956"><ele>294.0</ele><time>2026-03-29T10:07:18.07Z</time></trkpt><trkpt lat="42.8735657" lon="-8.2935362"><ele>296.0</ele><time>2026-03-29T10:07:19.07Z</time></trkpt><trkpt lat="42.873726" lon="-8.2933177"><ele>298.0</ele><time>2026-03-29T10:07:20.071Z</time></trkpt><trkpt lat="42.8738638" lon="-8.2930566"><ele>298.0</ele><time>2026-03-29T10:07:21.071Z</time></trkpt><trkpt lat="42.8739942" lon="-8.2927676"><ele>298.0</ele><time>2026-03-29T10:07:22.071Z</time></trkpt><trkpt lat="42.8741277" lon="-8.2924634"><ele>296.0</ele><time>2026-03-29T10:07:23.07Z</time></trkpt><trkpt lat="42.8742637" lon="-8.2921557"><ele>294.0</ele><time>2026-03-29T10:07:24.07Z</time></trkpt><trkpt lat="42.8743984" lon="-8.2918535"><ele>297.0</ele><time>2026-03-29T10:07:25.07Z</time></trkpt><trkpt lat="42.8745242" lon="-8.2915709"><ele>300.0</ele><time>2026-03-29T10:07:26.071Z</time></trkpt><trkpt lat="42.8746491" lon="-8.2913043"><ele>300.0</ele><time>2026-03-29T10:07:27.071Z</time></trkpt><trkpt lat="42.8747702" lon="-8.2910572"><ele>300.0</ele><time>2026-03-29T10:07:28.07Z</time></trkpt><trkpt lat="42.8748855" lon="-8.2908276"><ele>300.0</ele><time>2026-03-29T10:07:29.07Z</time></trkpt><trkpt lat="42.8750103" lon="-8.2906371"><ele>298.0</ele><time>2026-03-29T10:07:30.07Z</time></trkpt><trkpt lat="42.875165" lon="-8.290494"><ele>296.0</ele><time>2026-03-29T10:07:31.07Z</time></trkpt><trkpt lat="42.8753469" lon="-8.2904099"><ele>294.0</ele><time>2026-03-29T10:07:32.071Z</time></trkpt><trkpt lat="42.8755262" lon="-8.2903318"><ele>294.0</ele><time>2026-03-29T10:07:33.07Z</time></trkpt><trkpt lat="42.8757571" lon="-8.2903461"><ele>294.0</ele><time>2026-03-29T10:07:34.071Z</time></trkpt><trkpt lat="42.8759932" lon="-8.2903682"><ele>293.3333333333333</ele><time>2026-03-29T10:07:35.07Z</time></trkpt><trkpt lat="42.8762253" lon="-8.2903839"><ele>292.66666666666663</ele><time>2026-03-29T10:07:36.071Z</time></trkpt><trkpt lat="42.8764391" lon="-8.2903938"><ele>292.0</ele><time>2026-03-29T10:07:37.071Z</time></trkpt><trkpt lat="42.8766397" lon="-8.2903926"><ele>293.66666666666663</ele><time>2026-03-29T10:07:38.071Z</time></trkpt><trkpt lat="42.8768307" lon="-8.290378"><ele>295.3333333333333</ele><time>2026-03-29T10:07:39.07Z</time></trkpt><trkpt lat="42.8770063" lon="-8.2903198"><ele>297.0</ele><time>2026-03-29T10:07:40.07Z</time></trkpt><trkpt lat="42.8771603" lon="-8.2901954"><ele>297.0</ele><time>2026-03-29T10:07:41.071Z</time></trkpt><trkpt lat="42.877272" lon="-8.2900195"><ele>297.0</ele><time>2026-03-29T10:07:42.07Z</time></trkpt><trkpt lat="42.8773376" lon="-8.289806"><ele>297.0</ele><time>2026-03-29T10:07:43.07Z</time></trkpt><trkpt lat="42.8773598" lon="-8.2895536"><ele>297.3333333333333</ele><time>2026-03-29T10:07:44.07Z</time></trkpt><trkpt lat="42.8773676" lon="-8.2892721"><ele>297.66666666666663</ele><time>2026-03-29T10:07:45.07Z</time></trkpt><trkpt lat="42.8773735" lon="-8.2889716"><ele>298.0</ele><time>2026-03-29T10:07:46.071Z</time></trkpt><trkpt lat="42.8773856" lon="-8.2886637"><ele>298.5</ele><time>2026-03-29T10:07:47.07Z</time></trkpt><trkpt lat="42.8773931" lon="-8.2883549"><ele>299.0</ele><time>2026-03-29T10:07:48.07Z</time></trkpt><trkpt lat="42.8774021" lon="-8.2880435"><ele>298.6666666666667</ele><time>2026-03-29T10:07:49.07Z</time></trkpt><trkpt lat="42.8774135" lon="-8.2877429"><ele>298.3333333333333</ele><time>2026-03-29T10:07:50.071Z</time></trkpt><trkpt lat="42.8774221" lon="-8.2874476"><ele>298.0</ele><time>2026-03-29T10:07:51.071Z</time></trkpt><trkpt lat="42.8774322" lon="-8.2871583"><ele>298.0</ele><time>2026-03-29T10:07:52.071Z</time></trkpt><trkpt lat="42.8774442" lon="-8.2868828"><ele>298.0</ele><time>2026-03-29T10:07:53.07Z</time></trkpt><trkpt lat="42.8774746" lon="-8.2866268"><ele>298.0</ele><time>2026-03-29T10:07:54.071Z</time></trkpt><trkpt lat="42.8775275" lon="-8.2863921"><ele>299.3333333333333</ele><time>2026-03-29T10:07:55.071Z</time></trkpt><trkpt lat="42.8776216" lon="-8.2861749"><ele>300.6666666666667</ele><time>2026-03-29T10:07:56.07Z</time></trkpt><trkpt lat="42.8777513" lon="-8.2859736"><ele>302.0</ele><time>2026-03-29T10:07:57.071Z</time></trkpt><trkpt lat="42.8779076" lon="-8.2857953"><ele>302.0</ele><time>2026-03-29T10:07:58.07Z</time></trkpt><trkpt lat="42.8780935" lon="-8.2856415"><ele>302.0</ele><time>2026-03-29T10:07:59.07Z</time></trkpt><trkpt lat="42.8783035" lon="-8.2855088"><ele>302.0</ele><time>2026-03-29T10:08:00.071Z</time></trkpt><trkpt lat="42.8785257" lon="-8.2854006"><ele>295.0</ele><time>2026-03-29T10:08:01.07Z</time></trkpt><trkpt lat="42.8787611" lon="-8.2853037"><ele>288.0</ele><time>2026-03-29T10:08:02.071Z</time></trkpt><trkpt lat="42.8790013" lon="-8.2852183"><ele>288.0</ele><time>2026-03-29T10:08:03.071Z</time></trkpt><trkpt lat="42.8792461" lon="-8.2851467"><ele>288.0</ele><time>2026-03-29T10:08:04.07Z</time></trkpt><trkpt lat="42.8794915" lon="-8.2850826"><ele>285.5</ele><time>2026-03-29T10:08:05.07Z</time></trkpt><trkpt lat="42.8797431" lon="-8.2850347"><ele>283.0</ele><time>2026-03-29T10:08:06.07Z</time></trkpt><trkpt lat="42.8799881" lon="-8.2850069"><ele>281.5</ele><time>2026-03-29T10:08:07.071Z</time></trkpt><trkpt lat="42.8802238" lon="-8.2849894"><ele>280.0</ele><time>2026-03-29T10:08:08.07Z</time></trkpt><trkpt lat="42.880449" lon="-8.2849847"><ele>280.0</ele><time>2026-03-29T10:08:09.07Z</time></trkpt><trkpt lat="42.88066" lon="-8.2849848"><ele>280.0</ele><time>2026-03-29T10:08:10.07Z</time></trkpt><trkpt lat="42.8808519" lon="-8.2849605"><ele>280.0</ele><time>2026-03-29T10:08:11.07Z</time></trkpt><trkpt lat="42.8810137" lon="-8.2848899"><ele>280.3333333333333</ele><time>2026-03-29T10:08:12.071Z</time></trkpt><trkpt lat="42.8811267" lon="-8.284742"><ele>280.6666666666667</ele><time>2026-03-29T10:08:13.07Z</time></trkpt><trkpt lat="42.8812023" lon="-8.2845494"><ele>281.0</ele><time>2026-03-29T10:08:14.07Z</time></trkpt><trkpt lat="42.8812252" lon="-8.2843297"><ele>281.0</ele><time>2026-03-29T10:08:15.07Z</time></trkpt><trkpt lat="42.8811798" lon="-8.2840954"><ele>281.0</ele><time>2026-03-29T10:08:16.07Z</time></trkpt><trkpt lat="42.8810857" lon="-8.2838641"><ele>281.0</ele><time>2026-03-29T10:08:17.07Z</time></trkpt><trkpt lat="42.8809786" lon="-8.2836229"><ele>281.0</ele><time>2026-03-29T10:08:18.07Z</time></trkpt><trkpt lat="42.880914" lon="-8.2833661"><ele>281.0</ele><time>2026-03-29T10:08:19.07Z</time></trkpt><trkpt lat="42.8808601" lon="-8.2831189"><ele>281.0</ele><time>2026-03-29T10:08:20.07Z</time></trkpt><trkpt lat="42.880823" lon="-8.2828632"><ele>281.0</ele><time>2026-03-29T10:08:21.07Z</time></trkpt><trkpt lat="42.8808572" lon="-8.2826582"><ele>281.0</ele><time>2026-03-29T10:08:22.07Z</time></trkpt><trkpt lat="42.8811347" lon="-8.2823639"><ele>285.0</ele><time>2026-03-29T10:08:23.071Z</time></trkpt><trkpt lat="42.8812811" lon="-8.282097"><ele>289.0</ele><time>2026-03-29T10:08:24.07Z</time></trkpt><trkpt lat="42.8813959" lon="-8.2817943"><ele>289.0</ele><time>2026-03-29T10:08:25.07Z</time></trkpt><trkpt lat="42.8814626" lon="-8.2814845"><ele>289.0</ele><time>2026-03-29T10:08:26.071Z</time></trkpt><trkpt lat="42.8814829" lon="-8.2811817"><ele>289.66666666666663</ele><time>2026-03-29T10:08:27.071Z</time></trkpt><trkpt lat="42.8814884" lon="-8.280898"><ele>290.3333333333333</ele><time>2026-03-29T10:08:28.07Z</time></trkpt><trkpt lat="42.881514" lon="-8.2806245"><ele>291.0</ele><time>2026-03-29T10:08:29.071Z</time></trkpt><trkpt lat="42.8815876" lon="-8.2803693"><ele>291.0</ele><time>2026-03-29T10:08:30.071Z</time></trkpt><trkpt lat="42.8817049" lon="-8.2801353"><ele>291.0</ele><time>2026-03-29T10:08:31.07Z</time></trkpt><trkpt lat="42.8818634" lon="-8.2799265"><ele>291.0</ele><time>2026-03-29T10:08:32.071Z</time></trkpt><trkpt lat="42.8820575" lon="-8.2797221"><ele>291.5</ele><time>2026-03-29T10:08:33.07Z</time></trkpt><trkpt lat="42.8822654" lon="-8.2795137"><ele>292.0</ele><time>2026-03-29T10:08:34.07Z</time></trkpt><trkpt lat="42.8824783" lon="-8.2793034"><ele>294.0</ele><time>2026-03-29T10:08:35.071Z</time></trkpt><trkpt lat="42.8826951" lon="-8.2790949"><ele>296.0</ele><time>2026-03-29T10:08:36.071Z</time></trkpt><trkpt lat="42.8829038" lon="-8.2788931"><ele>290.5</ele><time>2026-03-29T10:08:37.07Z</time></trkpt><trkpt lat="42.8831081" lon="-8.2786953"><ele>285.0</ele><time>2026-03-29T10:08:38.07Z</time></trkpt><trkpt lat="42.8833027" lon="-8.2785015"><ele>289.0</ele><time>2026-03-29T10:08:39.071Z</time></trkpt><trkpt lat="42.8834917" lon="-8.2783179"><ele>293.0</ele><time>2026-03-29T10:08:40.07Z</time></trkpt><trkpt lat="42.8836821" lon="-8.2781384"><ele>288.5</ele><time>2026-03-29T10:08:41.07Z</time></trkpt><trkpt lat="42.8838724" lon="-8.2779716"><ele>284.0</ele><time>2026-03-29T10:08:42.071Z</time></trkpt><trkpt lat="42.8840746" lon="-8.2778354"><ele>283.5</ele><time>2026-03-29T10:08:43.071Z</time></trkpt><trkpt lat="42.8842798" lon="-8.2777081"><ele>283.0</ele><time>2026-03-29T10:08:44.071Z</time></trkpt><trkpt lat="42.8845147" lon="-8.2777129"><ele>283.0</ele><time>2026-03-29T10:08:45.071Z</time></trkpt><trkpt lat="42.8847524" lon="-8.2777263"><ele>283.0</ele><time>2026-03-29T10:08:46.071Z</time></trkpt><trkpt lat="42.8849908" lon="-8.277763"><ele>280.0</ele><time>2026-03-29T10:08:47.071Z</time></trkpt><trkpt lat="42.8852301" lon="-8.2778098"><ele>277.0</ele><time>2026-03-29T10:08:48.071Z</time></trkpt><trkpt lat="42.8854733" lon="-8.2778388"><ele>277.0</ele><time>2026-03-29T10:08:49.07Z</time></trkpt><trkpt lat="42.8857188" lon="-8.277825"><ele>277.0</ele><time>2026-03-29T10:08:50.071Z</time></trkpt><trkpt lat="42.8859603" lon="-8.2777797"><ele>276.5</ele><time>2026-03-29T10:08:51.071Z</time></trkpt><trkpt lat="42.8862084" lon="-8.277715"><ele>276.0</ele><time>2026-03-29T10:08:52.07Z</time></trkpt><trkpt lat="42.8864632" lon="-8.2776423"><ele>276.0</ele><time>2026-03-29T10:08:53.071Z</time></trkpt><trkpt lat="42.8867186" lon="-8.2775661"><ele>276.0</ele><time>2026-03-29T10:08:54.071Z</time></trkpt><trkpt lat="42.8869846" lon="-8.2774969"><ele>275.0</ele><time>2026-03-29T10:08:55.07Z</time></trkpt><trkpt lat="42.8872178" lon="-8.2774247"><ele>274.0</ele><time>2026-03-29T10:08:56.07Z</time></trkpt><trkpt lat="42.8874485" lon="-8.2773554"><ele>272.5</ele><time>2026-03-29T10:08:57.071Z</time></trkpt><trkpt lat="42.8876711" lon="-8.2773069"><ele>271.0</ele><time>2026-03-29T10:08:58.07Z</time></trkpt><trkpt lat="42.8878955" lon="-8.2772973"><ele>271.0</ele><time>2026-03-29T10:08:59.071Z</time></trkpt><trkpt lat="42.8881141" lon="-8.2773254"><ele>271.0</ele><time>2026-03-29T10:09:00.07Z</time></trkpt><trkpt lat="42.8883323" lon="-8.2773937"><ele>271.0</ele><time>2026-03-29T10:09:01.071Z</time></trkpt><trkpt lat="42.8885426" lon="-8.2774798"><ele>270.3333333333333</ele><time>2026-03-29T10:09:02.07Z</time></trkpt><trkpt lat="42.8887462" lon="-8.2775607"><ele>269.6666666666667</ele><time>2026-03-29T10:09:03.071Z</time></trkpt><trkpt lat="42.8889469" lon="-8.2776015"><ele>269.0</ele><time>2026-03-29T10:09:04.071Z</time></trkpt><trkpt lat="42.8891429" lon="-8.2776016"><ele>270.0</ele><time>2026-03-29T10:09:05.07Z</time></trkpt><trkpt lat="42.8893338" lon="-8.2775521"><ele>271.0</ele><time>2026-03-29T10:09:06.071Z</time></trkpt><trkpt lat="42.8895095" lon="-8.2774524"><ele>272.0</ele><time>2026-03-29T10:09:07.071Z</time></trkpt><trkpt lat="42.8896639" lon="-8.27731"><ele>272.0</ele><time>2026-03-29T10:09:08.07Z</time></trkpt><trkpt lat="42.8897886" lon="-8.2771292"><ele>272.0</ele><time>2026-03-29T10:09:09.071Z</time></trkpt><trkpt lat="42.8898666" lon="-8.2769201"><ele>272.0</ele><time>2026-03-29T10:09:10.07Z</time></trkpt><trkpt lat="42.8898924" lon="-8.2766848"><ele>272.6666666666667</ele><time>2026-03-29T10:09:11.071Z</time></trkpt><trkpt lat="42.8898623" lon="-8.2764354"><ele>273.3333333333333</ele><time>2026-03-29T10:09:12.071Z</time></trkpt><trkpt lat="42.8897839" lon="-8.2761936"><ele>274.0</ele><time>2026-03-29T10:09:13.07Z</time></trkpt><trkpt lat="42.8896581" lon="-8.275979"><ele>274.0</ele><time>2026-03-29T10:09:14.07Z</time></trkpt><trkpt lat="42.8894929" lon="-8.2758085"><ele>274.0</ele><time>2026-03-29T10:09:15.07Z</time></trkpt><trkpt lat="42.8892983" lon="-8.2756887"><ele>274.0</ele><time>2026-03-29T10:09:16.07Z</time></trkpt><trkpt lat="42.889109" lon="-8.2755571"><ele>278.5</ele><time>2026-03-29T10:09:17.071Z</time></trkpt><trkpt lat="42.8888679" lon="-8.2755406"><ele>283.0</ele><time>2026-03-29T10:09:18.07Z</time></trkpt><trkpt lat="42.8886562" lon="-8.2754735"><ele>283.0</ele><time>2026-03-29T10:09:19.07Z</time></trkpt><trkpt lat="42.8884476" lon="-8.2753676"><ele>283.0</ele><time>2026-03-29T10:09:20.07Z</time></trkpt><trkpt lat="42.8882465" lon="-8.2752412"><ele>283.0</ele><time>2026-03-29T10:09:21.071Z</time></trkpt><trkpt lat="42.8880775" lon="-8.275039"><ele>283.66666666666663</ele><time>2026-03-29T10:09:22.07Z</time></trkpt><trkpt lat="42.8879224" lon="-8.27484"><ele>284.3333333333333</ele><time>2026-03-29T10:09:23.07Z</time></trkpt><trkpt lat="42.8877787" lon="-8.2746493"><ele>285.0</ele><time>2026-03-29T10:09:24.07Z</time></trkpt><trkpt lat="42.8876393" lon="-8.2744613"><ele>285.0</ele><time>2026-03-29T10:09:25.07Z</time></trkpt><trkpt lat="42.8875043" lon="-8.274279"><ele>285.0</ele><time>2026-03-29T10:09:26.07Z</time></trkpt><trkpt lat="42.8873742" lon="-8.2741034"><ele>285.0</ele><time>2026-03-29T10:09:27.07Z</time></trkpt><trkpt lat="42.8872421" lon="-8.2739266"><ele>285.0</ele><time>2026-03-29T10:09:28.071Z</time></trkpt><trkpt lat="42.8871138" lon="-8.2737543"><ele>285.0</ele><time>2026-03-29T10:09:29.07Z</time></trkpt><trkpt lat="42.8869912" lon="-8.2735852"><ele>285.0</ele><time>2026-03-29T10:09:30.071Z</time></trkpt><trkpt lat="42.8868685" lon="-8.2734157"><ele>285.3333333333333</ele><time>2026-03-29T10:09:31.071Z</time></trkpt><trkpt lat="42.8867438" lon="-8.2732457"><ele>285.66666666666663</ele><time>2026-03-29T10:09:32.07Z</time></trkpt><trkpt lat="42.8866182" lon="-8.2730749"><ele>286.0</ele><time>2026-03-29T10:09:33.071Z</time></trkpt><trkpt lat="42.8865012" lon="-8.27291"><ele>286.0</ele><time>2026-03-29T10:09:34.07Z</time></trkpt><trkpt lat="42.8863819" lon="-8.2727467"><ele>286.0</ele><time>2026-03-29T10:09:35.07Z</time></trkpt><trkpt lat="42.8862633" lon="-8.2725867"><ele>286.0</ele><time>2026-03-29T10:09:36.07Z</time></trkpt><trkpt lat="42.8861491" lon="-8.272433"><ele>286.0</ele><time>2026-03-29T10:09:37.071Z</time></trkpt><trkpt lat="42.886036" lon="-8.2722838"><ele>286.0</ele><time>2026-03-29T10:09:38.07Z</time></trkpt><trkpt lat="42.8859248" lon="-8.2721356"><ele>286.0</ele><time>2026-03-29T10:09:39.071Z</time></trkpt><trkpt lat="42.8858161" lon="-8.2719855"><ele>286.25</ele><time>2026-03-29T10:09:40.071Z</time></trkpt><trkpt lat="42.8857106" lon="-8.2718439"><ele>286.5</ele><time>2026-03-29T10:09:41.071Z</time></trkpt><trkpt lat="42.8856126" lon="-8.2717131"><ele>286.75</ele><time>2026-03-29T10:09:42.071Z</time></trkpt><trkpt lat="42.8855273" lon="-8.2715959"><ele>287.0</ele><time>2026-03-29T10:09:43.07Z</time></trkpt><trkpt lat="42.885472" lon="-8.2714616"><ele>288.0</ele><time>2026-03-29T10:09:44.07Z</time></trkpt><trkpt lat="42.8854646" lon="-8.2713075"><ele>289.0</ele><time>2026-03-29T10:09:45.071Z</time></trkpt><trkpt lat="42.8855002" lon="-8.2711392"><ele>290.0</ele><time>2026-03-29T10:09:46.07Z</time></trkpt><trkpt lat="42.885551" lon="-8.2709602"><ele>291.0</ele><time>2026-03-29T10:09:47.07Z</time></trkpt><trkpt lat="42.885593" lon="-8.2707685"><ele>292.5</ele><time>2026-03-29T10:09:48.07Z</time></trkpt><trkpt lat="42.8856053" lon="-8.2705705"><ele>294.0</ele><time>2026-03-29T10:09:49.07Z</time></trkpt><trkpt lat="42.8855726" lon="-8.2703755"><ele>295.5</ele><time>2026-03-29T10:09:50.07Z</time></trkpt><trkpt lat="42.885498" lon="-8.2701914"><ele>297.0</ele><time>2026-03-29T10:09:51.07Z</time></trkpt><trkpt lat="42.8853865" lon="-8.2700279"><ele>297.0</ele><time>2026-03-29T10:09:52.07Z</time></trkpt><trkpt lat="42.8852562" lon="-8.2698853"><ele>297.0</ele><time>2026-03-29T10:09:53.07Z</time></trkpt><trkpt lat="42.8851319" lon="-8.2697255"><ele>297.0</ele><time>2026-03-29T10:09:54.07Z</time></trkpt><trkpt lat="42.8850414" lon="-8.2695284"><ele>296.3333333333333</ele><time>2026-03-29T10:09:55.071Z</time></trkpt><trkpt lat="42.8850043" lon="-8.269298"><ele>295.66666666666663</ele><time>2026-03-29T10:09:56.071Z</time></trkpt><trkpt lat="42.8850024" lon="-8.2690542"><ele>295.0</ele><time>2026-03-29T10:09:57.07Z</time></trkpt><trkpt lat="42.8850165" lon="-8.268802"><ele>295.0</ele><time>2026-03-29T10:09:58.071Z</time></trkpt><trkpt lat="42.8850395" lon="-8.268535"><ele>295.0</ele><time>2026-03-29T10:09:59.071Z</time></trkpt><trkpt lat="42.8850619" lon="-8.2682528"><ele>295.0</ele><time>2026-03-29T10:10:00.07Z</time></trkpt><trkpt lat="42.8850904" lon="-8.2679509"><ele>300.5</ele><time>2026-03-29T10:10:01.071Z</time></trkpt><trkpt lat="42.8851261" lon="-8.2676453"><ele>306.0</ele><time>2026-03-29T10:10:02.071Z</time></trkpt><trkpt lat="42.8851766" lon="-8.2673336"><ele>305.5</ele><time>2026-03-29T10:10:03.07Z</time></trkpt><trkpt lat="42.8852418" lon="-8.2670197"><ele>305.0</ele><time>2026-03-29T10:10:04.07Z</time></trkpt><trkpt lat="42.8853193" lon="-8.266709"><ele>304.0</ele><time>2026-03-29T10:10:05.071Z</time></trkpt><trkpt lat="42.88541" lon="-8.2664089"><ele>303.0</ele><time>2026-03-29T10:10:06.071Z</time></trkpt><trkpt lat="42.8855137" lon="-8.2661156"><ele>303.0</ele><time>2026-03-29T10:10:07.07Z</time></trkpt><trkpt lat="42.8856296" lon="-8.2658278"><ele>303.0</ele><time>2026-03-29T10:10:08.071Z</time></trkpt><trkpt lat="42.8857599" lon="-8.2655467"><ele>301.5</ele><time>2026-03-29T10:10:09.071Z</time></trkpt><trkpt lat="42.8859001" lon="-8.2652746"><ele>300.0</ele><time>2026-03-29T10:10:10.071Z</time></trkpt><trkpt lat="42.8860436" lon="-8.265007"><ele>302.5</ele><time>2026-03-29T10:10:11.07Z</time></trkpt><trkpt lat="42.886187" lon="-8.2647373"><ele>305.0</ele><time>2026-03-29T10:10:12.071Z</time></trkpt><trkpt lat="42.8863252" lon="-8.2644656"><ele>305.0</ele><time>2026-03-29T10:10:13.071Z</time></trkpt><trkpt lat="42.8864638" lon="-8.2641959"><ele>305.0</ele><time>2026-03-29T10:10:14.071Z</time></trkpt><trkpt lat="42.8866075" lon="-8.2639257"><ele>305.0</ele><time>2026-03-29T10:10:15.07Z</time></trkpt><trkpt lat="42.8867527" lon="-8.2636585"><ele>305.0</ele><time>2026-03-29T10:10:16.07Z</time></trkpt><trkpt lat="42.8868972" lon="-8.2633888"><ele>307.0</ele><time>2026-03-29T10:10:17.07Z</time></trkpt><trkpt lat="42.8870423" lon="-8.2631179"><ele>309.0</ele><time>2026-03-29T10:10:18.07Z</time></trkpt><trkpt lat="42.8871912" lon="-8.2628448"><ele>309.0</ele><time>2026-03-29T10:10:19.07Z</time></trkpt><trkpt lat="42.8873388" lon="-8.2625688"><ele>309.0</ele><time>2026-03-29T10:10:20.071Z</time></trkpt><trkpt lat="42.8874905" lon="-8.2622937"><ele>311.0</ele><time>2026-03-29T10:10:21.071Z</time></trkpt><trkpt lat="42.8876406" lon="-8.2620132"><ele>313.0</ele><time>2026-03-29T10:10:22.071Z</time></trkpt><trkpt lat="42.8877909" lon="-8.2617379"><ele>313.0</ele><time>2026-03-29T10:10:23.07Z</time></trkpt><trkpt lat="42.8879425" lon="-8.2614606"><ele>313.0</ele><time>2026-03-29T10:10:24.071Z</time></trkpt><trkpt lat="42.8880909" lon="-8.2611808"><ele>311.5</ele><time>2026-03-29T10:10:25.07Z</time></trkpt><trkpt lat="42.8882376" lon="-8.2609055"><ele>310.0</ele><time>2026-03-29T10:10:26.07Z</time></trkpt><trkpt lat="42.8883854" lon="-8.2606257"><ele>311.0</ele><time>2026-03-29T10:10:27.071Z</time></trkpt><trkpt lat="42.888533" lon="-8.2603509"><ele>312.0</ele><time>2026-03-29T10:10:28.07Z</time></trkpt><trkpt lat="42.8886793" lon="-8.2600752"><ele>312.0</ele><time>2026-03-29T10:10:29.07Z</time></trkpt><trkpt lat="42.8888269" lon="-8.2598019"><ele>312.0</ele><time>2026-03-29T10:10:30.071Z</time></trkpt><trkpt lat="42.8889758" lon="-8.2595262"><ele>312.0</ele><time>2026-03-29T10:10:31.071Z</time></trkpt><trkpt lat="42.8891238" lon="-8.2592519"><ele>312.0</ele><time>2026-03-29T10:10:32.071Z</time></trkpt><trkpt lat="42.8892713" lon="-8.2589772"><ele>314.5</ele><time>2026-03-29T10:10:33.071Z</time></trkpt><trkpt lat="42.8894193" lon="-8.2587031"><ele>317.0</ele><time>2026-03-29T10:10:34.07Z</time></trkpt><trkpt lat="42.8895655" lon="-8.258428"><ele>317.0</ele><time>2026-03-29T10:10:35.07Z</time></trkpt><trkpt lat="42.8897124" lon="-8.2581552"><ele>317.0</ele><time>2026-03-29T10:10:36.071Z</time></trkpt><trkpt lat="42.8898565" lon="-8.2578776"><ele>318.5</ele><time>2026-03-29T10:10:37.07Z</time></trkpt><trkpt lat="42.889988" lon="-8.2575912"><ele>320.0</ele><time>2026-03-29T10:10:38.07Z</time></trkpt><trkpt lat="42.8901006" lon="-8.2572905"><ele>322.0</ele><time>2026-03-29T10:10:39.07Z</time></trkpt><trkpt lat="42.8901977" lon="-8.2569771"><ele>324.0</ele><time>2026-03-29T10:10:40.07Z</time></trkpt><trkpt lat="42.8902798" lon="-8.25665"><ele>325.0</ele><time>2026-03-29T10:10:41.071Z</time></trkpt><trkpt lat="42.8903541" lon="-8.2563133"><ele>326.0</ele><time>2026-03-29T10:10:42.07Z</time></trkpt><trkpt lat="42.890425" lon="-8.2559743"><ele>326.0</ele><time>2026-03-29T10:10:43.07Z</time></trkpt><trkpt lat="42.8904969" lon="-8.2556296"><ele>326.0</ele><time>2026-03-29T10:10:44.071Z</time></trkpt><trkpt lat="42.8905704" lon="-8.2552825"><ele>326.0</ele><time>2026-03-29T10:10:45.07Z</time></trkpt><trkpt lat="42.8906437" lon="-8.254936"><ele>326.0</ele><time>2026-03-29T10:10:46.071Z</time></trkpt><trkpt lat="42.8907159" lon="-8.2545897"><ele>326.0</ele><time>2026-03-29T10:10:47.07Z</time></trkpt><trkpt lat="42.8907902" lon="-8.2542488"><ele>326.0</ele><time>2026-03-29T10:10:48.07Z</time></trkpt><trkpt lat="42.8908638" lon="-8.2539127"><ele>328.5</ele><time>2026-03-29T10:10:49.07Z</time></trkpt><trkpt lat="42.8909519" lon="-8.2535893"><ele>331.0</ele><time>2026-03-29T10:10:50.07Z</time></trkpt><trkpt lat="42.8910598" lon="-8.2532779"><ele>333.0</ele><time>2026-03-29T10:10:51.07Z</time></trkpt><trkpt lat="42.8911891" lon="-8.2529948"><ele>335.0</ele><time>2026-03-29T10:10:52.071Z</time></trkpt><trkpt lat="42.8913271" lon="-8.2527275"><ele>335.0</ele><time>2026-03-29T10:10:53.07Z</time></trkpt><trkpt lat="42.8915154" lon="-8.2525216"><ele>335.0</ele><time>2026-03-29T10:10:54.07Z</time></trkpt><trkpt lat="42.8917164" lon="-8.2523319"><ele>339.5</ele><time>2026-03-29T10:10:55.07Z</time></trkpt><trkpt lat="42.8919317" lon="-8.2521905"><ele>344.0</ele><time>2026-03-29T10:10:56.071Z</time></trkpt><trkpt lat="42.8921506" lon="-8.2520944"><ele>344.0</ele><time>2026-03-29T10:10:57.07Z</time></trkpt><trkpt lat="42.8923776" lon="-8.2520284"><ele>344.0</ele><time>2026-03-29T10:10:58.071Z</time></trkpt><trkpt lat="42.8926191" lon="-8.2519672"><ele>346.5</ele><time>2026-03-29T10:10:59.07Z</time></trkpt><trkpt lat="42.8928539" lon="-8.2519635"><ele>349.0</ele><time>2026-03-29T10:11:00.07Z</time></trkpt><trkpt lat="42.8930723" lon="-8.2519354"><ele>349.0</ele><time>2026-03-29T10:11:01.07Z</time></trkpt><trkpt lat="42.8932893" lon="-8.2518869"><ele>349.0</ele><time>2026-03-29T10:11:02.07Z</time></trkpt><trkpt lat="42.893494" lon="-8.2518027"><ele>349.0</ele><time>2026-03-29T10:11:03.07Z</time></trkpt><trkpt lat="42.8936888" lon="-8.2516749"><ele>348.3333333333333</ele><time>2026-03-29T10:11:04.07Z</time></trkpt><trkpt lat="42.8938664" lon="-8.2515116"><ele>347.6666666666667</ele><time>2026-03-29T10:11:05.07Z</time></trkpt><trkpt lat="42.8940348" lon="-8.2513125"><ele>347.0</ele><time>2026-03-29T10:11:06.07Z</time></trkpt><trkpt lat="42.8941974" lon="-8.2511019"><ele>345.0</ele><time>2026-03-29T10:11:07.07Z</time></trkpt><trkpt lat="42.8943594" lon="-8.2508846"><ele>343.0</ele><time>2026-03-29T10:11:08.07Z</time></trkpt><trkpt lat="42.8945245" lon="-8.2506698"><ele>347.0</ele><time>2026-03-29T10:11:09.07Z</time></trkpt><trkpt lat="42.8946939" lon="-8.250458"><ele>351.0</ele><time>2026-03-29T10:11:10.07Z</time></trkpt><trkpt lat="42.8948609" lon="-8.2502452"><ele>351.0</ele><time>2026-03-29T10:11:11.07Z</time></trkpt><trkpt lat="42.8950205" lon="-8.2500277"><ele>351.0</ele><time>2026-03-29T10:11:12.07Z</time></trkpt><trkpt lat="42.8951727" lon="-8.249804"><ele>351.0</ele><time>2026-03-29T10:11:13.07Z</time></trkpt><trkpt lat="42.8953018" lon="-8.2495598"><ele>350.6666666666667</ele><time>2026-03-29T10:11:14.07Z</time></trkpt><trkpt lat="42.8953957" lon="-8.2492932"><ele>350.33333333333337</ele><time>2026-03-29T10:11:15.071Z</time></trkpt><trkpt lat="42.8954559" lon="-8.2490048"><ele>350.0</ele><time>2026-03-29T10:11:16.07Z</time></trkpt><trkpt lat="42.8954839" lon="-8.2486997"><ele>352.0</ele><time>2026-03-29T10:11:17.071Z</time></trkpt><trkpt lat="42.8954803" lon="-8.2483817"><ele>354.0</ele><time>2026-03-29T10:11:18.07Z</time></trkpt><trkpt lat="42.8954496" lon="-8.2480536"><ele>356.0</ele><time>2026-03-29T10:11:19.07Z</time></trkpt><trkpt lat="42.8954034" lon="-8.2477176"><ele>358.0</ele><time>2026-03-29T10:11:20.071Z</time></trkpt><trkpt lat="42.8953542" lon="-8.2473709"><ele>361.5</ele><time>2026-03-29T10:11:21.07Z</time></trkpt><trkpt lat="42.895305" lon="-8.2470228"><ele>365.0</ele><time>2026-03-29T10:11:22.07Z</time></trkpt><trkpt lat="42.8952564" lon="-8.2466853"><ele>366.0</ele><time>2026-03-29T10:11:23.07Z</time></trkpt><trkpt lat="42.895212" lon="-8.246369"><ele>367.0</ele><time>2026-03-29T10:11:24.07Z</time></trkpt><trkpt lat="42.8951756" lon="-8.246071"><ele>367.0</ele><time>2026-03-29T10:11:25.071Z</time></trkpt><trkpt lat="42.8951669" lon="-8.2457827"><ele>367.0</ele><time>2026-03-29T10:11:26.07Z</time></trkpt><trkpt lat="42.8952022" lon="-8.2454921"><ele>367.0</ele><time>2026-03-29T10:11:27.07Z</time></trkpt><trkpt lat="42.8952785" lon="-8.245206"><ele>372.5</ele><time>2026-03-29T10:11:28.07Z</time></trkpt><trkpt lat="42.8953966" lon="-8.244938"><ele>378.0</ele><time>2026-03-29T10:11:29.07Z</time></trkpt><trkpt lat="42.8955517" lon="-8.2447001"><ele>380.5</ele><time>2026-03-29T10:11:30.07Z</time></trkpt><trkpt lat="42.8957376" lon="-8.2444966"><ele>383.0</ele><time>2026-03-29T10:11:31.07Z</time></trkpt><trkpt lat="42.8959572" lon="-8.2443258"><ele>386.0</ele><time>2026-03-29T10:11:32.071Z</time></trkpt><trkpt lat="42.8961834" lon="-8.2441597"><ele>389.0</ele><time>2026-03-29T10:11:33.07Z</time></trkpt><trkpt lat="42.8964088" lon="-8.2439912"><ele>387.5</ele><time>2026-03-29T10:11:34.07Z</time></trkpt><trkpt lat="42.8966298" lon="-8.2438276"><ele>386.0</ele><time>2026-03-29T10:11:35.071Z</time></trkpt><trkpt lat="42.8968496" lon="-8.2436633"><ele>383.5</ele><time>2026-03-29T10:11:36.071Z</time></trkpt><trkpt lat="42.8970711" lon="-8.2434997"><ele>381.0</ele><time>2026-03-29T10:11:37.071Z</time></trkpt><trkpt lat="42.8972912" lon="-8.2433245"><ele>383.5</ele><time>2026-03-29T10:11:38.071Z</time></trkpt><trkpt lat="42.8975062" lon="-8.2431306"><ele>386.0</ele><time>2026-03-29T10:11:39.07Z</time></trkpt><trkpt lat="42.8977117" lon="-8.2429144"><ele>389.0</ele><time>2026-03-29T10:11:40.07Z</time></trkpt><trkpt lat="42.8979081" lon="-8.2426851"><ele>392.0</ele><time>2026-03-29T10:11:41.07Z</time></trkpt><trkpt lat="42.8980956" lon="-8.242444"><ele>391.0</ele><time>2026-03-29T10:11:42.071Z</time></trkpt><trkpt lat="42.8982723" lon="-8.2421931"><ele>390.0</ele><time>2026-03-29T10:11:43.07Z</time></trkpt><trkpt lat="42.8984369" lon="-8.2419307"><ele>391.5</ele><time>2026-03-29T10:11:44.071Z</time></trkpt><trkpt lat="42.8985925" lon="-8.241656"><ele>393.0</ele><time>2026-03-29T10:11:45.07Z</time></trkpt><trkpt lat="42.8987371" lon="-8.2413668"><ele>393.0</ele><time>2026-03-29T10:11:46.071Z</time></trkpt><trkpt lat="42.8988708" lon="-8.2410681"><ele>393.0</ele><time>2026-03-29T10:11:47.071Z</time></trkpt><trkpt lat="42.898999" lon="-8.2407598"><ele>392.0</ele><time>2026-03-29T10:11:48.07Z</time></trkpt><trkpt lat="42.8991254" lon="-8.2404466"><ele>391.0</ele><time>2026-03-29T10:11:49.07Z</time></trkpt><trkpt lat="42.899252" lon="-8.2401325"><ele>391.0</ele><time>2026-03-29T10:11:50.071Z</time></trkpt><trkpt lat="42.8993796" lon="-8.2398176"><ele>391.0</ele><time>2026-03-29T10:11:51.07Z</time></trkpt><trkpt lat="42.8995079" lon="-8.2395042"><ele>389.0</ele><time>2026-03-29T10:11:52.071Z</time></trkpt><trkpt lat="42.8996361" lon="-8.2391915"><ele>387.0</ele><time>2026-03-29T10:11:53.07Z</time></trkpt><trkpt lat="42.8997613" lon="-8.2388811"><ele>386.5</ele><time>2026-03-29T10:11:54.07Z</time></trkpt><trkpt lat="42.8998864" lon="-8.2385722"><ele>386.0</ele><time>2026-03-29T10:11:55.07Z</time></trkpt><trkpt lat="42.900011" lon="-8.2382661"><ele>386.5</ele><time>2026-03-29T10:11:56.071Z</time></trkpt><trkpt lat="42.9001335" lon="-8.2379606"><ele>387.0</ele><time>2026-03-29T10:11:57.07Z</time></trkpt><trkpt lat="42.9002559" lon="-8.2376583"><ele>387.0</ele><time>2026-03-29T10:11:58.071Z</time></trkpt><trkpt lat="42.9003794" lon="-8.2373574"><ele>387.0</ele><time>2026-03-29T10:11:59.07Z</time></trkpt><trkpt lat="42.9005026" lon="-8.2370566"><ele>389.5</ele><time>2026-03-29T10:12:00.07Z</time></trkpt><trkpt lat="42.9006235" lon="-8.2367574"><ele>392.0</ele><time>2026-03-29T10:12:01.07Z</time></trkpt><trkpt lat="42.9007447" lon="-8.2364616"><ele>394.5</ele><time>2026-03-29T10:12:02.07Z</time></trkpt><trkpt lat="42.9008653" lon="-8.2361678"><ele>397.0</ele><time>2026-03-29T10:12:03.07Z</time></trkpt><trkpt lat="42.9009851" lon="-8.2358737"><ele>401.0</ele><time>2026-03-29T10:12:04.071Z</time></trkpt><trkpt lat="42.901105" lon="-8.2355784"><ele>405.0</ele><time>2026-03-29T10:12:05.07Z</time></trkpt><trkpt lat="42.9012238" lon="-8.2352815"><ele>405.0</ele><time>2026-03-29T10:12:06.07Z</time></trkpt><trkpt lat="42.9013401" lon="-8.2349876"><ele>405.0</ele><time>2026-03-29T10:12:07.071Z</time></trkpt><trkpt lat="42.9014545" lon="-8.2346979"><ele>407.0</ele><time>2026-03-29T10:12:08.07Z</time></trkpt><trkpt lat="42.9015683" lon="-8.234407"><ele>409.0</ele><time>2026-03-29T10:12:09.07Z</time></trkpt><trkpt lat="42.9016843" lon="-8.2341164"><ele>410.5</ele><time>2026-03-29T10:12:10.071Z</time></trkpt><trkpt lat="42.9018008" lon="-8.2338265"><ele>412.0</ele><time>2026-03-29T10:12:11.07Z</time></trkpt><trkpt lat="42.9019167" lon="-8.2335369"><ele>412.0</ele><time>2026-03-29T10:12:12.07Z</time></trkpt><trkpt lat="42.902035" lon="-8.2332505"><ele>412.0</ele><time>2026-03-29T10:12:13.07Z</time></trkpt><trkpt lat="42.902154" lon="-8.2329605"><ele>411.0</ele><time>2026-03-29T10:12:14.07Z</time></trkpt><trkpt lat="42.9022696" lon="-8.2326637"><ele>410.0</ele><time>2026-03-29T10:12:15.07Z</time></trkpt><trkpt lat="42.9023761" lon="-8.2323592"><ele>407.0</ele><time>2026-03-29T10:12:16.07Z</time></trkpt><trkpt lat="42.9024768" lon="-8.232042"><ele>404.0</ele><time>2026-03-29T10:12:17.071Z</time></trkpt><trkpt lat="42.902571" lon="-8.2317155"><ele>405.5</ele><time>2026-03-29T10:12:18.07Z</time></trkpt><trkpt lat="42.9026404" lon="-8.2313794"><ele>407.0</ele><time>2026-03-29T10:12:19.07Z</time></trkpt><trkpt lat="42.9027" lon="-8.2310381"><ele>407.0</ele><time>2026-03-29T10:12:20.07Z</time></trkpt><trkpt lat="42.9027456" lon="-8.2306919"><ele>407.0</ele><time>2026-03-29T10:12:21.07Z</time></trkpt><trkpt lat="42.9027798" lon="-8.2303426"><ele>409.0</ele><time>2026-03-29T10:12:22.07Z</time></trkpt><trkpt lat="42.9028057" lon="-8.2299982"><ele>411.0</ele><time>2026-03-29T10:12:23.071Z</time></trkpt><trkpt lat="42.9028205" lon="-8.2296548"><ele>416.5</ele><time>2026-03-29T10:12:24.071Z</time></trkpt><trkpt lat="42.9028233" lon="-8.2293108"><ele>422.0</ele><time>2026-03-29T10:12:25.07Z</time></trkpt><trkpt lat="42.9028112" lon="-8.228973"><ele>426.5</ele><time>2026-03-29T10:12:26.07Z</time></trkpt><trkpt lat="42.9027884" lon="-8.2286386"><ele>431.0</ele><time>2026-03-29T10:12:27.071Z</time></trkpt><trkpt lat="42.9027603" lon="-8.2283079"><ele>433.0</ele><time>2026-03-29T10:12:28.07Z</time></trkpt><trkpt lat="42.9027352" lon="-8.2279818"><ele>435.0</ele><time>2026-03-29T10:12:29.07Z</time></trkpt><trkpt lat="42.9027219" lon="-8.227664"><ele>435.0</ele><time>2026-03-29T10:12:30.07Z</time></trkpt><trkpt lat="42.9027377" lon="-8.2273398"><ele>435.0</ele><time>2026-03-29T10:12:31.071Z</time></trkpt><trkpt lat="42.9027802" lon="-8.2270221"><ele>434.66666666666663</ele><time>2026-03-29T10:12:32.071Z</time></trkpt><trkpt lat="42.902836" lon="-8.2267166"><ele>434.3333333333333</ele><time>2026-03-29T10:12:33.07Z</time></trkpt><trkpt lat="42.9029072" lon="-8.2264361"><ele>434.0</ele><time>2026-03-29T10:12:34.071Z</time></trkpt><trkpt lat="42.9029895" lon="-8.2261868"><ele>434.0</ele><time>2026-03-29T10:12:35.07Z</time></trkpt><trkpt lat="42.9030821" lon="-8.2259632"><ele>434.0</ele><time>2026-03-29T10:12:36.07Z</time></trkpt><trkpt lat="42.9031811" lon="-8.2257542"><ele>434.0</ele><time>2026-03-29T10:12:37.07Z</time></trkpt><trkpt lat="42.9032814" lon="-8.2255562"><ele>437.0</ele><time>2026-03-29T10:12:38.071Z</time></trkpt><trkpt lat="42.9033816" lon="-8.2253591"><ele>440.0</ele><time>2026-03-29T10:12:39.07Z</time></trkpt><trkpt lat="42.9034954" lon="-8.2251433"><ele>443.0</ele><time>2026-03-29T10:12:40.071Z</time></trkpt><trkpt lat="42.9036278" lon="-8.22489"><ele>439.0</ele><time>2026-03-29T10:12:41.07Z</time></trkpt><trkpt lat="42.9037704" lon="-8.2245948"><ele>435.0</ele><time>2026-03-29T10:12:42.071Z</time></trkpt><trkpt lat="42.9039203" lon="-8.2242606"><ele>427.5</ele><time>2026-03-29T10:12:43.07Z</time></trkpt><trkpt lat="42.9040771" lon="-8.2238985"><ele>420.0</ele><time>2026-03-29T10:12:44.07Z</time></trkpt><trkpt lat="42.9042407" lon="-8.2235329"><ele>419.0</ele><time>2026-03-29T10:12:45.07Z</time></trkpt><trkpt lat="42.9044036" lon="-8.2231745"><ele>418.0</ele><time>2026-03-29T10:12:46.07Z</time></trkpt><trkpt lat="42.9045632" lon="-8.2228382"><ele>418.0</ele><time>2026-03-29T10:12:47.07Z</time></trkpt><trkpt lat="42.9047191" lon="-8.2225151"><ele>418.0</ele><time>2026-03-29T10:12:48.071Z</time></trkpt><trkpt lat="42.9048693" lon="-8.2222028"><ele>420.5</ele><time>2026-03-29T10:12:49.071Z</time></trkpt><trkpt lat="42.9050135" lon="-8.2219006"><ele>423.0</ele><time>2026-03-29T10:12:50.071Z</time></trkpt><trkpt lat="42.9051493" lon="-8.2216141"><ele>421.0</ele><time>2026-03-29T10:12:51.071Z</time></trkpt><trkpt lat="42.905278" lon="-8.2213366"><ele>419.0</ele><time>2026-03-29T10:12:52.07Z</time></trkpt><trkpt lat="42.9053992" lon="-8.2210714"><ele>419.0</ele><time>2026-03-29T10:12:53.071Z</time></trkpt><trkpt lat="42.9055172" lon="-8.2208131"><ele>419.0</ele><time>2026-03-29T10:12:54.07Z</time></trkpt><trkpt lat="42.9056349" lon="-8.2205597"><ele>419.0</ele><time>2026-03-29T10:12:55.07Z</time></trkpt><trkpt lat="42.9057597" lon="-8.2203132"><ele>414.5</ele><time>2026-03-29T10:12:56.07Z</time></trkpt><trkpt lat="42.9058976" lon="-8.2200759"><ele>410.0</ele><time>2026-03-29T10:12:57.07Z</time></trkpt><trkpt lat="42.9060544" lon="-8.2198468"><ele>402.5</ele><time>2026-03-29T10:12:58.07Z</time></trkpt><trkpt lat="42.9062244" lon="-8.2196187"><ele>395.0</ele><time>2026-03-29T10:12:59.071Z</time></trkpt><trkpt lat="42.9064033" lon="-8.2193934"><ele>395.0</ele><time>2026-03-29T10:13:00.071Z</time></trkpt><trkpt lat="42.9065822" lon="-8.2191616"><ele>395.0</ele><time>2026-03-29T10:13:01.07Z</time></trkpt><trkpt lat="42.9067464" lon="-8.2189075"><ele>393.5</ele><time>2026-03-29T10:13:02.07Z</time></trkpt><trkpt lat="42.9068683" lon="-8.2186069"><ele>392.0</ele><time>2026-03-29T10:13:03.07Z</time></trkpt><trkpt lat="42.9069643" lon="-8.2182942"><ele>391.0</ele><time>2026-03-29T10:13:04.07Z</time></trkpt><trkpt lat="42.9070426" lon="-8.2179608"><ele>390.0</ele><time>2026-03-29T10:13:05.071Z</time></trkpt><trkpt lat="42.9071049" lon="-8.2176116"><ele>389.0</ele><time>2026-03-29T10:13:06.07Z</time></trkpt><trkpt lat="42.9071625" lon="-8.2172524"><ele>388.0</ele><time>2026-03-29T10:13:07.07Z</time></trkpt><trkpt lat="42.9072198" lon="-8.2169"><ele>388.0</ele><time>2026-03-29T10:13:08.07Z</time></trkpt><trkpt lat="42.9072724" lon="-8.2165582"><ele>388.0</ele><time>2026-03-29T10:13:09.07Z</time></trkpt><trkpt lat="42.9073342" lon="-8.2162283"><ele>387.0</ele><time>2026-03-29T10:13:10.07Z</time></trkpt><trkpt lat="42.9074109" lon="-8.2159188"><ele>386.0</ele><time>2026-03-29T10:13:11.07Z</time></trkpt><trkpt lat="42.9075088" lon="-8.2156361"><ele>387.66666666666663</ele><time>2026-03-29T10:13:12.07Z</time></trkpt><trkpt lat="42.9076259" lon="-8.2153782"><ele>389.33333333333337</ele><time>2026-03-29T10:13:13.07Z</time></trkpt><trkpt lat="42.9077654" lon="-8.2151475"><ele>391.0</ele><time>2026-03-29T10:13:14.07Z</time></trkpt><trkpt lat="42.9079099" lon="-8.2149486"><ele>388.5</ele><time>2026-03-29T10:13:15.07Z</time></trkpt><trkpt lat="42.9080987" lon="-8.2147624"><ele>386.0</ele><time>2026-03-29T10:13:16.07Z</time></trkpt><trkpt lat="42.9082945" lon="-8.2146002"><ele>382.66666666666663</ele><time>2026-03-29T10:13:17.07Z</time></trkpt><trkpt lat="42.9084891" lon="-8.2144714"><ele>379.3333333333333</ele><time>2026-03-29T10:13:18.071Z</time></trkpt><trkpt lat="42.9086935" lon="-8.2143594"><ele>376.0</ele><time>2026-03-29T10:13:19.07Z</time></trkpt><trkpt lat="42.9089206" lon="-8.2143173"><ele>376.0</ele><time>2026-03-29T10:13:20.071Z</time></trkpt><trkpt lat="42.909146" lon="-8.2142936"><ele>376.0</ele><time>2026-03-29T10:13:21.07Z</time></trkpt><trkpt lat="42.9093672" lon="-8.2143023"><ele>376.0</ele><time>2026-03-29T10:13:22.07Z</time></trkpt><trkpt lat="42.9095939" lon="-8.2143262"><ele>372.0</ele><time>2026-03-29T10:13:23.07Z</time></trkpt><trkpt lat="42.9098291" lon="-8.2143998"><ele>368.0</ele><time>2026-03-29T10:13:24.07Z</time></trkpt><trkpt lat="42.9100683" lon="-8.2144696"><ele>366.5</ele><time>2026-03-29T10:13:25.07Z</time></trkpt><trkpt lat="42.9102823" lon="-8.214668"><ele>365.0</ele><time>2026-03-29T10:13:26.071Z</time></trkpt><trkpt lat="42.910497" lon="-8.2148591"><ele>365.0</ele><time>2026-03-29T10:13:27.071Z</time></trkpt><trkpt lat="42.9107089" lon="-8.215054"><ele>365.0</ele><time>2026-03-29T10:13:28.07Z</time></trkpt><trkpt lat="42.9109234" lon="-8.2152476"><ele>358.5</ele><time>2026-03-29T10:13:29.07Z</time></trkpt><trkpt lat="42.9111268" lon="-8.2154367"><ele>352.0</ele><time>2026-03-29T10:13:30.07Z</time></trkpt><trkpt lat="42.9113198" lon="-8.2156081"><ele>351.3333333333333</ele><time>2026-03-29T10:13:31.071Z</time></trkpt><trkpt lat="42.9115015" lon="-8.2157667"><ele>350.6666666666667</ele><time>2026-03-29T10:13:32.071Z</time></trkpt><trkpt lat="42.9116649" lon="-8.2159244"><ele>350.0</ele><time>2026-03-29T10:13:33.071Z</time></trkpt><trkpt lat="42.9118226" lon="-8.2160175"><ele>350.0</ele><time>2026-03-29T10:13:34.07Z</time></trkpt><trkpt lat="42.9119827" lon="-8.2160624"><ele>350.0</ele><time>2026-03-29T10:13:35.071Z</time></trkpt><trkpt lat="42.9121456" lon="-8.2160516"><ele>350.0</ele><time>2026-03-29T10:13:36.071Z</time></trkpt><trkpt lat="42.9123" lon="-8.215968"><ele>350.0</ele><time>2026-03-29T10:13:37.071Z</time></trkpt><trkpt lat="42.9124329" lon="-8.2158153"><ele>350.0</ele><time>2026-03-29T10:13:38.07Z</time></trkpt><trkpt lat="42.9125262" lon="-8.21561"><ele>350.0</ele><time>2026-03-29T10:13:39.07Z</time></trkpt><trkpt lat="42.9125688" lon="-8.2153627"><ele>350.0</ele><time>2026-03-29T10:13:40.07Z</time></trkpt><trkpt lat="42.9125709" lon="-8.2150886"><ele>350.0</ele><time>2026-03-29T10:13:41.07Z</time></trkpt><trkpt lat="42.9125557" lon="-8.214802"><ele>350.0</ele><time>2026-03-29T10:13:42.071Z</time></trkpt><trkpt lat="42.91256" lon="-8.2145222"><ele>350.6666666666667</ele><time>2026-03-29T10:13:43.071Z</time></trkpt><trkpt lat="42.9126065" lon="-8.2142555"><ele>351.3333333333333</ele><time>2026-03-29T10:13:44.07Z</time></trkpt><trkpt lat="42.9126986" lon="-8.21399"><ele>352.0</ele><time>2026-03-29T10:13:45.07Z</time></trkpt><trkpt lat="42.9128183" lon="-8.2137223"><ele>353.0</ele><time>2026-03-29T10:13:46.071Z</time></trkpt><trkpt lat="42.9129498" lon="-8.213452"><ele>354.0</ele><time>2026-03-29T10:13:47.07Z</time></trkpt><trkpt lat="42.9130807" lon="-8.2131711"><ele>352.5</ele><time>2026-03-29T10:13:48.071Z</time></trkpt><trkpt lat="42.9132048" lon="-8.2128941"><ele>351.0</ele><time>2026-03-29T10:13:49.07Z</time></trkpt><trkpt lat="42.9133238" lon="-8.2126399"><ele>352.0</ele><time>2026-03-29T10:13:50.07Z</time></trkpt><trkpt lat="42.9134393" lon="-8.212405"><ele>353.0</ele><time>2026-03-29T10:13:51.07Z</time></trkpt><trkpt lat="42.9135698" lon="-8.2121905"><ele>354.0</ele><time>2026-03-29T10:13:52.07Z</time></trkpt><trkpt lat="42.9137306" lon="-8.2120037"><ele>351.0</ele><time>2026-03-29T10:13:53.07Z</time></trkpt><trkpt lat="42.9139151" lon="-8.2118402"><ele>348.0</ele><time>2026-03-29T10:13:54.07Z</time></trkpt><trkpt lat="42.9141187" lon="-8.2116888"><ele>347.5</ele><time>2026-03-29T10:13:55.07Z</time></trkpt><trkpt lat="42.9143242" lon="-8.2115327"><ele>347.0</ele><time>2026-03-29T10:13:56.071Z</time></trkpt><trkpt lat="42.9145338" lon="-8.2113734"><ele>345.0</ele><time>2026-03-29T10:13:57.07Z</time></trkpt><trkpt lat="42.91474" lon="-8.2112145"><ele>343.0</ele><time>2026-03-29T10:13:58.07Z</time></trkpt><trkpt lat="42.9149304" lon="-8.2110498"><ele>344.66666666666663</ele><time>2026-03-29T10:13:59.071Z</time></trkpt><trkpt lat="42.9150953" lon="-8.2108574"><ele>346.3333333333333</ele><time>2026-03-29T10:14:00.071Z</time></trkpt><trkpt lat="42.9152306" lon="-8.2106246"><ele>348.0</ele><time>2026-03-29T10:14:01.07Z</time></trkpt><trkpt lat="42.9153412" lon="-8.2103555"><ele>348.5</ele><time>2026-03-29T10:14:02.071Z</time></trkpt><trkpt lat="42.9154238" lon="-8.2100577"><ele>349.0</ele><time>2026-03-29T10:14:03.07Z</time></trkpt><trkpt lat="42.9154921" lon="-8.2097346"><ele>349.0</ele><time>2026-03-29T10:14:04.07Z</time></trkpt><trkpt lat="42.9155595" lon="-8.209396"><ele>349.0</ele><time>2026-03-29T10:14:05.071Z</time></trkpt><trkpt lat="42.9156276" lon="-8.2090462"><ele>350.0</ele><time>2026-03-29T10:14:06.071Z</time></trkpt><trkpt lat="42.915698" lon="-8.2087026"><ele>351.0</ele><time>2026-03-29T10:14:07.071Z</time></trkpt><trkpt lat="42.9157655" lon="-8.2083749"><ele>353.0</ele><time>2026-03-29T10:14:08.07Z</time></trkpt><trkpt lat="42.9158269" lon="-8.2080715"><ele>355.0</ele><time>2026-03-29T10:14:09.071Z</time></trkpt><trkpt lat="42.9158863" lon="-8.2077937"><ele>357.0</ele><time>2026-03-29T10:14:10.07Z</time></trkpt><trkpt lat="42.9159535" lon="-8.2075439"><ele>356.6666666666667</ele><time>2026-03-29T10:14:11.07Z</time></trkpt><trkpt lat="42.9160492" lon="-8.2073197"><ele>356.33333333333337</ele><time>2026-03-29T10:14:12.071Z</time></trkpt><trkpt lat="42.9161732" lon="-8.2071204"><ele>356.0</ele><time>2026-03-29T10:14:13.071Z</time></trkpt><trkpt lat="42.9162961" lon="-8.2069279"><ele>356.0</ele><time>2026-03-29T10:14:14.071Z</time></trkpt><trkpt lat="42.9165137" lon="-8.2068183"><ele>356.0</ele><time>2026-03-29T10:14:15.071Z</time></trkpt><trkpt lat="42.9167221" lon="-8.2067023"><ele>353.5</ele><time>2026-03-29T10:14:16.07Z</time></trkpt><trkpt lat="42.9169442" lon="-8.206586"><ele>351.0</ele><time>2026-03-29T10:14:17.07Z</time></trkpt><trkpt lat="42.9171783" lon="-8.2064628"><ele>349.0</ele><time>2026-03-29T10:14:18.07Z</time></trkpt><trkpt lat="42.9174168" lon="-8.2063295"><ele>347.0</ele><time>2026-03-29T10:14:19.071Z</time></trkpt><trkpt lat="42.9176548" lon="-8.2061963"><ele>345.5</ele><time>2026-03-29T10:14:20.07Z</time></trkpt><trkpt lat="42.9178853" lon="-8.2060678"><ele>344.0</ele><time>2026-03-29T10:14:21.07Z</time></trkpt><trkpt lat="42.9181028" lon="-8.2059421"><ele>344.0</ele><time>2026-03-29T10:14:22.071Z</time></trkpt><trkpt lat="42.9183013" lon="-8.2057971"><ele>344.0</ele><time>2026-03-29T10:14:23.071Z</time></trkpt><trkpt lat="42.918475" lon="-8.2056038"><ele>344.0</ele><time>2026-03-29T10:14:24.07Z</time></trkpt><trkpt lat="42.9186256" lon="-8.2053617"><ele>345.5</ele><time>2026-03-29T10:14:25.07Z</time></trkpt><trkpt lat="42.918747" lon="-8.2050877"><ele>347.0</ele><time>2026-03-29T10:14:26.07Z</time></trkpt><trkpt lat="42.9188297" lon="-8.2047797"><ele>348.0</ele><time>2026-03-29T10:14:27.07Z</time></trkpt><trkpt lat="42.9188632" lon="-8.2044487"><ele>349.0</ele><time>2026-03-29T10:14:28.071Z</time></trkpt><trkpt lat="42.9188626" lon="-8.2041261"><ele>348.0</ele><time>2026-03-29T10:14:29.071Z</time></trkpt><trkpt lat="42.9188525" lon="-8.2038282"><ele>347.0</ele><time>2026-03-29T10:14:30.071Z</time></trkpt><trkpt lat="42.9188682" lon="-8.2035566"><ele>346.0</ele><time>2026-03-29T10:14:31.07Z</time></trkpt><trkpt lat="42.9189222" lon="-8.2032997"><ele>345.3333333333333</ele><time>2026-03-29T10:14:32.071Z</time></trkpt><trkpt lat="42.9190189" lon="-8.203076"><ele>344.6666666666667</ele><time>2026-03-29T10:14:33.071Z</time></trkpt><trkpt lat="42.9191442" lon="-8.2028903"><ele>344.0</ele><time>2026-03-29T10:14:34.071Z</time></trkpt><trkpt lat="42.9192899" lon="-8.202742"><ele>345.6666666666667</ele><time>2026-03-29T10:14:35.071Z</time></trkpt><trkpt lat="42.9194486" lon="-8.2026198"><ele>347.3333333333333</ele><time>2026-03-29T10:14:36.07Z</time></trkpt><trkpt lat="42.9196088" lon="-8.2025018"><ele>349.0</ele><time>2026-03-29T10:14:37.07Z</time></trkpt><trkpt lat="42.9197669" lon="-8.2023881"><ele>348.0</ele><time>2026-03-29T10:14:38.071Z</time></trkpt><trkpt lat="42.9199242" lon="-8.2022757"><ele>347.0</ele><time>2026-03-29T10:14:39.07Z</time></trkpt><trkpt lat="42.9200804" lon="-8.2021663"><ele>346.0</ele><time>2026-03-29T10:14:40.07Z</time></trkpt><trkpt lat="42.9202376" lon="-8.2020558"><ele>346.0</ele><time>2026-03-29T10:14:41.07Z</time></trkpt><trkpt lat="42.9203925" lon="-8.201949"><ele>346.0</ele><time>2026-03-29T10:14:42.07Z</time></trkpt><trkpt lat="42.9205442" lon="-8.201841"><ele>346.0</ele><time>2026-03-29T10:14:43.07Z</time></trkpt><trkpt lat="42.9206923" lon="-8.2017429"><ele>346.0</ele><time>2026-03-29T10:14:44.07Z</time></trkpt><trkpt lat="42.9208373" lon="-8.201658"><ele>346.0</ele><time>2026-03-29T10:14:45.07Z</time></trkpt><trkpt lat="42.9209814" lon="-8.2015889"><ele>346.0</ele><time>2026-03-29T10:14:46.071Z</time></trkpt><trkpt lat="42.9211264" lon="-8.2015417"><ele>345.75</ele><time>2026-03-29T10:14:47.07Z</time></trkpt><trkpt lat="42.9212665" lon="-8.2015096"><ele>345.5</ele><time>2026-03-29T10:14:48.071Z</time></trkpt><trkpt lat="42.9213984" lon="-8.2014899"><ele>345.25</ele><time>2026-03-29T10:14:49.07Z</time></trkpt><trkpt lat="42.9215149" lon="-8.2014766"><ele>345.0</ele><time>2026-03-29T10:14:50.07Z</time></trkpt><trkpt lat="42.9216198" lon="-8.2014688"><ele>345.0</ele><time>2026-03-29T10:14:51.07Z</time></trkpt><trkpt lat="42.9217072" lon="-8.201453"><ele>345.0</ele><time>2026-03-29T10:14:52.071Z</time></trkpt><trkpt lat="42.921785" lon="-8.2014075"><ele>345.0</ele><time>2026-03-29T10:14:53.071Z</time></trkpt><trkpt lat="42.9218468" lon="-8.201328"><ele>345.0</ele><time>2026-03-29T10:14:54.07Z</time></trkpt><trkpt lat="42.9218966" lon="-8.2012186"><ele>345.0</ele><time>2026-03-29T10:14:55.07Z</time></trkpt><trkpt lat="42.9219571" lon="-8.2011118"><ele>344.8</ele><time>2026-03-29T10:14:56.07Z</time></trkpt><trkpt lat="42.922024" lon="-8.2010203"><ele>344.6</ele><time>2026-03-29T10:14:57.071Z</time></trkpt><trkpt lat="42.9220987" lon="-8.2009394"><ele>344.4</ele><time>2026-03-29T10:14:58.07Z</time></trkpt><trkpt lat="42.9221944" lon="-8.2008989"><ele>344.2</ele><time>2026-03-29T10:14:59.07Z</time></trkpt><trkpt lat="42.9223454" lon="-8.2009579"><ele>344.0</ele><time>2026-03-29T10:15:00.07Z</time></trkpt><trkpt lat="42.9224605" lon="-8.2010136"><ele>344.0</ele><time>2026-03-29T10:15:01.07Z</time></trkpt><trkpt lat="42.9225801" lon="-8.20108"><ele>344.0</ele><time>2026-03-29T10:15:02.07Z</time></trkpt><trkpt lat="42.9226959" lon="-8.2011336"><ele>344.0</ele><time>2026-03-29T10:15:03.07Z</time></trkpt><trkpt lat="42.9228002" lon="-8.2011437"><ele>344.0</ele><time>2026-03-29T10:15:04.07Z</time></trkpt><trkpt lat="42.9228933" lon="-8.2011116"><ele>344.0</ele><time>2026-03-29T10:15:05.071Z</time></trkpt><trkpt lat="42.9229925" lon="-8.2010393"><ele>344.0</ele><time>2026-03-29T10:15:06.071Z</time></trkpt><trkpt lat="42.9230913" lon="-8.2009508"><ele>344.0</ele><time>2026-03-29T10:15:07.07Z</time></trkpt><trkpt lat="42.923204" lon="-8.2008531"><ele>344.0</ele><time>2026-03-29T10:15:08.07Z</time></trkpt><trkpt lat="42.9233249" lon="-8.2007451"><ele>341.6666666666667</ele><time>2026-03-29T10:15:09.071Z</time></trkpt><trkpt lat="42.9234507" lon="-8.2006211"><ele>339.3333333333333</ele><time>2026-03-29T10:15:10.071Z</time></trkpt><trkpt lat="42.9235753" lon="-8.2004748"><ele>337.0</ele><time>2026-03-29T10:15:11.071Z</time></trkpt><trkpt lat="42.9236943" lon="-8.2002943"><ele>337.0</ele><time>2026-03-29T10:15:12.07Z</time></trkpt><trkpt lat="42.9237952" lon="-8.2000897"><ele>337.0</ele><time>2026-03-29T10:15:13.07Z</time></trkpt><trkpt lat="42.9238709" lon="-8.199866"><ele>337.0</ele><time>2026-03-29T10:15:14.07Z</time></trkpt><trkpt lat="42.9239161" lon="-8.1996257"><ele>338.3333333333333</ele><time>2026-03-29T10:15:15.071Z</time></trkpt><trkpt lat="42.9239335" lon="-8.1993789"><ele>339.6666666666667</ele><time>2026-03-29T10:15:16.07Z</time></trkpt><trkpt lat="42.9239196" lon="-8.1991329"><ele>341.0</ele><time>2026-03-29T10:15:17.07Z</time></trkpt><trkpt lat="42.9238805" lon="-8.1988944"><ele>344.33333333333337</ele><time>2026-03-29T10:15:18.071Z</time></trkpt><trkpt lat="42.9238164" lon="-8.1986658"><ele>347.6666666666667</ele><time>2026-03-29T10:15:19.07Z</time></trkpt><trkpt lat="42.9237334" lon="-8.1984528"><ele>351.0</ele><time>2026-03-29T10:15:20.071Z</time></trkpt><trkpt lat="42.9236296" lon="-8.1982564"><ele>350.3333333333333</ele><time>2026-03-29T10:15:21.07Z</time></trkpt><trkpt lat="42.9235123" lon="-8.198077"><ele>349.66666666666663</ele><time>2026-03-29T10:15:22.07Z</time></trkpt><trkpt lat="42.9233863" lon="-8.1979027"><ele>349.0</ele><time>2026-03-29T10:15:23.071Z</time></trkpt><trkpt lat="42.9232576" lon="-8.1977279"><ele>349.0</ele><time>2026-03-29T10:15:24.07Z</time></trkpt><trkpt lat="42.9231317" lon="-8.197543"><ele>349.0</ele><time>2026-03-29T10:15:25.07Z</time></trkpt><trkpt lat="42.9230135" lon="-8.1973459"><ele>349.0</ele><time>2026-03-29T10:15:26.071Z</time></trkpt><trkpt lat="42.922906" lon="-8.1971354"><ele>350.0</ele><time>2026-03-29T10:15:27.07Z</time></trkpt><trkpt lat="42.9228058" lon="-8.1969155"><ele>351.0</ele><time>2026-03-29T10:15:28.071Z</time></trkpt><trkpt lat="42.9227108" lon="-8.1966932"><ele>352.0</ele><time>2026-03-29T10:15:29.071Z</time></trkpt><trkpt lat="42.9226128" lon="-8.1964685"><ele>352.0</ele><time>2026-03-29T10:15:30.07Z</time></trkpt><trkpt lat="42.9225189" lon="-8.1962445"><ele>352.0</ele><time>2026-03-29T10:15:31.071Z</time></trkpt><trkpt lat="42.9224213" lon="-8.1960198"><ele>352.0</ele><time>2026-03-29T10:15:32.07Z</time></trkpt><trkpt lat="42.9223264" lon="-8.1957938"><ele>353.0</ele><time>2026-03-29T10:15:33.07Z</time></trkpt><trkpt lat="42.9222337" lon="-8.1955648"><ele>354.0</ele><time>2026-03-29T10:15:34.07Z</time></trkpt><trkpt lat="42.9221427" lon="-8.1953402"><ele>355.0</ele><time>2026-03-29T10:15:35.07Z</time></trkpt><trkpt lat="42.9220475" lon="-8.195117"><ele>355.0</ele><time>2026-03-29T10:15:36.071Z</time></trkpt><trkpt lat="42.9219512" lon="-8.1948923"><ele>355.0</ele><time>2026-03-29T10:15:37.071Z</time></trkpt><trkpt lat="42.9218557" lon="-8.1946709"><ele>355.0</ele><time>2026-03-29T10:15:38.071Z</time></trkpt><trkpt lat="42.9217614" lon="-8.19445"><ele>356.0</ele><time>2026-03-29T10:15:39.07Z</time></trkpt><trkpt lat="42.9216709" lon="-8.1942296"><ele>357.0</ele><time>2026-03-29T10:15:40.07Z</time></trkpt><trkpt lat="42.9215805" lon="-8.1940037"><ele>358.0</ele><time>2026-03-29T10:15:41.07Z</time></trkpt><trkpt lat="42.9214903" lon="-8.193778"><ele>359.3333333333333</ele><time>2026-03-29T10:15:42.071Z</time></trkpt><trkpt lat="42.9214013" lon="-8.1935552"><ele>360.6666666666667</ele><time>2026-03-29T10:15:43.07Z</time></trkpt><trkpt lat="42.9213086" lon="-8.1933363"><ele>362.0</ele><time>2026-03-29T10:15:44.07Z</time></trkpt><trkpt lat="42.9212192" lon="-8.193122"><ele>363.0</ele><time>2026-03-29T10:15:45.07Z</time></trkpt><trkpt lat="42.9211381" lon="-8.1929059"><ele>364.0</ele><time>2026-03-29T10:15:46.071Z</time></trkpt><trkpt lat="42.9210804" lon="-8.1926762"><ele>365.0</ele><time>2026-03-29T10:15:47.071Z</time></trkpt><trkpt lat="42.921057" lon="-8.1924384"><ele>366.0</ele><time>2026-03-29T10:15:48.07Z</time></trkpt><trkpt lat="42.9210582" lon="-8.1921919"><ele>367.0</ele><time>2026-03-29T10:15:49.07Z</time></trkpt><trkpt lat="42.9210899" lon="-8.1919462"><ele>368.0</ele><time>2026-03-29T10:15:50.07Z</time></trkpt><trkpt lat="42.9211468" lon="-8.191706"><ele>367.6666666666667</ele><time>2026-03-29T10:15:51.071Z</time></trkpt><trkpt lat="42.9212253" lon="-8.1914755"><ele>367.3333333333333</ele><time>2026-03-29T10:15:52.07Z</time></trkpt><trkpt lat="42.9213291" lon="-8.1912627"><ele>367.0</ele><time>2026-03-29T10:15:53.071Z</time></trkpt><trkpt lat="42.9214451" lon="-8.1910542"><ele>367.0</ele><time>2026-03-29T10:15:54.07Z</time></trkpt><trkpt lat="42.9215618" lon="-8.1908486"><ele>367.0</ele><time>2026-03-29T10:15:55.07Z</time></trkpt><trkpt lat="42.9216776" lon="-8.1906409"><ele>367.0</ele><time>2026-03-29T10:15:56.071Z</time></trkpt><trkpt lat="42.9217926" lon="-8.1904324"><ele>367.3333333333333</ele><time>2026-03-29T10:15:57.071Z</time></trkpt><trkpt lat="42.9219047" lon="-8.1902233"><ele>367.6666666666667</ele><time>2026-03-29T10:15:58.071Z</time></trkpt><trkpt lat="42.9220134" lon="-8.1900229"><ele>368.0</ele><time>2026-03-29T10:15:59.071Z</time></trkpt><trkpt lat="42.9221138" lon="-8.1898284"><ele>366.33333333333337</ele><time>2026-03-29T10:16:00.07Z</time></trkpt><trkpt lat="42.9222119" lon="-8.1896435"><ele>364.6666666666667</ele><time>2026-03-29T10:16:01.07Z</time></trkpt><trkpt lat="42.9223117" lon="-8.1894531"><ele>363.0</ele><time>2026-03-29T10:16:02.071Z</time></trkpt><trkpt lat="42.9224192" lon="-8.1892556"><ele>363.0</ele><time>2026-03-29T10:16:03.07Z</time></trkpt><trkpt lat="42.9225304" lon="-8.189055"><ele>363.0</ele><time>2026-03-29T10:16:04.07Z</time></trkpt><trkpt lat="42.9226415" lon="-8.1888573"><ele>363.0</ele><time>2026-03-29T10:16:05.07Z</time></trkpt><trkpt lat="42.9227532" lon="-8.1886582"><ele>361.3333333333333</ele><time>2026-03-29T10:16:06.071Z</time></trkpt><trkpt lat="42.9228673" lon="-8.188474"><ele>359.66666666666663</ele><time>2026-03-29T10:16:07.07Z</time></trkpt><trkpt lat="42.9229861" lon="-8.188306"><ele>358.0</ele><time>2026-03-29T10:16:08.07Z</time></trkpt><trkpt lat="42.9231161" lon="-8.1881521"><ele>355.3333333333333</ele><time>2026-03-29T10:16:09.071Z</time></trkpt><trkpt lat="42.9232569" lon="-8.1880181"><ele>352.6666666666667</ele><time>2026-03-29T10:16:10.07Z</time></trkpt><trkpt lat="42.92341" lon="-8.1879195"><ele>350.0</ele><time>2026-03-29T10:16:11.071Z</time></trkpt><trkpt lat="42.9235731" lon="-8.1878517"><ele>348.6666666666667</ele><time>2026-03-29T10:16:12.07Z</time></trkpt><trkpt lat="42.9237433" lon="-8.1878177"><ele>347.3333333333333</ele><time>2026-03-29T10:16:13.07Z</time></trkpt><trkpt lat="42.9239216" lon="-8.1877986"><ele>346.0</ele><time>2026-03-29T10:16:14.071Z</time></trkpt><trkpt lat="42.9240994" lon="-8.1877874"><ele>344.66666666666663</ele><time>2026-03-29T10:16:15.071Z</time></trkpt><trkpt lat="42.9242811" lon="-8.1877754"><ele>343.3333333333333</ele><time>2026-03-29T10:16:16.071Z</time></trkpt><trkpt lat="42.9244584" lon="-8.1877572"><ele>342.0</ele><time>2026-03-29T10:16:17.07Z</time></trkpt><trkpt lat="42.9246359" lon="-8.1877296"><ele>342.0</ele><time>2026-03-29T10:16:18.07Z</time></trkpt><trkpt lat="42.9248125" lon="-8.1876869"><ele>342.0</ele><time>2026-03-29T10:16:19.071Z</time></trkpt><trkpt lat="42.9249831" lon="-8.1876293"><ele>342.0</ele><time>2026-03-29T10:16:20.071Z</time></trkpt><trkpt lat="42.9251517" lon="-8.1875571"><ele>341.0</ele><time>2026-03-29T10:16:21.071Z</time></trkpt><trkpt lat="42.9253227" lon="-8.1874858"><ele>340.0</ele><time>2026-03-29T10:16:22.07Z</time></trkpt><trkpt lat="42.92549" lon="-8.1874126"><ele>339.0</ele><time>2026-03-29T10:16:23.07Z</time></trkpt><trkpt lat="42.9256569" lon="-8.1873496"><ele>336.3333333333333</ele><time>2026-03-29T10:16:24.07Z</time></trkpt><trkpt lat="42.925823" lon="-8.1872837"><ele>333.66666666666663</ele><time>2026-03-29T10:16:25.071Z</time></trkpt><trkpt lat="42.9259884" lon="-8.1872128"><ele>331.0</ele><time>2026-03-29T10:16:26.07Z</time></trkpt><trkpt lat="42.9261564" lon="-8.1871453"><ele>331.0</ele><time>2026-03-29T10:16:27.07Z</time></trkpt><trkpt lat="42.9263209" lon="-8.1870781"><ele>331.0</ele><time>2026-03-29T10:16:28.071Z</time></trkpt><trkpt lat="42.9264866" lon="-8.1870085"><ele>331.0</ele><time>2026-03-29T10:16:29.07Z</time></trkpt><trkpt lat="42.9266488" lon="-8.1869282"><ele>331.3333333333333</ele><time>2026-03-29T10:16:30.07Z</time></trkpt><trkpt lat="42.9268012" lon="-8.1868386"><ele>331.6666666666667</ele><time>2026-03-29T10:16:31.07Z</time></trkpt><trkpt lat="42.9269495" lon="-8.1867297"><ele>332.0</ele><time>2026-03-29T10:16:32.07Z</time></trkpt><trkpt lat="42.9270893" lon="-8.1865956"><ele>329.6666666666667</ele><time>2026-03-29T10:16:33.07Z</time></trkpt><trkpt lat="42.9272187" lon="-8.186441"><ele>327.3333333333333</ele><time>2026-03-29T10:16:34.071Z</time></trkpt><trkpt lat="42.9273355" lon="-8.1862707"><ele>325.0</ele><time>2026-03-29T10:16:35.07Z</time></trkpt><trkpt lat="42.9274404" lon="-8.1860807"><ele>325.0</ele><time>2026-03-29T10:16:36.07Z</time></trkpt><trkpt lat="42.9275269" lon="-8.1858795"><ele>325.0</ele><time>2026-03-29T10:16:37.071Z</time></trkpt><trkpt lat="42.9276" lon="-8.1856639"><ele>325.0</ele><time>2026-03-29T10:16:38.07Z</time></trkpt><trkpt lat="42.9276617" lon="-8.1854403"><ele>324.3333333333333</ele><time>2026-03-29T10:16:39.071Z</time></trkpt><trkpt lat="42.9277154" lon="-8.1852113"><ele>323.6666666666667</ele><time>2026-03-29T10:16:40.07Z</time></trkpt><trkpt lat="42.9277647" lon="-8.1849818"><ele>323.0</ele><time>2026-03-29T10:16:41.07Z</time></trkpt><trkpt lat="42.9278146" lon="-8.1847472"><ele>323.0</ele><time>2026-03-29T10:16:42.07Z</time></trkpt><trkpt lat="42.9278616" lon="-8.1845158"><ele>323.0</ele><time>2026-03-29T10:16:43.07Z</time></trkpt><trkpt lat="42.9279107" lon="-8.1842828"><ele>323.0</ele><time>2026-03-29T10:16:44.071Z</time></trkpt><trkpt lat="42.9279594" lon="-8.1840558"><ele>324.33333333333337</ele><time>2026-03-29T10:16:45.07Z</time></trkpt><trkpt lat="42.928008" lon="-8.1838352"><ele>325.6666666666667</ele><time>2026-03-29T10:16:46.071Z</time></trkpt><trkpt lat="42.928058" lon="-8.183622"><ele>327.0</ele><time>2026-03-29T10:16:47.07Z</time></trkpt><trkpt lat="42.9281181" lon="-8.1834143"><ele>327.0</ele><time>2026-03-29T10:16:48.07Z</time></trkpt><trkpt lat="42.9281942" lon="-8.1832166"><ele>327.0</ele><time>2026-03-29T10:16:49.07Z</time></trkpt><trkpt lat="42.9282904" lon="-8.18304"><ele>327.0</ele><time>2026-03-29T10:16:50.071Z</time></trkpt><trkpt lat="42.9284056" lon="-8.1828813"><ele>329.0</ele><time>2026-03-29T10:16:51.07Z</time></trkpt><trkpt lat="42.9285251" lon="-8.1827217"><ele>331.0</ele><time>2026-03-29T10:16:52.07Z</time></trkpt><trkpt lat="42.9286685" lon="-8.1825956"><ele>333.0</ele><time>2026-03-29T10:16:53.071Z</time></trkpt><trkpt lat="42.9288145" lon="-8.1824752"><ele>333.0</ele><time>2026-03-29T10:16:54.071Z</time></trkpt><trkpt lat="42.9289661" lon="-8.1823624"><ele>333.0</ele><time>2026-03-29T10:16:55.07Z</time></trkpt><trkpt lat="42.9291229" lon="-8.1822532"><ele>333.0</ele><time>2026-03-29T10:16:56.071Z</time></trkpt><trkpt lat="42.929279" lon="-8.1821465"><ele>333.3333333333333</ele><time>2026-03-29T10:16:57.071Z</time></trkpt><trkpt lat="42.9294309" lon="-8.1820386"><ele>333.66666666666663</ele><time>2026-03-29T10:16:58.07Z</time></trkpt><trkpt lat="42.929585" lon="-8.1819284"><ele>334.0</ele><time>2026-03-29T10:16:59.071Z</time></trkpt><trkpt lat="42.9297431" lon="-8.1818195"><ele>334.0</ele><time>2026-03-29T10:17:00.071Z</time></trkpt><trkpt lat="42.9298891" lon="-8.1817083"><ele>334.0</ele><time>2026-03-29T10:17:01.071Z</time></trkpt><trkpt lat="42.9300367" lon="-8.181588"><ele>334.0</ele><time>2026-03-29T10:17:02.071Z</time></trkpt><trkpt lat="42.9301725" lon="-8.1814497"><ele>332.3333333333333</ele><time>2026-03-29T10:17:03.07Z</time></trkpt><trkpt lat="42.9302961" lon="-8.1812876"><ele>330.6666666666667</ele><time>2026-03-29T10:17:04.071Z</time></trkpt><trkpt lat="42.9304024" lon="-8.181103"><ele>329.0</ele><time>2026-03-29T10:17:05.071Z</time></trkpt><trkpt lat="42.9304896" lon="-8.1808976"><ele>327.0</ele><time>2026-03-29T10:17:06.071Z</time></trkpt><trkpt lat="42.9305547" lon="-8.1806755"><ele>325.0</ele><time>2026-03-29T10:17:07.07Z</time></trkpt><trkpt lat="42.9305891" lon="-8.180437"><ele>323.0</ele><time>2026-03-29T10:17:08.07Z</time></trkpt><trkpt lat="42.930601" lon="-8.1801902"><ele>323.0</ele><time>2026-03-29T10:17:09.07Z</time></trkpt><trkpt lat="42.9305868" lon="-8.1799396"><ele>323.0</ele><time>2026-03-29T10:17:10.07Z</time></trkpt><trkpt lat="42.9305383" lon="-8.1796938"><ele>323.0</ele><time>2026-03-29T10:17:11.07Z</time></trkpt><trkpt lat="42.930466" lon="-8.1794656"><ele>326.0</ele><time>2026-03-29T10:17:12.071Z</time></trkpt><trkpt lat="42.9303724" lon="-8.17925"><ele>329.0</ele><time>2026-03-29T10:17:13.07Z</time></trkpt><trkpt lat="42.9302544" lon="-8.1790616"><ele>332.0</ele><time>2026-03-29T10:17:14.07Z</time></trkpt><trkpt lat="42.9301197" lon="-8.1789057"><ele>333.6666666666667</ele><time>2026-03-29T10:17:15.071Z</time></trkpt><trkpt lat="42.9299669" lon="-8.1787815"><ele>335.3333333333333</ele><time>2026-03-29T10:17:16.07Z</time></trkpt><trkpt lat="42.9298081" lon="-8.178688"><ele>337.0</ele><time>2026-03-29T10:17:17.071Z</time></trkpt><trkpt lat="42.9296436" lon="-8.1786189"><ele>337.0</ele><time>2026-03-29T10:17:18.07Z</time></trkpt><trkpt lat="42.9294804" lon="-8.1785631"><ele>337.0</ele><time>2026-03-29T10:17:19.071Z</time></trkpt><trkpt lat="42.9293169" lon="-8.1785143"><ele>337.0</ele><time>2026-03-29T10:17:20.07Z</time></trkpt><trkpt lat="42.9291553" lon="-8.1784688"><ele>335.3333333333333</ele><time>2026-03-29T10:17:21.07Z</time></trkpt><trkpt lat="42.9290006" lon="-8.1784168"><ele>333.6666666666667</ele><time>2026-03-29T10:17:22.07Z</time></trkpt><trkpt lat="42.9288462" lon="-8.1783575"><ele>332.0</ele><time>2026-03-29T10:17:23.07Z</time></trkpt><trkpt lat="42.9286951" lon="-8.1782871"><ele>334.6666666666667</ele><time>2026-03-29T10:17:24.07Z</time></trkpt><trkpt lat="42.9285526" lon="-8.1781777"><ele>337.3333333333333</ele><time>2026-03-29T10:17:25.07Z</time></trkpt><trkpt lat="42.9284203" lon="-8.1780407"><ele>340.0</ele><time>2026-03-29T10:17:26.071Z</time></trkpt><trkpt lat="42.9282971" lon="-8.1778782"><ele>340.0</ele><time>2026-03-29T10:17:27.071Z</time></trkpt><trkpt lat="42.928195" lon="-8.17769"><ele>340.0</ele><time>2026-03-29T10:17:28.071Z</time></trkpt><trkpt lat="42.9281113" lon="-8.1774836"><ele>340.0</ele><time>2026-03-29T10:17:29.07Z</time></trkpt><trkpt lat="42.928051" lon="-8.1772639"><ele>342.0</ele><time>2026-03-29T10:17:30.07Z</time></trkpt><trkpt lat="42.9280227" lon="-8.1770437"><ele>344.0</ele><time>2026-03-29T10:17:31.07Z</time></trkpt><trkpt lat="42.9280146" lon="-8.1768139"><ele>346.0</ele><time>2026-03-29T10:17:32.07Z</time></trkpt><trkpt lat="42.9280317" lon="-8.1765892"><ele>346.66666666666663</ele><time>2026-03-29T10:17:33.071Z</time></trkpt><trkpt lat="42.9280664" lon="-8.1763683"><ele>347.3333333333333</ele><time>2026-03-29T10:17:34.07Z</time></trkpt><trkpt lat="42.9281124" lon="-8.1761525"><ele>348.0</ele><time>2026-03-29T10:17:35.071Z</time></trkpt><trkpt lat="42.9281596" lon="-8.1759333"><ele>348.0</ele><time>2026-03-29T10:17:36.07Z</time></trkpt><trkpt lat="42.9282059" lon="-8.1757106"><ele>348.0</ele><time>2026-03-29T10:17:37.07Z</time></trkpt><trkpt lat="42.9282531" lon="-8.1754837"><ele>348.0</ele><time>2026-03-29T10:17:38.071Z</time></trkpt><trkpt lat="42.9283024" lon="-8.1752571"><ele>348.3333333333333</ele><time>2026-03-29T10:17:39.07Z</time></trkpt><trkpt lat="42.9283487" lon="-8.1750289"><ele>348.66666666666663</ele><time>2026-03-29T10:17:40.07Z</time></trkpt><trkpt lat="42.9283977" lon="-8.1747987"><ele>349.0</ele><time>2026-03-29T10:17:41.07Z</time></trkpt><trkpt lat="42.9284461" lon="-8.174569"><ele>351.3333333333333</ele><time>2026-03-29T10:17:42.07Z</time></trkpt><trkpt lat="42.9284936" lon="-8.1743406"><ele>353.6666666666667</ele><time>2026-03-29T10:17:43.07Z</time></trkpt><trkpt lat="42.9285442" lon="-8.1741127"><ele>356.0</ele><time>2026-03-29T10:17:44.071Z</time></trkpt><trkpt lat="42.9285935" lon="-8.1738875"><ele>356.6666666666667</ele><time>2026-03-29T10:17:45.07Z</time></trkpt><trkpt lat="42.9286459" lon="-8.1736661"><ele>357.3333333333333</ele><time>2026-03-29T10:17:46.07Z</time></trkpt><trkpt lat="42.9287107" lon="-8.1734531"><ele>358.0</ele><time>2026-03-29T10:17:47.071Z</time></trkpt><trkpt lat="42.9287867" lon="-8.1732462"><ele>358.0</ele><time>2026-03-29T10:17:48.071Z</time></trkpt><trkpt lat="42.9288712" lon="-8.1730473"><ele>358.0</ele><time>2026-03-29T10:17:49.071Z</time></trkpt><trkpt lat="42.9289646" lon="-8.172852"><ele>358.0</ele><time>2026-03-29T10:17:50.07Z</time></trkpt><trkpt lat="42.9290655" lon="-8.172659"><ele>358.0</ele><time>2026-03-29T10:17:51.07Z</time></trkpt><trkpt lat="42.9291761" lon="-8.1724644"><ele>358.0</ele><time>2026-03-29T10:17:52.071Z</time></trkpt><trkpt lat="42.9292876" lon="-8.1722638"><ele>358.0</ele><time>2026-03-29T10:17:53.07Z</time></trkpt><trkpt lat="42.9294004" lon="-8.1720596"><ele>356.66666666666663</ele><time>2026-03-29T10:17:54.07Z</time></trkpt><trkpt lat="42.9295105" lon="-8.1718521"><ele>355.3333333333333</ele><time>2026-03-29T10:17:55.071Z</time></trkpt><trkpt lat="42.92962" lon="-8.1716431"><ele>354.0</ele><time>2026-03-29T10:17:56.07Z</time></trkpt><trkpt lat="42.9297292" lon="-8.1714344"><ele>352.6666666666667</ele><time>2026-03-29T10:17:57.071Z</time></trkpt><trkpt lat="42.929838" lon="-8.1712302"><ele>351.33333333333337</ele><time>2026-03-29T10:17:58.071Z</time></trkpt><trkpt lat="42.9299537" lon="-8.1710301"><ele>350.0</ele><time>2026-03-29T10:17:59.07Z</time></trkpt><trkpt lat="42.9300581" lon="-8.1708362"><ele>349.33333333333337</ele><time>2026-03-29T10:18:00.07Z</time></trkpt><trkpt lat="42.9301596" lon="-8.1706496"><ele>348.6666666666667</ele><time>2026-03-29T10:18:01.07Z</time></trkpt><trkpt lat="42.9302505" lon="-8.1704671"><ele>348.0</ele><time>2026-03-29T10:18:02.071Z</time></trkpt><trkpt lat="42.9303119" lon="-8.1702784"><ele>348.0</ele><time>2026-03-29T10:18:03.071Z</time></trkpt><trkpt lat="42.9303335" lon="-8.1700878"><ele>348.0</ele><time>2026-03-29T10:18:04.071Z</time></trkpt><trkpt lat="42.9303156" lon="-8.1699052"><ele>348.0</ele><time>2026-03-29T10:18:05.07Z</time></trkpt><trkpt lat="42.9302643" lon="-8.169746"><ele>348.0</ele><time>2026-03-29T10:18:06.071Z</time></trkpt><trkpt lat="42.9301827" lon="-8.1696159"><ele>349.0</ele><time>2026-03-29T10:18:07.07Z</time></trkpt><trkpt lat="42.9300832" lon="-8.1695171"><ele>350.0</ele><time>2026-03-29T10:18:08.071Z</time></trkpt><trkpt lat="42.9299732" lon="-8.1694427"><ele>351.0</ele><time>2026-03-29T10:18:09.07Z</time></trkpt><trkpt lat="42.9298595" lon="-8.1693793"><ele>352.0</ele><time>2026-03-29T10:18:10.071Z</time></trkpt><trkpt lat="42.9297497" lon="-8.1693184"><ele>352.5</ele><time>2026-03-29T10:18:11.071Z</time></trkpt><trkpt lat="42.9296446" lon="-8.169259"><ele>353.0</ele><time>2026-03-29T10:18:12.07Z</time></trkpt><trkpt lat="42.9295387" lon="-8.1691991"><ele>353.5</ele><time>2026-03-29T10:18:13.07Z</time></trkpt><trkpt lat="42.9294334" lon="-8.1691451"><ele>354.0</ele><time>2026-03-29T10:18:14.071Z</time></trkpt><trkpt lat="42.9293264" lon="-8.1690986"><ele>353.75</ele><time>2026-03-29T10:18:15.07Z</time></trkpt><trkpt lat="42.9292184" lon="-8.169063"><ele>353.5</ele><time>2026-03-29T10:18:16.07Z</time></trkpt><trkpt lat="42.9291064" lon="-8.1690401"><ele>353.25</ele><time>2026-03-29T10:18:17.071Z</time></trkpt><trkpt lat="42.9289914" lon="-8.169023"><ele>353.0</ele><time>2026-03-29T10:18:18.07Z</time></trkpt><trkpt lat="42.928882" lon="-8.1690134"><ele>354.75</ele><time>2026-03-29T10:18:19.071Z</time></trkpt><trkpt lat="42.928768" lon="-8.1690097"><ele>356.5</ele><time>2026-03-29T10:18:20.07Z</time></trkpt><trkpt lat="42.9286551" lon="-8.1689989"><ele>358.25</ele><time>2026-03-29T10:18:21.07Z</time></trkpt><trkpt lat="42.9285461" lon="-8.1689694"><ele>360.0</ele><time>2026-03-29T10:18:22.071Z</time></trkpt><trkpt lat="42.9284417" lon="-8.1689067"><ele>360.75</ele><time>2026-03-29T10:18:23.071Z</time></trkpt><trkpt lat="42.928347" lon="-8.1688222"><ele>361.5</ele><time>2026-03-29T10:18:24.071Z</time></trkpt><trkpt lat="42.9282632" lon="-8.1687194"><ele>362.25</ele><time>2026-03-29T10:18:25.071Z</time></trkpt><trkpt lat="42.9281794" lon="-8.1685955"><ele>363.0</ele><time>2026-03-29T10:18:26.07Z</time></trkpt><trkpt lat="42.9281209" lon="-8.1684785"><ele>363.0</ele><time>2026-03-29T10:18:27.07Z</time></trkpt><trkpt lat="42.9280956" lon="-8.1683262"><ele>363.0</ele><time>2026-03-29T10:18:28.071Z</time></trkpt><trkpt lat="42.9280733" lon="-8.1681862"><ele>363.0</ele><time>2026-03-29T10:18:29.071Z</time></trkpt><trkpt lat="42.9280627" lon="-8.1680419"><ele>363.0</ele><time>2026-03-29T10:18:30.07Z</time></trkpt><trkpt lat="42.9280539" lon="-8.1678951"><ele>363.0</ele><time>2026-03-29T10:18:31.071Z</time></trkpt><trkpt lat="42.9280404" lon="-8.1677459"><ele>363.75</ele><time>2026-03-29T10:18:32.07Z</time></trkpt><trkpt lat="42.9280274" lon="-8.1675912"><ele>364.5</ele><time>2026-03-29T10:18:33.07Z</time></trkpt><trkpt lat="42.9280122" lon="-8.1674342"><ele>365.25</ele><time>2026-03-29T10:18:34.07Z</time></trkpt><trkpt lat="42.9279898" lon="-8.1672697"><ele>366.0</ele><time>2026-03-29T10:18:35.071Z</time></trkpt><trkpt lat="42.9279562" lon="-8.1671141"><ele>366.75</ele><time>2026-03-29T10:18:36.07Z</time></trkpt><trkpt lat="42.9279096" lon="-8.1669592"><ele>367.5</ele><time>2026-03-29T10:18:37.07Z</time></trkpt><trkpt lat="42.9278473" lon="-8.1668198"><ele>368.25</ele><time>2026-03-29T10:18:38.07Z</time></trkpt><trkpt lat="42.9277753" lon="-8.166691"><ele>369.0</ele><time>2026-03-29T10:18:39.071Z</time></trkpt><trkpt lat="42.9276925" lon="-8.1665733"><ele>370.5</ele><time>2026-03-29T10:18:40.07Z</time></trkpt><trkpt lat="42.9276014" lon="-8.1664698"><ele>372.0</ele><time>2026-03-29T10:18:41.07Z</time></trkpt><trkpt lat="42.9275128" lon="-8.1663646"><ele>373.5</ele><time>2026-03-29T10:18:42.07Z</time></trkpt><trkpt lat="42.9274304" lon="-8.166257"><ele>375.0</ele><time>2026-03-29T10:18:43.07Z</time></trkpt><trkpt lat="42.9273522" lon="-8.1661434"><ele>375.0</ele><time>2026-03-29T10:18:44.07Z</time></trkpt><trkpt lat="42.9272775" lon="-8.1660279"><ele>375.0</ele><time>2026-03-29T10:18:45.071Z</time></trkpt><trkpt lat="42.9272157" lon="-8.1659076"><ele>375.0</ele><time>2026-03-29T10:18:46.071Z</time></trkpt><trkpt lat="42.9271692" lon="-8.165786"><ele>375.0</ele><time>2026-03-29T10:18:47.071Z</time></trkpt><trkpt lat="42.9271381" lon="-8.1656671"><ele>375.0</ele><time>2026-03-29T10:18:48.071Z</time></trkpt><trkpt lat="42.9271135" lon="-8.1655552"><ele>376.0</ele><time>2026-03-29T10:18:49.07Z</time></trkpt><trkpt lat="42.9270964" lon="-8.1654561"><ele>377.0</ele><time>2026-03-29T10:18:50.071Z</time></trkpt><trkpt lat="42.9270763" lon="-8.1653685"><ele>378.0</ele><time>2026-03-29T10:18:51.07Z</time></trkpt><trkpt lat="42.9270453" lon="-8.165207"><ele>379.0</ele><time>2026-03-29T10:18:53.071Z</time></trkpt><trkpt lat="42.9270194" lon="-8.165075"><ele>380.0</ele><time>2026-03-29T10:18:55.071Z</time></trkpt><trkpt lat="42.9270079" lon="-8.164979"><ele>381.0</ele><time>2026-03-29T10:18:57.07Z</time></trkpt><trkpt lat="42.9269713" lon="-8.1649037"><ele>382.0</ele><time>2026-03-29T10:19:01.07Z</time></trkpt><trkpt lat="42.9269109" lon="-8.1647602"><ele>383.0</ele><time>2026-03-29T10:19:07.07Z</time></trkpt><trkpt lat="42.9268908" lon="-8.1646636"><ele>384.0</ele><time>2026-03-29T10:19:08.07Z</time></trkpt><trkpt lat="42.9268667" lon="-8.1645544"><ele>385.0</ele><time>2026-03-29T10:19:09.07Z</time></trkpt><trkpt lat="42.9268484" lon="-8.1644508"><ele>386.0</ele><time>2026-03-29T10:19:10.07Z</time></trkpt><trkpt lat="42.9268333" lon="-8.1643452"><ele>387.0</ele><time>2026-03-29T10:19:11.07Z</time></trkpt><trkpt lat="42.9268099" lon="-8.1641838"><ele>387.8</ele><time>2026-03-29T10:19:13.07Z</time></trkpt><trkpt lat="42.9268128" lon="-8.1640273"><ele>388.6</ele><time>2026-03-29T10:19:15.07Z</time></trkpt><trkpt lat="42.9268335" lon="-8.1639218"><ele>389.40000000000003</ele><time>2026-03-29T10:19:17.07Z</time></trkpt><trkpt lat="42.9269183" lon="-8.1639242"><ele>390.20000000000005</ele><time>2026-03-29T10:19:18.07Z</time></trkpt><trkpt lat="42.9270412" lon="-8.1639383"><ele>391.0</ele><time>2026-03-29T10:19:20.07Z</time></trkpt><trkpt lat="42.9271564" lon="-8.1639257"><ele>391.0</ele><time>2026-03-29T10:19:22.071Z</time></trkpt><trkpt lat="42.927276" lon="-8.1639277"><ele>391.0</ele><time>2026-03-29T10:19:24.07Z</time></trkpt><trkpt lat="42.9273929" lon="-8.1639326"><ele>391.0</ele><time>2026-03-29T10:19:26.07Z</time></trkpt><trkpt lat="42.9275236" lon="-8.1639307"><ele>391.0</ele><time>2026-03-29T10:19:28.07Z</time></trkpt><trkpt lat="42.9275975" lon="-8.163935"><ele>391.0</ele><time>2026-03-29T10:19:29.071Z</time></trkpt><trkpt lat="42.9276706" lon="-8.1639247"><ele>391.33333333333337</ele><time>2026-03-29T10:19:30.071Z</time></trkpt><trkpt lat="42.9277502" lon="-8.1639079"><ele>391.6666666666667</ele><time>2026-03-29T10:19:31.071Z</time></trkpt><trkpt lat="42.9278267" lon="-8.163902"><ele>392.0</ele><time>2026-03-29T10:19:32.07Z</time></trkpt><trkpt lat="42.9279036" lon="-8.1638974"><ele>392.33333333333337</ele><time>2026-03-29T10:19:33.07Z</time></trkpt><trkpt lat="42.9279808" lon="-8.1638888"><ele>392.6666666666667</ele><time>2026-03-29T10:19:34.07Z</time></trkpt><trkpt lat="42.9280566" lon="-8.1638806"><ele>393.0</ele><time>2026-03-29T10:19:35.07Z</time></trkpt><trkpt lat="42.928134" lon="-8.1638709"><ele>393.0</ele><time>2026-03-29T10:19:36.071Z</time></trkpt><trkpt lat="42.9282145" lon="-8.1638556"><ele>393.0</ele><time>2026-03-29T10:19:37.07Z</time></trkpt><trkpt lat="42.9282927" lon="-8.163841"><ele>393.0</ele><time>2026-03-29T10:19:38.07Z</time></trkpt><trkpt lat="42.9283725" lon="-8.1638257"><ele>393.0</ele><time>2026-03-29T10:19:39.071Z</time></trkpt><trkpt lat="42.9284462" lon="-8.1638064"><ele>393.0</ele><time>2026-03-29T10:19:40.071Z</time></trkpt><trkpt lat="42.9285309" lon="-8.1637907"><ele>393.0</ele><time>2026-03-29T10:19:41.071Z</time></trkpt><trkpt lat="42.9285983" lon="-8.163757"><ele>392.79999999999995</ele><time>2026-03-29T10:19:42.07Z</time></trkpt><trkpt lat="42.9286621" lon="-8.1637312"><ele>392.6</ele><time>2026-03-29T10:19:43.07Z</time></trkpt><trkpt lat="42.9287677" lon="-8.163682"><ele>392.4</ele><time>2026-03-29T10:19:45.07Z</time></trkpt><trkpt lat="42.9288761" lon="-8.1636371"><ele>392.20000000000005</ele><time>2026-03-29T10:19:47.071Z</time></trkpt><trkpt lat="42.928954" lon="-8.1636089"><ele>392.0</ele><time>2026-03-29T10:19:48.07Z</time></trkpt><trkpt lat="42.9290476" lon="-8.1635721"><ele>392.0</ele><time>2026-03-29T10:19:49.07Z</time></trkpt><trkpt lat="42.9291499" lon="-8.1635353"><ele>392.0</ele><time>2026-03-29T10:19:50.07Z</time></trkpt><trkpt lat="42.9292652" lon="-8.1634956"><ele>392.0</ele><time>2026-03-29T10:19:51.07Z</time></trkpt><trkpt lat="42.9293792" lon="-8.1634497"><ele>392.0</ele><time>2026-03-29T10:19:52.07Z</time></trkpt><trkpt lat="42.9294962" lon="-8.1634016"><ele>391.5</ele><time>2026-03-29T10:19:53.07Z</time></trkpt><trkpt lat="42.9296129" lon="-8.1633565"><ele>391.0</ele><time>2026-03-29T10:19:54.071Z</time></trkpt><trkpt lat="42.9297343" lon="-8.1633095"><ele>390.5</ele><time>2026-03-29T10:19:55.071Z</time></trkpt><trkpt lat="42.9298503" lon="-8.1632626"><ele>390.0</ele><time>2026-03-29T10:19:56.07Z</time></trkpt><trkpt lat="42.9299703" lon="-8.1632141"><ele>389.75</ele><time>2026-03-29T10:19:57.071Z</time></trkpt><trkpt lat="42.9300861" lon="-8.1631627"><ele>389.5</ele><time>2026-03-29T10:19:58.071Z</time></trkpt><trkpt lat="42.9302056" lon="-8.1631081"><ele>389.25</ele><time>2026-03-29T10:19:59.071Z</time></trkpt><trkpt lat="42.9303254" lon="-8.1630529"><ele>389.0</ele><time>2026-03-29T10:20:00.07Z</time></trkpt><trkpt lat="42.9304479" lon="-8.1629994"><ele>389.0</ele><time>2026-03-29T10:20:01.071Z</time></trkpt><trkpt lat="42.9305717" lon="-8.1629444"><ele>389.0</ele><time>2026-03-29T10:20:02.07Z</time></trkpt><trkpt lat="42.930699" lon="-8.1628873"><ele>389.0</ele><time>2026-03-29T10:20:03.07Z</time></trkpt><trkpt lat="42.9308303" lon="-8.1628394"><ele>389.0</ele><time>2026-03-29T10:20:04.07Z</time></trkpt><trkpt lat="42.9309654" lon="-8.1628091"><ele>389.5</ele><time>2026-03-29T10:20:05.07Z</time></trkpt><trkpt lat="42.9311007" lon="-8.1627874"><ele>390.0</ele><time>2026-03-29T10:20:06.07Z</time></trkpt><trkpt lat="42.9312395" lon="-8.1627754"><ele>390.5</ele><time>2026-03-29T10:20:07.07Z</time></trkpt><trkpt lat="42.9313803" lon="-8.1627684"><ele>391.0</ele><time>2026-03-29T10:20:08.071Z</time></trkpt><trkpt lat="42.9315207" lon="-8.1627606"><ele>391.0</ele><time>2026-03-29T10:20:09.07Z</time></trkpt><trkpt lat="42.9316629" lon="-8.162756"><ele>391.0</ele><time>2026-03-29T10:20:10.071Z</time></trkpt><trkpt lat="42.9317977" lon="-8.1627536"><ele>391.0</ele><time>2026-03-29T10:20:11.07Z</time></trkpt><trkpt lat="42.9319303" lon="-8.1627469"><ele>391.0</ele><time>2026-03-29T10:20:12.07Z</time></trkpt><trkpt lat="42.9320646" lon="-8.1627403"><ele>391.25</ele><time>2026-03-29T10:20:13.07Z</time></trkpt><trkpt lat="42.9321984" lon="-8.1627359"><ele>391.5</ele><time>2026-03-29T10:20:14.07Z</time></trkpt><trkpt lat="42.9323393" lon="-8.1627361"><ele>391.75</ele><time>2026-03-29T10:20:15.07Z</time></trkpt><trkpt lat="42.9324842" lon="-8.1627297"><ele>392.0</ele><time>2026-03-29T10:20:16.071Z</time></trkpt><trkpt lat="42.9326268" lon="-8.1627265"><ele>392.0</ele><time>2026-03-29T10:20:17.07Z</time></trkpt><trkpt lat="42.9327687" lon="-8.1627233"><ele>392.0</ele><time>2026-03-29T10:20:18.07Z</time></trkpt><trkpt lat="42.9329138" lon="-8.1627214"><ele>392.0</ele><time>2026-03-29T10:20:19.07Z</time></trkpt><trkpt lat="42.9330577" lon="-8.1627117"><ele>392.0</ele><time>2026-03-29T10:20:20.071Z</time></trkpt><trkpt lat="42.9332037" lon="-8.1626869"><ele>392.0</ele><time>2026-03-29T10:20:21.07Z</time></trkpt><trkpt lat="42.9333447" lon="-8.162638"><ele>392.0</ele><time>2026-03-29T10:20:22.07Z</time></trkpt><trkpt lat="42.9334813" lon="-8.1625686"><ele>392.0</ele><time>2026-03-29T10:20:23.071Z</time></trkpt><trkpt lat="42.9336174" lon="-8.1624873"><ele>392.0</ele><time>2026-03-29T10:20:24.07Z</time></trkpt><trkpt lat="42.9337548" lon="-8.1624005"><ele>392.3333333333333</ele><time>2026-03-29T10:20:25.071Z</time></trkpt><trkpt lat="42.9338936" lon="-8.1623074"><ele>392.66666666666663</ele><time>2026-03-29T10:20:26.07Z</time></trkpt><trkpt lat="42.9340189" lon="-8.162204"><ele>393.0</ele><time>2026-03-29T10:20:27.071Z</time></trkpt><trkpt lat="42.9341499" lon="-8.1621017"><ele>392.66666666666663</ele><time>2026-03-29T10:20:28.071Z</time></trkpt><trkpt lat="42.9342801" lon="-8.161997"><ele>392.3333333333333</ele><time>2026-03-29T10:20:29.071Z</time></trkpt><trkpt lat="42.9344128" lon="-8.1618974"><ele>392.0</ele><time>2026-03-29T10:20:30.07Z</time></trkpt><trkpt lat="42.9345492" lon="-8.1617949"><ele>392.0</ele><time>2026-03-29T10:20:31.07Z</time></trkpt><trkpt lat="42.9346838" lon="-8.1616951"><ele>392.0</ele><time>2026-03-29T10:20:32.07Z</time></trkpt><trkpt lat="42.9348208" lon="-8.161598"><ele>392.0</ele><time>2026-03-29T10:20:33.07Z</time></trkpt><trkpt lat="42.9349633" lon="-8.1615067"><ele>392.66666666666663</ele><time>2026-03-29T10:20:34.07Z</time></trkpt><trkpt lat="42.9351076" lon="-8.1614238"><ele>393.33333333333337</ele><time>2026-03-29T10:20:35.07Z</time></trkpt><trkpt lat="42.9352496" lon="-8.1613595"><ele>394.0</ele><time>2026-03-29T10:20:36.071Z</time></trkpt><trkpt lat="42.9353962" lon="-8.1612988"><ele>394.0</ele><time>2026-03-29T10:20:37.071Z</time></trkpt><trkpt lat="42.9355444" lon="-8.1612424"><ele>394.0</ele><time>2026-03-29T10:20:38.071Z</time></trkpt><trkpt lat="42.9356981" lon="-8.1611856"><ele>394.0</ele><time>2026-03-29T10:20:39.071Z</time></trkpt><trkpt lat="42.935848" lon="-8.1611249"><ele>394.0</ele><time>2026-03-29T10:20:40.07Z</time></trkpt><trkpt lat="42.9359969" lon="-8.1610566"><ele>394.0</ele><time>2026-03-29T10:20:41.071Z</time></trkpt><trkpt lat="42.9361445" lon="-8.1609853"><ele>394.0</ele><time>2026-03-29T10:20:42.07Z</time></trkpt><trkpt lat="42.9362908" lon="-8.1609062"><ele>394.0</ele><time>2026-03-29T10:20:43.07Z</time></trkpt><trkpt lat="42.9364338" lon="-8.1608212"><ele>394.0</ele><time>2026-03-29T10:20:44.07Z</time></trkpt><trkpt lat="42.9365791" lon="-8.1607354"><ele>394.0</ele><time>2026-03-29T10:20:45.07Z</time></trkpt><trkpt lat="42.9367208" lon="-8.1606488"><ele>393.33333333333337</ele><time>2026-03-29T10:20:46.071Z</time></trkpt><trkpt lat="42.9368611" lon="-8.1605607"><ele>392.66666666666663</ele><time>2026-03-29T10:20:47.071Z</time></trkpt><trkpt lat="42.9370085" lon="-8.1604714"><ele>392.0</ele><time>2026-03-29T10:20:48.07Z</time></trkpt><trkpt lat="42.937162" lon="-8.1603744"><ele>392.0</ele><time>2026-03-29T10:20:49.071Z</time></trkpt><trkpt lat="42.9373238" lon="-8.1602697"><ele>392.0</ele><time>2026-03-29T10:20:50.07Z</time></trkpt><trkpt lat="42.9374841" lon="-8.1601616"><ele>392.0</ele><time>2026-03-29T10:20:51.071Z</time></trkpt><trkpt lat="42.9376526" lon="-8.1600591"><ele>391.3333333333333</ele><time>2026-03-29T10:20:52.071Z</time></trkpt><trkpt lat="42.9378261" lon="-8.1599677"><ele>390.66666666666663</ele><time>2026-03-29T10:20:53.07Z</time></trkpt><trkpt lat="42.9380001" lon="-8.1598865"><ele>390.0</ele><time>2026-03-29T10:20:54.07Z</time></trkpt><trkpt lat="42.9381709" lon="-8.1598105"><ele>389.33333333333337</ele><time>2026-03-29T10:20:55.071Z</time></trkpt><trkpt lat="42.9383469" lon="-8.1597312"><ele>388.6666666666667</ele><time>2026-03-29T10:20:56.07Z</time></trkpt><trkpt lat="42.9385224" lon="-8.1596507"><ele>388.0</ele><time>2026-03-29T10:20:57.071Z</time></trkpt><trkpt lat="42.9386988" lon="-8.1595678"><ele>386.6666666666667</ele><time>2026-03-29T10:20:58.071Z</time></trkpt><trkpt lat="42.9388804" lon="-8.1594871"><ele>385.33333333333337</ele><time>2026-03-29T10:20:59.07Z</time></trkpt><trkpt lat="42.9390673" lon="-8.15941"><ele>384.0</ele><time>2026-03-29T10:21:00.07Z</time></trkpt><trkpt lat="42.9392578" lon="-8.1593368"><ele>382.3333333333333</ele><time>2026-03-29T10:21:01.07Z</time></trkpt><trkpt lat="42.9394514" lon="-8.1592708"><ele>380.66666666666663</ele><time>2026-03-29T10:21:02.07Z</time></trkpt><trkpt lat="42.9396477" lon="-8.1592106"><ele>379.0</ele><time>2026-03-29T10:21:03.07Z</time></trkpt><trkpt lat="42.9398518" lon="-8.159156"><ele>378.66666666666663</ele><time>2026-03-29T10:21:04.07Z</time></trkpt><trkpt lat="42.9400581" lon="-8.1591021"><ele>378.3333333333333</ele><time>2026-03-29T10:21:05.07Z</time></trkpt><trkpt lat="42.9402637" lon="-8.1590602"><ele>378.0</ele><time>2026-03-29T10:21:06.07Z</time></trkpt><trkpt lat="42.940471" lon="-8.1590199"><ele>375.6666666666667</ele><time>2026-03-29T10:21:07.07Z</time></trkpt><trkpt lat="42.940677" lon="-8.1589871"><ele>373.33333333333337</ele><time>2026-03-29T10:21:08.07Z</time></trkpt><trkpt lat="42.9408867" lon="-8.1589639"><ele>371.0</ele><time>2026-03-29T10:21:09.07Z</time></trkpt><trkpt lat="42.9410921" lon="-8.1589443"><ele>370.0</ele><time>2026-03-29T10:21:10.07Z</time></trkpt><trkpt lat="42.9412984" lon="-8.1589299"><ele>369.0</ele><time>2026-03-29T10:21:11.07Z</time></trkpt><trkpt lat="42.9414945" lon="-8.1589151"><ele>368.0</ele><time>2026-03-29T10:21:12.07Z</time></trkpt><trkpt lat="42.9416928" lon="-8.1589042"><ele>368.0</ele><time>2026-03-29T10:21:13.07Z</time></trkpt><trkpt lat="42.941891" lon="-8.1588897"><ele>368.0</ele><time>2026-03-29T10:21:14.071Z</time></trkpt><trkpt lat="42.9420802" lon="-8.1588734"><ele>368.0</ele><time>2026-03-29T10:21:15.07Z</time></trkpt><trkpt lat="42.9422728" lon="-8.15886"><ele>368.0</ele><time>2026-03-29T10:21:16.07Z</time></trkpt><trkpt lat="42.9424664" lon="-8.1588473"><ele>368.0</ele><time>2026-03-29T10:21:17.071Z</time></trkpt><trkpt lat="42.9426563" lon="-8.1588363"><ele>368.0</ele><time>2026-03-29T10:21:18.07Z</time></trkpt><trkpt lat="42.94285" lon="-8.1588235"><ele>368.33333333333337</ele><time>2026-03-29T10:21:19.07Z</time></trkpt><trkpt lat="42.9430419" lon="-8.1588212"><ele>368.6666666666667</ele><time>2026-03-29T10:21:20.07Z</time></trkpt><trkpt lat="42.9432358" lon="-8.158814"><ele>369.0</ele><time>2026-03-29T10:21:21.071Z</time></trkpt><trkpt lat="42.9434193" lon="-8.1588389"><ele>368.0</ele><time>2026-03-29T10:21:22.071Z</time></trkpt><trkpt lat="42.943607" lon="-8.1588555"><ele>367.0</ele><time>2026-03-29T10:21:23.07Z</time></trkpt><trkpt lat="42.943796" lon="-8.1588636"><ele>366.0</ele><time>2026-03-29T10:21:24.07Z</time></trkpt><trkpt lat="42.9439859" lon="-8.1588464"><ele>366.0</ele><time>2026-03-29T10:21:25.071Z</time></trkpt><trkpt lat="42.9441789" lon="-8.1588005"><ele>366.0</ele><time>2026-03-29T10:21:26.07Z</time></trkpt><trkpt lat="42.9443682" lon="-8.158726"><ele>366.0</ele><time>2026-03-29T10:21:27.071Z</time></trkpt><trkpt lat="42.9445654" lon="-8.1586263"><ele>366.0</ele><time>2026-03-29T10:21:28.07Z</time></trkpt><trkpt lat="42.9447632" lon="-8.1584989"><ele>366.0</ele><time>2026-03-29T10:21:29.07Z</time></trkpt><trkpt lat="42.9449686" lon="-8.1583598"><ele>366.0</ele><time>2026-03-29T10:21:30.07Z</time></trkpt><trkpt lat="42.9451801" lon="-8.1582137"><ele>368.0</ele><time>2026-03-29T10:21:31.07Z</time></trkpt><trkpt lat="42.9454013" lon="-8.1580882"><ele>370.0</ele><time>2026-03-29T10:21:32.07Z</time></trkpt><trkpt lat="42.9456319" lon="-8.1579892"><ele>370.0</ele><time>2026-03-29T10:21:33.07Z</time></trkpt><trkpt lat="42.945867" lon="-8.1579141"><ele>370.0</ele><time>2026-03-29T10:21:34.07Z</time></trkpt><trkpt lat="42.9461064" lon="-8.1578572"><ele>369.5</ele><time>2026-03-29T10:21:35.07Z</time></trkpt><trkpt lat="42.9463463" lon="-8.1578122"><ele>369.0</ele><time>2026-03-29T10:21:36.07Z</time></trkpt><trkpt lat="42.9465854" lon="-8.157778"><ele>371.0</ele><time>2026-03-29T10:21:37.07Z</time></trkpt><trkpt lat="42.9468239" lon="-8.1577419"><ele>373.0</ele><time>2026-03-29T10:21:38.07Z</time></trkpt><trkpt lat="42.9470592" lon="-8.1577046"><ele>373.0</ele><time>2026-03-29T10:21:39.071Z</time></trkpt><trkpt lat="42.9472941" lon="-8.1576703"><ele>373.0</ele><time>2026-03-29T10:21:40.07Z</time></trkpt><trkpt lat="42.9475264" lon="-8.1576357"><ele>373.0</ele><time>2026-03-29T10:21:41.07Z</time></trkpt><trkpt lat="42.9477602" lon="-8.1576042"><ele>373.0</ele><time>2026-03-29T10:21:42.071Z</time></trkpt><trkpt lat="42.947993" lon="-8.1575685"><ele>373.0</ele><time>2026-03-29T10:21:43.071Z</time></trkpt><trkpt lat="42.9482262" lon="-8.1575347"><ele>373.0</ele><time>2026-03-29T10:21:44.07Z</time></trkpt><trkpt lat="42.9484561" lon="-8.1574999"><ele>370.5</ele><time>2026-03-29T10:21:45.07Z</time></trkpt><trkpt lat="42.9486885" lon="-8.1574711"><ele>368.0</ele><time>2026-03-29T10:21:46.07Z</time></trkpt><trkpt lat="42.9489208" lon="-8.1574451"><ele>368.0</ele><time>2026-03-29T10:21:47.071Z</time></trkpt><trkpt lat="42.9491566" lon="-8.1574259"><ele>368.0</ele><time>2026-03-29T10:21:48.071Z</time></trkpt><trkpt lat="42.9493938" lon="-8.1574012"><ele>367.0</ele><time>2026-03-29T10:21:49.07Z</time></trkpt><trkpt lat="42.9496292" lon="-8.1573829"><ele>366.0</ele><time>2026-03-29T10:21:50.07Z</time></trkpt><trkpt lat="42.9498605" lon="-8.1573598"><ele>365.5</ele><time>2026-03-29T10:21:51.071Z</time></trkpt><trkpt lat="42.9500906" lon="-8.1573312"><ele>365.0</ele><time>2026-03-29T10:21:52.071Z</time></trkpt><trkpt lat="42.9503197" lon="-8.1572932"><ele>365.0</ele><time>2026-03-29T10:21:53.071Z</time></trkpt><trkpt lat="42.9505375" lon="-8.1572325"><ele>365.0</ele><time>2026-03-29T10:21:54.07Z</time></trkpt><trkpt lat="42.9507571" lon="-8.1571549"><ele>365.0</ele><time>2026-03-29T10:21:55.07Z</time></trkpt><trkpt lat="42.950978" lon="-8.1570793"><ele>363.6666666666667</ele><time>2026-03-29T10:21:56.071Z</time></trkpt><trkpt lat="42.9511863" lon="-8.1570065"><ele>362.3333333333333</ele><time>2026-03-29T10:21:57.07Z</time></trkpt><trkpt lat="42.9513937" lon="-8.1569394"><ele>361.0</ele><time>2026-03-29T10:21:58.07Z</time></trkpt><trkpt lat="42.9515954" lon="-8.1568756"><ele>358.66666666666663</ele><time>2026-03-29T10:21:59.071Z</time></trkpt><trkpt lat="42.9517975" lon="-8.1568106"><ele>356.3333333333333</ele><time>2026-03-29T10:22:00.07Z</time></trkpt><trkpt lat="42.9520066" lon="-8.1567645"><ele>354.0</ele><time>2026-03-29T10:22:01.07Z</time></trkpt><trkpt lat="42.952219" lon="-8.1567434"><ele>354.0</ele><time>2026-03-29T10:22:02.07Z</time></trkpt><trkpt lat="42.9524361" lon="-8.1567579"><ele>354.0</ele><time>2026-03-29T10:22:03.07Z</time></trkpt><trkpt lat="42.9526572" lon="-8.1568"><ele>354.0</ele><time>2026-03-29T10:22:04.07Z</time></trkpt><trkpt lat="42.9528827" lon="-8.1568598"><ele>351.5</ele><time>2026-03-29T10:22:05.071Z</time></trkpt><trkpt lat="42.9531145" lon="-8.1569311"><ele>349.0</ele><time>2026-03-29T10:22:06.071Z</time></trkpt><trkpt lat="42.9533525" lon="-8.1570039"><ele>350.5</ele><time>2026-03-29T10:22:07.071Z</time></trkpt><trkpt lat="42.9535919" lon="-8.1570739"><ele>352.0</ele><time>2026-03-29T10:22:08.07Z</time></trkpt><trkpt lat="42.9538343" lon="-8.1571295"><ele>352.0</ele><time>2026-03-29T10:22:09.07Z</time></trkpt><trkpt lat="42.9540825" lon="-8.1571494"><ele>352.0</ele><time>2026-03-29T10:22:10.071Z</time></trkpt><trkpt lat="42.9543327" lon="-8.1571299"><ele>353.5</ele><time>2026-03-29T10:22:11.07Z</time></trkpt><trkpt lat="42.9545823" lon="-8.1570745"><ele>355.0</ele><time>2026-03-29T10:22:12.07Z</time></trkpt><trkpt lat="42.954827" lon="-8.157002"><ele>360.0</ele><time>2026-03-29T10:22:13.07Z</time></trkpt><trkpt lat="42.9550603" lon="-8.156924"><ele>365.0</ele><time>2026-03-29T10:22:14.071Z</time></trkpt><trkpt lat="42.9552856" lon="-8.1568462"><ele>365.0</ele><time>2026-03-29T10:22:15.071Z</time></trkpt><trkpt lat="42.9555019" lon="-8.1567677"><ele>365.0</ele><time>2026-03-29T10:22:16.07Z</time></trkpt><trkpt lat="42.9557061" lon="-8.1566714"><ele>365.0</ele><time>2026-03-29T10:22:17.071Z</time></trkpt><trkpt lat="42.9558977" lon="-8.1565569"><ele>365.33333333333337</ele><time>2026-03-29T10:22:18.07Z</time></trkpt><trkpt lat="42.9560795" lon="-8.1564124"><ele>365.6666666666667</ele><time>2026-03-29T10:22:19.071Z</time></trkpt><trkpt lat="42.9562475" lon="-8.1562494"><ele>366.0</ele><time>2026-03-29T10:22:20.07Z</time></trkpt><trkpt lat="42.9564057" lon="-8.1560682"><ele>366.0</ele><time>2026-03-29T10:22:21.07Z</time></trkpt><trkpt lat="42.9565585" lon="-8.1558769"><ele>366.0</ele><time>2026-03-29T10:22:22.071Z</time></trkpt><trkpt lat="42.9567073" lon="-8.1556753"><ele>366.0</ele><time>2026-03-29T10:22:23.07Z</time></trkpt><trkpt lat="42.9568523" lon="-8.1554727"><ele>366.3333333333333</ele><time>2026-03-29T10:22:24.07Z</time></trkpt><trkpt lat="42.9569917" lon="-8.1552723"><ele>366.66666666666663</ele><time>2026-03-29T10:22:25.07Z</time></trkpt><trkpt lat="42.9571295" lon="-8.1550724"><ele>367.0</ele><time>2026-03-29T10:22:26.071Z</time></trkpt><trkpt lat="42.9572633" lon="-8.1548753"><ele>365.66666666666663</ele><time>2026-03-29T10:22:27.07Z</time></trkpt><trkpt lat="42.9573976" lon="-8.1546767"><ele>364.3333333333333</ele><time>2026-03-29T10:22:28.07Z</time></trkpt><trkpt lat="42.9575306" lon="-8.1544791"><ele>363.0</ele><time>2026-03-29T10:22:29.07Z</time></trkpt><trkpt lat="42.9576654" lon="-8.1542872"><ele>363.0</ele><time>2026-03-29T10:22:30.071Z</time></trkpt><trkpt lat="42.9577982" lon="-8.1540903"><ele>363.0</ele><time>2026-03-29T10:22:31.071Z</time></trkpt><trkpt lat="42.9579346" lon="-8.1538843"><ele>363.0</ele><time>2026-03-29T10:22:32.07Z</time></trkpt><trkpt lat="42.9580724" lon="-8.1536776"><ele>362.0</ele><time>2026-03-29T10:22:33.07Z</time></trkpt><trkpt lat="42.9582056" lon="-8.1534802"><ele>361.0</ele><time>2026-03-29T10:22:34.071Z</time></trkpt><trkpt lat="42.9583345" lon="-8.153285"><ele>360.0</ele><time>2026-03-29T10:22:35.07Z</time></trkpt><trkpt lat="42.9584607" lon="-8.1530898"><ele>360.0</ele><time>2026-03-29T10:22:36.071Z</time></trkpt><trkpt lat="42.9585846" lon="-8.1528836"><ele>360.0</ele><time>2026-03-29T10:22:37.071Z</time></trkpt><trkpt lat="42.9586919" lon="-8.152658"><ele>360.0</ele><time>2026-03-29T10:22:38.07Z</time></trkpt><trkpt lat="42.9587812" lon="-8.1524172"><ele>358.0</ele><time>2026-03-29T10:22:39.071Z</time></trkpt><trkpt lat="42.9588526" lon="-8.1521601"><ele>356.0</ele><time>2026-03-29T10:22:40.07Z</time></trkpt><trkpt lat="42.958913" lon="-8.1518975"><ele>354.0</ele><time>2026-03-29T10:22:41.07Z</time></trkpt><trkpt lat="42.9589653" lon="-8.151643"><ele>352.3333333333333</ele><time>2026-03-29T10:22:42.071Z</time></trkpt><trkpt lat="42.9590207" lon="-8.1513997"><ele>350.66666666666663</ele><time>2026-03-29T10:22:43.07Z</time></trkpt><trkpt lat="42.9590796" lon="-8.1511577"><ele>349.0</ele><time>2026-03-29T10:22:44.071Z</time></trkpt><trkpt lat="42.9591488" lon="-8.1509287"><ele>346.0</ele><time>2026-03-29T10:22:45.07Z</time></trkpt><trkpt lat="42.9592346" lon="-8.1507072"><ele>343.0</ele><time>2026-03-29T10:22:46.07Z</time></trkpt><trkpt lat="42.9593364" lon="-8.1504985"><ele>340.0</ele><time>2026-03-29T10:22:47.071Z</time></trkpt><trkpt lat="42.9594592" lon="-8.1503033"><ele>340.0</ele><time>2026-03-29T10:22:48.07Z</time></trkpt><trkpt lat="42.9596009" lon="-8.1501168"><ele>340.0</ele><time>2026-03-29T10:22:49.07Z</time></trkpt><trkpt lat="42.9597553" lon="-8.1499375"><ele>340.0</ele><time>2026-03-29T10:22:50.07Z</time></trkpt><trkpt lat="42.9599183" lon="-8.149763"><ele>338.66666666666663</ele><time>2026-03-29T10:22:51.071Z</time></trkpt><trkpt lat="42.9600861" lon="-8.1495958"><ele>337.3333333333333</ele><time>2026-03-29T10:22:52.07Z</time></trkpt><trkpt lat="42.9602592" lon="-8.1494342"><ele>336.0</ele><time>2026-03-29T10:22:53.071Z</time></trkpt><trkpt lat="42.9604349" lon="-8.1492659"><ele>336.0</ele><time>2026-03-29T10:22:54.07Z</time></trkpt><trkpt lat="42.9606096" lon="-8.1490987"><ele>336.0</ele><time>2026-03-29T10:22:55.07Z</time></trkpt><trkpt lat="42.9607821" lon="-8.1489302"><ele>336.0</ele><time>2026-03-29T10:22:56.07Z</time></trkpt><trkpt lat="42.9609569" lon="-8.1487583"><ele>335.0</ele><time>2026-03-29T10:22:57.071Z</time></trkpt><trkpt lat="42.9611319" lon="-8.1485842"><ele>334.0</ele><time>2026-03-29T10:22:58.071Z</time></trkpt><trkpt lat="42.9613061" lon="-8.1484082"><ele>333.0</ele><time>2026-03-29T10:22:59.071Z</time></trkpt><trkpt lat="42.9614815" lon="-8.1482308"><ele>332.6666666666667</ele><time>2026-03-29T10:23:00.07Z</time></trkpt><trkpt lat="42.9616568" lon="-8.1480574"><ele>332.33333333333337</ele><time>2026-03-29T10:23:01.07Z</time></trkpt><trkpt lat="42.9618298" lon="-8.1478797"><ele>332.0</ele><time>2026-03-29T10:23:02.07Z</time></trkpt><trkpt lat="42.9620027" lon="-8.1477051"><ele>332.0</ele><time>2026-03-29T10:23:03.071Z</time></trkpt><trkpt lat="42.9621734" lon="-8.1475283"><ele>332.0</ele><time>2026-03-29T10:23:04.07Z</time></trkpt><trkpt lat="42.9623462" lon="-8.1473526"><ele>332.0</ele><time>2026-03-29T10:23:05.07Z</time></trkpt><trkpt lat="42.962521" lon="-8.1471778"><ele>336.33333333333337</ele><time>2026-03-29T10:23:06.071Z</time></trkpt><trkpt lat="42.9626941" lon="-8.1470058"><ele>340.6666666666667</ele><time>2026-03-29T10:23:07.071Z</time></trkpt><trkpt lat="42.9628663" lon="-8.1468336"><ele>345.0</ele><time>2026-03-29T10:23:08.07Z</time></trkpt><trkpt lat="42.9630364" lon="-8.1466623"><ele>347.0</ele><time>2026-03-29T10:23:09.071Z</time></trkpt><trkpt lat="42.9632053" lon="-8.146491"><ele>349.0</ele><time>2026-03-29T10:23:10.07Z</time></trkpt><trkpt lat="42.9633724" lon="-8.14632"><ele>351.0</ele><time>2026-03-29T10:23:11.071Z</time></trkpt><trkpt lat="42.9635432" lon="-8.1461467"><ele>351.3333333333333</ele><time>2026-03-29T10:23:12.071Z</time></trkpt><trkpt lat="42.9637157" lon="-8.145972"><ele>351.66666666666663</ele><time>2026-03-29T10:23:13.071Z</time></trkpt><trkpt lat="42.9638871" lon="-8.145799"><ele>352.0</ele><time>2026-03-29T10:23:14.071Z</time></trkpt><trkpt lat="42.9640621" lon="-8.1456219"><ele>353.3333333333333</ele><time>2026-03-29T10:23:15.071Z</time></trkpt><trkpt lat="42.9642358" lon="-8.145445"><ele>354.6666666666667</ele><time>2026-03-29T10:23:16.071Z</time></trkpt><trkpt lat="42.9644064" lon="-8.1452726"><ele>356.0</ele><time>2026-03-29T10:23:17.071Z</time></trkpt><trkpt lat="42.9645805" lon="-8.1451029"><ele>356.0</ele><time>2026-03-29T10:23:18.071Z</time></trkpt><trkpt lat="42.9647479" lon="-8.1449337"><ele>356.0</ele><time>2026-03-29T10:23:19.07Z</time></trkpt><trkpt lat="42.9649113" lon="-8.1447638"><ele>356.0</ele><time>2026-03-29T10:23:20.071Z</time></trkpt><trkpt lat="42.9650683" lon="-8.1446042"><ele>357.33333333333337</ele><time>2026-03-29T10:23:21.071Z</time></trkpt><trkpt lat="42.9652284" lon="-8.1444471"><ele>358.6666666666667</ele><time>2026-03-29T10:23:22.071Z</time></trkpt><trkpt lat="42.9653792" lon="-8.144296"><ele>360.0</ele><time>2026-03-29T10:23:23.07Z</time></trkpt><trkpt lat="42.9655186" lon="-8.1441538"><ele>362.0</ele><time>2026-03-29T10:23:24.07Z</time></trkpt><trkpt lat="42.9656484" lon="-8.1440256"><ele>364.0</ele><time>2026-03-29T10:23:25.07Z</time></trkpt><trkpt lat="42.9657677" lon="-8.1439028"><ele>366.0</ele><time>2026-03-29T10:23:26.07Z</time></trkpt><trkpt lat="42.9658878" lon="-8.1437914"><ele>366.0</ele><time>2026-03-29T10:23:27.07Z</time></trkpt><trkpt lat="42.966007" lon="-8.1436914"><ele>366.0</ele><time>2026-03-29T10:23:28.07Z</time></trkpt><trkpt lat="42.9661255" lon="-8.1436019"><ele>366.0</ele><time>2026-03-29T10:23:29.071Z</time></trkpt><trkpt lat="42.9662456" lon="-8.1435274"><ele>366.0</ele><time>2026-03-29T10:23:30.07Z</time></trkpt><trkpt lat="42.9663711" lon="-8.1434592"><ele>366.0</ele><time>2026-03-29T10:23:31.071Z</time></trkpt><trkpt lat="42.9664938" lon="-8.1433895"><ele>366.0</ele><time>2026-03-29T10:23:32.07Z</time></trkpt><trkpt lat="42.9666139" lon="-8.1433258"><ele>366.0</ele><time>2026-03-29T10:23:33.07Z</time></trkpt><trkpt lat="42.9667294" lon="-8.1432649"><ele>366.0</ele><time>2026-03-29T10:23:34.07Z</time></trkpt><trkpt lat="42.9668472" lon="-8.1432061"><ele>368.25</ele><time>2026-03-29T10:23:35.07Z</time></trkpt><trkpt lat="42.9669632" lon="-8.1431469"><ele>370.5</ele><time>2026-03-29T10:23:36.071Z</time></trkpt><trkpt lat="42.9670808" lon="-8.143088"><ele>372.75</ele><time>2026-03-29T10:23:37.07Z</time></trkpt><trkpt lat="42.9672041" lon="-8.1430283"><ele>375.0</ele><time>2026-03-29T10:23:38.07Z</time></trkpt><trkpt lat="42.9673265" lon="-8.1429685"><ele>375.0</ele><time>2026-03-29T10:23:39.07Z</time></trkpt><trkpt lat="42.967444" lon="-8.1429064"><ele>375.0</ele><time>2026-03-29T10:23:40.071Z</time></trkpt><trkpt lat="42.9675614" lon="-8.1428408"><ele>375.0</ele><time>2026-03-29T10:23:41.07Z</time></trkpt><trkpt lat="42.9676777" lon="-8.1427701"><ele>375.0</ele><time>2026-03-29T10:23:42.071Z</time></trkpt><trkpt lat="42.9677935" lon="-8.1426944"><ele>374.75</ele><time>2026-03-29T10:23:43.07Z</time></trkpt><trkpt lat="42.9679146" lon="-8.1426146"><ele>374.5</ele><time>2026-03-29T10:23:44.07Z</time></trkpt><trkpt lat="42.9680194" lon="-8.1425244"><ele>374.25</ele><time>2026-03-29T10:23:45.07Z</time></trkpt><trkpt lat="42.968124" lon="-8.1424208"><ele>374.0</ele><time>2026-03-29T10:23:46.07Z</time></trkpt><trkpt lat="42.9682306" lon="-8.1423201"><ele>375.0</ele><time>2026-03-29T10:23:47.07Z</time></trkpt><trkpt lat="42.9683128" lon="-8.1421862"><ele>376.0</ele><time>2026-03-29T10:23:48.071Z</time></trkpt><trkpt lat="42.9683965" lon="-8.1420563"><ele>377.0</ele><time>2026-03-29T10:23:49.07Z</time></trkpt><trkpt lat="42.968475" lon="-8.1419159"><ele>378.0</ele><time>2026-03-29T10:23:50.071Z</time></trkpt><trkpt lat="42.9685525" lon="-8.1417788"><ele>378.0</ele><time>2026-03-29T10:23:51.07Z</time></trkpt><trkpt lat="42.9686296" lon="-8.1416382"><ele>378.0</ele><time>2026-03-29T10:23:52.071Z</time></trkpt><trkpt lat="42.9687095" lon="-8.1414973"><ele>378.0</ele><time>2026-03-29T10:23:53.07Z</time></trkpt><trkpt lat="42.968789" lon="-8.1413516"><ele>378.0</ele><time>2026-03-29T10:23:54.07Z</time></trkpt><trkpt lat="42.9688723" lon="-8.14121"><ele>378.75</ele><time>2026-03-29T10:23:55.07Z</time></trkpt><trkpt lat="42.9689555" lon="-8.141065"><ele>379.5</ele><time>2026-03-29T10:23:56.07Z</time></trkpt><trkpt lat="42.9690409" lon="-8.1409239"><ele>380.25</ele><time>2026-03-29T10:23:57.071Z</time></trkpt><trkpt lat="42.9691244" lon="-8.1407853"><ele>381.0</ele><time>2026-03-29T10:23:58.071Z</time></trkpt><trkpt lat="42.9692089" lon="-8.140647"><ele>382.5</ele><time>2026-03-29T10:23:59.07Z</time></trkpt><trkpt lat="42.9692927" lon="-8.1405139"><ele>384.0</ele><time>2026-03-29T10:24:00.071Z</time></trkpt><trkpt lat="42.9693741" lon="-8.1403794"><ele>385.5</ele><time>2026-03-29T10:24:01.07Z</time></trkpt><trkpt lat="42.9694726" lon="-8.1402629"><ele>387.0</ele><time>2026-03-29T10:24:02.07Z</time></trkpt><trkpt lat="42.9695657" lon="-8.140154"><ele>387.0</ele><time>2026-03-29T10:24:03.07Z</time></trkpt><trkpt lat="42.9696615" lon="-8.1400653"><ele>387.0</ele><time>2026-03-29T10:24:04.071Z</time></trkpt><trkpt lat="42.9697529" lon="-8.1399917"><ele>387.0</ele><time>2026-03-29T10:24:05.07Z</time></trkpt><trkpt lat="42.9698385" lon="-8.1399422"><ele>387.0</ele><time>2026-03-29T10:24:06.07Z</time></trkpt><trkpt lat="42.9699229" lon="-8.1399006"><ele>387.0</ele><time>2026-03-29T10:24:07.071Z</time></trkpt><trkpt lat="42.9700119" lon="-8.1398622"><ele>388.0</ele><time>2026-03-29T10:24:08.071Z</time></trkpt><trkpt lat="42.9701018" lon="-8.1398281"><ele>389.0</ele><time>2026-03-29T10:24:09.071Z</time></trkpt><trkpt lat="42.9701867" lon="-8.139806"><ele>390.0</ele><time>2026-03-29T10:24:10.07Z</time></trkpt><trkpt lat="42.9702669" lon="-8.1397905"><ele>391.0</ele><time>2026-03-29T10:24:11.07Z</time></trkpt><trkpt lat="42.970342" lon="-8.1397773"><ele>392.0</ele><time>2026-03-29T10:24:12.071Z</time></trkpt><trkpt lat="42.9704112" lon="-8.1397677"><ele>393.0</ele><time>2026-03-29T10:24:13.071Z</time></trkpt><trkpt lat="42.9704784" lon="-8.1397579"><ele>393.0</ele><time>2026-03-29T10:24:14.07Z</time></trkpt><trkpt lat="42.9705417" lon="-8.1397566"><ele>393.0</ele><time>2026-03-29T10:24:15.071Z</time></trkpt><trkpt lat="42.9706131" lon="-8.1397516"><ele>393.0</ele><time>2026-03-29T10:24:16.07Z</time></trkpt><trkpt lat="42.9706787" lon="-8.1397483"><ele>393.0</ele><time>2026-03-29T10:24:17.07Z</time></trkpt><trkpt lat="42.9707589" lon="-8.1397466"><ele>393.0</ele><time>2026-03-29T10:24:18.071Z</time></trkpt><trkpt lat="42.9708424" lon="-8.1397393"><ele>393.0</ele><time>2026-03-29T10:24:19.07Z</time></trkpt><trkpt lat="42.9709343" lon="-8.1397354"><ele>393.3333333333333</ele><time>2026-03-29T10:24:20.07Z</time></trkpt><trkpt lat="42.9710229" lon="-8.1397309"><ele>393.66666666666663</ele><time>2026-03-29T10:24:21.07Z</time></trkpt><trkpt lat="42.9711112" lon="-8.1397214"><ele>394.0</ele><time>2026-03-29T10:24:22.071Z</time></trkpt><trkpt lat="42.971193" lon="-8.1397086"><ele>394.3333333333333</ele><time>2026-03-29T10:24:23.071Z</time></trkpt><trkpt lat="42.9712679" lon="-8.1396947"><ele>394.66666666666663</ele><time>2026-03-29T10:24:24.07Z</time></trkpt><trkpt lat="42.9713403" lon="-8.1396764"><ele>395.0</ele><time>2026-03-29T10:24:25.07Z</time></trkpt><trkpt lat="42.9714125" lon="-8.1396571"><ele>395.0</ele><time>2026-03-29T10:24:26.07Z</time></trkpt><trkpt lat="42.9714817" lon="-8.1396392"><ele>395.0</ele><time>2026-03-29T10:24:27.07Z</time></trkpt><trkpt lat="42.971591" lon="-8.1396008"><ele>395.0</ele><time>2026-03-29T10:24:29.071Z</time></trkpt><trkpt lat="42.9716906" lon="-8.1395633"><ele>395.0</ele><time>2026-03-29T10:24:31.071Z</time></trkpt><trkpt lat="42.9718007" lon="-8.1395211"><ele>395.0</ele><time>2026-03-29T10:24:33.07Z</time></trkpt><trkpt lat="42.9718997" lon="-8.139477"><ele>395.16666666666663</ele><time>2026-03-29T10:24:35.07Z</time></trkpt><trkpt lat="42.9719764" lon="-8.1394416"><ele>395.3333333333333</ele><time>2026-03-29T10:24:37.07Z</time></trkpt><trkpt lat="42.9720369" lon="-8.1394155"><ele>395.5</ele><time>2026-03-29T10:24:39.07Z</time></trkpt><trkpt lat="42.9721043" lon="-8.1393867"><ele>395.66666666666663</ele><time>2026-03-29T10:24:43.07Z</time></trkpt><trkpt lat="42.9721857" lon="-8.1393853"><ele>395.8333333333333</ele><time>2026-03-29T10:26:01.07Z</time></trkpt><trkpt lat="42.9722678" lon="-8.1393607"><ele>396.0</ele><time>2026-03-29T10:26:02.07Z</time></trkpt><trkpt lat="42.9723819" lon="-8.1393174"><ele>396.0</ele><time>2026-03-29T10:26:03.07Z</time></trkpt><trkpt lat="42.9725066" lon="-8.1392758"><ele>396.0</ele><time>2026-03-29T10:26:04.07Z</time></trkpt><trkpt lat="42.9726454" lon="-8.1392377"><ele>396.0</ele><time>2026-03-29T10:26:05.07Z</time></trkpt><trkpt lat="42.9727911" lon="-8.1391951"><ele>396.0</ele><time>2026-03-29T10:26:06.071Z</time></trkpt><trkpt lat="42.972943" lon="-8.1391464"><ele>396.66666666666663</ele><time>2026-03-29T10:26:07.07Z</time></trkpt><trkpt lat="42.9731031" lon="-8.1390978"><ele>397.3333333333333</ele><time>2026-03-29T10:26:08.071Z</time></trkpt><trkpt lat="42.9732658" lon="-8.1390552"><ele>398.0</ele><time>2026-03-29T10:26:09.071Z</time></trkpt><trkpt lat="42.9734268" lon="-8.1390049"><ele>400.66666666666663</ele><time>2026-03-29T10:26:10.07Z</time></trkpt><trkpt lat="42.9735872" lon="-8.1389541"><ele>403.33333333333337</ele><time>2026-03-29T10:26:11.071Z</time></trkpt><trkpt lat="42.9737478" lon="-8.1389073"><ele>406.0</ele><time>2026-03-29T10:26:12.071Z</time></trkpt><trkpt lat="42.9739059" lon="-8.1388614"><ele>406.0</ele><time>2026-03-29T10:26:13.07Z</time></trkpt><trkpt lat="42.9740656" lon="-8.1388094"><ele>406.0</ele><time>2026-03-29T10:26:14.07Z</time></trkpt><trkpt lat="42.9742279" lon="-8.1387507"><ele>406.0</ele><time>2026-03-29T10:26:15.07Z</time></trkpt><trkpt lat="42.9743895" lon="-8.1386912"><ele>405.6666666666667</ele><time>2026-03-29T10:26:16.07Z</time></trkpt><trkpt lat="42.9745496" lon="-8.1386069"><ele>405.33333333333337</ele><time>2026-03-29T10:26:17.071Z</time></trkpt><trkpt lat="42.9747038" lon="-8.1385138"><ele>405.0</ele><time>2026-03-29T10:26:18.07Z</time></trkpt><trkpt lat="42.9748581" lon="-8.1384032"><ele>405.0</ele><time>2026-03-29T10:26:19.07Z</time></trkpt><trkpt lat="42.9750095" lon="-8.1382898"><ele>405.0</ele><time>2026-03-29T10:26:20.07Z</time></trkpt><trkpt lat="42.9751629" lon="-8.1381717"><ele>405.0</ele><time>2026-03-29T10:26:21.071Z</time></trkpt><trkpt lat="42.9753172" lon="-8.138049"><ele>406.0</ele><time>2026-03-29T10:26:22.071Z</time></trkpt><trkpt lat="42.9754708" lon="-8.137931"><ele>407.0</ele><time>2026-03-29T10:26:23.071Z</time></trkpt><trkpt lat="42.9756266" lon="-8.137811"><ele>408.0</ele><time>2026-03-29T10:26:24.071Z</time></trkpt><trkpt lat="42.9757839" lon="-8.1376901"><ele>408.33333333333337</ele><time>2026-03-29T10:26:25.07Z</time></trkpt><trkpt lat="42.9759392" lon="-8.1375719"><ele>408.6666666666667</ele><time>2026-03-29T10:26:26.071Z</time></trkpt><trkpt lat="42.9760955" lon="-8.1374513"><ele>409.0</ele><time>2026-03-29T10:26:27.07Z</time></trkpt><trkpt lat="42.9762514" lon="-8.1373298"><ele>409.0</ele><time>2026-03-29T10:26:28.07Z</time></trkpt><trkpt lat="42.9764066" lon="-8.1372079"><ele>409.0</ele><time>2026-03-29T10:26:29.071Z</time></trkpt><trkpt lat="42.976559" lon="-8.1370924"><ele>409.0</ele><time>2026-03-29T10:26:30.07Z</time></trkpt><trkpt lat="42.9767051" lon="-8.1369801"><ele>408.0</ele><time>2026-03-29T10:26:31.07Z</time></trkpt><trkpt lat="42.9768463" lon="-8.136874"><ele>407.0</ele><time>2026-03-29T10:26:32.07Z</time></trkpt><trkpt lat="42.9769796" lon="-8.1367774"><ele>406.0</ele><time>2026-03-29T10:26:33.07Z</time></trkpt><trkpt lat="42.9771046" lon="-8.1366841"><ele>406.0</ele><time>2026-03-29T10:26:34.07Z</time></trkpt><trkpt lat="42.9772201" lon="-8.1365951"><ele>406.0</ele><time>2026-03-29T10:26:35.07Z</time></trkpt><trkpt lat="42.977327" lon="-8.1365099"><ele>406.0</ele><time>2026-03-29T10:26:36.07Z</time></trkpt><trkpt lat="42.977429" lon="-8.1364292"><ele>406.0</ele><time>2026-03-29T10:26:37.07Z</time></trkpt><trkpt lat="42.9775393" lon="-8.1363484"><ele>407.25</ele><time>2026-03-29T10:26:38.071Z</time></trkpt><trkpt lat="42.977654" lon="-8.1362564"><ele>408.5</ele><time>2026-03-29T10:26:39.07Z</time></trkpt><trkpt lat="42.9777744" lon="-8.1361636"><ele>409.75</ele><time>2026-03-29T10:26:40.07Z</time></trkpt><trkpt lat="42.9778971" lon="-8.1360647"><ele>411.0</ele><time>2026-03-29T10:26:41.07Z</time></trkpt><trkpt lat="42.9780254" lon="-8.1359649"><ele>411.0</ele><time>2026-03-29T10:26:42.071Z</time></trkpt><trkpt lat="42.9781567" lon="-8.1358656"><ele>411.0</ele><time>2026-03-29T10:26:43.071Z</time></trkpt><trkpt lat="42.9782912" lon="-8.1357632"><ele>411.0</ele><time>2026-03-29T10:26:44.07Z</time></trkpt><trkpt lat="42.9784265" lon="-8.1356604"><ele>412.66666666666663</ele><time>2026-03-29T10:26:45.07Z</time></trkpt><trkpt lat="42.9785699" lon="-8.1355574"><ele>414.3333333333333</ele><time>2026-03-29T10:26:46.07Z</time></trkpt><trkpt lat="42.9787095" lon="-8.1354499"><ele>416.0</ele><time>2026-03-29T10:26:47.07Z</time></trkpt><trkpt lat="42.9788486" lon="-8.1353434"><ele>416.0</ele><time>2026-03-29T10:26:48.07Z</time></trkpt><trkpt lat="42.9789866" lon="-8.1352377"><ele>416.0</ele><time>2026-03-29T10:26:49.071Z</time></trkpt><trkpt lat="42.9791204" lon="-8.1351319"><ele>416.0</ele><time>2026-03-29T10:26:50.07Z</time></trkpt><trkpt lat="42.9792562" lon="-8.1350251"><ele>415.66666666666663</ele><time>2026-03-29T10:26:51.07Z</time></trkpt><trkpt lat="42.9793822" lon="-8.1349113"><ele>415.33333333333337</ele><time>2026-03-29T10:26:52.071Z</time></trkpt><trkpt lat="42.979504" lon="-8.134789"><ele>415.0</ele><time>2026-03-29T10:26:53.07Z</time></trkpt><trkpt lat="42.9796178" lon="-8.1346592"><ele>415.0</ele><time>2026-03-29T10:26:54.07Z</time></trkpt><trkpt lat="42.9797258" lon="-8.1345175"><ele>415.0</ele><time>2026-03-29T10:26:55.07Z</time></trkpt><trkpt lat="42.9798246" lon="-8.1343684"><ele>415.0</ele><time>2026-03-29T10:26:56.07Z</time></trkpt><trkpt lat="42.9799238" lon="-8.1342159"><ele>415.0</ele><time>2026-03-29T10:26:57.07Z</time></trkpt><trkpt lat="42.9800249" lon="-8.1340594"><ele>416.33333333333337</ele><time>2026-03-29T10:26:58.07Z</time></trkpt><trkpt lat="42.9801266" lon="-8.1338916"><ele>417.66666666666663</ele><time>2026-03-29T10:26:59.07Z</time></trkpt><trkpt lat="42.9802343" lon="-8.1337251"><ele>419.0</ele><time>2026-03-29T10:27:00.071Z</time></trkpt><trkpt lat="42.9803378" lon="-8.1335508"><ele>419.0</ele><time>2026-03-29T10:27:01.07Z</time></trkpt><trkpt lat="42.9804464" lon="-8.1333833"><ele>419.0</ele><time>2026-03-29T10:27:02.07Z</time></trkpt><trkpt lat="42.9805554" lon="-8.1332137"><ele>419.0</ele><time>2026-03-29T10:27:03.071Z</time></trkpt><trkpt lat="42.980665" lon="-8.1330418"><ele>419.3333333333333</ele><time>2026-03-29T10:27:04.071Z</time></trkpt><trkpt lat="42.9807718" lon="-8.1328685"><ele>419.66666666666663</ele><time>2026-03-29T10:27:05.071Z</time></trkpt><trkpt lat="42.9808798" lon="-8.1326949"><ele>420.0</ele><time>2026-03-29T10:27:06.071Z</time></trkpt><trkpt lat="42.9809898" lon="-8.1325202"><ele>421.66666666666663</ele><time>2026-03-29T10:27:07.07Z</time></trkpt><trkpt lat="42.9810962" lon="-8.132349"><ele>423.3333333333333</ele><time>2026-03-29T10:27:08.07Z</time></trkpt><trkpt lat="42.9811972" lon="-8.1321816"><ele>425.0</ele><time>2026-03-29T10:27:09.071Z</time></trkpt><trkpt lat="42.9812923" lon="-8.1320292"><ele>425.0</ele><time>2026-03-29T10:27:10.07Z</time></trkpt><trkpt lat="42.981382" lon="-8.1318921"><ele>425.0</ele><time>2026-03-29T10:27:11.07Z</time></trkpt><trkpt lat="42.9814506" lon="-8.1317623"><ele>425.0</ele><time>2026-03-29T10:27:12.071Z</time></trkpt><trkpt lat="42.9814991" lon="-8.1316368"><ele>425.0</ele><time>2026-03-29T10:27:13.071Z</time></trkpt><trkpt lat="42.9815327" lon="-8.1315074"><ele>425.4</ele><time>2026-03-29T10:27:14.071Z</time></trkpt><trkpt lat="42.9815647" lon="-8.1313771"><ele>425.8</ele><time>2026-03-29T10:27:15.071Z</time></trkpt><trkpt lat="42.981598" lon="-8.1312429"><ele>426.20000000000005</ele><time>2026-03-29T10:27:16.071Z</time></trkpt><trkpt lat="42.9816355" lon="-8.1311177"><ele>426.6</ele><time>2026-03-29T10:27:17.07Z</time></trkpt><trkpt lat="42.9816735" lon="-8.1310188"><ele>427.0</ele><time>2026-03-29T10:27:18.07Z</time></trkpt><trkpt lat="42.9817138" lon="-8.1309362"><ele>427.00000000000006</ele><time>2026-03-29T10:27:19.071Z</time></trkpt><trkpt lat="42.9818387" lon="-8.1309055"><ele>427.0</ele><time>2026-03-29T10:27:21.071Z</time></trkpt><trkpt lat="42.9819013" lon="-8.1309281"><ele>427.0</ele><time>2026-03-29T10:27:22.071Z</time></trkpt><trkpt lat="42.9819891" lon="-8.1309975"><ele>427.0</ele><time>2026-03-29T10:27:24.07Z</time></trkpt><trkpt lat="42.9820471" lon="-8.131045"><ele>427.00000000000006</ele><time>2026-03-29T10:27:26.07Z</time></trkpt><trkpt lat="42.9821204" lon="-8.1310594"><ele>427.0</ele><time>2026-03-29T10:27:29.071Z</time></trkpt><trkpt lat="42.9821806" lon="-8.1309776"><ele>427.0</ele><time>2026-03-29T10:27:32.07Z</time></trkpt><trkpt lat="42.9822455" lon="-8.1309236"><ele>427.0</ele><time>2026-03-29T10:27:35.071Z</time></trkpt><trkpt lat="42.9823296" lon="-8.1309947"><ele>427.0</ele><time>2026-03-29T10:34:09.07Z</time></trkpt><trkpt lat="42.9824134" lon="-8.1309935"><ele>427.0</ele><time>2026-03-29T10:34:10.071Z</time></trkpt><trkpt lat="42.9826353" lon="-8.1309345"><ele>427.5</ele><time>2026-03-29T10:34:12.07Z</time></trkpt><trkpt lat="42.98277" lon="-8.1309099"><ele>428.0</ele><time>2026-03-29T10:34:13.071Z</time></trkpt><trkpt lat="42.982901" lon="-8.1308921"><ele>428.5</ele><time>2026-03-29T10:34:14.07Z</time></trkpt><trkpt lat="42.983059" lon="-8.130902"><ele>429.0</ele><time>2026-03-29T10:34:15.071Z</time></trkpt><trkpt lat="42.9832126" lon="-8.1309203"><ele>429.66666666666663</ele><time>2026-03-29T10:34:16.071Z</time></trkpt><trkpt lat="42.9833709" lon="-8.130949"><ele>430.3333333333333</ele><time>2026-03-29T10:34:17.07Z</time></trkpt><trkpt lat="42.9835356" lon="-8.1309746"><ele>431.0</ele><time>2026-03-29T10:34:18.07Z</time></trkpt><trkpt lat="42.9837092" lon="-8.1310016"><ele>431.0</ele><time>2026-03-29T10:34:19.071Z</time></trkpt><trkpt lat="42.9838871" lon="-8.1310289"><ele>431.0</ele><time>2026-03-29T10:34:20.071Z</time></trkpt><trkpt lat="42.984062" lon="-8.131048"><ele>431.0</ele><time>2026-03-29T10:34:21.07Z</time></trkpt><trkpt lat="42.9842383" lon="-8.1310527"><ele>432.66666666666663</ele><time>2026-03-29T10:34:22.07Z</time></trkpt><trkpt lat="42.9844222" lon="-8.1310417"><ele>434.33333333333337</ele><time>2026-03-29T10:34:23.07Z</time></trkpt><trkpt lat="42.9846062" lon="-8.1310223"><ele>436.0</ele><time>2026-03-29T10:34:24.07Z</time></trkpt><trkpt lat="42.9847911" lon="-8.1309844"><ele>436.0</ele><time>2026-03-29T10:34:25.07Z</time></trkpt><trkpt lat="42.9849753" lon="-8.1309389"><ele>436.0</ele><time>2026-03-29T10:34:26.071Z</time></trkpt><trkpt lat="42.985167" lon="-8.1308943"><ele>436.0</ele><time>2026-03-29T10:34:27.07Z</time></trkpt><trkpt lat="42.9853636" lon="-8.1308547"><ele>436.6666666666667</ele><time>2026-03-29T10:34:28.07Z</time></trkpt><trkpt lat="42.985559" lon="-8.1308118"><ele>437.33333333333337</ele><time>2026-03-29T10:34:29.07Z</time></trkpt><trkpt lat="42.9857482" lon="-8.1307678"><ele>438.0</ele><time>2026-03-29T10:34:30.07Z</time></trkpt><trkpt lat="42.9859389" lon="-8.1307236"><ele>438.0</ele><time>2026-03-29T10:34:31.071Z</time></trkpt><trkpt lat="42.9861246" lon="-8.1306794"><ele>438.0</ele><time>2026-03-29T10:34:32.07Z</time></trkpt><trkpt lat="42.9863166" lon="-8.1306427"><ele>438.0</ele><time>2026-03-29T10:34:33.07Z</time></trkpt><trkpt lat="42.9865093" lon="-8.1306007"><ele>439.0</ele><time>2026-03-29T10:34:34.07Z</time></trkpt><trkpt lat="42.9867053" lon="-8.1305583"><ele>440.0</ele><time>2026-03-29T10:34:35.071Z</time></trkpt><trkpt lat="42.986904" lon="-8.1305091"><ele>441.0</ele><time>2026-03-29T10:34:36.07Z</time></trkpt><trkpt lat="42.9871046" lon="-8.1304588"><ele>441.0</ele><time>2026-03-29T10:34:37.071Z</time></trkpt><trkpt lat="42.9873079" lon="-8.1304094"><ele>441.0</ele><time>2026-03-29T10:34:38.07Z</time></trkpt><trkpt lat="42.9875128" lon="-8.1303599"><ele>441.0</ele><time>2026-03-29T10:34:39.071Z</time></trkpt><trkpt lat="42.987716" lon="-8.1303079"><ele>442.33333333333337</ele><time>2026-03-29T10:34:40.07Z</time></trkpt><trkpt lat="42.9879215" lon="-8.1302815"><ele>443.6666666666667</ele><time>2026-03-29T10:34:41.071Z</time></trkpt><trkpt lat="42.9881292" lon="-8.1302703"><ele>445.0</ele><time>2026-03-29T10:34:42.07Z</time></trkpt><trkpt lat="42.9883377" lon="-8.1302814"><ele>446.0</ele><time>2026-03-29T10:34:43.07Z</time></trkpt><trkpt lat="42.9885477" lon="-8.1303111"><ele>447.0</ele><time>2026-03-29T10:34:44.07Z</time></trkpt><trkpt lat="42.9887546" lon="-8.1303607"><ele>448.0</ele><time>2026-03-29T10:34:45.071Z</time></trkpt><trkpt lat="42.9889643" lon="-8.1304234"><ele>448.0</ele><time>2026-03-29T10:34:46.07Z</time></trkpt><trkpt lat="42.9891744" lon="-8.1304954"><ele>448.0</ele><time>2026-03-29T10:34:47.07Z</time></trkpt><trkpt lat="42.9893858" lon="-8.1305692"><ele>448.0</ele><time>2026-03-29T10:34:48.071Z</time></trkpt><trkpt lat="42.9895989" lon="-8.1306462"><ele>449.6666666666667</ele><time>2026-03-29T10:34:49.07Z</time></trkpt><trkpt lat="42.9898137" lon="-8.130717"><ele>451.33333333333337</ele><time>2026-03-29T10:34:50.07Z</time></trkpt><trkpt lat="42.9900282" lon="-8.1307849"><ele>453.0</ele><time>2026-03-29T10:34:51.07Z</time></trkpt><trkpt lat="42.9902423" lon="-8.1308572"><ele>453.33333333333337</ele><time>2026-03-29T10:34:52.07Z</time></trkpt><trkpt lat="42.9904551" lon="-8.130921"><ele>453.6666666666667</ele><time>2026-03-29T10:34:53.07Z</time></trkpt><trkpt lat="42.9906726" lon="-8.1309655"><ele>454.0</ele><time>2026-03-29T10:34:54.071Z</time></trkpt><trkpt lat="42.990886" lon="-8.1309778"><ele>454.33333333333337</ele><time>2026-03-29T10:34:55.07Z</time></trkpt><trkpt lat="42.991099" lon="-8.1309585"><ele>454.66666666666663</ele><time>2026-03-29T10:34:56.071Z</time></trkpt><trkpt lat="42.9913029" lon="-8.130902"><ele>455.0</ele><time>2026-03-29T10:34:57.07Z</time></trkpt><trkpt lat="42.9915101" lon="-8.1308437"><ele>457.0</ele><time>2026-03-29T10:34:58.07Z</time></trkpt><trkpt lat="42.9917049" lon="-8.1307421"><ele>459.0</ele><time>2026-03-29T10:34:59.07Z</time></trkpt><trkpt lat="42.9919007" lon="-8.1306339"><ele>461.0</ele><time>2026-03-29T10:35:00.07Z</time></trkpt><trkpt lat="42.9920971" lon="-8.1305208"><ele>461.0</ele><time>2026-03-29T10:35:01.07Z</time></trkpt><trkpt lat="42.9922923" lon="-8.1304113"><ele>461.0</ele><time>2026-03-29T10:35:02.07Z</time></trkpt><trkpt lat="42.9924928" lon="-8.1303034"><ele>461.0</ele><time>2026-03-29T10:35:03.07Z</time></trkpt><trkpt lat="42.9926917" lon="-8.1301949"><ele>459.66666666666663</ele><time>2026-03-29T10:35:04.07Z</time></trkpt><trkpt lat="42.992888" lon="-8.1300848"><ele>458.33333333333337</ele><time>2026-03-29T10:35:05.071Z</time></trkpt><trkpt lat="42.9930869" lon="-8.1299793"><ele>457.0</ele><time>2026-03-29T10:35:06.07Z</time></trkpt><trkpt lat="42.9932826" lon="-8.1298753"><ele>458.0</ele><time>2026-03-29T10:35:07.07Z</time></trkpt><trkpt lat="42.9934701" lon="-8.1297702"><ele>459.0</ele><time>2026-03-29T10:35:08.07Z</time></trkpt><trkpt lat="42.9936731" lon="-8.1296784"><ele>460.0</ele><time>2026-03-29T10:35:09.07Z</time></trkpt><trkpt lat="42.9938804" lon="-8.1296125"><ele>460.0</ele><time>2026-03-29T10:35:10.07Z</time></trkpt><trkpt lat="42.9940891" lon="-8.1295643"><ele>460.0</ele><time>2026-03-29T10:35:11.07Z</time></trkpt><trkpt lat="42.9943047" lon="-8.1295287"><ele>460.0</ele><time>2026-03-29T10:35:12.07Z</time></trkpt><trkpt lat="42.9945149" lon="-8.129498"><ele>460.33333333333337</ele><time>2026-03-29T10:35:13.07Z</time></trkpt><trkpt lat="42.9947273" lon="-8.1294579"><ele>460.66666666666663</ele><time>2026-03-29T10:35:14.07Z</time></trkpt><trkpt lat="42.9949411" lon="-8.1294101"><ele>461.0</ele><time>2026-03-29T10:35:15.07Z</time></trkpt><trkpt lat="42.9951547" lon="-8.129346"><ele>461.3333333333333</ele><time>2026-03-29T10:35:16.071Z</time></trkpt><trkpt lat="42.9953673" lon="-8.1292518"><ele>461.66666666666663</ele><time>2026-03-29T10:35:17.071Z</time></trkpt><trkpt lat="42.9955723" lon="-8.1291263"><ele>462.0</ele><time>2026-03-29T10:35:18.071Z</time></trkpt><trkpt lat="42.9957742" lon="-8.1289737"><ele>465.5</ele><time>2026-03-29T10:35:19.07Z</time></trkpt><trkpt lat="42.9959712" lon="-8.1288071"><ele>469.0</ele><time>2026-03-29T10:35:20.07Z</time></trkpt><trkpt lat="42.9961665" lon="-8.1286394"><ele>469.0</ele><time>2026-03-29T10:35:21.07Z</time></trkpt><trkpt lat="42.9963656" lon="-8.1284822"><ele>469.0</ele><time>2026-03-29T10:35:22.071Z</time></trkpt><trkpt lat="42.9965746" lon="-8.1283576"><ele>469.6666666666667</ele><time>2026-03-29T10:35:23.07Z</time></trkpt><trkpt lat="42.9967906" lon="-8.1282732"><ele>470.33333333333337</ele><time>2026-03-29T10:35:24.07Z</time></trkpt><trkpt lat="42.9970089" lon="-8.1282056"><ele>471.0</ele><time>2026-03-29T10:35:25.07Z</time></trkpt><trkpt lat="42.9972327" lon="-8.1282089"><ele>471.0</ele><time>2026-03-29T10:35:26.07Z</time></trkpt><trkpt lat="42.9974597" lon="-8.1282253"><ele>471.0</ele><time>2026-03-29T10:35:27.07Z</time></trkpt><trkpt lat="42.9976852" lon="-8.1282619"><ele>473.0</ele><time>2026-03-29T10:35:28.07Z</time></trkpt><trkpt lat="42.9979098" lon="-8.1283071"><ele>475.0</ele><time>2026-03-29T10:35:29.07Z</time></trkpt><trkpt lat="42.9981359" lon="-8.1283479"><ele>479.0</ele><time>2026-03-29T10:35:30.07Z</time></trkpt><trkpt lat="42.9983636" lon="-8.128388"><ele>483.0</ele><time>2026-03-29T10:35:31.07Z</time></trkpt><trkpt lat="42.9986003" lon="-8.1284266"><ele>483.0</ele><time>2026-03-29T10:35:32.07Z</time></trkpt><trkpt lat="42.9988301" lon="-8.1284641"><ele>483.0</ele><time>2026-03-29T10:35:33.071Z</time></trkpt><trkpt lat="42.9990587" lon="-8.1285037"><ele>477.0</ele><time>2026-03-29T10:35:34.07Z</time></trkpt><trkpt lat="42.9992862" lon="-8.1285426"><ele>471.0</ele><time>2026-03-29T10:35:35.07Z</time></trkpt><trkpt lat="42.9995104" lon="-8.1285774"><ele>471.0</ele><time>2026-03-29T10:35:36.071Z</time></trkpt><trkpt lat="42.9997346" lon="-8.1286108"><ele>471.0</ele><time>2026-03-29T10:35:37.07Z</time></trkpt><trkpt lat="42.999948" lon="-8.1286407"><ele>471.0</ele><time>2026-03-29T10:35:38.07Z</time></trkpt><trkpt lat="43.0001551" lon="-8.1286571"><ele>471.0</ele><time>2026-03-29T10:35:39.071Z</time></trkpt><trkpt lat="43.0003637" lon="-8.1286506"><ele>471.0</ele><time>2026-03-29T10:35:40.07Z</time></trkpt><trkpt lat="43.0005674" lon="-8.128614"><ele>471.0</ele><time>2026-03-29T10:35:41.07Z</time></trkpt><trkpt lat="43.0007633" lon="-8.128537"><ele>470.33333333333337</ele><time>2026-03-29T10:35:42.07Z</time></trkpt><trkpt lat="43.0009549" lon="-8.1284248"><ele>469.6666666666667</ele><time>2026-03-29T10:35:43.071Z</time></trkpt><trkpt lat="43.0011443" lon="-8.1282821"><ele>469.0</ele><time>2026-03-29T10:35:44.07Z</time></trkpt><trkpt lat="43.0013348" lon="-8.1281223"><ele>470.0</ele><time>2026-03-29T10:35:45.071Z</time></trkpt><trkpt lat="43.0015258" lon="-8.1279492"><ele>471.0</ele><time>2026-03-29T10:35:46.07Z</time></trkpt><trkpt lat="43.0017112" lon="-8.127773"><ele>471.0</ele><time>2026-03-29T10:35:47.07Z</time></trkpt><trkpt lat="43.0018922" lon="-8.1275919"><ele>471.0</ele><time>2026-03-29T10:35:48.071Z</time></trkpt><trkpt lat="43.002074" lon="-8.127438"><ele>471.0</ele><time>2026-03-29T10:35:49.07Z</time></trkpt><trkpt lat="43.0022527" lon="-8.1272864"><ele>470.33333333333337</ele><time>2026-03-29T10:35:50.07Z</time></trkpt><trkpt lat="43.0024311" lon="-8.1271442"><ele>469.6666666666667</ele><time>2026-03-29T10:35:51.07Z</time></trkpt><trkpt lat="43.0026163" lon="-8.1270334"><ele>469.0</ele><time>2026-03-29T10:35:52.07Z</time></trkpt><trkpt lat="43.0028187" lon="-8.126962"><ele>470.33333333333337</ele><time>2026-03-29T10:35:53.07Z</time></trkpt><trkpt lat="43.0030244" lon="-8.1269338"><ele>471.66666666666663</ele><time>2026-03-29T10:35:54.07Z</time></trkpt><trkpt lat="43.0032234" lon="-8.1269484"><ele>473.0</ele><time>2026-03-29T10:35:55.071Z</time></trkpt><trkpt lat="43.0034229" lon="-8.1269922"><ele>473.66666666666663</ele><time>2026-03-29T10:35:56.07Z</time></trkpt><trkpt lat="43.003613" lon="-8.1270524"><ele>474.33333333333337</ele><time>2026-03-29T10:35:57.071Z</time></trkpt><trkpt lat="43.0038024" lon="-8.1271241"><ele>475.0</ele><time>2026-03-29T10:35:58.07Z</time></trkpt><trkpt lat="43.0039917" lon="-8.1272007"><ele>476.6666666666667</ele><time>2026-03-29T10:35:59.07Z</time></trkpt><trkpt lat="43.0041755" lon="-8.1272694"><ele>478.33333333333337</ele><time>2026-03-29T10:36:00.071Z</time></trkpt><trkpt lat="43.0043553" lon="-8.1273226"><ele>480.0</ele><time>2026-03-29T10:36:01.071Z</time></trkpt><trkpt lat="43.0045361" lon="-8.127357"><ele>480.0</ele><time>2026-03-29T10:36:02.07Z</time></trkpt><trkpt lat="43.0047165" lon="-8.1273625"><ele>480.0</ele><time>2026-03-29T10:36:03.071Z</time></trkpt><trkpt lat="43.0048952" lon="-8.1273494"><ele>480.0</ele><time>2026-03-29T10:36:04.071Z</time></trkpt><trkpt lat="43.0050663" lon="-8.1273318"><ele>479.0</ele><time>2026-03-29T10:36:05.071Z</time></trkpt><trkpt lat="43.0052234" lon="-8.1272844"><ele>478.0</ele><time>2026-03-29T10:36:06.071Z</time></trkpt><trkpt lat="43.0053754" lon="-8.1272297"><ele>477.0</ele><time>2026-03-29T10:36:07.07Z</time></trkpt><trkpt lat="43.0055238" lon="-8.127177"><ele>477.0</ele><time>2026-03-29T10:36:08.07Z</time></trkpt><trkpt lat="43.0056642" lon="-8.1271214"><ele>477.0</ele><time>2026-03-29T10:36:09.07Z</time></trkpt><trkpt lat="43.005805" lon="-8.127068"><ele>477.0</ele><time>2026-03-29T10:36:10.07Z</time></trkpt><trkpt lat="43.0059421" lon="-8.1270146"><ele>477.0</ele><time>2026-03-29T10:36:11.07Z</time></trkpt><trkpt lat="43.0060757" lon="-8.1269645"><ele>479.5</ele><time>2026-03-29T10:36:12.07Z</time></trkpt><trkpt lat="43.0062029" lon="-8.126914"><ele>482.0</ele><time>2026-03-29T10:36:13.071Z</time></trkpt><trkpt lat="43.0063254" lon="-8.1268688"><ele>484.5</ele><time>2026-03-29T10:36:14.07Z</time></trkpt><trkpt lat="43.0064444" lon="-8.1268218"><ele>487.0</ele><time>2026-03-29T10:36:15.071Z</time></trkpt><trkpt lat="43.0065626" lon="-8.1267804"><ele>487.25</ele><time>2026-03-29T10:36:16.07Z</time></trkpt><trkpt lat="43.0066782" lon="-8.1267381"><ele>487.5</ele><time>2026-03-29T10:36:17.07Z</time></trkpt><trkpt lat="43.0067943" lon="-8.1266973"><ele>487.75</ele><time>2026-03-29T10:36:18.07Z</time></trkpt><trkpt lat="43.0069131" lon="-8.1266574"><ele>488.0</ele><time>2026-03-29T10:36:19.071Z</time></trkpt><trkpt lat="43.007031" lon="-8.1266118"><ele>488.0</ele><time>2026-03-29T10:36:20.071Z</time></trkpt><trkpt lat="43.0071508" lon="-8.1265679"><ele>488.0</ele><time>2026-03-29T10:36:21.07Z</time></trkpt><trkpt lat="43.0072747" lon="-8.1265191"><ele>488.0</ele><time>2026-03-29T10:36:22.07Z</time></trkpt><trkpt lat="43.0073975" lon="-8.1264701"><ele>488.0</ele><time>2026-03-29T10:36:23.071Z</time></trkpt><trkpt lat="43.0075263" lon="-8.1264177"><ele>487.75</ele><time>2026-03-29T10:36:24.07Z</time></trkpt><trkpt lat="43.0076628" lon="-8.1263647"><ele>487.5</ele><time>2026-03-29T10:36:25.07Z</time></trkpt><trkpt lat="43.0078051" lon="-8.1263097"><ele>487.25</ele><time>2026-03-29T10:36:26.071Z</time></trkpt><trkpt lat="43.0079515" lon="-8.1262487"><ele>487.0</ele><time>2026-03-29T10:36:27.07Z</time></trkpt><trkpt lat="43.0081039" lon="-8.1261865"><ele>487.0</ele><time>2026-03-29T10:36:28.071Z</time></trkpt><trkpt lat="43.0082596" lon="-8.1261235"><ele>487.0</ele><time>2026-03-29T10:36:29.07Z</time></trkpt><trkpt lat="43.0084205" lon="-8.126063"><ele>487.0</ele><time>2026-03-29T10:36:30.071Z</time></trkpt><trkpt lat="43.0085827" lon="-8.1259973"><ele>485.6666666666667</ele><time>2026-03-29T10:36:31.071Z</time></trkpt><trkpt lat="43.0087476" lon="-8.1259293"><ele>484.33333333333337</ele><time>2026-03-29T10:36:32.07Z</time></trkpt><trkpt lat="43.0089113" lon="-8.1258626"><ele>483.0</ele><time>2026-03-29T10:36:33.071Z</time></trkpt><trkpt lat="43.0090798" lon="-8.1257964"><ele>482.0</ele><time>2026-03-29T10:36:34.07Z</time></trkpt><trkpt lat="43.0092538" lon="-8.1257254"><ele>481.0</ele><time>2026-03-29T10:36:35.071Z</time></trkpt><trkpt lat="43.0094315" lon="-8.1256504"><ele>480.0</ele><time>2026-03-29T10:36:36.07Z</time></trkpt><trkpt lat="43.0096132" lon="-8.1255807"><ele>480.0</ele><time>2026-03-29T10:36:37.071Z</time></trkpt><trkpt lat="43.0097947" lon="-8.1255042"><ele>480.0</ele><time>2026-03-29T10:36:38.07Z</time></trkpt><trkpt lat="43.0099848" lon="-8.1254273"><ele>480.0</ele><time>2026-03-29T10:36:39.07Z</time></trkpt><trkpt lat="43.0101744" lon="-8.1253489"><ele>478.66666666666663</ele><time>2026-03-29T10:36:40.07Z</time></trkpt><trkpt lat="43.0103645" lon="-8.1252692"><ele>477.3333333333333</ele><time>2026-03-29T10:36:41.07Z</time></trkpt><trkpt lat="43.0105604" lon="-8.1251896"><ele>476.0</ele><time>2026-03-29T10:36:42.07Z</time></trkpt><trkpt lat="43.0107547" lon="-8.1251073"><ele>475.3333333333333</ele><time>2026-03-29T10:36:43.071Z</time></trkpt><trkpt lat="43.0109413" lon="-8.1250314"><ele>474.66666666666663</ele><time>2026-03-29T10:36:44.071Z</time></trkpt><trkpt lat="43.0111455" lon="-8.1249543"><ele>474.0</ele><time>2026-03-29T10:36:45.07Z</time></trkpt><trkpt lat="43.0113417" lon="-8.124876"><ele>473.66666666666663</ele><time>2026-03-29T10:36:46.071Z</time></trkpt><trkpt lat="43.0115365" lon="-8.1247943"><ele>473.3333333333333</ele><time>2026-03-29T10:36:47.07Z</time></trkpt><trkpt lat="43.0117355" lon="-8.1247071"><ele>473.0</ele><time>2026-03-29T10:36:48.07Z</time></trkpt><trkpt lat="43.0119302" lon="-8.124606"><ele>473.0</ele><time>2026-03-29T10:36:49.07Z</time></trkpt><trkpt lat="43.0121162" lon="-8.1244852"><ele>473.0</ele><time>2026-03-29T10:36:50.071Z</time></trkpt><trkpt lat="43.0122967" lon="-8.1243533"><ele>473.0</ele><time>2026-03-29T10:36:51.07Z</time></trkpt><trkpt lat="43.0124715" lon="-8.1242068"><ele>473.66666666666663</ele><time>2026-03-29T10:36:52.071Z</time></trkpt><trkpt lat="43.0126453" lon="-8.1240535"><ele>474.33333333333337</ele><time>2026-03-29T10:36:53.07Z</time></trkpt><trkpt lat="43.0128161" lon="-8.1238924"><ele>475.0</ele><time>2026-03-29T10:36:54.07Z</time></trkpt><trkpt lat="43.0129796" lon="-8.1237196"><ele>475.0</ele><time>2026-03-29T10:36:55.071Z</time></trkpt><trkpt lat="43.0131311" lon="-8.1235349"><ele>475.0</ele><time>2026-03-29T10:36:56.07Z</time></trkpt><trkpt lat="43.0132745" lon="-8.1233372"><ele>475.0</ele><time>2026-03-29T10:36:57.071Z</time></trkpt><trkpt lat="43.0134138" lon="-8.1231329"><ele>474.6666666666667</ele><time>2026-03-29T10:36:58.071Z</time></trkpt><trkpt lat="43.0135484" lon="-8.1229256"><ele>474.33333333333337</ele><time>2026-03-29T10:36:59.071Z</time></trkpt><trkpt lat="43.0136811" lon="-8.1227173"><ele>474.0</ele><time>2026-03-29T10:37:00.071Z</time></trkpt><trkpt lat="43.0138203" lon="-8.1225095"><ele>472.66666666666663</ele><time>2026-03-29T10:37:01.07Z</time></trkpt><trkpt lat="43.0139563" lon="-8.1222982"><ele>471.3333333333333</ele><time>2026-03-29T10:37:02.071Z</time></trkpt><trkpt lat="43.0140869" lon="-8.1220873"><ele>470.0</ele><time>2026-03-29T10:37:03.071Z</time></trkpt><trkpt lat="43.0142192" lon="-8.1218729"><ele>472.3333333333333</ele><time>2026-03-29T10:37:04.07Z</time></trkpt><trkpt lat="43.0143472" lon="-8.1216552"><ele>474.66666666666663</ele><time>2026-03-29T10:37:05.071Z</time></trkpt><trkpt lat="43.0144668" lon="-8.1214308"><ele>477.0</ele><time>2026-03-29T10:37:06.07Z</time></trkpt><trkpt lat="43.0145822" lon="-8.121205"><ele>477.0</ele><time>2026-03-29T10:37:07.07Z</time></trkpt><trkpt lat="43.0146907" lon="-8.1209742"><ele>477.0</ele><time>2026-03-29T10:37:08.07Z</time></trkpt><trkpt lat="43.0147918" lon="-8.1207412"><ele>477.0</ele><time>2026-03-29T10:37:09.071Z</time></trkpt><trkpt lat="43.0148916" lon="-8.1205113"><ele>476.66666666666663</ele><time>2026-03-29T10:37:10.071Z</time></trkpt><trkpt lat="43.0149936" lon="-8.1202741"><ele>476.3333333333333</ele><time>2026-03-29T10:37:11.071Z</time></trkpt><trkpt lat="43.0150921" lon="-8.1200398"><ele>476.0</ele><time>2026-03-29T10:37:12.071Z</time></trkpt><trkpt lat="43.0151849" lon="-8.119795"><ele>476.0</ele><time>2026-03-29T10:37:13.07Z</time></trkpt><trkpt lat="43.0152756" lon="-8.1195417"><ele>476.0</ele><time>2026-03-29T10:37:14.07Z</time></trkpt><trkpt lat="43.0153504" lon="-8.119285"><ele>476.0</ele><time>2026-03-29T10:37:15.071Z</time></trkpt><trkpt lat="43.0154124" lon="-8.1190148"><ele>475.0</ele><time>2026-03-29T10:37:16.07Z</time></trkpt><trkpt lat="43.0154713" lon="-8.1187364"><ele>474.0</ele><time>2026-03-29T10:37:17.07Z</time></trkpt><trkpt lat="43.0155293" lon="-8.1184494"><ele>473.0</ele><time>2026-03-29T10:37:18.07Z</time></trkpt><trkpt lat="43.0155803" lon="-8.1181622"><ele>472.0</ele><time>2026-03-29T10:37:19.071Z</time></trkpt><trkpt lat="43.015631" lon="-8.1178678"><ele>471.0</ele><time>2026-03-29T10:37:20.071Z</time></trkpt><trkpt lat="43.015686" lon="-8.1175753"><ele>470.0</ele><time>2026-03-29T10:37:21.071Z</time></trkpt><trkpt lat="43.0157424" lon="-8.1172721"><ele>469.0</ele><time>2026-03-29T10:37:22.07Z</time></trkpt><trkpt lat="43.0158005" lon="-8.1169661"><ele>468.0</ele><time>2026-03-29T10:37:23.07Z</time></trkpt><trkpt lat="43.0158602" lon="-8.1166591"><ele>467.0</ele><time>2026-03-29T10:37:24.07Z</time></trkpt><trkpt lat="43.0159192" lon="-8.1163519"><ele>466.0</ele><time>2026-03-29T10:37:25.071Z</time></trkpt><trkpt lat="43.0159755" lon="-8.1160462"><ele>466.0</ele><time>2026-03-29T10:37:26.071Z</time></trkpt><trkpt lat="43.0160348" lon="-8.1157394"><ele>466.0</ele><time>2026-03-29T10:37:27.07Z</time></trkpt><trkpt lat="43.0160906" lon="-8.1154407"><ele>465.5</ele><time>2026-03-29T10:37:28.07Z</time></trkpt><trkpt lat="43.0161489" lon="-8.1151347"><ele>465.0</ele><time>2026-03-29T10:37:29.07Z</time></trkpt><trkpt lat="43.0162025" lon="-8.114831"><ele>465.0</ele><time>2026-03-29T10:37:30.07Z</time></trkpt><trkpt lat="43.0162582" lon="-8.1145283"><ele>465.0</ele><time>2026-03-29T10:37:31.07Z</time></trkpt><trkpt lat="43.0163145" lon="-8.1142265"><ele>466.0</ele><time>2026-03-29T10:37:32.07Z</time></trkpt><trkpt lat="43.0163591" lon="-8.1139251"><ele>467.0</ele><time>2026-03-29T10:37:33.071Z</time></trkpt><trkpt lat="43.0163877" lon="-8.1136204"><ele>468.0</ele><time>2026-03-29T10:37:34.07Z</time></trkpt><trkpt lat="43.0163981" lon="-8.1133172"><ele>468.33333333333337</ele><time>2026-03-29T10:37:35.07Z</time></trkpt><trkpt lat="43.0163949" lon="-8.1130178"><ele>468.6666666666667</ele><time>2026-03-29T10:37:36.07Z</time></trkpt><trkpt lat="43.0163739" lon="-8.1127147"><ele>469.0</ele><time>2026-03-29T10:37:37.071Z</time></trkpt><trkpt lat="43.0163545" lon="-8.112407"><ele>469.0</ele><time>2026-03-29T10:37:38.07Z</time></trkpt><trkpt lat="43.0163396" lon="-8.1121063"><ele>469.0</ele><time>2026-03-29T10:37:39.07Z</time></trkpt><trkpt lat="43.016323" lon="-8.111791"><ele>467.5</ele><time>2026-03-29T10:37:40.07Z</time></trkpt><trkpt lat="43.0163033" lon="-8.1114828"><ele>466.0</ele><time>2026-03-29T10:37:41.07Z</time></trkpt><trkpt lat="43.016283" lon="-8.111167"><ele>466.0</ele><time>2026-03-29T10:37:42.071Z</time></trkpt><trkpt lat="43.0162611" lon="-8.1108577"><ele>466.0</ele><time>2026-03-29T10:37:43.071Z</time></trkpt><trkpt lat="43.0162416" lon="-8.1105564"><ele>466.0</ele><time>2026-03-29T10:37:44.07Z</time></trkpt><trkpt lat="43.0162291" lon="-8.1102658"><ele>465.6666666666667</ele><time>2026-03-29T10:37:45.071Z</time></trkpt><trkpt lat="43.0162187" lon="-8.1099852"><ele>465.33333333333337</ele><time>2026-03-29T10:37:46.07Z</time></trkpt><trkpt lat="43.0162079" lon="-8.1097081"><ele>465.0</ele><time>2026-03-29T10:37:47.07Z</time></trkpt><trkpt lat="43.0161925" lon="-8.1094311"><ele>464.33333333333337</ele><time>2026-03-29T10:37:48.07Z</time></trkpt><trkpt lat="43.0161835" lon="-8.1091545"><ele>463.6666666666667</ele><time>2026-03-29T10:37:49.071Z</time></trkpt><trkpt lat="43.016168" lon="-8.1088752"><ele>463.0</ele><time>2026-03-29T10:37:50.071Z</time></trkpt><trkpt lat="43.0161537" lon="-8.1085966"><ele>462.6666666666667</ele><time>2026-03-29T10:37:51.071Z</time></trkpt><trkpt lat="43.0161378" lon="-8.1083256"><ele>462.33333333333337</ele><time>2026-03-29T10:37:52.071Z</time></trkpt><trkpt lat="43.0161244" lon="-8.1080628"><ele>462.0</ele><time>2026-03-29T10:37:53.07Z</time></trkpt><trkpt lat="43.0161014" lon="-8.1078131"><ele>462.0</ele><time>2026-03-29T10:37:54.07Z</time></trkpt><trkpt lat="43.016065" lon="-8.1075652"><ele>462.0</ele><time>2026-03-29T10:37:55.071Z</time></trkpt><trkpt lat="43.0160208" lon="-8.1073428"><ele>462.0</ele><time>2026-03-29T10:37:56.071Z</time></trkpt><trkpt lat="43.0159294" lon="-8.1071446"><ele>460.66666666666663</ele><time>2026-03-29T10:37:57.071Z</time></trkpt><trkpt lat="43.0158311" lon="-8.1069666"><ele>459.3333333333333</ele><time>2026-03-29T10:37:58.071Z</time></trkpt><trkpt lat="43.0157295" lon="-8.1068051"><ele>458.0</ele><time>2026-03-29T10:37:59.071Z</time></trkpt><trkpt lat="43.0156488" lon="-8.1066468"><ele>460.0</ele><time>2026-03-29T10:38:00.07Z</time></trkpt><trkpt lat="43.0155901" lon="-8.1064921"><ele>462.0</ele><time>2026-03-29T10:38:01.07Z</time></trkpt><trkpt lat="43.015553" lon="-8.1063434"><ele>464.0</ele><time>2026-03-29T10:38:02.07Z</time></trkpt><trkpt lat="43.0155263" lon="-8.106199"><ele>466.0</ele><time>2026-03-29T10:38:03.07Z</time></trkpt><trkpt lat="43.0155023" lon="-8.1060655"><ele>466.0</ele><time>2026-03-29T10:38:04.07Z</time></trkpt><trkpt lat="43.0154949" lon="-8.1059546"><ele>466.0</ele><time>2026-03-29T10:38:05.07Z</time></trkpt><trkpt lat="43.0154986" lon="-8.1058143"><ele>466.0</ele><time>2026-03-29T10:38:07.07Z</time></trkpt><trkpt lat="43.0155191" lon="-8.1057303"><ele>466.0</ele><time>2026-03-29T10:38:18.071Z</time></trkpt><trkpt lat="43.0155348" lon="-8.1056248"><ele>466.0</ele><time>2026-03-29T10:38:21.071Z</time></trkpt><trkpt lat="43.0156635" lon="-8.1055844"><ele>466.0</ele><time>2026-03-29T10:39:04.07Z</time></trkpt><trkpt lat="43.01573" lon="-8.1055727"><ele>466.0</ele><time>2026-03-29T10:39:05.071Z</time></trkpt><trkpt lat="43.0158413" lon="-8.105568"><ele>466.0</ele><time>2026-03-29T10:39:06.071Z</time></trkpt><trkpt lat="43.015947" lon="-8.105556"><ele>466.0</ele><time>2026-03-29T10:39:07.071Z</time></trkpt><trkpt lat="43.0160621" lon="-8.1055303"><ele>466.0</ele><time>2026-03-29T10:39:08.07Z</time></trkpt><trkpt lat="43.0161672" lon="-8.1054983"><ele>465.25</ele><time>2026-03-29T10:39:09.071Z</time></trkpt><trkpt lat="43.016298" lon="-8.1054673"><ele>464.5</ele><time>2026-03-29T10:39:10.07Z</time></trkpt><trkpt lat="43.0164212" lon="-8.1054454"><ele>463.75</ele><time>2026-03-29T10:39:11.071Z</time></trkpt><trkpt lat="43.0165433" lon="-8.1054226"><ele>463.0</ele><time>2026-03-29T10:39:12.071Z</time></trkpt><trkpt lat="43.0166487" lon="-8.1053985"><ele>463.1666666666667</ele><time>2026-03-29T10:39:13.071Z</time></trkpt><trkpt lat="43.0167467" lon="-8.1053794"><ele>463.33333333333337</ele><time>2026-03-29T10:39:14.071Z</time></trkpt><trkpt lat="43.0168322" lon="-8.1053676"><ele>463.5</ele><time>2026-03-29T10:39:15.07Z</time></trkpt><trkpt lat="43.0169013" lon="-8.1053797"><ele>463.66666666666663</ele><time>2026-03-29T10:39:16.07Z</time></trkpt><trkpt lat="43.0169411" lon="-8.1054888"><ele>463.8333333333333</ele><time>2026-03-29T10:39:18.07Z</time></trkpt><trkpt lat="43.0168873" lon="-8.1055411"><ele>464.0</ele><time>2026-03-29T10:39:20.07Z</time></trkpt><trkpt lat="43.0167577" lon="-8.105518"><ele>464.00000000000006</ele><time>2026-03-29T10:49:19.07Z</time></trkpt><trkpt lat="43.0166941" lon="-8.1055509"><ele>464.0</ele><time>2026-03-29T10:49:22.07Z</time></trkpt><trkpt lat="43.0166284" lon="-8.105568"><ele>464.00000000000006</ele><time>2026-03-29T10:49:25.07Z</time></trkpt><trkpt lat="43.0165631" lon="-8.105528"><ele>464.00000000000006</ele><time>2026-03-29T10:49:29.07Z</time></trkpt><trkpt lat="43.0164944" lon="-8.1054759"><ele>464.0</ele><time>2026-03-29T10:50:35.071Z</time></trkpt><trkpt lat="43.0164249" lon="-8.1054959"><ele>464.00000000000006</ele><time>2026-03-29T10:50:36.07Z</time></trkpt><trkpt lat="43.0163498" lon="-8.1055183"><ele>464.00000000000006</ele><time>2026-03-29T10:50:37.07Z</time></trkpt><trkpt lat="43.016279" lon="-8.1055392"><ele>463.8333333333333</ele><time>2026-03-29T10:50:38.07Z</time></trkpt><trkpt lat="43.016206" lon="-8.1055553"><ele>463.66666666666663</ele><time>2026-03-29T10:50:39.071Z</time></trkpt><trkpt lat="43.0161323" lon="-8.1055719"><ele>463.5</ele><time>2026-03-29T10:50:40.07Z</time></trkpt><trkpt lat="43.0160577" lon="-8.1055884"><ele>463.33333333333337</ele><time>2026-03-29T10:50:41.071Z</time></trkpt><trkpt lat="43.0159864" lon="-8.1055988"><ele>463.1666666666667</ele><time>2026-03-29T10:50:42.071Z</time></trkpt><trkpt lat="43.015906" lon="-8.1056111"><ele>463.0</ele><time>2026-03-29T10:50:43.071Z</time></trkpt><trkpt lat="43.0158188" lon="-8.1056208"><ele>463.50000000000006</ele><time>2026-03-29T10:50:44.07Z</time></trkpt><trkpt lat="43.0157278" lon="-8.1056313"><ele>464.0</ele><time>2026-03-29T10:50:45.07Z</time></trkpt><trkpt lat="43.0156402" lon="-8.1056672"><ele>464.5</ele><time>2026-03-29T10:50:46.07Z</time></trkpt><trkpt lat="43.0155717" lon="-8.1057369"><ele>465.0</ele><time>2026-03-29T10:50:47.071Z</time></trkpt><trkpt lat="43.015534" lon="-8.1058413"><ele>465.50000000000006</ele><time>2026-03-29T10:50:48.07Z</time></trkpt><trkpt lat="43.0155206" lon="-8.1059696"><ele>466.0</ele><time>2026-03-29T10:50:49.07Z</time></trkpt><trkpt lat="43.0155195" lon="-8.1061089"><ele>466.0</ele><time>2026-03-29T10:50:50.07Z</time></trkpt><trkpt lat="43.0155385" lon="-8.1062656"><ele>466.0</ele><time>2026-03-29T10:50:51.071Z</time></trkpt><trkpt lat="43.0155733" lon="-8.1064229"><ele>466.0</ele><time>2026-03-29T10:50:52.07Z</time></trkpt><trkpt lat="43.0156243" lon="-8.1065722"><ele>466.0</ele><time>2026-03-29T10:50:53.071Z</time></trkpt><trkpt lat="43.0156917" lon="-8.1067163"><ele>466.5</ele><time>2026-03-29T10:50:54.07Z</time></trkpt><trkpt lat="43.0157657" lon="-8.1068586"><ele>467.0</ele><time>2026-03-29T10:50:55.071Z</time></trkpt><trkpt lat="43.0158527" lon="-8.1070044"><ele>467.5</ele><time>2026-03-29T10:50:56.071Z</time></trkpt><trkpt lat="43.015939" lon="-8.1071576"><ele>468.0</ele><time>2026-03-29T10:50:57.071Z</time></trkpt><trkpt lat="43.0160162" lon="-8.1073351"><ele>466.0</ele><time>2026-03-29T10:50:58.071Z</time></trkpt><trkpt lat="43.0160756" lon="-8.1075364"><ele>464.0</ele><time>2026-03-29T10:50:59.07Z</time></trkpt><trkpt lat="43.0161191" lon="-8.1077536"><ele>462.0</ele><time>2026-03-29T10:51:00.07Z</time></trkpt><trkpt lat="43.0161413" lon="-8.1079723"><ele>462.0</ele><time>2026-03-29T10:51:01.07Z</time></trkpt><trkpt lat="43.0161547" lon="-8.108191"><ele>462.0</ele><time>2026-03-29T10:51:02.07Z</time></trkpt><trkpt lat="43.0161665" lon="-8.1084163"><ele>462.0</ele><time>2026-03-29T10:51:03.07Z</time></trkpt><trkpt lat="43.0161807" lon="-8.1086445"><ele>462.0</ele><time>2026-03-29T10:51:04.07Z</time></trkpt><trkpt lat="43.0161962" lon="-8.1088697"><ele>462.0</ele><time>2026-03-29T10:51:05.071Z</time></trkpt><trkpt lat="43.0162102" lon="-8.1091136"><ele>462.0</ele><time>2026-03-29T10:51:06.07Z</time></trkpt><trkpt lat="43.0162221" lon="-8.1093557"><ele>462.33333333333337</ele><time>2026-03-29T10:51:07.07Z</time></trkpt><trkpt lat="43.0162303" lon="-8.1095963"><ele>462.6666666666667</ele><time>2026-03-29T10:51:08.07Z</time></trkpt><trkpt lat="43.0162469" lon="-8.1098453"><ele>463.0</ele><time>2026-03-29T10:51:09.07Z</time></trkpt><trkpt lat="43.0162617" lon="-8.1100923"><ele>463.6666666666667</ele><time>2026-03-29T10:51:10.07Z</time></trkpt><trkpt lat="43.0162759" lon="-8.1103266"><ele>464.33333333333337</ele><time>2026-03-29T10:51:11.071Z</time></trkpt><trkpt lat="43.016286" lon="-8.1105426"><ele>465.0</ele><time>2026-03-29T10:51:12.07Z</time></trkpt><trkpt lat="43.016297" lon="-8.1107452"><ele>465.25</ele><time>2026-03-29T10:51:13.071Z</time></trkpt><trkpt lat="43.0163073" lon="-8.1109321"><ele>465.5</ele><time>2026-03-29T10:51:14.07Z</time></trkpt><trkpt lat="43.0163169" lon="-8.1111004"><ele>465.75</ele><time>2026-03-29T10:51:15.07Z</time></trkpt><trkpt lat="43.0163247" lon="-8.1112576"><ele>466.0</ele><time>2026-03-29T10:51:16.07Z</time></trkpt><trkpt lat="43.0163329" lon="-8.1114128"><ele>466.0</ele><time>2026-03-29T10:51:17.07Z</time></trkpt><trkpt lat="43.0163386" lon="-8.111567"><ele>466.0</ele><time>2026-03-29T10:51:18.071Z</time></trkpt><trkpt lat="43.0163424" lon="-8.1117236"><ele>466.0</ele><time>2026-03-29T10:51:19.07Z</time></trkpt><trkpt lat="43.0163464" lon="-8.1118825"><ele>466.0</ele><time>2026-03-29T10:51:20.07Z</time></trkpt><trkpt lat="43.0163547" lon="-8.1120398"><ele>466.75</ele><time>2026-03-29T10:51:21.07Z</time></trkpt><trkpt lat="43.0163718" lon="-8.1121969"><ele>467.5</ele><time>2026-03-29T10:51:22.071Z</time></trkpt><trkpt lat="43.0163846" lon="-8.1123631"><ele>468.25</ele><time>2026-03-29T10:51:23.07Z</time></trkpt><trkpt lat="43.016391" lon="-8.1125473"><ele>469.0</ele><time>2026-03-29T10:51:24.07Z</time></trkpt><trkpt lat="43.0163999" lon="-8.1127422"><ele>469.0</ele><time>2026-03-29T10:51:25.07Z</time></trkpt><trkpt lat="43.0164107" lon="-8.1129466"><ele>469.0</ele><time>2026-03-29T10:51:26.07Z</time></trkpt><trkpt lat="43.0164203" lon="-8.1131665"><ele>469.0</ele><time>2026-03-29T10:51:27.071Z</time></trkpt><trkpt lat="43.0164288" lon="-8.1133959"><ele>468.6666666666667</ele><time>2026-03-29T10:51:28.071Z</time></trkpt><trkpt lat="43.0164207" lon="-8.1136331"><ele>468.33333333333337</ele><time>2026-03-29T10:51:29.07Z</time></trkpt><trkpt lat="43.016399" lon="-8.1138706"><ele>468.0</ele><time>2026-03-29T10:51:30.071Z</time></trkpt><trkpt lat="43.0163651" lon="-8.1141115"><ele>467.0</ele><time>2026-03-29T10:51:31.07Z</time></trkpt><trkpt lat="43.0163236" lon="-8.1143532"><ele>466.0</ele><time>2026-03-29T10:51:32.07Z</time></trkpt><trkpt lat="43.0162762" lon="-8.114602"><ele>465.0</ele><time>2026-03-29T10:51:33.07Z</time></trkpt><trkpt lat="43.016229" lon="-8.1148521"><ele>464.66666666666663</ele><time>2026-03-29T10:51:34.07Z</time></trkpt><trkpt lat="43.0161781" lon="-8.1150941"><ele>464.3333333333333</ele><time>2026-03-29T10:51:35.071Z</time></trkpt><trkpt lat="43.0161321" lon="-8.115352"><ele>464.0</ele><time>2026-03-29T10:51:36.071Z</time></trkpt><trkpt lat="43.0160873" lon="-8.1156059"><ele>464.66666666666663</ele><time>2026-03-29T10:51:37.071Z</time></trkpt><trkpt lat="43.016037" lon="-8.1158585"><ele>465.33333333333337</ele><time>2026-03-29T10:51:38.071Z</time></trkpt><trkpt lat="43.0159882" lon="-8.1161131"><ele>466.0</ele><time>2026-03-29T10:51:39.07Z</time></trkpt><trkpt lat="43.0159386" lon="-8.1163635"><ele>466.6666666666667</ele><time>2026-03-29T10:51:40.071Z</time></trkpt><trkpt lat="43.0158877" lon="-8.1166202"><ele>467.33333333333337</ele><time>2026-03-29T10:51:41.071Z</time></trkpt><trkpt lat="43.0158392" lon="-8.1168714"><ele>468.0</ele><time>2026-03-29T10:51:42.071Z</time></trkpt><trkpt lat="43.0157901" lon="-8.1171245"><ele>468.66666666666663</ele><time>2026-03-29T10:51:43.07Z</time></trkpt><trkpt lat="43.0157433" lon="-8.1173756"><ele>469.3333333333333</ele><time>2026-03-29T10:51:44.071Z</time></trkpt><trkpt lat="43.0156962" lon="-8.1176235"><ele>470.0</ele><time>2026-03-29T10:51:45.07Z</time></trkpt><trkpt lat="43.0156516" lon="-8.1178712"><ele>470.0</ele><time>2026-03-29T10:51:46.071Z</time></trkpt><trkpt lat="43.0156054" lon="-8.1181244"><ele>470.0</ele><time>2026-03-29T10:51:47.07Z</time></trkpt><trkpt lat="43.0155584" lon="-8.1183744"><ele>470.0</ele><time>2026-03-29T10:51:48.07Z</time></trkpt><trkpt lat="43.0155089" lon="-8.1186271"><ele>471.0</ele><time>2026-03-29T10:51:49.071Z</time></trkpt><trkpt lat="43.0154607" lon="-8.1188755"><ele>472.0</ele><time>2026-03-29T10:51:50.071Z</time></trkpt><trkpt lat="43.0154075" lon="-8.1191253"><ele>473.0</ele><time>2026-03-29T10:51:51.07Z</time></trkpt><trkpt lat="43.0153514" lon="-8.1193705"><ele>474.0</ele><time>2026-03-29T10:51:52.07Z</time></trkpt><trkpt lat="43.0152779" lon="-8.1196091"><ele>475.0</ele><time>2026-03-29T10:51:53.071Z</time></trkpt><trkpt lat="43.0151937" lon="-8.1198426"><ele>476.0</ele><time>2026-03-29T10:51:54.07Z</time></trkpt><trkpt lat="43.0151033" lon="-8.1200653"><ele>476.0</ele><time>2026-03-29T10:51:55.071Z</time></trkpt><trkpt lat="43.0150123" lon="-8.1202904"><ele>476.0</ele><time>2026-03-29T10:51:56.07Z</time></trkpt><trkpt lat="43.0149147" lon="-8.1205202"><ele>476.0</ele><time>2026-03-29T10:51:57.071Z</time></trkpt><trkpt lat="43.0148203" lon="-8.1207493"><ele>476.3333333333333</ele><time>2026-03-29T10:51:58.07Z</time></trkpt><trkpt lat="43.0147172" lon="-8.1209688"><ele>476.66666666666663</ele><time>2026-03-29T10:51:59.071Z</time></trkpt><trkpt lat="43.0146089" lon="-8.1211867"><ele>477.0</ele><time>2026-03-29T10:52:00.07Z</time></trkpt><trkpt lat="43.0145006" lon="-8.1214035"><ele>477.33333333333337</ele><time>2026-03-29T10:52:01.071Z</time></trkpt><trkpt lat="43.0143855" lon="-8.1216124"><ele>477.6666666666667</ele><time>2026-03-29T10:52:02.071Z</time></trkpt><trkpt lat="43.0142681" lon="-8.1218151"><ele>478.0</ele><time>2026-03-29T10:52:03.071Z</time></trkpt><trkpt lat="43.0141518" lon="-8.1220203"><ele>476.6666666666667</ele><time>2026-03-29T10:52:04.07Z</time></trkpt><trkpt lat="43.0140297" lon="-8.1222206"><ele>475.33333333333337</ele><time>2026-03-29T10:52:05.071Z</time></trkpt><trkpt lat="43.0139094" lon="-8.1224184"><ele>474.0</ele><time>2026-03-29T10:52:06.07Z</time></trkpt><trkpt lat="43.0137874" lon="-8.1226139"><ele>474.0</ele><time>2026-03-29T10:52:07.071Z</time></trkpt><trkpt lat="43.0136679" lon="-8.1228073"><ele>474.0</ele><time>2026-03-29T10:52:08.071Z</time></trkpt><trkpt lat="43.0135478" lon="-8.1229905"><ele>474.0</ele><time>2026-03-29T10:52:09.071Z</time></trkpt><trkpt lat="43.0134353" lon="-8.1231682"><ele>474.33333333333337</ele><time>2026-03-29T10:52:10.07Z</time></trkpt><trkpt lat="43.0133285" lon="-8.1233339"><ele>474.6666666666667</ele><time>2026-03-29T10:52:11.07Z</time></trkpt><trkpt lat="43.013217" lon="-8.123499"><ele>475.0</ele><time>2026-03-29T10:52:12.07Z</time></trkpt><trkpt lat="43.0130981" lon="-8.1236537"><ele>475.0</ele><time>2026-03-29T10:52:13.07Z</time></trkpt><trkpt lat="43.0129684" lon="-8.1238048"><ele>475.0</ele><time>2026-03-29T10:52:14.07Z</time></trkpt><trkpt lat="43.0128289" lon="-8.1239446"><ele>475.0</ele><time>2026-03-29T10:52:15.07Z</time></trkpt><trkpt lat="43.0126789" lon="-8.1240743"><ele>474.6666666666667</ele><time>2026-03-29T10:52:16.071Z</time></trkpt><trkpt lat="43.012525" lon="-8.1242064"><ele>474.33333333333337</ele><time>2026-03-29T10:52:17.071Z</time></trkpt><trkpt lat="43.0123677" lon="-8.1243423"><ele>474.0</ele><time>2026-03-29T10:52:18.07Z</time></trkpt><trkpt lat="43.0122038" lon="-8.1244737"><ele>473.66666666666663</ele><time>2026-03-29T10:52:19.07Z</time></trkpt><trkpt lat="43.0120335" lon="-8.1245935"><ele>473.3333333333333</ele><time>2026-03-29T10:52:20.071Z</time></trkpt><trkpt lat="43.0118567" lon="-8.1246975"><ele>473.0</ele><time>2026-03-29T10:52:21.07Z</time></trkpt><trkpt lat="43.0116762" lon="-8.1247834"><ele>472.66666666666663</ele><time>2026-03-29T10:52:22.07Z</time></trkpt><trkpt lat="43.0114885" lon="-8.1248634"><ele>472.33333333333337</ele><time>2026-03-29T10:52:23.071Z</time></trkpt><trkpt lat="43.0112984" lon="-8.1249389"><ele>472.0</ele><time>2026-03-29T10:52:24.071Z</time></trkpt><trkpt lat="43.0111113" lon="-8.1250172"><ele>472.6666666666667</ele><time>2026-03-29T10:52:25.071Z</time></trkpt><trkpt lat="43.0109231" lon="-8.1250907"><ele>473.33333333333337</ele><time>2026-03-29T10:52:26.071Z</time></trkpt><trkpt lat="43.0107339" lon="-8.1251685"><ele>474.0</ele><time>2026-03-29T10:52:27.07Z</time></trkpt><trkpt lat="43.0105439" lon="-8.1252412"><ele>474.66666666666663</ele><time>2026-03-29T10:52:28.07Z</time></trkpt><trkpt lat="43.0103556" lon="-8.1253154"><ele>475.3333333333333</ele><time>2026-03-29T10:52:29.07Z</time></trkpt><trkpt lat="43.010171" lon="-8.1253858"><ele>476.0</ele><time>2026-03-29T10:52:30.07Z</time></trkpt><trkpt lat="43.009987" lon="-8.1254568"><ele>477.3333333333333</ele><time>2026-03-29T10:52:31.071Z</time></trkpt><trkpt lat="43.0098085" lon="-8.1255234"><ele>478.66666666666663</ele><time>2026-03-29T10:52:32.07Z</time></trkpt><trkpt lat="43.0096286" lon="-8.1255953"><ele>480.0</ele><time>2026-03-29T10:52:33.071Z</time></trkpt><trkpt lat="43.0094529" lon="-8.1256631"><ele>480.33333333333337</ele><time>2026-03-29T10:52:34.071Z</time></trkpt><trkpt lat="43.0092776" lon="-8.1257333"><ele>480.6666666666667</ele><time>2026-03-29T10:52:35.07Z</time></trkpt><trkpt lat="43.0091075" lon="-8.1258014"><ele>481.0</ele><time>2026-03-29T10:52:36.07Z</time></trkpt><trkpt lat="43.0089372" lon="-8.125866"><ele>481.6666666666667</ele><time>2026-03-29T10:52:37.07Z</time></trkpt><trkpt lat="43.0087677" lon="-8.1259323"><ele>482.33333333333337</ele><time>2026-03-29T10:52:38.07Z</time></trkpt><trkpt lat="43.0086052" lon="-8.1260007"><ele>483.0</ele><time>2026-03-29T10:52:39.071Z</time></trkpt><trkpt lat="43.0084555" lon="-8.1260713"><ele>484.0</ele><time>2026-03-29T10:52:40.071Z</time></trkpt><trkpt lat="43.0083188" lon="-8.1261534"><ele>485.0</ele><time>2026-03-29T10:52:41.07Z</time></trkpt><trkpt lat="43.008202" lon="-8.1262522"><ele>486.0</ele><time>2026-03-29T10:52:42.07Z</time></trkpt><trkpt lat="43.0080956" lon="-8.1263529"><ele>487.0</ele><time>2026-03-29T10:52:43.07Z</time></trkpt><trkpt lat="43.0080026" lon="-8.1264499"><ele>487.0</ele><time>2026-03-29T10:52:44.07Z</time></trkpt><trkpt lat="43.0079128" lon="-8.1265474"><ele>487.00000000000006</ele><time>2026-03-29T10:52:45.071Z</time></trkpt><trkpt lat="43.0078203" lon="-8.1266467"><ele>487.00000000000006</ele><time>2026-03-29T10:52:46.07Z</time></trkpt><trkpt lat="43.0077383" lon="-8.1267273"><ele>487.0</ele><time>2026-03-29T10:52:47.071Z</time></trkpt><trkpt lat="43.0076644" lon="-8.1268015"><ele>487.0</ele><time>2026-03-29T10:52:48.071Z</time></trkpt><trkpt lat="43.0076296" lon="-8.1268793"><ele>487.33333333333337</ele><time>2026-03-29T10:52:49.071Z</time></trkpt><trkpt lat="43.0076605" lon="-8.1270195"><ele>487.6666666666667</ele><time>2026-03-29T10:52:51.071Z</time></trkpt><trkpt lat="43.0076953" lon="-8.1270937"><ele>488.0</ele><time>2026-03-29T10:52:52.07Z</time></trkpt><trkpt lat="43.0077292" lon="-8.1271814"><ele>488.33333333333337</ele><time>2026-03-29T10:52:53.071Z</time></trkpt><trkpt lat="43.0077631" lon="-8.1272762"><ele>488.6666666666667</ele><time>2026-03-29T10:52:54.071Z</time></trkpt><trkpt lat="43.007801" lon="-8.1273826"><ele>489.0</ele><time>2026-03-29T10:52:55.07Z</time></trkpt><trkpt lat="43.0078459" lon="-8.1274991"><ele>489.0</ele><time>2026-03-29T10:52:56.07Z</time></trkpt><trkpt lat="43.0078968" lon="-8.1276279"><ele>489.0</ele><time>2026-03-29T10:52:57.07Z</time></trkpt><trkpt lat="43.0079524" lon="-8.1277638"><ele>489.0</ele><time>2026-03-29T10:52:58.07Z</time></trkpt><trkpt lat="43.0080129" lon="-8.1279118"><ele>489.0</ele><time>2026-03-29T10:52:59.07Z</time></trkpt><trkpt lat="43.0080742" lon="-8.1280674"><ele>489.25</ele><time>2026-03-29T10:53:00.07Z</time></trkpt><trkpt lat="43.0081339" lon="-8.1282267"><ele>489.5</ele><time>2026-03-29T10:53:01.07Z</time></trkpt><trkpt lat="43.0081951" lon="-8.1283898"><ele>489.75</ele><time>2026-03-29T10:53:02.07Z</time></trkpt><trkpt lat="43.0082555" lon="-8.128555"><ele>490.0</ele><time>2026-03-29T10:53:03.071Z</time></trkpt><trkpt lat="43.0083297" lon="-8.1287329"><ele>489.0</ele><time>2026-03-29T10:53:04.07Z</time></trkpt><trkpt lat="43.008399" lon="-8.1289188"><ele>488.0</ele><time>2026-03-29T10:53:05.07Z</time></trkpt><trkpt lat="43.008469" lon="-8.129111"><ele>487.0</ele><time>2026-03-29T10:53:06.071Z</time></trkpt><trkpt lat="43.0085447" lon="-8.1293129"><ele>486.33333333333337</ele><time>2026-03-29T10:53:07.07Z</time></trkpt><trkpt lat="43.0086198" lon="-8.1295178"><ele>485.66666666666663</ele><time>2026-03-29T10:53:08.071Z</time></trkpt><trkpt lat="43.0086969" lon="-8.1297284"><ele>485.0</ele><time>2026-03-29T10:53:09.07Z</time></trkpt><trkpt lat="43.0087752" lon="-8.129944"><ele>484.66666666666663</ele><time>2026-03-29T10:53:10.07Z</time></trkpt><trkpt lat="43.0088554" lon="-8.1301642"><ele>484.33333333333337</ele><time>2026-03-29T10:53:11.07Z</time></trkpt><trkpt lat="43.0089426" lon="-8.1303866"><ele>484.0</ele><time>2026-03-29T10:53:12.07Z</time></trkpt><trkpt lat="43.0090301" lon="-8.1306106"><ele>483.0</ele><time>2026-03-29T10:53:13.069Z</time></trkpt><trkpt lat="43.0091172" lon="-8.1308345"><ele>482.0</ele><time>2026-03-29T10:53:14.07Z</time></trkpt><trkpt lat="43.0092157" lon="-8.1310598"><ele>481.0</ele><time>2026-03-29T10:53:15.071Z</time></trkpt><trkpt lat="43.0093222" lon="-8.1312795"><ele>480.33333333333337</ele><time>2026-03-29T10:53:16.07Z</time></trkpt><trkpt lat="43.0094397" lon="-8.1315031"><ele>479.66666666666663</ele><time>2026-03-29T10:53:17.071Z</time></trkpt><trkpt lat="43.0095632" lon="-8.1317092"><ele>479.0</ele><time>2026-03-29T10:53:18.07Z</time></trkpt><trkpt lat="43.0096977" lon="-8.1319087"><ele>477.66666666666663</ele><time>2026-03-29T10:53:19.07Z</time></trkpt><trkpt lat="43.0098372" lon="-8.1321008"><ele>476.33333333333337</ele><time>2026-03-29T10:53:20.07Z</time></trkpt><trkpt lat="43.0099825" lon="-8.1322854"><ele>475.0</ele><time>2026-03-29T10:53:21.07Z</time></trkpt><trkpt lat="43.0101356" lon="-8.1324595"><ele>474.33333333333337</ele><time>2026-03-29T10:53:22.071Z</time></trkpt><trkpt lat="43.0102886" lon="-8.1326301"><ele>473.66666666666663</ele><time>2026-03-29T10:53:23.071Z</time></trkpt><trkpt lat="43.0104492" lon="-8.1327985"><ele>473.0</ele><time>2026-03-29T10:53:24.07Z</time></trkpt><trkpt lat="43.0106115" lon="-8.1329648"><ele>473.0</ele><time>2026-03-29T10:53:25.07Z</time></trkpt><trkpt lat="43.0107746" lon="-8.1331355"><ele>473.0</ele><time>2026-03-29T10:53:26.07Z</time></trkpt><trkpt lat="43.0109363" lon="-8.133306"><ele>473.0</ele><time>2026-03-29T10:53:27.07Z</time></trkpt><trkpt lat="43.0111035" lon="-8.1334768"><ele>473.0</ele><time>2026-03-29T10:53:28.071Z</time></trkpt><trkpt lat="43.0112685" lon="-8.1336469"><ele>473.0</ele><time>2026-03-29T10:53:29.07Z</time></trkpt><trkpt lat="43.0114355" lon="-8.1338172"><ele>473.0</ele><time>2026-03-29T10:53:30.07Z</time></trkpt><trkpt lat="43.0116019" lon="-8.13399"><ele>470.66666666666663</ele><time>2026-03-29T10:53:31.07Z</time></trkpt><trkpt lat="43.0117676" lon="-8.1341668"><ele>468.33333333333337</ele><time>2026-03-29T10:53:32.071Z</time></trkpt><trkpt lat="43.0119366" lon="-8.1343432"><ele>466.0</ele><time>2026-03-29T10:53:33.071Z</time></trkpt><trkpt lat="43.012109" lon="-8.1345233"><ele>466.0</ele><time>2026-03-29T10:53:34.07Z</time></trkpt><trkpt lat="43.0122828" lon="-8.1347053"><ele>466.0</ele><time>2026-03-29T10:53:35.07Z</time></trkpt><trkpt lat="43.0124554" lon="-8.1348858"><ele>466.0</ele><time>2026-03-29T10:53:36.07Z</time></trkpt><trkpt lat="43.0126261" lon="-8.1350634"><ele>464.33333333333337</ele><time>2026-03-29T10:53:37.07Z</time></trkpt><trkpt lat="43.0127948" lon="-8.1352435"><ele>462.66666666666663</ele><time>2026-03-29T10:53:38.071Z</time></trkpt><trkpt lat="43.0129628" lon="-8.135426"><ele>461.0</ele><time>2026-03-29T10:53:39.07Z</time></trkpt><trkpt lat="43.0131304" lon="-8.1356049"><ele>460.66666666666663</ele><time>2026-03-29T10:53:40.07Z</time></trkpt><trkpt lat="43.0132957" lon="-8.1357856"><ele>460.33333333333337</ele><time>2026-03-29T10:53:41.07Z</time></trkpt><trkpt lat="43.0134665" lon="-8.1359632"><ele>460.0</ele><time>2026-03-29T10:53:42.07Z</time></trkpt><trkpt lat="43.0136327" lon="-8.1361416"><ele>460.0</ele><time>2026-03-29T10:53:43.07Z</time></trkpt><trkpt lat="43.0138057" lon="-8.1363227"><ele>460.0</ele><time>2026-03-29T10:53:44.07Z</time></trkpt><trkpt lat="43.0139801" lon="-8.1365086"><ele>460.0</ele><time>2026-03-29T10:53:45.07Z</time></trkpt><trkpt lat="43.0141575" lon="-8.1366932"><ele>459.0</ele><time>2026-03-29T10:53:46.07Z</time></trkpt><trkpt lat="43.0143361" lon="-8.1368775"><ele>458.0</ele><time>2026-03-29T10:53:47.07Z</time></trkpt><trkpt lat="43.0145126" lon="-8.1370621"><ele>457.0</ele><time>2026-03-29T10:53:48.071Z</time></trkpt><trkpt lat="43.0146887" lon="-8.137252"><ele>456.0</ele><time>2026-03-29T10:53:49.071Z</time></trkpt><trkpt lat="43.0148648" lon="-8.1374417"><ele>455.0</ele><time>2026-03-29T10:53:50.07Z</time></trkpt><trkpt lat="43.0150382" lon="-8.1376278"><ele>454.0</ele><time>2026-03-29T10:53:51.07Z</time></trkpt><trkpt lat="43.0152139" lon="-8.1378099"><ele>453.0</ele><time>2026-03-29T10:53:52.07Z</time></trkpt><trkpt lat="43.0153869" lon="-8.1379907"><ele>452.0</ele><time>2026-03-29T10:53:53.07Z</time></trkpt><trkpt lat="43.0155592" lon="-8.1381742"><ele>451.0</ele><time>2026-03-29T10:53:54.07Z</time></trkpt><trkpt lat="43.0157322" lon="-8.1383552"><ele>451.33333333333337</ele><time>2026-03-29T10:53:55.07Z</time></trkpt><trkpt lat="43.0159065" lon="-8.1385365"><ele>451.66666666666663</ele><time>2026-03-29T10:53:56.07Z</time></trkpt><trkpt lat="43.0160764" lon="-8.1387156"><ele>452.0</ele><time>2026-03-29T10:53:57.071Z</time></trkpt><trkpt lat="43.0162473" lon="-8.1388939"><ele>451.0</ele><time>2026-03-29T10:53:58.07Z</time></trkpt><trkpt lat="43.0164152" lon="-8.1390746"><ele>450.0</ele><time>2026-03-29T10:53:59.071Z</time></trkpt><trkpt lat="43.0165801" lon="-8.1392565"><ele>449.0</ele><time>2026-03-29T10:54:00.07Z</time></trkpt><trkpt lat="43.0167458" lon="-8.1394254"><ele>449.0</ele><time>2026-03-29T10:54:01.071Z</time></trkpt><trkpt lat="43.0169099" lon="-8.1395968"><ele>449.0</ele><time>2026-03-29T10:54:02.071Z</time></trkpt><trkpt lat="43.0170705" lon="-8.1397651"><ele>449.0</ele><time>2026-03-29T10:54:03.07Z</time></trkpt><trkpt lat="43.017231" lon="-8.1399355"><ele>448.3333333333333</ele><time>2026-03-29T10:54:04.07Z</time></trkpt><trkpt lat="43.0173924" lon="-8.1401037"><ele>447.66666666666663</ele><time>2026-03-29T10:54:05.071Z</time></trkpt><trkpt lat="43.0175507" lon="-8.1402724"><ele>447.0</ele><time>2026-03-29T10:54:06.071Z</time></trkpt><trkpt lat="43.0177075" lon="-8.14044"><ele>447.0</ele><time>2026-03-29T10:54:07.07Z</time></trkpt><trkpt lat="43.0178633" lon="-8.1406087"><ele>447.0</ele><time>2026-03-29T10:54:08.07Z</time></trkpt><trkpt lat="43.0180217" lon="-8.1407787"><ele>447.0</ele><time>2026-03-29T10:54:09.071Z</time></trkpt><trkpt lat="43.0181838" lon="-8.1409412"><ele>446.0</ele><time>2026-03-29T10:54:10.07Z</time></trkpt><trkpt lat="43.0183572" lon="-8.1410798"><ele>445.0</ele><time>2026-03-29T10:54:11.071Z</time></trkpt><trkpt lat="43.0185479" lon="-8.1412011"><ele>444.0</ele><time>2026-03-29T10:54:12.07Z</time></trkpt><trkpt lat="43.0187586" lon="-8.1413068"><ele>444.0</ele><time>2026-03-29T10:54:13.07Z</time></trkpt><trkpt lat="43.0189867" lon="-8.1413943"><ele>444.0</ele><time>2026-03-29T10:54:14.07Z</time></trkpt><trkpt lat="43.0192218" lon="-8.1414806"><ele>442.5</ele><time>2026-03-29T10:54:15.071Z</time></trkpt><trkpt lat="43.0194663" lon="-8.1415664"><ele>441.0</ele><time>2026-03-29T10:54:16.071Z</time></trkpt><trkpt lat="43.0197048" lon="-8.1416535"><ele>441.0</ele><time>2026-03-29T10:54:17.07Z</time></trkpt><trkpt lat="43.0199361" lon="-8.1417407"><ele>441.0</ele><time>2026-03-29T10:54:18.07Z</time></trkpt><trkpt lat="43.0201679" lon="-8.141826"><ele>440.0</ele><time>2026-03-29T10:54:19.071Z</time></trkpt><trkpt lat="43.0203987" lon="-8.141914"><ele>439.0</ele><time>2026-03-29T10:54:20.07Z</time></trkpt><trkpt lat="43.0206244" lon="-8.1419954"><ele>434.6666666666667</ele><time>2026-03-29T10:54:21.071Z</time></trkpt><trkpt lat="43.0208432" lon="-8.1420548"><ele>430.33333333333337</ele><time>2026-03-29T10:54:22.071Z</time></trkpt><trkpt lat="43.0210496" lon="-8.1421351"><ele>426.0</ele><time>2026-03-29T10:54:23.07Z</time></trkpt><trkpt lat="43.0212037" lon="-8.142335"><ele>429.0</ele><time>2026-03-29T10:54:24.07Z</time></trkpt><trkpt lat="43.0213524" lon="-8.1425441"><ele>432.0</ele><time>2026-03-29T10:54:25.071Z</time></trkpt><trkpt lat="43.0214792" lon="-8.1427787"><ele>435.0</ele><time>2026-03-29T10:54:26.07Z</time></trkpt><trkpt lat="43.0216162" lon="-8.1429925"><ele>432.33333333333337</ele><time>2026-03-29T10:54:27.07Z</time></trkpt><trkpt lat="43.0217692" lon="-8.1431877"><ele>429.6666666666667</ele><time>2026-03-29T10:54:28.071Z</time></trkpt><trkpt lat="43.0219694" lon="-8.1433514"><ele>427.0</ele><time>2026-03-29T10:54:29.07Z</time></trkpt><trkpt lat="43.0221673" lon="-8.1435061"><ele>427.0</ele><time>2026-03-29T10:54:30.07Z</time></trkpt><trkpt lat="43.0223615" lon="-8.1436723"><ele>427.0</ele><time>2026-03-29T10:54:31.071Z</time></trkpt><trkpt lat="43.0225496" lon="-8.1438598"><ele>422.6666666666667</ele><time>2026-03-29T10:54:32.07Z</time></trkpt><trkpt lat="43.0227145" lon="-8.1440686"><ele>418.33333333333337</ele><time>2026-03-29T10:54:33.07Z</time></trkpt><trkpt lat="43.0228638" lon="-8.1442921"><ele>414.0</ele><time>2026-03-29T10:54:34.071Z</time></trkpt><trkpt lat="43.022999" lon="-8.1445185"><ele>414.0</ele><time>2026-03-29T10:54:35.07Z</time></trkpt><trkpt lat="43.0231288" lon="-8.1447437"><ele>414.0</ele><time>2026-03-29T10:54:36.07Z</time></trkpt><trkpt lat="43.0232708" lon="-8.1449502"><ele>414.0</ele><time>2026-03-29T10:54:37.071Z</time></trkpt><trkpt lat="43.0234343" lon="-8.1451185"><ele>409.0</ele><time>2026-03-29T10:54:38.07Z</time></trkpt><trkpt lat="43.023619" lon="-8.1452405"><ele>404.0</ele><time>2026-03-29T10:54:39.07Z</time></trkpt><trkpt lat="43.0238204" lon="-8.1453277"><ele>399.0</ele><time>2026-03-29T10:54:40.07Z</time></trkpt><trkpt lat="43.0240454" lon="-8.1453717"><ele>393.5</ele><time>2026-03-29T10:54:41.07Z</time></trkpt><trkpt lat="43.0242811" lon="-8.1454024"><ele>388.0</ele><time>2026-03-29T10:54:42.071Z</time></trkpt><trkpt lat="43.024527" lon="-8.1454343"><ele>388.0</ele><time>2026-03-29T10:54:43.07Z</time></trkpt><trkpt lat="43.024777" lon="-8.1454846"><ele>388.0</ele><time>2026-03-29T10:54:44.071Z</time></trkpt><trkpt lat="43.0250263" lon="-8.1455597"><ele>386.5</ele><time>2026-03-29T10:54:45.07Z</time></trkpt><trkpt lat="43.0252661" lon="-8.1456663"><ele>385.0</ele><time>2026-03-29T10:54:46.071Z</time></trkpt><trkpt lat="43.0254862" lon="-8.1457907"><ele>385.0</ele><time>2026-03-29T10:54:47.07Z</time></trkpt><trkpt lat="43.0256944" lon="-8.1459311"><ele>385.0</ele><time>2026-03-29T10:54:48.071Z</time></trkpt><trkpt lat="43.0259048" lon="-8.1460641"><ele>380.0</ele><time>2026-03-29T10:54:49.07Z</time></trkpt><trkpt lat="43.0261266" lon="-8.146147"><ele>375.0</ele><time>2026-03-29T10:54:50.071Z</time></trkpt><trkpt lat="43.0263608" lon="-8.1461793"><ele>375.0</ele><time>2026-03-29T10:54:51.07Z</time></trkpt><trkpt lat="43.0266013" lon="-8.1461725"><ele>375.0</ele><time>2026-03-29T10:54:52.071Z</time></trkpt><trkpt lat="43.0268453" lon="-8.1461596"><ele>371.0</ele><time>2026-03-29T10:54:53.07Z</time></trkpt><trkpt lat="43.027098" lon="-8.146097"><ele>367.0</ele><time>2026-03-29T10:54:54.07Z</time></trkpt><trkpt lat="43.0273436" lon="-8.1460408"><ele>365.5</ele><time>2026-03-29T10:54:55.07Z</time></trkpt><trkpt lat="43.0275796" lon="-8.1459808"><ele>364.0</ele><time>2026-03-29T10:54:56.071Z</time></trkpt><trkpt lat="43.0278028" lon="-8.1459263"><ele>364.0</ele><time>2026-03-29T10:54:57.07Z</time></trkpt><trkpt lat="43.0280133" lon="-8.1458824"><ele>364.0</ele><time>2026-03-29T10:54:58.07Z</time></trkpt><trkpt lat="43.0282206" lon="-8.1458824"><ele>364.0</ele><time>2026-03-29T10:54:59.071Z</time></trkpt><trkpt lat="43.0284217" lon="-8.1459272"><ele>364.0</ele><time>2026-03-29T10:55:00.07Z</time></trkpt><trkpt lat="43.0286144" lon="-8.1460181"><ele>364.0</ele><time>2026-03-29T10:55:01.071Z</time></trkpt><trkpt lat="43.0287902" lon="-8.1461595"><ele>364.0</ele><time>2026-03-29T10:55:02.07Z</time></trkpt><trkpt lat="43.0289455" lon="-8.1463447"><ele>363.66666666666663</ele><time>2026-03-29T10:55:03.07Z</time></trkpt><trkpt lat="43.029092" lon="-8.1465519"><ele>363.3333333333333</ele><time>2026-03-29T10:55:04.07Z</time></trkpt><trkpt lat="43.0292392" lon="-8.1467634"><ele>363.0</ele><time>2026-03-29T10:55:05.07Z</time></trkpt><trkpt lat="43.0293862" lon="-8.1469789"><ele>363.6666666666667</ele><time>2026-03-29T10:55:06.07Z</time></trkpt><trkpt lat="43.0295261" lon="-8.1471902"><ele>364.33333333333337</ele><time>2026-03-29T10:55:07.071Z</time></trkpt><trkpt lat="43.0296717" lon="-8.1473927"><ele>365.0</ele><time>2026-03-29T10:55:08.07Z</time></trkpt><trkpt lat="43.0297862" lon="-8.1475861"><ele>365.0</ele><time>2026-03-29T10:55:09.07Z</time></trkpt><trkpt lat="43.0299057" lon="-8.1477727"><ele>365.0</ele><time>2026-03-29T10:55:10.07Z</time></trkpt><trkpt lat="43.0300255" lon="-8.1479606"><ele>365.0</ele><time>2026-03-29T10:55:11.07Z</time></trkpt><trkpt lat="43.0301474" lon="-8.1481372"><ele>367.0</ele><time>2026-03-29T10:55:12.07Z</time></trkpt><trkpt lat="43.0302722" lon="-8.1483265"><ele>369.0</ele><time>2026-03-29T10:55:13.071Z</time></trkpt><trkpt lat="43.0304012" lon="-8.1485179"><ele>371.0</ele><time>2026-03-29T10:55:14.07Z</time></trkpt><trkpt lat="43.0305297" lon="-8.1487126"><ele>371.0</ele><time>2026-03-29T10:55:15.07Z</time></trkpt><trkpt lat="43.0306586" lon="-8.148911"><ele>371.0</ele><time>2026-03-29T10:55:16.07Z</time></trkpt><trkpt lat="43.0307937" lon="-8.1491097"><ele>371.0</ele><time>2026-03-29T10:55:17.07Z</time></trkpt><trkpt lat="43.0309255" lon="-8.1493106"><ele>369.6666666666667</ele><time>2026-03-29T10:55:18.07Z</time></trkpt><trkpt lat="43.0310631" lon="-8.1495116"><ele>368.3333333333333</ele><time>2026-03-29T10:55:19.071Z</time></trkpt><trkpt lat="43.0311993" lon="-8.1497217"><ele>367.0</ele><time>2026-03-29T10:55:20.07Z</time></trkpt><trkpt lat="43.0313395" lon="-8.1499305"><ele>366.66666666666663</ele><time>2026-03-29T10:55:21.07Z</time></trkpt><trkpt lat="43.0314761" lon="-8.1501383"><ele>366.3333333333333</ele><time>2026-03-29T10:55:22.07Z</time></trkpt><trkpt lat="43.0316145" lon="-8.1503482"><ele>366.0</ele><time>2026-03-29T10:55:23.071Z</time></trkpt><trkpt lat="43.0317548" lon="-8.1505501"><ele>365.3333333333333</ele><time>2026-03-29T10:55:24.071Z</time></trkpt><trkpt lat="43.0318918" lon="-8.1507566"><ele>364.66666666666663</ele><time>2026-03-29T10:55:25.07Z</time></trkpt><trkpt lat="43.0320281" lon="-8.1509565"><ele>364.0</ele><time>2026-03-29T10:55:26.07Z</time></trkpt><trkpt lat="43.0321645" lon="-8.1511539"><ele>364.0</ele><time>2026-03-29T10:55:27.07Z</time></trkpt><trkpt lat="43.0322928" lon="-8.151348"><ele>364.0</ele><time>2026-03-29T10:55:28.07Z</time></trkpt><trkpt lat="43.0324144" lon="-8.1515355"><ele>364.0</ele><time>2026-03-29T10:55:29.071Z</time></trkpt><trkpt lat="43.0325346" lon="-8.1517197"><ele>366.0</ele><time>2026-03-29T10:55:30.07Z</time></trkpt><trkpt lat="43.0326593" lon="-8.1518943"><ele>368.0</ele><time>2026-03-29T10:55:31.071Z</time></trkpt><trkpt lat="43.03278" lon="-8.1520703"><ele>370.0</ele><time>2026-03-29T10:55:32.07Z</time></trkpt><trkpt lat="43.0328982" lon="-8.1522483"><ele>369.66666666666663</ele><time>2026-03-29T10:55:33.071Z</time></trkpt><trkpt lat="43.0330133" lon="-8.1524254"><ele>369.3333333333333</ele><time>2026-03-29T10:55:34.07Z</time></trkpt><trkpt lat="43.0331263" lon="-8.1526001"><ele>369.0</ele><time>2026-03-29T10:55:35.071Z</time></trkpt><trkpt lat="43.0332392" lon="-8.152774"><ele>369.0</ele><time>2026-03-29T10:55:36.07Z</time></trkpt><trkpt lat="43.0333625" lon="-8.1529368"><ele>369.0</ele><time>2026-03-29T10:55:37.07Z</time></trkpt><trkpt lat="43.0335051" lon="-8.1530775"><ele>369.0</ele><time>2026-03-29T10:55:38.07Z</time></trkpt><trkpt lat="43.0336633" lon="-8.1531875"><ele>367.6666666666667</ele><time>2026-03-29T10:55:39.071Z</time></trkpt><trkpt lat="43.0338322" lon="-8.1532702"><ele>366.33333333333337</ele><time>2026-03-29T10:55:40.07Z</time></trkpt><trkpt lat="43.0340128" lon="-8.1533209"><ele>365.0</ele><time>2026-03-29T10:55:41.07Z</time></trkpt><trkpt lat="43.0341969" lon="-8.1533447"><ele>363.33333333333337</ele><time>2026-03-29T10:55:42.071Z</time></trkpt><trkpt lat="43.0343821" lon="-8.153351"><ele>361.6666666666667</ele><time>2026-03-29T10:55:43.07Z</time></trkpt><trkpt lat="43.0345668" lon="-8.1533552"><ele>360.0</ele><time>2026-03-29T10:55:44.071Z</time></trkpt><trkpt lat="43.0347551" lon="-8.1533694"><ele>360.0</ele><time>2026-03-29T10:55:45.07Z</time></trkpt><trkpt lat="43.0349448" lon="-8.1533975"><ele>360.0</ele><time>2026-03-29T10:55:46.07Z</time></trkpt><trkpt lat="43.0351334" lon="-8.1534543"><ele>360.0</ele><time>2026-03-29T10:55:47.07Z</time></trkpt><trkpt lat="43.0353141" lon="-8.1535514"><ele>358.3333333333333</ele><time>2026-03-29T10:55:48.07Z</time></trkpt><trkpt lat="43.035478" lon="-8.1536831"><ele>356.66666666666663</ele><time>2026-03-29T10:55:49.07Z</time></trkpt><trkpt lat="43.035631" lon="-8.1538474"><ele>355.0</ele><time>2026-03-29T10:55:50.07Z</time></trkpt><trkpt lat="43.035759" lon="-8.1540357"><ele>355.0</ele><time>2026-03-29T10:55:51.07Z</time></trkpt><trkpt lat="43.0358791" lon="-8.1542381"><ele>355.0</ele><time>2026-03-29T10:55:52.07Z</time></trkpt><trkpt lat="43.0359964" lon="-8.1544448"><ele>355.0</ele><time>2026-03-29T10:55:53.07Z</time></trkpt><trkpt lat="43.036105" lon="-8.1546595"><ele>355.0</ele><time>2026-03-29T10:55:54.07Z</time></trkpt><trkpt lat="43.0362088" lon="-8.1548709"><ele>355.0</ele><time>2026-03-29T10:55:55.07Z</time></trkpt><trkpt lat="43.0363139" lon="-8.1550781"><ele>355.0</ele><time>2026-03-29T10:55:56.071Z</time></trkpt><trkpt lat="43.0364186" lon="-8.1552751"><ele>354.3333333333333</ele><time>2026-03-29T10:55:57.071Z</time></trkpt><trkpt lat="43.0365225" lon="-8.1554668"><ele>353.6666666666667</ele><time>2026-03-29T10:55:58.07Z</time></trkpt><trkpt lat="43.0366268" lon="-8.1556571"><ele>353.0</ele><time>2026-03-29T10:55:59.07Z</time></trkpt><trkpt lat="43.0367316" lon="-8.1558462"><ele>357.0</ele><time>2026-03-29T10:56:00.07Z</time></trkpt><trkpt lat="43.0368303" lon="-8.1560336"><ele>361.0</ele><time>2026-03-29T10:56:01.07Z</time></trkpt><trkpt lat="43.03693" lon="-8.1562183"><ele>365.0</ele><time>2026-03-29T10:56:02.071Z</time></trkpt><trkpt lat="43.0370291" lon="-8.1564093"><ele>365.6666666666667</ele><time>2026-03-29T10:56:03.07Z</time></trkpt><trkpt lat="43.0371299" lon="-8.1566048"><ele>366.3333333333333</ele><time>2026-03-29T10:56:04.071Z</time></trkpt><trkpt lat="43.0372235" lon="-8.1568064"><ele>367.0</ele><time>2026-03-29T10:56:05.07Z</time></trkpt><trkpt lat="43.0373149" lon="-8.1570158"><ele>367.0</ele><time>2026-03-29T10:56:06.071Z</time></trkpt><trkpt lat="43.0374024" lon="-8.1572228"><ele>367.0</ele><time>2026-03-29T10:56:07.07Z</time></trkpt><trkpt lat="43.0374874" lon="-8.1574169"><ele>367.0</ele><time>2026-03-29T10:56:08.07Z</time></trkpt><trkpt lat="43.0375657" lon="-8.1576089"><ele>368.0</ele><time>2026-03-29T10:56:09.07Z</time></trkpt><trkpt lat="43.0376432" lon="-8.1577963"><ele>369.0</ele><time>2026-03-29T10:56:10.07Z</time></trkpt><trkpt lat="43.0377155" lon="-8.1579859"><ele>370.0</ele><time>2026-03-29T10:56:11.07Z</time></trkpt><trkpt lat="43.0377733" lon="-8.1581869"><ele>370.0</ele><time>2026-03-29T10:56:12.071Z</time></trkpt><trkpt lat="43.0378103" lon="-8.158396"><ele>370.0</ele><time>2026-03-29T10:56:13.07Z</time></trkpt><trkpt lat="43.0378301" lon="-8.1586129"><ele>370.0</ele><time>2026-03-29T10:56:14.071Z</time></trkpt><trkpt lat="43.0378427" lon="-8.1588273"><ele>370.25</ele><time>2026-03-29T10:56:15.071Z</time></trkpt><trkpt lat="43.037857" lon="-8.1590344"><ele>370.5</ele><time>2026-03-29T10:56:16.071Z</time></trkpt><trkpt lat="43.0378746" lon="-8.1592385"><ele>370.75</ele><time>2026-03-29T10:56:17.07Z</time></trkpt><trkpt lat="43.0378864" lon="-8.159437"><ele>371.0</ele><time>2026-03-29T10:56:18.071Z</time></trkpt><trkpt lat="43.0378978" lon="-8.1596339"><ele>371.0</ele><time>2026-03-29T10:56:19.07Z</time></trkpt><trkpt lat="43.0379091" lon="-8.1598314"><ele>371.0</ele><time>2026-03-29T10:56:20.071Z</time></trkpt><trkpt lat="43.0379204" lon="-8.1600302"><ele>371.0</ele><time>2026-03-29T10:56:21.071Z</time></trkpt><trkpt lat="43.0379322" lon="-8.1602256"><ele>371.0</ele><time>2026-03-29T10:56:22.07Z</time></trkpt><trkpt lat="43.0379451" lon="-8.1604138"><ele>370.75</ele><time>2026-03-29T10:56:23.071Z</time></trkpt><trkpt lat="43.0379555" lon="-8.1606021"><ele>370.5</ele><time>2026-03-29T10:56:24.071Z</time></trkpt><trkpt lat="43.0379698" lon="-8.1607764"><ele>370.25</ele><time>2026-03-29T10:56:25.07Z</time></trkpt><trkpt lat="43.0379902" lon="-8.1609358"><ele>370.0</ele><time>2026-03-29T10:56:26.07Z</time></trkpt><trkpt lat="43.0380054" lon="-8.1610913"><ele>369.75</ele><time>2026-03-29T10:56:27.07Z</time></trkpt><trkpt lat="43.038023" lon="-8.161242"><ele>369.5</ele><time>2026-03-29T10:56:28.071Z</time></trkpt><trkpt lat="43.0380343" lon="-8.1614044"><ele>369.25</ele><time>2026-03-29T10:56:29.07Z</time></trkpt><trkpt lat="43.0380442" lon="-8.1615768"><ele>369.0</ele><time>2026-03-29T10:56:30.07Z</time></trkpt><trkpt lat="43.0380576" lon="-8.1617628"><ele>368.6666666666667</ele><time>2026-03-29T10:56:31.071Z</time></trkpt><trkpt lat="43.0380659" lon="-8.1619661"><ele>368.33333333333337</ele><time>2026-03-29T10:56:32.071Z</time></trkpt><trkpt lat="43.0380739" lon="-8.1621851"><ele>368.0</ele><time>2026-03-29T10:56:33.07Z</time></trkpt><trkpt lat="43.0380835" lon="-8.1624252"><ele>368.0</ele><time>2026-03-29T10:56:34.071Z</time></trkpt><trkpt lat="43.0380921" lon="-8.1626623"><ele>368.0</ele><time>2026-03-29T10:56:35.07Z</time></trkpt><trkpt lat="43.0381059" lon="-8.1628777"><ele>368.0</ele><time>2026-03-29T10:56:36.071Z</time></trkpt><trkpt lat="43.0381439" lon="-8.1630664"><ele>368.0</ele><time>2026-03-29T10:56:37.071Z</time></trkpt><trkpt lat="43.0382236" lon="-8.1632291"><ele>368.0</ele><time>2026-03-29T10:56:38.071Z</time></trkpt><trkpt lat="43.0383339" lon="-8.1633415"><ele>368.0</ele><time>2026-03-29T10:56:39.07Z</time></trkpt><trkpt lat="43.0384728" lon="-8.1634043"><ele>368.0</ele><time>2026-03-29T10:56:40.071Z</time></trkpt><trkpt lat="43.0386351" lon="-8.1634399"><ele>370.6666666666667</ele><time>2026-03-29T10:56:41.07Z</time></trkpt><trkpt lat="43.0388164" lon="-8.1634778"><ele>373.3333333333333</ele><time>2026-03-29T10:56:42.071Z</time></trkpt><trkpt lat="43.0390153" lon="-8.1635232"><ele>376.0</ele><time>2026-03-29T10:56:43.071Z</time></trkpt><trkpt lat="43.0392203" lon="-8.163567"><ele>377.66666666666663</ele><time>2026-03-29T10:56:44.071Z</time></trkpt><trkpt lat="43.0394209" lon="-8.1636033"><ele>379.3333333333333</ele><time>2026-03-29T10:56:45.071Z</time></trkpt><trkpt lat="43.0396218" lon="-8.1636427"><ele>381.0</ele><time>2026-03-29T10:56:46.07Z</time></trkpt><trkpt lat="43.0398214" lon="-8.1636755"><ele>380.0</ele><time>2026-03-29T10:56:47.071Z</time></trkpt><trkpt lat="43.0400204" lon="-8.1637107"><ele>379.0</ele><time>2026-03-29T10:56:48.07Z</time></trkpt><trkpt lat="43.0402162" lon="-8.1637472"><ele>378.0</ele><time>2026-03-29T10:56:49.07Z</time></trkpt><trkpt lat="43.0404103" lon="-8.1637918"><ele>378.0</ele><time>2026-03-29T10:56:50.07Z</time></trkpt><trkpt lat="43.0405985" lon="-8.1638773"><ele>378.0</ele><time>2026-03-29T10:56:51.07Z</time></trkpt><trkpt lat="43.0407778" lon="-8.1640076"><ele>378.0</ele><time>2026-03-29T10:56:52.07Z</time></trkpt><trkpt lat="43.0409434" lon="-8.1641854"><ele>379.0</ele><time>2026-03-29T10:56:53.071Z</time></trkpt><trkpt lat="43.0411082" lon="-8.1643817"><ele>380.0</ele><time>2026-03-29T10:56:54.071Z</time></trkpt><trkpt lat="43.0412759" lon="-8.1645823"><ele>381.0</ele><time>2026-03-29T10:56:55.07Z</time></trkpt><trkpt lat="43.0414518" lon="-8.1647718"><ele>382.5</ele><time>2026-03-29T10:56:56.07Z</time></trkpt><trkpt lat="43.0416385" lon="-8.1649482"><ele>384.0</ele><time>2026-03-29T10:56:57.07Z</time></trkpt><trkpt lat="43.0418296" lon="-8.1651271"><ele>384.0</ele><time>2026-03-29T10:56:58.071Z</time></trkpt><trkpt lat="43.0420228" lon="-8.1653008"><ele>384.0</ele><time>2026-03-29T10:56:59.07Z</time></trkpt><trkpt lat="43.0422123" lon="-8.1654786"><ele>384.0</ele><time>2026-03-29T10:57:00.071Z</time></trkpt><trkpt lat="43.0423927" lon="-8.1656767"><ele>384.0</ele><time>2026-03-29T10:57:01.07Z</time></trkpt><trkpt lat="43.0425586" lon="-8.1658952"><ele>384.66666666666663</ele><time>2026-03-29T10:57:02.07Z</time></trkpt><trkpt lat="43.0427206" lon="-8.1661071"><ele>385.3333333333333</ele><time>2026-03-29T10:57:03.071Z</time></trkpt><trkpt lat="43.042905" lon="-8.1662762"><ele>386.0</ele><time>2026-03-29T10:57:04.07Z</time></trkpt><trkpt lat="43.0431091" lon="-8.1663966"><ele>386.66666666666663</ele><time>2026-03-29T10:57:05.07Z</time></trkpt><trkpt lat="43.0433146" lon="-8.1664905"><ele>387.33333333333337</ele><time>2026-03-29T10:57:06.071Z</time></trkpt><trkpt lat="43.0435002" lon="-8.1665956"><ele>388.0</ele><time>2026-03-29T10:57:07.071Z</time></trkpt><trkpt lat="43.0436619" lon="-8.1667354"><ele>388.6666666666667</ele><time>2026-03-29T10:57:08.07Z</time></trkpt><trkpt lat="43.0437913" lon="-8.1669267"><ele>389.33333333333337</ele><time>2026-03-29T10:57:09.07Z</time></trkpt><trkpt lat="43.0438838" lon="-8.167161"><ele>390.0</ele><time>2026-03-29T10:57:10.071Z</time></trkpt><trkpt lat="43.0439216" lon="-8.1674292"><ele>390.0</ele><time>2026-03-29T10:57:11.07Z</time></trkpt><trkpt lat="43.0439212" lon="-8.1677193"><ele>390.0</ele><time>2026-03-29T10:57:12.07Z</time></trkpt><trkpt lat="43.0439119" lon="-8.1680251"><ele>390.0</ele><time>2026-03-29T10:57:13.07Z</time></trkpt><trkpt lat="43.0439108" lon="-8.1683139"><ele>390.0</ele><time>2026-03-29T10:57:14.071Z</time></trkpt><trkpt lat="43.0439323" lon="-8.1685982"><ele>390.0</ele><time>2026-03-29T10:57:15.071Z</time></trkpt><trkpt lat="43.0439913" lon="-8.1688741"><ele>390.0</ele><time>2026-03-29T10:57:16.07Z</time></trkpt><trkpt lat="43.0440834" lon="-8.1691416"><ele>391.5</ele><time>2026-03-29T10:57:17.07Z</time></trkpt><trkpt lat="43.0441958" lon="-8.1694092"><ele>393.0</ele><time>2026-03-29T10:57:18.071Z</time></trkpt><trkpt lat="43.0443166" lon="-8.1696763"><ele>391.5</ele><time>2026-03-29T10:57:19.07Z</time></trkpt><trkpt lat="43.0444385" lon="-8.1699417"><ele>390.0</ele><time>2026-03-29T10:57:20.071Z</time></trkpt><trkpt lat="43.0445704" lon="-8.1701885"><ele>390.0</ele><time>2026-03-29T10:57:21.07Z</time></trkpt><trkpt lat="43.0447203" lon="-8.1704007"><ele>390.0</ele><time>2026-03-29T10:57:22.071Z</time></trkpt><trkpt lat="43.0448996" lon="-8.1705923"><ele>390.0</ele><time>2026-03-29T10:57:23.071Z</time></trkpt><trkpt lat="43.045094" lon="-8.1707781"><ele>390.0</ele><time>2026-03-29T10:57:24.07Z</time></trkpt><trkpt lat="43.0452995" lon="-8.1709622"><ele>390.0</ele><time>2026-03-29T10:57:25.071Z</time></trkpt><trkpt lat="43.0455114" lon="-8.1711506"><ele>390.0</ele><time>2026-03-29T10:57:26.071Z</time></trkpt><trkpt lat="43.0457209" lon="-8.1713445"><ele>390.0</ele><time>2026-03-29T10:57:27.071Z</time></trkpt><trkpt lat="43.0459267" lon="-8.1715334"><ele>387.0</ele><time>2026-03-29T10:57:28.071Z</time></trkpt><trkpt lat="43.0461306" lon="-8.1717203"><ele>384.0</ele><time>2026-03-29T10:57:29.07Z</time></trkpt><trkpt lat="43.0463317" lon="-8.1719007"><ele>384.0</ele><time>2026-03-29T10:57:30.071Z</time></trkpt><trkpt lat="43.0465321" lon="-8.1720733"><ele>384.0</ele><time>2026-03-29T10:57:31.07Z</time></trkpt><trkpt lat="43.0467306" lon="-8.1722515"><ele>381.0</ele><time>2026-03-29T10:57:32.07Z</time></trkpt><trkpt lat="43.0469254" lon="-8.1724198"><ele>378.0</ele><time>2026-03-29T10:57:33.07Z</time></trkpt><trkpt lat="43.0471143" lon="-8.1725814"><ele>378.0</ele><time>2026-03-29T10:57:34.07Z</time></trkpt><trkpt lat="43.0473469" lon="-8.1727163"><ele>378.0</ele><time>2026-03-29T10:57:35.071Z</time></trkpt><trkpt lat="43.0475792" lon="-8.1728399"><ele>375.5</ele><time>2026-03-29T10:57:36.07Z</time></trkpt><trkpt lat="43.0478184" lon="-8.1729629"><ele>373.0</ele><time>2026-03-29T10:57:37.07Z</time></trkpt><trkpt lat="43.0480609" lon="-8.1730778"><ele>369.5</ele><time>2026-03-29T10:57:38.07Z</time></trkpt><trkpt lat="43.0483041" lon="-8.1731889"><ele>366.0</ele><time>2026-03-29T10:57:39.071Z</time></trkpt><trkpt lat="43.0485494" lon="-8.1732973"><ele>366.0</ele><time>2026-03-29T10:57:40.071Z</time></trkpt><trkpt lat="43.048792" lon="-8.1734004"><ele>366.0</ele><time>2026-03-29T10:57:41.07Z</time></trkpt><trkpt lat="43.0490352" lon="-8.1735015"><ele>364.0</ele><time>2026-03-29T10:57:42.07Z</time></trkpt><trkpt lat="43.0492741" lon="-8.1735941"><ele>362.0</ele><time>2026-03-29T10:57:43.07Z</time></trkpt><trkpt lat="43.0495129" lon="-8.1736656"><ele>362.0</ele><time>2026-03-29T10:57:44.07Z</time></trkpt><trkpt lat="43.0497522" lon="-8.1737078"><ele>362.0</ele><time>2026-03-29T10:57:45.071Z</time></trkpt><trkpt lat="43.0499917" lon="-8.1737268"><ele>362.0</ele><time>2026-03-29T10:57:46.07Z</time></trkpt><trkpt lat="43.050231" lon="-8.1737211"><ele>362.0</ele><time>2026-03-29T10:57:47.07Z</time></trkpt><trkpt lat="43.0504788" lon="-8.1737205"><ele>362.0</ele><time>2026-03-29T10:57:48.071Z</time></trkpt><trkpt lat="43.0507291" lon="-8.1737242"><ele>362.0</ele><time>2026-03-29T10:57:49.071Z</time></trkpt><trkpt lat="43.0509781" lon="-8.1737319"><ele>359.0</ele><time>2026-03-29T10:57:50.07Z</time></trkpt><trkpt lat="43.051221" lon="-8.1737431"><ele>356.0</ele><time>2026-03-29T10:57:51.071Z</time></trkpt><trkpt lat="43.0514565" lon="-8.1737571"><ele>351.0</ele><time>2026-03-29T10:57:52.071Z</time></trkpt><trkpt lat="43.0516827" lon="-8.1737928"><ele>346.0</ele><time>2026-03-29T10:57:53.071Z</time></trkpt><trkpt lat="43.0519024" lon="-8.1738619"><ele>346.0</ele><time>2026-03-29T10:57:54.07Z</time></trkpt><trkpt lat="43.0521073" lon="-8.1739695"><ele>346.0</ele><time>2026-03-29T10:57:55.07Z</time></trkpt><trkpt lat="43.0523049" lon="-8.1741087"><ele>346.0</ele><time>2026-03-29T10:57:56.07Z</time></trkpt><trkpt lat="43.0524901" lon="-8.1742547"><ele>344.3333333333333</ele><time>2026-03-29T10:57:57.071Z</time></trkpt><trkpt lat="43.0526777" lon="-8.1743825"><ele>342.6666666666667</ele><time>2026-03-29T10:57:58.07Z</time></trkpt><trkpt lat="43.0528756" lon="-8.1744587"><ele>341.0</ele><time>2026-03-29T10:57:59.071Z</time></trkpt><trkpt lat="43.0530813" lon="-8.1744741"><ele>341.0</ele><time>2026-03-29T10:58:00.07Z</time></trkpt><trkpt lat="43.0532866" lon="-8.1744272"><ele>341.0</ele><time>2026-03-29T10:58:01.07Z</time></trkpt><trkpt lat="43.0534864" lon="-8.1743293"><ele>341.0</ele><time>2026-03-29T10:58:02.07Z</time></trkpt><trkpt lat="43.0536799" lon="-8.1741923"><ele>338.0</ele><time>2026-03-29T10:58:03.07Z</time></trkpt><trkpt lat="43.0538747" lon="-8.1740299"><ele>335.0</ele><time>2026-03-29T10:58:04.071Z</time></trkpt><trkpt lat="43.0540681" lon="-8.1738646"><ele>334.0</ele><time>2026-03-29T10:58:05.07Z</time></trkpt><trkpt lat="43.0542667" lon="-8.1737012"><ele>333.0</ele><time>2026-03-29T10:58:06.07Z</time></trkpt><trkpt lat="43.0544621" lon="-8.1735535"><ele>333.0</ele><time>2026-03-29T10:58:07.07Z</time></trkpt><trkpt lat="43.0546493" lon="-8.1734095"><ele>333.0</ele><time>2026-03-29T10:58:08.07Z</time></trkpt><trkpt lat="43.054834" lon="-8.1732796"><ele>333.0</ele><time>2026-03-29T10:58:09.071Z</time></trkpt><trkpt lat="43.0550207" lon="-8.1731721"><ele>331.6666666666667</ele><time>2026-03-29T10:58:10.071Z</time></trkpt><trkpt lat="43.0552217" lon="-8.1730913"><ele>330.33333333333337</ele><time>2026-03-29T10:58:11.071Z</time></trkpt><trkpt lat="43.0554322" lon="-8.17305"><ele>329.0</ele><time>2026-03-29T10:58:12.07Z</time></trkpt><trkpt lat="43.0556455" lon="-8.17304"><ele>325.33333333333337</ele><time>2026-03-29T10:58:13.07Z</time></trkpt><trkpt lat="43.0558667" lon="-8.1730507"><ele>321.6666666666667</ele><time>2026-03-29T10:58:14.071Z</time></trkpt><trkpt lat="43.0560893" lon="-8.173081"><ele>318.0</ele><time>2026-03-29T10:58:15.07Z</time></trkpt><trkpt lat="43.0563062" lon="-8.1731149"><ele>318.0</ele><time>2026-03-29T10:58:16.07Z</time></trkpt><trkpt lat="43.0565095" lon="-8.1731566"><ele>318.0</ele><time>2026-03-29T10:58:17.071Z</time></trkpt><trkpt lat="43.0566911" lon="-8.1731851"><ele>318.0</ele><time>2026-03-29T10:58:18.07Z</time></trkpt><trkpt lat="43.0568433" lon="-8.1732103"><ele>317.0</ele><time>2026-03-29T10:58:19.07Z</time></trkpt><trkpt lat="43.0569781" lon="-8.173233"><ele>316.0</ele><time>2026-03-29T10:58:20.07Z</time></trkpt><trkpt lat="43.0570984" lon="-8.1732569"><ele>315.0</ele><time>2026-03-29T10:58:21.071Z</time></trkpt><trkpt lat="43.0572213" lon="-8.1732792"><ele>314.0</ele><time>2026-03-29T10:58:22.07Z</time></trkpt><trkpt lat="43.057332" lon="-8.1733048"><ele>314.0</ele><time>2026-03-29T10:58:23.07Z</time></trkpt><trkpt lat="43.057452" lon="-8.1733618"><ele>314.0</ele><time>2026-03-29T10:58:24.071Z</time></trkpt><trkpt lat="43.0575678" lon="-8.1734606"><ele>314.0</ele><time>2026-03-29T10:58:25.071Z</time></trkpt><trkpt lat="43.0576617" lon="-8.1735983"><ele>314.0</ele><time>2026-03-29T10:58:26.071Z</time></trkpt><trkpt lat="43.0577366" lon="-8.1737695"><ele>315.6666666666667</ele><time>2026-03-29T10:58:27.07Z</time></trkpt><trkpt lat="43.0578161" lon="-8.1739144"><ele>317.3333333333333</ele><time>2026-03-29T10:58:28.071Z</time></trkpt><trkpt lat="43.0578964" lon="-8.1740882"><ele>319.0</ele><time>2026-03-29T10:58:29.071Z</time></trkpt><trkpt lat="43.0579365" lon="-8.1743203"><ele>319.0</ele><time>2026-03-29T10:58:30.07Z</time></trkpt><trkpt lat="43.0579847" lon="-8.174539"><ele>319.0</ele><time>2026-03-29T10:58:31.071Z</time></trkpt><trkpt lat="43.0580451" lon="-8.1747479"><ele>319.0</ele><time>2026-03-29T10:58:32.07Z</time></trkpt><trkpt lat="43.0581144" lon="-8.1749486"><ele>318.66666666666663</ele><time>2026-03-29T10:58:33.07Z</time></trkpt><trkpt lat="43.0581954" lon="-8.1751407"><ele>318.3333333333333</ele><time>2026-03-29T10:58:34.07Z</time></trkpt><trkpt lat="43.0582818" lon="-8.1753181"><ele>318.0</ele><time>2026-03-29T10:58:35.07Z</time></trkpt><trkpt lat="43.0583788" lon="-8.1754886"><ele>323.0</ele><time>2026-03-29T10:58:36.07Z</time></trkpt><trkpt lat="43.0584896" lon="-8.1756302"><ele>328.0</ele><time>2026-03-29T10:58:37.071Z</time></trkpt><trkpt lat="43.0586188" lon="-8.1757357"><ele>333.0</ele><time>2026-03-29T10:58:38.07Z</time></trkpt><trkpt lat="43.0587583" lon="-8.1758222"><ele>333.0</ele><time>2026-03-29T10:58:39.07Z</time></trkpt><trkpt lat="43.0589034" lon="-8.1759048"><ele>333.0</ele><time>2026-03-29T10:58:40.07Z</time></trkpt><trkpt lat="43.0590503" lon="-8.1759917"><ele>333.0</ele><time>2026-03-29T10:58:41.07Z</time></trkpt><trkpt lat="43.0591961" lon="-8.1760827"><ele>336.6666666666667</ele><time>2026-03-29T10:58:42.071Z</time></trkpt><trkpt lat="43.0593471" lon="-8.1761749"><ele>340.33333333333337</ele><time>2026-03-29T10:58:43.07Z</time></trkpt><trkpt lat="43.0594975" lon="-8.1762779"><ele>344.0</ele><time>2026-03-29T10:58:44.07Z</time></trkpt><trkpt lat="43.0596515" lon="-8.1763781"><ele>344.0</ele><time>2026-03-29T10:58:45.07Z</time></trkpt><trkpt lat="43.0598078" lon="-8.1764661"><ele>344.0</ele><time>2026-03-29T10:58:46.071Z</time></trkpt><trkpt lat="43.0599586" lon="-8.1765496"><ele>344.0</ele><time>2026-03-29T10:58:47.071Z</time></trkpt><trkpt lat="43.0601152" lon="-8.1766402"><ele>344.0</ele><time>2026-03-29T10:58:48.071Z</time></trkpt><trkpt lat="43.0602324" lon="-8.1767702"><ele>344.0</ele><time>2026-03-29T10:58:49.07Z</time></trkpt><trkpt lat="43.0603395" lon="-8.1769296"><ele>344.0</ele><time>2026-03-29T10:58:50.07Z</time></trkpt><trkpt lat="43.0604272" lon="-8.1771055"><ele>344.0</ele><time>2026-03-29T10:58:51.07Z</time></trkpt><trkpt lat="43.0604887" lon="-8.1773046"><ele>344.0</ele><time>2026-03-29T10:58:52.071Z</time></trkpt><trkpt lat="43.0605314" lon="-8.1775162"><ele>344.0</ele><time>2026-03-29T10:58:53.071Z</time></trkpt><trkpt lat="43.0605461" lon="-8.1777391"><ele>344.33333333333337</ele><time>2026-03-29T10:58:54.071Z</time></trkpt><trkpt lat="43.0605399" lon="-8.1779668"><ele>344.6666666666667</ele><time>2026-03-29T10:58:55.071Z</time></trkpt><trkpt lat="43.0605182" lon="-8.1781946"><ele>345.0</ele><time>2026-03-29T10:58:56.07Z</time></trkpt><trkpt lat="43.0604766" lon="-8.1784299"><ele>346.6666666666667</ele><time>2026-03-29T10:58:57.07Z</time></trkpt><trkpt lat="43.0604257" lon="-8.1786636"><ele>348.33333333333337</ele><time>2026-03-29T10:58:58.07Z</time></trkpt><trkpt lat="43.0603747" lon="-8.1788978"><ele>350.0</ele><time>2026-03-29T10:58:59.07Z</time></trkpt><trkpt lat="43.0603301" lon="-8.1791351"><ele>350.6666666666667</ele><time>2026-03-29T10:59:00.071Z</time></trkpt><trkpt lat="43.0602927" lon="-8.1793717"><ele>351.3333333333333</ele><time>2026-03-29T10:59:01.07Z</time></trkpt><trkpt lat="43.0602782" lon="-8.1796137"><ele>352.0</ele><time>2026-03-29T10:59:02.071Z</time></trkpt><trkpt lat="43.060278" lon="-8.1798616"><ele>352.0</ele><time>2026-03-29T10:59:03.071Z</time></trkpt><trkpt lat="43.0602817" lon="-8.1801154"><ele>352.0</ele><time>2026-03-29T10:59:04.07Z</time></trkpt><trkpt lat="43.0602815" lon="-8.180364"><ele>352.0</ele><time>2026-03-29T10:59:05.071Z</time></trkpt><trkpt lat="43.0602894" lon="-8.1806093"><ele>350.66666666666663</ele><time>2026-03-29T10:59:06.071Z</time></trkpt><trkpt lat="43.0602998" lon="-8.1808659"><ele>349.3333333333333</ele><time>2026-03-29T10:59:07.071Z</time></trkpt><trkpt lat="43.060313" lon="-8.181119"><ele>348.0</ele><time>2026-03-29T10:59:08.071Z</time></trkpt><trkpt lat="43.0603547" lon="-8.1813712"><ele>346.3333333333333</ele><time>2026-03-29T10:59:09.07Z</time></trkpt><trkpt lat="43.0604144" lon="-8.1816293"><ele>344.66666666666663</ele><time>2026-03-29T10:59:10.071Z</time></trkpt><trkpt lat="43.0605054" lon="-8.1818649"><ele>343.0</ele><time>2026-03-29T10:59:11.07Z</time></trkpt><trkpt lat="43.0605947" lon="-8.1820938"><ele>343.0</ele><time>2026-03-29T10:59:12.07Z</time></trkpt><trkpt lat="43.0606849" lon="-8.1823203"><ele>343.0</ele><time>2026-03-29T10:59:13.07Z</time></trkpt><trkpt lat="43.0607728" lon="-8.1825288"><ele>343.0</ele><time>2026-03-29T10:59:14.07Z</time></trkpt><trkpt lat="43.0608685" lon="-8.1827093"><ele>343.3333333333333</ele><time>2026-03-29T10:59:15.071Z</time></trkpt><trkpt lat="43.0609819" lon="-8.182861"><ele>343.6666666666667</ele><time>2026-03-29T10:59:16.071Z</time></trkpt><trkpt lat="43.0611209" lon="-8.18298"><ele>344.0</ele><time>2026-03-29T10:59:17.07Z</time></trkpt><trkpt lat="43.0612762" lon="-8.1830552"><ele>344.0</ele><time>2026-03-29T10:59:18.071Z</time></trkpt><trkpt lat="43.0614403" lon="-8.1830848"><ele>344.0</ele><time>2026-03-29T10:59:19.07Z</time></trkpt><trkpt lat="43.0616148" lon="-8.1830618"><ele>344.0</ele><time>2026-03-29T10:59:20.07Z</time></trkpt><trkpt lat="43.0617917" lon="-8.1830021"><ele>345.0</ele><time>2026-03-29T10:59:21.07Z</time></trkpt><trkpt lat="43.0619666" lon="-8.1829257"><ele>346.0</ele><time>2026-03-29T10:59:22.07Z</time></trkpt><trkpt lat="43.0621413" lon="-8.1828441"><ele>347.0</ele><time>2026-03-29T10:59:23.071Z</time></trkpt><trkpt lat="43.062307" lon="-8.1827866"><ele>345.0</ele><time>2026-03-29T10:59:24.07Z</time></trkpt><trkpt lat="43.0624697" lon="-8.182756"><ele>343.0</ele><time>2026-03-29T10:59:25.07Z</time></trkpt><trkpt lat="43.0626395" lon="-8.1827447"><ele>341.0</ele><time>2026-03-29T10:59:26.07Z</time></trkpt><trkpt lat="43.0628132" lon="-8.1827764"><ele>341.0</ele><time>2026-03-29T10:59:27.071Z</time></trkpt><trkpt lat="43.0630015" lon="-8.1829376"><ele>341.0</ele><time>2026-03-29T10:59:28.071Z</time></trkpt><trkpt lat="43.0631864" lon="-8.183093"><ele>341.0</ele><time>2026-03-29T10:59:29.071Z</time></trkpt><trkpt lat="43.063377" lon="-8.1832689"><ele>340.0</ele><time>2026-03-29T10:59:30.071Z</time></trkpt><trkpt lat="43.0635711" lon="-8.1834655"><ele>339.0</ele><time>2026-03-29T10:59:31.07Z</time></trkpt><trkpt lat="43.063753" lon="-8.1836875"><ele>339.0</ele><time>2026-03-29T10:59:32.07Z</time></trkpt><trkpt lat="43.0639296" lon="-8.1839252"><ele>339.0</ele><time>2026-03-29T10:59:33.07Z</time></trkpt><trkpt lat="43.0641121" lon="-8.1841544"><ele>340.0</ele><time>2026-03-29T10:59:34.071Z</time></trkpt><trkpt lat="43.0643303" lon="-8.1843328"><ele>341.0</ele><time>2026-03-29T10:59:35.07Z</time></trkpt><trkpt lat="43.0645685" lon="-8.1844767"><ele>341.0</ele><time>2026-03-29T10:59:36.071Z</time></trkpt><trkpt lat="43.0648241" lon="-8.1845777"><ele>341.0</ele><time>2026-03-29T10:59:37.07Z</time></trkpt><trkpt lat="43.0650815" lon="-8.184636"><ele>341.5</ele><time>2026-03-29T10:59:38.071Z</time></trkpt><trkpt lat="43.0653319" lon="-8.1846708"><ele>342.0</ele><time>2026-03-29T10:59:39.07Z</time></trkpt><trkpt lat="43.0655742" lon="-8.1847098"><ele>343.5</ele><time>2026-03-29T10:59:40.07Z</time></trkpt><trkpt lat="43.0658015" lon="-8.184789"><ele>345.0</ele><time>2026-03-29T10:59:41.07Z</time></trkpt><trkpt lat="43.0660162" lon="-8.1849094"><ele>350.0</ele><time>2026-03-29T10:59:42.07Z</time></trkpt><trkpt lat="43.0662118" lon="-8.1850728"><ele>355.0</ele><time>2026-03-29T10:59:43.071Z</time></trkpt><trkpt lat="43.0663926" lon="-8.1852837"><ele>355.0</ele><time>2026-03-29T10:59:44.071Z</time></trkpt><trkpt lat="43.0665656" lon="-8.1855263"><ele>355.0</ele><time>2026-03-29T10:59:45.071Z</time></trkpt><trkpt lat="43.0667376" lon="-8.1857946"><ele>359.5</ele><time>2026-03-29T10:59:46.071Z</time></trkpt><trkpt lat="43.0669144" lon="-8.1860784"><ele>364.0</ele><time>2026-03-29T10:59:47.07Z</time></trkpt><trkpt lat="43.0670844" lon="-8.1863712"><ele>363.5</ele><time>2026-03-29T10:59:48.07Z</time></trkpt><trkpt lat="43.0672553" lon="-8.1866723"><ele>363.0</ele><time>2026-03-29T10:59:49.071Z</time></trkpt><trkpt lat="43.0674018" lon="-8.186975"><ele>367.5</ele><time>2026-03-29T10:59:50.07Z</time></trkpt><trkpt lat="43.0675266" lon="-8.1872627"><ele>372.0</ele><time>2026-03-29T10:59:51.07Z</time></trkpt><trkpt lat="43.0676393" lon="-8.1875352"><ele>372.0</ele><time>2026-03-29T10:59:52.071Z</time></trkpt><trkpt lat="43.0677398" lon="-8.1877871"><ele>372.0</ele><time>2026-03-29T10:59:53.071Z</time></trkpt><trkpt lat="43.0678304" lon="-8.1880256"><ele>372.0</ele><time>2026-03-29T10:59:54.07Z</time></trkpt><trkpt lat="43.0679183" lon="-8.188255"><ele>372.6666666666667</ele><time>2026-03-29T10:59:55.071Z</time></trkpt><trkpt lat="43.0680086" lon="-8.188466"><ele>373.33333333333337</ele><time>2026-03-29T10:59:56.071Z</time></trkpt><trkpt lat="43.0680995" lon="-8.1886622"><ele>374.0</ele><time>2026-03-29T10:59:57.07Z</time></trkpt><trkpt lat="43.0681956" lon="-8.1888456"><ele>378.33333333333337</ele><time>2026-03-29T10:59:58.07Z</time></trkpt><trkpt lat="43.068294" lon="-8.1890209"><ele>382.6666666666667</ele><time>2026-03-29T10:59:59.071Z</time></trkpt><trkpt lat="43.0683957" lon="-8.1891912"><ele>387.0</ele><time>2026-03-29T11:00:00.07Z</time></trkpt><trkpt lat="43.0684882" lon="-8.1893607"><ele>387.0</ele><time>2026-03-29T11:00:01.07Z</time></trkpt><trkpt lat="43.0685814" lon="-8.1895266"><ele>387.0</ele><time>2026-03-29T11:00:02.07Z</time></trkpt><trkpt lat="43.0686698" lon="-8.189688"><ele>387.0</ele><time>2026-03-29T11:00:03.071Z</time></trkpt><trkpt lat="43.0687475" lon="-8.1898584"><ele>387.0</ele><time>2026-03-29T11:00:04.071Z</time></trkpt><trkpt lat="43.0688016" lon="-8.1900518"><ele>387.0</ele><time>2026-03-29T11:00:05.07Z</time></trkpt><trkpt lat="43.068831" lon="-8.1902598"><ele>387.0</ele><time>2026-03-29T11:00:06.07Z</time></trkpt><trkpt lat="43.0688396" lon="-8.1904751"><ele>387.0</ele><time>2026-03-29T11:00:07.071Z</time></trkpt><trkpt lat="43.0688339" lon="-8.1906967"><ele>388.5</ele><time>2026-03-29T11:00:08.07Z</time></trkpt><trkpt lat="43.0688213" lon="-8.1909127"><ele>390.0</ele><time>2026-03-29T11:00:09.07Z</time></trkpt><trkpt lat="43.0688205" lon="-8.1911197"><ele>391.5</ele><time>2026-03-29T11:00:10.07Z</time></trkpt><trkpt lat="43.0688376" lon="-8.1913073"><ele>393.0</ele><time>2026-03-29T11:00:11.07Z</time></trkpt><trkpt lat="43.0688776" lon="-8.1914811"><ele>394.5</ele><time>2026-03-29T11:00:12.07Z</time></trkpt><trkpt lat="43.0689326" lon="-8.1916432"><ele>396.0</ele><time>2026-03-29T11:00:13.07Z</time></trkpt><trkpt lat="43.0690039" lon="-8.1918064"><ele>397.5</ele><time>2026-03-29T11:00:14.07Z</time></trkpt><trkpt lat="43.0690807" lon="-8.1919688"><ele>399.0</ele><time>2026-03-29T11:00:15.071Z</time></trkpt><trkpt lat="43.0691568" lon="-8.1921365"><ele>400.0</ele><time>2026-03-29T11:00:16.071Z</time></trkpt><trkpt lat="43.0692319" lon="-8.1923045"><ele>401.0</ele><time>2026-03-29T11:00:17.071Z</time></trkpt><trkpt lat="43.0693067" lon="-8.1924766"><ele>402.0</ele><time>2026-03-29T11:00:18.07Z</time></trkpt><trkpt lat="43.0693883" lon="-8.1926517"><ele>403.0</ele><time>2026-03-29T11:00:19.071Z</time></trkpt><trkpt lat="43.0694629" lon="-8.1928375"><ele>403.0</ele><time>2026-03-29T11:00:20.07Z</time></trkpt><trkpt lat="43.0695326" lon="-8.1930355"><ele>403.0</ele><time>2026-03-29T11:00:21.07Z</time></trkpt><trkpt lat="43.0696032" lon="-8.1932361"><ele>403.0</ele><time>2026-03-29T11:00:22.071Z</time></trkpt><trkpt lat="43.0696817" lon="-8.1934364"><ele>403.0</ele><time>2026-03-29T11:00:23.07Z</time></trkpt><trkpt lat="43.0697776" lon="-8.1936239"><ele>403.0</ele><time>2026-03-29T11:00:24.071Z</time></trkpt><trkpt lat="43.0698805" lon="-8.1937984"><ele>403.0</ele><time>2026-03-29T11:00:25.071Z</time></trkpt><trkpt lat="43.0699872" lon="-8.1939538"><ele>403.75</ele><time>2026-03-29T11:00:26.071Z</time></trkpt><trkpt lat="43.0700957" lon="-8.1940932"><ele>404.5</ele><time>2026-03-29T11:00:27.07Z</time></trkpt><trkpt lat="43.0702113" lon="-8.1942022"><ele>405.25</ele><time>2026-03-29T11:00:28.07Z</time></trkpt><trkpt lat="43.0703391" lon="-8.1942955"><ele>406.0</ele><time>2026-03-29T11:00:29.071Z</time></trkpt><trkpt lat="43.0704771" lon="-8.1943683"><ele>406.0</ele><time>2026-03-29T11:00:30.07Z</time></trkpt><trkpt lat="43.0706279" lon="-8.1944159"><ele>406.0</ele><time>2026-03-29T11:00:31.07Z</time></trkpt><trkpt lat="43.0707836" lon="-8.194445"><ele>406.0</ele><time>2026-03-29T11:00:32.07Z</time></trkpt><trkpt lat="43.0709476" lon="-8.1944592"><ele>405.33333333333337</ele><time>2026-03-29T11:00:33.071Z</time></trkpt><trkpt lat="43.0711164" lon="-8.1944643"><ele>404.66666666666663</ele><time>2026-03-29T11:00:34.071Z</time></trkpt><trkpt lat="43.0712888" lon="-8.1944615"><ele>404.0</ele><time>2026-03-29T11:00:35.071Z</time></trkpt><trkpt lat="43.071465" lon="-8.1944626"><ele>403.66666666666663</ele><time>2026-03-29T11:00:36.071Z</time></trkpt><trkpt lat="43.0716443" lon="-8.1944717"><ele>403.33333333333337</ele><time>2026-03-29T11:00:37.07Z</time></trkpt><trkpt lat="43.071812" lon="-8.1945205"><ele>403.0</ele><time>2026-03-29T11:00:38.07Z</time></trkpt><trkpt lat="43.0719703" lon="-8.1945923"><ele>403.0</ele><time>2026-03-29T11:00:39.07Z</time></trkpt><trkpt lat="43.0721167" lon="-8.194682"><ele>403.0</ele><time>2026-03-29T11:00:40.071Z</time></trkpt><trkpt lat="43.0722587" lon="-8.1947747"><ele>403.0</ele><time>2026-03-29T11:00:41.071Z</time></trkpt><trkpt lat="43.0723982" lon="-8.1948662"><ele>401.75</ele><time>2026-03-29T11:00:42.071Z</time></trkpt><trkpt lat="43.0725308" lon="-8.1949499"><ele>400.5</ele><time>2026-03-29T11:00:43.07Z</time></trkpt><trkpt lat="43.0726565" lon="-8.1950399"><ele>399.25</ele><time>2026-03-29T11:00:44.07Z</time></trkpt><trkpt lat="43.072776" lon="-8.1951203"><ele>398.0</ele><time>2026-03-29T11:00:45.07Z</time></trkpt><trkpt lat="43.0728955" lon="-8.195196"><ele>398.0</ele><time>2026-03-29T11:00:46.07Z</time></trkpt><trkpt lat="43.0730117" lon="-8.1952669"><ele>398.0</ele><time>2026-03-29T11:00:47.07Z</time></trkpt><trkpt lat="43.0731275" lon="-8.19534"><ele>398.0</ele><time>2026-03-29T11:00:48.071Z</time></trkpt><trkpt lat="43.0732461" lon="-8.1954151"><ele>398.0</ele><time>2026-03-29T11:00:49.071Z</time></trkpt><trkpt lat="43.0733639" lon="-8.1954853"><ele>398.5</ele><time>2026-03-29T11:00:50.07Z</time></trkpt><trkpt lat="43.0734914" lon="-8.1955692"><ele>399.0</ele><time>2026-03-29T11:00:51.07Z</time></trkpt><trkpt lat="43.0736201" lon="-8.1956511"><ele>399.5</ele><time>2026-03-29T11:00:52.071Z</time></trkpt><trkpt lat="43.0737489" lon="-8.1957291"><ele>400.0</ele><time>2026-03-29T11:00:53.07Z</time></trkpt><trkpt lat="43.0738798" lon="-8.1958106"><ele>400.25</ele><time>2026-03-29T11:00:54.07Z</time></trkpt><trkpt lat="43.0740105" lon="-8.195892"><ele>400.5</ele><time>2026-03-29T11:00:55.07Z</time></trkpt><trkpt lat="43.0741427" lon="-8.1959724"><ele>400.75</ele><time>2026-03-29T11:00:56.071Z</time></trkpt><trkpt lat="43.0742755" lon="-8.1960551"><ele>401.0</ele><time>2026-03-29T11:00:57.071Z</time></trkpt><trkpt lat="43.074405" lon="-8.1961371"><ele>401.5</ele><time>2026-03-29T11:00:58.07Z</time></trkpt><trkpt lat="43.0745311" lon="-8.1962203"><ele>402.0</ele><time>2026-03-29T11:00:59.07Z</time></trkpt><trkpt lat="43.0746548" lon="-8.1963011"><ele>402.5</ele><time>2026-03-29T11:01:00.071Z</time></trkpt><trkpt lat="43.0747768" lon="-8.1963778"><ele>403.0</ele><time>2026-03-29T11:01:01.07Z</time></trkpt><trkpt lat="43.07489" lon="-8.1964485"><ele>404.2</ele><time>2026-03-29T11:01:02.07Z</time></trkpt><trkpt lat="43.0749941" lon="-8.1965169"><ele>405.4</ele><time>2026-03-29T11:01:03.07Z</time></trkpt><trkpt lat="43.0750882" lon="-8.1965768"><ele>406.59999999999997</ele><time>2026-03-29T11:01:04.071Z</time></trkpt><trkpt lat="43.0751676" lon="-8.1966297"><ele>407.79999999999995</ele><time>2026-03-29T11:01:05.071Z</time></trkpt><trkpt lat="43.0752314" lon="-8.1966728"><ele>409.0</ele><time>2026-03-29T11:01:06.07Z</time></trkpt><trkpt lat="43.0752934" lon="-8.196758"><ele>409.0</ele><time>2026-03-29T11:01:08.071Z</time></trkpt><trkpt lat="43.0753112" lon="-8.1968487"><ele>409.0</ele><time>2026-03-29T11:01:21.07Z</time></trkpt><trkpt lat="43.0752676" lon="-8.1969562"><ele>409.0</ele><time>2026-03-29T11:01:31.07Z</time></trkpt><trkpt lat="43.0751995" lon="-8.1970329"><ele>409.0</ele><time>2026-03-29T11:01:32.07Z</time></trkpt><trkpt lat="43.075099" lon="-8.1971075"><ele>409.0</ele><time>2026-03-29T11:01:33.07Z</time></trkpt><trkpt lat="43.0749845" lon="-8.1971804"><ele>408.25</ele><time>2026-03-29T11:01:34.07Z</time></trkpt><trkpt lat="43.0748594" lon="-8.1972619"><ele>407.5</ele><time>2026-03-29T11:01:35.071Z</time></trkpt><trkpt lat="43.0747295" lon="-8.1973458"><ele>406.75</ele><time>2026-03-29T11:01:36.07Z</time></trkpt><trkpt lat="43.0745939" lon="-8.1974348"><ele>406.0</ele><time>2026-03-29T11:01:37.071Z</time></trkpt><trkpt lat="43.0744553" lon="-8.19753"><ele>405.6666666666667</ele><time>2026-03-29T11:01:38.07Z</time></trkpt><trkpt lat="43.0743078" lon="-8.1976336"><ele>405.33333333333337</ele><time>2026-03-29T11:01:39.071Z</time></trkpt><trkpt lat="43.0741545" lon="-8.1977395"><ele>405.0</ele><time>2026-03-29T11:01:40.071Z</time></trkpt><trkpt lat="43.0739984" lon="-8.1978492"><ele>404.66666666666663</ele><time>2026-03-29T11:01:41.07Z</time></trkpt><trkpt lat="43.0738408" lon="-8.1979572"><ele>404.3333333333333</ele><time>2026-03-29T11:01:42.07Z</time></trkpt><trkpt lat="43.0736851" lon="-8.198066"><ele>404.0</ele><time>2026-03-29T11:01:43.07Z</time></trkpt><trkpt lat="43.073529" lon="-8.1981733"><ele>404.0</ele><time>2026-03-29T11:01:44.071Z</time></trkpt><trkpt lat="43.0733728" lon="-8.1982768"><ele>404.0</ele><time>2026-03-29T11:01:45.071Z</time></trkpt><trkpt lat="43.0732173" lon="-8.1983859"><ele>404.0</ele><time>2026-03-29T11:01:46.07Z</time></trkpt><trkpt lat="43.0730652" lon="-8.1984943"><ele>404.0</ele><time>2026-03-29T11:01:47.07Z</time></trkpt><trkpt lat="43.0729177" lon="-8.1986065"><ele>404.0</ele><time>2026-03-29T11:01:48.07Z</time></trkpt><trkpt lat="43.0727708" lon="-8.1987183"><ele>404.0</ele><time>2026-03-29T11:01:49.071Z</time></trkpt><trkpt lat="43.0726318" lon="-8.1988239"><ele>404.0</ele><time>2026-03-29T11:01:50.07Z</time></trkpt><trkpt lat="43.0724934" lon="-8.1989226"><ele>404.0</ele><time>2026-03-29T11:01:51.071Z</time></trkpt><trkpt lat="43.0723615" lon="-8.1990166"><ele>404.0</ele><time>2026-03-29T11:01:52.07Z</time></trkpt><trkpt lat="43.072245" lon="-8.1990977"><ele>404.0</ele><time>2026-03-29T11:01:53.07Z</time></trkpt><trkpt lat="43.0721348" lon="-8.1991811"><ele>404.25</ele><time>2026-03-29T11:01:54.071Z</time></trkpt><trkpt lat="43.0720435" lon="-8.1992756"><ele>404.5</ele><time>2026-03-29T11:01:55.07Z</time></trkpt><trkpt lat="43.071969" lon="-8.1993863"><ele>404.75</ele><time>2026-03-29T11:01:56.071Z</time></trkpt><trkpt lat="43.0718971" lon="-8.1995271"><ele>405.0</ele><time>2026-03-29T11:01:57.07Z</time></trkpt><trkpt lat="43.0718347" lon="-8.1996928"><ele>405.66666666666663</ele><time>2026-03-29T11:01:58.071Z</time></trkpt><trkpt lat="43.0717676" lon="-8.1998731"><ele>406.3333333333333</ele><time>2026-03-29T11:01:59.07Z</time></trkpt><trkpt lat="43.0717046" lon="-8.2000671"><ele>407.0</ele><time>2026-03-29T11:02:00.07Z</time></trkpt><trkpt lat="43.0716365" lon="-8.2002762"><ele>406.66666666666663</ele><time>2026-03-29T11:02:01.07Z</time></trkpt><trkpt lat="43.0715629" lon="-8.2004947"><ele>406.33333333333337</ele><time>2026-03-29T11:02:02.071Z</time></trkpt><trkpt lat="43.0714881" lon="-8.2007235"><ele>406.0</ele><time>2026-03-29T11:02:03.07Z</time></trkpt><trkpt lat="43.0714074" lon="-8.2009547"><ele>406.0</ele><time>2026-03-29T11:02:04.07Z</time></trkpt><trkpt lat="43.0713244" lon="-8.201197"><ele>406.0</ele><time>2026-03-29T11:02:05.07Z</time></trkpt><trkpt lat="43.0712404" lon="-8.2014465"><ele>406.0</ele><time>2026-03-29T11:02:06.07Z</time></trkpt><trkpt lat="43.071154" lon="-8.201698"><ele>406.0</ele><time>2026-03-29T11:02:07.07Z</time></trkpt><trkpt lat="43.0710698" lon="-8.2019499"><ele>406.0</ele><time>2026-03-29T11:02:08.07Z</time></trkpt><trkpt lat="43.0709848" lon="-8.2022063"><ele>406.0</ele><time>2026-03-29T11:02:09.071Z</time></trkpt><trkpt lat="43.0708967" lon="-8.2024626"><ele>406.0</ele><time>2026-03-29T11:02:10.07Z</time></trkpt><trkpt lat="43.0708073" lon="-8.2027177"><ele>406.0</ele><time>2026-03-29T11:02:11.07Z</time></trkpt><trkpt lat="43.0707164" lon="-8.2029774"><ele>406.0</ele><time>2026-03-29T11:02:12.07Z</time></trkpt><trkpt lat="43.0706266" lon="-8.2032399"><ele>406.0</ele><time>2026-03-29T11:02:13.07Z</time></trkpt><trkpt lat="43.0705349" lon="-8.2035083"><ele>406.0</ele><time>2026-03-29T11:02:14.07Z</time></trkpt><trkpt lat="43.0704444" lon="-8.2037746"><ele>406.0</ele><time>2026-03-29T11:02:15.07Z</time></trkpt><trkpt lat="43.0703476" lon="-8.2040395"><ele>406.33333333333337</ele><time>2026-03-29T11:02:16.07Z</time></trkpt><trkpt lat="43.0702523" lon="-8.2043126"><ele>406.66666666666663</ele><time>2026-03-29T11:02:17.07Z</time></trkpt><trkpt lat="43.0701583" lon="-8.2045897"><ele>407.0</ele><time>2026-03-29T11:02:18.071Z</time></trkpt><trkpt lat="43.0700608" lon="-8.2048668"><ele>407.0</ele><time>2026-03-29T11:02:19.07Z</time></trkpt><trkpt lat="43.0699664" lon="-8.2051412"><ele>407.0</ele><time>2026-03-29T11:02:20.07Z</time></trkpt><trkpt lat="43.069868" lon="-8.2054174"><ele>407.0</ele><time>2026-03-29T11:02:21.071Z</time></trkpt><trkpt lat="43.0697699" lon="-8.2056986"><ele>405.0</ele><time>2026-03-29T11:02:22.07Z</time></trkpt><trkpt lat="43.069671" lon="-8.2059897"><ele>403.0</ele><time>2026-03-29T11:02:23.07Z</time></trkpt><trkpt lat="43.0695718" lon="-8.20628"><ele>403.0</ele><time>2026-03-29T11:02:24.07Z</time></trkpt><trkpt lat="43.0694682" lon="-8.2065745"><ele>403.0</ele><time>2026-03-29T11:02:25.07Z</time></trkpt><trkpt lat="43.0693627" lon="-8.2068718"><ele>403.0</ele><time>2026-03-29T11:02:26.07Z</time></trkpt><trkpt lat="43.0692576" lon="-8.207169"><ele>403.0</ele><time>2026-03-29T11:02:27.07Z</time></trkpt><trkpt lat="43.0691523" lon="-8.2074661"><ele>402.0</ele><time>2026-03-29T11:02:28.07Z</time></trkpt><trkpt lat="43.069046" lon="-8.2077694"><ele>401.0</ele><time>2026-03-29T11:02:29.07Z</time></trkpt><trkpt lat="43.0689421" lon="-8.2080772"><ele>403.5</ele><time>2026-03-29T11:02:30.07Z</time></trkpt><trkpt lat="43.0688328" lon="-8.2083906"><ele>406.0</ele><time>2026-03-29T11:02:31.071Z</time></trkpt><trkpt lat="43.068722" lon="-8.2087086"><ele>406.5</ele><time>2026-03-29T11:02:32.07Z</time></trkpt><trkpt lat="43.0686154" lon="-8.2090187"><ele>407.0</ele><time>2026-03-29T11:02:33.071Z</time></trkpt><trkpt lat="43.0685052" lon="-8.2093298"><ele>407.0</ele><time>2026-03-29T11:02:34.07Z</time></trkpt><trkpt lat="43.0684042" lon="-8.2096313"><ele>407.0</ele><time>2026-03-29T11:02:35.07Z</time></trkpt><trkpt lat="43.0683313" lon="-8.2099379"><ele>405.0</ele><time>2026-03-29T11:02:36.07Z</time></trkpt><trkpt lat="43.0682877" lon="-8.210244"><ele>403.0</ele><time>2026-03-29T11:02:37.07Z</time></trkpt><trkpt lat="43.0682773" lon="-8.210547"><ele>401.0</ele><time>2026-03-29T11:02:38.07Z</time></trkpt><trkpt lat="43.0682907" lon="-8.2108412"><ele>401.0</ele><time>2026-03-29T11:02:39.071Z</time></trkpt><trkpt lat="43.0683335" lon="-8.2111296"><ele>401.0</ele><time>2026-03-29T11:02:40.07Z</time></trkpt><trkpt lat="43.0683958" lon="-8.2114067"><ele>401.0</ele><time>2026-03-29T11:02:41.07Z</time></trkpt><trkpt lat="43.068482" lon="-8.2116667"><ele>401.3333333333333</ele><time>2026-03-29T11:02:42.07Z</time></trkpt><trkpt lat="43.068584" lon="-8.2119116"><ele>401.66666666666663</ele><time>2026-03-29T11:02:43.07Z</time></trkpt><trkpt lat="43.0687057" lon="-8.2121361"><ele>402.0</ele><time>2026-03-29T11:02:44.07Z</time></trkpt><trkpt lat="43.0688367" lon="-8.2123287"><ele>402.33333333333337</ele><time>2026-03-29T11:02:45.07Z</time></trkpt><trkpt lat="43.0689748" lon="-8.212508"><ele>402.6666666666667</ele><time>2026-03-29T11:02:46.07Z</time></trkpt><trkpt lat="43.0691123" lon="-8.2126742"><ele>403.0</ele><time>2026-03-29T11:02:47.071Z</time></trkpt><trkpt lat="43.0692484" lon="-8.2128335"><ele>403.33333333333337</ele><time>2026-03-29T11:02:48.07Z</time></trkpt><trkpt lat="43.0693815" lon="-8.2129942"><ele>403.66666666666663</ele><time>2026-03-29T11:02:49.071Z</time></trkpt><trkpt lat="43.0695159" lon="-8.213159"><ele>404.0</ele><time>2026-03-29T11:02:50.071Z</time></trkpt><trkpt lat="43.0696591" lon="-8.2133172"><ele>404.0</ele><time>2026-03-29T11:02:51.071Z</time></trkpt><trkpt lat="43.0698104" lon="-8.2134573"><ele>404.0</ele><time>2026-03-29T11:02:52.071Z</time></trkpt><trkpt lat="43.0699734" lon="-8.2135804"><ele>404.0</ele><time>2026-03-29T11:02:53.07Z</time></trkpt><trkpt lat="43.0701466" lon="-8.2136852"><ele>402.66666666666663</ele><time>2026-03-29T11:02:54.071Z</time></trkpt><trkpt lat="43.0703284" lon="-8.2137702"><ele>401.33333333333337</ele><time>2026-03-29T11:02:55.07Z</time></trkpt><trkpt lat="43.0705175" lon="-8.2138459"><ele>400.0</ele><time>2026-03-29T11:02:56.07Z</time></trkpt><trkpt lat="43.0707094" lon="-8.2139209"><ele>399.6666666666667</ele><time>2026-03-29T11:02:57.07Z</time></trkpt><trkpt lat="43.0709014" lon="-8.2139982"><ele>399.33333333333337</ele><time>2026-03-29T11:02:58.07Z</time></trkpt><trkpt lat="43.0710919" lon="-8.2140799"><ele>399.0</ele><time>2026-03-29T11:02:59.071Z</time></trkpt><trkpt lat="43.0712814" lon="-8.2141566"><ele>399.0</ele><time>2026-03-29T11:03:00.07Z</time></trkpt><trkpt lat="43.07147" lon="-8.2142314"><ele>399.0</ele><time>2026-03-29T11:03:01.07Z</time></trkpt><trkpt lat="43.0716521" lon="-8.214306"><ele>399.0</ele><time>2026-03-29T11:03:02.07Z</time></trkpt><trkpt lat="43.0718289" lon="-8.214383"><ele>397.66666666666663</ele><time>2026-03-29T11:03:03.07Z</time></trkpt><trkpt lat="43.0720062" lon="-8.214479"><ele>396.3333333333333</ele><time>2026-03-29T11:03:04.07Z</time></trkpt><trkpt lat="43.0721694" lon="-8.2146156"><ele>395.0</ele><time>2026-03-29T11:03:05.07Z</time></trkpt><trkpt lat="43.0723249" lon="-8.214785"><ele>392.3333333333333</ele><time>2026-03-29T11:03:06.071Z</time></trkpt><trkpt lat="43.0724616" lon="-8.2149917"><ele>389.66666666666663</ele><time>2026-03-29T11:03:07.07Z</time></trkpt><trkpt lat="43.0725814" lon="-8.2152269"><ele>387.0</ele><time>2026-03-29T11:03:08.07Z</time></trkpt><trkpt lat="43.0726843" lon="-8.215484"><ele>385.3333333333333</ele><time>2026-03-29T11:03:09.07Z</time></trkpt><trkpt lat="43.0727807" lon="-8.2157506"><ele>383.66666666666663</ele><time>2026-03-29T11:03:10.07Z</time></trkpt><trkpt lat="43.0728707" lon="-8.2160168"><ele>382.0</ele><time>2026-03-29T11:03:11.071Z</time></trkpt><trkpt lat="43.0729596" lon="-8.2162768"><ele>381.66666666666663</ele><time>2026-03-29T11:03:12.071Z</time></trkpt><trkpt lat="43.0730485" lon="-8.2165305"><ele>381.3333333333333</ele><time>2026-03-29T11:03:13.07Z</time></trkpt><trkpt lat="43.0731374" lon="-8.2167774"><ele>381.0</ele><time>2026-03-29T11:03:14.071Z</time></trkpt><trkpt lat="43.0732273" lon="-8.21703"><ele>381.3333333333333</ele><time>2026-03-29T11:03:15.07Z</time></trkpt><trkpt lat="43.0733195" lon="-8.2172855"><ele>381.66666666666663</ele><time>2026-03-29T11:03:16.07Z</time></trkpt><trkpt lat="43.0734079" lon="-8.2175419"><ele>382.0</ele><time>2026-03-29T11:03:17.07Z</time></trkpt><trkpt lat="43.0734968" lon="-8.2177966"><ele>381.0</ele><time>2026-03-29T11:03:18.07Z</time></trkpt><trkpt lat="43.0735868" lon="-8.2180568"><ele>380.0</ele><time>2026-03-29T11:03:19.071Z</time></trkpt><trkpt lat="43.0736773" lon="-8.218318"><ele>379.0</ele><time>2026-03-29T11:03:20.07Z</time></trkpt><trkpt lat="43.0737697" lon="-8.2185801"><ele>378.0</ele><time>2026-03-29T11:03:21.07Z</time></trkpt><trkpt lat="43.073863" lon="-8.2188433"><ele>377.0</ele><time>2026-03-29T11:03:22.07Z</time></trkpt><trkpt lat="43.0739542" lon="-8.2191099"><ele>376.0</ele><time>2026-03-29T11:03:23.07Z</time></trkpt><trkpt lat="43.0740431" lon="-8.2193881"><ele>376.3333333333333</ele><time>2026-03-29T11:03:24.07Z</time></trkpt><trkpt lat="43.0741155" lon="-8.2196774"><ele>376.6666666666667</ele><time>2026-03-29T11:03:25.07Z</time></trkpt><trkpt lat="43.0741646" lon="-8.2199774"><ele>377.0</ele><time>2026-03-29T11:03:26.071Z</time></trkpt><trkpt lat="43.0741962" lon="-8.220287"><ele>375.5</ele><time>2026-03-29T11:03:27.07Z</time></trkpt><trkpt lat="43.074209" lon="-8.2206027"><ele>374.0</ele><time>2026-03-29T11:03:28.07Z</time></trkpt><trkpt lat="43.0742008" lon="-8.2209236"><ele>374.0</ele><time>2026-03-29T11:03:29.071Z</time></trkpt><trkpt lat="43.0741742" lon="-8.2212483"><ele>374.0</ele><time>2026-03-29T11:03:30.071Z</time></trkpt><trkpt lat="43.0741346" lon="-8.221569"><ele>371.5</ele><time>2026-03-29T11:03:31.07Z</time></trkpt><trkpt lat="43.0740859" lon="-8.2218895"><ele>369.0</ele><time>2026-03-29T11:03:32.071Z</time></trkpt><trkpt lat="43.0740381" lon="-8.2222165"><ele>367.0</ele><time>2026-03-29T11:03:33.07Z</time></trkpt><trkpt lat="43.0739961" lon="-8.2225449"><ele>365.0</ele><time>2026-03-29T11:03:34.07Z</time></trkpt><trkpt lat="43.0739583" lon="-8.2228675"><ele>364.5</ele><time>2026-03-29T11:03:35.07Z</time></trkpt><trkpt lat="43.0739169" lon="-8.2231898"><ele>364.0</ele><time>2026-03-29T11:03:36.07Z</time></trkpt><trkpt lat="43.0738788" lon="-8.2235135"><ele>364.0</ele><time>2026-03-29T11:03:37.071Z</time></trkpt><trkpt lat="43.0738435" lon="-8.2238297"><ele>364.0</ele><time>2026-03-29T11:03:38.071Z</time></trkpt><trkpt lat="43.0738159" lon="-8.2241438"><ele>363.5</ele><time>2026-03-29T11:03:39.07Z</time></trkpt><trkpt lat="43.0737969" lon="-8.2244511"><ele>363.0</ele><time>2026-03-29T11:03:40.071Z</time></trkpt><trkpt lat="43.0737859" lon="-8.2247612"><ele>362.0</ele><time>2026-03-29T11:03:41.071Z</time></trkpt><trkpt lat="43.0737867" lon="-8.2250715"><ele>361.0</ele><time>2026-03-29T11:03:42.071Z</time></trkpt><trkpt lat="43.0737948" lon="-8.2253826"><ele>360.0</ele><time>2026-03-29T11:03:43.071Z</time></trkpt><trkpt lat="43.0738099" lon="-8.2256936"><ele>359.0</ele><time>2026-03-29T11:03:44.071Z</time></trkpt><trkpt lat="43.0738309" lon="-8.2260052"><ele>359.0</ele><time>2026-03-29T11:03:45.07Z</time></trkpt><trkpt lat="43.0738579" lon="-8.2263107"><ele>359.0</ele><time>2026-03-29T11:03:46.071Z</time></trkpt><trkpt lat="43.073877" lon="-8.2266284"><ele>359.0</ele><time>2026-03-29T11:03:47.07Z</time></trkpt><trkpt lat="43.073895" lon="-8.2269484"><ele>359.0</ele><time>2026-03-29T11:03:48.071Z</time></trkpt><trkpt lat="43.073917" lon="-8.2272705"><ele>356.0</ele><time>2026-03-29T11:03:49.071Z</time></trkpt><trkpt lat="43.0739414" lon="-8.227596"><ele>353.0</ele><time>2026-03-29T11:03:50.07Z</time></trkpt><trkpt lat="43.0739666" lon="-8.2279194"><ele>349.5</ele><time>2026-03-29T11:03:51.071Z</time></trkpt><trkpt lat="43.073992" lon="-8.2282409"><ele>346.0</ele><time>2026-03-29T11:03:52.071Z</time></trkpt><trkpt lat="43.0740174" lon="-8.2285658"><ele>346.0</ele><time>2026-03-29T11:03:53.07Z</time></trkpt><trkpt lat="43.0740411" lon="-8.2288854"><ele>346.0</ele><time>2026-03-29T11:03:54.07Z</time></trkpt><trkpt lat="43.074055" lon="-8.2291991"><ele>347.0</ele><time>2026-03-29T11:03:55.07Z</time></trkpt><trkpt lat="43.0740373" lon="-8.2294982"><ele>348.0</ele><time>2026-03-29T11:03:56.07Z</time></trkpt><trkpt lat="43.0739837" lon="-8.2297911"><ele>349.0</ele><time>2026-03-29T11:03:57.071Z</time></trkpt><trkpt lat="43.073935" lon="-8.2300948"><ele>351.66666666666663</ele><time>2026-03-29T11:03:58.071Z</time></trkpt><trkpt lat="43.0738069" lon="-8.2303273"><ele>354.3333333333333</ele><time>2026-03-29T11:03:59.07Z</time></trkpt><trkpt lat="43.0736703" lon="-8.2305639"><ele>357.0</ele><time>2026-03-29T11:04:00.071Z</time></trkpt><trkpt lat="43.0735288" lon="-8.2308017"><ele>357.0</ele><time>2026-03-29T11:04:01.07Z</time></trkpt><trkpt lat="43.0733923" lon="-8.231037"><ele>357.0</ele><time>2026-03-29T11:04:02.071Z</time></trkpt><trkpt lat="43.0732636" lon="-8.2312764"><ele>357.0</ele><time>2026-03-29T11:04:03.07Z</time></trkpt><trkpt lat="43.0731574" lon="-8.2315306"><ele>357.0</ele><time>2026-03-29T11:04:04.07Z</time></trkpt><trkpt lat="43.073082" lon="-8.2317996"><ele>357.0</ele><time>2026-03-29T11:04:05.071Z</time></trkpt><trkpt lat="43.0730365" lon="-8.232074"><ele>357.0</ele><time>2026-03-29T11:04:06.07Z</time></trkpt><trkpt lat="43.0730237" lon="-8.2323572"><ele>356.6666666666667</ele><time>2026-03-29T11:04:07.07Z</time></trkpt><trkpt lat="43.0730446" lon="-8.2326364"><ele>356.33333333333337</ele><time>2026-03-29T11:04:08.071Z</time></trkpt><trkpt lat="43.073083" lon="-8.2329089"><ele>356.0</ele><time>2026-03-29T11:04:09.07Z</time></trkpt><trkpt lat="43.073121" lon="-8.2331667"><ele>357.33333333333337</ele><time>2026-03-29T11:04:10.071Z</time></trkpt><trkpt lat="43.0731539" lon="-8.2334103"><ele>358.6666666666667</ele><time>2026-03-29T11:04:11.07Z</time></trkpt><trkpt lat="43.0731844" lon="-8.2336369"><ele>360.0</ele><time>2026-03-29T11:04:12.07Z</time></trkpt><trkpt lat="43.0732186" lon="-8.2338431"><ele>360.0</ele><time>2026-03-29T11:04:13.071Z</time></trkpt><trkpt lat="43.0732455" lon="-8.2340351"><ele>360.0</ele><time>2026-03-29T11:04:14.07Z</time></trkpt><trkpt lat="43.0732719" lon="-8.23421"><ele>360.0</ele><time>2026-03-29T11:04:15.071Z</time></trkpt><trkpt lat="43.0732932" lon="-8.2343715"><ele>360.0</ele><time>2026-03-29T11:04:16.071Z</time></trkpt><trkpt lat="43.0733193" lon="-8.2345473"><ele>362.0</ele><time>2026-03-29T11:04:17.07Z</time></trkpt><trkpt lat="43.0733456" lon="-8.2347375"><ele>364.0</ele><time>2026-03-29T11:04:18.07Z</time></trkpt><trkpt lat="43.0733885" lon="-8.2349631"><ele>366.0</ele><time>2026-03-29T11:04:19.071Z</time></trkpt><trkpt lat="43.0734264" lon="-8.2352064"><ele>366.0</ele><time>2026-03-29T11:04:20.071Z</time></trkpt><trkpt lat="43.0734656" lon="-8.2354643"><ele>366.0</ele><time>2026-03-29T11:04:21.07Z</time></trkpt><trkpt lat="43.0735006" lon="-8.2357435"><ele>366.0</ele><time>2026-03-29T11:04:22.071Z</time></trkpt><trkpt lat="43.073531" lon="-8.2360288"><ele>366.3333333333333</ele><time>2026-03-29T11:04:23.07Z</time></trkpt><trkpt lat="43.0735412" lon="-8.2363177"><ele>366.66666666666663</ele><time>2026-03-29T11:04:24.07Z</time></trkpt><trkpt lat="43.0735101" lon="-8.2366155"><ele>367.0</ele><time>2026-03-29T11:04:25.071Z</time></trkpt><trkpt lat="43.0734357" lon="-8.2369051"><ele>368.0</ele><time>2026-03-29T11:04:26.07Z</time></trkpt><trkpt lat="43.0733578" lon="-8.2371877"><ele>369.0</ele><time>2026-03-29T11:04:27.071Z</time></trkpt><trkpt lat="43.0732078" lon="-8.2374406"><ele>369.0</ele><time>2026-03-29T11:04:28.071Z</time></trkpt><trkpt lat="43.073057" lon="-8.2376886"><ele>369.0</ele><time>2026-03-29T11:04:29.07Z</time></trkpt><trkpt lat="43.0729046" lon="-8.2379371"><ele>369.0</ele><time>2026-03-29T11:04:30.07Z</time></trkpt><trkpt lat="43.0727563" lon="-8.2381901"><ele>369.0</ele><time>2026-03-29T11:04:31.07Z</time></trkpt><trkpt lat="43.0726094" lon="-8.2384412"><ele>369.0</ele><time>2026-03-29T11:04:32.07Z</time></trkpt><trkpt lat="43.0724688" lon="-8.2386849"><ele>369.0</ele><time>2026-03-29T11:04:33.071Z</time></trkpt><trkpt lat="43.0723338" lon="-8.2389172"><ele>369.0</ele><time>2026-03-29T11:04:34.07Z</time></trkpt><trkpt lat="43.0722239" lon="-8.2391372"><ele>370.0</ele><time>2026-03-29T11:04:35.071Z</time></trkpt><trkpt lat="43.0721415" lon="-8.2393623"><ele>371.0</ele><time>2026-03-29T11:04:36.07Z</time></trkpt><trkpt lat="43.0720949" lon="-8.2395718"><ele>372.0</ele><time>2026-03-29T11:04:37.07Z</time></trkpt><trkpt lat="43.072064" lon="-8.2397491"><ele>372.8</ele><time>2026-03-29T11:04:38.071Z</time></trkpt><trkpt lat="43.0720653" lon="-8.2398895"><ele>373.6</ele><time>2026-03-29T11:04:39.071Z</time></trkpt><trkpt lat="43.0721002" lon="-8.2399825"><ele>374.40000000000003</ele><time>2026-03-29T11:04:40.07Z</time></trkpt><trkpt lat="43.0721653" lon="-8.2400186"><ele>375.20000000000005</ele><time>2026-03-29T11:04:41.071Z</time></trkpt><trkpt lat="43.0722587" lon="-8.2400129"><ele>376.0</ele><time>2026-03-29T11:04:42.071Z</time></trkpt><trkpt lat="43.0723647" lon="-8.2399855"><ele>376.4</ele><time>2026-03-29T11:04:43.07Z</time></trkpt><trkpt lat="43.0724721" lon="-8.23995"><ele>376.8</ele><time>2026-03-29T11:04:44.07Z</time></trkpt><trkpt lat="43.0725769" lon="-8.2399179"><ele>377.2</ele><time>2026-03-29T11:04:45.071Z</time></trkpt><trkpt lat="43.0726638" lon="-8.239895"><ele>377.59999999999997</ele><time>2026-03-29T11:04:46.07Z</time></trkpt><trkpt lat="43.0727416" lon="-8.2398774"><ele>378.0</ele><time>2026-03-29T11:04:47.071Z</time></trkpt><trkpt lat="43.0728158" lon="-8.2398515"><ele>378.0</ele><time>2026-03-29T11:04:48.07Z</time></trkpt><trkpt lat="43.0728924" lon="-8.2398329"><ele>378.0</ele><time>2026-03-29T11:04:49.071Z</time></trkpt><trkpt lat="43.0729626" lon="-8.2398258"><ele>378.0</ele><time>2026-03-29T11:04:50.071Z</time></trkpt><trkpt lat="43.0730379" lon="-8.2398151"><ele>378.0</ele><time>2026-03-29T11:04:51.07Z</time></trkpt><trkpt lat="43.0731129" lon="-8.2397937"><ele>378.0</ele><time>2026-03-29T11:04:52.07Z</time></trkpt><trkpt lat="43.0732017" lon="-8.2397656"><ele>378.0</ele><time>2026-03-29T11:04:53.071Z</time></trkpt><trkpt lat="43.0733124" lon="-8.2397274"><ele>378.75</ele><time>2026-03-29T11:04:54.07Z</time></trkpt><trkpt lat="43.0734497" lon="-8.2396915"><ele>379.5</ele><time>2026-03-29T11:04:55.071Z</time></trkpt><trkpt lat="43.0735915" lon="-8.2396478"><ele>380.25</ele><time>2026-03-29T11:04:56.07Z</time></trkpt><trkpt lat="43.0737409" lon="-8.2395937"><ele>381.0</ele><time>2026-03-29T11:04:57.071Z</time></trkpt><trkpt lat="43.0739022" lon="-8.2395365"><ele>381.0</ele><time>2026-03-29T11:04:58.07Z</time></trkpt><trkpt lat="43.0740716" lon="-8.2394815"><ele>381.0</ele><time>2026-03-29T11:04:59.07Z</time></trkpt><trkpt lat="43.0742439" lon="-8.2394228"><ele>381.0</ele><time>2026-03-29T11:05:00.07Z</time></trkpt><trkpt lat="43.0744195" lon="-8.2393609"><ele>383.0</ele><time>2026-03-29T11:05:01.07Z</time></trkpt><trkpt lat="43.0746022" lon="-8.2393035"><ele>385.0</ele><time>2026-03-29T11:05:02.071Z</time></trkpt><trkpt lat="43.0747881" lon="-8.2392416"><ele>387.0</ele><time>2026-03-29T11:05:03.07Z</time></trkpt><trkpt lat="43.0749721" lon="-8.2391862"><ele>388.66666666666663</ele><time>2026-03-29T11:05:04.07Z</time></trkpt><trkpt lat="43.0751582" lon="-8.239129"><ele>390.3333333333333</ele><time>2026-03-29T11:05:05.071Z</time></trkpt><trkpt lat="43.0753381" lon="-8.2390749"><ele>392.0</ele><time>2026-03-29T11:05:06.07Z</time></trkpt><trkpt lat="43.0755116" lon="-8.2390186"><ele>392.0</ele><time>2026-03-29T11:05:07.07Z</time></trkpt><trkpt lat="43.0756916" lon="-8.2389694"><ele>392.0</ele><time>2026-03-29T11:05:08.071Z</time></trkpt><trkpt lat="43.0758683" lon="-8.2389078"><ele>392.0</ele><time>2026-03-29T11:05:09.071Z</time></trkpt><trkpt lat="43.0760492" lon="-8.2388558"><ele>390.3333333333333</ele><time>2026-03-29T11:05:10.07Z</time></trkpt><trkpt lat="43.0762306" lon="-8.2388"><ele>388.66666666666663</ele><time>2026-03-29T11:05:11.07Z</time></trkpt><trkpt lat="43.076409" lon="-8.2387452"><ele>387.0</ele><time>2026-03-29T11:05:12.07Z</time></trkpt><trkpt lat="43.0765917" lon="-8.2386878"><ele>388.33333333333337</ele><time>2026-03-29T11:05:13.071Z</time></trkpt><trkpt lat="43.07677" lon="-8.2386297"><ele>389.6666666666667</ele><time>2026-03-29T11:05:14.071Z</time></trkpt><trkpt lat="43.0769502" lon="-8.2385726"><ele>391.0</ele><time>2026-03-29T11:05:15.071Z</time></trkpt><trkpt lat="43.0771305" lon="-8.2385111"><ele>391.0</ele><time>2026-03-29T11:05:16.071Z</time></trkpt><trkpt lat="43.0773103" lon="-8.238453"><ele>391.0</ele><time>2026-03-29T11:05:17.071Z</time></trkpt><trkpt lat="43.0774889" lon="-8.2383943"><ele>391.0</ele><time>2026-03-29T11:05:18.07Z</time></trkpt><trkpt lat="43.0776647" lon="-8.2383363"><ele>392.33333333333337</ele><time>2026-03-29T11:05:19.07Z</time></trkpt><trkpt lat="43.0778431" lon="-8.2382797"><ele>393.66666666666663</ele><time>2026-03-29T11:05:20.07Z</time></trkpt><trkpt lat="43.0780238" lon="-8.238224"><ele>395.0</ele><time>2026-03-29T11:05:21.07Z</time></trkpt><trkpt lat="43.0782006" lon="-8.2381664"><ele>395.66666666666663</ele><time>2026-03-29T11:05:22.07Z</time></trkpt><trkpt lat="43.0783767" lon="-8.2381042"><ele>396.33333333333337</ele><time>2026-03-29T11:05:23.071Z</time></trkpt><trkpt lat="43.0785473" lon="-8.2380417"><ele>397.0</ele><time>2026-03-29T11:05:24.07Z</time></trkpt><trkpt lat="43.0787126" lon="-8.2379868"><ele>397.0</ele><time>2026-03-29T11:05:25.07Z</time></trkpt><trkpt lat="43.078866" lon="-8.2379316"><ele>397.0</ele><time>2026-03-29T11:05:26.07Z</time></trkpt><trkpt lat="43.0790064" lon="-8.2378787"><ele>397.0</ele><time>2026-03-29T11:05:27.07Z</time></trkpt><trkpt lat="43.0791422" lon="-8.2378709"><ele>397.0</ele><time>2026-03-29T11:05:28.07Z</time></trkpt><trkpt lat="43.079269" lon="-8.2379153"><ele>397.25</ele><time>2026-03-29T11:05:29.07Z</time></trkpt><trkpt lat="43.0793901" lon="-8.2380003"><ele>397.5</ele><time>2026-03-29T11:05:30.071Z</time></trkpt><trkpt lat="43.0795144" lon="-8.238098"><ele>397.75</ele><time>2026-03-29T11:05:31.071Z</time></trkpt><trkpt lat="43.0796475" lon="-8.2382026"><ele>398.0</ele><time>2026-03-29T11:05:32.07Z</time></trkpt><trkpt lat="43.0797886" lon="-8.2383051"><ele>398.3333333333333</ele><time>2026-03-29T11:05:33.07Z</time></trkpt><trkpt lat="43.0799338" lon="-8.2384076"><ele>398.66666666666663</ele><time>2026-03-29T11:05:34.07Z</time></trkpt><trkpt lat="43.0800749" lon="-8.2385215"><ele>399.0</ele><time>2026-03-29T11:05:35.07Z</time></trkpt><trkpt lat="43.0802159" lon="-8.2386346"><ele>399.0</ele><time>2026-03-29T11:05:36.071Z</time></trkpt><trkpt lat="43.0803621" lon="-8.2387465"><ele>399.0</ele><time>2026-03-29T11:05:37.071Z</time></trkpt><trkpt lat="43.0805047" lon="-8.2388592"><ele>399.0</ele><time>2026-03-29T11:05:38.071Z</time></trkpt><trkpt lat="43.0806475" lon="-8.2389698"><ele>399.66666666666663</ele><time>2026-03-29T11:05:39.071Z</time></trkpt><trkpt lat="43.0807883" lon="-8.2390805"><ele>400.3333333333333</ele><time>2026-03-29T11:05:40.07Z</time></trkpt><trkpt lat="43.0809299" lon="-8.2391916"><ele>401.0</ele><time>2026-03-29T11:05:41.071Z</time></trkpt><trkpt lat="43.0810705" lon="-8.2392932"><ele>401.0</ele><time>2026-03-29T11:05:42.07Z</time></trkpt><trkpt lat="43.0812104" lon="-8.2393933"><ele>401.0</ele><time>2026-03-29T11:05:43.07Z</time></trkpt><trkpt lat="43.0813477" lon="-8.2394987"><ele>401.0</ele><time>2026-03-29T11:05:44.07Z</time></trkpt><trkpt lat="43.0814777" lon="-8.2395982"><ele>400.5</ele><time>2026-03-29T11:05:45.07Z</time></trkpt><trkpt lat="43.0816051" lon="-8.2396995"><ele>400.0</ele><time>2026-03-29T11:05:46.071Z</time></trkpt><trkpt lat="43.0817278" lon="-8.2398022"><ele>399.5</ele><time>2026-03-29T11:05:47.07Z</time></trkpt><trkpt lat="43.0818605" lon="-8.239901"><ele>399.0</ele><time>2026-03-29T11:05:48.07Z</time></trkpt><trkpt lat="43.0819968" lon="-8.2399964"><ele>399.0</ele><time>2026-03-29T11:05:49.07Z</time></trkpt><trkpt lat="43.0821391" lon="-8.2400857"><ele>399.0</ele><time>2026-03-29T11:05:50.071Z</time></trkpt><trkpt lat="43.0822802" lon="-8.2401733"><ele>399.0</ele><time>2026-03-29T11:05:51.07Z</time></trkpt><trkpt lat="43.0824325" lon="-8.2402486"><ele>398.33333333333337</ele><time>2026-03-29T11:05:52.07Z</time></trkpt><trkpt lat="43.0825935" lon="-8.2403267"><ele>397.6666666666667</ele><time>2026-03-29T11:05:53.07Z</time></trkpt><trkpt lat="43.0827613" lon="-8.2404048"><ele>397.0</ele><time>2026-03-29T11:05:54.071Z</time></trkpt><trkpt lat="43.0829348" lon="-8.2404808"><ele>397.0</ele><time>2026-03-29T11:05:55.07Z</time></trkpt><trkpt lat="43.0831107" lon="-8.2405565"><ele>397.0</ele><time>2026-03-29T11:05:56.071Z</time></trkpt><trkpt lat="43.0832871" lon="-8.2406251"><ele>397.0</ele><time>2026-03-29T11:05:57.071Z</time></trkpt><trkpt lat="43.0834601" lon="-8.240703"><ele>398.6666666666667</ele><time>2026-03-29T11:05:58.07Z</time></trkpt><trkpt lat="43.0836325" lon="-8.2407742"><ele>400.33333333333337</ele><time>2026-03-29T11:05:59.07Z</time></trkpt><trkpt lat="43.0838067" lon="-8.2408435"><ele>402.0</ele><time>2026-03-29T11:06:00.07Z</time></trkpt><trkpt lat="43.0839803" lon="-8.2409132"><ele>402.33333333333337</ele><time>2026-03-29T11:06:01.07Z</time></trkpt><trkpt lat="43.0841548" lon="-8.2409775"><ele>402.6666666666667</ele><time>2026-03-29T11:06:02.071Z</time></trkpt><trkpt lat="43.0843274" lon="-8.2410457"><ele>403.0</ele><time>2026-03-29T11:06:03.071Z</time></trkpt><trkpt lat="43.0844998" lon="-8.2411131"><ele>403.0</ele><time>2026-03-29T11:06:04.07Z</time></trkpt><trkpt lat="43.084673" lon="-8.241181"><ele>403.0</ele><time>2026-03-29T11:06:05.07Z</time></trkpt><trkpt lat="43.0848445" lon="-8.2412476"><ele>403.0</ele><time>2026-03-29T11:06:06.071Z</time></trkpt><trkpt lat="43.0850163" lon="-8.2413189"><ele>403.0</ele><time>2026-03-29T11:06:07.07Z</time></trkpt><trkpt lat="43.0851883" lon="-8.2413891"><ele>403.0</ele><time>2026-03-29T11:06:08.07Z</time></trkpt><trkpt lat="43.0853637" lon="-8.241464"><ele>403.0</ele><time>2026-03-29T11:06:09.07Z</time></trkpt><trkpt lat="43.0855469" lon="-8.2415354"><ele>403.6666666666667</ele><time>2026-03-29T11:06:10.071Z</time></trkpt><trkpt lat="43.0857316" lon="-8.2416103"><ele>404.33333333333337</ele><time>2026-03-29T11:06:11.07Z</time></trkpt><trkpt lat="43.0859189" lon="-8.2416869"><ele>405.0</ele><time>2026-03-29T11:06:12.07Z</time></trkpt><trkpt lat="43.0861088" lon="-8.2417607"><ele>405.0</ele><time>2026-03-29T11:06:13.07Z</time></trkpt><trkpt lat="43.0863001" lon="-8.2418356"><ele>405.0</ele><time>2026-03-29T11:06:14.07Z</time></trkpt><trkpt lat="43.086492" lon="-8.2419162"><ele>405.0</ele><time>2026-03-29T11:06:15.07Z</time></trkpt><trkpt lat="43.0866813" lon="-8.2419949"><ele>405.33333333333337</ele><time>2026-03-29T11:06:16.071Z</time></trkpt><trkpt lat="43.086867" lon="-8.2420694"><ele>405.6666666666667</ele><time>2026-03-29T11:06:17.071Z</time></trkpt><trkpt lat="43.0870453" lon="-8.242138"><ele>406.0</ele><time>2026-03-29T11:06:18.07Z</time></trkpt><trkpt lat="43.0872253" lon="-8.2421809"><ele>406.0</ele><time>2026-03-29T11:06:19.071Z</time></trkpt><trkpt lat="43.0874052" lon="-8.242204"><ele>406.0</ele><time>2026-03-29T11:06:20.07Z</time></trkpt><trkpt lat="43.0875816" lon="-8.2422231"><ele>406.0</ele><time>2026-03-29T11:06:21.071Z</time></trkpt><trkpt lat="43.0877634" lon="-8.2422427"><ele>406.33333333333337</ele><time>2026-03-29T11:06:22.07Z</time></trkpt><trkpt lat="43.0879466" lon="-8.2422631"><ele>406.66666666666663</ele><time>2026-03-29T11:06:23.07Z</time></trkpt><trkpt lat="43.0881296" lon="-8.2422782"><ele>407.0</ele><time>2026-03-29T11:06:24.071Z</time></trkpt><trkpt lat="43.0883167" lon="-8.2422829"><ele>406.0</ele><time>2026-03-29T11:06:25.07Z</time></trkpt><trkpt lat="43.0885063" lon="-8.2422811"><ele>405.0</ele><time>2026-03-29T11:06:26.07Z</time></trkpt><trkpt lat="43.0887008" lon="-8.242286"><ele>404.0</ele><time>2026-03-29T11:06:27.07Z</time></trkpt><trkpt lat="43.0888973" lon="-8.2423062"><ele>401.3333333333333</ele><time>2026-03-29T11:06:28.07Z</time></trkpt><trkpt lat="43.0890935" lon="-8.2423412"><ele>398.66666666666663</ele><time>2026-03-29T11:06:29.071Z</time></trkpt><trkpt lat="43.0892941" lon="-8.2423865"><ele>396.0</ele><time>2026-03-29T11:06:30.071Z</time></trkpt><trkpt lat="43.0894914" lon="-8.2424281"><ele>396.0</ele><time>2026-03-29T11:06:31.07Z</time></trkpt><trkpt lat="43.0896905" lon="-8.2424688"><ele>396.0</ele><time>2026-03-29T11:06:32.071Z</time></trkpt><trkpt lat="43.0898879" lon="-8.2425081"><ele>396.0</ele><time>2026-03-29T11:06:33.07Z</time></trkpt><trkpt lat="43.0900883" lon="-8.2425498"><ele>395.0</ele><time>2026-03-29T11:06:34.071Z</time></trkpt><trkpt lat="43.0902849" lon="-8.242599"><ele>394.0</ele><time>2026-03-29T11:06:35.07Z</time></trkpt><trkpt lat="43.0904825" lon="-8.2426577"><ele>393.0</ele><time>2026-03-29T11:06:36.07Z</time></trkpt><trkpt lat="43.0906774" lon="-8.2427227"><ele>392.66666666666663</ele><time>2026-03-29T11:06:37.071Z</time></trkpt><trkpt lat="43.0908684" lon="-8.2427949"><ele>392.3333333333333</ele><time>2026-03-29T11:06:38.07Z</time></trkpt><trkpt lat="43.0910498" lon="-8.2428714"><ele>392.0</ele><time>2026-03-29T11:06:39.07Z</time></trkpt><trkpt lat="43.0912264" lon="-8.2429683"><ele>392.0</ele><time>2026-03-29T11:06:40.07Z</time></trkpt><trkpt lat="43.0913904" lon="-8.2431082"><ele>392.0</ele><time>2026-03-29T11:06:41.071Z</time></trkpt><trkpt lat="43.0915532" lon="-8.2432798"><ele>392.0</ele><time>2026-03-29T11:06:42.07Z</time></trkpt><trkpt lat="43.0917127" lon="-8.2434622"><ele>392.66666666666663</ele><time>2026-03-29T11:06:43.071Z</time></trkpt><trkpt lat="43.0918728" lon="-8.2436444"><ele>393.33333333333337</ele><time>2026-03-29T11:06:44.07Z</time></trkpt><trkpt lat="43.0920368" lon="-8.2438202"><ele>394.0</ele><time>2026-03-29T11:06:45.07Z</time></trkpt><trkpt lat="43.0922013" lon="-8.243992"><ele>394.0</ele><time>2026-03-29T11:06:46.07Z</time></trkpt><trkpt lat="43.0923681" lon="-8.244163"><ele>394.0</ele><time>2026-03-29T11:06:47.07Z</time></trkpt><trkpt lat="43.0925338" lon="-8.2443349"><ele>394.0</ele><time>2026-03-29T11:06:48.07Z</time></trkpt><trkpt lat="43.0926976" lon="-8.2445065"><ele>395.6666666666667</ele><time>2026-03-29T11:06:49.071Z</time></trkpt><trkpt lat="43.0928635" lon="-8.244678"><ele>397.33333333333337</ele><time>2026-03-29T11:06:50.07Z</time></trkpt><trkpt lat="43.0930315" lon="-8.244849"><ele>399.0</ele><time>2026-03-29T11:06:51.07Z</time></trkpt><trkpt lat="43.0931992" lon="-8.2450204"><ele>400.33333333333337</ele><time>2026-03-29T11:06:52.07Z</time></trkpt><trkpt lat="43.0933678" lon="-8.2451943"><ele>401.6666666666667</ele><time>2026-03-29T11:06:53.07Z</time></trkpt><trkpt lat="43.0935347" lon="-8.2453641"><ele>403.0</ele><time>2026-03-29T11:06:54.07Z</time></trkpt><trkpt lat="43.0937017" lon="-8.2455321"><ele>402.6666666666667</ele><time>2026-03-29T11:06:55.07Z</time></trkpt><trkpt lat="43.0938706" lon="-8.2457062"><ele>402.33333333333337</ele><time>2026-03-29T11:06:56.07Z</time></trkpt><trkpt lat="43.094017" lon="-8.2459013"><ele>402.0</ele><time>2026-03-29T11:06:57.07Z</time></trkpt><trkpt lat="43.094146" lon="-8.2461238"><ele>404.0</ele><time>2026-03-29T11:06:58.07Z</time></trkpt><trkpt lat="43.09426" lon="-8.2463639"><ele>406.0</ele><time>2026-03-29T11:06:59.071Z</time></trkpt><trkpt lat="43.0943673" lon="-8.2466079"><ele>408.0</ele><time>2026-03-29T11:07:00.07Z</time></trkpt><trkpt lat="43.0944855" lon="-8.2468545"><ele>408.33333333333337</ele><time>2026-03-29T11:07:01.07Z</time></trkpt><trkpt lat="43.0945989" lon="-8.2471036"><ele>408.6666666666667</ele><time>2026-03-29T11:07:02.071Z</time></trkpt><trkpt lat="43.0947146" lon="-8.247353"><ele>409.0</ele><time>2026-03-29T11:07:03.07Z</time></trkpt><trkpt lat="43.0948354" lon="-8.2476027"><ele>408.33333333333337</ele><time>2026-03-29T11:07:04.071Z</time></trkpt><trkpt lat="43.0949564" lon="-8.24786"><ele>407.66666666666663</ele><time>2026-03-29T11:07:05.07Z</time></trkpt><trkpt lat="43.0950802" lon="-8.2481182"><ele>407.0</ele><time>2026-03-29T11:07:06.071Z</time></trkpt><trkpt lat="43.0952029" lon="-8.2483725"><ele>407.0</ele><time>2026-03-29T11:07:07.071Z</time></trkpt><trkpt lat="43.0953249" lon="-8.2486314"><ele>407.0</ele><time>2026-03-29T11:07:08.071Z</time></trkpt><trkpt lat="43.0954496" lon="-8.2488899"><ele>406.66666666666663</ele><time>2026-03-29T11:07:09.07Z</time></trkpt><trkpt lat="43.0955708" lon="-8.249151"><ele>406.33333333333337</ele><time>2026-03-29T11:07:10.07Z</time></trkpt><trkpt lat="43.0956896" lon="-8.2494038"><ele>406.0</ele><time>2026-03-29T11:07:11.071Z</time></trkpt><trkpt lat="43.0958051" lon="-8.2496423"><ele>404.33333333333337</ele><time>2026-03-29T11:07:12.07Z</time></trkpt><trkpt lat="43.0959158" lon="-8.249874"><ele>402.66666666666663</ele><time>2026-03-29T11:07:13.07Z</time></trkpt><trkpt lat="43.0960396" lon="-8.2500802"><ele>401.0</ele><time>2026-03-29T11:07:14.071Z</time></trkpt><trkpt lat="43.0961823" lon="-8.250264"><ele>401.0</ele><time>2026-03-29T11:07:15.07Z</time></trkpt><trkpt lat="43.0963429" lon="-8.250431"><ele>401.0</ele><time>2026-03-29T11:07:16.07Z</time></trkpt><trkpt lat="43.0965123" lon="-8.25059"><ele>401.0</ele><time>2026-03-29T11:07:17.071Z</time></trkpt><trkpt lat="43.0966858" lon="-8.2507591"><ele>401.3333333333333</ele><time>2026-03-29T11:07:18.07Z</time></trkpt><trkpt lat="43.0968556" lon="-8.250945"><ele>401.66666666666663</ele><time>2026-03-29T11:07:19.071Z</time></trkpt><trkpt lat="43.097022" lon="-8.2511397"><ele>402.0</ele><time>2026-03-29T11:07:20.071Z</time></trkpt><trkpt lat="43.0971829" lon="-8.2513441"><ele>401.0</ele><time>2026-03-29T11:07:21.07Z</time></trkpt><trkpt lat="43.0973391" lon="-8.2515335"><ele>400.0</ele><time>2026-03-29T11:07:22.071Z</time></trkpt><trkpt lat="43.0974973" lon="-8.2517279"><ele>399.0</ele><time>2026-03-29T11:07:23.071Z</time></trkpt><trkpt lat="43.0976555" lon="-8.2519227"><ele>401.0</ele><time>2026-03-29T11:07:24.07Z</time></trkpt><trkpt lat="43.0978123" lon="-8.2521085"><ele>403.0</ele><time>2026-03-29T11:07:25.07Z</time></trkpt><trkpt lat="43.0979659" lon="-8.2522973"><ele>405.0</ele><time>2026-03-29T11:07:26.07Z</time></trkpt><trkpt lat="43.0981228" lon="-8.2524793"><ele>407.0</ele><time>2026-03-29T11:07:27.07Z</time></trkpt><trkpt lat="43.0982758" lon="-8.252665"><ele>409.0</ele><time>2026-03-29T11:07:28.07Z</time></trkpt><trkpt lat="43.0984266" lon="-8.2528466"><ele>411.0</ele><time>2026-03-29T11:07:29.071Z</time></trkpt><trkpt lat="43.0985697" lon="-8.25303"><ele>411.33333333333337</ele><time>2026-03-29T11:07:30.07Z</time></trkpt><trkpt lat="43.0987052" lon="-8.253224"><ele>411.6666666666667</ele><time>2026-03-29T11:07:31.071Z</time></trkpt><trkpt lat="43.0988188" lon="-8.2534342"><ele>412.0</ele><time>2026-03-29T11:07:32.07Z</time></trkpt><trkpt lat="43.0989018" lon="-8.253662"><ele>412.0</ele><time>2026-03-29T11:07:33.071Z</time></trkpt><trkpt lat="43.0989166" lon="-8.2539547"><ele>412.0</ele><time>2026-03-29T11:07:34.071Z</time></trkpt><trkpt lat="43.0989474" lon="-8.2542331"><ele>412.0</ele><time>2026-03-29T11:07:35.071Z</time></trkpt><trkpt lat="43.0990073" lon="-8.2545102"><ele>415.6666666666667</ele><time>2026-03-29T11:07:36.071Z</time></trkpt><trkpt lat="43.0990863" lon="-8.2547651"><ele>419.33333333333337</ele><time>2026-03-29T11:07:37.07Z</time></trkpt><trkpt lat="43.0991635" lon="-8.2549952"><ele>423.0</ele><time>2026-03-29T11:07:38.071Z</time></trkpt><trkpt lat="43.0992439" lon="-8.2552184"><ele>424.0</ele><time>2026-03-29T11:07:39.07Z</time></trkpt><trkpt lat="43.0993362" lon="-8.2554122"><ele>425.0</ele><time>2026-03-29T11:07:40.07Z</time></trkpt><trkpt lat="43.09943" lon="-8.2555835"><ele>426.0</ele><time>2026-03-29T11:07:41.07Z</time></trkpt><trkpt lat="43.0995147" lon="-8.2557418"><ele>426.5</ele><time>2026-03-29T11:07:42.07Z</time></trkpt><trkpt lat="43.0996004" lon="-8.2558931"><ele>427.0</ele><time>2026-03-29T11:07:43.07Z</time></trkpt><trkpt lat="43.0996993" lon="-8.2560271"><ele>427.5</ele><time>2026-03-29T11:07:44.07Z</time></trkpt><trkpt lat="43.0998091" lon="-8.2561432"><ele>428.0</ele><time>2026-03-29T11:07:45.07Z</time></trkpt><trkpt lat="43.0999285" lon="-8.25624"><ele>428.0</ele><time>2026-03-29T11:07:46.07Z</time></trkpt><trkpt lat="43.100063" lon="-8.2563276"><ele>428.0</ele><time>2026-03-29T11:07:47.071Z</time></trkpt><trkpt lat="43.1002009" lon="-8.2564104"><ele>428.0</ele><time>2026-03-29T11:07:48.07Z</time></trkpt><trkpt lat="43.1003464" lon="-8.2565009"><ele>428.0</ele><time>2026-03-29T11:07:49.071Z</time></trkpt><trkpt lat="43.1004894" lon="-8.2566016"><ele>428.0</ele><time>2026-03-29T11:07:50.071Z</time></trkpt><trkpt lat="43.1006205" lon="-8.2567346"><ele>428.0</ele><time>2026-03-29T11:07:51.071Z</time></trkpt><trkpt lat="43.100741" lon="-8.2568831"><ele>426.66666666666663</ele><time>2026-03-29T11:07:52.07Z</time></trkpt><trkpt lat="43.1008555" lon="-8.2570321"><ele>425.33333333333337</ele><time>2026-03-29T11:07:53.07Z</time></trkpt><trkpt lat="43.1009864" lon="-8.257148"><ele>424.0</ele><time>2026-03-29T11:07:54.071Z</time></trkpt><trkpt lat="43.1011264" lon="-8.2572578"><ele>422.6666666666667</ele><time>2026-03-29T11:07:55.07Z</time></trkpt><trkpt lat="43.1012826" lon="-8.257341"><ele>421.33333333333337</ele><time>2026-03-29T11:07:56.07Z</time></trkpt><trkpt lat="43.1014411" lon="-8.2574248"><ele>420.0</ele><time>2026-03-29T11:07:57.07Z</time></trkpt><trkpt lat="43.1016002" lon="-8.2575083"><ele>418.33333333333337</ele><time>2026-03-29T11:07:58.071Z</time></trkpt><trkpt lat="43.1017652" lon="-8.2575904"><ele>416.6666666666667</ele><time>2026-03-29T11:07:59.07Z</time></trkpt><trkpt lat="43.1019255" lon="-8.2576737"><ele>415.0</ele><time>2026-03-29T11:08:00.071Z</time></trkpt><trkpt lat="43.1020851" lon="-8.2577512"><ele>415.0</ele><time>2026-03-29T11:08:01.07Z</time></trkpt><trkpt lat="43.1022325" lon="-8.2578333"><ele>415.0</ele><time>2026-03-29T11:08:02.071Z</time></trkpt><trkpt lat="43.1023801" lon="-8.257912"><ele>415.0</ele><time>2026-03-29T11:08:03.07Z</time></trkpt><trkpt lat="43.1025244" lon="-8.2579658"><ele>414.75</ele><time>2026-03-29T11:08:04.07Z</time></trkpt><trkpt lat="43.1026644" lon="-8.2579935"><ele>414.5</ele><time>2026-03-29T11:08:05.07Z</time></trkpt><trkpt lat="43.1027967" lon="-8.2579832"><ele>414.25</ele><time>2026-03-29T11:08:06.071Z</time></trkpt><trkpt lat="43.1029261" lon="-8.2579626"><ele>414.0</ele><time>2026-03-29T11:08:07.07Z</time></trkpt><trkpt lat="43.1030231" lon="-8.2578954"><ele>414.0</ele><time>2026-03-29T11:08:08.07Z</time></trkpt><trkpt lat="43.1031104" lon="-8.2577561"><ele>414.0</ele><time>2026-03-29T11:08:09.07Z</time></trkpt><trkpt lat="43.103191" lon="-8.2576516"><ele>414.0</ele><time>2026-03-29T11:08:10.07Z</time></trkpt><trkpt lat="43.1032695" lon="-8.2575826"><ele>414.0</ele><time>2026-03-29T11:08:11.07Z</time></trkpt><trkpt lat="43.1033583" lon="-8.2575459"><ele>414.0</ele><time>2026-03-29T11:08:12.071Z</time></trkpt><trkpt lat="43.1034412" lon="-8.2575352"><ele>411.79999999999995</ele><time>2026-03-29T11:08:13.07Z</time></trkpt><trkpt lat="43.1034671" lon="-8.2576831"><ele>409.59999999999997</ele><time>2026-03-29T11:08:14.07Z</time></trkpt><trkpt lat="43.1034915" lon="-8.2578193"><ele>407.4</ele><time>2026-03-29T11:08:15.07Z</time></trkpt><trkpt lat="43.103509" lon="-8.2579725"><ele>405.2</ele><time>2026-03-29T11:08:16.07Z</time></trkpt><trkpt lat="43.103529" lon="-8.2581255"><ele>403.0</ele><time>2026-03-29T11:08:17.07Z</time></trkpt><trkpt lat="43.1035713" lon="-8.2582584"><ele>401.4</ele><time>2026-03-29T11:08:18.07Z</time></trkpt><trkpt lat="43.1036351" lon="-8.2583678"><ele>399.79999999999995</ele><time>2026-03-29T11:08:19.07Z</time></trkpt><trkpt lat="43.1037218" lon="-8.2584518"><ele>398.2</ele><time>2026-03-29T11:08:20.071Z</time></trkpt><trkpt lat="43.1038041" lon="-8.2585379"><ele>396.6</ele><time>2026-03-29T11:08:21.07Z</time></trkpt><trkpt lat="43.103868" lon="-8.2586545"><ele>395.0</ele><time>2026-03-29T11:08:22.07Z</time></trkpt><trkpt lat="43.1039096" lon="-8.2588046"><ele>394.25</ele><time>2026-03-29T11:08:23.07Z</time></trkpt><trkpt lat="43.1039254" lon="-8.2589778"><ele>393.5</ele><time>2026-03-29T11:08:24.071Z</time></trkpt><trkpt lat="43.1039319" lon="-8.2591602"><ele>392.75</ele><time>2026-03-29T11:08:25.07Z</time></trkpt><trkpt lat="43.1039606" lon="-8.2593508"><ele>392.0</ele><time>2026-03-29T11:08:26.07Z</time></trkpt><trkpt lat="43.1040175" lon="-8.2595332"><ele>391.25</ele><time>2026-03-29T11:08:27.07Z</time></trkpt><trkpt lat="43.1040964" lon="-8.2596989"><ele>390.5</ele><time>2026-03-29T11:08:28.07Z</time></trkpt><trkpt lat="43.1041786" lon="-8.2598562"><ele>389.75</ele><time>2026-03-29T11:08:29.07Z</time></trkpt><trkpt lat="43.1042443" lon="-8.2600252"><ele>389.0</ele><time>2026-03-29T11:08:30.071Z</time></trkpt><trkpt lat="43.1042888" lon="-8.2602093"><ele>388.0</ele><time>2026-03-29T11:08:31.071Z</time></trkpt><trkpt lat="43.1043224" lon="-8.2604058"><ele>387.0</ele><time>2026-03-29T11:08:32.07Z</time></trkpt><trkpt lat="43.1043503" lon="-8.260604"><ele>386.0</ele><time>2026-03-29T11:08:33.07Z</time></trkpt><trkpt lat="43.1043767" lon="-8.260806"><ele>385.0</ele><time>2026-03-29T11:08:34.07Z</time></trkpt><trkpt lat="43.1044045" lon="-8.2610102"><ele>384.33333333333337</ele><time>2026-03-29T11:08:35.07Z</time></trkpt><trkpt lat="43.1044292" lon="-8.2612159"><ele>383.6666666666667</ele><time>2026-03-29T11:08:36.07Z</time></trkpt><trkpt lat="43.1044459" lon="-8.2614218"><ele>383.0</ele><time>2026-03-29T11:08:37.07Z</time></trkpt><trkpt lat="43.1044435" lon="-8.2616283"><ele>382.5</ele><time>2026-03-29T11:08:38.071Z</time></trkpt><trkpt lat="43.1044297" lon="-8.2618321"><ele>382.0</ele><time>2026-03-29T11:08:39.07Z</time></trkpt><trkpt lat="43.1044329" lon="-8.2620282"><ele>381.5</ele><time>2026-03-29T11:08:40.07Z</time></trkpt><trkpt lat="43.1044857" lon="-8.2622157"><ele>381.0</ele><time>2026-03-29T11:08:41.071Z</time></trkpt><trkpt lat="43.1045686" lon="-8.2623789"><ele>380.3333333333333</ele><time>2026-03-29T11:08:42.071Z</time></trkpt><trkpt lat="43.1046687" lon="-8.2625321"><ele>379.66666666666663</ele><time>2026-03-29T11:08:43.071Z</time></trkpt><trkpt lat="43.1047661" lon="-8.2627153"><ele>379.0</ele><time>2026-03-29T11:08:44.07Z</time></trkpt><trkpt lat="43.1048493" lon="-8.2629149"><ele>379.66666666666663</ele><time>2026-03-29T11:08:45.071Z</time></trkpt><trkpt lat="43.1049052" lon="-8.2631265"><ele>380.3333333333333</ele><time>2026-03-29T11:08:46.071Z</time></trkpt><trkpt lat="43.1049637" lon="-8.2633324"><ele>381.0</ele><time>2026-03-29T11:08:47.071Z</time></trkpt><trkpt lat="43.1050353" lon="-8.2635224"><ele>378.0</ele><time>2026-03-29T11:08:48.07Z</time></trkpt><trkpt lat="43.1051179" lon="-8.2636904"><ele>375.0</ele><time>2026-03-29T11:08:49.07Z</time></trkpt><trkpt lat="43.105203" lon="-8.26384"><ele>372.0</ele><time>2026-03-29T11:08:50.07Z</time></trkpt><trkpt lat="43.1052935" lon="-8.2639995"><ele>369.0</ele><time>2026-03-29T11:08:51.07Z</time></trkpt><trkpt lat="43.1053791" lon="-8.2641455"><ele>369.0</ele><time>2026-03-29T11:08:52.07Z</time></trkpt><trkpt lat="43.1054724" lon="-8.2643027"><ele>369.0</ele><time>2026-03-29T11:08:53.071Z</time></trkpt><trkpt lat="43.1055782" lon="-8.2644517"><ele>369.0</ele><time>2026-03-29T11:08:54.07Z</time></trkpt><trkpt lat="43.1056904" lon="-8.2645927"><ele>366.0</ele><time>2026-03-29T11:08:55.07Z</time></trkpt><trkpt lat="43.1058068" lon="-8.2647261"><ele>363.0</ele><time>2026-03-29T11:08:56.071Z</time></trkpt><trkpt lat="43.1059255" lon="-8.2648511"><ele>360.0</ele><time>2026-03-29T11:08:57.071Z</time></trkpt><trkpt lat="43.1060489" lon="-8.2649655"><ele>359.75</ele><time>2026-03-29T11:08:58.07Z</time></trkpt><trkpt lat="43.1061764" lon="-8.2650594"><ele>359.5</ele><time>2026-03-29T11:08:59.071Z</time></trkpt><trkpt lat="43.1063014" lon="-8.2651448"><ele>359.25</ele><time>2026-03-29T11:09:00.07Z</time></trkpt><trkpt lat="43.1064143" lon="-8.265249"><ele>359.0</ele><time>2026-03-29T11:09:01.07Z</time></trkpt><trkpt lat="43.106492" lon="-8.2653916"><ele>359.0</ele><time>2026-03-29T11:09:02.07Z</time></trkpt><trkpt lat="43.1065338" lon="-8.2655632"><ele>359.0</ele><time>2026-03-29T11:09:03.07Z</time></trkpt><trkpt lat="43.106567" lon="-8.2657424"><ele>359.0</ele><time>2026-03-29T11:09:04.07Z</time></trkpt><trkpt lat="43.106626" lon="-8.2658985"><ele>359.0</ele><time>2026-03-29T11:09:05.07Z</time></trkpt><trkpt lat="43.1067178" lon="-8.2660129"><ele>355.5</ele><time>2026-03-29T11:09:06.07Z</time></trkpt><trkpt lat="43.1068344" lon="-8.2660742"><ele>352.0</ele><time>2026-03-29T11:09:07.07Z</time></trkpt><trkpt lat="43.1069642" lon="-8.2661117"><ele>348.5</ele><time>2026-03-29T11:09:08.071Z</time></trkpt><trkpt lat="43.1071092" lon="-8.2661235"><ele>345.0</ele><time>2026-03-29T11:09:09.07Z</time></trkpt><trkpt lat="43.1072535" lon="-8.2661321"><ele>345.0</ele><time>2026-03-29T11:09:10.071Z</time></trkpt><trkpt lat="43.1074048" lon="-8.2661677"><ele>345.0</ele><time>2026-03-29T11:09:11.071Z</time></trkpt><trkpt lat="43.1075518" lon="-8.2661896"><ele>345.0</ele><time>2026-03-29T11:09:12.071Z</time></trkpt><trkpt lat="43.1076943" lon="-8.2662806"><ele>343.25</ele><time>2026-03-29T11:09:13.07Z</time></trkpt><trkpt lat="43.1078292" lon="-8.266349"><ele>341.5</ele><time>2026-03-29T11:09:14.071Z</time></trkpt><trkpt lat="43.107955" lon="-8.2664276"><ele>339.75</ele><time>2026-03-29T11:09:15.071Z</time></trkpt><trkpt lat="43.1080623" lon="-8.2665284"><ele>338.0</ele><time>2026-03-29T11:09:16.07Z</time></trkpt><trkpt lat="43.1081338" lon="-8.2666938"><ele>337.75</ele><time>2026-03-29T11:09:17.07Z</time></trkpt><trkpt lat="43.1081851" lon="-8.266869"><ele>337.5</ele><time>2026-03-29T11:09:18.07Z</time></trkpt><trkpt lat="43.1082174" lon="-8.2670557"><ele>337.25</ele><time>2026-03-29T11:09:19.071Z</time></trkpt><trkpt lat="43.1082507" lon="-8.2672393"><ele>337.0</ele><time>2026-03-29T11:09:20.071Z</time></trkpt><trkpt lat="43.1083012" lon="-8.2674135"><ele>336.0</ele><time>2026-03-29T11:09:21.07Z</time></trkpt><trkpt lat="43.1083617" lon="-8.2675844"><ele>335.0</ele><time>2026-03-29T11:09:22.07Z</time></trkpt><trkpt lat="43.1084359" lon="-8.2677502"><ele>334.0</ele><time>2026-03-29T11:09:23.071Z</time></trkpt><trkpt lat="43.1085161" lon="-8.2679194"><ele>333.0</ele><time>2026-03-29T11:09:24.071Z</time></trkpt><trkpt lat="43.1085989" lon="-8.2680791"><ele>333.75</ele><time>2026-03-29T11:09:25.071Z</time></trkpt><trkpt lat="43.1086879" lon="-8.2682326"><ele>334.5</ele><time>2026-03-29T11:09:26.07Z</time></trkpt><trkpt lat="43.1087846" lon="-8.2683756"><ele>335.25</ele><time>2026-03-29T11:09:27.07Z</time></trkpt><trkpt lat="43.1088896" lon="-8.268507"><ele>336.0</ele><time>2026-03-29T11:09:28.07Z</time></trkpt><trkpt lat="43.1090055" lon="-8.268635"><ele>336.0</ele><time>2026-03-29T11:09:29.07Z</time></trkpt><trkpt lat="43.1091294" lon="-8.2687596"><ele>336.0</ele><time>2026-03-29T11:09:30.07Z</time></trkpt><trkpt lat="43.1092543" lon="-8.2688837"><ele>336.0</ele><time>2026-03-29T11:09:31.07Z</time></trkpt><trkpt lat="43.1093762" lon="-8.2690032"><ele>337.3333333333333</ele><time>2026-03-29T11:09:32.07Z</time></trkpt><trkpt lat="43.1094982" lon="-8.2691235"><ele>338.66666666666663</ele><time>2026-03-29T11:09:33.071Z</time></trkpt><trkpt lat="43.1096168" lon="-8.2692474"><ele>340.0</ele><time>2026-03-29T11:09:34.07Z</time></trkpt><trkpt lat="43.1097446" lon="-8.269358"><ele>340.0</ele><time>2026-03-29T11:09:35.071Z</time></trkpt><trkpt lat="43.1098874" lon="-8.2694284"><ele>340.0</ele><time>2026-03-29T11:09:36.071Z</time></trkpt><trkpt lat="43.1100426" lon="-8.2694423"><ele>340.0</ele><time>2026-03-29T11:09:37.071Z</time></trkpt><trkpt lat="43.1102" lon="-8.2694213"><ele>341.3333333333333</ele><time>2026-03-29T11:09:38.07Z</time></trkpt><trkpt lat="43.1103571" lon="-8.2693833"><ele>342.6666666666667</ele><time>2026-03-29T11:09:39.07Z</time></trkpt><trkpt lat="43.1105145" lon="-8.2693474"><ele>344.0</ele><time>2026-03-29T11:09:40.071Z</time></trkpt><trkpt lat="43.1106748" lon="-8.2693108"><ele>345.6666666666667</ele><time>2026-03-29T11:09:41.07Z</time></trkpt><trkpt lat="43.1108331" lon="-8.2692708"><ele>347.3333333333333</ele><time>2026-03-29T11:09:42.07Z</time></trkpt><trkpt lat="43.1109865" lon="-8.269235"><ele>349.0</ele><time>2026-03-29T11:09:43.07Z</time></trkpt><trkpt lat="43.1111365" lon="-8.2692036"><ele>349.0</ele><time>2026-03-29T11:09:44.07Z</time></trkpt><trkpt lat="43.1112817" lon="-8.2691728"><ele>349.0</ele><time>2026-03-29T11:09:45.07Z</time></trkpt><trkpt lat="43.1114233" lon="-8.2691389"><ele>349.0</ele><time>2026-03-29T11:09:46.071Z</time></trkpt><trkpt lat="43.1115591" lon="-8.2691035"><ele>349.0</ele><time>2026-03-29T11:09:47.071Z</time></trkpt><trkpt lat="43.1116826" lon="-8.2690702"><ele>350.25</ele><time>2026-03-29T11:09:48.071Z</time></trkpt><trkpt lat="43.1118054" lon="-8.2690656"><ele>351.5</ele><time>2026-03-29T11:09:49.071Z</time></trkpt><trkpt lat="43.1119066" lon="-8.2690781"><ele>352.75</ele><time>2026-03-29T11:09:50.07Z</time></trkpt><trkpt lat="43.1120234" lon="-8.2692077"><ele>354.0</ele><time>2026-03-29T11:09:51.07Z</time></trkpt><trkpt lat="43.1121168" lon="-8.2693517"><ele>354.0</ele><time>2026-03-29T11:09:52.07Z</time></trkpt><trkpt lat="43.1121956" lon="-8.2695258"><ele>354.0</ele><time>2026-03-29T11:09:53.071Z</time></trkpt><trkpt lat="43.1122672" lon="-8.2697105"><ele>354.0</ele><time>2026-03-29T11:09:54.07Z</time></trkpt><trkpt lat="43.1123367" lon="-8.2699035"><ele>355.0</ele><time>2026-03-29T11:09:55.071Z</time></trkpt><trkpt lat="43.1124087" lon="-8.270092"><ele>356.0</ele><time>2026-03-29T11:09:56.07Z</time></trkpt><trkpt lat="43.1124945" lon="-8.2702758"><ele>357.0</ele><time>2026-03-29T11:09:57.071Z</time></trkpt><trkpt lat="43.1125797" lon="-8.2704517"><ele>357.0</ele><time>2026-03-29T11:09:58.071Z</time></trkpt><trkpt lat="43.1126788" lon="-8.2706154"><ele>357.0</ele><time>2026-03-29T11:09:59.07Z</time></trkpt><trkpt lat="43.1127936" lon="-8.2707455"><ele>357.0</ele><time>2026-03-29T11:10:00.07Z</time></trkpt><trkpt lat="43.1129172" lon="-8.2708479"><ele>357.0</ele><time>2026-03-29T11:10:01.07Z</time></trkpt><trkpt lat="43.113048" lon="-8.2709306"><ele>357.0</ele><time>2026-03-29T11:10:02.07Z</time></trkpt><trkpt lat="43.113173" lon="-8.2710016"><ele>357.0</ele><time>2026-03-29T11:10:03.07Z</time></trkpt><trkpt lat="43.1132932" lon="-8.2710785"><ele>357.0</ele><time>2026-03-29T11:10:04.07Z</time></trkpt><trkpt lat="43.1133955" lon="-8.2711791"><ele>357.0</ele><time>2026-03-29T11:10:05.07Z</time></trkpt><trkpt lat="43.1134707" lon="-8.2713034"><ele>358.75</ele><time>2026-03-29T11:10:06.071Z</time></trkpt><trkpt lat="43.1135032" lon="-8.2714625"><ele>360.5</ele><time>2026-03-29T11:10:07.07Z</time></trkpt><trkpt lat="43.1135102" lon="-8.2716294"><ele>362.25</ele><time>2026-03-29T11:10:08.07Z</time></trkpt><trkpt lat="43.1135083" lon="-8.2717975"><ele>364.0</ele><time>2026-03-29T11:10:09.07Z</time></trkpt><trkpt lat="43.1135017" lon="-8.2719602"><ele>364.0</ele><time>2026-03-29T11:10:10.071Z</time></trkpt><trkpt lat="43.1134947" lon="-8.2721071"><ele>364.0</ele><time>2026-03-29T11:10:11.07Z</time></trkpt><trkpt lat="43.113483" lon="-8.2722478"><ele>364.0</ele><time>2026-03-29T11:10:12.07Z</time></trkpt><trkpt lat="43.1134731" lon="-8.2723792"><ele>364.0</ele><time>2026-03-29T11:10:13.07Z</time></trkpt><trkpt lat="43.113463" lon="-8.2724948"><ele>364.0</ele><time>2026-03-29T11:10:14.07Z</time></trkpt><trkpt lat="43.1134527" lon="-8.2725942"><ele>364.5</ele><time>2026-03-29T11:10:15.07Z</time></trkpt><trkpt lat="43.1134356" lon="-8.2727425"><ele>365.0</ele><time>2026-03-29T11:10:17.07Z</time></trkpt><trkpt lat="43.1134221" lon="-8.2728465"><ele>365.5</ele><time>2026-03-29T11:10:19.07Z</time></trkpt><trkpt lat="43.1134078" lon="-8.2729866"><ele>366.0</ele><time>2026-03-29T11:10:21.071Z</time></trkpt><trkpt lat="43.1133933" lon="-8.273087"><ele>366.5</ele><time>2026-03-29T11:10:22.071Z</time></trkpt><trkpt lat="43.1133841" lon="-8.2732025"><ele>367.0</ele><time>2026-03-29T11:10:23.071Z</time></trkpt><trkpt lat="43.1133718" lon="-8.273334"><ele>367.40000000000003</ele><time>2026-03-29T11:10:24.07Z</time></trkpt><trkpt lat="43.1133502" lon="-8.2734712"><ele>367.8</ele><time>2026-03-29T11:10:25.071Z</time></trkpt><trkpt lat="43.1133249" lon="-8.2736118"><ele>368.2</ele><time>2026-03-29T11:10:26.07Z</time></trkpt><trkpt lat="43.1132911" lon="-8.2737564"><ele>368.6</ele><time>2026-03-29T11:10:27.071Z</time></trkpt><trkpt lat="43.1132498" lon="-8.2738948"><ele>369.0</ele><time>2026-03-29T11:10:28.071Z</time></trkpt><trkpt lat="43.1132036" lon="-8.2740282"><ele>367.75</ele><time>2026-03-29T11:10:29.07Z</time></trkpt><trkpt lat="43.1131604" lon="-8.2741844"><ele>366.5</ele><time>2026-03-29T11:10:30.07Z</time></trkpt><trkpt lat="43.1131131" lon="-8.2743295"><ele>365.25</ele><time>2026-03-29T11:10:31.07Z</time></trkpt><trkpt lat="43.1130704" lon="-8.2744827"><ele>364.0</ele><time>2026-03-29T11:10:32.07Z</time></trkpt><trkpt lat="43.1130439" lon="-8.2746427"><ele>363.0</ele><time>2026-03-29T11:10:33.07Z</time></trkpt><trkpt lat="43.1130499" lon="-8.2748183"><ele>362.0</ele><time>2026-03-29T11:10:34.07Z</time></trkpt><trkpt lat="43.1130781" lon="-8.2750081"><ele>361.0</ele><time>2026-03-29T11:10:35.07Z</time></trkpt><trkpt lat="43.1131198" lon="-8.2752042"><ele>360.0</ele><time>2026-03-29T11:10:36.071Z</time></trkpt><trkpt lat="43.1131631" lon="-8.2754"><ele>360.0</ele><time>2026-03-29T11:10:37.07Z</time></trkpt><trkpt lat="43.1132043" lon="-8.2755852"><ele>360.0</ele><time>2026-03-29T11:10:38.071Z</time></trkpt><trkpt lat="43.1132414" lon="-8.2757643"><ele>360.0</ele><time>2026-03-29T11:10:39.07Z</time></trkpt><trkpt lat="43.1132832" lon="-8.2759457"><ele>360.0</ele><time>2026-03-29T11:10:40.07Z</time></trkpt><trkpt lat="43.1133232" lon="-8.2761321"><ele>359.3333333333333</ele><time>2026-03-29T11:10:41.071Z</time></trkpt><trkpt lat="43.1133693" lon="-8.2763311"><ele>358.66666666666663</ele><time>2026-03-29T11:10:42.07Z</time></trkpt><trkpt lat="43.1134108" lon="-8.2765359"><ele>358.0</ele><time>2026-03-29T11:10:43.071Z</time></trkpt><trkpt lat="43.1134565" lon="-8.276743"><ele>356.3333333333333</ele><time>2026-03-29T11:10:44.071Z</time></trkpt><trkpt lat="43.1135051" lon="-8.2769572"><ele>354.6666666666667</ele><time>2026-03-29T11:10:45.07Z</time></trkpt><trkpt lat="43.1135505" lon="-8.2771743"><ele>353.0</ele><time>2026-03-29T11:10:46.071Z</time></trkpt><trkpt lat="43.1135995" lon="-8.2773869"><ele>352.0</ele><time>2026-03-29T11:10:47.07Z</time></trkpt><trkpt lat="43.1136443" lon="-8.277593"><ele>351.0</ele><time>2026-03-29T11:10:48.07Z</time></trkpt><trkpt lat="43.1136886" lon="-8.277794"><ele>350.0</ele><time>2026-03-29T11:10:49.07Z</time></trkpt><trkpt lat="43.1137422" lon="-8.2779842"><ele>348.25</ele><time>2026-03-29T11:10:50.07Z</time></trkpt><trkpt lat="43.1138123" lon="-8.2781549"><ele>346.5</ele><time>2026-03-29T11:10:51.07Z</time></trkpt><trkpt lat="43.1139064" lon="-8.2782971"><ele>344.75</ele><time>2026-03-29T11:10:52.07Z</time></trkpt><trkpt lat="43.1140179" lon="-8.2784181"><ele>343.0</ele><time>2026-03-29T11:10:53.07Z</time></trkpt><trkpt lat="43.1141467" lon="-8.2785175"><ele>342.25</ele><time>2026-03-29T11:10:54.07Z</time></trkpt><trkpt lat="43.1142857" lon="-8.2785758"><ele>341.5</ele><time>2026-03-29T11:10:55.07Z</time></trkpt><trkpt lat="43.1144298" lon="-8.2786155"><ele>340.75</ele><time>2026-03-29T11:10:56.071Z</time></trkpt><trkpt lat="43.1145794" lon="-8.2786569"><ele>340.0</ele><time>2026-03-29T11:10:57.07Z</time></trkpt><trkpt lat="43.1147311" lon="-8.2787053"><ele>340.0</ele><time>2026-03-29T11:10:58.071Z</time></trkpt><trkpt lat="43.114888" lon="-8.2787572"><ele>340.0</ele><time>2026-03-29T11:10:59.07Z</time></trkpt><trkpt lat="43.1150465" lon="-8.2788156"><ele>340.0</ele><time>2026-03-29T11:11:00.07Z</time></trkpt><trkpt lat="43.1152043" lon="-8.2788808"><ele>339.3333333333333</ele><time>2026-03-29T11:11:01.07Z</time></trkpt><trkpt lat="43.1153638" lon="-8.2789359"><ele>338.6666666666667</ele><time>2026-03-29T11:11:02.071Z</time></trkpt><trkpt lat="43.1155187" lon="-8.278985"><ele>338.0</ele><time>2026-03-29T11:11:03.07Z</time></trkpt><trkpt lat="43.1156778" lon="-8.2790441"><ele>339.33333333333337</ele><time>2026-03-29T11:11:04.07Z</time></trkpt><trkpt lat="43.1158365" lon="-8.2791048"><ele>340.6666666666667</ele><time>2026-03-29T11:11:05.07Z</time></trkpt><trkpt lat="43.1159942" lon="-8.2791579"><ele>342.0</ele><time>2026-03-29T11:11:06.07Z</time></trkpt><trkpt lat="43.1161484" lon="-8.2792088"><ele>342.0</ele><time>2026-03-29T11:11:07.07Z</time></trkpt><trkpt lat="43.1163064" lon="-8.2792588"><ele>342.0</ele><time>2026-03-29T11:11:08.07Z</time></trkpt><trkpt lat="43.1164681" lon="-8.2793103"><ele>342.0</ele><time>2026-03-29T11:11:09.071Z</time></trkpt><trkpt lat="43.1166307" lon="-8.2793634"><ele>344.0</ele><time>2026-03-29T11:11:10.071Z</time></trkpt><trkpt lat="43.1167944" lon="-8.2794158"><ele>346.0</ele><time>2026-03-29T11:11:11.071Z</time></trkpt><trkpt lat="43.1169594" lon="-8.2794744"><ele>348.0</ele><time>2026-03-29T11:11:12.07Z</time></trkpt><trkpt lat="43.1171176" lon="-8.27956"><ele>348.0</ele><time>2026-03-29T11:11:13.07Z</time></trkpt><trkpt lat="43.1172717" lon="-8.2796638"><ele>348.0</ele><time>2026-03-29T11:11:14.07Z</time></trkpt><trkpt lat="43.1174199" lon="-8.2797855"><ele>348.0</ele><time>2026-03-29T11:11:15.07Z</time></trkpt><trkpt lat="43.1175651" lon="-8.2799094"><ele>349.3333333333333</ele><time>2026-03-29T11:11:16.071Z</time></trkpt><trkpt lat="43.1177147" lon="-8.2800368"><ele>350.66666666666663</ele><time>2026-03-29T11:11:17.07Z</time></trkpt><trkpt lat="43.1178625" lon="-8.2801635"><ele>352.0</ele><time>2026-03-29T11:11:18.07Z</time></trkpt><trkpt lat="43.1180151" lon="-8.2802863"><ele>352.0</ele><time>2026-03-29T11:11:19.071Z</time></trkpt><trkpt lat="43.1181651" lon="-8.2804128"><ele>352.0</ele><time>2026-03-29T11:11:20.071Z</time></trkpt><trkpt lat="43.1183104" lon="-8.2805412"><ele>352.0</ele><time>2026-03-29T11:11:21.07Z</time></trkpt><trkpt lat="43.118453" lon="-8.2806834"><ele>354.3333333333333</ele><time>2026-03-29T11:11:22.07Z</time></trkpt><trkpt lat="43.1185847" lon="-8.2808451"><ele>356.6666666666667</ele><time>2026-03-29T11:11:23.07Z</time></trkpt><trkpt lat="43.1187038" lon="-8.2810145"><ele>359.0</ele><time>2026-03-29T11:11:24.07Z</time></trkpt><trkpt lat="43.118822" lon="-8.2811892"><ele>359.0</ele><time>2026-03-29T11:11:25.07Z</time></trkpt><trkpt lat="43.1189419" lon="-8.2813503"><ele>359.0</ele><time>2026-03-29T11:11:26.07Z</time></trkpt><trkpt lat="43.1190632" lon="-8.2815138"><ele>359.0</ele><time>2026-03-29T11:11:27.07Z</time></trkpt><trkpt lat="43.119181" lon="-8.2816744"><ele>362.0</ele><time>2026-03-29T11:11:28.071Z</time></trkpt><trkpt lat="43.119297" lon="-8.2818283"><ele>365.0</ele><time>2026-03-29T11:11:29.07Z</time></trkpt><trkpt lat="43.1193964" lon="-8.2819949"><ele>368.0</ele><time>2026-03-29T11:11:30.07Z</time></trkpt><trkpt lat="43.1194541" lon="-8.2821987"><ele>369.0</ele><time>2026-03-29T11:11:31.071Z</time></trkpt><trkpt lat="43.1194705" lon="-8.2824136"><ele>370.0</ele><time>2026-03-29T11:11:32.071Z</time></trkpt><trkpt lat="43.119454" lon="-8.2826284"><ele>371.0</ele><time>2026-03-29T11:11:33.07Z</time></trkpt><trkpt lat="43.119409" lon="-8.2828421"><ele>371.0</ele><time>2026-03-29T11:11:34.07Z</time></trkpt><trkpt lat="43.1193646" lon="-8.2830633"><ele>371.0</ele><time>2026-03-29T11:11:35.07Z</time></trkpt><trkpt lat="43.1193206" lon="-8.2832944"><ele>371.0</ele><time>2026-03-29T11:11:36.07Z</time></trkpt><trkpt lat="43.119282" lon="-8.2835384"><ele>371.0</ele><time>2026-03-29T11:11:37.07Z</time></trkpt><trkpt lat="43.1192441" lon="-8.2837793"><ele>371.0</ele><time>2026-03-29T11:11:38.07Z</time></trkpt><trkpt lat="43.1192191" lon="-8.2840305"><ele>371.0</ele><time>2026-03-29T11:11:39.071Z</time></trkpt><trkpt lat="43.1192003" lon="-8.2842781"><ele>371.0</ele><time>2026-03-29T11:11:40.07Z</time></trkpt><trkpt lat="43.1191924" lon="-8.284531"><ele>371.0</ele><time>2026-03-29T11:11:41.071Z</time></trkpt><trkpt lat="43.1191946" lon="-8.2847874"><ele>371.0</ele><time>2026-03-29T11:11:42.071Z</time></trkpt><trkpt lat="43.1192063" lon="-8.2850392"><ele>371.6666666666667</ele><time>2026-03-29T11:11:43.071Z</time></trkpt><trkpt lat="43.1192312" lon="-8.2852797"><ele>372.3333333333333</ele><time>2026-03-29T11:11:44.07Z</time></trkpt><trkpt lat="43.1192715" lon="-8.285502"><ele>373.0</ele><time>2026-03-29T11:11:45.07Z</time></trkpt><trkpt lat="43.1193429" lon="-8.2857001"><ele>374.5</ele><time>2026-03-29T11:11:46.07Z</time></trkpt><trkpt lat="43.1194386" lon="-8.2858657"><ele>376.0</ele><time>2026-03-29T11:11:47.071Z</time></trkpt><trkpt lat="43.1195559" lon="-8.285991"><ele>377.5</ele><time>2026-03-29T11:11:48.07Z</time></trkpt><trkpt lat="43.1196904" lon="-8.2860552"><ele>379.0</ele><time>2026-03-29T11:11:49.07Z</time></trkpt><trkpt lat="43.1198292" lon="-8.2860476"><ele>379.5</ele><time>2026-03-29T11:11:50.071Z</time></trkpt><trkpt lat="43.1199582" lon="-8.2859717"><ele>380.0</ele><time>2026-03-29T11:11:51.071Z</time></trkpt><trkpt lat="43.1200726" lon="-8.2858509"><ele>380.5</ele><time>2026-03-29T11:11:52.07Z</time></trkpt><trkpt lat="43.1201694" lon="-8.2856963"><ele>381.0</ele><time>2026-03-29T11:11:53.071Z</time></trkpt><trkpt lat="43.1202605" lon="-8.2855186"><ele>381.0</ele><time>2026-03-29T11:11:54.07Z</time></trkpt><trkpt lat="43.1203545" lon="-8.285343"><ele>381.0</ele><time>2026-03-29T11:11:55.07Z</time></trkpt><trkpt lat="43.1204592" lon="-8.2851822"><ele>381.0</ele><time>2026-03-29T11:11:56.071Z</time></trkpt><trkpt lat="43.1205922" lon="-8.2850479"><ele>383.66666666666663</ele><time>2026-03-29T11:11:57.07Z</time></trkpt><trkpt lat="43.1207384" lon="-8.2849265"><ele>386.3333333333333</ele><time>2026-03-29T11:11:58.07Z</time></trkpt><trkpt lat="43.1208832" lon="-8.2848094"><ele>389.0</ele><time>2026-03-29T11:11:59.07Z</time></trkpt><trkpt lat="43.1210276" lon="-8.2846951"><ele>389.0</ele><time>2026-03-29T11:12:00.071Z</time></trkpt><trkpt lat="43.1211782" lon="-8.2846047"><ele>389.0</ele><time>2026-03-29T11:12:01.071Z</time></trkpt><trkpt lat="43.1213364" lon="-8.2845583"><ele>389.0</ele><time>2026-03-29T11:12:02.071Z</time></trkpt><trkpt lat="43.1214989" lon="-8.2845622"><ele>392.0</ele><time>2026-03-29T11:12:03.071Z</time></trkpt><trkpt lat="43.121661" lon="-8.2845862"><ele>395.0</ele><time>2026-03-29T11:12:04.07Z</time></trkpt><trkpt lat="43.1218233" lon="-8.2846094"><ele>398.0</ele><time>2026-03-29T11:12:05.07Z</time></trkpt><trkpt lat="43.1219904" lon="-8.2846279"><ele>398.0</ele><time>2026-03-29T11:12:06.07Z</time></trkpt><trkpt lat="43.1221561" lon="-8.2846422"><ele>398.0</ele><time>2026-03-29T11:12:07.071Z</time></trkpt><trkpt lat="43.122324" lon="-8.2846539"><ele>398.0</ele><time>2026-03-29T11:12:08.07Z</time></trkpt><trkpt lat="43.1224977" lon="-8.2846697"><ele>398.66666666666663</ele><time>2026-03-29T11:12:09.071Z</time></trkpt><trkpt lat="43.122672" lon="-8.2846817"><ele>399.33333333333337</ele><time>2026-03-29T11:12:10.071Z</time></trkpt><trkpt lat="43.1228526" lon="-8.28469"><ele>400.0</ele><time>2026-03-29T11:12:11.07Z</time></trkpt><trkpt lat="43.1230377" lon="-8.2846849"><ele>400.0</ele><time>2026-03-29T11:12:12.07Z</time></trkpt><trkpt lat="43.1232307" lon="-8.284674"><ele>400.0</ele><time>2026-03-29T11:12:13.07Z</time></trkpt><trkpt lat="43.123426" lon="-8.2846614"><ele>400.0</ele><time>2026-03-29T11:12:14.071Z</time></trkpt><trkpt lat="43.1236261" lon="-8.2846531"><ele>400.0</ele><time>2026-03-29T11:12:15.071Z</time></trkpt><trkpt lat="43.1238278" lon="-8.2846613"><ele>400.0</ele><time>2026-03-29T11:12:16.07Z</time></trkpt><trkpt lat="43.1240281" lon="-8.2846855"><ele>400.0</ele><time>2026-03-29T11:12:17.07Z</time></trkpt><trkpt lat="43.1242236" lon="-8.2847356"><ele>399.0</ele><time>2026-03-29T11:12:18.07Z</time></trkpt><trkpt lat="43.1244126" lon="-8.2848142"><ele>398.0</ele><time>2026-03-29T11:12:19.07Z</time></trkpt><trkpt lat="43.1245987" lon="-8.2849239"><ele>397.0</ele><time>2026-03-29T11:12:20.071Z</time></trkpt><trkpt lat="43.1247801" lon="-8.2850535"><ele>395.6666666666667</ele><time>2026-03-29T11:12:21.071Z</time></trkpt><trkpt lat="43.1249612" lon="-8.2851963"><ele>394.33333333333337</ele><time>2026-03-29T11:12:22.071Z</time></trkpt><trkpt lat="43.1251393" lon="-8.2853436"><ele>393.0</ele><time>2026-03-29T11:12:23.07Z</time></trkpt><trkpt lat="43.1253136" lon="-8.2854918"><ele>392.66666666666663</ele><time>2026-03-29T11:12:24.07Z</time></trkpt><trkpt lat="43.1254833" lon="-8.2856421"><ele>392.3333333333333</ele><time>2026-03-29T11:12:25.07Z</time></trkpt><trkpt lat="43.1256461" lon="-8.2857771"><ele>392.0</ele><time>2026-03-29T11:12:26.07Z</time></trkpt><trkpt lat="43.1258067" lon="-8.2859045"><ele>392.0</ele><time>2026-03-29T11:12:27.071Z</time></trkpt><trkpt lat="43.1259606" lon="-8.2860232"><ele>392.0</ele><time>2026-03-29T11:12:28.07Z</time></trkpt><trkpt lat="43.1261106" lon="-8.2861461"><ele>392.0</ele><time>2026-03-29T11:12:29.07Z</time></trkpt><trkpt lat="43.1262559" lon="-8.2862711"><ele>392.0</ele><time>2026-03-29T11:12:30.071Z</time></trkpt><trkpt lat="43.1263874" lon="-8.2864169"><ele>392.0</ele><time>2026-03-29T11:12:31.07Z</time></trkpt><trkpt lat="43.1264989" lon="-8.2865922"><ele>392.0</ele><time>2026-03-29T11:12:32.07Z</time></trkpt><trkpt lat="43.1265879" lon="-8.2867909"><ele>392.66666666666663</ele><time>2026-03-29T11:12:33.07Z</time></trkpt><trkpt lat="43.1266526" lon="-8.2870037"><ele>393.33333333333337</ele><time>2026-03-29T11:12:34.07Z</time></trkpt><trkpt lat="43.1266975" lon="-8.2872288"><ele>394.0</ele><time>2026-03-29T11:12:35.07Z</time></trkpt><trkpt lat="43.1267289" lon="-8.2874572"><ele>394.0</ele><time>2026-03-29T11:12:36.071Z</time></trkpt><trkpt lat="43.1267592" lon="-8.2876649"><ele>394.0</ele><time>2026-03-29T11:12:37.07Z</time></trkpt><trkpt lat="43.1268104" lon="-8.287856"><ele>394.0</ele><time>2026-03-29T11:12:38.07Z</time></trkpt><trkpt lat="43.1268866" lon="-8.2880099"><ele>394.0</ele><time>2026-03-29T11:12:39.07Z</time></trkpt><trkpt lat="43.1269936" lon="-8.2881193"><ele>393.75</ele><time>2026-03-29T11:12:40.07Z</time></trkpt><trkpt lat="43.1271178" lon="-8.2881945"><ele>393.5</ele><time>2026-03-29T11:12:41.07Z</time></trkpt><trkpt lat="43.1272551" lon="-8.2882494"><ele>393.25</ele><time>2026-03-29T11:12:42.07Z</time></trkpt><trkpt lat="43.1274019" lon="-8.2883004"><ele>393.0</ele><time>2026-03-29T11:12:43.07Z</time></trkpt><trkpt lat="43.1275504" lon="-8.2883577"><ele>393.0</ele><time>2026-03-29T11:12:44.071Z</time></trkpt><trkpt lat="43.1277005" lon="-8.288442"><ele>393.0</ele><time>2026-03-29T11:12:45.07Z</time></trkpt><trkpt lat="43.1278494" lon="-8.2885515"><ele>393.0</ele><time>2026-03-29T11:12:46.07Z</time></trkpt><trkpt lat="43.1279684" lon="-8.2887271"><ele>393.0</ele><time>2026-03-29T11:12:47.07Z</time></trkpt><trkpt lat="43.1280775" lon="-8.2889198"><ele>393.0</ele><time>2026-03-29T11:12:48.07Z</time></trkpt><trkpt lat="43.1281732" lon="-8.2891124"><ele>393.0</ele><time>2026-03-29T11:12:49.07Z</time></trkpt><trkpt lat="43.1282423" lon="-8.2893183"><ele>390.33333333333337</ele><time>2026-03-29T11:12:50.071Z</time></trkpt><trkpt lat="43.1282835" lon="-8.2895288"><ele>387.6666666666667</ele><time>2026-03-29T11:12:51.071Z</time></trkpt><trkpt lat="43.1283057" lon="-8.2897502"><ele>385.0</ele><time>2026-03-29T11:12:52.071Z</time></trkpt><trkpt lat="43.1283155" lon="-8.2899795"><ele>383.6666666666667</ele><time>2026-03-29T11:12:53.07Z</time></trkpt><trkpt lat="43.1283268" lon="-8.2902167"><ele>382.33333333333337</ele><time>2026-03-29T11:12:54.07Z</time></trkpt><trkpt lat="43.1283461" lon="-8.2904496"><ele>381.0</ele><time>2026-03-29T11:12:55.07Z</time></trkpt><trkpt lat="43.1283918" lon="-8.2906793"><ele>379.0</ele><time>2026-03-29T11:12:56.07Z</time></trkpt><trkpt lat="43.128457" lon="-8.2908905"><ele>377.0</ele><time>2026-03-29T11:12:57.07Z</time></trkpt><trkpt lat="43.1285372" lon="-8.2910999"><ele>375.0</ele><time>2026-03-29T11:12:58.07Z</time></trkpt><trkpt lat="43.1286225" lon="-8.2913033"><ele>373.3333333333333</ele><time>2026-03-29T11:12:59.07Z</time></trkpt><trkpt lat="43.1287051" lon="-8.2915013"><ele>371.66666666666663</ele><time>2026-03-29T11:13:00.07Z</time></trkpt><trkpt lat="43.1287871" lon="-8.291705"><ele>370.0</ele><time>2026-03-29T11:13:01.07Z</time></trkpt><trkpt lat="43.1288698" lon="-8.2919103"><ele>370.0</ele><time>2026-03-29T11:13:02.07Z</time></trkpt><trkpt lat="43.128956" lon="-8.2921187"><ele>370.0</ele><time>2026-03-29T11:13:03.071Z</time></trkpt><trkpt lat="43.1290412" lon="-8.2923301"><ele>370.0</ele><time>2026-03-29T11:13:04.071Z</time></trkpt><trkpt lat="43.1291248" lon="-8.2925404"><ele>368.66666666666663</ele><time>2026-03-29T11:13:05.071Z</time></trkpt><trkpt lat="43.1292154" lon="-8.2927569"><ele>367.3333333333333</ele><time>2026-03-29T11:13:06.071Z</time></trkpt><trkpt lat="43.1293025" lon="-8.2929717"><ele>366.0</ele><time>2026-03-29T11:13:07.071Z</time></trkpt><trkpt lat="43.1293891" lon="-8.2931866"><ele>364.6666666666667</ele><time>2026-03-29T11:13:08.071Z</time></trkpt><trkpt lat="43.1294814" lon="-8.2934027"><ele>363.33333333333337</ele><time>2026-03-29T11:13:09.07Z</time></trkpt><trkpt lat="43.1295662" lon="-8.2936222"><ele>362.0</ele><time>2026-03-29T11:13:10.071Z</time></trkpt><trkpt lat="43.1296557" lon="-8.2938347"><ele>362.0</ele><time>2026-03-29T11:13:11.07Z</time></trkpt><trkpt lat="43.129743" lon="-8.294042"><ele>362.0</ele><time>2026-03-29T11:13:12.07Z</time></trkpt><trkpt lat="43.1298302" lon="-8.294232"><ele>362.0</ele><time>2026-03-29T11:13:13.071Z</time></trkpt><trkpt lat="43.1299191" lon="-8.2944047"><ele>362.0</ele><time>2026-03-29T11:13:14.07Z</time></trkpt><trkpt lat="43.1300124" lon="-8.2945589"><ele>362.0</ele><time>2026-03-29T11:13:15.07Z</time></trkpt><trkpt lat="43.1301052" lon="-8.2947054"><ele>362.0</ele><time>2026-03-29T11:13:16.07Z</time></trkpt><trkpt lat="43.1301948" lon="-8.2948432"><ele>362.0</ele><time>2026-03-29T11:13:17.071Z</time></trkpt><trkpt lat="43.1302788" lon="-8.2949675"><ele>362.0</ele><time>2026-03-29T11:13:18.07Z</time></trkpt><trkpt lat="43.1303599" lon="-8.2950824"><ele>362.0</ele><time>2026-03-29T11:13:19.071Z</time></trkpt><trkpt lat="43.1304346" lon="-8.2951927"><ele>362.0</ele><time>2026-03-29T11:13:20.071Z</time></trkpt><trkpt lat="43.1305046" lon="-8.2952914"><ele>362.0</ele><time>2026-03-29T11:13:21.07Z</time></trkpt><trkpt lat="43.1305731" lon="-8.2953904"><ele>362.0</ele><time>2026-03-29T11:13:22.071Z</time></trkpt><trkpt lat="43.130636" lon="-8.2954859"><ele>362.0</ele><time>2026-03-29T11:13:23.071Z</time></trkpt><trkpt lat="43.1306982" lon="-8.2955799"><ele>362.0</ele><time>2026-03-29T11:13:24.071Z</time></trkpt><trkpt lat="43.1307635" lon="-8.29568"><ele>362.0</ele><time>2026-03-29T11:13:25.07Z</time></trkpt><trkpt lat="43.1308308" lon="-8.2957769"><ele>362.0</ele><time>2026-03-29T11:13:26.071Z</time></trkpt><trkpt lat="43.1309062" lon="-8.2958856"><ele>362.0</ele><time>2026-03-29T11:13:27.07Z</time></trkpt><trkpt lat="43.1309868" lon="-8.2960004"><ele>361.75</ele><time>2026-03-29T11:13:28.071Z</time></trkpt><trkpt lat="43.1310719" lon="-8.2961227"><ele>361.5</ele><time>2026-03-29T11:13:29.07Z</time></trkpt><trkpt lat="43.1311631" lon="-8.2962522"><ele>361.25</ele><time>2026-03-29T11:13:30.07Z</time></trkpt><trkpt lat="43.1312589" lon="-8.2963913"><ele>361.0</ele><time>2026-03-29T11:13:31.07Z</time></trkpt><trkpt lat="43.1313583" lon="-8.2965369"><ele>361.25</ele><time>2026-03-29T11:13:32.07Z</time></trkpt><trkpt lat="43.1314604" lon="-8.2966862"><ele>361.5</ele><time>2026-03-29T11:13:33.07Z</time></trkpt><trkpt lat="43.1315575" lon="-8.2968266"><ele>361.75</ele><time>2026-03-29T11:13:34.07Z</time></trkpt><trkpt lat="43.1316524" lon="-8.2969665"><ele>362.0</ele><time>2026-03-29T11:13:35.07Z</time></trkpt><trkpt lat="43.1317468" lon="-8.2971034"><ele>362.0</ele><time>2026-03-29T11:13:36.071Z</time></trkpt><trkpt lat="43.1318413" lon="-8.2972417"><ele>362.0</ele><time>2026-03-29T11:13:37.07Z</time></trkpt><trkpt lat="43.1319372" lon="-8.2973845"><ele>362.0</ele><time>2026-03-29T11:13:38.07Z</time></trkpt><trkpt lat="43.1320342" lon="-8.2975208"><ele>362.0</ele><time>2026-03-29T11:13:39.07Z</time></trkpt><trkpt lat="43.1321263" lon="-8.2976593"><ele>362.0</ele><time>2026-03-29T11:13:40.07Z</time></trkpt><trkpt lat="43.1322227" lon="-8.2977972"><ele>362.0</ele><time>2026-03-29T11:13:41.071Z</time></trkpt><trkpt lat="43.1323181" lon="-8.2979307"><ele>362.0</ele><time>2026-03-29T11:13:42.071Z</time></trkpt><trkpt lat="43.1324144" lon="-8.2980665"><ele>362.0</ele><time>2026-03-29T11:13:43.07Z</time></trkpt><trkpt lat="43.1325043" lon="-8.2982038"><ele>362.25</ele><time>2026-03-29T11:13:44.07Z</time></trkpt><trkpt lat="43.1325907" lon="-8.2983477"><ele>362.5</ele><time>2026-03-29T11:13:45.07Z</time></trkpt><trkpt lat="43.1326721" lon="-8.2985038"><ele>362.75</ele><time>2026-03-29T11:13:46.07Z</time></trkpt><trkpt lat="43.1327459" lon="-8.2986666"><ele>363.0</ele><time>2026-03-29T11:13:47.07Z</time></trkpt><trkpt lat="43.1328187" lon="-8.2988341"><ele>362.5</ele><time>2026-03-29T11:13:48.07Z</time></trkpt><trkpt lat="43.1329003" lon="-8.2990002"><ele>362.0</ele><time>2026-03-29T11:13:49.07Z</time></trkpt><trkpt lat="43.1329894" lon="-8.2991587"><ele>361.5</ele><time>2026-03-29T11:13:50.071Z</time></trkpt><trkpt lat="43.1330851" lon="-8.299308"><ele>361.0</ele><time>2026-03-29T11:13:51.07Z</time></trkpt><trkpt lat="43.1331853" lon="-8.2994536"><ele>361.25</ele><time>2026-03-29T11:13:52.071Z</time></trkpt><trkpt lat="43.1332845" lon="-8.2995988"><ele>361.5</ele><time>2026-03-29T11:13:53.07Z</time></trkpt><trkpt lat="43.1333771" lon="-8.2997408"><ele>361.75</ele><time>2026-03-29T11:13:54.071Z</time></trkpt><trkpt lat="43.1334735" lon="-8.2998811"><ele>362.0</ele><time>2026-03-29T11:13:55.071Z</time></trkpt><trkpt lat="43.133573" lon="-8.3000286"><ele>362.0</ele><time>2026-03-29T11:13:56.07Z</time></trkpt><trkpt lat="43.133661" lon="-8.3001646"><ele>362.0</ele><time>2026-03-29T11:13:57.07Z</time></trkpt><trkpt lat="43.1337513" lon="-8.3002928"><ele>362.0</ele><time>2026-03-29T11:13:58.07Z</time></trkpt><trkpt lat="43.1338417" lon="-8.3004211"><ele>362.0</ele><time>2026-03-29T11:13:59.071Z</time></trkpt><trkpt lat="43.1339365" lon="-8.3005456"><ele>362.0</ele><time>2026-03-29T11:14:00.071Z</time></trkpt><trkpt lat="43.1340378" lon="-8.3006607"><ele>362.0</ele><time>2026-03-29T11:14:01.071Z</time></trkpt><trkpt lat="43.1341305" lon="-8.3007588"><ele>362.0</ele><time>2026-03-29T11:14:02.071Z</time></trkpt><trkpt lat="43.1342116" lon="-8.3008461"><ele>362.0</ele><time>2026-03-29T11:14:03.07Z</time></trkpt><trkpt lat="43.1342871" lon="-8.300927"><ele>362.0</ele><time>2026-03-29T11:14:04.071Z</time></trkpt><trkpt lat="43.1343532" lon="-8.3009855"><ele>362.5</ele><time>2026-03-29T11:14:05.07Z</time></trkpt><trkpt lat="43.1344168" lon="-8.3010109"><ele>363.0</ele><time>2026-03-29T11:14:06.07Z</time></trkpt><trkpt lat="43.1345382" lon="-8.3009729"><ele>363.5</ele><time>2026-03-29T11:14:08.07Z</time></trkpt><trkpt lat="43.1346004" lon="-8.300926"><ele>364.0</ele><time>2026-03-29T11:14:09.071Z</time></trkpt><trkpt lat="43.1346611" lon="-8.3008855"><ele>364.5</ele><time>2026-03-29T11:14:10.07Z</time></trkpt><trkpt lat="43.1347437" lon="-8.3008274"><ele>365.0</ele><time>2026-03-29T11:14:11.07Z</time></trkpt><trkpt lat="43.1348287" lon="-8.3007605"><ele>365.0</ele><time>2026-03-29T11:14:12.071Z</time></trkpt><trkpt lat="43.1349231" lon="-8.3006929"><ele>365.0</ele><time>2026-03-29T11:14:13.071Z</time></trkpt><trkpt lat="43.1350223" lon="-8.3006177"><ele>365.0</ele><time>2026-03-29T11:14:14.07Z</time></trkpt><trkpt lat="43.1351275" lon="-8.3005432"><ele>365.0</ele><time>2026-03-29T11:14:15.071Z</time></trkpt><trkpt lat="43.1352315" lon="-8.3004602"><ele>365.0</ele><time>2026-03-29T11:14:16.07Z</time></trkpt><trkpt lat="43.1353308" lon="-8.3003759"><ele>365.0</ele><time>2026-03-29T11:14:17.071Z</time></trkpt><trkpt lat="43.1354359" lon="-8.3002972"><ele>365.0</ele><time>2026-03-29T11:14:18.071Z</time></trkpt><trkpt lat="43.1355358" lon="-8.3002156"><ele>365.0</ele><time>2026-03-29T11:14:19.07Z</time></trkpt><trkpt lat="43.1356438" lon="-8.3001391"><ele>366.5</ele><time>2026-03-29T11:14:20.071Z</time></trkpt><trkpt lat="43.1357534" lon="-8.3000638"><ele>368.0</ele><time>2026-03-29T11:14:21.07Z</time></trkpt><trkpt lat="43.1358632" lon="-8.299987"><ele>369.5</ele><time>2026-03-29T11:14:22.07Z</time></trkpt><trkpt lat="43.1359681" lon="-8.2999071"><ele>371.0</ele><time>2026-03-29T11:14:23.07Z</time></trkpt><trkpt lat="43.1360704" lon="-8.2998331"><ele>371.0</ele><time>2026-03-29T11:14:24.071Z</time></trkpt><trkpt lat="43.1361721" lon="-8.2997567"><ele>371.0</ele><time>2026-03-29T11:14:25.07Z</time></trkpt><trkpt lat="43.136279" lon="-8.2996778"><ele>371.0</ele><time>2026-03-29T11:14:26.07Z</time></trkpt><trkpt lat="43.1363898" lon="-8.2996024"><ele>371.0</ele><time>2026-03-29T11:14:27.071Z</time></trkpt><trkpt lat="43.1364983" lon="-8.2995261"><ele>370.75</ele><time>2026-03-29T11:14:28.071Z</time></trkpt><trkpt lat="43.1366124" lon="-8.299452"><ele>370.5</ele><time>2026-03-29T11:14:29.07Z</time></trkpt><trkpt lat="43.1367266" lon="-8.2993726"><ele>370.25</ele><time>2026-03-29T11:14:30.07Z</time></trkpt><trkpt lat="43.1368459" lon="-8.2992873"><ele>370.0</ele><time>2026-03-29T11:14:31.071Z</time></trkpt><trkpt lat="43.1369687" lon="-8.2992001"><ele>370.0</ele><time>2026-03-29T11:14:32.07Z</time></trkpt><trkpt lat="43.137084" lon="-8.2991057"><ele>370.0</ele><time>2026-03-29T11:14:33.071Z</time></trkpt><trkpt lat="43.1372048" lon="-8.2990167"><ele>370.0</ele><time>2026-03-29T11:14:34.071Z</time></trkpt><trkpt lat="43.1373257" lon="-8.2989316"><ele>370.0</ele><time>2026-03-29T11:14:35.07Z</time></trkpt><trkpt lat="43.1374448" lon="-8.298848"><ele>367.5</ele><time>2026-03-29T11:14:36.071Z</time></trkpt><trkpt lat="43.1375538" lon="-8.2987717"><ele>365.0</ele><time>2026-03-29T11:14:37.07Z</time></trkpt><trkpt lat="43.1376576" lon="-8.2986989"><ele>362.5</ele><time>2026-03-29T11:14:38.071Z</time></trkpt><trkpt lat="43.1377535" lon="-8.2986278"><ele>360.0</ele><time>2026-03-29T11:14:39.07Z</time></trkpt><trkpt lat="43.1378485" lon="-8.2985624"><ele>360.0</ele><time>2026-03-29T11:14:40.071Z</time></trkpt><trkpt lat="43.1379362" lon="-8.2984991"><ele>360.0</ele><time>2026-03-29T11:14:41.07Z</time></trkpt><trkpt lat="43.1380209" lon="-8.2984373"><ele>360.0</ele><time>2026-03-29T11:14:42.07Z</time></trkpt><trkpt lat="43.1381023" lon="-8.2983789"><ele>360.0</ele><time>2026-03-29T11:14:43.07Z</time></trkpt><trkpt lat="43.1381844" lon="-8.2983244"><ele>360.0</ele><time>2026-03-29T11:14:44.071Z</time></trkpt><trkpt lat="43.1382602" lon="-8.2982662"><ele>361.4</ele><time>2026-03-29T11:14:45.071Z</time></trkpt><trkpt lat="43.1383405" lon="-8.2982113"><ele>362.8</ele><time>2026-03-29T11:14:46.071Z</time></trkpt><trkpt lat="43.1384325" lon="-8.298151"><ele>364.20000000000005</ele><time>2026-03-29T11:14:47.071Z</time></trkpt><trkpt lat="43.1385294" lon="-8.298079"><ele>365.6</ele><time>2026-03-29T11:14:48.07Z</time></trkpt><trkpt lat="43.1386357" lon="-8.2980022"><ele>367.0</ele><time>2026-03-29T11:14:49.07Z</time></trkpt><trkpt lat="43.1387494" lon="-8.2979217"><ele>364.75</ele><time>2026-03-29T11:14:50.07Z</time></trkpt><trkpt lat="43.1388711" lon="-8.2978364"><ele>362.5</ele><time>2026-03-29T11:14:51.07Z</time></trkpt><trkpt lat="43.1389977" lon="-8.2977486"><ele>360.25</ele><time>2026-03-29T11:14:52.071Z</time></trkpt><trkpt lat="43.1391262" lon="-8.2976538"><ele>358.0</ele><time>2026-03-29T11:14:53.071Z</time></trkpt><trkpt lat="43.1392508" lon="-8.2975566"><ele>358.0</ele><time>2026-03-29T11:14:54.07Z</time></trkpt><trkpt lat="43.1393815" lon="-8.2974626"><ele>358.0</ele><time>2026-03-29T11:14:55.07Z</time></trkpt><trkpt lat="43.1395155" lon="-8.297367"><ele>358.0</ele><time>2026-03-29T11:14:56.07Z</time></trkpt><trkpt lat="43.1396509" lon="-8.2972637"><ele>351.66666666666663</ele><time>2026-03-29T11:14:57.07Z</time></trkpt><trkpt lat="43.1397875" lon="-8.2971646"><ele>345.3333333333333</ele><time>2026-03-29T11:14:58.07Z</time></trkpt><trkpt lat="43.139927" lon="-8.2970697"><ele>339.0</ele><time>2026-03-29T11:14:59.07Z</time></trkpt><trkpt lat="43.1400664" lon="-8.2969728"><ele>338.75</ele><time>2026-03-29T11:15:00.071Z</time></trkpt><trkpt lat="43.140203" lon="-8.2968793"><ele>338.5</ele><time>2026-03-29T11:15:01.07Z</time></trkpt><trkpt lat="43.1403384" lon="-8.2967886"><ele>338.25</ele><time>2026-03-29T11:15:02.07Z</time></trkpt><trkpt lat="43.1404716" lon="-8.29672"><ele>338.0</ele><time>2026-03-29T11:15:03.07Z</time></trkpt><trkpt lat="43.1406066" lon="-8.2966587"><ele>337.75</ele><time>2026-03-29T11:15:04.07Z</time></trkpt><trkpt lat="43.1407353" lon="-8.2966016"><ele>337.5</ele><time>2026-03-29T11:15:05.07Z</time></trkpt><trkpt lat="43.1408845" lon="-8.2965354"><ele>337.25</ele><time>2026-03-29T11:15:06.07Z</time></trkpt><trkpt lat="43.1410249" lon="-8.2964811"><ele>337.0</ele><time>2026-03-29T11:15:07.07Z</time></trkpt><trkpt lat="43.141163" lon="-8.296423"><ele>334.0</ele><time>2026-03-29T11:15:08.07Z</time></trkpt><trkpt lat="43.1412837" lon="-8.2963511"><ele>331.0</ele><time>2026-03-29T11:15:09.071Z</time></trkpt><trkpt lat="43.141397" lon="-8.2962622"><ele>328.0</ele><time>2026-03-29T11:15:10.07Z</time></trkpt><trkpt lat="43.1414979" lon="-8.2961407"><ele>325.0</ele><time>2026-03-29T11:15:11.07Z</time></trkpt><trkpt lat="43.1415783" lon="-8.2959896"><ele>325.0</ele><time>2026-03-29T11:15:12.071Z</time></trkpt><trkpt lat="43.1416526" lon="-8.2958169"><ele>325.0</ele><time>2026-03-29T11:15:13.07Z</time></trkpt><trkpt lat="43.1417176" lon="-8.2956284"><ele>325.0</ele><time>2026-03-29T11:15:14.07Z</time></trkpt><trkpt lat="43.1417867" lon="-8.2954347"><ele>321.3333333333333</ele><time>2026-03-29T11:15:15.07Z</time></trkpt><trkpt lat="43.1418588" lon="-8.2952376"><ele>317.6666666666667</ele><time>2026-03-29T11:15:16.07Z</time></trkpt><trkpt lat="43.1419277" lon="-8.2950404"><ele>314.0</ele><time>2026-03-29T11:15:17.071Z</time></trkpt><trkpt lat="43.1419994" lon="-8.2948397"><ele>312.0</ele><time>2026-03-29T11:15:18.07Z</time></trkpt><trkpt lat="43.1420736" lon="-8.2946401"><ele>310.0</ele><time>2026-03-29T11:15:19.071Z</time></trkpt><trkpt lat="43.1421486" lon="-8.2944319"><ele>308.0</ele><time>2026-03-29T11:15:20.071Z</time></trkpt><trkpt lat="43.1422231" lon="-8.2942243"><ele>308.0</ele><time>2026-03-29T11:15:21.07Z</time></trkpt><trkpt lat="43.1422991" lon="-8.2940215"><ele>308.0</ele><time>2026-03-29T11:15:22.071Z</time></trkpt><trkpt lat="43.1423729" lon="-8.2938203"><ele>308.0</ele><time>2026-03-29T11:15:23.071Z</time></trkpt><trkpt lat="43.1424432" lon="-8.2936266"><ele>308.0</ele><time>2026-03-29T11:15:24.07Z</time></trkpt><trkpt lat="43.1425038" lon="-8.2934409"><ele>308.0</ele><time>2026-03-29T11:15:25.071Z</time></trkpt><trkpt lat="43.14257" lon="-8.2932619"><ele>308.0</ele><time>2026-03-29T11:15:26.07Z</time></trkpt><trkpt lat="43.1426321" lon="-8.2930812"><ele>308.0</ele><time>2026-03-29T11:15:27.07Z</time></trkpt><trkpt lat="43.1427039" lon="-8.2928865"><ele>306.0</ele><time>2026-03-29T11:15:28.07Z</time></trkpt><trkpt lat="43.1427817" lon="-8.2926899"><ele>304.0</ele><time>2026-03-29T11:15:29.07Z</time></trkpt><trkpt lat="43.1428604" lon="-8.2924867"><ele>302.0</ele><time>2026-03-29T11:15:30.071Z</time></trkpt><trkpt lat="43.1429395" lon="-8.2922775"><ele>297.6666666666667</ele><time>2026-03-29T11:15:31.07Z</time></trkpt><trkpt lat="43.1430206" lon="-8.2920647"><ele>293.3333333333333</ele><time>2026-03-29T11:15:32.07Z</time></trkpt><trkpt lat="43.1431037" lon="-8.2918468"><ele>289.0</ele><time>2026-03-29T11:15:33.07Z</time></trkpt><trkpt lat="43.1431843" lon="-8.2916238"><ele>286.3333333333333</ele><time>2026-03-29T11:15:34.07Z</time></trkpt><trkpt lat="43.1432657" lon="-8.291397"><ele>283.6666666666667</ele><time>2026-03-29T11:15:35.07Z</time></trkpt><trkpt lat="43.1433497" lon="-8.2911689"><ele>281.0</ele><time>2026-03-29T11:15:36.07Z</time></trkpt><trkpt lat="43.1434293" lon="-8.2909466"><ele>281.0</ele><time>2026-03-29T11:15:37.07Z</time></trkpt><trkpt lat="43.1435185" lon="-8.290721"><ele>281.0</ele><time>2026-03-29T11:15:38.07Z</time></trkpt><trkpt lat="43.143597" lon="-8.2904913"><ele>281.0</ele><time>2026-03-29T11:15:39.07Z</time></trkpt><trkpt lat="43.1436793" lon="-8.2902623"><ele>277.33333333333337</ele><time>2026-03-29T11:15:40.07Z</time></trkpt><trkpt lat="43.1437659" lon="-8.2900352"><ele>273.6666666666667</ele><time>2026-03-29T11:15:41.07Z</time></trkpt><trkpt lat="43.1438495" lon="-8.2898071"><ele>270.0</ele><time>2026-03-29T11:15:42.07Z</time></trkpt><trkpt lat="43.143933" lon="-8.2895806"><ele>267.6666666666667</ele><time>2026-03-29T11:15:43.07Z</time></trkpt><trkpt lat="43.1440162" lon="-8.2893587"><ele>265.33333333333337</ele><time>2026-03-29T11:15:44.071Z</time></trkpt><trkpt lat="43.1440929" lon="-8.2891385"><ele>263.0</ele><time>2026-03-29T11:15:45.071Z</time></trkpt><trkpt lat="43.1441686" lon="-8.2889208"><ele>260.6666666666667</ele><time>2026-03-29T11:15:46.07Z</time></trkpt><trkpt lat="43.1442436" lon="-8.2887054"><ele>258.3333333333333</ele><time>2026-03-29T11:15:47.07Z</time></trkpt><trkpt lat="43.1443189" lon="-8.2884993"><ele>256.0</ele><time>2026-03-29T11:15:48.071Z</time></trkpt><trkpt lat="43.1443971" lon="-8.2882915"><ele>254.0</ele><time>2026-03-29T11:15:49.071Z</time></trkpt><trkpt lat="43.1444701" lon="-8.2880878"><ele>252.0</ele><time>2026-03-29T11:15:50.07Z</time></trkpt><trkpt lat="43.1445424" lon="-8.2878818"><ele>250.0</ele><time>2026-03-29T11:15:51.07Z</time></trkpt><trkpt lat="43.1446136" lon="-8.2876845"><ele>250.0</ele><time>2026-03-29T11:15:52.07Z</time></trkpt><trkpt lat="43.1446805" lon="-8.2874879"><ele>250.0</ele><time>2026-03-29T11:15:53.071Z</time></trkpt><trkpt lat="43.1447524" lon="-8.287297"><ele>250.0</ele><time>2026-03-29T11:15:54.071Z</time></trkpt><trkpt lat="43.1448209" lon="-8.2871083"><ele>247.25</ele><time>2026-03-29T11:15:55.07Z</time></trkpt><trkpt lat="43.1448857" lon="-8.2869275"><ele>244.5</ele><time>2026-03-29T11:15:56.07Z</time></trkpt><trkpt lat="43.1449522" lon="-8.2867599"><ele>241.75</ele><time>2026-03-29T11:15:57.071Z</time></trkpt><trkpt lat="43.1450297" lon="-8.2865981"><ele>239.0</ele><time>2026-03-29T11:15:58.07Z</time></trkpt><trkpt lat="43.1451256" lon="-8.2865164"><ele>239.0</ele><time>2026-03-29T11:15:59.07Z</time></trkpt><trkpt lat="43.1452169" lon="-8.2864264"><ele>239.0</ele><time>2026-03-29T11:16:00.07Z</time></trkpt><trkpt lat="43.1453569" lon="-8.2864328"><ele>239.0</ele><time>2026-03-29T11:16:01.07Z</time></trkpt><trkpt lat="43.1454901" lon="-8.2864514"><ele>239.0</ele><time>2026-03-29T11:16:02.071Z</time></trkpt><trkpt lat="43.1456303" lon="-8.2864773"><ele>235.0</ele><time>2026-03-29T11:16:03.071Z</time></trkpt><trkpt lat="43.1457773" lon="-8.2864999"><ele>231.0</ele><time>2026-03-29T11:16:04.07Z</time></trkpt><trkpt lat="43.1459287" lon="-8.2865264"><ele>227.0</ele><time>2026-03-29T11:16:05.07Z</time></trkpt><trkpt lat="43.1460801" lon="-8.2865568"><ele>227.0</ele><time>2026-03-29T11:16:06.071Z</time></trkpt><trkpt lat="43.1462363" lon="-8.2865874"><ele>227.0</ele><time>2026-03-29T11:16:07.07Z</time></trkpt><trkpt lat="43.1463934" lon="-8.2866114"><ele>227.0</ele><time>2026-03-29T11:16:08.07Z</time></trkpt><trkpt lat="43.1465481" lon="-8.2866379"><ele>223.66666666666669</ele><time>2026-03-29T11:16:09.07Z</time></trkpt><trkpt lat="43.1467017" lon="-8.286665"><ele>220.33333333333331</ele><time>2026-03-29T11:16:10.07Z</time></trkpt><trkpt lat="43.1468582" lon="-8.2866902"><ele>217.0</ele><time>2026-03-29T11:16:11.07Z</time></trkpt><trkpt lat="43.1470106" lon="-8.286712"><ele>217.0</ele><time>2026-03-29T11:16:12.071Z</time></trkpt><trkpt lat="43.1471578" lon="-8.2867329"><ele>217.0</ele><time>2026-03-29T11:16:13.07Z</time></trkpt><trkpt lat="43.1473018" lon="-8.286752"><ele>217.0</ele><time>2026-03-29T11:16:14.07Z</time></trkpt><trkpt lat="43.1474386" lon="-8.2867752"><ele>217.0</ele><time>2026-03-29T11:16:15.071Z</time></trkpt><trkpt lat="43.1475614" lon="-8.2868001"><ele>214.25</ele><time>2026-03-29T11:16:16.07Z</time></trkpt><trkpt lat="43.1476716" lon="-8.2868413"><ele>211.5</ele><time>2026-03-29T11:16:17.071Z</time></trkpt><trkpt lat="43.1477682" lon="-8.2869255"><ele>208.75</ele><time>2026-03-29T11:16:18.07Z</time></trkpt><trkpt lat="43.1478532" lon="-8.2870425"><ele>206.0</ele><time>2026-03-29T11:16:19.07Z</time></trkpt><trkpt lat="43.1479268" lon="-8.2871631"><ele>205.8</ele><time>2026-03-29T11:16:20.07Z</time></trkpt><trkpt lat="43.1479588" lon="-8.2872888"><ele>205.60000000000002</ele><time>2026-03-29T11:16:21.071Z</time></trkpt><trkpt lat="43.1479521" lon="-8.2874089"><ele>205.4</ele><time>2026-03-29T11:16:22.071Z</time></trkpt><trkpt lat="43.1479062" lon="-8.2875188"><ele>205.2</ele><time>2026-03-29T11:16:23.071Z</time></trkpt><trkpt lat="43.1478384" lon="-8.2876137"><ele>205.0</ele><time>2026-03-29T11:16:24.071Z</time></trkpt><trkpt lat="43.1477649" lon="-8.2876868"><ele>205.0</ele><time>2026-03-29T11:16:25.07Z</time></trkpt><trkpt lat="43.1476942" lon="-8.2877488"><ele>205.0</ele><time>2026-03-29T11:16:26.07Z</time></trkpt><trkpt lat="43.1476391" lon="-8.2878075"><ele>205.0</ele><time>2026-03-29T11:16:27.07Z</time></trkpt><trkpt lat="43.1476361" lon="-8.2879244"><ele>205.0</ele><time>2026-03-29T11:16:29.07Z</time></trkpt><trkpt lat="43.1477317" lon="-8.2879811"><ele>205.0</ele><time>2026-03-29T11:16:31.07Z</time></trkpt><trkpt lat="43.1478566" lon="-8.2880118"><ele>204.99999999999997</ele><time>2026-03-29T11:16:33.071Z</time></trkpt><trkpt lat="43.1479243" lon="-8.2880219"><ele>205.0</ele><time>2026-03-29T11:16:34.07Z</time></trkpt><trkpt lat="43.1479906" lon="-8.2880336"><ele>205.0</ele><time>2026-03-29T11:16:35.07Z</time></trkpt><trkpt lat="43.1480577" lon="-8.2880396"><ele>205.0</ele><time>2026-03-29T11:16:36.071Z</time></trkpt><trkpt lat="43.1481333" lon="-8.2880492"><ele>204.99999999999997</ele><time>2026-03-29T11:16:37.07Z</time></trkpt><trkpt lat="43.1482227" lon="-8.2880609"><ele>205.0</ele><time>2026-03-29T11:16:38.07Z</time></trkpt><trkpt lat="43.1483164" lon="-8.2880664"><ele>202.2</ele><time>2026-03-29T11:16:39.07Z</time></trkpt><trkpt lat="43.1484129" lon="-8.2880611"><ele>199.4</ele><time>2026-03-29T11:16:40.071Z</time></trkpt><trkpt lat="43.1485139" lon="-8.2880453"><ele>196.60000000000002</ele><time>2026-03-29T11:16:41.071Z</time></trkpt><trkpt lat="43.1486188" lon="-8.288021"><ele>193.8</ele><time>2026-03-29T11:16:42.071Z</time></trkpt><trkpt lat="43.1487234" lon="-8.2879945"><ele>191.0</ele><time>2026-03-29T11:16:43.07Z</time></trkpt><trkpt lat="43.1488279" lon="-8.2879767"><ele>191.0</ele><time>2026-03-29T11:16:44.07Z</time></trkpt><trkpt lat="43.1489345" lon="-8.2879572"><ele>191.0</ele><time>2026-03-29T11:16:45.071Z</time></trkpt><trkpt lat="43.1490397" lon="-8.2879526"><ele>191.0</ele><time>2026-03-29T11:16:46.07Z</time></trkpt><trkpt lat="43.1491449" lon="-8.2879348"><ele>191.0</ele><time>2026-03-29T11:16:47.07Z</time></trkpt><trkpt lat="43.1492509" lon="-8.2879118"><ele>191.0</ele><time>2026-03-29T11:16:48.071Z</time></trkpt><trkpt lat="43.1493508" lon="-8.2878641"><ele>187.4</ele><time>2026-03-29T11:16:49.07Z</time></trkpt><trkpt lat="43.1494503" lon="-8.2877943"><ele>183.8</ele><time>2026-03-29T11:16:50.07Z</time></trkpt><trkpt lat="43.1495398" lon="-8.2877151"><ele>180.20000000000002</ele><time>2026-03-29T11:16:51.07Z</time></trkpt><trkpt lat="43.1496358" lon="-8.2876412"><ele>176.60000000000002</ele><time>2026-03-29T11:16:52.071Z</time></trkpt><trkpt lat="43.1497319" lon="-8.2875605"><ele>173.0</ele><time>2026-03-29T11:16:53.07Z</time></trkpt><trkpt lat="43.149832" lon="-8.2874923"><ele>171.0</ele><time>2026-03-29T11:16:54.071Z</time></trkpt><trkpt lat="43.1499327" lon="-8.2874335"><ele>169.0</ele><time>2026-03-29T11:16:55.07Z</time></trkpt><trkpt lat="43.1500366" lon="-8.2873876"><ele>167.0</ele><time>2026-03-29T11:16:56.071Z</time></trkpt><trkpt lat="43.1501397" lon="-8.287335"><ele>165.0</ele><time>2026-03-29T11:16:57.07Z</time></trkpt><trkpt lat="43.1502409" lon="-8.2872776"><ele>163.0</ele><time>2026-03-29T11:16:58.07Z</time></trkpt><trkpt lat="43.1503392" lon="-8.2872207"><ele>163.0</ele><time>2026-03-29T11:16:59.07Z</time></trkpt><trkpt lat="43.1504237" lon="-8.2871526"><ele>163.0</ele><time>2026-03-29T11:17:00.071Z</time></trkpt><trkpt lat="43.1505182" lon="-8.2870817"><ele>163.0</ele><time>2026-03-29T11:17:01.07Z</time></trkpt><trkpt lat="43.1506117" lon="-8.287004"><ele>163.0</ele><time>2026-03-29T11:17:02.071Z</time></trkpt><trkpt lat="43.1507048" lon="-8.286921"><ele>163.0</ele><time>2026-03-29T11:17:03.07Z</time></trkpt><trkpt lat="43.1508046" lon="-8.2868412"><ele>158.0</ele><time>2026-03-29T11:17:04.07Z</time></trkpt><trkpt lat="43.1509065" lon="-8.2867694"><ele>153.0</ele><time>2026-03-29T11:17:05.07Z</time></trkpt><trkpt lat="43.1510127" lon="-8.2867022"><ele>148.0</ele><time>2026-03-29T11:17:06.07Z</time></trkpt><trkpt lat="43.1511193" lon="-8.286655"><ele>143.0</ele><time>2026-03-29T11:17:07.07Z</time></trkpt><trkpt lat="43.1512298" lon="-8.2866355"><ele>143.0</ele><time>2026-03-29T11:17:08.07Z</time></trkpt><trkpt lat="43.1513387" lon="-8.2866298"><ele>143.0</ele><time>2026-03-29T11:17:09.07Z</time></trkpt><trkpt lat="43.1514488" lon="-8.286633"><ele>143.0</ele><time>2026-03-29T11:17:10.07Z</time></trkpt><trkpt lat="43.1515583" lon="-8.2866503"><ele>143.0</ele><time>2026-03-29T11:17:11.071Z</time></trkpt><trkpt lat="43.1516598" lon="-8.2866651"><ele>143.0</ele><time>2026-03-29T11:17:12.07Z</time></trkpt><trkpt lat="43.1517743" lon="-8.286686"><ele>143.0</ele><time>2026-03-29T11:17:13.07Z</time></trkpt><trkpt lat="43.1518982" lon="-8.2867198"><ele>143.0</ele><time>2026-03-29T11:17:14.07Z</time></trkpt><trkpt lat="43.1520933" lon="-8.2867877"><ele>143.0</ele><time>2026-03-29T11:17:15.071Z</time></trkpt><trkpt lat="43.1522298" lon="-8.2869703"><ele>143.0</ele><time>2026-03-29T11:17:16.071Z</time></trkpt><trkpt lat="43.1523657" lon="-8.2870983"><ele>143.0</ele><time>2026-03-29T11:17:17.071Z</time></trkpt><trkpt lat="43.1524929" lon="-8.2872266"><ele>143.0</ele><time>2026-03-29T11:17:18.071Z</time></trkpt><trkpt lat="43.1526227" lon="-8.2873547"><ele>142.5</ele><time>2026-03-29T11:17:19.071Z</time></trkpt><trkpt lat="43.1527458" lon="-8.2874686"><ele>142.0</ele><time>2026-03-29T11:17:20.07Z</time></trkpt><trkpt lat="43.1528628" lon="-8.2875672"><ele>141.5</ele><time>2026-03-29T11:17:21.071Z</time></trkpt><trkpt lat="43.152996" lon="-8.287664"><ele>141.0</ele><time>2026-03-29T11:17:22.07Z</time></trkpt><trkpt lat="43.1531271" lon="-8.2877413"><ele>144.75</ele><time>2026-03-29T11:17:23.07Z</time></trkpt><trkpt lat="43.1532532" lon="-8.2878222"><ele>148.5</ele><time>2026-03-29T11:17:24.07Z</time></trkpt><trkpt lat="43.1533828" lon="-8.2878963"><ele>152.25</ele><time>2026-03-29T11:17:25.07Z</time></trkpt><trkpt lat="43.1535254" lon="-8.2879381"><ele>156.0</ele><time>2026-03-29T11:17:26.07Z</time></trkpt><trkpt lat="43.1536654" lon="-8.2879855"><ele>156.0</ele><time>2026-03-29T11:17:27.07Z</time></trkpt><trkpt lat="43.1538124" lon="-8.28803"><ele>156.0</ele><time>2026-03-29T11:17:28.071Z</time></trkpt><trkpt lat="43.1539711" lon="-8.2880648"><ele>156.0</ele><time>2026-03-29T11:17:29.07Z</time></trkpt><trkpt lat="43.1541303" lon="-8.2880974"><ele>157.0</ele><time>2026-03-29T11:17:30.07Z</time></trkpt><trkpt lat="43.154293" lon="-8.2881336"><ele>158.0</ele><time>2026-03-29T11:17:31.071Z</time></trkpt><trkpt lat="43.1544586" lon="-8.288174"><ele>159.0</ele><time>2026-03-29T11:17:32.071Z</time></trkpt><trkpt lat="43.1546211" lon="-8.2882263"><ele>159.0</ele><time>2026-03-29T11:17:33.071Z</time></trkpt><trkpt lat="43.1547916" lon="-8.2882635"><ele>159.0</ele><time>2026-03-29T11:17:34.07Z</time></trkpt><trkpt lat="43.1549486" lon="-8.2882931"><ele>159.0</ele><time>2026-03-29T11:17:35.07Z</time></trkpt><trkpt lat="43.1551089" lon="-8.2883216"><ele>160.66666666666666</ele><time>2026-03-29T11:17:36.071Z</time></trkpt><trkpt lat="43.1552725" lon="-8.2883569"><ele>162.33333333333331</ele><time>2026-03-29T11:17:37.071Z</time></trkpt><trkpt lat="43.1554329" lon="-8.2883837"><ele>164.0</ele><time>2026-03-29T11:17:38.07Z</time></trkpt><trkpt lat="43.1555894" lon="-8.2884083"><ele>166.33333333333331</ele><time>2026-03-29T11:17:39.07Z</time></trkpt><trkpt lat="43.155743" lon="-8.2884371"><ele>168.66666666666666</ele><time>2026-03-29T11:17:40.07Z</time></trkpt><trkpt lat="43.1559052" lon="-8.2884423"><ele>171.0</ele><time>2026-03-29T11:17:41.071Z</time></trkpt><trkpt lat="43.1560685" lon="-8.2884328"><ele>171.0</ele><time>2026-03-29T11:17:42.07Z</time></trkpt><trkpt lat="43.1562324" lon="-8.2884052"><ele>171.0</ele><time>2026-03-29T11:17:43.07Z</time></trkpt><trkpt lat="43.156408" lon="-8.2883622"><ele>171.0</ele><time>2026-03-29T11:17:44.07Z</time></trkpt><trkpt lat="43.1565785" lon="-8.2882983"><ele>171.66666666666666</ele><time>2026-03-29T11:17:45.07Z</time></trkpt><trkpt lat="43.1567506" lon="-8.2882332"><ele>172.33333333333331</ele><time>2026-03-29T11:17:46.071Z</time></trkpt><trkpt lat="43.1569229" lon="-8.2881649"><ele>173.0</ele><time>2026-03-29T11:17:47.07Z</time></trkpt><trkpt lat="43.1570821" lon="-8.2880964"><ele>177.66666666666666</ele><time>2026-03-29T11:17:48.071Z</time></trkpt><trkpt lat="43.1572624" lon="-8.2880265"><ele>182.33333333333334</ele><time>2026-03-29T11:17:49.071Z</time></trkpt><trkpt lat="43.1574315" lon="-8.287947"><ele>187.0</ele><time>2026-03-29T11:17:50.071Z</time></trkpt><trkpt lat="43.1575938" lon="-8.2878637"><ele>188.0</ele><time>2026-03-29T11:17:51.071Z</time></trkpt><trkpt lat="43.1577526" lon="-8.2877758"><ele>189.0</ele><time>2026-03-29T11:17:52.07Z</time></trkpt><trkpt lat="43.1578984" lon="-8.2876807"><ele>190.0</ele><time>2026-03-29T11:17:53.07Z</time></trkpt><trkpt lat="43.158029" lon="-8.2875644"><ele>190.0</ele><time>2026-03-29T11:17:54.07Z</time></trkpt><trkpt lat="43.1581494" lon="-8.2874396"><ele>190.0</ele><time>2026-03-29T11:17:55.071Z</time></trkpt><trkpt lat="43.1582682" lon="-8.2873147"><ele>190.0</ele><time>2026-03-29T11:17:56.07Z</time></trkpt><trkpt lat="43.1583904" lon="-8.2871801"><ele>197.66666666666669</ele><time>2026-03-29T11:17:57.07Z</time></trkpt><trkpt lat="43.1585131" lon="-8.2870532"><ele>205.33333333333334</ele><time>2026-03-29T11:17:58.07Z</time></trkpt><trkpt lat="43.1586381" lon="-8.2869264"><ele>213.0</ele><time>2026-03-29T11:17:59.071Z</time></trkpt><trkpt lat="43.1587685" lon="-8.2867972"><ele>213.0</ele><time>2026-03-29T11:18:00.07Z</time></trkpt><trkpt lat="43.1589014" lon="-8.2866678"><ele>213.0</ele><time>2026-03-29T11:18:01.07Z</time></trkpt><trkpt lat="43.1590287" lon="-8.2865401"><ele>213.0</ele><time>2026-03-29T11:18:02.07Z</time></trkpt><trkpt lat="43.1591536" lon="-8.2864132"><ele>212.25</ele><time>2026-03-29T11:18:03.07Z</time></trkpt><trkpt lat="43.1592753" lon="-8.2862929"><ele>211.5</ele><time>2026-03-29T11:18:04.071Z</time></trkpt><trkpt lat="43.1593987" lon="-8.2861712"><ele>210.75</ele><time>2026-03-29T11:18:05.07Z</time></trkpt><trkpt lat="43.159514" lon="-8.2860572"><ele>210.0</ele><time>2026-03-29T11:18:06.07Z</time></trkpt><trkpt lat="43.1596231" lon="-8.2859525"><ele>210.0</ele><time>2026-03-29T11:18:07.071Z</time></trkpt><trkpt lat="43.1597176" lon="-8.285857"><ele>210.0</ele><time>2026-03-29T11:18:08.071Z</time></trkpt><trkpt lat="43.1597974" lon="-8.2857755"><ele>210.0</ele><time>2026-03-29T11:18:09.07Z</time></trkpt><trkpt lat="43.1598496" lon="-8.285707"><ele>210.0</ele><time>2026-03-29T11:18:10.07Z</time></trkpt><trkpt lat="43.1598957" lon="-8.2856158"><ele>210.0</ele><time>2026-03-29T11:18:12.07Z</time></trkpt><trkpt lat="43.1599516" lon="-8.2855591"><ele>210.0</ele><time>2026-03-29T11:18:14.07Z</time></trkpt><trkpt lat="43.1600798" lon="-8.2855078"><ele>210.6</ele><time>2026-03-29T11:18:16.07Z</time></trkpt><trkpt lat="43.1601592" lon="-8.2854886"><ele>211.2</ele><time>2026-03-29T11:18:17.071Z</time></trkpt><trkpt lat="43.1602415" lon="-8.2854682"><ele>211.8</ele><time>2026-03-29T11:18:18.07Z</time></trkpt><trkpt lat="43.1603321" lon="-8.2854433"><ele>212.4</ele><time>2026-03-29T11:18:19.071Z</time></trkpt><trkpt lat="43.1604306" lon="-8.2854192"><ele>213.0</ele><time>2026-03-29T11:18:20.07Z</time></trkpt><trkpt lat="43.1605211" lon="-8.2853893"><ele>213.0</ele><time>2026-03-29T11:18:21.07Z</time></trkpt><trkpt lat="43.1606203" lon="-8.285361"><ele>213.0</ele><time>2026-03-29T11:18:22.071Z</time></trkpt><trkpt lat="43.1607178" lon="-8.2853413"><ele>213.0</ele><time>2026-03-29T11:18:23.071Z</time></trkpt><trkpt lat="43.1608082" lon="-8.2853299"><ele>213.0</ele><time>2026-03-29T11:18:24.07Z</time></trkpt><trkpt lat="43.1609057" lon="-8.2853067"><ele>213.0</ele><time>2026-03-29T11:18:25.071Z</time></trkpt><trkpt lat="43.1610014" lon="-8.2852822"><ele>210.4</ele><time>2026-03-29T11:18:26.07Z</time></trkpt><trkpt lat="43.1611071" lon="-8.2852585"><ele>207.8</ele><time>2026-03-29T11:18:27.07Z</time></trkpt><trkpt lat="43.1612142" lon="-8.2852233"><ele>205.2</ele><time>2026-03-29T11:18:28.071Z</time></trkpt><trkpt lat="43.1613171" lon="-8.2851984"><ele>202.6</ele><time>2026-03-29T11:18:29.07Z</time></trkpt><trkpt lat="43.1614207" lon="-8.2851843"><ele>200.0</ele><time>2026-03-29T11:18:30.07Z</time></trkpt><trkpt lat="43.1615078" lon="-8.2851584"><ele>198.33333333333334</ele><time>2026-03-29T11:18:31.071Z</time></trkpt><trkpt lat="43.1615727" lon="-8.2850859"><ele>196.66666666666669</ele><time>2026-03-29T11:18:32.071Z</time></trkpt><trkpt lat="43.1616075" lon="-8.2849911"><ele>195.0</ele><time>2026-03-29T11:18:33.07Z</time></trkpt><trkpt lat="43.1616366" lon="-8.284889"><ele>193.33333333333334</ele><time>2026-03-29T11:18:34.07Z</time></trkpt><trkpt lat="43.1616837" lon="-8.2847865"><ele>191.66666666666669</ele><time>2026-03-29T11:18:35.07Z</time></trkpt><trkpt lat="43.1617514" lon="-8.2846939"><ele>190.0</ele><time>2026-03-29T11:18:36.07Z</time></trkpt><trkpt lat="43.1618355" lon="-8.2846097"><ele>190.0</ele><time>2026-03-29T11:18:37.07Z</time></trkpt><trkpt lat="43.1619272" lon="-8.2845373"><ele>190.0</ele><time>2026-03-29T11:18:38.07Z</time></trkpt><trkpt lat="43.1620239" lon="-8.2844712"><ele>190.0</ele><time>2026-03-29T11:18:39.07Z</time></trkpt><trkpt lat="43.1621264" lon="-8.2844055"><ele>190.0</ele><time>2026-03-29T11:18:40.07Z</time></trkpt><trkpt lat="43.1622236" lon="-8.2843412"><ele>190.0</ele><time>2026-03-29T11:18:41.07Z</time></trkpt><trkpt lat="43.1623118" lon="-8.2842922"><ele>186.8</ele><time>2026-03-29T11:18:42.07Z</time></trkpt><trkpt lat="43.162403" lon="-8.2842848"><ele>183.6</ele><time>2026-03-29T11:18:43.07Z</time></trkpt><trkpt lat="43.1624862" lon="-8.2843312"><ele>180.39999999999998</ele><time>2026-03-29T11:18:44.07Z</time></trkpt><trkpt lat="43.1625576" lon="-8.2843783"><ele>177.2</ele><time>2026-03-29T11:18:45.07Z</time></trkpt><trkpt lat="43.1626161" lon="-8.2844467"><ele>174.0</ele><time>2026-03-29T11:18:46.07Z</time></trkpt><trkpt lat="43.1626919" lon="-8.2845819"><ele>174.0</ele><time>2026-03-29T11:18:47.07Z</time></trkpt><trkpt lat="43.1627555" lon="-8.2847278"><ele>174.0</ele><time>2026-03-29T11:18:48.071Z</time></trkpt><trkpt lat="43.1628153" lon="-8.2848622"><ele>174.0</ele><time>2026-03-29T11:18:49.07Z</time></trkpt><trkpt lat="43.1628824" lon="-8.2849933"><ele>174.0</ele><time>2026-03-29T11:18:50.07Z</time></trkpt><trkpt lat="43.1629521" lon="-8.2851188"><ele>172.39999999999998</ele><time>2026-03-29T11:18:51.071Z</time></trkpt><trkpt lat="43.163036" lon="-8.2852311"><ele>170.8</ele><time>2026-03-29T11:18:52.07Z</time></trkpt><trkpt lat="43.1631295" lon="-8.2852947"><ele>169.2</ele><time>2026-03-29T11:18:53.07Z</time></trkpt><trkpt lat="43.1632331" lon="-8.2853175"><ele>167.60000000000002</ele><time>2026-03-29T11:18:54.071Z</time></trkpt><trkpt lat="43.1633455" lon="-8.2853208"><ele>166.0</ele><time>2026-03-29T11:18:55.071Z</time></trkpt><trkpt lat="43.1634726" lon="-8.2853125"><ele>163.75</ele><time>2026-03-29T11:18:56.07Z</time></trkpt><trkpt lat="43.1636117" lon="-8.2852935"><ele>161.5</ele><time>2026-03-29T11:18:57.07Z</time></trkpt><trkpt lat="43.1637492" lon="-8.2852598"><ele>159.25</ele><time>2026-03-29T11:18:58.07Z</time></trkpt><trkpt lat="43.1638837" lon="-8.2852209"><ele>157.0</ele><time>2026-03-29T11:18:59.07Z</time></trkpt><trkpt lat="43.1640134" lon="-8.2851826"><ele>155.75</ele><time>2026-03-29T11:19:00.07Z</time></trkpt><trkpt lat="43.1641487" lon="-8.285131"><ele>154.5</ele><time>2026-03-29T11:19:01.07Z</time></trkpt><trkpt lat="43.1642809" lon="-8.2850711"><ele>153.25</ele><time>2026-03-29T11:19:02.07Z</time></trkpt><trkpt lat="43.1644169" lon="-8.2850017"><ele>152.0</ele><time>2026-03-29T11:19:03.07Z</time></trkpt><trkpt lat="43.1645483" lon="-8.2849104"><ele>152.0</ele><time>2026-03-29T11:19:04.07Z</time></trkpt><trkpt lat="43.1646736" lon="-8.284814"><ele>152.0</ele><time>2026-03-29T11:19:05.071Z</time></trkpt><trkpt lat="43.1647964" lon="-8.2847152"><ele>152.0</ele><time>2026-03-29T11:19:06.071Z</time></trkpt><trkpt lat="43.164921" lon="-8.284641"><ele>152.0</ele><time>2026-03-29T11:19:07.07Z</time></trkpt><trkpt lat="43.1650407" lon="-8.2846056"><ele>152.25</ele><time>2026-03-29T11:19:08.071Z</time></trkpt><trkpt lat="43.1651654" lon="-8.2845974"><ele>152.5</ele><time>2026-03-29T11:19:09.07Z</time></trkpt><trkpt lat="43.1652971" lon="-8.2846151"><ele>152.75</ele><time>2026-03-29T11:19:10.07Z</time></trkpt><trkpt lat="43.1654395" lon="-8.2846432"><ele>153.0</ele><time>2026-03-29T11:19:11.07Z</time></trkpt><trkpt lat="43.1655833" lon="-8.2846755"><ele>151.75</ele><time>2026-03-29T11:19:12.07Z</time></trkpt><trkpt lat="43.1657048" lon="-8.2846908"><ele>150.5</ele><time>2026-03-29T11:19:13.07Z</time></trkpt><trkpt lat="43.165838" lon="-8.2847207"><ele>149.25</ele><time>2026-03-29T11:19:14.07Z</time></trkpt><trkpt lat="43.1659802" lon="-8.2847625"><ele>148.0</ele><time>2026-03-29T11:19:15.071Z</time></trkpt><trkpt lat="43.1661136" lon="-8.2848298"><ele>143.25</ele><time>2026-03-29T11:19:16.07Z</time></trkpt><trkpt lat="43.1662441" lon="-8.2849044"><ele>138.5</ele><time>2026-03-29T11:19:17.07Z</time></trkpt><trkpt lat="43.1663643" lon="-8.285018"><ele>133.75</ele><time>2026-03-29T11:19:18.071Z</time></trkpt><trkpt lat="43.1664753" lon="-8.2851635"><ele>129.0</ele><time>2026-03-29T11:19:19.07Z</time></trkpt><trkpt lat="43.1665944" lon="-8.2853055"><ele>128.66666666666666</ele><time>2026-03-29T11:19:20.07Z</time></trkpt><trkpt lat="43.1666962" lon="-8.2854506"><ele>128.33333333333331</ele><time>2026-03-29T11:19:21.071Z</time></trkpt><trkpt lat="43.1668134" lon="-8.2856296"><ele>128.0</ele><time>2026-03-29T11:19:22.07Z</time></trkpt><trkpt lat="43.1669203" lon="-8.2858133"><ele>127.66666666666666</ele><time>2026-03-29T11:19:23.07Z</time></trkpt><trkpt lat="43.167025" lon="-8.2859649"><ele>127.33333333333334</ele><time>2026-03-29T11:19:24.07Z</time></trkpt><trkpt lat="43.1671216" lon="-8.2861327"><ele>127.0</ele><time>2026-03-29T11:19:25.07Z</time></trkpt><trkpt lat="43.1672342" lon="-8.2862518"><ele>127.0</ele><time>2026-03-29T11:19:26.07Z</time></trkpt><trkpt lat="43.1673697" lon="-8.2863269"><ele>127.0</ele><time>2026-03-29T11:19:27.071Z</time></trkpt><trkpt lat="43.1675269" lon="-8.2863877"><ele>127.0</ele><time>2026-03-29T11:19:28.07Z</time></trkpt><trkpt lat="43.1677017" lon="-8.2864286"><ele>125.66666666666667</ele><time>2026-03-29T11:19:29.07Z</time></trkpt><trkpt lat="43.1678792" lon="-8.2864677"><ele>124.33333333333334</ele><time>2026-03-29T11:19:30.071Z</time></trkpt><trkpt lat="43.1680506" lon="-8.2865011"><ele>123.0</ele><time>2026-03-29T11:19:31.071Z</time></trkpt><trkpt lat="43.1682088" lon="-8.286535"><ele>123.0</ele><time>2026-03-29T11:19:32.071Z</time></trkpt><trkpt lat="43.1683606" lon="-8.28656"><ele>123.0</ele><time>2026-03-29T11:19:33.07Z</time></trkpt><trkpt lat="43.1685145" lon="-8.2865804"><ele>123.0</ele><time>2026-03-29T11:19:34.07Z</time></trkpt><trkpt lat="43.1686737" lon="-8.2865766"><ele>123.0</ele><time>2026-03-29T11:19:35.071Z</time></trkpt><trkpt lat="43.1688338" lon="-8.2865433"><ele>123.0</ele><time>2026-03-29T11:19:36.071Z</time></trkpt><trkpt lat="43.1690005" lon="-8.28649"><ele>123.0</ele><time>2026-03-29T11:19:37.071Z</time></trkpt><trkpt lat="43.1691699" lon="-8.2864279"><ele>126.0</ele><time>2026-03-29T11:19:38.071Z</time></trkpt><trkpt lat="43.1693268" lon="-8.2863663"><ele>129.0</ele><time>2026-03-29T11:19:39.07Z</time></trkpt><trkpt lat="43.169476" lon="-8.2863052"><ele>132.0</ele><time>2026-03-29T11:19:40.07Z</time></trkpt><trkpt lat="43.1696174" lon="-8.2862526"><ele>132.0</ele><time>2026-03-29T11:19:41.071Z</time></trkpt><trkpt lat="43.1697517" lon="-8.2862261"><ele>132.0</ele><time>2026-03-29T11:19:42.071Z</time></trkpt><trkpt lat="43.1698852" lon="-8.2862331"><ele>132.0</ele><time>2026-03-29T11:19:43.071Z</time></trkpt><trkpt lat="43.1700162" lon="-8.286274"><ele>132.0</ele><time>2026-03-29T11:19:44.071Z</time></trkpt><trkpt lat="43.1701475" lon="-8.2863489"><ele>127.66666666666666</ele><time>2026-03-29T11:19:45.07Z</time></trkpt><trkpt lat="43.1702833" lon="-8.286435"><ele>123.33333333333333</ele><time>2026-03-29T11:19:46.071Z</time></trkpt><trkpt lat="43.170413" lon="-8.2865513"><ele>119.0</ele><time>2026-03-29T11:19:47.07Z</time></trkpt><trkpt lat="43.1705404" lon="-8.2866835"><ele>119.0</ele><time>2026-03-29T11:19:48.07Z</time></trkpt><trkpt lat="43.1706607" lon="-8.2868185"><ele>119.0</ele><time>2026-03-29T11:19:49.07Z</time></trkpt><trkpt lat="43.1707749" lon="-8.2869396"><ele>119.0</ele><time>2026-03-29T11:19:50.07Z</time></trkpt><trkpt lat="43.1708893" lon="-8.2870347"><ele>119.0</ele><time>2026-03-29T11:19:51.071Z</time></trkpt><trkpt lat="43.1710056" lon="-8.2871116"><ele>118.5</ele><time>2026-03-29T11:19:52.07Z</time></trkpt><trkpt lat="43.1711231" lon="-8.2871616"><ele>118.0</ele><time>2026-03-29T11:19:53.071Z</time></trkpt><trkpt lat="43.1712347" lon="-8.2871866"><ele>117.5</ele><time>2026-03-29T11:19:54.07Z</time></trkpt><trkpt lat="43.1713513" lon="-8.2871977"><ele>117.0</ele><time>2026-03-29T11:19:55.07Z</time></trkpt><trkpt lat="43.171465" lon="-8.2871791"><ele>118.39999999999999</ele><time>2026-03-29T11:19:56.07Z</time></trkpt><trkpt lat="43.1715682" lon="-8.2871355"><ele>119.79999999999998</ele><time>2026-03-29T11:19:57.07Z</time></trkpt><trkpt lat="43.1716655" lon="-8.2870625"><ele>121.2</ele><time>2026-03-29T11:19:58.07Z</time></trkpt><trkpt lat="43.1717499" lon="-8.2869587"><ele>122.6</ele><time>2026-03-29T11:19:59.07Z</time></trkpt><trkpt lat="43.1718308" lon="-8.2868554"><ele>124.0</ele><time>2026-03-29T11:20:00.07Z</time></trkpt><trkpt lat="43.1719265" lon="-8.2867938"><ele>124.0</ele><time>2026-03-29T11:20:01.07Z</time></trkpt><trkpt lat="43.172049" lon="-8.2867752"><ele>124.0</ele><time>2026-03-29T11:20:02.071Z</time></trkpt><trkpt lat="43.1721807" lon="-8.2867822"><ele>124.0</ele><time>2026-03-29T11:20:03.07Z</time></trkpt><trkpt lat="43.1723168" lon="-8.286796"><ele>124.0</ele><time>2026-03-29T11:20:04.07Z</time></trkpt><trkpt lat="43.1724496" lon="-8.2868067"><ele>124.4</ele><time>2026-03-29T11:20:05.071Z</time></trkpt><trkpt lat="43.1725727" lon="-8.2867901"><ele>124.80000000000001</ele><time>2026-03-29T11:20:06.07Z</time></trkpt><trkpt lat="43.1726789" lon="-8.2867406"><ele>125.19999999999999</ele><time>2026-03-29T11:20:07.071Z</time></trkpt><trkpt lat="43.172773" lon="-8.2866899"><ele>125.6</ele><time>2026-03-29T11:20:08.071Z</time></trkpt><trkpt lat="43.17286" lon="-8.2866734"><ele>126.0</ele><time>2026-03-29T11:20:09.07Z</time></trkpt><trkpt lat="43.1729432" lon="-8.2867042"><ele>126.0</ele><time>2026-03-29T11:20:10.071Z</time></trkpt><trkpt lat="43.1730212" lon="-8.2868065"><ele>126.0</ele><time>2026-03-29T11:20:11.071Z</time></trkpt><trkpt lat="43.1730961" lon="-8.2868744"><ele>126.0</ele><time>2026-03-29T11:20:12.071Z</time></trkpt><trkpt lat="43.1731592" lon="-8.2870088"><ele>126.0</ele><time>2026-03-29T11:20:13.071Z</time></trkpt><trkpt lat="43.1732789" lon="-8.2872097"><ele>129.33333333333334</ele><time>2026-03-29T11:20:14.07Z</time></trkpt><trkpt lat="43.1733514" lon="-8.2875133"><ele>132.66666666666669</ele><time>2026-03-29T11:20:15.07Z</time></trkpt><trkpt lat="43.1734415" lon="-8.2877595"><ele>136.0</ele><time>2026-03-29T11:20:16.07Z</time></trkpt><trkpt lat="43.1735313" lon="-8.2879532"><ele>135.66666666666669</ele><time>2026-03-29T11:20:17.07Z</time></trkpt><trkpt lat="43.1736274" lon="-8.2881326"><ele>135.33333333333334</ele><time>2026-03-29T11:20:18.07Z</time></trkpt><trkpt lat="43.1737265" lon="-8.2883064"><ele>135.0</ele><time>2026-03-29T11:20:19.07Z</time></trkpt><trkpt lat="43.1738468" lon="-8.2884534"><ele>135.0</ele><time>2026-03-29T11:20:20.07Z</time></trkpt><trkpt lat="43.1739832" lon="-8.2885852"><ele>135.0</ele><time>2026-03-29T11:20:21.07Z</time></trkpt><trkpt lat="43.1741284" lon="-8.2887022"><ele>135.0</ele><time>2026-03-29T11:20:22.071Z</time></trkpt><trkpt lat="43.1742742" lon="-8.2888001"><ele>138.33333333333334</ele><time>2026-03-29T11:20:23.071Z</time></trkpt><trkpt lat="43.1744312" lon="-8.288872"><ele>141.66666666666669</ele><time>2026-03-29T11:20:24.071Z</time></trkpt><trkpt lat="43.1745943" lon="-8.288907"><ele>145.0</ele><time>2026-03-29T11:20:25.07Z</time></trkpt><trkpt lat="43.17476" lon="-8.2889135"><ele>146.0</ele><time>2026-03-29T11:20:26.071Z</time></trkpt><trkpt lat="43.174889" lon="-8.2888696"><ele>147.0</ele><time>2026-03-29T11:20:27.07Z</time></trkpt><trkpt lat="43.1750083" lon="-8.2888218"><ele>148.0</ele><time>2026-03-29T11:20:28.07Z</time></trkpt><trkpt lat="43.1751309" lon="-8.2887773"><ele>149.0</ele><time>2026-03-29T11:20:29.07Z</time></trkpt><trkpt lat="43.1752682" lon="-8.2887554"><ele>149.0</ele><time>2026-03-29T11:20:30.07Z</time></trkpt><trkpt lat="43.1754185" lon="-8.2887563"><ele>149.0</ele><time>2026-03-29T11:20:31.071Z</time></trkpt><trkpt lat="43.1755753" lon="-8.288775"><ele>149.0</ele><time>2026-03-29T11:20:32.07Z</time></trkpt><trkpt lat="43.1757355" lon="-8.2887758"><ele>147.0</ele><time>2026-03-29T11:20:33.071Z</time></trkpt><trkpt lat="43.1758895" lon="-8.2887307"><ele>145.0</ele><time>2026-03-29T11:20:34.07Z</time></trkpt><trkpt lat="43.1760319" lon="-8.2886427"><ele>143.0</ele><time>2026-03-29T11:20:35.071Z</time></trkpt><trkpt lat="43.1761558" lon="-8.2885101"><ele>143.0</ele><time>2026-03-29T11:20:36.07Z</time></trkpt><trkpt lat="43.1762666" lon="-8.2883639"><ele>143.0</ele><time>2026-03-29T11:20:37.07Z</time></trkpt><trkpt lat="43.1763737" lon="-8.2882441"><ele>143.0</ele><time>2026-03-29T11:20:38.07Z</time></trkpt><trkpt lat="43.1764852" lon="-8.2881412"><ele>143.0</ele><time>2026-03-29T11:20:39.07Z</time></trkpt><trkpt lat="43.1765952" lon="-8.2880443"><ele>143.0</ele><time>2026-03-29T11:20:40.07Z</time></trkpt><trkpt lat="43.1766995" lon="-8.2879493"><ele>143.0</ele><time>2026-03-29T11:20:41.07Z</time></trkpt><trkpt lat="43.1768107" lon="-8.2878544"><ele>143.0</ele><time>2026-03-29T11:20:42.07Z</time></trkpt><trkpt lat="43.1769312" lon="-8.2877729"><ele>143.0</ele><time>2026-03-29T11:20:43.071Z</time></trkpt><trkpt lat="43.1770582" lon="-8.2877061"><ele>143.0</ele><time>2026-03-29T11:20:44.07Z</time></trkpt><trkpt lat="43.1771955" lon="-8.287644"><ele>143.0</ele><time>2026-03-29T11:20:45.07Z</time></trkpt><trkpt lat="43.1773255" lon="-8.2875796"><ele>143.0</ele><time>2026-03-29T11:20:46.07Z</time></trkpt><trkpt lat="43.1774507" lon="-8.2875096"><ele>143.0</ele><time>2026-03-29T11:20:47.071Z</time></trkpt><trkpt lat="43.1775777" lon="-8.2874382"><ele>145.0</ele><time>2026-03-29T11:20:48.071Z</time></trkpt><trkpt lat="43.1777153" lon="-8.2873795"><ele>147.0</ele><time>2026-03-29T11:20:49.071Z</time></trkpt><trkpt lat="43.1778618" lon="-8.2873369"><ele>149.0</ele><time>2026-03-29T11:20:50.07Z</time></trkpt><trkpt lat="43.1780126" lon="-8.2873034"><ele>151.0</ele><time>2026-03-29T11:20:51.07Z</time></trkpt><trkpt lat="43.1781693" lon="-8.2872697"><ele>149.66666666666669</ele><time>2026-03-29T11:20:52.07Z</time></trkpt><trkpt lat="43.1783275" lon="-8.2872321"><ele>148.33333333333334</ele><time>2026-03-29T11:20:53.07Z</time></trkpt><trkpt lat="43.1784897" lon="-8.2871967"><ele>147.0</ele><time>2026-03-29T11:20:54.071Z</time></trkpt><trkpt lat="43.1786627" lon="-8.2871554"><ele>147.0</ele><time>2026-03-29T11:20:55.07Z</time></trkpt><trkpt lat="43.1788287" lon="-8.2871233"><ele>147.0</ele><time>2026-03-29T11:20:56.07Z</time></trkpt><trkpt lat="43.1789881" lon="-8.2870942"><ele>147.0</ele><time>2026-03-29T11:20:57.07Z</time></trkpt><trkpt lat="43.1791463" lon="-8.287077"><ele>149.33333333333334</ele><time>2026-03-29T11:20:58.071Z</time></trkpt><trkpt lat="43.1793135" lon="-8.2870862"><ele>151.66666666666669</ele><time>2026-03-29T11:20:59.07Z</time></trkpt><trkpt lat="43.1794786" lon="-8.2871011"><ele>154.0</ele><time>2026-03-29T11:21:00.071Z</time></trkpt><trkpt lat="43.1796537" lon="-8.287117"><ele>154.0</ele><time>2026-03-29T11:21:01.071Z</time></trkpt><trkpt lat="43.1798178" lon="-8.2871337"><ele>154.0</ele><time>2026-03-29T11:21:02.07Z</time></trkpt><trkpt lat="43.1799814" lon="-8.2871342"><ele>154.0</ele><time>2026-03-29T11:21:03.07Z</time></trkpt><trkpt lat="43.1801439" lon="-8.2871086"><ele>157.0</ele><time>2026-03-29T11:21:04.07Z</time></trkpt><trkpt lat="43.1803027" lon="-8.2870563"><ele>160.0</ele><time>2026-03-29T11:21:05.07Z</time></trkpt><trkpt lat="43.1804598" lon="-8.2869807"><ele>163.0</ele><time>2026-03-29T11:21:06.07Z</time></trkpt><trkpt lat="43.180629" lon="-8.286884"><ele>167.33333333333334</ele><time>2026-03-29T11:21:07.07Z</time></trkpt><trkpt lat="43.1807505" lon="-8.2867418"><ele>171.66666666666666</ele><time>2026-03-29T11:21:08.071Z</time></trkpt><trkpt lat="43.1808685" lon="-8.2865848"><ele>176.0</ele><time>2026-03-29T11:21:09.07Z</time></trkpt><trkpt lat="43.1809953" lon="-8.2864426"><ele>170.0</ele><time>2026-03-29T11:21:10.07Z</time></trkpt><trkpt lat="43.1811278" lon="-8.286304"><ele>164.0</ele><time>2026-03-29T11:21:11.071Z</time></trkpt><trkpt lat="43.1812759" lon="-8.2862112"><ele>158.0</ele><time>2026-03-29T11:21:12.07Z</time></trkpt><trkpt lat="43.1814267" lon="-8.2861236"><ele>160.66666666666666</ele><time>2026-03-29T11:21:13.07Z</time></trkpt><trkpt lat="43.1815819" lon="-8.2860417"><ele>163.33333333333334</ele><time>2026-03-29T11:21:14.071Z</time></trkpt><trkpt lat="43.1817347" lon="-8.2859651"><ele>166.0</ele><time>2026-03-29T11:21:15.07Z</time></trkpt><trkpt lat="43.1818871" lon="-8.285883"><ele>166.0</ele><time>2026-03-29T11:21:16.07Z</time></trkpt><trkpt lat="43.182041" lon="-8.2857959"><ele>166.0</ele><time>2026-03-29T11:21:17.071Z</time></trkpt><trkpt lat="43.1821913" lon="-8.2857121"><ele>166.0</ele><time>2026-03-29T11:21:18.07Z</time></trkpt><trkpt lat="43.1823309" lon="-8.2856222"><ele>163.5</ele><time>2026-03-29T11:21:19.07Z</time></trkpt><trkpt lat="43.1824618" lon="-8.2855237"><ele>161.0</ele><time>2026-03-29T11:21:20.07Z</time></trkpt><trkpt lat="43.1825966" lon="-8.2854481"><ele>158.5</ele><time>2026-03-29T11:21:21.07Z</time></trkpt><trkpt lat="43.18274" lon="-8.2854081"><ele>156.0</ele><time>2026-03-29T11:21:22.07Z</time></trkpt><trkpt lat="43.1828831" lon="-8.2854071"><ele>156.0</ele><time>2026-03-29T11:21:23.071Z</time></trkpt><trkpt lat="43.1830254" lon="-8.2854027"><ele>156.0</ele><time>2026-03-29T11:21:24.07Z</time></trkpt><trkpt lat="43.1831672" lon="-8.2853391"><ele>156.0</ele><time>2026-03-29T11:21:25.071Z</time></trkpt><trkpt lat="43.1833087" lon="-8.2852463"><ele>156.0</ele><time>2026-03-29T11:21:26.071Z</time></trkpt><trkpt lat="43.1834245" lon="-8.2850728"><ele>156.33333333333334</ele><time>2026-03-29T11:21:27.07Z</time></trkpt><trkpt lat="43.1835453" lon="-8.2849109"><ele>156.66666666666669</ele><time>2026-03-29T11:21:28.07Z</time></trkpt><trkpt lat="43.1836604" lon="-8.2847615"><ele>157.0</ele><time>2026-03-29T11:21:29.071Z</time></trkpt><trkpt lat="43.1837584" lon="-8.2845954"><ele>155.0</ele><time>2026-03-29T11:21:30.071Z</time></trkpt><trkpt lat="43.1838307" lon="-8.2844054"><ele>153.0</ele><time>2026-03-29T11:21:31.07Z</time></trkpt><trkpt lat="43.1838947" lon="-8.2841953"><ele>151.0</ele><time>2026-03-29T11:21:32.07Z</time></trkpt><trkpt lat="43.183927" lon="-8.2839726"><ele>150.66666666666669</ele><time>2026-03-29T11:21:33.07Z</time></trkpt><trkpt lat="43.1839439" lon="-8.2837543"><ele>150.33333333333334</ele><time>2026-03-29T11:21:34.07Z</time></trkpt><trkpt lat="43.1839275" lon="-8.2835469"><ele>150.0</ele><time>2026-03-29T11:21:35.07Z</time></trkpt><trkpt lat="43.1839386" lon="-8.2833579"><ele>150.0</ele><time>2026-03-29T11:21:36.07Z</time></trkpt><trkpt lat="43.1839775" lon="-8.2831892"><ele>150.0</ele><time>2026-03-29T11:21:37.07Z</time></trkpt><trkpt lat="43.1840341" lon="-8.2830148"><ele>150.0</ele><time>2026-03-29T11:21:38.07Z</time></trkpt><trkpt lat="43.1840906" lon="-8.2828307"><ele>150.0</ele><time>2026-03-29T11:21:39.07Z</time></trkpt><trkpt lat="43.1841775" lon="-8.2826746"><ele>151.5</ele><time>2026-03-29T11:21:40.071Z</time></trkpt><trkpt lat="43.18427" lon="-8.2825317"><ele>153.0</ele><time>2026-03-29T11:21:41.07Z</time></trkpt><trkpt lat="43.1843672" lon="-8.2824017"><ele>154.5</ele><time>2026-03-29T11:21:42.071Z</time></trkpt><trkpt lat="43.1844872" lon="-8.2822855"><ele>156.0</ele><time>2026-03-29T11:21:43.071Z</time></trkpt><trkpt lat="43.1846286" lon="-8.282189"><ele>156.0</ele><time>2026-03-29T11:21:44.07Z</time></trkpt><trkpt lat="43.1847832" lon="-8.2821085"><ele>156.0</ele><time>2026-03-29T11:21:45.07Z</time></trkpt><trkpt lat="43.1849399" lon="-8.2820333"><ele>156.0</ele><time>2026-03-29T11:21:46.07Z</time></trkpt><trkpt lat="43.1851002" lon="-8.2819784"><ele>157.66666666666666</ele><time>2026-03-29T11:21:47.07Z</time></trkpt><trkpt lat="43.1852635" lon="-8.281974"><ele>159.33333333333331</ele><time>2026-03-29T11:21:48.07Z</time></trkpt><trkpt lat="43.1854333" lon="-8.28201"><ele>161.0</ele><time>2026-03-29T11:21:49.07Z</time></trkpt><trkpt lat="43.1856018" lon="-8.2820573"><ele>163.0</ele><time>2026-03-29T11:21:50.07Z</time></trkpt><trkpt lat="43.1857758" lon="-8.2821111"><ele>165.0</ele><time>2026-03-29T11:21:51.07Z</time></trkpt><trkpt lat="43.1859546" lon="-8.2821647"><ele>167.0</ele><time>2026-03-29T11:21:52.071Z</time></trkpt><trkpt lat="43.1861291" lon="-8.2822167"><ele>173.33333333333331</ele><time>2026-03-29T11:21:53.07Z</time></trkpt><trkpt lat="43.1862983" lon="-8.282273"><ele>179.66666666666666</ele><time>2026-03-29T11:21:54.07Z</time></trkpt><trkpt lat="43.1864532" lon="-8.2823093"><ele>186.0</ele><time>2026-03-29T11:21:55.07Z</time></trkpt><trkpt lat="43.1866047" lon="-8.282285"><ele>180.0</ele><time>2026-03-29T11:21:56.07Z</time></trkpt><trkpt lat="43.1867605" lon="-8.2822242"><ele>174.0</ele><time>2026-03-29T11:21:57.07Z</time></trkpt><trkpt lat="43.1869083" lon="-8.2821354"><ele>168.0</ele><time>2026-03-29T11:21:58.071Z</time></trkpt><trkpt lat="43.1870565" lon="-8.2820282"><ele>168.0</ele><time>2026-03-29T11:21:59.07Z</time></trkpt><trkpt lat="43.1872123" lon="-8.2819188"><ele>168.0</ele><time>2026-03-29T11:22:00.07Z</time></trkpt><trkpt lat="43.1873699" lon="-8.281809"><ele>168.0</ele><time>2026-03-29T11:22:01.071Z</time></trkpt><trkpt lat="43.1875312" lon="-8.2817027"><ele>167.66666666666666</ele><time>2026-03-29T11:22:02.071Z</time></trkpt><trkpt lat="43.1876931" lon="-8.2815939"><ele>167.33333333333331</ele><time>2026-03-29T11:22:03.07Z</time></trkpt><trkpt lat="43.1878624" lon="-8.2814855"><ele>167.0</ele><time>2026-03-29T11:22:04.071Z</time></trkpt><trkpt lat="43.1880347" lon="-8.2813786"><ele>169.0</ele><time>2026-03-29T11:22:05.07Z</time></trkpt><trkpt lat="43.1882073" lon="-8.281283"><ele>171.0</ele><time>2026-03-29T11:22:06.07Z</time></trkpt><trkpt lat="43.1883856" lon="-8.281192"><ele>173.0</ele><time>2026-03-29T11:22:07.07Z</time></trkpt><trkpt lat="43.1885617" lon="-8.2811078"><ele>173.0</ele><time>2026-03-29T11:22:08.071Z</time></trkpt><trkpt lat="43.188736" lon="-8.2810355"><ele>173.0</ele><time>2026-03-29T11:22:09.071Z</time></trkpt><trkpt lat="43.1889139" lon="-8.2809959"><ele>173.0</ele><time>2026-03-29T11:22:10.07Z</time></trkpt><trkpt lat="43.1891078" lon="-8.2809778"><ele>176.33333333333331</ele><time>2026-03-29T11:22:11.071Z</time></trkpt><trkpt lat="43.1892947" lon="-8.2809645"><ele>179.66666666666666</ele><time>2026-03-29T11:22:12.071Z</time></trkpt><trkpt lat="43.1894788" lon="-8.2809546"><ele>183.0</ele><time>2026-03-29T11:22:13.071Z</time></trkpt><trkpt lat="43.1896516" lon="-8.2809417"><ele>183.0</ele><time>2026-03-29T11:22:14.07Z</time></trkpt><trkpt lat="43.1898113" lon="-8.2808835"><ele>183.0</ele><time>2026-03-29T11:22:15.07Z</time></trkpt><trkpt lat="43.189936" lon="-8.2807633"><ele>183.0</ele><time>2026-03-29T11:22:16.071Z</time></trkpt><trkpt lat="43.1900453" lon="-8.2805988"><ele>186.0</ele><time>2026-03-29T11:22:17.07Z</time></trkpt><trkpt lat="43.1901471" lon="-8.2804101"><ele>189.0</ele><time>2026-03-29T11:22:18.071Z</time></trkpt><trkpt lat="43.1902578" lon="-8.2802027"><ele>192.0</ele><time>2026-03-29T11:22:19.07Z</time></trkpt><trkpt lat="43.1903797" lon="-8.2800007"><ele>192.0</ele><time>2026-03-29T11:22:20.07Z</time></trkpt><trkpt lat="43.1905071" lon="-8.2797957"><ele>192.0</ele><time>2026-03-29T11:22:21.071Z</time></trkpt><trkpt lat="43.1906367" lon="-8.2795944"><ele>192.0</ele><time>2026-03-29T11:22:22.071Z</time></trkpt><trkpt lat="43.1907733" lon="-8.279401"><ele>194.0</ele><time>2026-03-29T11:22:23.07Z</time></trkpt><trkpt lat="43.1909211" lon="-8.2792318"><ele>196.0</ele><time>2026-03-29T11:22:24.07Z</time></trkpt><trkpt lat="43.1910848" lon="-8.279092"><ele>198.0</ele><time>2026-03-29T11:22:25.071Z</time></trkpt><trkpt lat="43.1912535" lon="-8.2789639"><ele>197.0</ele><time>2026-03-29T11:22:26.07Z</time></trkpt><trkpt lat="43.1914223" lon="-8.2788413"><ele>196.0</ele><time>2026-03-29T11:22:27.07Z</time></trkpt><trkpt lat="43.191583" lon="-8.2787187"><ele>195.0</ele><time>2026-03-29T11:22:28.071Z</time></trkpt><trkpt lat="43.1917432" lon="-8.2785929"><ele>195.0</ele><time>2026-03-29T11:22:29.07Z</time></trkpt><trkpt lat="43.1918976" lon="-8.2784602"><ele>195.0</ele><time>2026-03-29T11:22:30.07Z</time></trkpt><trkpt lat="43.1920578" lon="-8.2783321"><ele>195.0</ele><time>2026-03-29T11:22:31.07Z</time></trkpt><trkpt lat="43.1922195" lon="-8.2782049"><ele>194.66666666666669</ele><time>2026-03-29T11:22:32.07Z</time></trkpt><trkpt lat="43.1923852" lon="-8.2780788"><ele>194.33333333333334</ele><time>2026-03-29T11:22:33.071Z</time></trkpt><trkpt lat="43.1925423" lon="-8.2779589"><ele>194.0</ele><time>2026-03-29T11:22:34.07Z</time></trkpt><trkpt lat="43.1927107" lon="-8.2778655"><ele>194.0</ele><time>2026-03-29T11:22:35.071Z</time></trkpt><trkpt lat="43.1928843" lon="-8.2777965"><ele>194.0</ele><time>2026-03-29T11:22:36.07Z</time></trkpt><trkpt lat="43.1930563" lon="-8.2777663"><ele>194.0</ele><time>2026-03-29T11:22:37.071Z</time></trkpt><trkpt lat="43.1932212" lon="-8.2777459"><ele>195.0</ele><time>2026-03-29T11:22:38.071Z</time></trkpt><trkpt lat="43.1933749" lon="-8.2777008"><ele>196.0</ele><time>2026-03-29T11:22:39.07Z</time></trkpt><trkpt lat="43.1935187" lon="-8.2776086"><ele>197.0</ele><time>2026-03-29T11:22:40.071Z</time></trkpt><trkpt lat="43.1936504" lon="-8.2774738"><ele>197.0</ele><time>2026-03-29T11:22:41.071Z</time></trkpt><trkpt lat="43.1937781" lon="-8.2773016"><ele>197.0</ele><time>2026-03-29T11:22:42.071Z</time></trkpt><trkpt lat="43.1939129" lon="-8.2771096"><ele>197.0</ele><time>2026-03-29T11:22:43.071Z</time></trkpt><trkpt lat="43.1940506" lon="-8.2769165"><ele>195.66666666666669</ele><time>2026-03-29T11:22:44.07Z</time></trkpt><trkpt lat="43.1941892" lon="-8.2767311"><ele>194.33333333333331</ele><time>2026-03-29T11:22:45.07Z</time></trkpt><trkpt lat="43.1943261" lon="-8.2765512"><ele>193.0</ele><time>2026-03-29T11:22:46.07Z</time></trkpt><trkpt lat="43.1944649" lon="-8.2763796"><ele>191.66666666666666</ele><time>2026-03-29T11:22:47.07Z</time></trkpt><trkpt lat="43.1946099" lon="-8.2762192"><ele>190.33333333333331</ele><time>2026-03-29T11:22:48.071Z</time></trkpt><trkpt lat="43.1947616" lon="-8.2760609"><ele>189.0</ele><time>2026-03-29T11:22:49.07Z</time></trkpt><trkpt lat="43.1949181" lon="-8.2759282"><ele>192.33333333333331</ele><time>2026-03-29T11:22:50.07Z</time></trkpt><trkpt lat="43.1950864" lon="-8.2758382"><ele>195.66666666666666</ele><time>2026-03-29T11:22:51.07Z</time></trkpt><trkpt lat="43.1952629" lon="-8.2757889"><ele>199.0</ele><time>2026-03-29T11:22:52.071Z</time></trkpt><trkpt lat="43.1954372" lon="-8.2757426"><ele>199.0</ele><time>2026-03-29T11:22:53.071Z</time></trkpt><trkpt lat="43.1955998" lon="-8.2756484"><ele>199.0</ele><time>2026-03-29T11:22:54.07Z</time></trkpt><trkpt lat="43.1957539" lon="-8.2755074"><ele>199.0</ele><time>2026-03-29T11:22:55.07Z</time></trkpt><trkpt lat="43.1959056" lon="-8.2753509"><ele>198.66666666666666</ele><time>2026-03-29T11:22:56.07Z</time></trkpt><trkpt lat="43.1960596" lon="-8.275197"><ele>198.33333333333331</ele><time>2026-03-29T11:22:57.07Z</time></trkpt><trkpt lat="43.1962073" lon="-8.2750468"><ele>198.0</ele><time>2026-03-29T11:22:58.07Z</time></trkpt><trkpt lat="43.1963401" lon="-8.2748853"><ele>198.33333333333331</ele><time>2026-03-29T11:22:59.07Z</time></trkpt><trkpt lat="43.1964513" lon="-8.2746853"><ele>198.66666666666666</ele><time>2026-03-29T11:23:00.07Z</time></trkpt><trkpt lat="43.196554" lon="-8.2744868"><ele>199.0</ele><time>2026-03-29T11:23:01.071Z</time></trkpt><trkpt lat="43.1966422" lon="-8.2742175"><ele>197.66666666666666</ele><time>2026-03-29T11:23:02.07Z</time></trkpt><trkpt lat="43.1967264" lon="-8.2739509"><ele>196.33333333333331</ele><time>2026-03-29T11:23:03.07Z</time></trkpt><trkpt lat="43.1968148" lon="-8.2736805"><ele>195.0</ele><time>2026-03-29T11:23:04.071Z</time></trkpt><trkpt lat="43.1969011" lon="-8.2734081"><ele>195.0</ele><time>2026-03-29T11:23:05.07Z</time></trkpt><trkpt lat="43.1969919" lon="-8.273134"><ele>195.0</ele><time>2026-03-29T11:23:06.07Z</time></trkpt><trkpt lat="43.1970702" lon="-8.2728621"><ele>195.0</ele><time>2026-03-29T11:23:07.07Z</time></trkpt><trkpt lat="43.1971465" lon="-8.27259"><ele>195.0</ele><time>2026-03-29T11:23:08.07Z</time></trkpt><trkpt lat="43.1972105" lon="-8.2723212"><ele>195.0</ele><time>2026-03-29T11:23:09.07Z</time></trkpt><trkpt lat="43.1972616" lon="-8.2720556"><ele>195.0</ele><time>2026-03-29T11:23:10.07Z</time></trkpt><trkpt lat="43.197301" lon="-8.2717943"><ele>195.33333333333331</ele><time>2026-03-29T11:23:11.07Z</time></trkpt><trkpt lat="43.1973347" lon="-8.2715401"><ele>195.66666666666666</ele><time>2026-03-29T11:23:12.07Z</time></trkpt><trkpt lat="43.1973696" lon="-8.2712996"><ele>196.0</ele><time>2026-03-29T11:23:13.07Z</time></trkpt><trkpt lat="43.1974127" lon="-8.2710741"><ele>191.66666666666666</ele><time>2026-03-29T11:23:14.071Z</time></trkpt><trkpt lat="43.197473" lon="-8.2708685"><ele>187.33333333333331</ele><time>2026-03-29T11:23:15.07Z</time></trkpt><trkpt lat="43.1975487" lon="-8.2706968"><ele>183.0</ele><time>2026-03-29T11:23:16.071Z</time></trkpt><trkpt lat="43.1976774" lon="-8.2705838"><ele>181.66666666666666</ele><time>2026-03-29T11:23:17.07Z</time></trkpt><trkpt lat="43.1978237" lon="-8.2705195"><ele>180.33333333333331</ele><time>2026-03-29T11:23:18.071Z</time></trkpt><trkpt lat="43.1979906" lon="-8.2704789"><ele>179.0</ele><time>2026-03-29T11:23:19.071Z</time></trkpt><trkpt lat="43.198169" lon="-8.2704537"><ele>179.0</ele><time>2026-03-29T11:23:20.07Z</time></trkpt><trkpt lat="43.1983536" lon="-8.2704522"><ele>179.0</ele><time>2026-03-29T11:23:21.07Z</time></trkpt><trkpt lat="43.1985428" lon="-8.270477"><ele>179.0</ele><time>2026-03-29T11:23:22.07Z</time></trkpt><trkpt lat="43.1987291" lon="-8.2705077"><ele>179.0</ele><time>2026-03-29T11:23:23.07Z</time></trkpt><trkpt lat="43.1989233" lon="-8.2705053"><ele>179.0</ele><time>2026-03-29T11:23:24.071Z</time></trkpt><trkpt lat="43.1991125" lon="-8.2704471"><ele>179.0</ele><time>2026-03-29T11:23:25.071Z</time></trkpt><trkpt lat="43.1992944" lon="-8.270349"><ele>178.33333333333331</ele><time>2026-03-29T11:23:26.07Z</time></trkpt><trkpt lat="43.199479" lon="-8.270238"><ele>177.66666666666666</ele><time>2026-03-29T11:23:27.07Z</time></trkpt><trkpt lat="43.1996713" lon="-8.2701284"><ele>177.0</ele><time>2026-03-29T11:23:28.07Z</time></trkpt><trkpt lat="43.1998499" lon="-8.2700154"><ele>176.33333333333334</ele><time>2026-03-29T11:23:29.071Z</time></trkpt><trkpt lat="43.20002" lon="-8.2699091"><ele>175.66666666666669</ele><time>2026-03-29T11:23:30.07Z</time></trkpt><trkpt lat="43.2001796" lon="-8.2698112"><ele>175.0</ele><time>2026-03-29T11:23:31.07Z</time></trkpt><trkpt lat="43.2003306" lon="-8.2697065"><ele>174.33333333333334</ele><time>2026-03-29T11:23:32.07Z</time></trkpt><trkpt lat="43.2004521" lon="-8.2695677"><ele>173.66666666666666</ele><time>2026-03-29T11:23:33.071Z</time></trkpt><trkpt lat="43.2005496" lon="-8.2693969"><ele>173.0</ele><time>2026-03-29T11:23:34.07Z</time></trkpt><trkpt lat="43.2006109" lon="-8.2691961"><ele>173.0</ele><time>2026-03-29T11:23:35.071Z</time></trkpt><trkpt lat="43.2006573" lon="-8.2689797"><ele>173.0</ele><time>2026-03-29T11:23:36.071Z</time></trkpt><trkpt lat="43.2007016" lon="-8.2687562"><ele>173.0</ele><time>2026-03-29T11:23:37.07Z</time></trkpt><trkpt lat="43.2007498" lon="-8.2685249"><ele>171.66666666666666</ele><time>2026-03-29T11:23:38.07Z</time></trkpt><trkpt lat="43.2007916" lon="-8.2682909"><ele>170.33333333333334</ele><time>2026-03-29T11:23:39.07Z</time></trkpt><trkpt lat="43.2008424" lon="-8.2680335"><ele>169.0</ele><time>2026-03-29T11:23:40.071Z</time></trkpt><trkpt lat="43.2008864" lon="-8.2677759"><ele>169.0</ele><time>2026-03-29T11:23:41.071Z</time></trkpt><trkpt lat="43.2009086" lon="-8.2675161"><ele>169.0</ele><time>2026-03-29T11:23:42.07Z</time></trkpt><trkpt lat="43.2009151" lon="-8.2672601"><ele>169.0</ele><time>2026-03-29T11:23:43.07Z</time></trkpt><trkpt lat="43.2009212" lon="-8.2670179"><ele>169.33333333333334</ele><time>2026-03-29T11:23:44.071Z</time></trkpt><trkpt lat="43.2009184" lon="-8.2667819"><ele>169.66666666666666</ele><time>2026-03-29T11:23:45.071Z</time></trkpt><trkpt lat="43.2009825" lon="-8.266572"><ele>170.0</ele><time>2026-03-29T11:23:46.071Z</time></trkpt><trkpt lat="43.2010144" lon="-8.2663553"><ele>171.33333333333331</ele><time>2026-03-29T11:23:47.071Z</time></trkpt><trkpt lat="43.2010667" lon="-8.2661417"><ele>172.66666666666666</ele><time>2026-03-29T11:23:48.07Z</time></trkpt><trkpt lat="43.2012234" lon="-8.2660182"><ele>174.0</ele><time>2026-03-29T11:23:49.07Z</time></trkpt><trkpt lat="43.2013738" lon="-8.2658815"><ele>173.33333333333334</ele><time>2026-03-29T11:23:50.071Z</time></trkpt><trkpt lat="43.2015426" lon="-8.2657423"><ele>172.66666666666669</ele><time>2026-03-29T11:23:51.071Z</time></trkpt><trkpt lat="43.2017189" lon="-8.2655972"><ele>172.0</ele><time>2026-03-29T11:23:52.071Z</time></trkpt><trkpt lat="43.2019035" lon="-8.2654463"><ele>171.66666666666669</ele><time>2026-03-29T11:23:53.07Z</time></trkpt><trkpt lat="43.202081" lon="-8.265297"><ele>171.33333333333334</ele><time>2026-03-29T11:23:54.07Z</time></trkpt><trkpt lat="43.2022651" lon="-8.2651615"><ele>171.0</ele><time>2026-03-29T11:23:55.07Z</time></trkpt><trkpt lat="43.2024491" lon="-8.2650281"><ele>171.0</ele><time>2026-03-29T11:23:56.071Z</time></trkpt><trkpt lat="43.2026253" lon="-8.2649085"><ele>171.0</ele><time>2026-03-29T11:23:57.071Z</time></trkpt><trkpt lat="43.2027871" lon="-8.2648013"><ele>171.0</ele><time>2026-03-29T11:23:58.07Z</time></trkpt><trkpt lat="43.2029632" lon="-8.2647278"><ele>171.0</ele><time>2026-03-29T11:23:59.07Z</time></trkpt><trkpt lat="43.2031342" lon="-8.2646828"><ele>171.0</ele><time>2026-03-29T11:24:00.071Z</time></trkpt><trkpt lat="43.203309" lon="-8.2646626"><ele>171.0</ele><time>2026-03-29T11:24:01.07Z</time></trkpt><trkpt lat="43.2034861" lon="-8.2646467"><ele>171.0</ele><time>2026-03-29T11:24:02.071Z</time></trkpt><trkpt lat="43.203661" lon="-8.2646339"><ele>171.0</ele><time>2026-03-29T11:24:03.071Z</time></trkpt><trkpt lat="43.203835" lon="-8.2646149"><ele>171.0</ele><time>2026-03-29T11:24:04.071Z</time></trkpt><trkpt lat="43.2040201" lon="-8.2645913"><ele>169.75</ele><time>2026-03-29T11:24:05.07Z</time></trkpt><trkpt lat="43.2041677" lon="-8.2645768"><ele>168.5</ele><time>2026-03-29T11:24:06.07Z</time></trkpt><trkpt lat="43.2043255" lon="-8.2645591"><ele>167.25</ele><time>2026-03-29T11:24:07.07Z</time></trkpt><trkpt lat="43.2044612" lon="-8.2645484"><ele>166.0</ele><time>2026-03-29T11:24:08.07Z</time></trkpt><trkpt lat="43.2045886" lon="-8.2645308"><ele>166.0</ele><time>2026-03-29T11:24:09.07Z</time></trkpt><trkpt lat="43.2047023" lon="-8.2645202"><ele>166.0</ele><time>2026-03-29T11:24:10.07Z</time></trkpt><trkpt lat="43.204809" lon="-8.2645073"><ele>166.0</ele><time>2026-03-29T11:24:11.07Z</time></trkpt><trkpt lat="43.2049134" lon="-8.2644978"><ele>166.0</ele><time>2026-03-29T11:24:12.07Z</time></trkpt><trkpt lat="43.2050219" lon="-8.2644876"><ele>166.0</ele><time>2026-03-29T11:24:13.07Z</time></trkpt><trkpt lat="43.2051414" lon="-8.2644786"><ele>165.0</ele><time>2026-03-29T11:24:14.07Z</time></trkpt><trkpt lat="43.2052698" lon="-8.2644651"><ele>164.0</ele><time>2026-03-29T11:24:15.07Z</time></trkpt><trkpt lat="43.2054055" lon="-8.2644417"><ele>163.0</ele><time>2026-03-29T11:24:16.071Z</time></trkpt><trkpt lat="43.205545" lon="-8.2644167"><ele>162.0</ele><time>2026-03-29T11:24:17.071Z</time></trkpt><trkpt lat="43.2056894" lon="-8.2643949"><ele>160.66666666666666</ele><time>2026-03-29T11:24:18.071Z</time></trkpt><trkpt lat="43.2058444" lon="-8.2643928"><ele>159.33333333333331</ele><time>2026-03-29T11:24:19.071Z</time></trkpt><trkpt lat="43.2059996" lon="-8.2644223"><ele>158.0</ele><time>2026-03-29T11:24:20.071Z</time></trkpt><trkpt lat="43.2061629" lon="-8.2644708"><ele>158.0</ele><time>2026-03-29T11:24:21.071Z</time></trkpt><trkpt lat="43.2063366" lon="-8.2645227"><ele>158.0</ele><time>2026-03-29T11:24:22.07Z</time></trkpt><trkpt lat="43.2065163" lon="-8.2645695"><ele>158.0</ele><time>2026-03-29T11:24:23.071Z</time></trkpt><trkpt lat="43.2066943" lon="-8.2645982"><ele>157.0</ele><time>2026-03-29T11:24:24.07Z</time></trkpt><trkpt lat="43.2068689" lon="-8.2646054"><ele>156.0</ele><time>2026-03-29T11:24:25.07Z</time></trkpt><trkpt lat="43.2070384" lon="-8.2645998"><ele>155.0</ele><time>2026-03-29T11:24:26.071Z</time></trkpt><trkpt lat="43.2072033" lon="-8.2645801"><ele>154.33333333333331</ele><time>2026-03-29T11:24:27.071Z</time></trkpt><trkpt lat="43.2073541" lon="-8.2645438"><ele>153.66666666666666</ele><time>2026-03-29T11:24:28.071Z</time></trkpt><trkpt lat="43.2075275" lon="-8.2644637"><ele>153.0</ele><time>2026-03-29T11:24:29.07Z</time></trkpt><trkpt lat="43.2076908" lon="-8.2643803"><ele>153.0</ele><time>2026-03-29T11:24:30.07Z</time></trkpt><trkpt lat="43.2078578" lon="-8.2642986"><ele>153.0</ele><time>2026-03-29T11:24:31.07Z</time></trkpt><trkpt lat="43.2080241" lon="-8.2642184"><ele>153.0</ele><time>2026-03-29T11:24:32.071Z</time></trkpt><trkpt lat="43.2081819" lon="-8.2641373"><ele>150.66666666666666</ele><time>2026-03-29T11:24:33.07Z</time></trkpt><trkpt lat="43.2083452" lon="-8.2640586"><ele>148.33333333333331</ele><time>2026-03-29T11:24:34.071Z</time></trkpt><trkpt lat="43.2084924" lon="-8.2639516"><ele>146.0</ele><time>2026-03-29T11:24:35.07Z</time></trkpt><trkpt lat="43.2086348" lon="-8.2638398"><ele>146.0</ele><time>2026-03-29T11:24:36.07Z</time></trkpt><trkpt lat="43.2087652" lon="-8.2636583"><ele>146.0</ele><time>2026-03-29T11:24:37.071Z</time></trkpt><trkpt lat="43.2088969" lon="-8.2634804"><ele>146.0</ele><time>2026-03-29T11:24:38.07Z</time></trkpt><trkpt lat="43.2090297" lon="-8.2633116"><ele>141.33333333333331</ele><time>2026-03-29T11:24:39.071Z</time></trkpt><trkpt lat="43.2091619" lon="-8.2631588"><ele>136.66666666666666</ele><time>2026-03-29T11:24:40.07Z</time></trkpt><trkpt lat="43.2092952" lon="-8.2630368"><ele>132.0</ele><time>2026-03-29T11:24:41.07Z</time></trkpt><trkpt lat="43.2094293" lon="-8.2629556"><ele>132.0</ele><time>2026-03-29T11:24:42.07Z</time></trkpt><trkpt lat="43.209602" lon="-8.2629381"><ele>132.0</ele><time>2026-03-29T11:24:43.07Z</time></trkpt><trkpt lat="43.2097809" lon="-8.2629619"><ele>132.0</ele><time>2026-03-29T11:24:44.07Z</time></trkpt><trkpt lat="43.2099721" lon="-8.2630054"><ele>130.33333333333334</ele><time>2026-03-29T11:24:45.07Z</time></trkpt><trkpt lat="43.2101549" lon="-8.2630481"><ele>128.66666666666669</ele><time>2026-03-29T11:24:46.07Z</time></trkpt><trkpt lat="43.2103291" lon="-8.2630899"><ele>127.0</ele><time>2026-03-29T11:24:47.07Z</time></trkpt><trkpt lat="43.210494" lon="-8.263089"><ele>127.0</ele><time>2026-03-29T11:24:48.07Z</time></trkpt><trkpt lat="43.2106446" lon="-8.2630436"><ele>127.0</ele><time>2026-03-29T11:24:49.07Z</time></trkpt><trkpt lat="43.210764" lon="-8.2629539"><ele>127.0</ele><time>2026-03-29T11:24:50.07Z</time></trkpt><trkpt lat="43.2108558" lon="-8.2628326"><ele>127.0</ele><time>2026-03-29T11:24:51.07Z</time></trkpt><trkpt lat="43.2109214" lon="-8.2626663"><ele>126.33333333333334</ele><time>2026-03-29T11:24:52.07Z</time></trkpt><trkpt lat="43.2109997" lon="-8.2624893"><ele>125.66666666666666</ele><time>2026-03-29T11:24:53.07Z</time></trkpt><trkpt lat="43.2110894" lon="-8.2623266"><ele>125.0</ele><time>2026-03-29T11:24:54.07Z</time></trkpt><trkpt lat="43.2112122" lon="-8.2621691"><ele>125.0</ele><time>2026-03-29T11:24:55.07Z</time></trkpt><trkpt lat="43.2113778" lon="-8.261996"><ele>125.0</ele><time>2026-03-29T11:24:56.07Z</time></trkpt><trkpt lat="43.2115349" lon="-8.2618291"><ele>125.0</ele><time>2026-03-29T11:24:57.07Z</time></trkpt><trkpt lat="43.2116898" lon="-8.2616727"><ele>124.66666666666666</ele><time>2026-03-29T11:24:58.07Z</time></trkpt><trkpt lat="43.2118424" lon="-8.2615441"><ele>124.33333333333334</ele><time>2026-03-29T11:24:59.07Z</time></trkpt><trkpt lat="43.2120095" lon="-8.2614605"><ele>124.0</ele><time>2026-03-29T11:25:00.07Z</time></trkpt><trkpt lat="43.2121845" lon="-8.2613886"><ele>121.0</ele><time>2026-03-29T11:25:01.071Z</time></trkpt><trkpt lat="43.2123907" lon="-8.26138"><ele>118.0</ele><time>2026-03-29T11:25:02.07Z</time></trkpt><trkpt lat="43.2125884" lon="-8.2613521"><ele>115.0</ele><time>2026-03-29T11:25:03.071Z</time></trkpt><trkpt lat="43.2127861" lon="-8.2613241"><ele>115.0</ele><time>2026-03-29T11:25:04.071Z</time></trkpt><trkpt lat="43.2129908" lon="-8.2612619"><ele>115.0</ele><time>2026-03-29T11:25:05.07Z</time></trkpt><trkpt lat="43.2131973" lon="-8.2611841"><ele>115.0</ele><time>2026-03-29T11:25:06.071Z</time></trkpt><trkpt lat="43.2133886" lon="-8.2611023"><ele>119.33333333333334</ele><time>2026-03-29T11:25:07.07Z</time></trkpt><trkpt lat="43.2135603" lon="-8.2610267"><ele>123.66666666666666</ele><time>2026-03-29T11:25:08.07Z</time></trkpt><trkpt lat="43.2137193" lon="-8.260939"><ele>128.0</ele><time>2026-03-29T11:25:09.07Z</time></trkpt><trkpt lat="43.2138415" lon="-8.2608101"><ele>128.0</ele><time>2026-03-29T11:25:10.071Z</time></trkpt><trkpt lat="43.2139173" lon="-8.2606339"><ele>128.0</ele><time>2026-03-29T11:25:11.071Z</time></trkpt><trkpt lat="43.213946" lon="-8.2604278"><ele>128.0</ele><time>2026-03-29T11:25:12.07Z</time></trkpt><trkpt lat="43.2139572" lon="-8.2601972"><ele>126.66666666666666</ele><time>2026-03-29T11:25:13.07Z</time></trkpt><trkpt lat="43.2139762" lon="-8.2599518"><ele>125.33333333333334</ele><time>2026-03-29T11:25:14.071Z</time></trkpt><trkpt lat="43.2140255" lon="-8.2597018"><ele>124.0</ele><time>2026-03-29T11:25:15.071Z</time></trkpt><trkpt lat="43.2140764" lon="-8.2594813"><ele>125.0</ele><time>2026-03-29T11:25:16.071Z</time></trkpt><trkpt lat="43.2141485" lon="-8.2592873"><ele>126.0</ele><time>2026-03-29T11:25:17.071Z</time></trkpt><trkpt lat="43.2142469" lon="-8.2591035"><ele>127.0</ele><time>2026-03-29T11:25:18.071Z</time></trkpt><trkpt lat="43.2143735" lon="-8.2589369"><ele>127.0</ele><time>2026-03-29T11:25:19.07Z</time></trkpt><trkpt lat="43.2145242" lon="-8.2587843"><ele>127.0</ele><time>2026-03-29T11:25:20.071Z</time></trkpt><trkpt lat="43.2146988" lon="-8.2586612"><ele>127.0</ele><time>2026-03-29T11:25:21.07Z</time></trkpt><trkpt lat="43.2148965" lon="-8.2585685"><ele>126.0</ele><time>2026-03-29T11:25:22.07Z</time></trkpt><trkpt lat="43.2150829" lon="-8.2584812"><ele>125.0</ele><time>2026-03-29T11:25:23.071Z</time></trkpt><trkpt lat="43.2152664" lon="-8.258398"><ele>124.0</ele><time>2026-03-29T11:25:24.07Z</time></trkpt><trkpt lat="43.2154482" lon="-8.2583384"><ele>124.0</ele><time>2026-03-29T11:25:25.071Z</time></trkpt><trkpt lat="43.2156199" lon="-8.2583143"><ele>124.0</ele><time>2026-03-29T11:25:26.07Z</time></trkpt><trkpt lat="43.2157751" lon="-8.2583197"><ele>124.0</ele><time>2026-03-29T11:25:27.07Z</time></trkpt><trkpt lat="43.2159147" lon="-8.2583366"><ele>122.5</ele><time>2026-03-29T11:25:28.07Z</time></trkpt><trkpt lat="43.2160353" lon="-8.2583775"><ele>121.0</ele><time>2026-03-29T11:25:29.07Z</time></trkpt><trkpt lat="43.2161313" lon="-8.2585314"><ele>119.5</ele><time>2026-03-29T11:25:30.07Z</time></trkpt><trkpt lat="43.216245" lon="-8.2586051"><ele>118.0</ele><time>2026-03-29T11:25:31.07Z</time></trkpt><trkpt lat="43.216344" lon="-8.2585704"><ele>118.0</ele><time>2026-03-29T11:25:32.07Z</time></trkpt><trkpt lat="43.2164394" lon="-8.2584749"><ele>118.0</ele><time>2026-03-29T11:25:33.07Z</time></trkpt><trkpt lat="43.2165149" lon="-8.2583094"><ele>118.0</ele><time>2026-03-29T11:25:34.07Z</time></trkpt><trkpt lat="43.2165694" lon="-8.2580984"><ele>118.0</ele><time>2026-03-29T11:25:35.07Z</time></trkpt><trkpt lat="43.2166231" lon="-8.2578686"><ele>117.33333333333334</ele><time>2026-03-29T11:25:36.07Z</time></trkpt><trkpt lat="43.2167088" lon="-8.2576414"><ele>116.66666666666666</ele><time>2026-03-29T11:25:37.07Z</time></trkpt><trkpt lat="43.2168361" lon="-8.2574156"><ele>116.0</ele><time>2026-03-29T11:25:38.071Z</time></trkpt><trkpt lat="43.2169751" lon="-8.2572037"><ele>116.0</ele><time>2026-03-29T11:25:39.071Z</time></trkpt><trkpt lat="43.2171258" lon="-8.2570317"><ele>116.0</ele><time>2026-03-29T11:25:40.07Z</time></trkpt><trkpt lat="43.2172762" lon="-8.2568789"><ele>116.0</ele><time>2026-03-29T11:25:41.07Z</time></trkpt><trkpt lat="43.2174274" lon="-8.2567305"><ele>116.33333333333333</ele><time>2026-03-29T11:25:42.07Z</time></trkpt><trkpt lat="43.2175716" lon="-8.2565876"><ele>116.66666666666666</ele><time>2026-03-29T11:25:43.071Z</time></trkpt><trkpt lat="43.2177203" lon="-8.256453"><ele>117.0</ele><time>2026-03-29T11:25:44.07Z</time></trkpt><trkpt lat="43.2178439" lon="-8.2563227"><ele>117.0</ele><time>2026-03-29T11:25:45.07Z</time></trkpt><trkpt lat="43.2179721" lon="-8.256193"><ele>117.0</ele><time>2026-03-29T11:25:46.07Z</time></trkpt><trkpt lat="43.2180936" lon="-8.2560723"><ele>117.0</ele><time>2026-03-29T11:25:47.07Z</time></trkpt><trkpt lat="43.2182093" lon="-8.2559588"><ele>117.75</ele><time>2026-03-29T11:25:48.07Z</time></trkpt><trkpt lat="43.2183238" lon="-8.255859"><ele>118.5</ele><time>2026-03-29T11:25:49.07Z</time></trkpt><trkpt lat="43.2184346" lon="-8.2557726"><ele>119.25</ele><time>2026-03-29T11:25:50.07Z</time></trkpt><trkpt lat="43.2185403" lon="-8.2556967"><ele>120.0</ele><time>2026-03-29T11:25:51.07Z</time></trkpt><trkpt lat="43.2186415" lon="-8.2556168"><ele>118.75</ele><time>2026-03-29T11:25:52.07Z</time></trkpt><trkpt lat="43.2187323" lon="-8.2555263"><ele>117.5</ele><time>2026-03-29T11:25:53.07Z</time></trkpt><trkpt lat="43.2188253" lon="-8.2554301"><ele>116.25</ele><time>2026-03-29T11:25:54.07Z</time></trkpt><trkpt lat="43.2189451" lon="-8.2553695"><ele>115.0</ele><time>2026-03-29T11:25:55.07Z</time></trkpt><trkpt lat="43.2190858" lon="-8.2553242"><ele>115.0</ele><time>2026-03-29T11:25:56.07Z</time></trkpt><trkpt lat="43.2192396" lon="-8.2553079"><ele>115.0</ele><time>2026-03-29T11:25:57.071Z</time></trkpt><trkpt lat="43.219387" lon="-8.2553238"><ele>115.0</ele><time>2026-03-29T11:25:58.071Z</time></trkpt><trkpt lat="43.2195252" lon="-8.2553194"><ele>115.0</ele><time>2026-03-29T11:25:59.07Z</time></trkpt><trkpt lat="43.2196537" lon="-8.2552615"><ele>115.0</ele><time>2026-03-29T11:26:00.071Z</time></trkpt><trkpt lat="43.2197608" lon="-8.2551088"><ele>115.0</ele><time>2026-03-29T11:26:01.07Z</time></trkpt><trkpt lat="43.2198581" lon="-8.2549055"><ele>115.0</ele><time>2026-03-29T11:26:02.07Z</time></trkpt><trkpt lat="43.2199459" lon="-8.2546581"><ele>118.0</ele><time>2026-03-29T11:26:03.07Z</time></trkpt><trkpt lat="43.2200195" lon="-8.2544303"><ele>121.0</ele><time>2026-03-29T11:26:04.071Z</time></trkpt><trkpt lat="43.2200942" lon="-8.2542321"><ele>124.0</ele><time>2026-03-29T11:26:05.07Z</time></trkpt><trkpt lat="43.2201861" lon="-8.2540668"><ele>123.33333333333334</ele><time>2026-03-29T11:26:06.07Z</time></trkpt><trkpt lat="43.2202982" lon="-8.2539284"><ele>122.66666666666666</ele><time>2026-03-29T11:26:07.07Z</time></trkpt><trkpt lat="43.2204385" lon="-8.2538224"><ele>122.0</ele><time>2026-03-29T11:26:08.07Z</time></trkpt><trkpt lat="43.2205865" lon="-8.2537316"><ele>123.33333333333333</ele><time>2026-03-29T11:26:09.07Z</time></trkpt><trkpt lat="43.2207379" lon="-8.2536585"><ele>124.66666666666666</ele><time>2026-03-29T11:26:10.07Z</time></trkpt><trkpt lat="43.2208899" lon="-8.2535989"><ele>126.0</ele><time>2026-03-29T11:26:11.071Z</time></trkpt><trkpt lat="43.2210399" lon="-8.2535357"><ele>126.0</ele><time>2026-03-29T11:26:12.071Z</time></trkpt><trkpt lat="43.2211942" lon="-8.2534703"><ele>126.0</ele><time>2026-03-29T11:26:13.07Z</time></trkpt><trkpt lat="43.2213561" lon="-8.2534108"><ele>126.0</ele><time>2026-03-29T11:26:14.07Z</time></trkpt><trkpt lat="43.2215217" lon="-8.2533603"><ele>125.66666666666666</ele><time>2026-03-29T11:26:15.071Z</time></trkpt><trkpt lat="43.2216962" lon="-8.2533219"><ele>125.33333333333333</ele><time>2026-03-29T11:26:16.07Z</time></trkpt><trkpt lat="43.2218723" lon="-8.2532809"><ele>125.0</ele><time>2026-03-29T11:26:17.07Z</time></trkpt><trkpt lat="43.2220483" lon="-8.2532431"><ele>125.0</ele><time>2026-03-29T11:26:18.071Z</time></trkpt><trkpt lat="43.2222227" lon="-8.253206"><ele>125.0</ele><time>2026-03-29T11:26:19.07Z</time></trkpt><trkpt lat="43.2223975" lon="-8.253169"><ele>125.0</ele><time>2026-03-29T11:26:20.07Z</time></trkpt><trkpt lat="43.2225749" lon="-8.2531393"><ele>121.33333333333333</ele><time>2026-03-29T11:26:21.07Z</time></trkpt><trkpt lat="43.2227226" lon="-8.2530996"><ele>117.66666666666666</ele><time>2026-03-29T11:26:22.07Z</time></trkpt><trkpt lat="43.2228672" lon="-8.2530313"><ele>114.0</ele><time>2026-03-29T11:26:23.071Z</time></trkpt><trkpt lat="43.2230051" lon="-8.2529262"><ele>114.33333333333334</ele><time>2026-03-29T11:26:24.07Z</time></trkpt><trkpt lat="43.22315" lon="-8.2528045"><ele>114.66666666666667</ele><time>2026-03-29T11:26:25.07Z</time></trkpt><trkpt lat="43.2232981" lon="-8.2526875"><ele>115.0</ele><time>2026-03-29T11:26:26.07Z</time></trkpt><trkpt lat="43.2234619" lon="-8.2525639"><ele>115.0</ele><time>2026-03-29T11:26:27.07Z</time></trkpt><trkpt lat="43.2236325" lon="-8.252444"><ele>115.0</ele><time>2026-03-29T11:26:28.07Z</time></trkpt><trkpt lat="43.2237912" lon="-8.2523364"><ele>115.0</ele><time>2026-03-29T11:26:29.071Z</time></trkpt><trkpt lat="43.2239526" lon="-8.2522555"><ele>114.0</ele><time>2026-03-29T11:26:30.071Z</time></trkpt><trkpt lat="43.2241089" lon="-8.2521753"><ele>113.0</ele><time>2026-03-29T11:26:31.07Z</time></trkpt><trkpt lat="43.2242598" lon="-8.2520941"><ele>112.0</ele><time>2026-03-29T11:26:32.071Z</time></trkpt><trkpt lat="43.224401" lon="-8.2520023"><ele>112.0</ele><time>2026-03-29T11:26:33.071Z</time></trkpt><trkpt lat="43.2245157" lon="-8.2518815"><ele>112.0</ele><time>2026-03-29T11:26:34.07Z</time></trkpt><trkpt lat="43.2246067" lon="-8.2517261"><ele>112.0</ele><time>2026-03-29T11:26:35.07Z</time></trkpt><trkpt lat="43.2246774" lon="-8.2515444"><ele>112.0</ele><time>2026-03-29T11:26:36.07Z</time></trkpt><trkpt lat="43.2247495" lon="-8.2513482"><ele>112.33333333333334</ele><time>2026-03-29T11:26:37.07Z</time></trkpt><trkpt lat="43.2248175" lon="-8.2511401"><ele>112.66666666666666</ele><time>2026-03-29T11:26:38.07Z</time></trkpt><trkpt lat="43.2248906" lon="-8.2509399"><ele>113.0</ele><time>2026-03-29T11:26:39.07Z</time></trkpt><trkpt lat="43.225003" lon="-8.250753"><ele>112.0</ele><time>2026-03-29T11:26:40.071Z</time></trkpt><trkpt lat="43.2251176" lon="-8.2505836"><ele>111.0</ele><time>2026-03-29T11:26:41.071Z</time></trkpt><trkpt lat="43.2252287" lon="-8.2504175"><ele>110.0</ele><time>2026-03-29T11:26:42.071Z</time></trkpt><trkpt lat="43.2253461" lon="-8.2502548"><ele>110.0</ele><time>2026-03-29T11:26:43.07Z</time></trkpt><trkpt lat="43.225478" lon="-8.2501008"><ele>110.0</ele><time>2026-03-29T11:26:44.07Z</time></trkpt><trkpt lat="43.2256281" lon="-8.2499552"><ele>110.0</ele><time>2026-03-29T11:26:45.07Z</time></trkpt><trkpt lat="43.2257932" lon="-8.2498149"><ele>109.0</ele><time>2026-03-29T11:26:46.071Z</time></trkpt><trkpt lat="43.225967" lon="-8.2496629"><ele>108.0</ele><time>2026-03-29T11:26:47.071Z</time></trkpt><trkpt lat="43.2261385" lon="-8.2495173"><ele>107.0</ele><time>2026-03-29T11:26:48.07Z</time></trkpt><trkpt lat="43.2263123" lon="-8.2493676"><ele>108.0</ele><time>2026-03-29T11:26:49.07Z</time></trkpt><trkpt lat="43.2264871" lon="-8.2492187"><ele>109.0</ele><time>2026-03-29T11:26:50.071Z</time></trkpt><trkpt lat="43.2266611" lon="-8.2490746"><ele>110.0</ele><time>2026-03-29T11:26:51.071Z</time></trkpt><trkpt lat="43.2268337" lon="-8.2489351"><ele>110.0</ele><time>2026-03-29T11:26:52.07Z</time></trkpt><trkpt lat="43.2270126" lon="-8.2488168"><ele>110.0</ele><time>2026-03-29T11:26:53.07Z</time></trkpt><trkpt lat="43.2272069" lon="-8.2487333"><ele>110.0</ele><time>2026-03-29T11:26:54.07Z</time></trkpt><trkpt lat="43.2274068" lon="-8.2486718"><ele>111.33333333333333</ele><time>2026-03-29T11:26:55.071Z</time></trkpt><trkpt lat="43.2276041" lon="-8.2486122"><ele>112.66666666666666</ele><time>2026-03-29T11:26:56.07Z</time></trkpt><trkpt lat="43.2277908" lon="-8.2485491"><ele>114.0</ele><time>2026-03-29T11:26:57.07Z</time></trkpt><trkpt lat="43.2279563" lon="-8.2484587"><ele>114.0</ele><time>2026-03-29T11:26:58.07Z</time></trkpt><trkpt lat="43.2281167" lon="-8.248346"><ele>114.0</ele><time>2026-03-29T11:26:59.07Z</time></trkpt><trkpt lat="43.2282461" lon="-8.2482081"><ele>114.0</ele><time>2026-03-29T11:27:00.071Z</time></trkpt><trkpt lat="43.2284034" lon="-8.2481051"><ele>113.0</ele><time>2026-03-29T11:27:01.07Z</time></trkpt><trkpt lat="43.2285744" lon="-8.248012"><ele>112.0</ele><time>2026-03-29T11:27:02.07Z</time></trkpt><trkpt lat="43.2287628" lon="-8.2479394"><ele>111.0</ele><time>2026-03-29T11:27:03.07Z</time></trkpt><trkpt lat="43.2289296" lon="-8.2478296"><ele>112.33333333333334</ele><time>2026-03-29T11:27:04.07Z</time></trkpt><trkpt lat="43.2290644" lon="-8.2476597"><ele>113.66666666666667</ele><time>2026-03-29T11:27:05.07Z</time></trkpt><trkpt lat="43.2291855" lon="-8.2474496"><ele>115.0</ele><time>2026-03-29T11:27:06.071Z</time></trkpt><trkpt lat="43.2293061" lon="-8.2472264"><ele>111.33333333333334</ele><time>2026-03-29T11:27:07.071Z</time></trkpt><trkpt lat="43.2294282" lon="-8.2470156"><ele>107.66666666666666</ele><time>2026-03-29T11:27:08.071Z</time></trkpt><trkpt lat="43.2295511" lon="-8.2468274"><ele>104.0</ele><time>2026-03-29T11:27:09.07Z</time></trkpt><trkpt lat="43.229687" lon="-8.2466752"><ele>104.66666666666666</ele><time>2026-03-29T11:27:10.07Z</time></trkpt><trkpt lat="43.2298268" lon="-8.246559"><ele>105.33333333333334</ele><time>2026-03-29T11:27:11.071Z</time></trkpt><trkpt lat="43.229975" lon="-8.2464798"><ele>106.0</ele><time>2026-03-29T11:27:12.07Z</time></trkpt><trkpt lat="43.2301186" lon="-8.2464217"><ele>103.0</ele><time>2026-03-29T11:27:13.071Z</time></trkpt><trkpt lat="43.2302541" lon="-8.2463712"><ele>100.0</ele><time>2026-03-29T11:27:14.07Z</time></trkpt><trkpt lat="43.2303908" lon="-8.2463276"><ele>97.0</ele><time>2026-03-29T11:27:15.07Z</time></trkpt><trkpt lat="43.230515" lon="-8.2462883"><ele>94.0</ele><time>2026-03-29T11:27:16.07Z</time></trkpt><trkpt lat="43.2306404" lon="-8.2462561"><ele>93.80000000000001</ele><time>2026-03-29T11:27:17.07Z</time></trkpt><trkpt lat="43.2307581" lon="-8.2462303"><ele>93.60000000000001</ele><time>2026-03-29T11:27:18.071Z</time></trkpt><trkpt lat="43.2308683" lon="-8.2462164"><ele>93.4</ele><time>2026-03-29T11:27:19.07Z</time></trkpt><trkpt lat="43.2309583" lon="-8.2462102"><ele>93.2</ele><time>2026-03-29T11:27:20.07Z</time></trkpt><trkpt lat="43.2310499" lon="-8.2462093"><ele>93.0</ele><time>2026-03-29T11:27:21.071Z</time></trkpt><trkpt lat="43.2311065" lon="-8.2462697"><ele>93.0</ele><time>2026-03-29T11:27:22.071Z</time></trkpt><trkpt lat="43.2311662" lon="-8.2463479"><ele>93.0</ele><time>2026-03-29T11:27:23.071Z</time></trkpt><trkpt lat="43.2312233" lon="-8.2464432"><ele>93.0</ele><time>2026-03-29T11:27:24.071Z</time></trkpt><trkpt lat="43.2312852" lon="-8.2465547"><ele>93.0</ele><time>2026-03-29T11:27:25.071Z</time></trkpt><trkpt lat="43.231355" lon="-8.2466741"><ele>93.0</ele><time>2026-03-29T11:27:26.071Z</time></trkpt><trkpt lat="43.2314264" lon="-8.2468025"><ele>93.25</ele><time>2026-03-29T11:27:27.07Z</time></trkpt><trkpt lat="43.2314946" lon="-8.2469292"><ele>93.5</ele><time>2026-03-29T11:27:28.071Z</time></trkpt><trkpt lat="43.2315661" lon="-8.24706"><ele>93.75</ele><time>2026-03-29T11:27:29.07Z</time></trkpt><trkpt lat="43.2316338" lon="-8.2471849"><ele>94.0</ele><time>2026-03-29T11:27:30.07Z</time></trkpt><trkpt lat="43.2316989" lon="-8.2473114"><ele>94.0</ele><time>2026-03-29T11:27:31.07Z</time></trkpt><trkpt lat="43.2317666" lon="-8.2474264"><ele>94.0</ele><time>2026-03-29T11:27:32.071Z</time></trkpt><trkpt lat="43.2318215" lon="-8.2475259"><ele>94.0</ele><time>2026-03-29T11:27:33.071Z</time></trkpt><trkpt lat="43.2318702" lon="-8.2476121"><ele>94.0</ele><time>2026-03-29T11:27:34.07Z</time></trkpt><trkpt lat="43.2319154" lon="-8.2476896"><ele>94.0</ele><time>2026-03-29T11:27:35.07Z</time></trkpt><trkpt lat="43.2319594" lon="-8.2477653"><ele>94.0</ele><time>2026-03-29T11:27:36.07Z</time></trkpt><trkpt lat="43.2320264" lon="-8.2478813"><ele>94.0</ele><time>2026-03-29T11:27:38.071Z</time></trkpt><trkpt lat="43.2320791" lon="-8.2479565"><ele>94.0</ele><time>2026-03-29T11:27:40.071Z</time></trkpt><trkpt lat="43.2321408" lon="-8.2480381"><ele>94.0</ele><time>2026-03-29T11:27:43.071Z</time></trkpt><trkpt lat="43.2321828" lon="-8.2481251"><ele>94.0</ele><time>2026-03-29T11:27:49.071Z</time></trkpt><trkpt lat="43.2322225" lon="-8.2481945"><ele>94.0</ele><time>2026-03-29T11:27:51.07Z</time></trkpt><trkpt lat="43.2322635" lon="-8.2482826"><ele>94.0</ele><time>2026-03-29T11:27:53.07Z</time></trkpt><trkpt lat="43.2323095" lon="-8.2483725"><ele>92.25</ele><time>2026-03-29T11:27:55.07Z</time></trkpt><trkpt lat="43.2324133" lon="-8.2485352"><ele>90.5</ele><time>2026-03-29T11:27:57.071Z</time></trkpt><trkpt lat="43.2324732" lon="-8.2486654"><ele>88.75</ele><time>2026-03-29T11:27:58.07Z</time></trkpt><trkpt lat="43.2325365" lon="-8.2488309"><ele>87.0</ele><time>2026-03-29T11:27:59.07Z</time></trkpt><trkpt lat="43.2325838" lon="-8.249026"><ele>86.66666666666667</ele><time>2026-03-29T11:28:00.07Z</time></trkpt><trkpt lat="43.2325955" lon="-8.2492416"><ele>86.33333333333334</ele><time>2026-03-29T11:28:01.071Z</time></trkpt><trkpt lat="43.2325622" lon="-8.2494651"><ele>86.0</ele><time>2026-03-29T11:28:02.07Z</time></trkpt><trkpt lat="43.2325051" lon="-8.2496634"><ele>84.66666666666667</ele><time>2026-03-29T11:28:03.071Z</time></trkpt><trkpt lat="43.2324126" lon="-8.249857"><ele>83.33333333333333</ele><time>2026-03-29T11:28:04.07Z</time></trkpt><trkpt lat="43.2323302" lon="-8.2500324"><ele>82.0</ele><time>2026-03-29T11:28:05.07Z</time></trkpt><trkpt lat="43.2322803" lon="-8.2502206"><ele>79.75</ele><time>2026-03-29T11:28:06.071Z</time></trkpt><trkpt lat="43.2322638" lon="-8.2504116"><ele>77.5</ele><time>2026-03-29T11:28:07.07Z</time></trkpt><trkpt lat="43.2322927" lon="-8.25059"><ele>75.25</ele><time>2026-03-29T11:28:08.07Z</time></trkpt><trkpt lat="43.232359" lon="-8.2507503"><ele>73.0</ele><time>2026-03-29T11:28:09.07Z</time></trkpt><trkpt lat="43.2324563" lon="-8.2508703"><ele>73.0</ele><time>2026-03-29T11:28:10.071Z</time></trkpt><trkpt lat="43.2325909" lon="-8.2509533"><ele>73.0</ele><time>2026-03-29T11:28:11.07Z</time></trkpt><trkpt lat="43.2327513" lon="-8.251017"><ele>73.0</ele><time>2026-03-29T11:28:12.07Z</time></trkpt><trkpt lat="43.2329137" lon="-8.2510951"><ele>73.0</ele><time>2026-03-29T11:28:13.07Z</time></trkpt><trkpt lat="43.2330724" lon="-8.2511758"><ele>73.0</ele><time>2026-03-29T11:28:14.071Z</time></trkpt><trkpt lat="43.2331951" lon="-8.2513023"><ele>73.0</ele><time>2026-03-29T11:28:15.071Z</time></trkpt><trkpt lat="43.2333" lon="-8.2514479"><ele>68.66666666666666</ele><time>2026-03-29T11:28:16.071Z</time></trkpt><trkpt lat="43.2333539" lon="-8.2516686"><ele>64.33333333333333</ele><time>2026-03-29T11:28:17.07Z</time></trkpt><trkpt lat="43.2333926" lon="-8.2518948"><ele>60.0</ele><time>2026-03-29T11:28:18.07Z</time></trkpt><trkpt lat="43.233429" lon="-8.2521439"><ele>60.0</ele><time>2026-03-29T11:28:19.07Z</time></trkpt><trkpt lat="43.2334822" lon="-8.252404"><ele>60.0</ele><time>2026-03-29T11:28:20.071Z</time></trkpt><trkpt lat="43.2335524" lon="-8.2526659"><ele>60.0</ele><time>2026-03-29T11:28:21.07Z</time></trkpt><trkpt lat="43.2336352" lon="-8.2529309"><ele>59.33333333333333</ele><time>2026-03-29T11:28:22.071Z</time></trkpt><trkpt lat="43.2337158" lon="-8.2531926"><ele>58.666666666666664</ele><time>2026-03-29T11:28:23.07Z</time></trkpt><trkpt lat="43.2338016" lon="-8.2534605"><ele>58.0</ele><time>2026-03-29T11:28:24.07Z</time></trkpt><trkpt lat="43.23389" lon="-8.2537275"><ele>59.0</ele><time>2026-03-29T11:28:25.07Z</time></trkpt><trkpt lat="43.2339746" lon="-8.2539835"><ele>60.0</ele><time>2026-03-29T11:28:26.071Z</time></trkpt><trkpt lat="43.2340631" lon="-8.2542416"><ele>61.0</ele><time>2026-03-29T11:28:27.071Z</time></trkpt><trkpt lat="43.2341496" lon="-8.2544976"><ele>61.0</ele><time>2026-03-29T11:28:28.071Z</time></trkpt><trkpt lat="43.2342348" lon="-8.2547536"><ele>61.0</ele><time>2026-03-29T11:28:29.071Z</time></trkpt><trkpt lat="43.2343181" lon="-8.2550095"><ele>61.0</ele><time>2026-03-29T11:28:30.07Z</time></trkpt><trkpt lat="43.2344023" lon="-8.2552656"><ele>62.33333333333333</ele><time>2026-03-29T11:28:31.07Z</time></trkpt><trkpt lat="43.2344804" lon="-8.2555095"><ele>63.66666666666667</ele><time>2026-03-29T11:28:32.07Z</time></trkpt><trkpt lat="43.2345634" lon="-8.2557422"><ele>65.0</ele><time>2026-03-29T11:28:33.07Z</time></trkpt><trkpt lat="43.2346472" lon="-8.2559896"><ele>67.5</ele><time>2026-03-29T11:28:34.07Z</time></trkpt><trkpt lat="43.2347115" lon="-8.2561852"><ele>70.0</ele><time>2026-03-29T11:28:35.07Z</time></trkpt><trkpt lat="43.2347767" lon="-8.2563738"><ele>72.5</ele><time>2026-03-29T11:28:36.071Z</time></trkpt><trkpt lat="43.2348367" lon="-8.2565422"><ele>75.0</ele><time>2026-03-29T11:28:37.07Z</time></trkpt><trkpt lat="43.2348852" lon="-8.2566902"><ele>76.2</ele><time>2026-03-29T11:28:38.071Z</time></trkpt><trkpt lat="43.2349333" lon="-8.2568317"><ele>77.4</ele><time>2026-03-29T11:28:39.07Z</time></trkpt><trkpt lat="43.2349762" lon="-8.256963"><ele>78.6</ele><time>2026-03-29T11:28:40.07Z</time></trkpt><trkpt lat="43.2350198" lon="-8.257094"><ele>79.8</ele><time>2026-03-29T11:28:41.071Z</time></trkpt><trkpt lat="43.2350636" lon="-8.2572237"><ele>81.0</ele><time>2026-03-29T11:28:42.071Z</time></trkpt><trkpt lat="43.2351025" lon="-8.2573579"><ele>82.0</ele><time>2026-03-29T11:28:43.071Z</time></trkpt><trkpt lat="43.2351318" lon="-8.2575036"><ele>83.0</ele><time>2026-03-29T11:28:44.071Z</time></trkpt><trkpt lat="43.235156" lon="-8.2576613"><ele>84.0</ele><time>2026-03-29T11:28:45.07Z</time></trkpt><trkpt lat="43.2351703" lon="-8.2578155"><ele>85.0</ele><time>2026-03-29T11:28:46.071Z</time></trkpt><trkpt lat="43.2351663" lon="-8.2579926"><ele>86.5</ele><time>2026-03-29T11:28:47.07Z</time></trkpt><trkpt lat="43.23515" lon="-8.258164"><ele>88.0</ele><time>2026-03-29T11:28:48.07Z</time></trkpt><trkpt lat="43.2351219" lon="-8.2583412"><ele>89.5</ele><time>2026-03-29T11:28:49.07Z</time></trkpt><trkpt lat="43.2350713" lon="-8.2585152"><ele>91.0</ele><time>2026-03-29T11:28:50.07Z</time></trkpt><trkpt lat="43.2349993" lon="-8.2586811"><ele>91.0</ele><time>2026-03-29T11:28:51.07Z</time></trkpt><trkpt lat="43.2349171" lon="-8.2588285"><ele>91.0</ele><time>2026-03-29T11:28:52.07Z</time></trkpt><trkpt lat="43.2348293" lon="-8.2589544"><ele>91.0</ele><time>2026-03-29T11:28:53.07Z</time></trkpt><trkpt lat="43.2347372" lon="-8.259071"><ele>91.0</ele><time>2026-03-29T11:28:54.07Z</time></trkpt><trkpt lat="43.2346497" lon="-8.259184"><ele>88.6</ele><time>2026-03-29T11:28:55.07Z</time></trkpt><trkpt lat="43.2345689" lon="-8.2592901"><ele>86.19999999999999</ele><time>2026-03-29T11:28:56.07Z</time></trkpt><trkpt lat="43.2344894" lon="-8.2593918"><ele>83.80000000000001</ele><time>2026-03-29T11:28:57.071Z</time></trkpt><trkpt lat="43.2344086" lon="-8.2594919"><ele>81.4</ele><time>2026-03-29T11:28:58.071Z</time></trkpt><trkpt lat="43.2343333" lon="-8.2595858"><ele>79.0</ele><time>2026-03-29T11:28:59.07Z</time></trkpt><trkpt lat="43.23426" lon="-8.2596765"><ele>79.0</ele><time>2026-03-29T11:29:00.07Z</time></trkpt><trkpt lat="43.23417" lon="-8.2597882"><ele>79.0</ele><time>2026-03-29T11:29:01.07Z</time></trkpt><trkpt lat="43.2340566" lon="-8.2599249"><ele>79.0</ele><time>2026-03-29T11:29:02.07Z</time></trkpt><trkpt lat="43.2339344" lon="-8.2600714"><ele>79.0</ele><time>2026-03-29T11:29:03.07Z</time></trkpt><trkpt lat="43.2338138" lon="-8.260224"><ele>76.33333333333333</ele><time>2026-03-29T11:29:04.07Z</time></trkpt><trkpt lat="43.2336897" lon="-8.2603722"><ele>73.66666666666667</ele><time>2026-03-29T11:29:05.071Z</time></trkpt><trkpt lat="43.2335585" lon="-8.2605223"><ele>71.0</ele><time>2026-03-29T11:29:06.07Z</time></trkpt><trkpt lat="43.2334332" lon="-8.2606894"><ele>71.0</ele><time>2026-03-29T11:29:07.07Z</time></trkpt><trkpt lat="43.233321" lon="-8.2608747"><ele>71.0</ele><time>2026-03-29T11:29:08.071Z</time></trkpt><trkpt lat="43.2332747" lon="-8.2610976"><ele>71.0</ele><time>2026-03-29T11:29:09.071Z</time></trkpt><trkpt lat="43.2332413" lon="-8.2613347"><ele>71.66666666666667</ele><time>2026-03-29T11:29:10.07Z</time></trkpt><trkpt lat="43.2332922" lon="-8.2615514"><ele>72.33333333333333</ele><time>2026-03-29T11:29:11.07Z</time></trkpt><trkpt lat="43.2333613" lon="-8.2617648"><ele>73.0</ele><time>2026-03-29T11:29:12.07Z</time></trkpt><trkpt lat="43.2334609" lon="-8.2619595"><ele>73.0</ele><time>2026-03-29T11:29:13.071Z</time></trkpt><trkpt lat="43.2335689" lon="-8.262147"><ele>73.0</ele><time>2026-03-29T11:29:14.071Z</time></trkpt><trkpt lat="43.2336887" lon="-8.2623323"><ele>73.0</ele><time>2026-03-29T11:29:15.071Z</time></trkpt><trkpt lat="43.2338288" lon="-8.2625362"><ele>73.33333333333333</ele><time>2026-03-29T11:29:16.071Z</time></trkpt><trkpt lat="43.2339662" lon="-8.2627093"><ele>73.66666666666667</ele><time>2026-03-29T11:29:17.07Z</time></trkpt><trkpt lat="43.2340936" lon="-8.2629075"><ele>74.0</ele><time>2026-03-29T11:29:18.071Z</time></trkpt><trkpt lat="43.23424" lon="-8.2630783"><ele>75.0</ele><time>2026-03-29T11:29:19.07Z</time></trkpt><trkpt lat="43.2343844" lon="-8.263252"><ele>76.0</ele><time>2026-03-29T11:29:20.07Z</time></trkpt><trkpt lat="43.2345135" lon="-8.2634112"><ele>77.0</ele><time>2026-03-29T11:29:21.07Z</time></trkpt><trkpt lat="43.2346488" lon="-8.2635723"><ele>77.0</ele><time>2026-03-29T11:29:22.07Z</time></trkpt><trkpt lat="43.2347832" lon="-8.2637336"><ele>77.0</ele><time>2026-03-29T11:29:23.07Z</time></trkpt><trkpt lat="43.2349127" lon="-8.2638964"><ele>77.0</ele><time>2026-03-29T11:29:24.07Z</time></trkpt><trkpt lat="43.2350363" lon="-8.2640656"><ele>79.66666666666667</ele><time>2026-03-29T11:29:25.07Z</time></trkpt><trkpt lat="43.2351508" lon="-8.2642296"><ele>82.33333333333333</ele><time>2026-03-29T11:29:26.07Z</time></trkpt><trkpt lat="43.2352367" lon="-8.2644087"><ele>85.0</ele><time>2026-03-29T11:29:27.07Z</time></trkpt><trkpt lat="43.2353078" lon="-8.2646008"><ele>87.0</ele><time>2026-03-29T11:29:28.07Z</time></trkpt><trkpt lat="43.2353649" lon="-8.2647987"><ele>89.0</ele><time>2026-03-29T11:29:29.07Z</time></trkpt><trkpt lat="43.2354071" lon="-8.2650176"><ele>91.0</ele><time>2026-03-29T11:29:30.07Z</time></trkpt><trkpt lat="43.2354414" lon="-8.2652365"><ele>91.0</ele><time>2026-03-29T11:29:31.07Z</time></trkpt><trkpt lat="43.2354685" lon="-8.2654643"><ele>91.0</ele><time>2026-03-29T11:29:32.07Z</time></trkpt><trkpt lat="43.2354804" lon="-8.2657024"><ele>91.0</ele><time>2026-03-29T11:29:33.07Z</time></trkpt><trkpt lat="43.2354725" lon="-8.2659437"><ele>91.66666666666666</ele><time>2026-03-29T11:29:34.071Z</time></trkpt><trkpt lat="43.235443" lon="-8.2661956"><ele>92.33333333333333</ele><time>2026-03-29T11:29:35.071Z</time></trkpt><trkpt lat="43.235396" lon="-8.2664446"><ele>93.0</ele><time>2026-03-29T11:29:36.07Z</time></trkpt><trkpt lat="43.2353473" lon="-8.2666842"><ele>93.0</ele><time>2026-03-29T11:29:37.07Z</time></trkpt><trkpt lat="43.2353062" lon="-8.2669078"><ele>93.0</ele><time>2026-03-29T11:29:38.07Z</time></trkpt><trkpt lat="43.2352732" lon="-8.2671282"><ele>93.0</ele><time>2026-03-29T11:29:39.07Z</time></trkpt><trkpt lat="43.2352614" lon="-8.2673416"><ele>92.33333333333333</ele><time>2026-03-29T11:29:40.07Z</time></trkpt><trkpt lat="43.2352759" lon="-8.2675616"><ele>91.66666666666666</ele><time>2026-03-29T11:29:41.071Z</time></trkpt><trkpt lat="43.2353186" lon="-8.2677812"><ele>91.0</ele><time>2026-03-29T11:29:42.071Z</time></trkpt><trkpt lat="43.2353948" lon="-8.267991"><ele>91.66666666666666</ele><time>2026-03-29T11:29:43.071Z</time></trkpt><trkpt lat="43.2354948" lon="-8.2681815"><ele>92.33333333333333</ele><time>2026-03-29T11:29:44.071Z</time></trkpt><trkpt lat="43.2356126" lon="-8.2683613"><ele>93.0</ele><time>2026-03-29T11:29:45.07Z</time></trkpt><trkpt lat="43.2357414" lon="-8.2685233"><ele>93.0</ele><time>2026-03-29T11:29:46.07Z</time></trkpt><trkpt lat="43.2358774" lon="-8.2686807"><ele>93.0</ele><time>2026-03-29T11:29:47.07Z</time></trkpt><trkpt lat="43.2360115" lon="-8.2688523"><ele>93.0</ele><time>2026-03-29T11:29:48.07Z</time></trkpt><trkpt lat="43.2361374" lon="-8.2690327"><ele>93.0</ele><time>2026-03-29T11:29:49.07Z</time></trkpt><trkpt lat="43.2362501" lon="-8.2692236"><ele>93.0</ele><time>2026-03-29T11:29:50.071Z</time></trkpt><trkpt lat="43.2363564" lon="-8.2694266"><ele>93.0</ele><time>2026-03-29T11:29:51.07Z</time></trkpt><trkpt lat="43.236461" lon="-8.2696397"><ele>92.66666666666667</ele><time>2026-03-29T11:29:52.071Z</time></trkpt><trkpt lat="43.2365675" lon="-8.2698409"><ele>92.33333333333334</ele><time>2026-03-29T11:29:53.07Z</time></trkpt><trkpt lat="43.2366701" lon="-8.2700389"><ele>92.0</ele><time>2026-03-29T11:29:54.07Z</time></trkpt><trkpt lat="43.2367716" lon="-8.2702347"><ele>92.0</ele><time>2026-03-29T11:29:55.07Z</time></trkpt><trkpt lat="43.2368715" lon="-8.2704351"><ele>92.0</ele><time>2026-03-29T11:29:56.071Z</time></trkpt><trkpt lat="43.2369733" lon="-8.2706305"><ele>92.0</ele><time>2026-03-29T11:29:57.07Z</time></trkpt><trkpt lat="43.2370566" lon="-8.2708326"><ele>94.33333333333334</ele><time>2026-03-29T11:29:58.07Z</time></trkpt><trkpt lat="43.2371135" lon="-8.2710389"><ele>96.66666666666667</ele><time>2026-03-29T11:29:59.07Z</time></trkpt><trkpt lat="43.2371618" lon="-8.2712534"><ele>99.0</ele><time>2026-03-29T11:30:00.07Z</time></trkpt><trkpt lat="43.2371555" lon="-8.2714697"><ele>100.0</ele><time>2026-03-29T11:30:01.07Z</time></trkpt><trkpt lat="43.237122" lon="-8.2716818"><ele>101.0</ele><time>2026-03-29T11:30:02.071Z</time></trkpt><trkpt lat="43.2370631" lon="-8.2718735"><ele>102.0</ele><time>2026-03-29T11:30:03.07Z</time></trkpt><trkpt lat="43.2369841" lon="-8.2720472"><ele>102.0</ele><time>2026-03-29T11:30:04.071Z</time></trkpt><trkpt lat="43.2369018" lon="-8.2722194"><ele>102.0</ele><time>2026-03-29T11:30:05.07Z</time></trkpt><trkpt lat="43.2368191" lon="-8.2723831"><ele>102.0</ele><time>2026-03-29T11:30:06.071Z</time></trkpt><trkpt lat="43.2367438" lon="-8.2725422"><ele>102.0</ele><time>2026-03-29T11:30:07.07Z</time></trkpt><trkpt lat="43.2366847" lon="-8.2727129"><ele>101.66666666666666</ele><time>2026-03-29T11:30:08.07Z</time></trkpt><trkpt lat="43.2366426" lon="-8.2728979"><ele>101.33333333333333</ele><time>2026-03-29T11:30:09.071Z</time></trkpt><trkpt lat="43.2366199" lon="-8.2731108"><ele>101.0</ele><time>2026-03-29T11:30:10.071Z</time></trkpt><trkpt lat="43.2366158" lon="-8.2733587"><ele>100.66666666666666</ele><time>2026-03-29T11:30:11.071Z</time></trkpt><trkpt lat="43.2366299" lon="-8.2736441"><ele>100.33333333333334</ele><time>2026-03-29T11:30:12.071Z</time></trkpt><trkpt lat="43.2366598" lon="-8.2739659"><ele>100.0</ele><time>2026-03-29T11:30:13.07Z</time></trkpt><trkpt lat="43.2366999" lon="-8.274305"><ele>102.5</ele><time>2026-03-29T11:30:14.07Z</time></trkpt><trkpt lat="43.2367554" lon="-8.2746435"><ele>105.0</ele><time>2026-03-29T11:30:15.071Z</time></trkpt><trkpt lat="43.2368115" lon="-8.2749782"><ele>105.5</ele><time>2026-03-29T11:30:16.071Z</time></trkpt><trkpt lat="43.2368614" lon="-8.2753099"><ele>106.0</ele><time>2026-03-29T11:30:17.07Z</time></trkpt><trkpt lat="43.2369123" lon="-8.2756303"><ele>106.0</ele><time>2026-03-29T11:30:18.07Z</time></trkpt><trkpt lat="43.2369703" lon="-8.2759383"><ele>106.0</ele><time>2026-03-29T11:30:19.07Z</time></trkpt><trkpt lat="43.2370255" lon="-8.276241"><ele>105.66666666666667</ele><time>2026-03-29T11:30:20.07Z</time></trkpt><trkpt lat="43.2370811" lon="-8.2765396"><ele>105.33333333333334</ele><time>2026-03-29T11:30:21.071Z</time></trkpt><trkpt lat="43.2371365" lon="-8.2768272"><ele>105.0</ele><time>2026-03-29T11:30:22.07Z</time></trkpt><trkpt lat="43.2371888" lon="-8.2770902"><ele>105.0</ele><time>2026-03-29T11:30:23.07Z</time></trkpt><trkpt lat="43.2372983" lon="-8.2772966"><ele>105.0</ele><time>2026-03-29T11:30:24.071Z</time></trkpt><trkpt lat="43.2374474" lon="-8.277458"><ele>105.0</ele><time>2026-03-29T11:30:25.07Z</time></trkpt><trkpt lat="43.2376323" lon="-8.2775722"><ele>105.0</ele><time>2026-03-29T11:30:26.07Z</time></trkpt><trkpt lat="43.2378575" lon="-8.2776494"><ele>105.0</ele><time>2026-03-29T11:30:27.07Z</time></trkpt><trkpt lat="43.2381159" lon="-8.2776922"><ele>107.0</ele><time>2026-03-29T11:30:28.071Z</time></trkpt><trkpt lat="43.23838" lon="-8.2777225"><ele>109.0</ele><time>2026-03-29T11:30:29.07Z</time></trkpt><trkpt lat="43.2386355" lon="-8.2777568"><ele>109.0</ele><time>2026-03-29T11:30:30.07Z</time></trkpt><trkpt lat="43.2388787" lon="-8.2777956"><ele>109.0</ele><time>2026-03-29T11:30:31.07Z</time></trkpt><trkpt lat="43.2391087" lon="-8.2778325"><ele>110.33333333333334</ele><time>2026-03-29T11:30:32.071Z</time></trkpt><trkpt lat="43.2393281" lon="-8.2778598"><ele>111.66666666666666</ele><time>2026-03-29T11:30:33.07Z</time></trkpt><trkpt lat="43.2395403" lon="-8.2778701"><ele>113.0</ele><time>2026-03-29T11:30:34.07Z</time></trkpt><trkpt lat="43.2397446" lon="-8.2778311"><ele>116.66666666666666</ele><time>2026-03-29T11:30:35.071Z</time></trkpt><trkpt lat="43.239935" lon="-8.2777434"><ele>120.33333333333334</ele><time>2026-03-29T11:30:36.07Z</time></trkpt><trkpt lat="43.2401147" lon="-8.2776292"><ele>124.0</ele><time>2026-03-29T11:30:37.071Z</time></trkpt><trkpt lat="43.2402913" lon="-8.2775045"><ele>124.0</ele><time>2026-03-29T11:30:38.071Z</time></trkpt><trkpt lat="43.2404796" lon="-8.2774099"><ele>124.0</ele><time>2026-03-29T11:30:39.07Z</time></trkpt><trkpt lat="43.2406818" lon="-8.2773543"><ele>124.0</ele><time>2026-03-29T11:30:40.07Z</time></trkpt><trkpt lat="43.2408815" lon="-8.2773279"><ele>125.66666666666667</ele><time>2026-03-29T11:30:41.071Z</time></trkpt><trkpt lat="43.2410662" lon="-8.2773125"><ele>127.33333333333334</ele><time>2026-03-29T11:30:42.07Z</time></trkpt><trkpt lat="43.2412349" lon="-8.2773078"><ele>129.0</ele><time>2026-03-29T11:30:43.07Z</time></trkpt><trkpt lat="43.2413991" lon="-8.2773122"><ele>130.75</ele><time>2026-03-29T11:30:44.07Z</time></trkpt><trkpt lat="43.2415217" lon="-8.277358"><ele>132.5</ele><time>2026-03-29T11:30:45.071Z</time></trkpt><trkpt lat="43.2416392" lon="-8.2774274"><ele>134.25</ele><time>2026-03-29T11:30:46.071Z</time></trkpt><trkpt lat="43.241739" lon="-8.2775004"><ele>136.0</ele><time>2026-03-29T11:30:47.071Z</time></trkpt><trkpt lat="43.2418307" lon="-8.2775624"><ele>136.0</ele><time>2026-03-29T11:30:48.07Z</time></trkpt><trkpt lat="43.2419175" lon="-8.2776078"><ele>136.0</ele><time>2026-03-29T11:30:49.07Z</time></trkpt><trkpt lat="43.2419963" lon="-8.2776335"><ele>136.0</ele><time>2026-03-29T11:30:50.071Z</time></trkpt><trkpt lat="43.2420896" lon="-8.2776536"><ele>136.0</ele><time>2026-03-29T11:30:52.071Z</time></trkpt><trkpt lat="43.2421851" lon="-8.2776433"><ele>136.0</ele><time>2026-03-29T11:30:54.07Z</time></trkpt><trkpt lat="43.2422461" lon="-8.2776203"><ele>136.0</ele><time>2026-03-29T11:30:55.071Z</time></trkpt><trkpt lat="43.2423024" lon="-8.2775816"><ele>135.83333333333334</ele><time>2026-03-29T11:30:56.07Z</time></trkpt><trkpt lat="43.2423993" lon="-8.2774805"><ele>135.66666666666669</ele><time>2026-03-29T11:30:58.07Z</time></trkpt><trkpt lat="43.2424507" lon="-8.2774254"><ele>135.5</ele><time>2026-03-29T11:30:59.07Z</time></trkpt><trkpt lat="43.2425027" lon="-8.2773621"><ele>135.33333333333334</ele><time>2026-03-29T11:31:00.071Z</time></trkpt><trkpt lat="43.2425518" lon="-8.277299"><ele>135.16666666666666</ele><time>2026-03-29T11:31:01.071Z</time></trkpt><trkpt lat="43.2426073" lon="-8.2772342"><ele>135.0</ele><time>2026-03-29T11:31:02.07Z</time></trkpt><trkpt lat="43.2426721" lon="-8.2771618"><ele>135.0</ele><time>2026-03-29T11:31:03.071Z</time></trkpt><trkpt lat="43.2427433" lon="-8.2770851"><ele>135.0</ele><time>2026-03-29T11:31:04.071Z</time></trkpt><trkpt lat="43.2428272" lon="-8.2769883"><ele>135.0</ele><time>2026-03-29T11:31:05.07Z</time></trkpt><trkpt lat="43.2429258" lon="-8.2768691"><ele>135.0</ele><time>2026-03-29T11:31:06.071Z</time></trkpt><trkpt lat="43.2430349" lon="-8.2767393"><ele>132.33333333333334</ele><time>2026-03-29T11:31:07.07Z</time></trkpt><trkpt lat="43.2431541" lon="-8.2766047"><ele>129.66666666666669</ele><time>2026-03-29T11:31:08.071Z</time></trkpt><trkpt lat="43.243281" lon="-8.2764598"><ele>127.0</ele><time>2026-03-29T11:31:09.07Z</time></trkpt><trkpt lat="43.2434064" lon="-8.2763086"><ele>126.66666666666667</ele><time>2026-03-29T11:31:10.07Z</time></trkpt><trkpt lat="43.2435361" lon="-8.2761621"><ele>126.33333333333334</ele><time>2026-03-29T11:31:11.07Z</time></trkpt><trkpt lat="43.2436644" lon="-8.2760166"><ele>126.0</ele><time>2026-03-29T11:31:12.071Z</time></trkpt><trkpt lat="43.2437923" lon="-8.2758695"><ele>126.0</ele><time>2026-03-29T11:31:13.07Z</time></trkpt><trkpt lat="43.2439268" lon="-8.2757251"><ele>126.0</ele><time>2026-03-29T11:31:14.07Z</time></trkpt><trkpt lat="43.2440582" lon="-8.2755691"><ele>126.0</ele><time>2026-03-29T11:31:15.071Z</time></trkpt><trkpt lat="43.2441936" lon="-8.27541"><ele>124.66666666666666</ele><time>2026-03-29T11:31:16.071Z</time></trkpt><trkpt lat="43.2443195" lon="-8.2752642"><ele>123.33333333333333</ele><time>2026-03-29T11:31:17.07Z</time></trkpt><trkpt lat="43.244446" lon="-8.275123"><ele>122.0</ele><time>2026-03-29T11:31:18.07Z</time></trkpt><trkpt lat="43.2445618" lon="-8.2749888"><ele>122.0</ele><time>2026-03-29T11:31:19.07Z</time></trkpt><trkpt lat="43.244676" lon="-8.27486"><ele>122.0</ele><time>2026-03-29T11:31:20.07Z</time></trkpt><trkpt lat="43.244788" lon="-8.2747336"><ele>122.0</ele><time>2026-03-29T11:31:21.071Z</time></trkpt><trkpt lat="43.2448992" lon="-8.2746106"><ele>122.0</ele><time>2026-03-29T11:31:22.07Z</time></trkpt><trkpt lat="43.2450068" lon="-8.2744965"><ele>120.8</ele><time>2026-03-29T11:31:23.07Z</time></trkpt><trkpt lat="43.2451003" lon="-8.2743952"><ele>119.6</ele><time>2026-03-29T11:31:24.071Z</time></trkpt><trkpt lat="43.2451803" lon="-8.2743083"><ele>118.39999999999999</ele><time>2026-03-29T11:31:25.07Z</time></trkpt><trkpt lat="43.2452458" lon="-8.2742337"><ele>117.19999999999999</ele><time>2026-03-29T11:31:26.07Z</time></trkpt><trkpt lat="43.2452998" lon="-8.2741874"><ele>116.0</ele><time>2026-03-29T11:31:27.07Z</time></trkpt><trkpt lat="43.245386" lon="-8.2742495"><ele>116.0</ele><time>2026-03-29T11:31:29.07Z</time></trkpt><trkpt lat="43.245433" lon="-8.274321"><ele>116.0</ele><time>2026-03-29T11:31:30.071Z</time></trkpt><trkpt lat="43.2454987" lon="-8.2744111"><ele>116.0</ele><time>2026-03-29T11:31:31.07Z</time></trkpt><trkpt lat="43.2455758" lon="-8.2745163"><ele>116.0</ele><time>2026-03-29T11:31:32.07Z</time></trkpt><trkpt lat="43.2456589" lon="-8.2746226"><ele>116.0</ele><time>2026-03-29T11:31:33.07Z</time></trkpt><trkpt lat="43.2457505" lon="-8.274736"><ele>114.5</ele><time>2026-03-29T11:31:34.071Z</time></trkpt><trkpt lat="43.2458499" lon="-8.2748447"><ele>113.0</ele><time>2026-03-29T11:31:35.07Z</time></trkpt><trkpt lat="43.2459626" lon="-8.2749447"><ele>111.5</ele><time>2026-03-29T11:31:36.069Z</time></trkpt><trkpt lat="43.2460913" lon="-8.2750169"><ele>110.0</ele><time>2026-03-29T11:31:37.07Z</time></trkpt><trkpt lat="43.2462334" lon="-8.2750487"><ele>110.0</ele><time>2026-03-29T11:31:38.07Z</time></trkpt><trkpt lat="43.2463862" lon="-8.2750475"><ele>110.0</ele><time>2026-03-29T11:31:39.07Z</time></trkpt><trkpt lat="43.246549" lon="-8.2750341"><ele>110.0</ele><time>2026-03-29T11:31:40.07Z</time></trkpt><trkpt lat="43.2467136" lon="-8.2750228"><ele>108.66666666666666</ele><time>2026-03-29T11:31:41.07Z</time></trkpt><trkpt lat="43.2468834" lon="-8.2750183"><ele>107.33333333333334</ele><time>2026-03-29T11:31:42.071Z</time></trkpt><trkpt lat="43.2470568" lon="-8.275014"><ele>106.0</ele><time>2026-03-29T11:31:43.07Z</time></trkpt><trkpt lat="43.2472249" lon="-8.2750128"><ele>105.33333333333334</ele><time>2026-03-29T11:31:44.071Z</time></trkpt><trkpt lat="43.2473887" lon="-8.2750121"><ele>104.66666666666666</ele><time>2026-03-29T11:31:45.07Z</time></trkpt><trkpt lat="43.2475434" lon="-8.2749961"><ele>104.0</ele><time>2026-03-29T11:31:46.071Z</time></trkpt><trkpt lat="43.2476935" lon="-8.2749687"><ele>104.0</ele><time>2026-03-29T11:31:47.07Z</time></trkpt><trkpt lat="43.2477996" lon="-8.2748615"><ele>104.0</ele><time>2026-03-29T11:31:48.071Z</time></trkpt><trkpt lat="43.2478901" lon="-8.2747386"><ele>104.0</ele><time>2026-03-29T11:31:49.071Z</time></trkpt><trkpt lat="43.2479812" lon="-8.2746154"><ele>104.0</ele><time>2026-03-29T11:31:50.07Z</time></trkpt><trkpt lat="43.248092" lon="-8.274558"><ele>102.5</ele><time>2026-03-29T11:31:51.07Z</time></trkpt><trkpt lat="43.248209" lon="-8.274568"><ele>101.0</ele><time>2026-03-29T11:31:52.071Z</time></trkpt><trkpt lat="43.2483373" lon="-8.2745989"><ele>99.5</ele><time>2026-03-29T11:31:53.071Z</time></trkpt><trkpt lat="43.2484755" lon="-8.274628"><ele>98.0</ele><time>2026-03-29T11:31:54.07Z</time></trkpt><trkpt lat="43.2486253" lon="-8.2746603"><ele>98.0</ele><time>2026-03-29T11:31:55.07Z</time></trkpt><trkpt lat="43.2487743" lon="-8.2746857"><ele>98.0</ele><time>2026-03-29T11:31:56.07Z</time></trkpt><trkpt lat="43.2489215" lon="-8.2747174"><ele>98.0</ele><time>2026-03-29T11:31:57.07Z</time></trkpt><trkpt lat="43.2490564" lon="-8.2747019"><ele>98.0</ele><time>2026-03-29T11:31:58.07Z</time></trkpt><trkpt lat="43.2492194" lon="-8.2747501"><ele>97.25</ele><time>2026-03-29T11:31:59.071Z</time></trkpt><trkpt lat="43.2493625" lon="-8.2747448"><ele>96.5</ele><time>2026-03-29T11:32:00.071Z</time></trkpt><trkpt lat="43.2495073" lon="-8.2747016"><ele>95.75</ele><time>2026-03-29T11:32:01.07Z</time></trkpt><trkpt lat="43.2496446" lon="-8.2746299"><ele>95.0</ele><time>2026-03-29T11:32:02.071Z</time></trkpt><trkpt lat="43.2497792" lon="-8.2745342"><ele>94.0</ele><time>2026-03-29T11:32:03.071Z</time></trkpt><trkpt lat="43.2499082" lon="-8.2744164"><ele>93.0</ele><time>2026-03-29T11:32:04.07Z</time></trkpt><trkpt lat="43.250023" lon="-8.274266"><ele>92.0</ele><time>2026-03-29T11:32:05.07Z</time></trkpt><trkpt lat="43.2501061" lon="-8.2740818"><ele>90.66666666666667</ele><time>2026-03-29T11:32:06.07Z</time></trkpt><trkpt lat="43.2501654" lon="-8.2738756"><ele>89.33333333333333</ele><time>2026-03-29T11:32:07.07Z</time></trkpt><trkpt lat="43.2502267" lon="-8.2736638"><ele>88.0</ele><time>2026-03-29T11:32:08.07Z</time></trkpt><trkpt lat="43.2503046" lon="-8.2734639"><ele>88.0</ele><time>2026-03-29T11:32:09.071Z</time></trkpt><trkpt lat="43.2504056" lon="-8.2732738"><ele>88.0</ele><time>2026-03-29T11:32:10.07Z</time></trkpt><trkpt lat="43.2505237" lon="-8.2731101"><ele>88.0</ele><time>2026-03-29T11:32:11.07Z</time></trkpt><trkpt lat="43.2506556" lon="-8.2729744"><ele>89.0</ele><time>2026-03-29T11:32:12.071Z</time></trkpt><trkpt lat="43.2508032" lon="-8.2728678"><ele>90.0</ele><time>2026-03-29T11:32:13.07Z</time></trkpt><trkpt lat="43.2509617" lon="-8.2727945"><ele>91.0</ele><time>2026-03-29T11:32:14.07Z</time></trkpt><trkpt lat="43.2511293" lon="-8.2727567"><ele>91.0</ele><time>2026-03-29T11:32:15.07Z</time></trkpt><trkpt lat="43.2512882" lon="-8.2726913"><ele>91.0</ele><time>2026-03-29T11:32:16.071Z</time></trkpt><trkpt lat="43.2514498" lon="-8.2727161"><ele>91.0</ele><time>2026-03-29T11:32:17.07Z</time></trkpt><trkpt lat="43.2516332" lon="-8.2727693"><ele>92.0</ele><time>2026-03-29T11:32:18.071Z</time></trkpt><trkpt lat="43.2518045" lon="-8.272812"><ele>93.0</ele><time>2026-03-29T11:32:19.07Z</time></trkpt><trkpt lat="43.2519719" lon="-8.2728567"><ele>94.0</ele><time>2026-03-29T11:32:20.07Z</time></trkpt><trkpt lat="43.2521407" lon="-8.2728996"><ele>95.0</ele><time>2026-03-29T11:32:21.07Z</time></trkpt><trkpt lat="43.2523029" lon="-8.2729361"><ele>96.0</ele><time>2026-03-29T11:32:22.07Z</time></trkpt><trkpt lat="43.2524572" lon="-8.2729897"><ele>97.0</ele><time>2026-03-29T11:32:23.071Z</time></trkpt><trkpt lat="43.2525997" lon="-8.273064"><ele>97.25</ele><time>2026-03-29T11:32:24.071Z</time></trkpt><trkpt lat="43.2527302" lon="-8.2731691"><ele>97.5</ele><time>2026-03-29T11:32:25.071Z</time></trkpt><trkpt lat="43.2528493" lon="-8.2732951"><ele>97.75</ele><time>2026-03-29T11:32:26.07Z</time></trkpt><trkpt lat="43.2529559" lon="-8.2734278"><ele>98.0</ele><time>2026-03-29T11:32:27.07Z</time></trkpt><trkpt lat="43.2530563" lon="-8.2735532"><ele>99.60000000000001</ele><time>2026-03-29T11:32:28.07Z</time></trkpt><trkpt lat="43.2531505" lon="-8.2736788"><ele>101.2</ele><time>2026-03-29T11:32:29.07Z</time></trkpt><trkpt lat="43.2532076" lon="-8.2737439"><ele>102.8</ele><time>2026-03-29T11:32:30.07Z</time></trkpt><trkpt lat="43.2532643" lon="-8.2738088"><ele>104.4</ele><time>2026-03-29T11:32:31.07Z</time></trkpt><trkpt lat="43.2533615" lon="-8.273936"><ele>106.0</ele><time>2026-03-29T11:32:33.07Z</time></trkpt><trkpt lat="43.2534282" lon="-8.2740223"><ele>106.5</ele><time>2026-03-29T11:32:34.071Z</time></trkpt><trkpt lat="43.253503" lon="-8.2741169"><ele>107.0</ele><time>2026-03-29T11:32:35.07Z</time></trkpt><trkpt lat="43.2535851" lon="-8.2742208"><ele>107.5</ele><time>2026-03-29T11:32:36.07Z</time></trkpt><trkpt lat="43.2536768" lon="-8.2743406"><ele>108.0</ele><time>2026-03-29T11:32:37.07Z</time></trkpt><trkpt lat="43.2537819" lon="-8.2744508"><ele>108.0</ele><time>2026-03-29T11:32:38.071Z</time></trkpt><trkpt lat="43.2539121" lon="-8.2745439"><ele>108.0</ele><time>2026-03-29T11:32:39.07Z</time></trkpt><trkpt lat="43.254074" lon="-8.2746019"><ele>108.0</ele><time>2026-03-29T11:32:40.07Z</time></trkpt><trkpt lat="43.2542628" lon="-8.274616"><ele>112.33333333333334</ele><time>2026-03-29T11:32:41.07Z</time></trkpt><trkpt lat="43.2544582" lon="-8.2745851"><ele>116.66666666666667</ele><time>2026-03-29T11:32:42.07Z</time></trkpt><trkpt lat="43.2546508" lon="-8.2745054"><ele>121.0</ele><time>2026-03-29T11:32:43.07Z</time></trkpt><trkpt lat="43.2548383" lon="-8.2743733"><ele>121.66666666666667</ele><time>2026-03-29T11:32:44.07Z</time></trkpt><trkpt lat="43.2550241" lon="-8.2742287"><ele>122.33333333333334</ele><time>2026-03-29T11:32:45.07Z</time></trkpt><trkpt lat="43.2552075" lon="-8.274092"><ele>123.0</ele><time>2026-03-29T11:32:46.071Z</time></trkpt><trkpt lat="43.2553984" lon="-8.2739809"><ele>123.33333333333334</ele><time>2026-03-29T11:32:47.07Z</time></trkpt><trkpt lat="43.2555971" lon="-8.2739009"><ele>123.66666666666667</ele><time>2026-03-29T11:32:48.071Z</time></trkpt><trkpt lat="43.2558036" lon="-8.2738236"><ele>124.0</ele><time>2026-03-29T11:32:49.07Z</time></trkpt><trkpt lat="43.2560113" lon="-8.273742"><ele>124.0</ele><time>2026-03-29T11:32:50.071Z</time></trkpt><trkpt lat="43.2562164" lon="-8.2736605"><ele>124.0</ele><time>2026-03-29T11:32:51.07Z</time></trkpt><trkpt lat="43.2564131" lon="-8.2735868"><ele>124.0</ele><time>2026-03-29T11:32:52.07Z</time></trkpt><trkpt lat="43.2566053" lon="-8.2735229"><ele>122.33333333333334</ele><time>2026-03-29T11:32:53.07Z</time></trkpt><trkpt lat="43.2568026" lon="-8.2734732"><ele>120.66666666666666</ele><time>2026-03-29T11:32:54.07Z</time></trkpt><trkpt lat="43.2570106" lon="-8.2734442"><ele>119.0</ele><time>2026-03-29T11:32:55.071Z</time></trkpt><trkpt lat="43.2572261" lon="-8.2734261"><ele>116.0</ele><time>2026-03-29T11:32:56.07Z</time></trkpt><trkpt lat="43.2574458" lon="-8.2734121"><ele>113.0</ele><time>2026-03-29T11:32:57.071Z</time></trkpt><trkpt lat="43.2576684" lon="-8.2733944"><ele>110.0</ele><time>2026-03-29T11:32:58.07Z</time></trkpt><trkpt lat="43.2578919" lon="-8.2733788"><ele>107.5</ele><time>2026-03-29T11:32:59.071Z</time></trkpt><trkpt lat="43.2581191" lon="-8.2733663"><ele>105.0</ele><time>2026-03-29T11:33:00.071Z</time></trkpt><trkpt lat="43.2583498" lon="-8.2733507"><ele>105.0</ele><time>2026-03-29T11:33:01.071Z</time></trkpt><trkpt lat="43.2585776" lon="-8.2733347"><ele>105.0</ele><time>2026-03-29T11:33:02.071Z</time></trkpt><trkpt lat="43.2588022" lon="-8.2733197"><ele>104.66666666666666</ele><time>2026-03-29T11:33:03.07Z</time></trkpt><trkpt lat="43.259023" lon="-8.2733072"><ele>104.33333333333333</ele><time>2026-03-29T11:33:04.07Z</time></trkpt><trkpt lat="43.2592415" lon="-8.2732914"><ele>104.0</ele><time>2026-03-29T11:33:05.07Z</time></trkpt><trkpt lat="43.2594516" lon="-8.2732742"><ele>104.0</ele><time>2026-03-29T11:33:06.07Z</time></trkpt><trkpt lat="43.2596623" lon="-8.2732572"><ele>104.0</ele><time>2026-03-29T11:33:07.07Z</time></trkpt><trkpt lat="43.2598681" lon="-8.2732393"><ele>104.0</ele><time>2026-03-29T11:33:08.07Z</time></trkpt><trkpt lat="43.2600699" lon="-8.2732271"><ele>104.0</ele><time>2026-03-29T11:33:09.071Z</time></trkpt><trkpt lat="43.2602691" lon="-8.2732173"><ele>104.0</ele><time>2026-03-29T11:33:10.071Z</time></trkpt><trkpt lat="43.2604634" lon="-8.2732005"><ele>104.0</ele><time>2026-03-29T11:33:11.071Z</time></trkpt><trkpt lat="43.2606578" lon="-8.2731842"><ele>104.66666666666666</ele><time>2026-03-29T11:33:12.07Z</time></trkpt><trkpt lat="43.260851" lon="-8.2731774"><ele>105.33333333333334</ele><time>2026-03-29T11:33:13.07Z</time></trkpt><trkpt lat="43.261041" lon="-8.2731705"><ele>106.0</ele><time>2026-03-29T11:33:14.07Z</time></trkpt><trkpt lat="43.261237" lon="-8.2731558"><ele>106.0</ele><time>2026-03-29T11:33:15.07Z</time></trkpt><trkpt lat="43.2614354" lon="-8.2731323"><ele>106.0</ele><time>2026-03-29T11:33:16.071Z</time></trkpt><trkpt lat="43.2616342" lon="-8.2731161"><ele>106.0</ele><time>2026-03-29T11:33:17.071Z</time></trkpt><trkpt lat="43.2618245" lon="-8.2731129"><ele>107.33333333333334</ele><time>2026-03-29T11:33:18.07Z</time></trkpt><trkpt lat="43.2620226" lon="-8.2731535"><ele>108.66666666666666</ele><time>2026-03-29T11:33:19.071Z</time></trkpt><trkpt lat="43.262199" lon="-8.2732128"><ele>110.0</ele><time>2026-03-29T11:33:20.07Z</time></trkpt><trkpt lat="43.262359" lon="-8.2732818"><ele>110.33333333333333</ele><time>2026-03-29T11:33:21.071Z</time></trkpt><trkpt lat="43.2625125" lon="-8.273369"><ele>110.66666666666666</ele><time>2026-03-29T11:33:22.07Z</time></trkpt><trkpt lat="43.262654" lon="-8.2734559"><ele>111.0</ele><time>2026-03-29T11:33:23.07Z</time></trkpt><trkpt lat="43.2627911" lon="-8.2735441"><ele>111.0</ele><time>2026-03-29T11:33:24.07Z</time></trkpt><trkpt lat="43.2629222" lon="-8.2736243"><ele>111.0</ele><time>2026-03-29T11:33:25.071Z</time></trkpt><trkpt lat="43.2630477" lon="-8.2737016"><ele>111.0</ele><time>2026-03-29T11:33:26.07Z</time></trkpt><trkpt lat="43.2631684" lon="-8.2737649"><ele>111.0</ele><time>2026-03-29T11:33:27.07Z</time></trkpt><trkpt lat="43.2632862" lon="-8.2738272"><ele>110.5</ele><time>2026-03-29T11:33:28.07Z</time></trkpt><trkpt lat="43.2634029" lon="-8.2738935"><ele>110.0</ele><time>2026-03-29T11:33:29.07Z</time></trkpt><trkpt lat="43.2635167" lon="-8.2739578"><ele>109.5</ele><time>2026-03-29T11:33:30.071Z</time></trkpt><trkpt lat="43.2636327" lon="-8.2740246"><ele>109.0</ele><time>2026-03-29T11:33:31.07Z</time></trkpt><trkpt lat="43.2637471" lon="-8.2740947"><ele>108.5</ele><time>2026-03-29T11:33:32.07Z</time></trkpt><trkpt lat="43.2638598" lon="-8.2741638"><ele>108.0</ele><time>2026-03-29T11:33:33.07Z</time></trkpt><trkpt lat="43.2639779" lon="-8.2742277"><ele>107.5</ele><time>2026-03-29T11:33:34.07Z</time></trkpt><trkpt lat="43.2640981" lon="-8.2743019"><ele>107.0</ele><time>2026-03-29T11:33:35.07Z</time></trkpt><trkpt lat="43.2642159" lon="-8.2743714"><ele>105.5</ele><time>2026-03-29T11:33:36.07Z</time></trkpt><trkpt lat="43.2643282" lon="-8.2744394"><ele>104.0</ele><time>2026-03-29T11:33:37.071Z</time></trkpt><trkpt lat="43.2644362" lon="-8.2745017"><ele>102.5</ele><time>2026-03-29T11:33:38.07Z</time></trkpt><trkpt lat="43.2645366" lon="-8.2745591"><ele>101.0</ele><time>2026-03-29T11:33:39.07Z</time></trkpt><trkpt lat="43.2646355" lon="-8.2746188"><ele>101.0</ele><time>2026-03-29T11:33:40.07Z</time></trkpt><trkpt lat="43.2647322" lon="-8.2746741"><ele>101.0</ele><time>2026-03-29T11:33:41.07Z</time></trkpt><trkpt lat="43.2648292" lon="-8.2747305"><ele>101.0</ele><time>2026-03-29T11:33:42.07Z</time></trkpt><trkpt lat="43.2649313" lon="-8.2747904"><ele>101.0</ele><time>2026-03-29T11:33:43.07Z</time></trkpt><trkpt lat="43.2650368" lon="-8.2748521"><ele>101.0</ele><time>2026-03-29T11:33:44.071Z</time></trkpt><trkpt lat="43.2651389" lon="-8.2749152"><ele>99.6</ele><time>2026-03-29T11:33:45.071Z</time></trkpt><trkpt lat="43.2652371" lon="-8.27498"><ele>98.19999999999999</ele><time>2026-03-29T11:33:46.07Z</time></trkpt><trkpt lat="43.2653223" lon="-8.2750391"><ele>96.80000000000001</ele><time>2026-03-29T11:33:47.07Z</time></trkpt><trkpt lat="43.2654224" lon="-8.2751165"><ele>95.4</ele><time>2026-03-29T11:33:48.071Z</time></trkpt><trkpt lat="43.2655218" lon="-8.275196"><ele>94.0</ele><time>2026-03-29T11:33:49.071Z</time></trkpt><trkpt lat="43.265612" lon="-8.2752734"><ele>93.0</ele><time>2026-03-29T11:33:50.07Z</time></trkpt><trkpt lat="43.2656983" lon="-8.2753491"><ele>92.0</ele><time>2026-03-29T11:33:51.07Z</time></trkpt><trkpt lat="43.2657733" lon="-8.2754378"><ele>91.0</ele><time>2026-03-29T11:33:52.07Z</time></trkpt><trkpt lat="43.2658453" lon="-8.275535"><ele>90.0</ele><time>2026-03-29T11:33:53.07Z</time></trkpt><trkpt lat="43.2659119" lon="-8.2756542"><ele>89.0</ele><time>2026-03-29T11:33:54.07Z</time></trkpt><trkpt lat="43.2659829" lon="-8.2757903"><ele>87.75</ele><time>2026-03-29T11:33:55.07Z</time></trkpt><trkpt lat="43.2660587" lon="-8.275941"><ele>86.5</ele><time>2026-03-29T11:33:56.07Z</time></trkpt><trkpt lat="43.2661405" lon="-8.2761113"><ele>85.25</ele><time>2026-03-29T11:33:57.07Z</time></trkpt><trkpt lat="43.2662254" lon="-8.2762798"><ele>84.0</ele><time>2026-03-29T11:33:58.07Z</time></trkpt><trkpt lat="43.2663107" lon="-8.2764456"><ele>83.25</ele><time>2026-03-29T11:33:59.07Z</time></trkpt><trkpt lat="43.2664021" lon="-8.2766013"><ele>82.5</ele><time>2026-03-29T11:34:00.07Z</time></trkpt><trkpt lat="43.2664971" lon="-8.2767586"><ele>81.75</ele><time>2026-03-29T11:34:01.071Z</time></trkpt><trkpt lat="43.2666037" lon="-8.2768577"><ele>81.0</ele><time>2026-03-29T11:34:02.071Z</time></trkpt><trkpt lat="43.2667219" lon="-8.276939"><ele>80.25</ele><time>2026-03-29T11:34:03.07Z</time></trkpt><trkpt lat="43.2668431" lon="-8.2769952"><ele>79.5</ele><time>2026-03-29T11:34:04.07Z</time></trkpt><trkpt lat="43.2669645" lon="-8.2770464"><ele>78.75</ele><time>2026-03-29T11:34:05.07Z</time></trkpt><trkpt lat="43.2670862" lon="-8.2770927"><ele>78.0</ele><time>2026-03-29T11:34:06.07Z</time></trkpt><trkpt lat="43.2672075" lon="-8.277124"><ele>76.2</ele><time>2026-03-29T11:34:07.07Z</time></trkpt><trkpt lat="43.2673261" lon="-8.2771264"><ele>74.4</ele><time>2026-03-29T11:34:08.07Z</time></trkpt><trkpt lat="43.2674402" lon="-8.2771164"><ele>72.60000000000001</ele><time>2026-03-29T11:34:09.071Z</time></trkpt><trkpt lat="43.2675443" lon="-8.2771087"><ele>70.8</ele><time>2026-03-29T11:34:10.071Z</time></trkpt><trkpt lat="43.2676443" lon="-8.2771249"><ele>69.0</ele><time>2026-03-29T11:34:11.07Z</time></trkpt><trkpt lat="43.2677253" lon="-8.2771669"><ele>69.0</ele><time>2026-03-29T11:34:12.07Z</time></trkpt><trkpt lat="43.2677925" lon="-8.2772378"><ele>69.0</ele><time>2026-03-29T11:34:13.07Z</time></trkpt><trkpt lat="43.2678553" lon="-8.2773046"><ele>69.0</ele><time>2026-03-29T11:34:14.07Z</time></trkpt><trkpt lat="43.2679139" lon="-8.2773845"><ele>69.0</ele><time>2026-03-29T11:34:15.071Z</time></trkpt><trkpt lat="43.267973" lon="-8.2774644"><ele>69.0</ele><time>2026-03-29T11:34:16.071Z</time></trkpt><trkpt lat="43.2680193" lon="-8.27757"><ele>69.0</ele><time>2026-03-29T11:34:17.071Z</time></trkpt><trkpt lat="43.2680602" lon="-8.2776836"><ele>68.4</ele><time>2026-03-29T11:34:18.071Z</time></trkpt><trkpt lat="43.2681049" lon="-8.2778032"><ele>67.80000000000001</ele><time>2026-03-29T11:34:19.07Z</time></trkpt><trkpt lat="43.2681464" lon="-8.2779245"><ele>67.19999999999999</ele><time>2026-03-29T11:34:20.07Z</time></trkpt><trkpt lat="43.2681979" lon="-8.2780327"><ele>66.6</ele><time>2026-03-29T11:34:21.07Z</time></trkpt><trkpt lat="43.268269" lon="-8.278123"><ele>66.0</ele><time>2026-03-29T11:34:22.07Z</time></trkpt><trkpt lat="43.2683456" lon="-8.2781847"><ele>64.2</ele><time>2026-03-29T11:34:23.07Z</time></trkpt><trkpt lat="43.2684298" lon="-8.2782105"><ele>62.39999999999999</ele><time>2026-03-29T11:34:24.071Z</time></trkpt><trkpt lat="43.2685172" lon="-8.2781984"><ele>60.6</ele><time>2026-03-29T11:34:25.07Z</time></trkpt><trkpt lat="43.268608" lon="-8.2781701"><ele>58.8</ele><time>2026-03-29T11:34:26.071Z</time></trkpt><trkpt lat="43.2686987" lon="-8.2781545"><ele>57.0</ele><time>2026-03-29T11:34:27.071Z</time></trkpt><trkpt lat="43.2687924" lon="-8.2781485"><ele>57.0</ele><time>2026-03-29T11:34:28.07Z</time></trkpt><trkpt lat="43.2688827" lon="-8.2781912"><ele>57.0</ele><time>2026-03-29T11:34:29.07Z</time></trkpt><trkpt lat="43.2689726" lon="-8.278242"><ele>57.0</ele><time>2026-03-29T11:34:30.07Z</time></trkpt><trkpt lat="43.2690598" lon="-8.278304"><ele>57.0</ele><time>2026-03-29T11:34:31.071Z</time></trkpt><trkpt lat="43.2691544" lon="-8.2783783"><ele>57.0</ele><time>2026-03-29T11:34:32.07Z</time></trkpt><trkpt lat="43.2692519" lon="-8.2784514"><ele>55.25</ele><time>2026-03-29T11:34:33.071Z</time></trkpt><trkpt lat="43.269355" lon="-8.2785306"><ele>53.5</ele><time>2026-03-29T11:34:34.07Z</time></trkpt><trkpt lat="43.2694612" lon="-8.2786052"><ele>51.75</ele><time>2026-03-29T11:34:35.071Z</time></trkpt><trkpt lat="43.2695702" lon="-8.2786891"><ele>50.0</ele><time>2026-03-29T11:34:36.071Z</time></trkpt><trkpt lat="43.2696778" lon="-8.2787757"><ele>49.0</ele><time>2026-03-29T11:34:37.07Z</time></trkpt><trkpt lat="43.269789" lon="-8.2788588"><ele>48.0</ele><time>2026-03-29T11:34:38.071Z</time></trkpt><trkpt lat="43.2699009" lon="-8.2789386"><ele>47.0</ele><time>2026-03-29T11:34:39.07Z</time></trkpt><trkpt lat="43.2700147" lon="-8.2790042"><ele>46.0</ele><time>2026-03-29T11:34:40.07Z</time></trkpt><trkpt lat="43.2701332" lon="-8.2790527"><ele>46.0</ele><time>2026-03-29T11:34:41.07Z</time></trkpt><trkpt lat="43.2702526" lon="-8.2790735"><ele>46.0</ele><time>2026-03-29T11:34:42.071Z</time></trkpt><trkpt lat="43.2703766" lon="-8.2790792"><ele>46.0</ele><time>2026-03-29T11:34:43.07Z</time></trkpt><trkpt lat="43.2704987" lon="-8.2790784"><ele>46.0</ele><time>2026-03-29T11:34:44.071Z</time></trkpt><trkpt lat="43.2706252" lon="-8.2790816"><ele>46.25</ele><time>2026-03-29T11:34:45.07Z</time></trkpt><trkpt lat="43.2707533" lon="-8.2790818"><ele>46.5</ele><time>2026-03-29T11:34:46.071Z</time></trkpt><trkpt lat="43.2708813" lon="-8.2790827"><ele>46.75</ele><time>2026-03-29T11:34:47.07Z</time></trkpt><trkpt lat="43.2710097" lon="-8.279085"><ele>47.0</ele><time>2026-03-29T11:34:48.071Z</time></trkpt><trkpt lat="43.2711407" lon="-8.2790858"><ele>47.0</ele><time>2026-03-29T11:34:49.071Z</time></trkpt><trkpt lat="43.2712706" lon="-8.2790867"><ele>47.0</ele><time>2026-03-29T11:34:50.071Z</time></trkpt><trkpt lat="43.2714039" lon="-8.2790922"><ele>47.0</ele><time>2026-03-29T11:34:51.071Z</time></trkpt><trkpt lat="43.2715376" lon="-8.2791062"><ele>47.0</ele><time>2026-03-29T11:34:52.07Z</time></trkpt><trkpt lat="43.2716748" lon="-8.2791488"><ele>46.75</ele><time>2026-03-29T11:34:53.07Z</time></trkpt><trkpt lat="43.2717985" lon="-8.2792024"><ele>46.5</ele><time>2026-03-29T11:34:54.07Z</time></trkpt><trkpt lat="43.2719346" lon="-8.2792857"><ele>46.25</ele><time>2026-03-29T11:34:55.071Z</time></trkpt><trkpt lat="43.2720687" lon="-8.2793711"><ele>46.0</ele><time>2026-03-29T11:34:56.071Z</time></trkpt><trkpt lat="43.272203" lon="-8.2794593"><ele>45.0</ele><time>2026-03-29T11:34:57.07Z</time></trkpt><trkpt lat="43.2723353" lon="-8.2795432"><ele>44.0</ele><time>2026-03-29T11:34:58.07Z</time></trkpt><trkpt lat="43.2724686" lon="-8.2796285"><ele>43.0</ele><time>2026-03-29T11:34:59.07Z</time></trkpt><trkpt lat="43.272598" lon="-8.2797134"><ele>42.0</ele><time>2026-03-29T11:35:00.07Z</time></trkpt><trkpt lat="43.2727277" lon="-8.2797966"><ele>41.5</ele><time>2026-03-29T11:35:01.07Z</time></trkpt><trkpt lat="43.2728569" lon="-8.2798789"><ele>41.0</ele><time>2026-03-29T11:35:02.07Z</time></trkpt><trkpt lat="43.2729873" lon="-8.279962"><ele>40.5</ele><time>2026-03-29T11:35:03.071Z</time></trkpt><trkpt lat="43.2731138" lon="-8.2800417"><ele>40.0</ele><time>2026-03-29T11:35:04.07Z</time></trkpt><trkpt lat="43.2732518" lon="-8.2801268"><ele>39.5</ele><time>2026-03-29T11:35:05.071Z</time></trkpt><trkpt lat="43.2733701" lon="-8.2801973"><ele>39.0</ele><time>2026-03-29T11:35:06.07Z</time></trkpt><trkpt lat="43.2734959" lon="-8.280272"><ele>38.5</ele><time>2026-03-29T11:35:07.07Z</time></trkpt><trkpt lat="43.2736261" lon="-8.280348"><ele>38.0</ele><time>2026-03-29T11:35:08.07Z</time></trkpt><trkpt lat="43.2737538" lon="-8.2804211"><ele>38.0</ele><time>2026-03-29T11:35:09.07Z</time></trkpt><trkpt lat="43.2738847" lon="-8.2804925"><ele>38.0</ele><time>2026-03-29T11:35:10.071Z</time></trkpt><trkpt lat="43.2740184" lon="-8.2805506"><ele>38.0</ele><time>2026-03-29T11:35:11.07Z</time></trkpt><trkpt lat="43.2741571" lon="-8.2805993"><ele>38.0</ele><time>2026-03-29T11:35:12.07Z</time></trkpt><trkpt lat="43.2742926" lon="-8.2806433"><ele>38.25</ele><time>2026-03-29T11:35:13.07Z</time></trkpt><trkpt lat="43.2744269" lon="-8.2806935"><ele>38.5</ele><time>2026-03-29T11:35:14.07Z</time></trkpt><trkpt lat="43.2745629" lon="-8.2807403"><ele>38.75</ele><time>2026-03-29T11:35:15.071Z</time></trkpt><trkpt lat="43.2746945" lon="-8.2807808"><ele>39.0</ele><time>2026-03-29T11:35:16.071Z</time></trkpt><trkpt lat="43.2748213" lon="-8.2808267"><ele>39.0</ele><time>2026-03-29T11:35:17.07Z</time></trkpt><trkpt lat="43.2749445" lon="-8.280872"><ele>39.0</ele><time>2026-03-29T11:35:18.071Z</time></trkpt><trkpt lat="43.2750667" lon="-8.2809136"><ele>39.0</ele><time>2026-03-29T11:35:19.07Z</time></trkpt><trkpt lat="43.2751816" lon="-8.2809599"><ele>39.0</ele><time>2026-03-29T11:35:20.07Z</time></trkpt><trkpt lat="43.2752843" lon="-8.281011"><ele>39.0</ele><time>2026-03-29T11:35:21.07Z</time></trkpt><trkpt lat="43.2753728" lon="-8.281082"><ele>39.0</ele><time>2026-03-29T11:35:22.07Z</time></trkpt><trkpt lat="43.2754367" lon="-8.2811888"><ele>39.0</ele><time>2026-03-29T11:35:23.07Z</time></trkpt><trkpt lat="43.275488" lon="-8.2812876"><ele>39.0</ele><time>2026-03-29T11:35:24.071Z</time></trkpt><trkpt lat="43.275466" lon="-8.2814293"><ele>39.0</ele><time>2026-03-29T11:35:25.07Z</time></trkpt><trkpt lat="43.2754204" lon="-8.2815396"><ele>38.6</ele><time>2026-03-29T11:35:26.071Z</time></trkpt><trkpt lat="43.2753514" lon="-8.2816233"><ele>38.2</ele><time>2026-03-29T11:35:27.071Z</time></trkpt><trkpt lat="43.2752635" lon="-8.2816808"><ele>37.800000000000004</ele><time>2026-03-29T11:35:28.071Z</time></trkpt><trkpt lat="43.2751654" lon="-8.2817286"><ele>37.4</ele><time>2026-03-29T11:35:29.07Z</time></trkpt><trkpt lat="43.2750671" lon="-8.2817745"><ele>37.0</ele><time>2026-03-29T11:35:30.07Z</time></trkpt><trkpt lat="43.2749627" lon="-8.2818205"><ele>37.0</ele><time>2026-03-29T11:35:31.07Z</time></trkpt><trkpt lat="43.2748575" lon="-8.2818721"><ele>37.0</ele><time>2026-03-29T11:35:32.07Z</time></trkpt><trkpt lat="43.2747478" lon="-8.2819226"><ele>37.0</ele><time>2026-03-29T11:35:33.07Z</time></trkpt><trkpt lat="43.2746358" lon="-8.2819782"><ele>37.0</ele><time>2026-03-29T11:35:34.071Z</time></trkpt><trkpt lat="43.2745222" lon="-8.2820339"><ele>37.25</ele><time>2026-03-29T11:35:35.07Z</time></trkpt><trkpt lat="43.2744056" lon="-8.282104"><ele>37.5</ele><time>2026-03-29T11:35:36.07Z</time></trkpt><trkpt lat="43.274289" lon="-8.282189"><ele>37.75</ele><time>2026-03-29T11:35:37.071Z</time></trkpt><trkpt lat="43.2741722" lon="-8.282297"><ele>38.0</ele><time>2026-03-29T11:35:38.07Z</time></trkpt><trkpt lat="43.2740611" lon="-8.2824218"><ele>38.666666666666664</ele><time>2026-03-29T11:35:39.071Z</time></trkpt><trkpt lat="43.2739578" lon="-8.2825727"><ele>39.333333333333336</ele><time>2026-03-29T11:35:40.07Z</time></trkpt><trkpt lat="43.2738599" lon="-8.2827359"><ele>40.0</ele><time>2026-03-29T11:35:41.07Z</time></trkpt><trkpt lat="43.2737794" lon="-8.2829163"><ele>42.25</ele><time>2026-03-29T11:35:42.07Z</time></trkpt><trkpt lat="43.2737171" lon="-8.2830979"><ele>44.5</ele><time>2026-03-29T11:35:43.071Z</time></trkpt><trkpt lat="43.2736759" lon="-8.2832861"><ele>46.75</ele><time>2026-03-29T11:35:44.07Z</time></trkpt><trkpt lat="43.2736456" lon="-8.2834805"><ele>49.0</ele><time>2026-03-29T11:35:45.07Z</time></trkpt><trkpt lat="43.273625" lon="-8.283674"><ele>49.0</ele><time>2026-03-29T11:35:46.07Z</time></trkpt><trkpt lat="43.273605" lon="-8.2838656"><ele>49.0</ele><time>2026-03-29T11:35:47.07Z</time></trkpt><trkpt lat="43.2735838" lon="-8.284054"><ele>49.0</ele><time>2026-03-29T11:35:48.071Z</time></trkpt><trkpt lat="43.2735597" lon="-8.284241"><ele>49.0</ele><time>2026-03-29T11:35:49.07Z</time></trkpt><trkpt lat="43.273533" lon="-8.2844108"><ele>49.5</ele><time>2026-03-29T11:35:50.07Z</time></trkpt><trkpt lat="43.2735019" lon="-8.2845872"><ele>50.0</ele><time>2026-03-29T11:35:51.07Z</time></trkpt><trkpt lat="43.2734524" lon="-8.2847295"><ele>50.5</ele><time>2026-03-29T11:35:52.071Z</time></trkpt><trkpt lat="43.2733983" lon="-8.2848655"><ele>51.0</ele><time>2026-03-29T11:35:53.07Z</time></trkpt><trkpt lat="43.2733406" lon="-8.2850022"><ele>51.25</ele><time>2026-03-29T11:35:54.071Z</time></trkpt><trkpt lat="43.2732911" lon="-8.2851443"><ele>51.5</ele><time>2026-03-29T11:35:55.07Z</time></trkpt><trkpt lat="43.2732522" lon="-8.285295"><ele>51.75</ele><time>2026-03-29T11:35:56.07Z</time></trkpt><trkpt lat="43.2732348" lon="-8.285454"><ele>52.0</ele><time>2026-03-29T11:35:57.071Z</time></trkpt><trkpt lat="43.2732334" lon="-8.2856209"><ele>52.25</ele><time>2026-03-29T11:35:58.071Z</time></trkpt><trkpt lat="43.2732469" lon="-8.2857878"><ele>52.5</ele><time>2026-03-29T11:35:59.071Z</time></trkpt><trkpt lat="43.2732661" lon="-8.2859512"><ele>52.75</ele><time>2026-03-29T11:36:00.07Z</time></trkpt><trkpt lat="43.2732816" lon="-8.2861104"><ele>53.0</ele><time>2026-03-29T11:36:01.071Z</time></trkpt><trkpt lat="43.2732956" lon="-8.2862575"><ele>53.0</ele><time>2026-03-29T11:36:02.07Z</time></trkpt><trkpt lat="43.2733087" lon="-8.2863989"><ele>53.0</ele><time>2026-03-29T11:36:03.071Z</time></trkpt><trkpt lat="43.2733351" lon="-8.2865326"><ele>53.0</ele><time>2026-03-29T11:36:04.07Z</time></trkpt><trkpt lat="43.2733736" lon="-8.2866418"><ele>53.0</ele><time>2026-03-29T11:36:05.07Z</time></trkpt><trkpt lat="43.2734318" lon="-8.2867326"><ele>53.0</ele><time>2026-03-29T11:36:06.07Z</time></trkpt><trkpt lat="43.2735008" lon="-8.2867897"><ele>52.4</ele><time>2026-03-29T11:36:07.071Z</time></trkpt><trkpt lat="43.2735746" lon="-8.2868398"><ele>51.8</ele><time>2026-03-29T11:36:08.071Z</time></trkpt><trkpt lat="43.2736554" lon="-8.2868915"><ele>51.2</ele><time>2026-03-29T11:36:09.071Z</time></trkpt><trkpt lat="43.2737398" lon="-8.2869495"><ele>50.6</ele><time>2026-03-29T11:36:10.07Z</time></trkpt><trkpt lat="43.2738344" lon="-8.2870122"><ele>50.0</ele><time>2026-03-29T11:36:11.07Z</time></trkpt><trkpt lat="43.2739334" lon="-8.2870789"><ele>49.5</ele><time>2026-03-29T11:36:12.07Z</time></trkpt><trkpt lat="43.274039" lon="-8.2871528"><ele>49.0</ele><time>2026-03-29T11:36:13.07Z</time></trkpt><trkpt lat="43.2741517" lon="-8.2872237"><ele>48.5</ele><time>2026-03-29T11:36:14.071Z</time></trkpt><trkpt lat="43.2742659" lon="-8.2872947"><ele>48.0</ele><time>2026-03-29T11:36:15.07Z</time></trkpt><trkpt lat="43.27438" lon="-8.2873691"><ele>46.75</ele><time>2026-03-29T11:36:16.07Z</time></trkpt><trkpt lat="43.2744822" lon="-8.2874527"><ele>45.5</ele><time>2026-03-29T11:36:17.07Z</time></trkpt><trkpt lat="43.2745651" lon="-8.287565"><ele>44.25</ele><time>2026-03-29T11:36:18.07Z</time></trkpt><trkpt lat="43.274621" lon="-8.2876972"><ele>43.0</ele><time>2026-03-29T11:36:19.071Z</time></trkpt><trkpt lat="43.2746484" lon="-8.2878528"><ele>43.0</ele><time>2026-03-29T11:36:20.071Z</time></trkpt><trkpt lat="43.2746618" lon="-8.2880214"><ele>43.0</ele><time>2026-03-29T11:36:21.071Z</time></trkpt><trkpt lat="43.27467" lon="-8.2881885"><ele>43.0</ele><time>2026-03-29T11:36:22.07Z</time></trkpt><trkpt lat="43.2746904" lon="-8.2883579"><ele>43.0</ele><time>2026-03-29T11:36:23.07Z</time></trkpt><trkpt lat="43.274711" lon="-8.2885363"><ele>42.0</ele><time>2026-03-29T11:36:24.07Z</time></trkpt><trkpt lat="43.2747401" lon="-8.2887182"><ele>41.0</ele><time>2026-03-29T11:36:25.071Z</time></trkpt><trkpt lat="43.2747408" lon="-8.2889058"><ele>40.0</ele><time>2026-03-29T11:36:26.07Z</time></trkpt><trkpt lat="43.274757" lon="-8.2890872"><ele>39.0</ele><time>2026-03-29T11:36:27.07Z</time></trkpt><trkpt lat="43.2747538" lon="-8.2892788"><ele>37.5</ele><time>2026-03-29T11:36:28.07Z</time></trkpt><trkpt lat="43.2747519" lon="-8.2894768"><ele>36.0</ele><time>2026-03-29T11:36:29.07Z</time></trkpt><trkpt lat="43.274747" lon="-8.2896729"><ele>34.5</ele><time>2026-03-29T11:36:30.071Z</time></trkpt><trkpt lat="43.2747445" lon="-8.2898645"><ele>33.0</ele><time>2026-03-29T11:36:31.07Z</time></trkpt><trkpt lat="43.2747519" lon="-8.2900635"><ele>31.75</ele><time>2026-03-29T11:36:32.07Z</time></trkpt><trkpt lat="43.2747583" lon="-8.290258"><ele>30.5</ele><time>2026-03-29T11:36:33.07Z</time></trkpt><trkpt lat="43.2747653" lon="-8.2904552"><ele>29.25</ele><time>2026-03-29T11:36:34.071Z</time></trkpt><trkpt lat="43.2747714" lon="-8.2906531"><ele>28.0</ele><time>2026-03-29T11:36:35.07Z</time></trkpt><trkpt lat="43.274777" lon="-8.2908576"><ele>28.0</ele><time>2026-03-29T11:36:36.07Z</time></trkpt><trkpt lat="43.2747841" lon="-8.2910626"><ele>28.0</ele><time>2026-03-29T11:36:37.07Z</time></trkpt><trkpt lat="43.2747885" lon="-8.2912659"><ele>28.0</ele><time>2026-03-29T11:36:38.07Z</time></trkpt><trkpt lat="43.2747914" lon="-8.291467"><ele>28.0</ele><time>2026-03-29T11:36:39.071Z</time></trkpt><trkpt lat="43.2747983" lon="-8.2916836"><ele>28.0</ele><time>2026-03-29T11:36:40.071Z</time></trkpt><trkpt lat="43.2748059" lon="-8.2918852"><ele>28.0</ele><time>2026-03-29T11:36:41.07Z</time></trkpt><trkpt lat="43.2748162" lon="-8.2921003"><ele>28.0</ele><time>2026-03-29T11:36:42.071Z</time></trkpt><trkpt lat="43.2748254" lon="-8.2923167"><ele>28.0</ele><time>2026-03-29T11:36:43.071Z</time></trkpt><trkpt lat="43.2748336" lon="-8.292539"><ele>28.0</ele><time>2026-03-29T11:36:44.071Z</time></trkpt><trkpt lat="43.2748378" lon="-8.2927605"><ele>28.0</ele><time>2026-03-29T11:36:45.07Z</time></trkpt><trkpt lat="43.2748458" lon="-8.2929913"><ele>28.0</ele><time>2026-03-29T11:36:46.07Z</time></trkpt><trkpt lat="43.2748547" lon="-8.293219"><ele>28.0</ele><time>2026-03-29T11:36:47.071Z</time></trkpt><trkpt lat="43.2748644" lon="-8.2934507"><ele>28.0</ele><time>2026-03-29T11:36:48.07Z</time></trkpt><trkpt lat="43.2748731" lon="-8.2936827"><ele>28.0</ele><time>2026-03-29T11:36:49.07Z</time></trkpt><trkpt lat="43.2748811" lon="-8.2939118"><ele>28.0</ele><time>2026-03-29T11:36:50.071Z</time></trkpt><trkpt lat="43.2748906" lon="-8.2941443"><ele>28.0</ele><time>2026-03-29T11:36:51.07Z</time></trkpt><trkpt lat="43.2749005" lon="-8.2943686"><ele>28.0</ele><time>2026-03-29T11:36:52.07Z</time></trkpt><trkpt lat="43.2749069" lon="-8.2945853"><ele>28.0</ele><time>2026-03-29T11:36:53.07Z</time></trkpt><trkpt lat="43.2749138" lon="-8.2947877"><ele>28.0</ele><time>2026-03-29T11:36:54.071Z</time></trkpt><trkpt lat="43.2749208" lon="-8.2949813"><ele>28.0</ele><time>2026-03-29T11:36:55.07Z</time></trkpt><trkpt lat="43.2749277" lon="-8.295161"><ele>29.2</ele><time>2026-03-29T11:36:56.07Z</time></trkpt><trkpt lat="43.2749344" lon="-8.2953234"><ele>30.4</ele><time>2026-03-29T11:36:57.07Z</time></trkpt><trkpt lat="43.2749414" lon="-8.2954715"><ele>31.599999999999998</ele><time>2026-03-29T11:36:58.071Z</time></trkpt><trkpt lat="43.2749465" lon="-8.2956002"><ele>32.8</ele><time>2026-03-29T11:36:59.07Z</time></trkpt><trkpt lat="43.2749524" lon="-8.2957206"><ele>34.0</ele><time>2026-03-29T11:37:00.07Z</time></trkpt><trkpt lat="43.2749592" lon="-8.2958278"><ele>34.71428571428571</ele><time>2026-03-29T11:37:01.07Z</time></trkpt><trkpt lat="43.2749674" lon="-8.295935"><ele>35.42857142857143</ele><time>2026-03-29T11:37:02.07Z</time></trkpt><trkpt lat="43.2749612" lon="-8.2960261"><ele>36.14285714285714</ele><time>2026-03-29T11:37:03.07Z</time></trkpt><trkpt lat="43.2749381" lon="-8.2961132"><ele>36.857142857142854</ele><time>2026-03-29T11:37:04.071Z</time></trkpt><trkpt lat="43.2749001" lon="-8.2961868"><ele>37.57142857142857</ele><time>2026-03-29T11:37:05.07Z</time></trkpt><trkpt lat="43.27486" lon="-8.2962707"><ele>38.285714285714285</ele><time>2026-03-29T11:37:06.071Z</time></trkpt><trkpt lat="43.2748198" lon="-8.2963572"><ele>39.0</ele><time>2026-03-29T11:37:07.071Z</time></trkpt><trkpt lat="43.2747847" lon="-8.2964519"><ele>40.833333333333336</ele><time>2026-03-29T11:37:08.07Z</time></trkpt><trkpt lat="43.2747528" lon="-8.2965524"><ele>42.66666666666667</ele><time>2026-03-29T11:37:09.07Z</time></trkpt><trkpt lat="43.2747099" lon="-8.2966547"><ele>44.5</ele><time>2026-03-29T11:37:10.07Z</time></trkpt><trkpt lat="43.2746658" lon="-8.2967587"><ele>46.333333333333336</ele><time>2026-03-29T11:37:11.071Z</time></trkpt><trkpt lat="43.2746209" lon="-8.2968679"><ele>48.16666666666667</ele><time>2026-03-29T11:37:12.07Z</time></trkpt><trkpt lat="43.2745747" lon="-8.296975"><ele>50.0</ele><time>2026-03-29T11:37:13.071Z</time></trkpt><trkpt lat="43.2745224" lon="-8.297082"><ele>50.0</ele><time>2026-03-29T11:37:14.07Z</time></trkpt><trkpt lat="43.2744759" lon="-8.2971892"><ele>50.0</ele><time>2026-03-29T11:37:15.07Z</time></trkpt><trkpt lat="43.2744285" lon="-8.2972913"><ele>50.0</ele><time>2026-03-29T11:37:16.07Z</time></trkpt><trkpt lat="43.2743794" lon="-8.2973935"><ele>50.0</ele><time>2026-03-29T11:37:17.07Z</time></trkpt><trkpt lat="43.2743281" lon="-8.2974975"><ele>50.0</ele><time>2026-03-29T11:37:18.071Z</time></trkpt><trkpt lat="43.2742797" lon="-8.2976039"><ele>50.6</ele><time>2026-03-29T11:37:19.071Z</time></trkpt><trkpt lat="43.2742319" lon="-8.2977183"><ele>51.2</ele><time>2026-03-29T11:37:20.07Z</time></trkpt><trkpt lat="43.2741796" lon="-8.2978389"><ele>51.8</ele><time>2026-03-29T11:37:21.07Z</time></trkpt><trkpt lat="43.2741241" lon="-8.2979655"><ele>52.4</ele><time>2026-03-29T11:37:22.071Z</time></trkpt><trkpt lat="43.2740623" lon="-8.2981012"><ele>53.0</ele><time>2026-03-29T11:37:23.071Z</time></trkpt><trkpt lat="43.2740089" lon="-8.2982321"><ele>53.0</ele><time>2026-03-29T11:37:24.071Z</time></trkpt><trkpt lat="43.2739693" lon="-8.2983579"><ele>53.0</ele><time>2026-03-29T11:37:25.07Z</time></trkpt><trkpt lat="43.2739442" lon="-8.2984814"><ele>53.0</ele><time>2026-03-29T11:37:26.071Z</time></trkpt><trkpt lat="43.2739262" lon="-8.2986084"><ele>53.0</ele><time>2026-03-29T11:37:27.07Z</time></trkpt><trkpt lat="43.2739153" lon="-8.298727"><ele>53.0</ele><time>2026-03-29T11:37:28.071Z</time></trkpt><trkpt lat="43.2738973" lon="-8.2988315"><ele>54.599999999999994</ele><time>2026-03-29T11:37:29.071Z</time></trkpt><trkpt lat="43.2738683" lon="-8.2989295"><ele>56.199999999999996</ele><time>2026-03-29T11:37:30.07Z</time></trkpt><trkpt lat="43.2738325" lon="-8.2990227"><ele>57.8</ele><time>2026-03-29T11:37:31.071Z</time></trkpt><trkpt lat="43.2737916" lon="-8.2991291"><ele>59.4</ele><time>2026-03-29T11:37:32.07Z</time></trkpt><trkpt lat="43.2737542" lon="-8.299259"><ele>61.0</ele><time>2026-03-29T11:37:33.07Z</time></trkpt><trkpt lat="43.2737294" lon="-8.299402"><ele>61.0</ele><time>2026-03-29T11:37:34.07Z</time></trkpt><trkpt lat="43.2737238" lon="-8.2995753"><ele>61.0</ele><time>2026-03-29T11:37:35.07Z</time></trkpt><trkpt lat="43.2737341" lon="-8.2997621"><ele>61.0</ele><time>2026-03-29T11:37:36.07Z</time></trkpt><trkpt lat="43.2737591" lon="-8.299959"><ele>61.0</ele><time>2026-03-29T11:37:37.071Z</time></trkpt><trkpt lat="43.2738108" lon="-8.3001471"><ele>62.0</ele><time>2026-03-29T11:37:38.07Z</time></trkpt><trkpt lat="43.2738807" lon="-8.3003351"><ele>63.0</ele><time>2026-03-29T11:37:39.07Z</time></trkpt><trkpt lat="43.2739738" lon="-8.3005198"><ele>64.0</ele><time>2026-03-29T11:37:40.07Z</time></trkpt><trkpt lat="43.2740799" lon="-8.3006911"><ele>64.33333333333333</ele><time>2026-03-29T11:37:41.071Z</time></trkpt><trkpt lat="43.2741728" lon="-8.3008839"><ele>64.66666666666667</ele><time>2026-03-29T11:37:42.07Z</time></trkpt><trkpt lat="43.274234" lon="-8.3011078"><ele>65.0</ele><time>2026-03-29T11:37:43.07Z</time></trkpt><trkpt lat="43.2742806" lon="-8.3013444"><ele>65.33333333333334</ele><time>2026-03-29T11:37:44.07Z</time></trkpt><trkpt lat="43.2743176" lon="-8.3015609"><ele>65.66666666666667</ele><time>2026-03-29T11:37:45.07Z</time></trkpt><trkpt lat="43.2743422" lon="-8.3017678"><ele>66.0</ele><time>2026-03-29T11:37:46.071Z</time></trkpt><trkpt lat="43.2743789" lon="-8.3019708"><ele>66.0</ele><time>2026-03-29T11:37:47.071Z</time></trkpt><trkpt lat="43.2743693" lon="-8.3021494"><ele>66.0</ele><time>2026-03-29T11:37:48.07Z</time></trkpt><trkpt lat="43.2743608" lon="-8.3023263"><ele>66.0</ele><time>2026-03-29T11:37:49.07Z</time></trkpt><trkpt lat="43.2743534" lon="-8.3025012"><ele>66.0</ele><time>2026-03-29T11:37:50.071Z</time></trkpt><trkpt lat="43.2743506" lon="-8.302665"><ele>64.75</ele><time>2026-03-29T11:37:51.07Z</time></trkpt><trkpt lat="43.2743631" lon="-8.3028236"><ele>63.5</ele><time>2026-03-29T11:37:52.07Z</time></trkpt><trkpt lat="43.2743869" lon="-8.3029773"><ele>62.25</ele><time>2026-03-29T11:37:53.07Z</time></trkpt><trkpt lat="43.2744275" lon="-8.3031224"><ele>61.0</ele><time>2026-03-29T11:37:54.071Z</time></trkpt><trkpt lat="43.2744791" lon="-8.3032622"><ele>60.25</ele><time>2026-03-29T11:37:55.07Z</time></trkpt><trkpt lat="43.2745403" lon="-8.3033925"><ele>59.5</ele><time>2026-03-29T11:37:56.07Z</time></trkpt><trkpt lat="43.2745977" lon="-8.303525"><ele>58.75</ele><time>2026-03-29T11:37:57.07Z</time></trkpt><trkpt lat="43.2746527" lon="-8.3036694"><ele>58.0</ele><time>2026-03-29T11:37:58.071Z</time></trkpt><trkpt lat="43.274703" lon="-8.3038164"><ele>57.0</ele><time>2026-03-29T11:37:59.07Z</time></trkpt><trkpt lat="43.2747384" lon="-8.3039772"><ele>56.0</ele><time>2026-03-29T11:38:00.07Z</time></trkpt><trkpt lat="43.2747564" lon="-8.304137"><ele>55.0</ele><time>2026-03-29T11:38:01.07Z</time></trkpt><trkpt lat="43.2747552" lon="-8.3043017"><ele>54.0</ele><time>2026-03-29T11:38:02.07Z</time></trkpt><trkpt lat="43.2747427" lon="-8.3044682"><ele>54.0</ele><time>2026-03-29T11:38:03.071Z</time></trkpt><trkpt lat="43.2747247" lon="-8.3046343"><ele>54.0</ele><time>2026-03-29T11:38:04.07Z</time></trkpt><trkpt lat="43.2747161" lon="-8.3048034"><ele>54.0</ele><time>2026-03-29T11:38:05.071Z</time></trkpt><trkpt lat="43.2747252" lon="-8.304974"><ele>54.0</ele><time>2026-03-29T11:38:06.07Z</time></trkpt><trkpt lat="43.27474" lon="-8.3051476"><ele>52.75</ele><time>2026-03-29T11:38:07.07Z</time></trkpt><trkpt lat="43.274765" lon="-8.3053127"><ele>51.5</ele><time>2026-03-29T11:38:08.07Z</time></trkpt><trkpt lat="43.2748001" lon="-8.3054676"><ele>50.25</ele><time>2026-03-29T11:38:09.071Z</time></trkpt><trkpt lat="43.2748445" lon="-8.3056192"><ele>49.0</ele><time>2026-03-29T11:38:10.07Z</time></trkpt><trkpt lat="43.2748884" lon="-8.3057669"><ele>46.0</ele><time>2026-03-29T11:38:11.07Z</time></trkpt><trkpt lat="43.2749254" lon="-8.3059168"><ele>43.0</ele><time>2026-03-29T11:38:12.07Z</time></trkpt><trkpt lat="43.2749476" lon="-8.3060711"><ele>40.0</ele><time>2026-03-29T11:38:13.07Z</time></trkpt><trkpt lat="43.2749649" lon="-8.3062329"><ele>37.0</ele><time>2026-03-29T11:38:14.071Z</time></trkpt><trkpt lat="43.2749933" lon="-8.3063993"><ele>34.75</ele><time>2026-03-29T11:38:15.071Z</time></trkpt><trkpt lat="43.2750348" lon="-8.3065598"><ele>32.5</ele><time>2026-03-29T11:38:16.07Z</time></trkpt><trkpt lat="43.2750833" lon="-8.3067211"><ele>30.25</ele><time>2026-03-29T11:38:17.07Z</time></trkpt><trkpt lat="43.275139" lon="-8.3068844"><ele>28.0</ele><time>2026-03-29T11:38:18.07Z</time></trkpt><trkpt lat="43.2751975" lon="-8.3070488"><ele>28.0</ele><time>2026-03-29T11:38:19.07Z</time></trkpt><trkpt lat="43.2752539" lon="-8.3072139"><ele>28.0</ele><time>2026-03-29T11:38:20.071Z</time></trkpt><trkpt lat="43.2753131" lon="-8.3073865"><ele>28.0</ele><time>2026-03-29T11:38:21.07Z</time></trkpt><trkpt lat="43.2753682" lon="-8.3075606"><ele>28.0</ele><time>2026-03-29T11:38:22.07Z</time></trkpt><trkpt lat="43.2754227" lon="-8.307737"><ele>28.0</ele><time>2026-03-29T11:38:23.07Z</time></trkpt><trkpt lat="43.2754728" lon="-8.3079193"><ele>28.0</ele><time>2026-03-29T11:38:24.071Z</time></trkpt><trkpt lat="43.2755189" lon="-8.3081002"><ele>28.0</ele><time>2026-03-29T11:38:25.07Z</time></trkpt><trkpt lat="43.2755731" lon="-8.3082808"><ele>28.0</ele><time>2026-03-29T11:38:26.071Z</time></trkpt><trkpt lat="43.2756347" lon="-8.3084609"><ele>28.25</ele><time>2026-03-29T11:38:27.07Z</time></trkpt><trkpt lat="43.2756995" lon="-8.3086317"><ele>28.5</ele><time>2026-03-29T11:38:28.07Z</time></trkpt><trkpt lat="43.2757574" lon="-8.3088047"><ele>28.75</ele><time>2026-03-29T11:38:29.07Z</time></trkpt><trkpt lat="43.2758038" lon="-8.3089367"><ele>29.0</ele><time>2026-03-29T11:38:30.306Z</time></trkpt><trkpt lat="43.2758674" lon="-8.3091471"><ele>28.75</ele><time>2026-03-29T11:38:31.456Z</time></trkpt><trkpt lat="43.2759082" lon="-8.3093598"><ele>28.5</ele><time>2026-03-29T11:38:32.064Z</time></trkpt><trkpt lat="43.2759126" lon="-8.3095552"><ele>28.25</ele><time>2026-03-29T11:38:33.066Z</time></trkpt><trkpt lat="43.2759021" lon="-8.3097556"><ele>28.0</ele><time>2026-03-29T11:38:34.066Z</time></trkpt><trkpt lat="43.275889" lon="-8.3099438"><ele>28.0</ele><time>2026-03-29T11:38:35.072Z</time></trkpt><trkpt lat="43.2758729" lon="-8.3101315"><ele>28.0</ele><time>2026-03-29T11:38:36.068Z</time></trkpt><trkpt lat="43.2758611" lon="-8.3103172"><ele>28.0</ele><time>2026-03-29T11:38:37.066Z</time></trkpt><trkpt lat="43.2758659" lon="-8.3104909"><ele>28.0</ele><time>2026-03-29T11:38:38.065Z</time></trkpt><trkpt lat="43.2758628" lon="-8.310667"><ele>29.0</ele><time>2026-03-29T11:38:39.065Z</time></trkpt><trkpt lat="43.2759334" lon="-8.3108187"><ele>30.0</ele><time>2026-03-29T11:38:40.065Z</time></trkpt><trkpt lat="43.2759778" lon="-8.310972"><ele>31.0</ele><time>2026-03-29T11:38:41.066Z</time></trkpt><trkpt lat="43.276031" lon="-8.311133"><ele>32.0</ele><time>2026-03-29T11:38:42.066Z</time></trkpt><trkpt lat="43.2760598" lon="-8.3113007"><ele>33.5</ele><time>2026-03-29T11:38:43.066Z</time></trkpt><trkpt lat="43.2760778" lon="-8.3114718"><ele>35.0</ele><time>2026-03-29T11:38:44.066Z</time></trkpt><trkpt lat="43.2760914" lon="-8.3116495"><ele>36.5</ele><time>2026-03-29T11:38:45.065Z</time></trkpt><trkpt lat="43.2761031" lon="-8.3118236"><ele>38.0</ele><time>2026-03-29T11:38:46.066Z</time></trkpt><trkpt lat="43.2761092" lon="-8.3120055"><ele>38.0</ele><time>2026-03-29T11:38:47.065Z</time></trkpt><trkpt lat="43.2761176" lon="-8.3121888"><ele>38.0</ele><time>2026-03-29T11:38:48.066Z</time></trkpt><trkpt lat="43.2761272" lon="-8.3123691"><ele>38.0</ele><time>2026-03-29T11:38:49.065Z</time></trkpt><trkpt lat="43.2761348" lon="-8.3125591"><ele>38.0</ele><time>2026-03-29T11:38:50.066Z</time></trkpt><trkpt lat="43.2761423" lon="-8.3127474"><ele>40.75</ele><time>2026-03-29T11:38:51.065Z</time></trkpt><trkpt lat="43.2761443" lon="-8.3129377"><ele>43.5</ele><time>2026-03-29T11:38:52.065Z</time></trkpt><trkpt lat="43.2761397" lon="-8.3131273"><ele>46.25</ele><time>2026-03-29T11:38:53.065Z</time></trkpt><trkpt lat="43.2761258" lon="-8.3133169"><ele>49.0</ele><time>2026-03-29T11:38:54.065Z</time></trkpt><trkpt lat="43.2761074" lon="-8.3134972"><ele>50.0</ele><time>2026-03-29T11:38:55.065Z</time></trkpt><trkpt lat="43.2760838" lon="-8.3136688"><ele>51.0</ele><time>2026-03-29T11:38:56.066Z</time></trkpt><trkpt lat="43.2760621" lon="-8.3138375"><ele>52.0</ele><time>2026-03-29T11:38:57.065Z</time></trkpt><trkpt lat="43.27604" lon="-8.3140057"><ele>53.0</ele><time>2026-03-29T11:38:58.065Z</time></trkpt><trkpt lat="43.2760262" lon="-8.3141766"><ele>53.25</ele><time>2026-03-29T11:38:59.065Z</time></trkpt><trkpt lat="43.2760231" lon="-8.3143436"><ele>53.5</ele><time>2026-03-29T11:39:00.066Z</time></trkpt><trkpt lat="43.2760477" lon="-8.3145099"><ele>53.75</ele><time>2026-03-29T11:39:01.065Z</time></trkpt><trkpt lat="43.2761075" lon="-8.3146597"><ele>54.0</ele><time>2026-03-29T11:39:02.065Z</time></trkpt><trkpt lat="43.2761737" lon="-8.3148018"><ele>55.5</ele><time>2026-03-29T11:39:03.066Z</time></trkpt><trkpt lat="43.276234" lon="-8.314943"><ele>57.0</ele><time>2026-03-29T11:39:04.066Z</time></trkpt><trkpt lat="43.276281" lon="-8.3151064"><ele>58.5</ele><time>2026-03-29T11:39:05.066Z</time></trkpt><trkpt lat="43.2763107" lon="-8.3152832"><ele>60.0</ele><time>2026-03-29T11:39:06.065Z</time></trkpt><trkpt lat="43.2763175" lon="-8.3154653"><ele>62.0</ele><time>2026-03-29T11:39:07.065Z</time></trkpt><trkpt lat="43.2763031" lon="-8.3156536"><ele>64.0</ele><time>2026-03-29T11:39:08.065Z</time></trkpt><trkpt lat="43.2762773" lon="-8.3158449"><ele>66.0</ele><time>2026-03-29T11:39:09.065Z</time></trkpt><trkpt lat="43.2762515" lon="-8.3160345"><ele>68.0</ele><time>2026-03-29T11:39:10.065Z</time></trkpt><trkpt lat="43.2762258" lon="-8.3162264"><ele>68.0</ele><time>2026-03-29T11:39:11.065Z</time></trkpt><trkpt lat="43.2762037" lon="-8.3164116"><ele>68.0</ele><time>2026-03-29T11:39:12.065Z</time></trkpt><trkpt lat="43.2761822" lon="-8.3165919"><ele>68.0</ele><time>2026-03-29T11:39:13.065Z</time></trkpt><trkpt lat="43.2761664" lon="-8.3167676"><ele>68.0</ele><time>2026-03-29T11:39:14.065Z</time></trkpt><trkpt lat="43.2761649" lon="-8.3169409"><ele>68.0</ele><time>2026-03-29T11:39:15.066Z</time></trkpt><trkpt lat="43.2761863" lon="-8.3171041"><ele>68.0</ele><time>2026-03-29T11:39:16.066Z</time></trkpt><trkpt lat="43.2762288" lon="-8.3172469"><ele>68.0</ele><time>2026-03-29T11:39:17.066Z</time></trkpt><trkpt lat="43.276287" lon="-8.3173791"><ele>68.0</ele><time>2026-03-29T11:39:18.065Z</time></trkpt><trkpt lat="43.2763493" lon="-8.3175067"><ele>68.25</ele><time>2026-03-29T11:39:19.065Z</time></trkpt><trkpt lat="43.2764076" lon="-8.3176424"><ele>68.5</ele><time>2026-03-29T11:39:20.065Z</time></trkpt><trkpt lat="43.2764543" lon="-8.3177853"><ele>68.75</ele><time>2026-03-29T11:39:21.065Z</time></trkpt><trkpt lat="43.2764833" lon="-8.3179368"><ele>69.0</ele><time>2026-03-29T11:39:22.066Z</time></trkpt><trkpt lat="43.27648" lon="-8.3180983"><ele>69.25</ele><time>2026-03-29T11:39:23.065Z</time></trkpt><trkpt lat="43.2764731" lon="-8.3182596"><ele>69.5</ele><time>2026-03-29T11:39:24.065Z</time></trkpt><trkpt lat="43.2764642" lon="-8.3184183"><ele>69.75</ele><time>2026-03-29T11:39:25.065Z</time></trkpt><trkpt lat="43.2764533" lon="-8.3185809"><ele>70.0</ele><time>2026-03-29T11:39:26.066Z</time></trkpt><trkpt lat="43.2764397" lon="-8.3187481"><ele>72.0</ele><time>2026-03-29T11:39:27.065Z</time></trkpt><trkpt lat="43.2764205" lon="-8.3189149"><ele>74.0</ele><time>2026-03-29T11:39:28.066Z</time></trkpt><trkpt lat="43.2763986" lon="-8.3190818"><ele>76.0</ele><time>2026-03-29T11:39:29.065Z</time></trkpt><trkpt lat="43.2763797" lon="-8.3192417"><ele>78.0</ele><time>2026-03-29T11:39:30.066Z</time></trkpt><trkpt lat="43.2763664" lon="-8.3194039"><ele>78.0</ele><time>2026-03-29T11:39:31.065Z</time></trkpt><trkpt lat="43.2763677" lon="-8.319562"><ele>78.0</ele><time>2026-03-29T11:39:32.066Z</time></trkpt><trkpt lat="43.276386" lon="-8.3197142"><ele>78.0</ele><time>2026-03-29T11:39:33.066Z</time></trkpt><trkpt lat="43.2764345" lon="-8.3198517"><ele>78.0</ele><time>2026-03-29T11:39:34.065Z</time></trkpt><trkpt lat="43.2765036" lon="-8.319978"><ele>76.0</ele><time>2026-03-29T11:39:35.065Z</time></trkpt><trkpt lat="43.276581" lon="-8.3200965"><ele>74.0</ele><time>2026-03-29T11:39:36.066Z</time></trkpt><trkpt lat="43.2766714" lon="-8.3202144"><ele>72.0</ele><time>2026-03-29T11:39:37.065Z</time></trkpt><trkpt lat="43.2767597" lon="-8.3203352"><ele>70.0</ele><time>2026-03-29T11:39:38.065Z</time></trkpt><trkpt lat="43.2768542" lon="-8.3204602"><ele>69.75</ele><time>2026-03-29T11:39:39.065Z</time></trkpt><trkpt lat="43.2769524" lon="-8.3205826"><ele>69.5</ele><time>2026-03-29T11:39:40.065Z</time></trkpt><trkpt lat="43.2770493" lon="-8.3207036"><ele>69.25</ele><time>2026-03-29T11:39:41.065Z</time></trkpt><trkpt lat="43.2771463" lon="-8.3208247"><ele>69.0</ele><time>2026-03-29T11:39:42.066Z</time></trkpt><trkpt lat="43.2772377" lon="-8.3209478"><ele>66.75</ele><time>2026-03-29T11:39:43.065Z</time></trkpt><trkpt lat="43.2773362" lon="-8.3210711"><ele>64.5</ele><time>2026-03-29T11:39:44.066Z</time></trkpt><trkpt lat="43.2774356" lon="-8.3212016"><ele>62.25</ele><time>2026-03-29T11:39:45.066Z</time></trkpt><trkpt lat="43.2775322" lon="-8.3213354"><ele>60.0</ele><time>2026-03-29T11:39:46.066Z</time></trkpt><trkpt lat="43.2776235" lon="-8.3214853"><ele>60.0</ele><time>2026-03-29T11:39:47.065Z</time></trkpt><trkpt lat="43.2776979" lon="-8.3216598"><ele>60.0</ele><time>2026-03-29T11:39:48.065Z</time></trkpt><trkpt lat="43.2777601" lon="-8.3218386"><ele>60.0</ele><time>2026-03-29T11:39:49.065Z</time></trkpt><trkpt lat="43.2778231" lon="-8.3220125"><ele>60.0</ele><time>2026-03-29T11:39:50.066Z</time></trkpt><trkpt lat="43.2778992" lon="-8.3221687"><ele>59.75</ele><time>2026-03-29T11:39:51.065Z</time></trkpt><trkpt lat="43.2779776" lon="-8.322315"><ele>59.5</ele><time>2026-03-29T11:39:52.065Z</time></trkpt><trkpt lat="43.2780631" lon="-8.3224528"><ele>59.25</ele><time>2026-03-29T11:39:53.065Z</time></trkpt><trkpt lat="43.2781462" lon="-8.3225811"><ele>59.0</ele><time>2026-03-29T11:39:54.066Z</time></trkpt><trkpt lat="43.2782272" lon="-8.3227035"><ele>59.0</ele><time>2026-03-29T11:39:55.065Z</time></trkpt><trkpt lat="43.2783015" lon="-8.3228354"><ele>59.0</ele><time>2026-03-29T11:39:56.065Z</time></trkpt><trkpt lat="43.2783697" lon="-8.3229742"><ele>59.0</ele><time>2026-03-29T11:39:57.066Z</time></trkpt><trkpt lat="43.2784261" lon="-8.3231189"><ele>59.0</ele><time>2026-03-29T11:39:58.066Z</time></trkpt><trkpt lat="43.2784678" lon="-8.323269"><ele>59.833333333333336</ele><time>2026-03-29T11:39:59.065Z</time></trkpt><trkpt lat="43.2785068" lon="-8.3234095"><ele>60.66666666666667</ele><time>2026-03-29T11:40:00.065Z</time></trkpt><trkpt lat="43.2785531" lon="-8.3235291"><ele>61.5</ele><time>2026-03-29T11:40:01.066Z</time></trkpt><trkpt lat="43.2785961" lon="-8.3236232"><ele>62.33333333333333</ele><time>2026-03-29T11:40:02.065Z</time></trkpt><trkpt lat="43.2786391" lon="-8.3237018"><ele>63.166666666666664</ele><time>2026-03-29T11:40:03.066Z</time></trkpt><trkpt lat="43.2786877" lon="-8.3237698"><ele>64.0</ele><time>2026-03-29T11:40:04.066Z</time></trkpt><trkpt lat="43.2787337" lon="-8.3238307"><ele>63.49999999999999</ele><time>2026-03-29T11:40:05.065Z</time></trkpt><trkpt lat="43.2788288" lon="-8.3239358"><ele>63.0</ele><time>2026-03-29T11:40:07.066Z</time></trkpt><trkpt lat="43.2788798" lon="-8.3239889"><ele>62.5</ele><time>2026-03-29T11:40:08.065Z</time></trkpt><trkpt lat="43.2789401" lon="-8.3240549"><ele>62.0</ele><time>2026-03-29T11:40:09.066Z</time></trkpt><trkpt lat="43.2790109" lon="-8.3241209"><ele>61.49999999999999</ele><time>2026-03-29T11:40:10.065Z</time></trkpt><trkpt lat="43.2790857" lon="-8.3241909"><ele>61.0</ele><time>2026-03-29T11:40:11.065Z</time></trkpt><trkpt lat="43.2791717" lon="-8.3242625"><ele>61.0</ele><time>2026-03-29T11:40:12.065Z</time></trkpt><trkpt lat="43.2792619" lon="-8.3243388"><ele>60.99999999999999</ele><time>2026-03-29T11:40:13.066Z</time></trkpt><trkpt lat="43.2793521" lon="-8.3244268"><ele>60.99999999999999</ele><time>2026-03-29T11:40:14.066Z</time></trkpt><trkpt lat="43.2794454" lon="-8.3245079"><ele>61.0</ele><time>2026-03-29T11:40:15.066Z</time></trkpt><trkpt lat="43.2795349" lon="-8.3245935"><ele>61.0</ele><time>2026-03-29T11:40:16.066Z</time></trkpt><trkpt lat="43.2796229" lon="-8.3246727"><ele>60.4</ele><time>2026-03-29T11:40:17.066Z</time></trkpt><trkpt lat="43.2797101" lon="-8.3247473"><ele>59.8</ele><time>2026-03-29T11:40:18.065Z</time></trkpt><trkpt lat="43.2797958" lon="-8.3248232"><ele>59.199999999999996</ele><time>2026-03-29T11:40:19.065Z</time></trkpt><trkpt lat="43.2798822" lon="-8.3249053"><ele>58.599999999999994</ele><time>2026-03-29T11:40:20.066Z</time></trkpt><trkpt lat="43.2799793" lon="-8.3249872"><ele>58.0</ele><time>2026-03-29T11:40:21.065Z</time></trkpt><trkpt lat="43.2800754" lon="-8.325069"><ele>58.0</ele><time>2026-03-29T11:40:22.065Z</time></trkpt><trkpt lat="43.2801767" lon="-8.3251575"><ele>58.0</ele><time>2026-03-29T11:40:23.065Z</time></trkpt><trkpt lat="43.2802783" lon="-8.3252492"><ele>58.0</ele><time>2026-03-29T11:40:24.065Z</time></trkpt><trkpt lat="43.2803688" lon="-8.3253647"><ele>58.0</ele><time>2026-03-29T11:40:25.065Z</time></trkpt><trkpt lat="43.2804461" lon="-8.3255002"><ele>58.25</ele><time>2026-03-29T11:40:26.066Z</time></trkpt><trkpt lat="43.2805126" lon="-8.3256475"><ele>58.5</ele><time>2026-03-29T11:40:27.065Z</time></trkpt><trkpt lat="43.28058" lon="-8.3257902"><ele>58.75</ele><time>2026-03-29T11:40:28.065Z</time></trkpt><trkpt lat="43.2806541" lon="-8.3259252"><ele>59.0</ele><time>2026-03-29T11:40:29.065Z</time></trkpt><trkpt lat="43.2807295" lon="-8.3260508"><ele>57.5</ele><time>2026-03-29T11:40:30.065Z</time></trkpt><trkpt lat="43.2808173" lon="-8.3261675"><ele>56.0</ele><time>2026-03-29T11:40:31.066Z</time></trkpt><trkpt lat="43.2809035" lon="-8.3262777"><ele>54.5</ele><time>2026-03-29T11:40:32.066Z</time></trkpt><trkpt lat="43.2809807" lon="-8.3263977"><ele>53.0</ele><time>2026-03-29T11:40:33.065Z</time></trkpt><trkpt lat="43.2810467" lon="-8.3265263"><ele>53.0</ele><time>2026-03-29T11:40:34.065Z</time></trkpt><trkpt lat="43.2811104" lon="-8.3266649"><ele>53.0</ele><time>2026-03-29T11:40:35.066Z</time></trkpt><trkpt lat="43.2811751" lon="-8.3268103"><ele>53.0</ele><time>2026-03-29T11:40:36.066Z</time></trkpt><trkpt lat="43.2812403" lon="-8.3269501"><ele>53.0</ele><time>2026-03-29T11:40:37.066Z</time></trkpt><trkpt lat="43.2813166" lon="-8.327088"><ele>53.0</ele><time>2026-03-29T11:40:38.065Z</time></trkpt><trkpt lat="43.2813928" lon="-8.3272222"><ele>53.0</ele><time>2026-03-29T11:40:39.066Z</time></trkpt><trkpt lat="43.2814696" lon="-8.3273549"><ele>53.0</ele><time>2026-03-29T11:40:40.065Z</time></trkpt><trkpt lat="43.2815565" lon="-8.3274798"><ele>53.0</ele><time>2026-03-29T11:40:41.066Z</time></trkpt><trkpt lat="43.2816431" lon="-8.3275951"><ele>53.0</ele><time>2026-03-29T11:40:42.066Z</time></trkpt><trkpt lat="43.2817356" lon="-8.3276893"><ele>53.0</ele><time>2026-03-29T11:40:43.065Z</time></trkpt><trkpt lat="43.2818305" lon="-8.3277561"><ele>53.0</ele><time>2026-03-29T11:40:44.065Z</time></trkpt><trkpt lat="43.2819272" lon="-8.3277999"><ele>53.0</ele><time>2026-03-29T11:40:45.066Z</time></trkpt><trkpt lat="43.2820277" lon="-8.327814"><ele>53.0</ele><time>2026-03-29T11:40:46.065Z</time></trkpt><trkpt lat="43.2821318" lon="-8.3278203"><ele>53.0</ele><time>2026-03-29T11:40:47.066Z</time></trkpt><trkpt lat="43.2822388" lon="-8.3278258"><ele>53.0</ele><time>2026-03-29T11:40:48.066Z</time></trkpt><trkpt lat="43.282349" lon="-8.3278397"><ele>53.0</ele><time>2026-03-29T11:40:49.065Z</time></trkpt><trkpt lat="43.2824611" lon="-8.3278727"><ele>53.0</ele><time>2026-03-29T11:40:50.065Z</time></trkpt><trkpt lat="43.2825662" lon="-8.32795"><ele>52.75</ele><time>2026-03-29T11:40:51.066Z</time></trkpt><trkpt lat="43.2826621" lon="-8.3280424"><ele>52.5</ele><time>2026-03-29T11:40:52.066Z</time></trkpt><trkpt lat="43.2827513" lon="-8.3281417"><ele>52.25</ele><time>2026-03-29T11:40:53.066Z</time></trkpt><trkpt lat="43.2828411" lon="-8.3282459"><ele>52.0</ele><time>2026-03-29T11:40:54.065Z</time></trkpt><trkpt lat="43.2829314" lon="-8.3283468"><ele>51.75</ele><time>2026-03-29T11:40:55.066Z</time></trkpt><trkpt lat="43.2830247" lon="-8.3284467"><ele>51.5</ele><time>2026-03-29T11:40:56.065Z</time></trkpt><trkpt lat="43.2831161" lon="-8.3285456"><ele>51.25</ele><time>2026-03-29T11:40:57.065Z</time></trkpt><trkpt lat="43.2832112" lon="-8.3286479"><ele>51.0</ele><time>2026-03-29T11:40:58.066Z</time></trkpt><trkpt lat="43.2833028" lon="-8.3287396"><ele>50.0</ele><time>2026-03-29T11:40:59.065Z</time></trkpt><trkpt lat="43.2834058" lon="-8.3288439"><ele>49.0</ele><time>2026-03-29T11:41:00.065Z</time></trkpt><trkpt lat="43.2835053" lon="-8.3289453"><ele>48.0</ele><time>2026-03-29T11:41:01.065Z</time></trkpt><trkpt lat="43.2836082" lon="-8.3290461"><ele>47.0</ele><time>2026-03-29T11:41:02.065Z</time></trkpt><trkpt lat="43.2837146" lon="-8.3291458"><ele>46.5</ele><time>2026-03-29T11:41:03.065Z</time></trkpt><trkpt lat="43.2838257" lon="-8.3292297"><ele>46.0</ele><time>2026-03-29T11:41:04.066Z</time></trkpt><trkpt lat="43.2839469" lon="-8.329294"><ele>45.5</ele><time>2026-03-29T11:41:05.065Z</time></trkpt><trkpt lat="43.2840744" lon="-8.3293306"><ele>45.0</ele><time>2026-03-29T11:41:06.065Z</time></trkpt><trkpt lat="43.2842036" lon="-8.3293544"><ele>43.25</ele><time>2026-03-29T11:41:07.065Z</time></trkpt><trkpt lat="43.2843385" lon="-8.3293762"><ele>41.5</ele><time>2026-03-29T11:41:08.066Z</time></trkpt><trkpt lat="43.2844689" lon="-8.3294119"><ele>39.75</ele><time>2026-03-29T11:41:09.066Z</time></trkpt><trkpt lat="43.2845998" lon="-8.3294662"><ele>38.0</ele><time>2026-03-29T11:41:10.066Z</time></trkpt><trkpt lat="43.284727" lon="-8.3295424"><ele>36.0</ele><time>2026-03-29T11:41:11.065Z</time></trkpt><trkpt lat="43.2848553" lon="-8.3296263"><ele>34.0</ele><time>2026-03-29T11:41:12.066Z</time></trkpt><trkpt lat="43.2849733" lon="-8.3297353"><ele>32.0</ele><time>2026-03-29T11:41:13.066Z</time></trkpt><trkpt lat="43.2850867" lon="-8.3298561"><ele>30.0</ele><time>2026-03-29T11:41:14.066Z</time></trkpt><trkpt lat="43.2852042" lon="-8.3299746"><ele>27.666666666666668</ele><time>2026-03-29T11:41:15.066Z</time></trkpt><trkpt lat="43.2853316" lon="-8.3300823"><ele>25.333333333333336</ele><time>2026-03-29T11:41:16.066Z</time></trkpt><trkpt lat="43.2854648" lon="-8.3301899"><ele>23.0</ele><time>2026-03-29T11:41:17.065Z</time></trkpt><trkpt lat="43.285601" lon="-8.3302876"><ele>22.0</ele><time>2026-03-29T11:41:18.066Z</time></trkpt><trkpt lat="43.2857354" lon="-8.3303736"><ele>21.0</ele><time>2026-03-29T11:41:19.066Z</time></trkpt><trkpt lat="43.2858635" lon="-8.3304622"><ele>20.0</ele><time>2026-03-29T11:41:20.066Z</time></trkpt><trkpt lat="43.2859814" lon="-8.330551"><ele>19.0</ele><time>2026-03-29T11:41:21.065Z</time></trkpt><trkpt lat="43.2860897" lon="-8.3306469"><ele>17.4</ele><time>2026-03-29T11:41:22.066Z</time></trkpt><trkpt lat="43.2861852" lon="-8.3307498"><ele>15.799999999999999</ele><time>2026-03-29T11:41:23.065Z</time></trkpt><trkpt lat="43.286276" lon="-8.3308402"><ele>14.2</ele><time>2026-03-29T11:41:24.065Z</time></trkpt><trkpt lat="43.286357" lon="-8.3309345"><ele>12.600000000000001</ele><time>2026-03-29T11:41:25.065Z</time></trkpt><trkpt lat="43.2864311" lon="-8.3310223"><ele>11.0</ele><time>2026-03-29T11:41:26.065Z</time></trkpt><trkpt lat="43.2864964" lon="-8.331116"><ele>11.0</ele><time>2026-03-29T11:41:27.066Z</time></trkpt><trkpt lat="43.286553" lon="-8.3312012"><ele>11.0</ele><time>2026-03-29T11:41:28.066Z</time></trkpt><trkpt lat="43.2866013" lon="-8.3312807"><ele>11.0</ele><time>2026-03-29T11:41:29.065Z</time></trkpt><trkpt lat="43.286645" lon="-8.3313491"><ele>11.0</ele><time>2026-03-29T11:41:30.066Z</time></trkpt><trkpt lat="43.2867091" lon="-8.3314604"><ele>11.0</ele><time>2026-03-29T11:41:32.065Z</time></trkpt><trkpt lat="43.2867939" lon="-8.3316197"><ele>11.0</ele><time>2026-03-29T11:41:34.065Z</time></trkpt><trkpt lat="43.2868465" lon="-8.3317262"><ele>11.0</ele><time>2026-03-29T11:41:35.066Z</time></trkpt><trkpt lat="43.2868914" lon="-8.3318364"><ele>11.0</ele><time>2026-03-29T11:41:36.065Z</time></trkpt><trkpt lat="43.2869304" lon="-8.3319526"><ele>11.0</ele><time>2026-03-29T11:41:37.065Z</time></trkpt><trkpt lat="43.2869578" lon="-8.3320777"><ele>11.0</ele><time>2026-03-29T11:41:38.065Z</time></trkpt><trkpt lat="43.286973" lon="-8.3322078"><ele>11.600000000000001</ele><time>2026-03-29T11:41:39.065Z</time></trkpt><trkpt lat="43.2869838" lon="-8.3323348"><ele>12.2</ele><time>2026-03-29T11:41:40.065Z</time></trkpt><trkpt lat="43.2869827" lon="-8.3324664"><ele>12.799999999999999</ele><time>2026-03-29T11:41:41.065Z</time></trkpt><trkpt lat="43.2869747" lon="-8.3325928"><ele>13.399999999999999</ele><time>2026-03-29T11:41:42.065Z</time></trkpt><trkpt lat="43.2869604" lon="-8.3327101"><ele>14.0</ele><time>2026-03-29T11:41:43.065Z</time></trkpt><trkpt lat="43.2869428" lon="-8.3328227"><ele>14.000000000000002</ele><time>2026-03-29T11:41:44.065Z</time></trkpt><trkpt lat="43.286929" lon="-8.3329254"><ele>14.0</ele><time>2026-03-29T11:41:45.065Z</time></trkpt><trkpt lat="43.2869128" lon="-8.3330328"><ele>14.0</ele><time>2026-03-29T11:41:46.066Z</time></trkpt><trkpt lat="43.286899" lon="-8.3331489"><ele>14.0</ele><time>2026-03-29T11:41:47.066Z</time></trkpt><trkpt lat="43.2868877" lon="-8.3332694"><ele>14.000000000000002</ele><time>2026-03-29T11:41:48.065Z</time></trkpt><trkpt lat="43.2868854" lon="-8.3334"><ele>14.0</ele><time>2026-03-29T11:41:49.066Z</time></trkpt><trkpt lat="43.2868959" lon="-8.3335381"><ele>14.799999999999999</ele><time>2026-03-29T11:41:50.065Z</time></trkpt><trkpt lat="43.2869303" lon="-8.3336829"><ele>15.599999999999998</ele><time>2026-03-29T11:41:51.066Z</time></trkpt><trkpt lat="43.2869781" lon="-8.3338188"><ele>16.4</ele><time>2026-03-29T11:41:52.066Z</time></trkpt><trkpt lat="43.2870448" lon="-8.3339428"><ele>17.2</ele><time>2026-03-29T11:41:53.066Z</time></trkpt><trkpt lat="43.2871173" lon="-8.3340536"><ele>18.0</ele><time>2026-03-29T11:41:54.065Z</time></trkpt><trkpt lat="43.2872027" lon="-8.3341439"><ele>20.8</ele><time>2026-03-29T11:41:55.065Z</time></trkpt><trkpt lat="43.2872956" lon="-8.334218"><ele>23.6</ele><time>2026-03-29T11:41:56.066Z</time></trkpt><trkpt lat="43.2873939" lon="-8.3342862"><ele>26.400000000000002</ele><time>2026-03-29T11:41:57.065Z</time></trkpt><trkpt lat="43.2874845" lon="-8.3343555"><ele>29.200000000000003</ele><time>2026-03-29T11:41:58.066Z</time></trkpt><trkpt lat="43.2875801" lon="-8.334424"><ele>32.0</ele><time>2026-03-29T11:41:59.066Z</time></trkpt><trkpt lat="43.2876749" lon="-8.3344913"><ele>32.0</ele><time>2026-03-29T11:42:00.065Z</time></trkpt><trkpt lat="43.2877719" lon="-8.3345632"><ele>32.0</ele><time>2026-03-29T11:42:01.066Z</time></trkpt><trkpt lat="43.2878702" lon="-8.3346364"><ele>32.0</ele><time>2026-03-29T11:42:02.065Z</time></trkpt><trkpt lat="43.2879731" lon="-8.3347107"><ele>32.0</ele><time>2026-03-29T11:42:03.065Z</time></trkpt><trkpt lat="43.28808" lon="-8.3347895"><ele>34.0</ele><time>2026-03-29T11:42:04.065Z</time></trkpt><trkpt lat="43.2881837" lon="-8.334862"><ele>36.0</ele><time>2026-03-29T11:42:05.065Z</time></trkpt><trkpt lat="43.2882844" lon="-8.3349386"><ele>38.0</ele><time>2026-03-29T11:42:06.065Z</time></trkpt><trkpt lat="43.2883836" lon="-8.3350142"><ele>40.0</ele><time>2026-03-29T11:42:07.065Z</time></trkpt><trkpt lat="43.288477" lon="-8.335097"><ele>40.0</ele><time>2026-03-29T11:42:08.065Z</time></trkpt><trkpt lat="43.2885609" lon="-8.3351901"><ele>40.0</ele><time>2026-03-29T11:42:09.065Z</time></trkpt><trkpt lat="43.2886348" lon="-8.3352969"><ele>40.0</ele><time>2026-03-29T11:42:10.065Z</time></trkpt><trkpt lat="43.2887001" lon="-8.3354062"><ele>40.0</ele><time>2026-03-29T11:42:11.066Z</time></trkpt><trkpt lat="43.2887488" lon="-8.3355061"><ele>40.0</ele><time>2026-03-29T11:42:12.066Z</time></trkpt><trkpt lat="43.2887954" lon="-8.3356068"><ele>40.333333333333336</ele><time>2026-03-29T11:42:13.065Z</time></trkpt><trkpt lat="43.2888363" lon="-8.3357083"><ele>40.66666666666667</ele><time>2026-03-29T11:42:14.065Z</time></trkpt><trkpt lat="43.2888821" lon="-8.3358069"><ele>41.0</ele><time>2026-03-29T11:42:15.065Z</time></trkpt><trkpt lat="43.2889385" lon="-8.3359029"><ele>41.333333333333336</ele><time>2026-03-29T11:42:16.065Z</time></trkpt><trkpt lat="43.289004" lon="-8.3359862"><ele>41.666666666666664</ele><time>2026-03-29T11:42:17.066Z</time></trkpt><trkpt lat="43.2890807" lon="-8.3360577"><ele>42.0</ele><time>2026-03-29T11:42:18.066Z</time></trkpt><trkpt lat="43.2891702" lon="-8.3361175"><ele>43.0</ele><time>2026-03-29T11:42:19.066Z</time></trkpt><trkpt lat="43.2892632" lon="-8.33617"><ele>44.0</ele><time>2026-03-29T11:42:20.066Z</time></trkpt><trkpt lat="43.2893583" lon="-8.33622"><ele>45.0</ele><time>2026-03-29T11:42:21.066Z</time></trkpt><trkpt lat="43.2894563" lon="-8.3362719"><ele>46.0</ele><time>2026-03-29T11:42:22.065Z</time></trkpt><trkpt lat="43.2895497" lon="-8.3363217"><ele>47.0</ele><time>2026-03-29T11:42:23.065Z</time></trkpt><trkpt lat="43.2896341" lon="-8.3363787"><ele>46.666666666666664</ele><time>2026-03-29T11:42:24.066Z</time></trkpt><trkpt lat="43.2897117" lon="-8.3364304"><ele>46.33333333333333</ele><time>2026-03-29T11:42:25.065Z</time></trkpt><trkpt lat="43.2897718" lon="-8.3364683"><ele>46.0</ele><time>2026-03-29T11:42:26.065Z</time></trkpt><trkpt lat="43.2898324" lon="-8.3365071"><ele>45.666666666666664</ele><time>2026-03-29T11:42:27.066Z</time></trkpt><trkpt lat="43.289896" lon="-8.3365472"><ele>45.333333333333336</ele><time>2026-03-29T11:42:40.065Z</time></trkpt><trkpt lat="43.2899764" lon="-8.3366159"><ele>45.0</ele><time>2026-03-29T11:42:42.065Z</time></trkpt><trkpt lat="43.2900383" lon="-8.3366697"><ele>46.333333333333336</ele><time>2026-03-29T11:42:43.065Z</time></trkpt><trkpt lat="43.2901066" lon="-8.3367418"><ele>47.66666666666667</ele><time>2026-03-29T11:42:44.065Z</time></trkpt><trkpt lat="43.2901682" lon="-8.3368187"><ele>49.0</ele><time>2026-03-29T11:42:45.066Z</time></trkpt><trkpt lat="43.2902379" lon="-8.3368984"><ele>50.333333333333336</ele><time>2026-03-29T11:42:46.065Z</time></trkpt><trkpt lat="43.2903067" lon="-8.3369806"><ele>51.66666666666667</ele><time>2026-03-29T11:42:47.065Z</time></trkpt><trkpt lat="43.2903701" lon="-8.3370595"><ele>53.0</ele><time>2026-03-29T11:42:48.065Z</time></trkpt><trkpt lat="43.2904325" lon="-8.3371508"><ele>52.8</ele><time>2026-03-29T11:42:49.065Z</time></trkpt><trkpt lat="43.2905002" lon="-8.3372421"><ele>52.599999999999994</ele><time>2026-03-29T11:42:50.065Z</time></trkpt><trkpt lat="43.2905561" lon="-8.3373169"><ele>52.400000000000006</ele><time>2026-03-29T11:42:51.066Z</time></trkpt><trkpt lat="43.2906274" lon="-8.3374206"><ele>52.2</ele><time>2026-03-29T11:42:52.065Z</time></trkpt><trkpt lat="43.2907042" lon="-8.3375379"><ele>52.0</ele><time>2026-03-29T11:42:53.065Z</time></trkpt><trkpt lat="43.2907688" lon="-8.337663"><ele>53.75</ele><time>2026-03-29T11:42:54.065Z</time></trkpt><trkpt lat="43.2908221" lon="-8.3378048"><ele>55.5</ele><time>2026-03-29T11:42:55.065Z</time></trkpt><trkpt lat="43.2908732" lon="-8.3379431"><ele>57.25</ele><time>2026-03-29T11:42:56.065Z</time></trkpt><trkpt lat="43.2909285" lon="-8.3380944"><ele>59.0</ele><time>2026-03-29T11:42:57.066Z</time></trkpt><trkpt lat="43.2909871" lon="-8.3382516"><ele>59.25</ele><time>2026-03-29T11:42:58.066Z</time></trkpt><trkpt lat="43.2910471" lon="-8.3384127"><ele>59.5</ele><time>2026-03-29T11:42:59.066Z</time></trkpt><trkpt lat="43.2911071" lon="-8.3385726"><ele>59.75</ele><time>2026-03-29T11:43:00.065Z</time></trkpt><trkpt lat="43.291174" lon="-8.338731"><ele>60.0</ele><time>2026-03-29T11:43:01.066Z</time></trkpt><trkpt lat="43.2912501" lon="-8.3388885"><ele>60.0</ele><time>2026-03-29T11:43:02.065Z</time></trkpt><trkpt lat="43.2913284" lon="-8.3390366"><ele>60.0</ele><time>2026-03-29T11:43:03.065Z</time></trkpt><trkpt lat="43.2914114" lon="-8.339182"><ele>60.0</ele><time>2026-03-29T11:43:04.066Z</time></trkpt><trkpt lat="43.2914807" lon="-8.3393419"><ele>60.0</ele><time>2026-03-29T11:43:05.065Z</time></trkpt><trkpt lat="43.2915357" lon="-8.3394994"><ele>62.5</ele><time>2026-03-29T11:43:06.066Z</time></trkpt><trkpt lat="43.2915843" lon="-8.3396649"><ele>65.0</ele><time>2026-03-29T11:43:07.065Z</time></trkpt><trkpt lat="43.2916312" lon="-8.3398309"><ele>67.5</ele><time>2026-03-29T11:43:08.065Z</time></trkpt><trkpt lat="43.2916829" lon="-8.3399918"><ele>70.0</ele><time>2026-03-29T11:43:09.065Z</time></trkpt><trkpt lat="43.2917391" lon="-8.3401398"><ele>70.0</ele><time>2026-03-29T11:43:10.065Z</time></trkpt><trkpt lat="43.2918077" lon="-8.3402762"><ele>70.0</ele><time>2026-03-29T11:43:11.065Z</time></trkpt><trkpt lat="43.2918752" lon="-8.3404115"><ele>70.0</ele><time>2026-03-29T11:43:12.065Z</time></trkpt><trkpt lat="43.2919419" lon="-8.340544"><ele>70.0</ele><time>2026-03-29T11:43:13.065Z</time></trkpt><trkpt lat="43.2920089" lon="-8.3406803"><ele>69.2</ele><time>2026-03-29T11:43:14.065Z</time></trkpt><trkpt lat="43.2920799" lon="-8.3408205"><ele>68.4</ele><time>2026-03-29T11:43:15.066Z</time></trkpt><trkpt lat="43.2921451" lon="-8.3409526"><ele>67.6</ele><time>2026-03-29T11:43:16.065Z</time></trkpt><trkpt lat="43.2922001" lon="-8.3410663"><ele>66.8</ele><time>2026-03-29T11:43:17.065Z</time></trkpt><trkpt lat="43.2922508" lon="-8.3411735"><ele>66.0</ele><time>2026-03-29T11:43:18.065Z</time></trkpt><trkpt lat="43.2922938" lon="-8.3412754"><ele>66.5</ele><time>2026-03-29T11:43:19.065Z</time></trkpt><trkpt lat="43.292332" lon="-8.3413769"><ele>67.0</ele><time>2026-03-29T11:43:20.065Z</time></trkpt><trkpt lat="43.2923685" lon="-8.3414648"><ele>67.5</ele><time>2026-03-29T11:43:21.065Z</time></trkpt><trkpt lat="43.292393" lon="-8.3415455"><ele>68.0</ele><time>2026-03-29T11:43:22.065Z</time></trkpt><trkpt lat="43.2924321" lon="-8.3416414"><ele>68.5</ele><time>2026-03-29T11:43:24.065Z</time></trkpt><trkpt lat="43.2924633" lon="-8.341727"><ele>69.0</ele><time>2026-03-29T11:43:29.065Z</time></trkpt><trkpt lat="43.2925141" lon="-8.3418891"><ele>69.0</ele><time>2026-03-29T11:43:43.065Z</time></trkpt><trkpt lat="43.2924978" lon="-8.3420081"><ele>69.0</ele><time>2026-03-29T11:43:44.066Z</time></trkpt><trkpt lat="43.2924959" lon="-8.3421271"><ele>69.0</ele><time>2026-03-29T11:43:45.066Z</time></trkpt><trkpt lat="43.2924889" lon="-8.3422417"><ele>69.0</ele><time>2026-03-29T11:43:46.065Z</time></trkpt><trkpt lat="43.292484" lon="-8.3423535"><ele>69.0</ele><time>2026-03-29T11:43:47.065Z</time></trkpt><trkpt lat="43.2924842" lon="-8.3424582"><ele>69.0</ele><time>2026-03-29T11:43:48.065Z</time></trkpt><trkpt lat="43.2924892" lon="-8.3425587"><ele>68.16666666666667</ele><time>2026-03-29T11:43:49.066Z</time></trkpt><trkpt lat="43.2924951" lon="-8.3426508"><ele>67.33333333333333</ele><time>2026-03-29T11:43:50.065Z</time></trkpt><trkpt lat="43.2925126" lon="-8.3427927"><ele>66.5</ele><time>2026-03-29T11:43:52.065Z</time></trkpt><trkpt lat="43.292539" lon="-8.3428788"><ele>65.66666666666666</ele><time>2026-03-29T11:43:55.065Z</time></trkpt><trkpt lat="43.2925687" lon="-8.3429589"><ele>64.83333333333333</ele><time>2026-03-29T11:43:57.066Z</time></trkpt><trkpt lat="43.2926261" lon="-8.3430629"><ele>64.0</ele><time>2026-03-29T11:43:59.065Z</time></trkpt><trkpt lat="43.2926844" lon="-8.3431712"><ele>64.0</ele><time>2026-03-29T11:44:01.066Z</time></trkpt><trkpt lat="43.2927569" lon="-8.343289"><ele>64.0</ele><time>2026-03-29T11:44:03.066Z</time></trkpt><trkpt lat="43.2928366" lon="-8.3434139"><ele>64.0</ele><time>2026-03-29T11:44:05.066Z</time></trkpt><trkpt lat="43.2929236" lon="-8.3435161"><ele>64.0</ele><time>2026-03-29T11:44:07.065Z</time></trkpt><trkpt lat="43.2929964" lon="-8.3435981"><ele>64.0</ele><time>2026-03-29T11:44:09.065Z</time></trkpt><trkpt lat="43.293065" lon="-8.343704"><ele>63.0</ele><time>2026-03-29T11:44:23.065Z</time></trkpt><trkpt lat="43.293134" lon="-8.3437866"><ele>62.00000000000001</ele><time>2026-03-29T11:44:25.065Z</time></trkpt><trkpt lat="43.2932281" lon="-8.3438653"><ele>61.00000000000001</ele><time>2026-03-29T11:44:27.065Z</time></trkpt><trkpt lat="43.2933422" lon="-8.3439372"><ele>60.0</ele><time>2026-03-29T11:44:29.066Z</time></trkpt><trkpt lat="43.2934077" lon="-8.3439711"><ele>59.0</ele><time>2026-03-29T11:44:30.066Z</time></trkpt><trkpt lat="43.2934729" lon="-8.3440102"><ele>58.71428571428571</ele><time>2026-03-29T11:44:31.065Z</time></trkpt><trkpt lat="43.2935374" lon="-8.344044"><ele>58.42857142857143</ele><time>2026-03-29T11:44:32.066Z</time></trkpt><trkpt lat="43.2936023" lon="-8.3440736"><ele>58.14285714285714</ele><time>2026-03-29T11:44:33.065Z</time></trkpt><trkpt lat="43.2936672" lon="-8.3440949"><ele>57.857142857142854</ele><time>2026-03-29T11:44:34.066Z</time></trkpt><trkpt lat="43.2937293" lon="-8.3441239"><ele>57.57142857142857</ele><time>2026-03-29T11:44:35.066Z</time></trkpt><trkpt lat="43.2937842" lon="-8.3441785"><ele>57.285714285714285</ele><time>2026-03-29T11:44:36.065Z</time></trkpt><trkpt lat="43.2938404" lon="-8.3442478"><ele>57.0</ele><time>2026-03-29T11:44:37.065Z</time></trkpt><trkpt lat="43.2939003" lon="-8.3443179"><ele>57.166666666666664</ele><time>2026-03-29T11:44:38.065Z</time></trkpt><trkpt lat="43.2939524" lon="-8.344406"><ele>57.33333333333333</ele><time>2026-03-29T11:44:39.065Z</time></trkpt><trkpt lat="43.2939984" lon="-8.3445042"><ele>57.5</ele><time>2026-03-29T11:44:40.066Z</time></trkpt><trkpt lat="43.2940404" lon="-8.344604"><ele>57.666666666666664</ele><time>2026-03-29T11:44:41.065Z</time></trkpt><trkpt lat="43.2940661" lon="-8.3447154"><ele>57.83333333333333</ele><time>2026-03-29T11:44:42.065Z</time></trkpt><trkpt lat="43.2940813" lon="-8.3448263"><ele>58.0</ele><time>2026-03-29T11:44:43.065Z</time></trkpt><trkpt lat="43.2940888" lon="-8.3449487"><ele>57.5</ele><time>2026-03-29T11:44:44.066Z</time></trkpt><trkpt lat="43.2940774" lon="-8.3450845"><ele>57.0</ele><time>2026-03-29T11:44:45.065Z</time></trkpt><trkpt lat="43.2940394" lon="-8.3452672"><ele>56.5</ele><time>2026-03-29T11:44:46.065Z</time></trkpt><trkpt lat="43.2939971" lon="-8.3454549"><ele>56.0</ele><time>2026-03-29T11:44:47.065Z</time></trkpt><trkpt lat="43.2939607" lon="-8.3456439"><ele>55.75</ele><time>2026-03-29T11:44:48.066Z</time></trkpt><trkpt lat="43.2939222" lon="-8.3458434"><ele>55.5</ele><time>2026-03-29T11:44:49.065Z</time></trkpt><trkpt lat="43.2938813" lon="-8.3460353"><ele>55.25</ele><time>2026-03-29T11:44:50.066Z</time></trkpt><trkpt lat="43.2938425" lon="-8.346236"><ele>55.0</ele><time>2026-03-29T11:44:51.065Z</time></trkpt><trkpt lat="43.2937969" lon="-8.3464446"><ele>53.25</ele><time>2026-03-29T11:44:52.065Z</time></trkpt><trkpt lat="43.2937567" lon="-8.3466402"><ele>51.5</ele><time>2026-03-29T11:44:53.066Z</time></trkpt><trkpt lat="43.293717" lon="-8.3468321"><ele>49.75</ele><time>2026-03-29T11:44:54.065Z</time></trkpt><trkpt lat="43.2936761" lon="-8.3470189"><ele>48.0</ele><time>2026-03-29T11:44:55.066Z</time></trkpt><trkpt lat="43.2936312" lon="-8.347208"><ele>47.333333333333336</ele><time>2026-03-29T11:44:56.065Z</time></trkpt><trkpt lat="43.2935855" lon="-8.3474013"><ele>46.66666666666667</ele><time>2026-03-29T11:44:57.065Z</time></trkpt><trkpt lat="43.2935435" lon="-8.3475986"><ele>46.0</ele><time>2026-03-29T11:44:58.066Z</time></trkpt><trkpt lat="43.2934968" lon="-8.3478035"><ele>46.0</ele><time>2026-03-29T11:44:59.066Z</time></trkpt><trkpt lat="43.2934487" lon="-8.3480155"><ele>46.0</ele><time>2026-03-29T11:45:00.065Z</time></trkpt><trkpt lat="43.2933985" lon="-8.348226"><ele>46.0</ele><time>2026-03-29T11:45:01.065Z</time></trkpt><trkpt lat="43.2933505" lon="-8.3484471"><ele>45.333333333333336</ele><time>2026-03-29T11:45:02.066Z</time></trkpt><trkpt lat="43.2933014" lon="-8.3486712"><ele>44.666666666666664</ele><time>2026-03-29T11:45:03.065Z</time></trkpt><trkpt lat="43.2932597" lon="-8.348901"><ele>44.0</ele><time>2026-03-29T11:45:04.065Z</time></trkpt><trkpt lat="43.2932194" lon="-8.3491337"><ele>41.33333333333333</ele><time>2026-03-29T11:45:05.065Z</time></trkpt><trkpt lat="43.2931834" lon="-8.3493748"><ele>38.666666666666664</ele><time>2026-03-29T11:45:06.065Z</time></trkpt><trkpt lat="43.2931509" lon="-8.3496073"><ele>36.0</ele><time>2026-03-29T11:45:07.065Z</time></trkpt><trkpt lat="43.2931279" lon="-8.3498603"><ele>33.333333333333336</ele><time>2026-03-29T11:45:08.065Z</time></trkpt><trkpt lat="43.293132" lon="-8.3501044"><ele>30.666666666666668</ele><time>2026-03-29T11:45:09.065Z</time></trkpt><trkpt lat="43.2931514" lon="-8.3503515"><ele>28.0</ele><time>2026-03-29T11:45:10.065Z</time></trkpt><trkpt lat="43.2931855" lon="-8.3505915"><ele>27.333333333333336</ele><time>2026-03-29T11:45:11.066Z</time></trkpt><trkpt lat="43.2932332" lon="-8.3508139"><ele>26.666666666666664</ele><time>2026-03-29T11:45:12.066Z</time></trkpt><trkpt lat="43.2932911" lon="-8.3510249"><ele>26.0</ele><time>2026-03-29T11:45:13.065Z</time></trkpt><trkpt lat="43.2933519" lon="-8.3512298"><ele>25.25</ele><time>2026-03-29T11:45:14.065Z</time></trkpt><trkpt lat="43.293405" lon="-8.3514275"><ele>24.5</ele><time>2026-03-29T11:45:15.066Z</time></trkpt><trkpt lat="43.2934407" lon="-8.3516281"><ele>23.75</ele><time>2026-03-29T11:45:16.065Z</time></trkpt><trkpt lat="43.2934613" lon="-8.3518249"><ele>23.0</ele><time>2026-03-29T11:45:17.065Z</time></trkpt><trkpt lat="43.2934785" lon="-8.3520185"><ele>22.25</ele><time>2026-03-29T11:45:18.065Z</time></trkpt><trkpt lat="43.2934946" lon="-8.3522108"><ele>21.5</ele><time>2026-03-29T11:45:19.065Z</time></trkpt><trkpt lat="43.2935247" lon="-8.3523958"><ele>20.75</ele><time>2026-03-29T11:45:20.066Z</time></trkpt><trkpt lat="43.2935712" lon="-8.3525763"><ele>20.0</ele><time>2026-03-29T11:45:21.065Z</time></trkpt><trkpt lat="43.2936405" lon="-8.3527424"><ele>20.0</ele><time>2026-03-29T11:45:22.066Z</time></trkpt><trkpt lat="43.2937189" lon="-8.352902"><ele>20.0</ele><time>2026-03-29T11:45:23.065Z</time></trkpt><trkpt lat="43.2937954" lon="-8.3530611"><ele>20.0</ele><time>2026-03-29T11:45:24.065Z</time></trkpt><trkpt lat="43.2938589" lon="-8.3532302"><ele>20.0</ele><time>2026-03-29T11:45:25.066Z</time></trkpt><trkpt lat="43.2939027" lon="-8.353406"><ele>19.25</ele><time>2026-03-29T11:45:26.065Z</time></trkpt><trkpt lat="43.2939356" lon="-8.3535743"><ele>18.5</ele><time>2026-03-29T11:45:27.066Z</time></trkpt><trkpt lat="43.2939717" lon="-8.3537591"><ele>17.75</ele><time>2026-03-29T11:45:28.065Z</time></trkpt><trkpt lat="43.293975" lon="-8.3538864"><ele>17.0</ele><time>2026-03-29T11:45:29.066Z</time></trkpt><trkpt lat="43.2939654" lon="-8.3540367"><ele>17.0</ele><time>2026-03-29T11:45:30.065Z</time></trkpt><trkpt lat="43.2939393" lon="-8.354194"><ele>17.0</ele><time>2026-03-29T11:45:31.065Z</time></trkpt><trkpt lat="43.2938894" lon="-8.3543513"><ele>17.0</ele><time>2026-03-29T11:45:32.066Z</time></trkpt><trkpt lat="43.2938388" lon="-8.3545123"><ele>17.0</ele><time>2026-03-29T11:45:33.065Z</time></trkpt><trkpt lat="43.2937993" lon="-8.3546937"><ele>19.75</ele><time>2026-03-29T11:45:34.066Z</time></trkpt><trkpt lat="43.2937981" lon="-8.3548897"><ele>22.5</ele><time>2026-03-29T11:45:35.065Z</time></trkpt><trkpt lat="43.2938195" lon="-8.3550912"><ele>25.25</ele><time>2026-03-29T11:45:36.065Z</time></trkpt><trkpt lat="43.2938506" lon="-8.3552938"><ele>28.0</ele><time>2026-03-29T11:45:37.065Z</time></trkpt><trkpt lat="43.293878" lon="-8.3555137"><ele>25.0</ele><time>2026-03-29T11:45:38.066Z</time></trkpt><trkpt lat="43.2939036" lon="-8.3557416"><ele>22.0</ele><time>2026-03-29T11:45:39.066Z</time></trkpt><trkpt lat="43.2939351" lon="-8.3559683"><ele>19.0</ele><time>2026-03-29T11:45:40.065Z</time></trkpt><trkpt lat="43.2939712" lon="-8.3561859"><ele>15.666666666666666</ele><time>2026-03-29T11:45:41.065Z</time></trkpt><trkpt lat="43.2940266" lon="-8.3563891"><ele>12.333333333333332</ele><time>2026-03-29T11:45:42.066Z</time></trkpt><trkpt lat="43.294098" lon="-8.3565732"><ele>9.0</ele><time>2026-03-29T11:45:43.066Z</time></trkpt><trkpt lat="43.2941717" lon="-8.3567547"><ele>9.0</ele><time>2026-03-29T11:45:44.065Z</time></trkpt><trkpt lat="43.2942478" lon="-8.3569433"><ele>9.0</ele><time>2026-03-29T11:45:45.065Z</time></trkpt><trkpt lat="43.2943251" lon="-8.3571383"><ele>9.0</ele><time>2026-03-29T11:45:46.066Z</time></trkpt><trkpt lat="43.2944024" lon="-8.3573299"><ele>8.75</ele><time>2026-03-29T11:45:47.065Z</time></trkpt><trkpt lat="43.2944743" lon="-8.3575199"><ele>8.5</ele><time>2026-03-29T11:45:48.066Z</time></trkpt><trkpt lat="43.2945404" lon="-8.3576999"><ele>8.25</ele><time>2026-03-29T11:45:49.066Z</time></trkpt><trkpt lat="43.2945841" lon="-8.3578913"><ele>8.0</ele><time>2026-03-29T11:45:50.065Z</time></trkpt><trkpt lat="43.2946072" lon="-8.358082"><ele>8.4</ele><time>2026-03-29T11:45:51.065Z</time></trkpt><trkpt lat="43.2946099" lon="-8.3582582"><ele>8.8</ele><time>2026-03-29T11:45:52.065Z</time></trkpt><trkpt lat="43.2946016" lon="-8.3584101"><ele>9.2</ele><time>2026-03-29T11:45:53.065Z</time></trkpt><trkpt lat="43.2946159" lon="-8.3585275"><ele>9.6</ele><time>2026-03-29T11:45:54.065Z</time></trkpt><trkpt lat="43.2946549" lon="-8.3586096"><ele>10.0</ele><time>2026-03-29T11:45:55.065Z</time></trkpt><trkpt lat="43.2947424" lon="-8.358684"><ele>9.857142857142858</ele><time>2026-03-29T11:45:57.066Z</time></trkpt><trkpt lat="43.294792" lon="-8.3587386"><ele>9.714285714285715</ele><time>2026-03-29T11:45:58.065Z</time></trkpt><trkpt lat="43.2948508" lon="-8.3587998"><ele>9.571428571428573</ele><time>2026-03-29T11:45:59.065Z</time></trkpt><trkpt lat="43.2949121" lon="-8.3588543"><ele>9.428571428571429</ele><time>2026-03-29T11:46:00.065Z</time></trkpt><trkpt lat="43.2949731" lon="-8.3589001"><ele>9.285714285714286</ele><time>2026-03-29T11:46:01.065Z</time></trkpt><trkpt lat="43.2950438" lon="-8.3589494"><ele>9.142857142857144</ele><time>2026-03-29T11:46:02.066Z</time></trkpt><trkpt lat="43.2951208" lon="-8.3590045"><ele>9.0</ele><time>2026-03-29T11:46:03.066Z</time></trkpt><trkpt lat="43.2952096" lon="-8.3590596"><ele>9.4</ele><time>2026-03-29T11:46:04.066Z</time></trkpt><trkpt lat="43.2953031" lon="-8.359116"><ele>9.8</ele><time>2026-03-29T11:46:05.066Z</time></trkpt><trkpt lat="43.2954055" lon="-8.3591694"><ele>10.200000000000001</ele><time>2026-03-29T11:46:06.065Z</time></trkpt><trkpt lat="43.2955084" lon="-8.3592189"><ele>10.600000000000001</ele><time>2026-03-29T11:46:07.065Z</time></trkpt><trkpt lat="43.29561" lon="-8.3592744"><ele>11.0</ele><time>2026-03-29T11:46:08.066Z</time></trkpt><trkpt lat="43.2957084" lon="-8.3593383"><ele>11.25</ele><time>2026-03-29T11:46:09.065Z</time></trkpt><trkpt lat="43.2958068" lon="-8.3594194"><ele>11.5</ele><time>2026-03-29T11:46:10.066Z</time></trkpt><trkpt lat="43.2959016" lon="-8.3595093"><ele>11.75</ele><time>2026-03-29T11:46:11.065Z</time></trkpt><trkpt lat="43.2959955" lon="-8.3596106"><ele>12.0</ele><time>2026-03-29T11:46:12.065Z</time></trkpt><trkpt lat="43.2960846" lon="-8.3597194"><ele>12.399999999999999</ele><time>2026-03-29T11:46:13.065Z</time></trkpt><trkpt lat="43.2961715" lon="-8.3598288"><ele>12.799999999999999</ele><time>2026-03-29T11:46:14.065Z</time></trkpt><trkpt lat="43.2962624" lon="-8.3599233"><ele>13.2</ele><time>2026-03-29T11:46:15.065Z</time></trkpt><trkpt lat="43.2963397" lon="-8.3600119"><ele>13.6</ele><time>2026-03-29T11:46:16.066Z</time></trkpt><trkpt lat="43.2964117" lon="-8.3600957"><ele>14.0</ele><time>2026-03-29T11:46:17.065Z</time></trkpt><trkpt lat="43.2964809" lon="-8.3601694"><ele>14.000000000000002</ele><time>2026-03-29T11:46:18.066Z</time></trkpt><trkpt lat="43.296543" lon="-8.360241"><ele>14.0</ele><time>2026-03-29T11:46:19.065Z</time></trkpt><trkpt lat="43.2965928" lon="-8.3602975"><ele>14.0</ele><time>2026-03-29T11:46:20.065Z</time></trkpt><trkpt lat="43.2966455" lon="-8.3603716"><ele>14.0</ele><time>2026-03-29T11:46:22.065Z</time></trkpt><trkpt lat="43.2967196" lon="-8.3604332"><ele>14.000000000000002</ele><time>2026-03-29T11:46:42.065Z</time></trkpt><trkpt lat="43.2967907" lon="-8.3603965"><ele>14.0</ele><time>2026-03-29T11:46:43.065Z</time></trkpt><trkpt lat="43.2968776" lon="-8.3603535"><ele>14.0</ele><time>2026-03-29T11:46:44.065Z</time></trkpt><trkpt lat="43.2969696" lon="-8.3603021"><ele>13.999999999999998</ele><time>2026-03-29T11:46:45.065Z</time></trkpt><trkpt lat="43.29707" lon="-8.3602452"><ele>13.999999999999998</ele><time>2026-03-29T11:46:46.065Z</time></trkpt><trkpt lat="43.2971736" lon="-8.3601872"><ele>14.0</ele><time>2026-03-29T11:46:47.066Z</time></trkpt><trkpt lat="43.297276" lon="-8.3601481"><ele>14.0</ele><time>2026-03-29T11:46:48.066Z</time></trkpt><trkpt lat="43.2973836" lon="-8.3601374"><ele>13.25</ele><time>2026-03-29T11:46:49.065Z</time></trkpt><trkpt lat="43.2974952" lon="-8.3601679"><ele>12.5</ele><time>2026-03-29T11:46:50.065Z</time></trkpt><trkpt lat="43.2976073" lon="-8.3602252"><ele>11.75</ele><time>2026-03-29T11:46:51.065Z</time></trkpt><trkpt lat="43.297724" lon="-8.3602936"><ele>11.0</ele><time>2026-03-29T11:46:52.065Z</time></trkpt><trkpt lat="43.2978478" lon="-8.3603692"><ele>11.0</ele><time>2026-03-29T11:46:53.065Z</time></trkpt><trkpt lat="43.2979761" lon="-8.3604403"><ele>11.0</ele><time>2026-03-29T11:46:54.066Z</time></trkpt><trkpt lat="43.2981072" lon="-8.3605174"><ele>11.0</ele><time>2026-03-29T11:46:55.065Z</time></trkpt><trkpt lat="43.2982425" lon="-8.3605808"><ele>11.0</ele><time>2026-03-29T11:46:56.065Z</time></trkpt><trkpt lat="43.2983795" lon="-8.3606267"><ele>11.0</ele><time>2026-03-29T11:46:57.066Z</time></trkpt><trkpt lat="43.2985183" lon="-8.3606526"><ele>11.0</ele><time>2026-03-29T11:46:58.065Z</time></trkpt><trkpt lat="43.2986562" lon="-8.3606483"><ele>11.0</ele><time>2026-03-29T11:46:59.065Z</time></trkpt><trkpt lat="43.2987749" lon="-8.3606085"><ele>11.0</ele><time>2026-03-29T11:47:00.065Z</time></trkpt><trkpt lat="43.2988678" lon="-8.3605313"><ele>10.4</ele><time>2026-03-29T11:47:01.065Z</time></trkpt><trkpt lat="43.2989387" lon="-8.3604417"><ele>9.8</ele><time>2026-03-29T11:47:02.065Z</time></trkpt><trkpt lat="43.2990063" lon="-8.3603609"><ele>9.200000000000001</ele><time>2026-03-29T11:47:03.066Z</time></trkpt><trkpt lat="43.2990949" lon="-8.3603321"><ele>8.600000000000001</ele><time>2026-03-29T11:47:04.065Z</time></trkpt><trkpt lat="43.2991876" lon="-8.3603474"><ele>8.0</ele><time>2026-03-29T11:47:05.065Z</time></trkpt><trkpt lat="43.2992748" lon="-8.360412"><ele>8.0</ele><time>2026-03-29T11:47:06.065Z</time></trkpt><trkpt lat="43.2993562" lon="-8.3604621"><ele>8.0</ele><time>2026-03-29T11:47:07.065Z</time></trkpt><trkpt lat="43.2994438" lon="-8.3604987"><ele>8.0</ele><time>2026-03-29T11:47:08.066Z</time></trkpt><trkpt lat="43.299539" lon="-8.3605125"><ele>8.0</ele><time>2026-03-29T11:47:09.066Z</time></trkpt><trkpt lat="43.299633" lon="-8.3604909"><ele>8.0</ele><time>2026-03-29T11:47:10.065Z</time></trkpt><trkpt lat="43.2997273" lon="-8.3604536"><ele>9.25</ele><time>2026-03-29T11:47:11.066Z</time></trkpt><trkpt lat="43.2998269" lon="-8.3604036"><ele>10.5</ele><time>2026-03-29T11:47:12.065Z</time></trkpt><trkpt lat="43.2999289" lon="-8.3603426"><ele>11.75</ele><time>2026-03-29T11:47:13.065Z</time></trkpt><trkpt lat="43.3000325" lon="-8.3602705"><ele>13.0</ele><time>2026-03-29T11:47:14.065Z</time></trkpt><trkpt lat="43.3001366" lon="-8.3601876"><ele>13.0</ele><time>2026-03-29T11:47:15.066Z</time></trkpt><trkpt lat="43.3002385" lon="-8.3600985"><ele>13.0</ele><time>2026-03-29T11:47:16.065Z</time></trkpt><trkpt lat="43.3003385" lon="-8.3600125"><ele>13.0</ele><time>2026-03-29T11:47:17.066Z</time></trkpt><trkpt lat="43.3004418" lon="-8.3599313"><ele>13.0</ele><time>2026-03-29T11:47:18.065Z</time></trkpt><trkpt lat="43.3005498" lon="-8.359854"><ele>14.5</ele><time>2026-03-29T11:47:19.065Z</time></trkpt><trkpt lat="43.300663" lon="-8.3597807"><ele>16.0</ele><time>2026-03-29T11:47:20.065Z</time></trkpt><trkpt lat="43.3007763" lon="-8.3597236"><ele>17.5</ele><time>2026-03-29T11:47:21.065Z</time></trkpt><trkpt lat="43.300892" lon="-8.3597004"><ele>19.0</ele><time>2026-03-29T11:47:22.065Z</time></trkpt><trkpt lat="43.301008" lon="-8.3597132"><ele>19.0</ele><time>2026-03-29T11:47:23.065Z</time></trkpt><trkpt lat="43.3011232" lon="-8.3597577"><ele>19.0</ele><time>2026-03-29T11:47:24.065Z</time></trkpt><trkpt lat="43.3012408" lon="-8.359824"><ele>19.0</ele><time>2026-03-29T11:47:25.066Z</time></trkpt><trkpt lat="43.3013561" lon="-8.3598936"><ele>19.0</ele><time>2026-03-29T11:47:26.065Z</time></trkpt><trkpt lat="43.3014902" lon="-8.3599654"><ele>20.0</ele><time>2026-03-29T11:47:27.065Z</time></trkpt><trkpt lat="43.3016328" lon="-8.3600399"><ele>21.0</ele><time>2026-03-29T11:47:28.066Z</time></trkpt><trkpt lat="43.3017767" lon="-8.3601127"><ele>22.0</ele><time>2026-03-29T11:47:29.065Z</time></trkpt><trkpt lat="43.3019184" lon="-8.3601879"><ele>22.0</ele><time>2026-03-29T11:47:30.065Z</time></trkpt><trkpt lat="43.3020595" lon="-8.3602623"><ele>22.0</ele><time>2026-03-29T11:47:31.066Z</time></trkpt><trkpt lat="43.3022015" lon="-8.3603347"><ele>22.0</ele><time>2026-03-29T11:47:32.065Z</time></trkpt><trkpt lat="43.3023423" lon="-8.3604108"><ele>21.0</ele><time>2026-03-29T11:47:33.066Z</time></trkpt><trkpt lat="43.3024834" lon="-8.3604769"><ele>20.0</ele><time>2026-03-29T11:47:34.065Z</time></trkpt><trkpt lat="43.3026243" lon="-8.36055"><ele>19.0</ele><time>2026-03-29T11:47:35.065Z</time></trkpt><trkpt lat="43.3027652" lon="-8.3606209"><ele>20.25</ele><time>2026-03-29T11:47:36.065Z</time></trkpt><trkpt lat="43.3029069" lon="-8.3606907"><ele>21.5</ele><time>2026-03-29T11:47:37.066Z</time></trkpt><trkpt lat="43.3030477" lon="-8.3607614"><ele>22.75</ele><time>2026-03-29T11:47:38.066Z</time></trkpt><trkpt lat="43.3031878" lon="-8.3608283"><ele>24.0</ele><time>2026-03-29T11:47:39.065Z</time></trkpt><trkpt lat="43.3033251" lon="-8.360899"><ele>24.0</ele><time>2026-03-29T11:47:40.065Z</time></trkpt><trkpt lat="43.3034615" lon="-8.3609704"><ele>24.0</ele><time>2026-03-29T11:47:41.065Z</time></trkpt><trkpt lat="43.3035943" lon="-8.3610394"><ele>24.0</ele><time>2026-03-29T11:47:42.066Z</time></trkpt><trkpt lat="43.3037261" lon="-8.3611039"><ele>24.0</ele><time>2026-03-29T11:47:43.065Z</time></trkpt><trkpt lat="43.3038568" lon="-8.3611656"><ele>24.0</ele><time>2026-03-29T11:47:44.065Z</time></trkpt><trkpt lat="43.3039812" lon="-8.3612264"><ele>24.0</ele><time>2026-03-29T11:47:45.065Z</time></trkpt><trkpt lat="43.3040995" lon="-8.3612821"><ele>24.0</ele><time>2026-03-29T11:47:46.065Z</time></trkpt><trkpt lat="43.3042141" lon="-8.3613337"><ele>24.0</ele><time>2026-03-29T11:47:47.065Z</time></trkpt><trkpt lat="43.3043259" lon="-8.3613826"><ele>24.0</ele><time>2026-03-29T11:47:48.066Z</time></trkpt><trkpt lat="43.3044404" lon="-8.3614326"><ele>24.0</ele><time>2026-03-29T11:47:49.065Z</time></trkpt><trkpt lat="43.3045533" lon="-8.3614821"><ele>24.0</ele><time>2026-03-29T11:47:50.066Z</time></trkpt><trkpt lat="43.3046645" lon="-8.3615282"><ele>24.0</ele><time>2026-03-29T11:47:51.065Z</time></trkpt><trkpt lat="43.3047765" lon="-8.3615633"><ele>24.0</ele><time>2026-03-29T11:47:52.065Z</time></trkpt><trkpt lat="43.3048937" lon="-8.361577"><ele>24.0</ele><time>2026-03-29T11:47:53.065Z</time></trkpt><trkpt lat="43.305012" lon="-8.3615738"><ele>24.0</ele><time>2026-03-29T11:47:54.065Z</time></trkpt><trkpt lat="43.3051371" lon="-8.361547"><ele>24.0</ele><time>2026-03-29T11:47:55.065Z</time></trkpt><trkpt lat="43.3052634" lon="-8.3615123"><ele>24.0</ele><time>2026-03-29T11:47:56.065Z</time></trkpt><trkpt lat="43.3053895" lon="-8.3614777"><ele>24.0</ele><time>2026-03-29T11:47:57.065Z</time></trkpt><trkpt lat="43.305515" lon="-8.3614603"><ele>24.0</ele><time>2026-03-29T11:47:58.065Z</time></trkpt><trkpt lat="43.3056361" lon="-8.3614626"><ele>24.0</ele><time>2026-03-29T11:47:59.065Z</time></trkpt><trkpt lat="43.3057607" lon="-8.3614911"><ele>24.75</ele><time>2026-03-29T11:48:00.065Z</time></trkpt><trkpt lat="43.3058839" lon="-8.3615328"><ele>25.5</ele><time>2026-03-29T11:48:01.066Z</time></trkpt><trkpt lat="43.3060081" lon="-8.3615766"><ele>26.25</ele><time>2026-03-29T11:48:02.066Z</time></trkpt><trkpt lat="43.3061389" lon="-8.3616191"><ele>27.0</ele><time>2026-03-29T11:48:03.065Z</time></trkpt><trkpt lat="43.3062708" lon="-8.3616546"><ele>27.0</ele><time>2026-03-29T11:48:04.066Z</time></trkpt><trkpt lat="43.3064045" lon="-8.3616814"><ele>27.0</ele><time>2026-03-29T11:48:05.065Z</time></trkpt><trkpt lat="43.3065385" lon="-8.3617023"><ele>27.0</ele><time>2026-03-29T11:48:06.066Z</time></trkpt><trkpt lat="43.306673" lon="-8.3617187"><ele>27.0</ele><time>2026-03-29T11:48:07.066Z</time></trkpt><trkpt lat="43.3068041" lon="-8.3617369"><ele>27.25</ele><time>2026-03-29T11:48:08.065Z</time></trkpt><trkpt lat="43.3069386" lon="-8.3617551"><ele>27.5</ele><time>2026-03-29T11:48:09.065Z</time></trkpt><trkpt lat="43.3070728" lon="-8.3617726"><ele>27.75</ele><time>2026-03-29T11:48:10.065Z</time></trkpt><trkpt lat="43.3072002" lon="-8.3617881"><ele>28.0</ele><time>2026-03-29T11:48:11.065Z</time></trkpt><trkpt lat="43.3073255" lon="-8.3618029"><ele>29.25</ele><time>2026-03-29T11:48:12.066Z</time></trkpt><trkpt lat="43.3074485" lon="-8.3618216"><ele>30.5</ele><time>2026-03-29T11:48:13.066Z</time></trkpt><trkpt lat="43.3075722" lon="-8.3618386"><ele>31.75</ele><time>2026-03-29T11:48:14.065Z</time></trkpt><trkpt lat="43.3076942" lon="-8.3618605"><ele>33.0</ele><time>2026-03-29T11:48:15.065Z</time></trkpt><trkpt lat="43.3078137" lon="-8.3618775"><ele>33.0</ele><time>2026-03-29T11:48:16.065Z</time></trkpt><trkpt lat="43.3079354" lon="-8.3618899"><ele>33.0</ele><time>2026-03-29T11:48:17.065Z</time></trkpt><trkpt lat="43.3080578" lon="-8.3619042"><ele>33.0</ele><time>2026-03-29T11:48:18.066Z</time></trkpt><trkpt lat="43.3081759" lon="-8.3619224"><ele>33.0</ele><time>2026-03-29T11:48:19.065Z</time></trkpt><trkpt lat="43.3082941" lon="-8.3619363"><ele>33.5</ele><time>2026-03-29T11:48:20.065Z</time></trkpt><trkpt lat="43.3084102" lon="-8.3619502"><ele>34.0</ele><time>2026-03-29T11:48:21.065Z</time></trkpt><trkpt lat="43.3085242" lon="-8.361962"><ele>34.5</ele><time>2026-03-29T11:48:22.066Z</time></trkpt><trkpt lat="43.3086405" lon="-8.3619725"><ele>35.0</ele><time>2026-03-29T11:48:23.066Z</time></trkpt><trkpt lat="43.3087622" lon="-8.3619871"><ele>35.0</ele><time>2026-03-29T11:48:24.065Z</time></trkpt><trkpt lat="43.3088829" lon="-8.3619985"><ele>35.0</ele><time>2026-03-29T11:48:25.065Z</time></trkpt><trkpt lat="43.3090066" lon="-8.3620156"><ele>35.0</ele><time>2026-03-29T11:48:26.065Z</time></trkpt><trkpt lat="43.3091291" lon="-8.3620321"><ele>35.0</ele><time>2026-03-29T11:48:27.065Z</time></trkpt><trkpt lat="43.3092491" lon="-8.3620453"><ele>35.0</ele><time>2026-03-29T11:48:28.065Z</time></trkpt><trkpt lat="43.309368" lon="-8.3620626"><ele>35.0</ele><time>2026-03-29T11:48:29.065Z</time></trkpt><trkpt lat="43.3094854" lon="-8.3620796"><ele>35.0</ele><time>2026-03-29T11:48:30.066Z</time></trkpt><trkpt lat="43.309598" lon="-8.3620938"><ele>35.0</ele><time>2026-03-29T11:48:31.066Z</time></trkpt><trkpt lat="43.3097124" lon="-8.3621092"><ele>35.75</ele><time>2026-03-29T11:48:32.065Z</time></trkpt><trkpt lat="43.309823" lon="-8.3621287"><ele>36.5</ele><time>2026-03-29T11:48:33.066Z</time></trkpt><trkpt lat="43.3099347" lon="-8.3621507"><ele>37.25</ele><time>2026-03-29T11:48:34.066Z</time></trkpt><trkpt lat="43.3100491" lon="-8.3621837"><ele>38.0</ele><time>2026-03-29T11:48:35.066Z</time></trkpt><trkpt lat="43.3101719" lon="-8.3622319"><ele>38.0</ele><time>2026-03-29T11:48:36.065Z</time></trkpt><trkpt lat="43.3102926" lon="-8.3622865"><ele>38.0</ele><time>2026-03-29T11:48:37.066Z</time></trkpt><trkpt lat="43.3104106" lon="-8.3623513"><ele>38.0</ele><time>2026-03-29T11:48:38.066Z</time></trkpt><trkpt lat="43.3105245" lon="-8.3624157"><ele>38.0</ele><time>2026-03-29T11:48:39.065Z</time></trkpt><trkpt lat="43.3106326" lon="-8.3624758"><ele>35.75</ele><time>2026-03-29T11:48:40.065Z</time></trkpt><trkpt lat="43.3107364" lon="-8.3625385"><ele>33.5</ele><time>2026-03-29T11:48:41.066Z</time></trkpt><trkpt lat="43.3108404" lon="-8.3626054"><ele>31.25</ele><time>2026-03-29T11:48:42.066Z</time></trkpt><trkpt lat="43.3109422" lon="-8.3626783"><ele>29.0</ele><time>2026-03-29T11:48:43.065Z</time></trkpt><trkpt lat="43.3110403" lon="-8.3627638"><ele>29.0</ele><time>2026-03-29T11:48:44.065Z</time></trkpt><trkpt lat="43.3111255" lon="-8.3628652"><ele>29.0</ele><time>2026-03-29T11:48:45.065Z</time></trkpt><trkpt lat="43.3112013" lon="-8.3629818"><ele>29.0</ele><time>2026-03-29T11:48:46.066Z</time></trkpt><trkpt lat="43.3112575" lon="-8.3631119"><ele>29.0</ele><time>2026-03-29T11:48:47.065Z</time></trkpt><trkpt lat="43.3113011" lon="-8.3632509"><ele>29.0</ele><time>2026-03-29T11:48:48.066Z</time></trkpt><trkpt lat="43.3113314" lon="-8.3633927"><ele>29.2</ele><time>2026-03-29T11:48:49.065Z</time></trkpt><trkpt lat="43.3113576" lon="-8.3635351"><ele>29.4</ele><time>2026-03-29T11:48:50.065Z</time></trkpt><trkpt lat="43.3113821" lon="-8.3636637"><ele>29.6</ele><time>2026-03-29T11:48:51.066Z</time></trkpt><trkpt lat="43.311417" lon="-8.3637916"><ele>29.8</ele><time>2026-03-29T11:48:52.065Z</time></trkpt><trkpt lat="43.3114699" lon="-8.363903"><ele>30.0</ele><time>2026-03-29T11:48:53.066Z</time></trkpt><trkpt lat="43.311536" lon="-8.3639959"><ele>29.4</ele><time>2026-03-29T11:48:54.066Z</time></trkpt><trkpt lat="43.3116202" lon="-8.364068"><ele>28.8</ele><time>2026-03-29T11:48:55.066Z</time></trkpt><trkpt lat="43.3117161" lon="-8.364115"><ele>28.200000000000003</ele><time>2026-03-29T11:48:56.066Z</time></trkpt><trkpt lat="43.3118159" lon="-8.364149"><ele>27.6</ele><time>2026-03-29T11:48:57.065Z</time></trkpt><trkpt lat="43.311921" lon="-8.3641795"><ele>27.0</ele><time>2026-03-29T11:48:58.065Z</time></trkpt><trkpt lat="43.3120259" lon="-8.3642077"><ele>27.0</ele><time>2026-03-29T11:48:59.065Z</time></trkpt><trkpt lat="43.3121339" lon="-8.3642381"><ele>27.0</ele><time>2026-03-29T11:49:00.065Z</time></trkpt><trkpt lat="43.3122446" lon="-8.3642686"><ele>27.0</ele><time>2026-03-29T11:49:01.066Z</time></trkpt><trkpt lat="43.3123551" lon="-8.364301"><ele>27.0</ele><time>2026-03-29T11:49:02.065Z</time></trkpt><trkpt lat="43.3124691" lon="-8.3643294"><ele>27.0</ele><time>2026-03-29T11:49:03.065Z</time></trkpt><trkpt lat="43.3125818" lon="-8.3643645"><ele>27.000000000000004</ele><time>2026-03-29T11:49:04.066Z</time></trkpt><trkpt lat="43.3126889" lon="-8.3643916"><ele>27.000000000000004</ele><time>2026-03-29T11:49:05.065Z</time></trkpt><trkpt lat="43.3128049" lon="-8.3644239"><ele>27.0</ele><time>2026-03-29T11:49:06.065Z</time></trkpt><trkpt lat="43.3129016" lon="-8.3644508"><ele>27.0</ele><time>2026-03-29T11:49:07.066Z</time></trkpt><trkpt lat="43.3129743" lon="-8.364469"><ele>27.0</ele><time>2026-03-29T11:49:08.066Z</time></trkpt><trkpt lat="43.313038" lon="-8.3644789"><ele>27.0</ele><time>2026-03-29T11:49:09.065Z</time></trkpt><trkpt lat="43.3131189" lon="-8.3644883"><ele>27.0</ele><time>2026-03-29T11:49:10.066Z</time></trkpt><trkpt lat="43.3131998" lon="-8.3644928"><ele>27.0</ele><time>2026-03-29T11:49:11.065Z</time></trkpt><trkpt lat="43.3132769" lon="-8.3644969"><ele>27.0</ele><time>2026-03-29T11:49:12.066Z</time></trkpt><trkpt lat="43.3133469" lon="-8.3645032"><ele>27.0</ele><time>2026-03-29T11:49:13.065Z</time></trkpt><trkpt lat="43.3134176" lon="-8.3644996"><ele>27.0</ele><time>2026-03-29T11:49:14.065Z</time></trkpt><trkpt lat="43.3135271" lon="-8.3644945"><ele>26.714285714285715</ele><time>2026-03-29T11:49:16.066Z</time></trkpt><trkpt lat="43.3136124" lon="-8.3644892"><ele>26.428571428571427</ele><time>2026-03-29T11:49:18.066Z</time></trkpt><trkpt lat="43.3136778" lon="-8.3644846"><ele>26.142857142857146</ele><time>2026-03-29T11:49:20.065Z</time></trkpt><trkpt lat="43.3137455" lon="-8.3644756"><ele>25.857142857142858</ele><time>2026-03-29T11:49:23.065Z</time></trkpt><trkpt lat="43.313814" lon="-8.3644429"><ele>25.571428571428573</ele><time>2026-03-29T11:49:29.065Z</time></trkpt><trkpt lat="43.3138844" lon="-8.3644151"><ele>25.28571428571429</ele><time>2026-03-29T11:49:30.066Z</time></trkpt><trkpt lat="43.3139514" lon="-8.3644188"><ele>25.0</ele><time>2026-03-29T11:49:31.066Z</time></trkpt><trkpt lat="43.3140277" lon="-8.3644428"><ele>25.833333333333336</ele><time>2026-03-29T11:49:32.065Z</time></trkpt><trkpt lat="43.3141007" lon="-8.3644541"><ele>26.666666666666668</ele><time>2026-03-29T11:49:33.066Z</time></trkpt><trkpt lat="43.3141759" lon="-8.3644596"><ele>27.5</ele><time>2026-03-29T11:49:34.065Z</time></trkpt><trkpt lat="43.3142528" lon="-8.3644654"><ele>28.333333333333336</ele><time>2026-03-29T11:49:35.066Z</time></trkpt><trkpt lat="43.3143147" lon="-8.364483"><ele>29.166666666666668</ele><time>2026-03-29T11:49:36.065Z</time></trkpt><trkpt lat="43.3144257" lon="-8.3645366"><ele>30.0</ele><time>2026-03-29T11:49:38.065Z</time></trkpt><trkpt lat="43.3145269" lon="-8.3646012"><ele>30.0</ele><time>2026-03-29T11:49:40.065Z</time></trkpt><trkpt lat="43.3146141" lon="-8.3646888"><ele>30.0</ele><time>2026-03-29T11:49:42.066Z</time></trkpt><trkpt lat="43.3146937" lon="-8.3647797"><ele>30.0</ele><time>2026-03-29T11:49:44.066Z</time></trkpt><trkpt lat="43.3147686" lon="-8.3648625"><ele>30.0</ele><time>2026-03-29T11:49:46.065Z</time></trkpt><trkpt lat="43.3148469" lon="-8.3649506"><ele>30.0</ele><time>2026-03-29T11:49:48.065Z</time></trkpt><trkpt lat="43.3149251" lon="-8.3650336"><ele>29.0</ele><time>2026-03-29T11:49:50.065Z</time></trkpt><trkpt lat="43.315022" lon="-8.3651291"><ele>28.0</ele><time>2026-03-29T11:49:52.065Z</time></trkpt><trkpt lat="43.3150815" lon="-8.36526"><ele>27.0</ele><time>2026-03-29T11:49:54.066Z</time></trkpt><trkpt lat="43.3150246" lon="-8.365388"><ele>26.0</ele><time>2026-03-29T11:49:56.065Z</time></trkpt><trkpt lat="43.3149475" lon="-8.3654743"><ele>25.0</ele><time>2026-03-29T11:49:58.065Z</time></trkpt><trkpt lat="43.3148898" lon="-8.3655421"><ele>25.0</ele><time>2026-03-29T11:50:00.066Z</time></trkpt><trkpt lat="43.314824" lon="-8.3656011"><ele>25.0</ele><time>2026-03-29T11:50:13.065Z</time></trkpt><trkpt lat="43.3147358" lon="-8.365685"><ele>25.0</ele><time>2026-03-29T11:50:15.066Z</time></trkpt><trkpt lat="43.3146669" lon="-8.3657372"><ele>25.0</ele><time>2026-03-29T11:50:18.066Z</time></trkpt><trkpt lat="43.3146054" lon="-8.3657873"><ele>25.0</ele><time>2026-03-29T11:50:22.066Z</time></trkpt><trkpt lat="43.3144978" lon="-8.3659011"><ele>27.333333333333336</ele><time>2026-03-29T11:50:24.066Z</time></trkpt><trkpt lat="43.3143993" lon="-8.3660184"><ele>29.666666666666664</ele><time>2026-03-29T11:50:25.066Z</time></trkpt><trkpt lat="43.3142769" lon="-8.3661544"><ele>32.0</ele><time>2026-03-29T11:50:26.065Z</time></trkpt><trkpt lat="43.3141403" lon="-8.3663094"><ele>33.33333333333333</ele><time>2026-03-29T11:50:27.065Z</time></trkpt><trkpt lat="43.3139982" lon="-8.3664597"><ele>34.666666666666664</ele><time>2026-03-29T11:50:28.066Z</time></trkpt><trkpt lat="43.3138625" lon="-8.3666212"><ele>36.0</ele><time>2026-03-29T11:50:29.065Z</time></trkpt><trkpt lat="43.3137232" lon="-8.3667773"><ele>36.0</ele><time>2026-03-29T11:50:30.065Z</time></trkpt><trkpt lat="43.3135776" lon="-8.3669372"><ele>36.0</ele><time>2026-03-29T11:50:31.065Z</time></trkpt><trkpt lat="43.3134282" lon="-8.367101"><ele>36.0</ele><time>2026-03-29T11:50:32.065Z</time></trkpt><trkpt lat="43.3132785" lon="-8.3672649"><ele>36.666666666666664</ele><time>2026-03-29T11:50:33.065Z</time></trkpt><trkpt lat="43.3131375" lon="-8.3674188"><ele>37.33333333333333</ele><time>2026-03-29T11:50:34.066Z</time></trkpt><trkpt lat="43.3130039" lon="-8.3675649"><ele>38.0</ele><time>2026-03-29T11:50:35.065Z</time></trkpt><trkpt lat="43.3128826" lon="-8.3677021"><ele>41.25</ele><time>2026-03-29T11:50:36.065Z</time></trkpt><trkpt lat="43.3127638" lon="-8.367829"><ele>44.5</ele><time>2026-03-29T11:50:37.066Z</time></trkpt><trkpt lat="43.3126446" lon="-8.3679511"><ele>47.75</ele><time>2026-03-29T11:50:38.066Z</time></trkpt><trkpt lat="43.3125282" lon="-8.3680652"><ele>51.0</ele><time>2026-03-29T11:50:39.066Z</time></trkpt><trkpt lat="43.3124155" lon="-8.3681754"><ele>51.5</ele><time>2026-03-29T11:50:40.065Z</time></trkpt><trkpt lat="43.312307" lon="-8.3682858"><ele>52.0</ele><time>2026-03-29T11:50:41.065Z</time></trkpt><trkpt lat="43.3121991" lon="-8.3684087"><ele>52.5</ele><time>2026-03-29T11:50:42.066Z</time></trkpt><trkpt lat="43.3120879" lon="-8.3685428"><ele>53.0</ele><time>2026-03-29T11:50:43.066Z</time></trkpt><trkpt lat="43.3119783" lon="-8.3686767"><ele>53.8</ele><time>2026-03-29T11:50:44.066Z</time></trkpt><trkpt lat="43.3118729" lon="-8.3688002"><ele>54.599999999999994</ele><time>2026-03-29T11:50:45.065Z</time></trkpt><trkpt lat="43.3117832" lon="-8.3689108"><ele>55.400000000000006</ele><time>2026-03-29T11:50:46.065Z</time></trkpt><trkpt lat="43.3117137" lon="-8.3690043"><ele>56.2</ele><time>2026-03-29T11:50:47.066Z</time></trkpt><trkpt lat="43.3116663" lon="-8.3690874"><ele>57.0</ele><time>2026-03-29T11:50:48.066Z</time></trkpt><trkpt lat="43.3116371" lon="-8.3691754"><ele>57.25</ele><time>2026-03-29T11:50:49.065Z</time></trkpt><trkpt lat="43.3116253" lon="-8.3692888"><ele>57.5</ele><time>2026-03-29T11:50:50.065Z</time></trkpt><trkpt lat="43.3116187" lon="-8.3694448"><ele>57.75</ele><time>2026-03-29T11:50:51.065Z</time></trkpt><trkpt lat="43.3116375" lon="-8.3696625"><ele>58.0</ele><time>2026-03-29T11:50:52.065Z</time></trkpt><trkpt lat="43.3116503" lon="-8.3699197"><ele>57.33333333333333</ele><time>2026-03-29T11:50:53.065Z</time></trkpt><trkpt lat="43.3116382" lon="-8.370209"><ele>56.66666666666667</ele><time>2026-03-29T11:50:54.066Z</time></trkpt><trkpt lat="43.3115856" lon="-8.3705049"><ele>56.0</ele><time>2026-03-29T11:50:55.066Z</time></trkpt><trkpt lat="43.311489" lon="-8.370797"><ele>61.0</ele><time>2026-03-29T11:50:56.066Z</time></trkpt><trkpt lat="43.3113451" lon="-8.371076"><ele>66.0</ele><time>2026-03-29T11:50:57.066Z</time></trkpt><trkpt lat="43.3111563" lon="-8.3713447"><ele>61.0</ele><time>2026-03-29T11:50:58.066Z</time></trkpt><trkpt lat="43.3109409" lon="-8.3716043"><ele>56.0</ele><time>2026-03-29T11:50:59.065Z</time></trkpt><trkpt lat="43.3107143" lon="-8.3718573"><ele>58.5</ele><time>2026-03-29T11:51:00.065Z</time></trkpt><trkpt lat="43.3104843" lon="-8.3721213"><ele>61.0</ele><time>2026-03-29T11:51:01.065Z</time></trkpt><trkpt lat="43.3102716" lon="-8.3723871"><ele>61.0</ele><time>2026-03-29T11:51:02.066Z</time></trkpt><trkpt lat="43.3100751" lon="-8.3726646"><ele>61.0</ele><time>2026-03-29T11:51:03.065Z</time></trkpt><trkpt lat="43.3098932" lon="-8.3729555"><ele>66.0</ele><time>2026-03-29T11:51:04.065Z</time></trkpt><trkpt lat="43.3097231" lon="-8.373262"><ele>71.0</ele><time>2026-03-29T11:51:05.065Z</time></trkpt><trkpt lat="43.309565" lon="-8.3735611"><ele>71.0</ele><time>2026-03-29T11:51:06.066Z</time></trkpt><trkpt lat="43.309417" lon="-8.3738442"><ele>71.0</ele><time>2026-03-29T11:51:07.065Z</time></trkpt><trkpt lat="43.3092786" lon="-8.3741102"><ele>69.33333333333334</ele><time>2026-03-29T11:51:08.066Z</time></trkpt><trkpt lat="43.3091502" lon="-8.3743611"><ele>67.66666666666667</ele><time>2026-03-29T11:51:09.065Z</time></trkpt><trkpt lat="43.3090295" lon="-8.3745995"><ele>66.0</ele><time>2026-03-29T11:51:10.065Z</time></trkpt><trkpt lat="43.3089144" lon="-8.3748265"><ele>66.0</ele><time>2026-03-29T11:51:11.065Z</time></trkpt><trkpt lat="43.3088032" lon="-8.3750452"><ele>66.0</ele><time>2026-03-29T11:51:12.066Z</time></trkpt><trkpt lat="43.3086986" lon="-8.3752523"><ele>66.0</ele><time>2026-03-29T11:51:13.066Z</time></trkpt><trkpt lat="43.3085991" lon="-8.3754491"><ele>66.0</ele><time>2026-03-29T11:51:14.066Z</time></trkpt><trkpt lat="43.3085023" lon="-8.3756312"><ele>66.0</ele><time>2026-03-29T11:51:15.065Z</time></trkpt><trkpt lat="43.308407" lon="-8.3758065"><ele>66.0</ele><time>2026-03-29T11:51:16.065Z</time></trkpt><trkpt lat="43.308315" lon="-8.3759812"><ele>66.0</ele><time>2026-03-29T11:51:17.066Z</time></trkpt><trkpt lat="43.3082179" lon="-8.3761517"><ele>66.0</ele><time>2026-03-29T11:51:18.065Z</time></trkpt><trkpt lat="43.3080962" lon="-8.3763098"><ele>66.0</ele><time>2026-03-29T11:51:19.065Z</time></trkpt><trkpt lat="43.3079411" lon="-8.3764591"><ele>64.66666666666667</ele><time>2026-03-29T11:51:20.065Z</time></trkpt><trkpt lat="43.3077601" lon="-8.3766081"><ele>63.333333333333336</ele><time>2026-03-29T11:51:21.065Z</time></trkpt><trkpt lat="43.3075643" lon="-8.3767598"><ele>62.0</ele><time>2026-03-29T11:51:22.066Z</time></trkpt><trkpt lat="43.3073629" lon="-8.3769168"><ele>60.5</ele><time>2026-03-29T11:51:23.065Z</time></trkpt><trkpt lat="43.3071621" lon="-8.3770732"><ele>59.0</ele><time>2026-03-29T11:51:24.065Z</time></trkpt><trkpt lat="43.3069628" lon="-8.3772291"><ele>59.0</ele><time>2026-03-29T11:51:25.065Z</time></trkpt><trkpt lat="43.3067673" lon="-8.3773781"><ele>59.0</ele><time>2026-03-29T11:51:26.065Z</time></trkpt><trkpt lat="43.306582" lon="-8.3775304"><ele>59.0</ele><time>2026-03-29T11:51:27.065Z</time></trkpt><trkpt lat="43.3064161" lon="-8.3777065"><ele>67.5</ele><time>2026-03-29T11:51:28.066Z</time></trkpt><trkpt lat="43.3062767" lon="-8.3779253"><ele>76.0</ele><time>2026-03-29T11:51:29.066Z</time></trkpt><trkpt lat="43.3060886" lon="-8.3784744"><ele>76.0</ele><time>2026-03-29T11:51:31.066Z</time></trkpt><trkpt lat="43.3060318" lon="-8.3787794"><ele>76.0</ele><time>2026-03-29T11:51:32.066Z</time></trkpt><trkpt lat="43.3059856" lon="-8.3790807"><ele>71.33333333333333</ele><time>2026-03-29T11:51:33.065Z</time></trkpt><trkpt lat="43.3059496" lon="-8.3793699"><ele>66.66666666666667</ele><time>2026-03-29T11:51:34.065Z</time></trkpt><trkpt lat="43.3059363" lon="-8.37965"><ele>62.0</ele><time>2026-03-29T11:51:35.065Z</time></trkpt><trkpt lat="43.3059557" lon="-8.3799182"><ele>56.66666666666667</ele><time>2026-03-29T11:51:36.065Z</time></trkpt><trkpt lat="43.3060092" lon="-8.380169"><ele>51.333333333333336</ele><time>2026-03-29T11:51:37.066Z</time></trkpt><trkpt lat="43.3060881" lon="-8.3803995"><ele>46.0</ele><time>2026-03-29T11:51:38.066Z</time></trkpt><trkpt lat="43.306201" lon="-8.3805969"><ele>46.0</ele><time>2026-03-29T11:51:39.065Z</time></trkpt><trkpt lat="43.3063182" lon="-8.3807811"><ele>46.0</ele><time>2026-03-29T11:51:40.066Z</time></trkpt><trkpt lat="43.3064258" lon="-8.3809641"><ele>46.0</ele><time>2026-03-29T11:51:41.065Z</time></trkpt><trkpt lat="43.3065085" lon="-8.3811526"><ele>39.333333333333336</ele><time>2026-03-29T11:51:42.065Z</time></trkpt><trkpt lat="43.3065605" lon="-8.3813555"><ele>32.666666666666664</ele><time>2026-03-29T11:51:43.066Z</time></trkpt><trkpt lat="43.3065792" lon="-8.3815725"><ele>26.0</ele><time>2026-03-29T11:51:44.065Z</time></trkpt><trkpt lat="43.3065802" lon="-8.3817993"><ele>26.0</ele><time>2026-03-29T11:51:45.065Z</time></trkpt><trkpt lat="43.3065993" lon="-8.3820186"><ele>26.0</ele><time>2026-03-29T11:51:46.065Z</time></trkpt><trkpt lat="43.3066476" lon="-8.3822306"><ele>26.0</ele><time>2026-03-29T11:51:47.066Z</time></trkpt><trkpt lat="43.3067199" lon="-8.3824423"><ele>26.666666666666664</ele><time>2026-03-29T11:51:48.065Z</time></trkpt><trkpt lat="43.3068239" lon="-8.382628"><ele>27.333333333333336</ele><time>2026-03-29T11:51:49.065Z</time></trkpt><trkpt lat="43.3069519" lon="-8.3827847"><ele>28.0</ele><time>2026-03-29T11:51:50.065Z</time></trkpt><trkpt lat="43.3070947" lon="-8.3829021"><ele>25.666666666666668</ele><time>2026-03-29T11:51:51.066Z</time></trkpt><trkpt lat="43.3072461" lon="-8.3829899"><ele>23.333333333333336</ele><time>2026-03-29T11:51:52.066Z</time></trkpt><trkpt lat="43.3073962" lon="-8.3830674"><ele>21.0</ele><time>2026-03-29T11:51:53.066Z</time></trkpt><trkpt lat="43.3075429" lon="-8.3831396"><ele>21.0</ele><time>2026-03-29T11:51:54.066Z</time></trkpt><trkpt lat="43.3076834" lon="-8.3831988"><ele>21.0</ele><time>2026-03-29T11:51:55.066Z</time></trkpt><trkpt lat="43.307816" lon="-8.3832227"><ele>21.0</ele><time>2026-03-29T11:51:56.066Z</time></trkpt><trkpt lat="43.3079418" lon="-8.3832108"><ele>21.0</ele><time>2026-03-29T11:51:57.066Z</time></trkpt><trkpt lat="43.3080633" lon="-8.3831695"><ele>21.5</ele><time>2026-03-29T11:51:58.065Z</time></trkpt><trkpt lat="43.3081841" lon="-8.3831195"><ele>22.0</ele><time>2026-03-29T11:51:59.065Z</time></trkpt><trkpt lat="43.308303" lon="-8.3830793"><ele>22.5</ele><time>2026-03-29T11:52:00.065Z</time></trkpt><trkpt lat="43.3084212" lon="-8.3830398"><ele>23.0</ele><time>2026-03-29T11:52:01.066Z</time></trkpt><trkpt lat="43.3085384" lon="-8.3830088"><ele>23.2</ele><time>2026-03-29T11:52:02.065Z</time></trkpt><trkpt lat="43.3086489" lon="-8.3829826"><ele>23.4</ele><time>2026-03-29T11:52:03.065Z</time></trkpt><trkpt lat="43.3087548" lon="-8.3829591"><ele>23.599999999999998</ele><time>2026-03-29T11:52:04.065Z</time></trkpt><trkpt lat="43.3088574" lon="-8.3829366"><ele>23.799999999999997</ele><time>2026-03-29T11:52:05.066Z</time></trkpt><trkpt lat="43.3089556" lon="-8.3829155"><ele>24.0</ele><time>2026-03-29T11:52:06.065Z</time></trkpt><trkpt lat="43.3090538" lon="-8.3828902"><ele>24.4</ele><time>2026-03-29T11:52:07.065Z</time></trkpt><trkpt lat="43.3091501" lon="-8.3828653"><ele>24.799999999999997</ele><time>2026-03-29T11:52:08.065Z</time></trkpt><trkpt lat="43.3092447" lon="-8.3828385"><ele>25.200000000000003</ele><time>2026-03-29T11:52:09.065Z</time></trkpt><trkpt lat="43.3093403" lon="-8.3828064"><ele>25.6</ele><time>2026-03-29T11:52:10.065Z</time></trkpt><trkpt lat="43.3094341" lon="-8.3827803"><ele>26.0</ele><time>2026-03-29T11:52:11.065Z</time></trkpt><trkpt lat="43.3095288" lon="-8.3827593"><ele>26.0</ele><time>2026-03-29T11:52:12.065Z</time></trkpt><trkpt lat="43.3096243" lon="-8.38274"><ele>26.0</ele><time>2026-03-29T11:52:13.066Z</time></trkpt><trkpt lat="43.3097148" lon="-8.3827227"><ele>26.0</ele><time>2026-03-29T11:52:14.065Z</time></trkpt><trkpt lat="43.3098068" lon="-8.3827035"><ele>26.0</ele><time>2026-03-29T11:52:15.066Z</time></trkpt><trkpt lat="43.3099032" lon="-8.382682"><ele>26.0</ele><time>2026-03-29T11:52:16.065Z</time></trkpt><trkpt lat="43.310001" lon="-8.3826644"><ele>26.200000000000003</ele><time>2026-03-29T11:52:17.065Z</time></trkpt><trkpt lat="43.3101006" lon="-8.3826451"><ele>26.400000000000002</ele><time>2026-03-29T11:52:18.065Z</time></trkpt><trkpt lat="43.3102029" lon="-8.3826315"><ele>26.6</ele><time>2026-03-29T11:52:19.065Z</time></trkpt><trkpt lat="43.3103075" lon="-8.3826262"><ele>26.8</ele><time>2026-03-29T11:52:20.065Z</time></trkpt><trkpt lat="43.3104163" lon="-8.3826235"><ele>27.0</ele><time>2026-03-29T11:52:21.065Z</time></trkpt><trkpt lat="43.3105256" lon="-8.3826228"><ele>29.0</ele><time>2026-03-29T11:52:22.066Z</time></trkpt><trkpt lat="43.3106375" lon="-8.3826264"><ele>31.0</ele><time>2026-03-29T11:52:23.065Z</time></trkpt><trkpt lat="43.3107604" lon="-8.3826181"><ele>33.0</ele><time>2026-03-29T11:52:24.065Z</time></trkpt><trkpt lat="43.3108748" lon="-8.382623"><ele>35.0</ele><time>2026-03-29T11:52:25.065Z</time></trkpt><trkpt lat="43.310987" lon="-8.3826248"><ele>35.0</ele><time>2026-03-29T11:52:26.066Z</time></trkpt><trkpt lat="43.3110967" lon="-8.3826269"><ele>35.0</ele><time>2026-03-29T11:52:27.066Z</time></trkpt><trkpt lat="43.3111964" lon="-8.382623"><ele>35.0</ele><time>2026-03-29T11:52:28.065Z</time></trkpt><trkpt lat="43.3112926" lon="-8.3826141"><ele>35.0</ele><time>2026-03-29T11:52:29.065Z</time></trkpt><trkpt lat="43.3113849" lon="-8.3826117"><ele>35.0</ele><time>2026-03-29T11:52:30.066Z</time></trkpt><trkpt lat="43.3114862" lon="-8.3825992"><ele>35.8</ele><time>2026-03-29T11:52:31.065Z</time></trkpt><trkpt lat="43.3115651" lon="-8.3826048"><ele>36.6</ele><time>2026-03-29T11:52:33.065Z</time></trkpt><trkpt lat="43.3116536" lon="-8.3826175"><ele>37.4</ele><time>2026-03-29T11:52:34.065Z</time></trkpt><trkpt lat="43.3117384" lon="-8.382636"><ele>38.2</ele><time>2026-03-29T11:52:35.066Z</time></trkpt><trkpt lat="43.3118385" lon="-8.3826621"><ele>39.0</ele><time>2026-03-29T11:52:36.066Z</time></trkpt><trkpt lat="43.3119898" lon="-8.3827045"><ele>39.0</ele><time>2026-03-29T11:52:37.066Z</time></trkpt><trkpt lat="43.3120836" lon="-8.382749"><ele>39.0</ele><time>2026-03-29T11:52:39.065Z</time></trkpt><trkpt lat="43.3121623" lon="-8.3827669"><ele>39.0</ele><time>2026-03-29T11:52:57.065Z</time></trkpt><trkpt lat="43.31223" lon="-8.3828022"><ele>39.0</ele><time>2026-03-29T11:52:59.065Z</time></trkpt><trkpt lat="43.3123089" lon="-8.3828384"><ele>39.0</ele><time>2026-03-29T11:53:01.065Z</time></trkpt><trkpt lat="43.3123747" lon="-8.3828809"><ele>39.0</ele><time>2026-03-29T11:53:03.065Z</time></trkpt><trkpt lat="43.3124262" lon="-8.3830405"><ele>40.0</ele><time>2026-03-29T11:53:05.065Z</time></trkpt><trkpt lat="43.3124357" lon="-8.3831805"><ele>41.0</ele><time>2026-03-29T11:53:06.066Z</time></trkpt><trkpt lat="43.312444" lon="-8.383339"><ele>42.0</ele><time>2026-03-29T11:53:07.065Z</time></trkpt><trkpt lat="43.312459" lon="-8.3835067"><ele>43.0</ele><time>2026-03-29T11:53:08.066Z</time></trkpt><trkpt lat="43.312482" lon="-8.3836699"><ele>43.0</ele><time>2026-03-29T11:53:09.065Z</time></trkpt><trkpt lat="43.3125173" lon="-8.3838219"><ele>43.0</ele><time>2026-03-29T11:53:10.066Z</time></trkpt><trkpt lat="43.3125652" lon="-8.3839609"><ele>43.0</ele><time>2026-03-29T11:53:11.066Z</time></trkpt><trkpt lat="43.3126164" lon="-8.3840846"><ele>43.0</ele><time>2026-03-29T11:53:12.065Z</time></trkpt><trkpt lat="43.3126684" lon="-8.3841946"><ele>43.0</ele><time>2026-03-29T11:53:13.066Z</time></trkpt><trkpt lat="43.3127143" lon="-8.3842939"><ele>36.0</ele><time>2026-03-29T11:53:14.065Z</time></trkpt><trkpt lat="43.3127523" lon="-8.3843799"><ele>36.0</ele><time>2026-03-29T11:53:15.065Z</time></trkpt><trkpt lat="43.3128222" lon="-8.3844493"><ele>36.0</ele><time>2026-03-29T11:53:17.065Z</time></trkpt><trkpt lat="43.3128783" lon="-8.3844937"><ele>36.0</ele><time>2026-03-29T11:53:38.065Z</time></trkpt></trkseg></trk></gpx>